<?xml version="1.0" encoding="UTF-8" standalone="no" ?>
<gpx xmlns="http://www.topografix.com/GPX/1/1" xmlns:xsi="http://www.w3.org/2001/XMLSchema-instance" xsi:schemaLocation="http://www.topografix.com/GPX/1/1 http://www.topografix.com/GPX/1/1/gpx.xsd" version="1.1" creator="VisuGPX - https://www.visugpx.com">
  <metadata>
    <name>boucle en passant par le Corbusier</name>
    <desc><![CDATA[Parcours varié, assez difficile, certaines côtes sont techniques et difficiles, poussage possible (c'était mon cas)]]></desc>
  </metadata>
  <trk>
    <name><![CDATA[2023 09 30 boucle en passant par le Corbusier]]></name>
    <trkseg>
      <trkpt lat="45.83317" lon="4.70902">
        <ele>357.06268</ele>
        <time>2023-09-30T06:50:37.000Z</time>
      </trkpt>
      <trkpt lat="45.83316" lon="4.70915">
        <ele>330.55038</ele>
        <time>2023-09-30T06:51:44.126Z</time>
      </trkpt>
      <trkpt lat="45.83324" lon="4.70915">
        <ele>318.76797</ele>
        <time>2023-09-30T06:51:46.000Z</time>
      </trkpt>
      <trkpt lat="45.83325" lon="4.70914">
        <ele>312.9054</ele>
        <time>2023-09-30T06:51:47.000Z</time>
      </trkpt>
      <trkpt lat="45.83327" lon="4.70914">
        <ele>309.57211</ele>
        <time>2023-09-30T06:51:48.000Z</time>
      </trkpt>
      <trkpt lat="45.83328" lon="4.7091">
        <ele>307.24469</ele>
        <time>2023-09-30T06:51:50.000Z</time>
      </trkpt>
      <trkpt lat="45.83329" lon="4.70907">
        <ele>305.73602</ele>
        <time>2023-09-30T06:51:53.000Z</time>
      </trkpt>
      <trkpt lat="45.8333" lon="4.70905">
        <ele>307.1044</ele>
        <time>2023-09-30T06:52:01.000Z</time>
      </trkpt>
      <trkpt lat="45.8333" lon="4.70901">
        <ele>308.20667</ele>
        <time>2023-09-30T06:52:27.000Z</time>
      </trkpt>
      <trkpt lat="45.83331" lon="4.70897">
        <ele>309.07538</ele>
        <time>2023-09-30T06:52:28.000Z</time>
      </trkpt>
      <trkpt lat="45.83331" lon="4.70894">
        <ele>309.80725</ele>
        <time>2023-09-30T06:52:29.000Z</time>
      </trkpt>
      <trkpt lat="45.83332" lon="4.70891">
        <ele>310.41806</ele>
        <time>2023-09-30T06:52:30.000Z</time>
      </trkpt>
      <trkpt lat="45.83332" lon="4.70887">
        <ele>310.95978</ele>
        <time>2023-09-30T06:52:31.000Z</time>
      </trkpt>
      <trkpt lat="45.83333" lon="4.70884">
        <ele>311.44473</ele>
        <time>2023-09-30T06:52:32.000Z</time>
      </trkpt>
      <trkpt lat="45.83334" lon="4.7088">
        <ele>311.86786</ele>
        <time>2023-09-30T06:52:33.000Z</time>
      </trkpt>
      <trkpt lat="45.83335" lon="4.70877">
        <ele>312.22937</ele>
        <time>2023-09-30T06:52:34.000Z</time>
      </trkpt>
      <trkpt lat="45.83337" lon="4.70874">
        <ele>312.55151</ele>
        <time>2023-09-30T06:52:35.000Z</time>
      </trkpt>
      <trkpt lat="45.83338" lon="4.70869">
        <ele>312.85071</ele>
        <time>2023-09-30T06:52:36.000Z</time>
      </trkpt>
      <trkpt lat="45.83337" lon="4.70865">
        <ele>313.0976</ele>
        <time>2023-09-30T06:52:37.000Z</time>
      </trkpt>
      <trkpt lat="45.83337" lon="4.7086">
        <ele>313.3299</ele>
        <time>2023-09-30T06:52:38.000Z</time>
      </trkpt>
      <trkpt lat="45.83337" lon="4.70855">
        <ele>311.36237</ele>
        <time>2023-09-30T06:52:39.000Z</time>
      </trkpt>
      <trkpt lat="45.83337" lon="4.70851">
        <ele>312.04584</ele>
        <time>2023-09-30T06:52:40.000Z</time>
      </trkpt>
      <trkpt lat="45.83338" lon="4.70847">
        <ele>313.29544</ele>
        <time>2023-09-30T06:52:41.000Z</time>
      </trkpt>
      <trkpt lat="45.83338" lon="4.70842">
        <ele>314.60269</ele>
        <time>2023-09-30T06:52:42.000Z</time>
      </trkpt>
      <trkpt lat="45.83339" lon="4.70837">
        <ele>315.85294</ele>
        <time>2023-09-30T06:52:43.000Z</time>
      </trkpt>
      <trkpt lat="45.8334" lon="4.70831">
        <ele>317.11435</ele>
        <time>2023-09-30T06:52:44.000Z</time>
      </trkpt>
      <trkpt lat="45.8334" lon="4.70826">
        <ele>318.07227</ele>
        <time>2023-09-30T06:52:45.000Z</time>
      </trkpt>
      <trkpt lat="45.83341" lon="4.70821">
        <ele>318.07782</ele>
        <time>2023-09-30T06:52:46.000Z</time>
      </trkpt>
      <trkpt lat="45.83342" lon="4.70816">
        <ele>318.03552</ele>
        <time>2023-09-30T06:52:47.000Z</time>
      </trkpt>
      <trkpt lat="45.83342" lon="4.7081">
        <ele>318.00232</ele>
        <time>2023-09-30T06:52:48.000Z</time>
      </trkpt>
      <trkpt lat="45.83343" lon="4.70804">
        <ele>317.95282</ele>
        <time>2023-09-30T06:52:49.000Z</time>
      </trkpt>
      <trkpt lat="45.83344" lon="4.70799">
        <ele>317.91382</ele>
        <time>2023-09-30T06:52:50.000Z</time>
      </trkpt>
      <trkpt lat="45.83344" lon="4.70793">
        <ele>317.87427</ele>
        <time>2023-09-30T06:52:51.000Z</time>
      </trkpt>
      <trkpt lat="45.83344" lon="4.70787">
        <ele>317.83481</ele>
        <time>2023-09-30T06:52:52.000Z</time>
      </trkpt>
      <trkpt lat="45.83344" lon="4.70781">
        <ele>317.76721</ele>
        <time>2023-09-30T06:52:53.000Z</time>
      </trkpt>
      <trkpt lat="45.83344" lon="4.70775">
        <ele>317.70712</ele>
        <time>2023-09-30T06:52:54.000Z</time>
      </trkpt>
      <trkpt lat="45.83345" lon="4.70769">
        <ele>317.76788</ele>
        <time>2023-09-30T06:52:55.000Z</time>
      </trkpt>
      <trkpt lat="45.83345" lon="4.70763">
        <ele>317.91507</ele>
        <time>2023-09-30T06:52:56.000Z</time>
      </trkpt>
      <trkpt lat="45.83345" lon="4.70757">
        <ele>317.86481</ele>
        <time>2023-09-30T06:52:57.000Z</time>
      </trkpt>
      <trkpt lat="45.83346" lon="4.70751">
        <ele>317.8634</ele>
        <time>2023-09-30T06:52:58.000Z</time>
      </trkpt>
      <trkpt lat="45.83346" lon="4.70745">
        <ele>317.85687</ele>
        <time>2023-09-30T06:52:59.000Z</time>
      </trkpt>
      <trkpt lat="45.83347" lon="4.70739">
        <ele>317.86719</ele>
        <time>2023-09-30T06:53:00.000Z</time>
      </trkpt>
      <trkpt lat="45.83347" lon="4.70734">
        <ele>317.73337</ele>
        <time>2023-09-30T06:53:01.000Z</time>
      </trkpt>
      <trkpt lat="45.83347" lon="4.70728">
        <ele>317.53702</ele>
        <time>2023-09-30T06:53:02.000Z</time>
      </trkpt>
      <trkpt lat="45.83347" lon="4.70722">
        <ele>317.34589</ele>
        <time>2023-09-30T06:53:03.000Z</time>
      </trkpt>
      <trkpt lat="45.83347" lon="4.70717">
        <ele>317.1329</ele>
        <time>2023-09-30T06:53:04.000Z</time>
      </trkpt>
      <trkpt lat="45.83348" lon="4.70711">
        <ele>317.17877</ele>
        <time>2023-09-30T06:53:05.000Z</time>
      </trkpt>
      <trkpt lat="45.83349" lon="4.70706">
        <ele>317.16974</ele>
        <time>2023-09-30T06:53:06.000Z</time>
      </trkpt>
      <trkpt lat="45.83349" lon="4.707">
        <ele>317.20575</ele>
        <time>2023-09-30T06:53:07.000Z</time>
      </trkpt>
      <trkpt lat="45.8335" lon="4.70694">
        <ele>317.22302</ele>
        <time>2023-09-30T06:53:08.000Z</time>
      </trkpt>
      <trkpt lat="45.8335" lon="4.70687">
        <ele>317.26129</ele>
        <time>2023-09-30T06:53:09.000Z</time>
      </trkpt>
      <trkpt lat="45.8335" lon="4.70681">
        <ele>317.28076</ele>
        <time>2023-09-30T06:53:10.000Z</time>
      </trkpt>
      <trkpt lat="45.8335" lon="4.70674">
        <ele>317.28354</ele>
        <time>2023-09-30T06:53:11.000Z</time>
      </trkpt>
      <trkpt lat="45.8335" lon="4.70668">
        <ele>317.26584</ele>
        <time>2023-09-30T06:53:12.000Z</time>
      </trkpt>
      <trkpt lat="45.83351" lon="4.70661">
        <ele>317.28802</ele>
        <time>2023-09-30T06:53:13.000Z</time>
      </trkpt>
      <trkpt lat="45.83352" lon="4.70654">
        <ele>317.29675</ele>
        <time>2023-09-30T06:53:14.000Z</time>
      </trkpt>
      <trkpt lat="45.83352" lon="4.70647">
        <ele>317.14606</ele>
        <time>2023-09-30T06:53:15.000Z</time>
      </trkpt>
      <trkpt lat="45.83352" lon="4.70639">
        <ele>316.60593</ele>
        <time>2023-09-30T06:53:16.000Z</time>
      </trkpt>
      <trkpt lat="45.83353" lon="4.70632">
        <ele>316.27304</ele>
        <time>2023-09-30T06:53:17.000Z</time>
      </trkpt>
      <trkpt lat="45.83353" lon="4.70624">
        <ele>315.89362</ele>
        <time>2023-09-30T06:53:18.000Z</time>
      </trkpt>
      <trkpt lat="45.83352" lon="4.70616">
        <ele>315.55167</ele>
        <time>2023-09-30T06:53:19.000Z</time>
      </trkpt>
      <trkpt lat="45.83351" lon="4.70609">
        <ele>315.20685</ele>
        <time>2023-09-30T06:53:20.000Z</time>
      </trkpt>
      <trkpt lat="45.83349" lon="4.70603">
        <ele>314.8808</ele>
        <time>2023-09-30T06:53:21.000Z</time>
      </trkpt>
      <trkpt lat="45.83347" lon="4.70596">
        <ele>314.48151</ele>
        <time>2023-09-30T06:53:22.000Z</time>
      </trkpt>
      <trkpt lat="45.83346" lon="4.70589">
        <ele>314.09436</ele>
        <time>2023-09-30T06:53:23.000Z</time>
      </trkpt>
      <trkpt lat="45.83346" lon="4.70582">
        <ele>313.76105</ele>
        <time>2023-09-30T06:53:24.000Z</time>
      </trkpt>
      <trkpt lat="45.83345" lon="4.70575">
        <ele>313.39481</ele>
        <time>2023-09-30T06:53:25.000Z</time>
      </trkpt>
      <trkpt lat="45.83345" lon="4.70568">
        <ele>313.04135</ele>
        <time>2023-09-30T06:53:26.000Z</time>
      </trkpt>
      <trkpt lat="45.83345" lon="4.7056">
        <ele>312.66428</ele>
        <time>2023-09-30T06:53:27.000Z</time>
      </trkpt>
      <trkpt lat="45.83344" lon="4.70553">
        <ele>312.29126</ele>
        <time>2023-09-30T06:53:28.000Z</time>
      </trkpt>
      <trkpt lat="45.83344" lon="4.70545">
        <ele>311.90747</ele>
        <time>2023-09-30T06:53:29.000Z</time>
      </trkpt>
      <trkpt lat="45.83343" lon="4.70538">
        <ele>311.51358</ele>
        <time>2023-09-30T06:53:30.000Z</time>
      </trkpt>
      <trkpt lat="45.83343" lon="4.7053">
        <ele>311.10294</ele>
        <time>2023-09-30T06:53:31.000Z</time>
      </trkpt>
      <trkpt lat="45.83343" lon="4.70522">
        <ele>310.6991</ele>
        <time>2023-09-30T06:53:32.000Z</time>
      </trkpt>
      <trkpt lat="45.83342" lon="4.70514">
        <ele>310.31464</ele>
        <time>2023-09-30T06:53:33.000Z</time>
      </trkpt>
      <trkpt lat="45.83342" lon="4.70506">
        <ele>309.98944</ele>
        <time>2023-09-30T06:53:34.000Z</time>
      </trkpt>
      <trkpt lat="45.83341" lon="4.70499">
        <ele>309.69269</ele>
        <time>2023-09-30T06:53:35.000Z</time>
      </trkpt>
      <trkpt lat="45.83341" lon="4.70491">
        <ele>309.71268</ele>
        <time>2023-09-30T06:53:36.000Z</time>
      </trkpt>
      <trkpt lat="45.8334" lon="4.70484">
        <ele>309.7392</ele>
        <time>2023-09-30T06:53:37.000Z</time>
      </trkpt>
      <trkpt lat="45.8334" lon="4.70476">
        <ele>309.65912</ele>
        <time>2023-09-30T06:53:38.000Z</time>
      </trkpt>
      <trkpt lat="45.8334" lon="4.70467">
        <ele>309.57635</ele>
        <time>2023-09-30T06:53:39.000Z</time>
      </trkpt>
      <trkpt lat="45.83339" lon="4.70459">
        <ele>309.47711</ele>
        <time>2023-09-30T06:53:40.000Z</time>
      </trkpt>
      <trkpt lat="45.83338" lon="4.70453">
        <ele>309.36841</ele>
        <time>2023-09-30T06:53:41.000Z</time>
      </trkpt>
      <trkpt lat="45.83337" lon="4.70445">
        <ele>309.32959</ele>
        <time>2023-09-30T06:53:42.000Z</time>
      </trkpt>
      <trkpt lat="45.83337" lon="4.70438">
        <ele>309.23679</ele>
        <time>2023-09-30T06:53:43.000Z</time>
      </trkpt>
      <trkpt lat="45.83336" lon="4.7043">
        <ele>309.15277</ele>
        <time>2023-09-30T06:53:44.000Z</time>
      </trkpt>
      <trkpt lat="45.83335" lon="4.70422">
        <ele>309.16196</ele>
        <time>2023-09-30T06:53:45.000Z</time>
      </trkpt>
      <trkpt lat="45.83334" lon="4.70414">
        <ele>309.20337</ele>
        <time>2023-09-30T06:53:46.000Z</time>
      </trkpt>
      <trkpt lat="45.83332" lon="4.70406">
        <ele>309.23041</ele>
        <time>2023-09-30T06:53:47.000Z</time>
      </trkpt>
      <trkpt lat="45.83332" lon="4.70399">
        <ele>309.16278</ele>
        <time>2023-09-30T06:53:48.000Z</time>
      </trkpt>
      <trkpt lat="45.83331" lon="4.70392">
        <ele>309.0867</ele>
        <time>2023-09-30T06:53:49.000Z</time>
      </trkpt>
      <trkpt lat="45.8333" lon="4.70385">
        <ele>309.01303</ele>
        <time>2023-09-30T06:53:50.000Z</time>
      </trkpt>
      <trkpt lat="45.83329" lon="4.70377">
        <ele>308.95178</ele>
        <time>2023-09-30T06:53:51.000Z</time>
      </trkpt>
      <trkpt lat="45.83329" lon="4.7037">
        <ele>308.86679</ele>
        <time>2023-09-30T06:53:52.000Z</time>
      </trkpt>
      <trkpt lat="45.83328" lon="4.70364">
        <ele>308.77194</ele>
        <time>2023-09-30T06:53:53.000Z</time>
      </trkpt>
      <trkpt lat="45.83327" lon="4.70357">
        <ele>308.64041</ele>
        <time>2023-09-30T06:53:54.000Z</time>
      </trkpt>
      <trkpt lat="45.83326" lon="4.7035">
        <ele>308.53693</ele>
        <time>2023-09-30T06:53:55.000Z</time>
      </trkpt>
      <trkpt lat="45.83326" lon="4.70344">
        <ele>308.43842</ele>
        <time>2023-09-30T06:53:56.000Z</time>
      </trkpt>
      <trkpt lat="45.83325" lon="4.7034">
        <ele>308.37045</ele>
        <time>2023-09-30T06:53:57.000Z</time>
      </trkpt>
      <trkpt lat="45.83323" lon="4.70335">
        <ele>308.40698</ele>
        <time>2023-09-30T06:53:58.000Z</time>
      </trkpt>
      <trkpt lat="45.83323" lon="4.7033">
        <ele>308.39053</ele>
        <time>2023-09-30T06:53:59.000Z</time>
      </trkpt>
      <trkpt lat="45.83324" lon="4.70325">
        <ele>308.36658</ele>
        <time>2023-09-30T06:54:00.000Z</time>
      </trkpt>
      <trkpt lat="45.83325" lon="4.7032">
        <ele>308.40604</ele>
        <time>2023-09-30T06:54:01.000Z</time>
      </trkpt>
      <trkpt lat="45.83327" lon="4.70314">
        <ele>308.45892</ele>
        <time>2023-09-30T06:54:02.000Z</time>
      </trkpt>
      <trkpt lat="45.83329" lon="4.70308">
        <ele>308.55804</ele>
        <time>2023-09-30T06:54:03.000Z</time>
      </trkpt>
      <trkpt lat="45.83331" lon="4.70302">
        <ele>308.65027</ele>
        <time>2023-09-30T06:54:04.000Z</time>
      </trkpt>
      <trkpt lat="45.83333" lon="4.70296">
        <ele>308.56076</ele>
        <time>2023-09-30T06:54:05.000Z</time>
      </trkpt>
      <trkpt lat="45.83335" lon="4.70289">
        <ele>308.45511</ele>
        <time>2023-09-30T06:54:06.000Z</time>
      </trkpt>
      <trkpt lat="45.83336" lon="4.70282">
        <ele>308.38739</ele>
        <time>2023-09-30T06:54:07.000Z</time>
      </trkpt>
      <trkpt lat="45.83339" lon="4.70276">
        <ele>308.43411</ele>
        <time>2023-09-30T06:54:08.000Z</time>
      </trkpt>
      <trkpt lat="45.83341" lon="4.70269">
        <ele>308.48764</ele>
        <time>2023-09-30T06:54:09.000Z</time>
      </trkpt>
      <trkpt lat="45.83343" lon="4.70262">
        <ele>308.57074</ele>
        <time>2023-09-30T06:54:10.000Z</time>
      </trkpt>
      <trkpt lat="45.83346" lon="4.70255">
        <ele>308.68073</ele>
        <time>2023-09-30T06:54:11.000Z</time>
      </trkpt>
      <trkpt lat="45.83347" lon="4.70248">
        <ele>308.81079</ele>
        <time>2023-09-30T06:54:12.000Z</time>
      </trkpt>
      <trkpt lat="45.8335" lon="4.70242">
        <ele>308.90631</ele>
        <time>2023-09-30T06:54:13.000Z</time>
      </trkpt>
      <trkpt lat="45.83353" lon="4.70236">
        <ele>309.0076</ele>
        <time>2023-09-30T06:54:14.000Z</time>
      </trkpt>
      <trkpt lat="45.83356" lon="4.70229">
        <ele>309.0881</ele>
        <time>2023-09-30T06:54:15.000Z</time>
      </trkpt>
      <trkpt lat="45.83359" lon="4.70222">
        <ele>309.12482</ele>
        <time>2023-09-30T06:54:16.000Z</time>
      </trkpt>
      <trkpt lat="45.8336" lon="4.70216">
        <ele>309.10016</ele>
        <time>2023-09-30T06:54:17.000Z</time>
      </trkpt>
      <trkpt lat="45.83362" lon="4.70209">
        <ele>308.95999</ele>
        <time>2023-09-30T06:54:18.000Z</time>
      </trkpt>
      <trkpt lat="45.83365" lon="4.70202">
        <ele>308.84506</ele>
        <time>2023-09-30T06:54:19.000Z</time>
      </trkpt>
      <trkpt lat="45.83368" lon="4.70195">
        <ele>308.83856</ele>
        <time>2023-09-30T06:54:20.000Z</time>
      </trkpt>
      <trkpt lat="45.8337" lon="4.70188">
        <ele>308.75797</ele>
        <time>2023-09-30T06:54:21.000Z</time>
      </trkpt>
      <trkpt lat="45.83372" lon="4.70181">
        <ele>308.69717</ele>
        <time>2023-09-30T06:54:22.000Z</time>
      </trkpt>
      <trkpt lat="45.83374" lon="4.70174">
        <ele>308.64496</ele>
        <time>2023-09-30T06:54:23.000Z</time>
      </trkpt>
      <trkpt lat="45.83376" lon="4.70166">
        <ele>308.54327</ele>
        <time>2023-09-30T06:54:24.000Z</time>
      </trkpt>
      <trkpt lat="45.83378" lon="4.7016">
        <ele>308.51648</ele>
        <time>2023-09-30T06:54:25.000Z</time>
      </trkpt>
      <trkpt lat="45.8338" lon="4.70152">
        <ele>308.47845</ele>
        <time>2023-09-30T06:54:26.000Z</time>
      </trkpt>
      <trkpt lat="45.83382" lon="4.70146">
        <ele>308.47888</ele>
        <time>2023-09-30T06:54:27.000Z</time>
      </trkpt>
      <trkpt lat="45.83384" lon="4.70138">
        <ele>308.46741</ele>
        <time>2023-09-30T06:54:28.000Z</time>
      </trkpt>
      <trkpt lat="45.83385" lon="4.7013">
        <ele>308.45062</ele>
        <time>2023-09-30T06:54:29.000Z</time>
      </trkpt>
      <trkpt lat="45.83387" lon="4.70123">
        <ele>308.40009</ele>
        <time>2023-09-30T06:54:30.000Z</time>
      </trkpt>
      <trkpt lat="45.83389" lon="4.70116">
        <ele>308.3609</ele>
        <time>2023-09-30T06:54:31.000Z</time>
      </trkpt>
      <trkpt lat="45.8339" lon="4.70108">
        <ele>308.20114</ele>
        <time>2023-09-30T06:54:32.000Z</time>
      </trkpt>
      <trkpt lat="45.83391" lon="4.70101">
        <ele>308.05524</ele>
        <time>2023-09-30T06:54:33.000Z</time>
      </trkpt>
      <trkpt lat="45.83393" lon="4.70092">
        <ele>307.87689</ele>
        <time>2023-09-30T06:54:34.000Z</time>
      </trkpt>
      <trkpt lat="45.83393" lon="4.70084">
        <ele>307.57474</ele>
        <time>2023-09-30T06:54:35.000Z</time>
      </trkpt>
      <trkpt lat="45.83394" lon="4.70076">
        <ele>307.38345</ele>
        <time>2023-09-30T06:54:36.000Z</time>
      </trkpt>
      <trkpt lat="45.83395" lon="4.70067">
        <ele>307.233</ele>
        <time>2023-09-30T06:54:37.000Z</time>
      </trkpt>
      <trkpt lat="45.83395" lon="4.70059">
        <ele>307.18597</ele>
        <time>2023-09-30T06:54:38.000Z</time>
      </trkpt>
      <trkpt lat="45.83396" lon="4.7005">
        <ele>307.13092</ele>
        <time>2023-09-30T06:54:39.000Z</time>
      </trkpt>
      <trkpt lat="45.83396" lon="4.7004">
        <ele>306.9697</ele>
        <time>2023-09-30T06:54:40.000Z</time>
      </trkpt>
      <trkpt lat="45.83397" lon="4.70032">
        <ele>306.80933</ele>
        <time>2023-09-30T06:54:41.000Z</time>
      </trkpt>
      <trkpt lat="45.83398" lon="4.70023">
        <ele>306.60547</ele>
        <time>2023-09-30T06:54:42.000Z</time>
      </trkpt>
      <trkpt lat="45.83398" lon="4.70013">
        <ele>306.38492</ele>
        <time>2023-09-30T06:54:43.000Z</time>
      </trkpt>
      <trkpt lat="45.83399" lon="4.70003">
        <ele>306.18823</ele>
        <time>2023-09-30T06:54:44.000Z</time>
      </trkpt>
      <trkpt lat="45.834" lon="4.69993">
        <ele>306.03143</ele>
        <time>2023-09-30T06:54:45.000Z</time>
      </trkpt>
      <trkpt lat="45.83401" lon="4.69983">
        <ele>305.85187</ele>
        <time>2023-09-30T06:54:46.000Z</time>
      </trkpt>
      <trkpt lat="45.83402" lon="4.69973">
        <ele>305.61349</ele>
        <time>2023-09-30T06:54:47.000Z</time>
      </trkpt>
      <trkpt lat="45.83403" lon="4.69964">
        <ele>305.38327</ele>
        <time>2023-09-30T06:54:48.000Z</time>
      </trkpt>
      <trkpt lat="45.83405" lon="4.69954">
        <ele>305.13663</ele>
        <time>2023-09-30T06:54:49.000Z</time>
      </trkpt>
      <trkpt lat="45.83406" lon="4.69944">
        <ele>304.93225</ele>
        <time>2023-09-30T06:54:50.000Z</time>
      </trkpt>
      <trkpt lat="45.83408" lon="4.69935">
        <ele>304.67517</ele>
        <time>2023-09-30T06:54:51.000Z</time>
      </trkpt>
      <trkpt lat="45.83406" lon="4.69925">
        <ele>304.53119</ele>
        <time>2023-09-30T06:54:52.000Z</time>
      </trkpt>
      <trkpt lat="45.83404" lon="4.69917">
        <ele>304.2225</ele>
        <time>2023-09-30T06:54:53.000Z</time>
      </trkpt>
      <trkpt lat="45.834" lon="4.6991">
        <ele>303.93033</ele>
        <time>2023-09-30T06:54:54.000Z</time>
      </trkpt>
      <trkpt lat="45.83397" lon="4.69904">
        <ele>303.77393</ele>
        <time>2023-09-30T06:54:55.000Z</time>
      </trkpt>
      <trkpt lat="45.83394" lon="4.69898">
        <ele>303.51077</ele>
        <time>2023-09-30T06:54:56.000Z</time>
      </trkpt>
      <trkpt lat="45.83391" lon="4.69892">
        <ele>303.25708</ele>
        <time>2023-09-30T06:54:57.000Z</time>
      </trkpt>
      <trkpt lat="45.83391" lon="4.69886">
        <ele>303.237</ele>
        <time>2023-09-30T06:54:58.000Z</time>
      </trkpt>
      <trkpt lat="45.83391" lon="4.6988">
        <ele>303.23419</ele>
        <time>2023-09-30T06:54:59.000Z</time>
      </trkpt>
      <trkpt lat="45.83392" lon="4.69876">
        <ele>303.26703</ele>
        <time>2023-09-30T06:55:00.000Z</time>
      </trkpt>
      <trkpt lat="45.83393" lon="4.69873">
        <ele>302.98288</ele>
        <time>2023-09-30T06:55:01.000Z</time>
      </trkpt>
      <trkpt lat="45.83394" lon="4.6987">
        <ele>302.70932</ele>
        <time>2023-09-30T06:55:02.000Z</time>
      </trkpt>
      <trkpt lat="45.83395" lon="4.69867">
        <ele>302.42792</ele>
        <time>2023-09-30T06:55:03.000Z</time>
      </trkpt>
      <trkpt lat="45.83395" lon="4.69864">
        <ele>302.17432</ele>
        <time>2023-09-30T06:55:11.000Z</time>
      </trkpt>
      <trkpt lat="45.83395" lon="4.6986">
        <ele>301.93457</ele>
        <time>2023-09-30T06:55:13.000Z</time>
      </trkpt>
      <trkpt lat="45.83394" lon="4.69857">
        <ele>301.68515</ele>
        <time>2023-09-30T06:55:14.000Z</time>
      </trkpt>
      <trkpt lat="45.83395" lon="4.69853">
        <ele>301.42197</ele>
        <time>2023-09-30T06:55:15.000Z</time>
      </trkpt>
      <trkpt lat="45.83395" lon="4.69849">
        <ele>301.1651</ele>
        <time>2023-09-30T06:55:16.000Z</time>
      </trkpt>
      <trkpt lat="45.83396" lon="4.69843">
        <ele>300.90912</ele>
        <time>2023-09-30T06:55:17.000Z</time>
      </trkpt>
      <trkpt lat="45.83396" lon="4.69837">
        <ele>300.61917</ele>
        <time>2023-09-30T06:55:18.000Z</time>
      </trkpt>
      <trkpt lat="45.83394" lon="4.69831">
        <ele>300.35309</ele>
        <time>2023-09-30T06:55:19.000Z</time>
      </trkpt>
      <trkpt lat="45.83392" lon="4.69826">
        <ele>300.20071</ele>
        <time>2023-09-30T06:55:20.000Z</time>
      </trkpt>
      <trkpt lat="45.8339" lon="4.69821">
        <ele>300.20261</ele>
        <time>2023-09-30T06:55:21.000Z</time>
      </trkpt>
      <trkpt lat="45.83389" lon="4.69815">
        <ele>300.19247</ele>
        <time>2023-09-30T06:55:22.000Z</time>
      </trkpt>
      <trkpt lat="45.83387" lon="4.69809">
        <ele>300.18079</ele>
        <time>2023-09-30T06:55:23.000Z</time>
      </trkpt>
      <trkpt lat="45.83385" lon="4.69803">
        <ele>300.19333</ele>
        <time>2023-09-30T06:55:24.000Z</time>
      </trkpt>
      <trkpt lat="45.83384" lon="4.69796">
        <ele>300.17648</ele>
        <time>2023-09-30T06:55:25.000Z</time>
      </trkpt>
      <trkpt lat="45.83383" lon="4.69789">
        <ele>299.91483</ele>
        <time>2023-09-30T06:55:26.000Z</time>
      </trkpt>
      <trkpt lat="45.83382" lon="4.69781">
        <ele>299.65555</ele>
        <time>2023-09-30T06:55:27.000Z</time>
      </trkpt>
      <trkpt lat="45.83381" lon="4.69776">
        <ele>299.33514</ele>
        <time>2023-09-30T06:55:28.000Z</time>
      </trkpt>
      <trkpt lat="45.8338" lon="4.69768">
        <ele>299.34491</ele>
        <time>2023-09-30T06:55:29.000Z</time>
      </trkpt>
      <trkpt lat="45.83378" lon="4.69761">
        <ele>299.36267</ele>
        <time>2023-09-30T06:55:30.000Z</time>
      </trkpt>
      <trkpt lat="45.83377" lon="4.69754">
        <ele>299.39114</ele>
        <time>2023-09-30T06:55:31.000Z</time>
      </trkpt>
      <trkpt lat="45.83375" lon="4.69747">
        <ele>299.41263</ele>
        <time>2023-09-30T06:55:32.000Z</time>
      </trkpt>
      <trkpt lat="45.83374" lon="4.69739">
        <ele>299.41629</ele>
        <time>2023-09-30T06:55:33.000Z</time>
      </trkpt>
      <trkpt lat="45.83372" lon="4.69732">
        <ele>299.44025</ele>
        <time>2023-09-30T06:55:34.000Z</time>
      </trkpt>
      <trkpt lat="45.83371" lon="4.69724">
        <ele>299.50073</ele>
        <time>2023-09-30T06:55:35.000Z</time>
      </trkpt>
      <trkpt lat="45.83369" lon="4.69717">
        <ele>299.77802</ele>
        <time>2023-09-30T06:55:36.000Z</time>
      </trkpt>
      <trkpt lat="45.83367" lon="4.6971">
        <ele>299.95987</ele>
        <time>2023-09-30T06:55:37.000Z</time>
      </trkpt>
      <trkpt lat="45.83366" lon="4.69702">
        <ele>300.14398</ele>
        <time>2023-09-30T06:55:38.000Z</time>
      </trkpt>
      <trkpt lat="45.83364" lon="4.69695">
        <ele>300.32248</ele>
        <time>2023-09-30T06:55:39.000Z</time>
      </trkpt>
      <trkpt lat="45.83363" lon="4.69688">
        <ele>300.39395</ele>
        <time>2023-09-30T06:55:40.000Z</time>
      </trkpt>
      <trkpt lat="45.83362" lon="4.6968">
        <ele>300.48172</ele>
        <time>2023-09-30T06:55:41.000Z</time>
      </trkpt>
      <trkpt lat="45.83361" lon="4.69673">
        <ele>300.58432</ele>
        <time>2023-09-30T06:55:42.000Z</time>
      </trkpt>
      <trkpt lat="45.83359" lon="4.69666">
        <ele>300.6713</ele>
        <time>2023-09-30T06:55:43.000Z</time>
      </trkpt>
      <trkpt lat="45.83358" lon="4.69659">
        <ele>300.75974</ele>
        <time>2023-09-30T06:55:44.000Z</time>
      </trkpt>
      <trkpt lat="45.83357" lon="4.69651">
        <ele>300.87933</ele>
        <time>2023-09-30T06:55:45.000Z</time>
      </trkpt>
      <trkpt lat="45.83355" lon="4.69644">
        <ele>301.01102</ele>
        <time>2023-09-30T06:55:46.000Z</time>
      </trkpt>
      <trkpt lat="45.83355" lon="4.69637">
        <ele>301.12909</ele>
        <time>2023-09-30T06:55:47.000Z</time>
      </trkpt>
      <trkpt lat="45.83354" lon="4.6963">
        <ele>301.28082</ele>
        <time>2023-09-30T06:55:48.000Z</time>
      </trkpt>
      <trkpt lat="45.83353" lon="4.69623">
        <ele>301.51563</ele>
        <time>2023-09-30T06:55:49.000Z</time>
      </trkpt>
      <trkpt lat="45.83351" lon="4.69616">
        <ele>301.75046</ele>
        <time>2023-09-30T06:55:50.000Z</time>
      </trkpt>
      <trkpt lat="45.8335" lon="4.69609">
        <ele>301.82681</ele>
        <time>2023-09-30T06:55:51.000Z</time>
      </trkpt>
      <trkpt lat="45.83349" lon="4.69602">
        <ele>302.12915</ele>
        <time>2023-09-30T06:55:52.000Z</time>
      </trkpt>
      <trkpt lat="45.83348" lon="4.69595">
        <ele>302.27194</ele>
        <time>2023-09-30T06:55:53.000Z</time>
      </trkpt>
      <trkpt lat="45.83347" lon="4.69588">
        <ele>302.37576</ele>
        <time>2023-09-30T06:55:54.000Z</time>
      </trkpt>
      <trkpt lat="45.83346" lon="4.69581">
        <ele>302.41608</ele>
        <time>2023-09-30T06:55:55.000Z</time>
      </trkpt>
      <trkpt lat="45.83344" lon="4.69575">
        <ele>302.2269</ele>
        <time>2023-09-30T06:55:56.000Z</time>
      </trkpt>
      <trkpt lat="45.83344" lon="4.69568">
        <ele>302.15402</ele>
        <time>2023-09-30T06:55:57.000Z</time>
      </trkpt>
      <trkpt lat="45.83343" lon="4.69561">
        <ele>302.10065</ele>
        <time>2023-09-30T06:55:58.000Z</time>
      </trkpt>
      <trkpt lat="45.83342" lon="4.69554">
        <ele>302.05298</ele>
        <time>2023-09-30T06:55:59.000Z</time>
      </trkpt>
      <trkpt lat="45.83341" lon="4.69547">
        <ele>302.00253</ele>
        <time>2023-09-30T06:56:00.000Z</time>
      </trkpt>
      <trkpt lat="45.8334" lon="4.69541">
        <ele>301.95383</ele>
        <time>2023-09-30T06:56:01.000Z</time>
      </trkpt>
      <trkpt lat="45.83339" lon="4.69533">
        <ele>301.87662</ele>
        <time>2023-09-30T06:56:02.000Z</time>
      </trkpt>
      <trkpt lat="45.83338" lon="4.69526">
        <ele>301.83307</ele>
        <time>2023-09-30T06:56:03.000Z</time>
      </trkpt>
      <trkpt lat="45.83338" lon="4.6952">
        <ele>301.76221</ele>
        <time>2023-09-30T06:56:04.000Z</time>
      </trkpt>
      <trkpt lat="45.83338" lon="4.69514">
        <ele>301.67584</ele>
        <time>2023-09-30T06:56:05.000Z</time>
      </trkpt>
      <trkpt lat="45.83337" lon="4.69507">
        <ele>301.5802</ele>
        <time>2023-09-30T06:56:06.000Z</time>
      </trkpt>
      <trkpt lat="45.83337" lon="4.69501">
        <ele>301.49969</ele>
        <time>2023-09-30T06:56:07.000Z</time>
      </trkpt>
      <trkpt lat="45.83336" lon="4.69494">
        <ele>301.46469</ele>
        <time>2023-09-30T06:56:08.000Z</time>
      </trkpt>
      <trkpt lat="45.83336" lon="4.69488">
        <ele>301.44171</ele>
        <time>2023-09-30T06:56:09.000Z</time>
      </trkpt>
      <trkpt lat="45.83336" lon="4.69481">
        <ele>301.41937</ele>
        <time>2023-09-30T06:56:10.000Z</time>
      </trkpt>
      <trkpt lat="45.83336" lon="4.69476">
        <ele>301.63486</ele>
        <time>2023-09-30T06:56:11.000Z</time>
      </trkpt>
      <trkpt lat="45.83336" lon="4.69469">
        <ele>301.62347</ele>
        <time>2023-09-30T06:56:12.000Z</time>
      </trkpt>
      <trkpt lat="45.83336" lon="4.69463">
        <ele>301.81918</ele>
        <time>2023-09-30T06:56:13.000Z</time>
      </trkpt>
      <trkpt lat="45.83337" lon="4.69456">
        <ele>302.05319</ele>
        <time>2023-09-30T06:56:14.000Z</time>
      </trkpt>
      <trkpt lat="45.83337" lon="4.6945">
        <ele>302.19455</ele>
        <time>2023-09-30T06:56:15.000Z</time>
      </trkpt>
      <trkpt lat="45.83338" lon="4.69443">
        <ele>302.36554</ele>
        <time>2023-09-30T06:56:16.000Z</time>
      </trkpt>
      <trkpt lat="45.83339" lon="4.69437">
        <ele>302.53397</ele>
        <time>2023-09-30T06:56:17.000Z</time>
      </trkpt>
      <trkpt lat="45.8334" lon="4.69431">
        <ele>302.68134</ele>
        <time>2023-09-30T06:56:18.000Z</time>
      </trkpt>
      <trkpt lat="45.83341" lon="4.69424">
        <ele>302.83643</ele>
        <time>2023-09-30T06:56:19.000Z</time>
      </trkpt>
      <trkpt lat="45.83342" lon="4.69418">
        <ele>303.00647</ele>
        <time>2023-09-30T06:56:20.000Z</time>
      </trkpt>
      <trkpt lat="45.83343" lon="4.69412">
        <ele>303.16425</ele>
        <time>2023-09-30T06:56:21.000Z</time>
      </trkpt>
      <trkpt lat="45.83343" lon="4.69405">
        <ele>303.33026</ele>
        <time>2023-09-30T06:56:22.000Z</time>
      </trkpt>
      <trkpt lat="45.83344" lon="4.694">
        <ele>303.4725</ele>
        <time>2023-09-30T06:56:23.000Z</time>
      </trkpt>
      <trkpt lat="45.83346" lon="4.69393">
        <ele>303.63821</ele>
        <time>2023-09-30T06:56:24.000Z</time>
      </trkpt>
      <trkpt lat="45.83347" lon="4.69386">
        <ele>303.79376</ele>
        <time>2023-09-30T06:56:25.000Z</time>
      </trkpt>
      <trkpt lat="45.83348" lon="4.69381">
        <ele>303.94153</ele>
        <time>2023-09-30T06:56:26.000Z</time>
      </trkpt>
      <trkpt lat="45.83348" lon="4.69374">
        <ele>304.08392</ele>
        <time>2023-09-30T06:56:27.000Z</time>
      </trkpt>
      <trkpt lat="45.8335" lon="4.69367">
        <ele>304.18811</ele>
        <time>2023-09-30T06:56:28.000Z</time>
      </trkpt>
      <trkpt lat="45.8335" lon="4.6936">
        <ele>304.22797</ele>
        <time>2023-09-30T06:56:29.000Z</time>
      </trkpt>
      <trkpt lat="45.8335" lon="4.69353">
        <ele>304.26324</ele>
        <time>2023-09-30T06:56:30.000Z</time>
      </trkpt>
      <trkpt lat="45.8335" lon="4.69345">
        <ele>304.23477</ele>
        <time>2023-09-30T06:56:31.000Z</time>
      </trkpt>
      <trkpt lat="45.83351" lon="4.69338">
        <ele>304.18988</ele>
        <time>2023-09-30T06:56:32.000Z</time>
      </trkpt>
      <trkpt lat="45.83351" lon="4.69332">
        <ele>304.10403</ele>
        <time>2023-09-30T06:56:33.000Z</time>
      </trkpt>
      <trkpt lat="45.83351" lon="4.69325">
        <ele>304.11203</ele>
        <time>2023-09-30T06:56:34.000Z</time>
      </trkpt>
      <trkpt lat="45.83351" lon="4.69318">
        <ele>304.28058</ele>
        <time>2023-09-30T06:56:35.000Z</time>
      </trkpt>
      <trkpt lat="45.83351" lon="4.69311">
        <ele>304.42108</ele>
        <time>2023-09-30T06:56:36.000Z</time>
      </trkpt>
      <trkpt lat="45.83352" lon="4.69305">
        <ele>304.41696</ele>
        <time>2023-09-30T06:56:37.000Z</time>
      </trkpt>
      <trkpt lat="45.83352" lon="4.69298">
        <ele>304.47931</ele>
        <time>2023-09-30T06:56:38.000Z</time>
      </trkpt>
      <trkpt lat="45.83352" lon="4.69293">
        <ele>304.51596</ele>
        <time>2023-09-30T06:56:39.000Z</time>
      </trkpt>
      <trkpt lat="45.83353" lon="4.69287">
        <ele>304.5459</ele>
        <time>2023-09-30T06:56:40.000Z</time>
      </trkpt>
      <trkpt lat="45.83353" lon="4.69281">
        <ele>304.62866</ele>
        <time>2023-09-30T06:56:41.000Z</time>
      </trkpt>
      <trkpt lat="45.83354" lon="4.69276">
        <ele>304.78494</ele>
        <time>2023-09-30T06:56:42.000Z</time>
      </trkpt>
      <trkpt lat="45.83354" lon="4.6927">
        <ele>304.80923</ele>
        <time>2023-09-30T06:56:43.000Z</time>
      </trkpt>
      <trkpt lat="45.83355" lon="4.69264">
        <ele>304.86176</ele>
        <time>2023-09-30T06:56:44.000Z</time>
      </trkpt>
      <trkpt lat="45.83356" lon="4.69259">
        <ele>304.91315</ele>
        <time>2023-09-30T06:56:45.000Z</time>
      </trkpt>
      <trkpt lat="45.83356" lon="4.69254">
        <ele>304.9657</ele>
        <time>2023-09-30T06:56:46.000Z</time>
      </trkpt>
      <trkpt lat="45.83356" lon="4.69249">
        <ele>305.02689</ele>
        <time>2023-09-30T06:56:47.000Z</time>
      </trkpt>
      <trkpt lat="45.83357" lon="4.69244">
        <ele>305.06396</ele>
        <time>2023-09-30T06:56:48.000Z</time>
      </trkpt>
      <trkpt lat="45.83357" lon="4.69239">
        <ele>305.06134</ele>
        <time>2023-09-30T06:56:49.000Z</time>
      </trkpt>
      <trkpt lat="45.83358" lon="4.69233">
        <ele>305.07028</ele>
        <time>2023-09-30T06:56:50.000Z</time>
      </trkpt>
      <trkpt lat="45.83358" lon="4.69227">
        <ele>305.08337</ele>
        <time>2023-09-30T06:56:51.000Z</time>
      </trkpt>
      <trkpt lat="45.83359" lon="4.69221">
        <ele>305.13199</ele>
        <time>2023-09-30T06:56:52.000Z</time>
      </trkpt>
      <trkpt lat="45.83359" lon="4.69214">
        <ele>305.17386</ele>
        <time>2023-09-30T06:56:53.000Z</time>
      </trkpt>
      <trkpt lat="45.8336" lon="4.69208">
        <ele>305.09753</ele>
        <time>2023-09-30T06:56:54.000Z</time>
      </trkpt>
      <trkpt lat="45.83361" lon="4.69202">
        <ele>305.06708</ele>
        <time>2023-09-30T06:56:55.000Z</time>
      </trkpt>
      <trkpt lat="45.83362" lon="4.69196">
        <ele>305.07413</ele>
        <time>2023-09-30T06:56:56.000Z</time>
      </trkpt>
      <trkpt lat="45.83363" lon="4.69191">
        <ele>305.07388</ele>
        <time>2023-09-30T06:56:57.000Z</time>
      </trkpt>
      <trkpt lat="45.83363" lon="4.69184">
        <ele>305.07742</ele>
        <time>2023-09-30T06:56:58.000Z</time>
      </trkpt>
      <trkpt lat="45.83364" lon="4.69178">
        <ele>305.06403</ele>
        <time>2023-09-30T06:56:59.000Z</time>
      </trkpt>
      <trkpt lat="45.83364" lon="4.69172">
        <ele>305.03885</ele>
        <time>2023-09-30T06:57:00.000Z</time>
      </trkpt>
      <trkpt lat="45.83365" lon="4.69166">
        <ele>304.94522</ele>
        <time>2023-09-30T06:57:01.000Z</time>
      </trkpt>
      <trkpt lat="45.83365" lon="4.69159">
        <ele>304.60889</ele>
        <time>2023-09-30T06:57:02.000Z</time>
      </trkpt>
      <trkpt lat="45.83365" lon="4.69152">
        <ele>304.58429</ele>
        <time>2023-09-30T06:57:03.000Z</time>
      </trkpt>
      <trkpt lat="45.83366" lon="4.69145">
        <ele>304.49503</ele>
        <time>2023-09-30T06:57:04.000Z</time>
      </trkpt>
      <trkpt lat="45.83366" lon="4.69137">
        <ele>304.40289</ele>
        <time>2023-09-30T06:57:05.000Z</time>
      </trkpt>
      <trkpt lat="45.83367" lon="4.69129">
        <ele>304.32587</ele>
        <time>2023-09-30T06:57:06.000Z</time>
      </trkpt>
      <trkpt lat="45.83367" lon="4.6912">
        <ele>304.22244</ele>
        <time>2023-09-30T06:57:07.000Z</time>
      </trkpt>
      <trkpt lat="45.83368" lon="4.69113">
        <ele>304.12531</ele>
        <time>2023-09-30T06:57:08.000Z</time>
      </trkpt>
      <trkpt lat="45.83369" lon="4.69105">
        <ele>304.00891</ele>
        <time>2023-09-30T06:57:09.000Z</time>
      </trkpt>
      <trkpt lat="45.8337" lon="4.69096">
        <ele>303.86728</ele>
        <time>2023-09-30T06:57:10.000Z</time>
      </trkpt>
      <trkpt lat="45.83371" lon="4.69087">
        <ele>303.71796</ele>
        <time>2023-09-30T06:57:11.000Z</time>
      </trkpt>
      <trkpt lat="45.83372" lon="4.69078">
        <ele>303.54538</ele>
        <time>2023-09-30T06:57:12.000Z</time>
      </trkpt>
      <trkpt lat="45.83375" lon="4.69071">
        <ele>303.33966</ele>
        <time>2023-09-30T06:57:13.000Z</time>
      </trkpt>
      <trkpt lat="45.83377" lon="4.69062">
        <ele>303.18073</ele>
        <time>2023-09-30T06:57:14.000Z</time>
      </trkpt>
      <trkpt lat="45.8338" lon="4.69054">
        <ele>302.92001</ele>
        <time>2023-09-30T06:57:15.000Z</time>
      </trkpt>
      <trkpt lat="45.83383" lon="4.69045">
        <ele>302.62396</ele>
        <time>2023-09-30T06:57:16.000Z</time>
      </trkpt>
      <trkpt lat="45.83388" lon="4.69037">
        <ele>302.48862</ele>
        <time>2023-09-30T06:57:17.000Z</time>
      </trkpt>
      <trkpt lat="45.83391" lon="4.6903">
        <ele>302.29205</ele>
        <time>2023-09-30T06:57:18.000Z</time>
      </trkpt>
      <trkpt lat="45.83395" lon="4.69022">
        <ele>302.10037</ele>
        <time>2023-09-30T06:57:19.000Z</time>
      </trkpt>
      <trkpt lat="45.83399" lon="4.69014">
        <ele>301.84998</ele>
        <time>2023-09-30T06:57:20.000Z</time>
      </trkpt>
      <trkpt lat="45.83401" lon="4.69005">
        <ele>301.57724</ele>
        <time>2023-09-30T06:57:21.000Z</time>
      </trkpt>
      <trkpt lat="45.83404" lon="4.68995">
        <ele>301.47052</ele>
        <time>2023-09-30T06:57:22.000Z</time>
      </trkpt>
      <trkpt lat="45.83406" lon="4.68986">
        <ele>301.16043</ele>
        <time>2023-09-30T06:57:23.000Z</time>
      </trkpt>
      <trkpt lat="45.83409" lon="4.68976">
        <ele>300.82065</ele>
        <time>2023-09-30T06:57:24.000Z</time>
      </trkpt>
      <trkpt lat="45.83412" lon="4.68968">
        <ele>300.41846</ele>
        <time>2023-09-30T06:57:25.000Z</time>
      </trkpt>
      <trkpt lat="45.83414" lon="4.68959">
        <ele>299.97937</ele>
        <time>2023-09-30T06:57:26.000Z</time>
      </trkpt>
      <trkpt lat="45.83416" lon="4.68951">
        <ele>299.53644</ele>
        <time>2023-09-30T06:57:27.000Z</time>
      </trkpt>
      <trkpt lat="45.83418" lon="4.68943">
        <ele>299.10889</ele>
        <time>2023-09-30T06:57:28.000Z</time>
      </trkpt>
      <trkpt lat="45.83419" lon="4.68936">
        <ele>298.85751</ele>
        <time>2023-09-30T06:57:29.000Z</time>
      </trkpt>
      <trkpt lat="45.83422" lon="4.68931">
        <ele>298.60367</ele>
        <time>2023-09-30T06:57:30.000Z</time>
      </trkpt>
      <trkpt lat="45.83424" lon="4.68923">
        <ele>298.32687</ele>
        <time>2023-09-30T06:57:31.000Z</time>
      </trkpt>
      <trkpt lat="45.83424" lon="4.68916">
        <ele>297.7128</ele>
        <time>2023-09-30T06:57:32.000Z</time>
      </trkpt>
      <trkpt lat="45.83423" lon="4.68908">
        <ele>297.18353</ele>
        <time>2023-09-30T06:57:33.000Z</time>
      </trkpt>
      <trkpt lat="45.83421" lon="4.68901">
        <ele>296.56137</ele>
        <time>2023-09-30T06:57:34.000Z</time>
      </trkpt>
      <trkpt lat="45.83419" lon="4.68893">
        <ele>295.91287</ele>
        <time>2023-09-30T06:57:35.000Z</time>
      </trkpt>
      <trkpt lat="45.83417" lon="4.68884">
        <ele>295.2226</ele>
        <time>2023-09-30T06:57:36.000Z</time>
      </trkpt>
      <trkpt lat="45.83415" lon="4.68874">
        <ele>294.50262</ele>
        <time>2023-09-30T06:57:37.000Z</time>
      </trkpt>
      <trkpt lat="45.83414" lon="4.68865">
        <ele>293.77539</ele>
        <time>2023-09-30T06:57:38.000Z</time>
      </trkpt>
      <trkpt lat="45.83412" lon="4.68855">
        <ele>293.06232</ele>
        <time>2023-09-30T06:57:39.000Z</time>
      </trkpt>
      <trkpt lat="45.8341" lon="4.68847">
        <ele>292.42328</ele>
        <time>2023-09-30T06:57:40.000Z</time>
      </trkpt>
      <trkpt lat="45.83408" lon="4.68839">
        <ele>291.7948</ele>
        <time>2023-09-30T06:57:41.000Z</time>
      </trkpt>
      <trkpt lat="45.83406" lon="4.68832">
        <ele>291.20361</ele>
        <time>2023-09-30T06:57:42.000Z</time>
      </trkpt>
      <trkpt lat="45.83405" lon="4.68825">
        <ele>290.62326</ele>
        <time>2023-09-30T06:57:43.000Z</time>
      </trkpt>
      <trkpt lat="45.83404" lon="4.68818">
        <ele>290.10059</ele>
        <time>2023-09-30T06:57:44.000Z</time>
      </trkpt>
      <trkpt lat="45.83402" lon="4.68813">
        <ele>289.62408</ele>
        <time>2023-09-30T06:57:45.000Z</time>
      </trkpt>
      <trkpt lat="45.834" lon="4.68807">
        <ele>289.18329</ele>
        <time>2023-09-30T06:57:46.000Z</time>
      </trkpt>
      <trkpt lat="45.83398" lon="4.68801">
        <ele>288.76935</ele>
        <time>2023-09-30T06:57:47.000Z</time>
      </trkpt>
      <trkpt lat="45.83396" lon="4.68794">
        <ele>288.37469</ele>
        <time>2023-09-30T06:57:48.000Z</time>
      </trkpt>
      <trkpt lat="45.83394" lon="4.68788">
        <ele>287.84424</ele>
        <time>2023-09-30T06:57:49.000Z</time>
      </trkpt>
      <trkpt lat="45.83392" lon="4.68782">
        <ele>287.33636</ele>
        <time>2023-09-30T06:57:50.000Z</time>
      </trkpt>
      <trkpt lat="45.8339" lon="4.68777">
        <ele>286.83917</ele>
        <time>2023-09-30T06:57:51.000Z</time>
      </trkpt>
      <trkpt lat="45.83388" lon="4.68771">
        <ele>286.67191</ele>
        <time>2023-09-30T06:57:52.000Z</time>
      </trkpt>
      <trkpt lat="45.83386" lon="4.68767">
        <ele>286.43124</ele>
        <time>2023-09-30T06:57:53.000Z</time>
      </trkpt>
      <trkpt lat="45.83384" lon="4.68762">
        <ele>286.2446</ele>
        <time>2023-09-30T06:57:54.000Z</time>
      </trkpt>
      <trkpt lat="45.83382" lon="4.68757">
        <ele>286.12088</ele>
        <time>2023-09-30T06:57:55.000Z</time>
      </trkpt>
      <trkpt lat="45.8338" lon="4.68752">
        <ele>286.3374</ele>
        <time>2023-09-30T06:57:56.000Z</time>
      </trkpt>
      <trkpt lat="45.83377" lon="4.68747">
        <ele>286.13638</ele>
        <time>2023-09-30T06:57:57.000Z</time>
      </trkpt>
      <trkpt lat="45.83375" lon="4.68741">
        <ele>286.08624</ele>
        <time>2023-09-30T06:57:58.000Z</time>
      </trkpt>
      <trkpt lat="45.83372" lon="4.68736">
        <ele>286.0134</ele>
        <time>2023-09-30T06:57:59.000Z</time>
      </trkpt>
      <trkpt lat="45.8337" lon="4.68731">
        <ele>285.92862</ele>
        <time>2023-09-30T06:58:00.000Z</time>
      </trkpt>
      <trkpt lat="45.83367" lon="4.68726">
        <ele>285.88028</ele>
        <time>2023-09-30T06:58:01.000Z</time>
      </trkpt>
      <trkpt lat="45.83365" lon="4.68721">
        <ele>285.83734</ele>
        <time>2023-09-30T06:58:02.000Z</time>
      </trkpt>
      <trkpt lat="45.83363" lon="4.68715">
        <ele>285.815</ele>
        <time>2023-09-30T06:58:03.000Z</time>
      </trkpt>
      <trkpt lat="45.8336" lon="4.6871">
        <ele>285.78152</ele>
        <time>2023-09-30T06:58:04.000Z</time>
      </trkpt>
      <trkpt lat="45.83358" lon="4.68704">
        <ele>285.77417</ele>
        <time>2023-09-30T06:58:05.000Z</time>
      </trkpt>
      <trkpt lat="45.83355" lon="4.68699">
        <ele>285.78976</ele>
        <time>2023-09-30T06:58:06.000Z</time>
      </trkpt>
      <trkpt lat="45.83352" lon="4.68694">
        <ele>285.81293</ele>
        <time>2023-09-30T06:58:07.000Z</time>
      </trkpt>
      <trkpt lat="45.83348" lon="4.6869">
        <ele>285.815</ele>
        <time>2023-09-30T06:58:08.000Z</time>
      </trkpt>
      <trkpt lat="45.83345" lon="4.68685">
        <ele>285.80011</ele>
        <time>2023-09-30T06:58:09.000Z</time>
      </trkpt>
      <trkpt lat="45.83343" lon="4.68679">
        <ele>285.78674</ele>
        <time>2023-09-30T06:58:10.000Z</time>
      </trkpt>
      <trkpt lat="45.83341" lon="4.68673">
        <ele>285.78876</ele>
        <time>2023-09-30T06:58:11.000Z</time>
      </trkpt>
      <trkpt lat="45.83339" lon="4.68666">
        <ele>285.81421</ele>
        <time>2023-09-30T06:58:12.000Z</time>
      </trkpt>
      <trkpt lat="45.83337" lon="4.6866">
        <ele>285.88058</ele>
        <time>2023-09-30T06:58:13.000Z</time>
      </trkpt>
      <trkpt lat="45.83335" lon="4.68654">
        <ele>285.98355</ele>
        <time>2023-09-30T06:58:14.000Z</time>
      </trkpt>
      <trkpt lat="45.83332" lon="4.68648">
        <ele>286.08334</ele>
        <time>2023-09-30T06:58:15.000Z</time>
      </trkpt>
      <trkpt lat="45.83331" lon="4.68642">
        <ele>285.89236</ele>
        <time>2023-09-30T06:58:16.000Z</time>
      </trkpt>
      <trkpt lat="45.8333" lon="4.68636">
        <ele>286.14795</ele>
        <time>2023-09-30T06:58:17.000Z</time>
      </trkpt>
      <trkpt lat="45.83329" lon="4.6863">
        <ele>286.27979</ele>
        <time>2023-09-30T06:58:18.000Z</time>
      </trkpt>
      <trkpt lat="45.83329" lon="4.68624">
        <ele>286.45575</ele>
        <time>2023-09-30T06:58:19.000Z</time>
      </trkpt>
      <trkpt lat="45.83328" lon="4.68618">
        <ele>286.61591</ele>
        <time>2023-09-30T06:58:20.000Z</time>
      </trkpt>
      <trkpt lat="45.83326" lon="4.68613">
        <ele>286.76776</ele>
        <time>2023-09-30T06:58:21.000Z</time>
      </trkpt>
      <trkpt lat="45.83325" lon="4.68607">
        <ele>287.09467</ele>
        <time>2023-09-30T06:58:22.000Z</time>
      </trkpt>
      <trkpt lat="45.83324" lon="4.686">
        <ele>287.40897</ele>
        <time>2023-09-30T06:58:23.000Z</time>
      </trkpt>
      <trkpt lat="45.83322" lon="4.68594">
        <ele>287.72845</ele>
        <time>2023-09-30T06:58:24.000Z</time>
      </trkpt>
      <trkpt lat="45.8332" lon="4.68587">
        <ele>288.0921</ele>
        <time>2023-09-30T06:58:25.000Z</time>
      </trkpt>
      <trkpt lat="45.83318" lon="4.68579">
        <ele>288.39471</ele>
        <time>2023-09-30T06:58:26.000Z</time>
      </trkpt>
      <trkpt lat="45.83318" lon="4.68572">
        <ele>288.67755</ele>
        <time>2023-09-30T06:58:27.000Z</time>
      </trkpt>
      <trkpt lat="45.83317" lon="4.68567">
        <ele>288.91916</ele>
        <time>2023-09-30T06:58:28.000Z</time>
      </trkpt>
      <trkpt lat="45.83316" lon="4.68561">
        <ele>289.18399</ele>
        <time>2023-09-30T06:58:29.000Z</time>
      </trkpt>
      <trkpt lat="45.83314" lon="4.68557">
        <ele>289.4234</ele>
        <time>2023-09-30T06:58:30.000Z</time>
      </trkpt>
      <trkpt lat="45.83313" lon="4.68552">
        <ele>289.64301</ele>
        <time>2023-09-30T06:58:31.000Z</time>
      </trkpt>
      <trkpt lat="45.83311" lon="4.68548">
        <ele>289.83334</ele>
        <time>2023-09-30T06:58:32.000Z</time>
      </trkpt>
      <trkpt lat="45.83311" lon="4.68543">
        <ele>290.00891</ele>
        <time>2023-09-30T06:58:33.000Z</time>
      </trkpt>
      <trkpt lat="45.83311" lon="4.68539">
        <ele>290.16129</ele>
        <time>2023-09-30T06:58:34.000Z</time>
      </trkpt>
      <trkpt lat="45.83312" lon="4.68535">
        <ele>290.31488</ele>
        <time>2023-09-30T06:58:35.000Z</time>
      </trkpt>
      <trkpt lat="45.83314" lon="4.68532">
        <ele>290.28275</ele>
        <time>2023-09-30T06:58:36.000Z</time>
      </trkpt>
      <trkpt lat="45.83317" lon="4.6853">
        <ele>290.23831</ele>
        <time>2023-09-30T06:58:37.000Z</time>
      </trkpt>
      <trkpt lat="45.8332" lon="4.68527">
        <ele>290.18167</ele>
        <time>2023-09-30T06:58:38.000Z</time>
      </trkpt>
      <trkpt lat="45.83323" lon="4.68528">
        <ele>290.12964</ele>
        <time>2023-09-30T06:58:39.000Z</time>
      </trkpt>
      <trkpt lat="45.83327" lon="4.68529">
        <ele>290.09479</ele>
        <time>2023-09-30T06:58:40.000Z</time>
      </trkpt>
      <trkpt lat="45.8333" lon="4.6853">
        <ele>290.07925</ele>
        <time>2023-09-30T06:58:41.000Z</time>
      </trkpt>
      <trkpt lat="45.83334" lon="4.68532">
        <ele>289.879</ele>
        <time>2023-09-30T06:58:42.000Z</time>
      </trkpt>
      <trkpt lat="45.83337" lon="4.68534">
        <ele>289.68573</ele>
        <time>2023-09-30T06:58:43.000Z</time>
      </trkpt>
      <trkpt lat="45.8334" lon="4.68536">
        <ele>289.49335</ele>
        <time>2023-09-30T06:58:44.000Z</time>
      </trkpt>
      <trkpt lat="45.83343" lon="4.68539">
        <ele>289.26917</ele>
        <time>2023-09-30T06:58:45.000Z</time>
      </trkpt>
      <trkpt lat="45.83347" lon="4.68541">
        <ele>289.08014</ele>
        <time>2023-09-30T06:58:46.000Z</time>
      </trkpt>
      <trkpt lat="45.8335" lon="4.68543">
        <ele>288.66623</ele>
        <time>2023-09-30T06:58:47.000Z</time>
      </trkpt>
      <trkpt lat="45.83354" lon="4.68546">
        <ele>288.35709</ele>
        <time>2023-09-30T06:58:48.000Z</time>
      </trkpt>
      <trkpt lat="45.83358" lon="4.68547">
        <ele>288.0567</ele>
        <time>2023-09-30T06:58:49.000Z</time>
      </trkpt>
      <trkpt lat="45.83362" lon="4.68545">
        <ele>287.79529</ele>
        <time>2023-09-30T06:58:50.000Z</time>
      </trkpt>
      <trkpt lat="45.83366" lon="4.68543">
        <ele>287.51233</ele>
        <time>2023-09-30T06:58:51.000Z</time>
      </trkpt>
      <trkpt lat="45.8337" lon="4.68542">
        <ele>287.23569</ele>
        <time>2023-09-30T06:58:52.000Z</time>
      </trkpt>
      <trkpt lat="45.83375" lon="4.6854">
        <ele>287.11237</ele>
        <time>2023-09-30T06:58:53.000Z</time>
      </trkpt>
      <trkpt lat="45.8338" lon="4.68538">
        <ele>286.98615</ele>
        <time>2023-09-30T06:58:54.000Z</time>
      </trkpt>
      <trkpt lat="45.83384" lon="4.68535">
        <ele>286.92865</ele>
        <time>2023-09-30T06:58:55.000Z</time>
      </trkpt>
      <trkpt lat="45.83389" lon="4.68532">
        <ele>286.82748</ele>
        <time>2023-09-30T06:58:56.000Z</time>
      </trkpt>
      <trkpt lat="45.83394" lon="4.68529">
        <ele>286.76093</ele>
        <time>2023-09-30T06:58:57.000Z</time>
      </trkpt>
      <trkpt lat="45.83399" lon="4.68526">
        <ele>286.6965</ele>
        <time>2023-09-30T06:58:58.000Z</time>
      </trkpt>
      <trkpt lat="45.83403" lon="4.68523">
        <ele>286.60831</ele>
        <time>2023-09-30T06:58:59.000Z</time>
      </trkpt>
      <trkpt lat="45.83408" lon="4.68518">
        <ele>286.52206</ele>
        <time>2023-09-30T06:59:00.000Z</time>
      </trkpt>
      <trkpt lat="45.83414" lon="4.68515">
        <ele>286.43539</ele>
        <time>2023-09-30T06:59:01.000Z</time>
      </trkpt>
      <trkpt lat="45.83419" lon="4.68511">
        <ele>286.32831</ele>
        <time>2023-09-30T06:59:02.000Z</time>
      </trkpt>
      <trkpt lat="45.83425" lon="4.68509">
        <ele>286.17184</ele>
        <time>2023-09-30T06:59:03.000Z</time>
      </trkpt>
      <trkpt lat="45.8343" lon="4.68506">
        <ele>286.01083</ele>
        <time>2023-09-30T06:59:04.000Z</time>
      </trkpt>
      <trkpt lat="45.83435" lon="4.68502">
        <ele>285.82907</ele>
        <time>2023-09-30T06:59:05.000Z</time>
      </trkpt>
      <trkpt lat="45.83442" lon="4.685">
        <ele>285.66876</ele>
        <time>2023-09-30T06:59:06.000Z</time>
      </trkpt>
      <trkpt lat="45.83447" lon="4.68497">
        <ele>285.70114</ele>
        <time>2023-09-30T06:59:07.000Z</time>
      </trkpt>
      <trkpt lat="45.83453" lon="4.68494">
        <ele>285.66565</ele>
        <time>2023-09-30T06:59:08.000Z</time>
      </trkpt>
      <trkpt lat="45.83458" lon="4.68491">
        <ele>285.6098</ele>
        <time>2023-09-30T06:59:09.000Z</time>
      </trkpt>
      <trkpt lat="45.83464" lon="4.68487">
        <ele>285.53796</ele>
        <time>2023-09-30T06:59:10.000Z</time>
      </trkpt>
      <trkpt lat="45.8347" lon="4.68483">
        <ele>285.50043</ele>
        <time>2023-09-30T06:59:11.000Z</time>
      </trkpt>
      <trkpt lat="45.83476" lon="4.68479">
        <ele>285.43451</ele>
        <time>2023-09-30T06:59:12.000Z</time>
      </trkpt>
      <trkpt lat="45.83482" lon="4.68475">
        <ele>285.19852</ele>
        <time>2023-09-30T06:59:13.000Z</time>
      </trkpt>
      <trkpt lat="45.83487" lon="4.68471">
        <ele>284.99652</ele>
        <time>2023-09-30T06:59:14.000Z</time>
      </trkpt>
      <trkpt lat="45.83493" lon="4.68466">
        <ele>284.69614</ele>
        <time>2023-09-30T06:59:15.000Z</time>
      </trkpt>
      <trkpt lat="45.83499" lon="4.68462">
        <ele>284.63287</ele>
        <time>2023-09-30T06:59:16.000Z</time>
      </trkpt>
      <trkpt lat="45.83504" lon="4.68459">
        <ele>284.5318</ele>
        <time>2023-09-30T06:59:17.000Z</time>
      </trkpt>
      <trkpt lat="45.8351" lon="4.68456">
        <ele>284.42239</ele>
        <time>2023-09-30T06:59:18.000Z</time>
      </trkpt>
      <trkpt lat="45.83515" lon="4.68453">
        <ele>284.31912</ele>
        <time>2023-09-30T06:59:19.000Z</time>
      </trkpt>
      <trkpt lat="45.8352" lon="4.6845">
        <ele>284.20245</ele>
        <time>2023-09-30T06:59:20.000Z</time>
      </trkpt>
      <trkpt lat="45.83526" lon="4.68448">
        <ele>284.03705</ele>
        <time>2023-09-30T06:59:21.000Z</time>
      </trkpt>
      <trkpt lat="45.83531" lon="4.68445">
        <ele>283.86243</ele>
        <time>2023-09-30T06:59:22.000Z</time>
      </trkpt>
      <trkpt lat="45.83535" lon="4.68441">
        <ele>283.88144</ele>
        <time>2023-09-30T06:59:23.000Z</time>
      </trkpt>
      <trkpt lat="45.8354" lon="4.68437">
        <ele>283.96405</ele>
        <time>2023-09-30T06:59:24.000Z</time>
      </trkpt>
      <trkpt lat="45.83545" lon="4.68433">
        <ele>284.08878</ele>
        <time>2023-09-30T06:59:25.000Z</time>
      </trkpt>
      <trkpt lat="45.83549" lon="4.68428">
        <ele>284.18805</ele>
        <time>2023-09-30T06:59:26.000Z</time>
      </trkpt>
      <trkpt lat="45.83554" lon="4.68423">
        <ele>284.31378</ele>
        <time>2023-09-30T06:59:27.000Z</time>
      </trkpt>
      <trkpt lat="45.83558" lon="4.68417">
        <ele>284.15698</ele>
        <time>2023-09-30T06:59:28.000Z</time>
      </trkpt>
      <trkpt lat="45.83563" lon="4.68412">
        <ele>284.05402</ele>
        <time>2023-09-30T06:59:29.000Z</time>
      </trkpt>
      <trkpt lat="45.83567" lon="4.68406">
        <ele>283.94214</ele>
        <time>2023-09-30T06:59:30.000Z</time>
      </trkpt>
      <trkpt lat="45.83571" lon="4.68399">
        <ele>283.81888</ele>
        <time>2023-09-30T06:59:31.000Z</time>
      </trkpt>
      <trkpt lat="45.83574" lon="4.68393">
        <ele>283.70914</ele>
        <time>2023-09-30T06:59:32.000Z</time>
      </trkpt>
      <trkpt lat="45.83578" lon="4.68386">
        <ele>283.86447</ele>
        <time>2023-09-30T06:59:33.000Z</time>
      </trkpt>
      <trkpt lat="45.83581" lon="4.6838">
        <ele>283.8844</ele>
        <time>2023-09-30T06:59:34.000Z</time>
      </trkpt>
      <trkpt lat="45.83584" lon="4.68373">
        <ele>283.93988</ele>
        <time>2023-09-30T06:59:35.000Z</time>
      </trkpt>
      <trkpt lat="45.83585" lon="4.68366">
        <ele>283.99884</ele>
        <time>2023-09-30T06:59:36.000Z</time>
      </trkpt>
      <trkpt lat="45.83585" lon="4.68358">
        <ele>284.11774</ele>
        <time>2023-09-30T06:59:37.000Z</time>
      </trkpt>
      <trkpt lat="45.83585" lon="4.6835">
        <ele>284.23901</ele>
        <time>2023-09-30T06:59:38.000Z</time>
      </trkpt>
      <trkpt lat="45.83584" lon="4.68343">
        <ele>284.35297</ele>
        <time>2023-09-30T06:59:39.000Z</time>
      </trkpt>
      <trkpt lat="45.83583" lon="4.68336">
        <ele>284.50903</ele>
        <time>2023-09-30T06:59:40.000Z</time>
      </trkpt>
      <trkpt lat="45.83582" lon="4.68329">
        <ele>284.74939</ele>
        <time>2023-09-30T06:59:41.000Z</time>
      </trkpt>
      <trkpt lat="45.83582" lon="4.68323">
        <ele>284.9809</ele>
        <time>2023-09-30T06:59:42.000Z</time>
      </trkpt>
      <trkpt lat="45.83582" lon="4.68316">
        <ele>285.22507</ele>
        <time>2023-09-30T06:59:43.000Z</time>
      </trkpt>
      <trkpt lat="45.83582" lon="4.68311">
        <ele>285.40588</ele>
        <time>2023-09-30T06:59:44.000Z</time>
      </trkpt>
      <trkpt lat="45.83583" lon="4.68306">
        <ele>285.5455</ele>
        <time>2023-09-30T06:59:45.000Z</time>
      </trkpt>
      <trkpt lat="45.83584" lon="4.68301">
        <ele>285.67535</ele>
        <time>2023-09-30T06:59:46.000Z</time>
      </trkpt>
      <trkpt lat="45.83585" lon="4.68297">
        <ele>285.86725</ele>
        <time>2023-09-30T06:59:47.000Z</time>
      </trkpt>
      <trkpt lat="45.83587" lon="4.68293">
        <ele>286.34253</ele>
        <time>2023-09-30T06:59:48.000Z</time>
      </trkpt>
      <trkpt lat="45.83588" lon="4.6829">
        <ele>286.77936</ele>
        <time>2023-09-30T06:59:49.000Z</time>
      </trkpt>
      <trkpt lat="45.83589" lon="4.68286">
        <ele>287.2319</ele>
        <time>2023-09-30T06:59:50.000Z</time>
      </trkpt>
      <trkpt lat="45.8359" lon="4.68283">
        <ele>287.68335</ele>
        <time>2023-09-30T06:59:51.000Z</time>
      </trkpt>
      <trkpt lat="45.83591" lon="4.68279">
        <ele>288.13309</ele>
        <time>2023-09-30T06:59:52.000Z</time>
      </trkpt>
      <trkpt lat="45.83592" lon="4.68274">
        <ele>288.35757</ele>
        <time>2023-09-30T06:59:53.000Z</time>
      </trkpt>
      <trkpt lat="45.83594" lon="4.68269">
        <ele>288.73135</ele>
        <time>2023-09-30T06:59:54.000Z</time>
      </trkpt>
      <trkpt lat="45.83595" lon="4.68263">
        <ele>289.13519</ele>
        <time>2023-09-30T06:59:55.000Z</time>
      </trkpt>
      <trkpt lat="45.83596" lon="4.68255">
        <ele>289.12363</ele>
        <time>2023-09-30T06:59:56.000Z</time>
      </trkpt>
      <trkpt lat="45.83597" lon="4.68248">
        <ele>289.1199</ele>
        <time>2023-09-30T06:59:57.000Z</time>
      </trkpt>
      <trkpt lat="45.83598" lon="4.68241">
        <ele>289.09415</ele>
        <time>2023-09-30T06:59:58.000Z</time>
      </trkpt>
      <trkpt lat="45.836" lon="4.68235">
        <ele>289.04556</ele>
        <time>2023-09-30T06:59:59.000Z</time>
      </trkpt>
      <trkpt lat="45.83602" lon="4.68228">
        <ele>288.95575</ele>
        <time>2023-09-30T07:00:00.000Z</time>
      </trkpt>
      <trkpt lat="45.83605" lon="4.68221">
        <ele>288.82825</ele>
        <time>2023-09-30T07:00:01.000Z</time>
      </trkpt>
      <trkpt lat="45.83608" lon="4.68216">
        <ele>288.69522</ele>
        <time>2023-09-30T07:00:02.000Z</time>
      </trkpt>
      <trkpt lat="45.83611" lon="4.6821">
        <ele>288.37848</ele>
        <time>2023-09-30T07:00:03.000Z</time>
      </trkpt>
      <trkpt lat="45.83614" lon="4.68203">
        <ele>288.07501</ele>
        <time>2023-09-30T07:00:04.000Z</time>
      </trkpt>
      <trkpt lat="45.83616" lon="4.68196">
        <ele>287.78909</ele>
        <time>2023-09-30T07:00:05.000Z</time>
      </trkpt>
      <trkpt lat="45.83619" lon="4.68189">
        <ele>287.51849</ele>
        <time>2023-09-30T07:00:06.000Z</time>
      </trkpt>
      <trkpt lat="45.83622" lon="4.68182">
        <ele>287.18506</ele>
        <time>2023-09-30T07:00:07.000Z</time>
      </trkpt>
      <trkpt lat="45.83625" lon="4.68177">
        <ele>286.80914</ele>
        <time>2023-09-30T07:00:08.000Z</time>
      </trkpt>
      <trkpt lat="45.83628" lon="4.68169">
        <ele>286.43808</ele>
        <time>2023-09-30T07:00:09.000Z</time>
      </trkpt>
      <trkpt lat="45.83631" lon="4.68163">
        <ele>286.03256</ele>
        <time>2023-09-30T07:00:10.000Z</time>
      </trkpt>
      <trkpt lat="45.83634" lon="4.68157">
        <ele>285.63446</ele>
        <time>2023-09-30T07:00:11.000Z</time>
      </trkpt>
      <trkpt lat="45.83638" lon="4.68149">
        <ele>285.25299</ele>
        <time>2023-09-30T07:00:12.000Z</time>
      </trkpt>
      <trkpt lat="45.8364" lon="4.68143">
        <ele>285.15106</ele>
        <time>2023-09-30T07:00:13.000Z</time>
      </trkpt>
      <trkpt lat="45.83644" lon="4.68136">
        <ele>284.99609</ele>
        <time>2023-09-30T07:00:14.000Z</time>
      </trkpt>
      <trkpt lat="45.83647" lon="4.68132">
        <ele>284.84158</ele>
        <time>2023-09-30T07:00:15.000Z</time>
      </trkpt>
      <trkpt lat="45.8365" lon="4.68126">
        <ele>284.62549</ele>
        <time>2023-09-30T07:00:16.000Z</time>
      </trkpt>
      <trkpt lat="45.83654" lon="4.68121">
        <ele>284.41254</ele>
        <time>2023-09-30T07:00:17.000Z</time>
      </trkpt>
      <trkpt lat="45.83658" lon="4.68116">
        <ele>284.20709</ele>
        <time>2023-09-30T07:00:18.000Z</time>
      </trkpt>
      <trkpt lat="45.83662" lon="4.68111">
        <ele>284.02759</ele>
        <time>2023-09-30T07:00:19.000Z</time>
      </trkpt>
      <trkpt lat="45.83665" lon="4.68107">
        <ele>283.83157</ele>
        <time>2023-09-30T07:00:20.000Z</time>
      </trkpt>
      <trkpt lat="45.8367" lon="4.68102">
        <ele>283.61066</ele>
        <time>2023-09-30T07:00:21.000Z</time>
      </trkpt>
      <trkpt lat="45.83674" lon="4.68097">
        <ele>283.41196</ele>
        <time>2023-09-30T07:00:22.000Z</time>
      </trkpt>
      <trkpt lat="45.83679" lon="4.68091">
        <ele>283.24689</ele>
        <time>2023-09-30T07:00:23.000Z</time>
      </trkpt>
      <trkpt lat="45.83683" lon="4.68087">
        <ele>283.03766</ele>
        <time>2023-09-30T07:00:24.000Z</time>
      </trkpt>
      <trkpt lat="45.83687" lon="4.68082">
        <ele>282.81049</ele>
        <time>2023-09-30T07:00:25.000Z</time>
      </trkpt>
      <trkpt lat="45.83692" lon="4.68077">
        <ele>282.4328</ele>
        <time>2023-09-30T07:00:26.000Z</time>
      </trkpt>
      <trkpt lat="45.83695" lon="4.68072">
        <ele>282.02808</ele>
        <time>2023-09-30T07:00:27.000Z</time>
      </trkpt>
      <trkpt lat="45.83697" lon="4.68067">
        <ele>281.67535</ele>
        <time>2023-09-30T07:00:28.000Z</time>
      </trkpt>
      <trkpt lat="45.83698" lon="4.68059">
        <ele>281.58466</ele>
        <time>2023-09-30T07:00:29.000Z</time>
      </trkpt>
      <trkpt lat="45.83699" lon="4.68052">
        <ele>281.16556</ele>
        <time>2023-09-30T07:00:30.000Z</time>
      </trkpt>
      <trkpt lat="45.83696" lon="4.68047">
        <ele>280.91266</ele>
        <time>2023-09-30T07:00:31.000Z</time>
      </trkpt>
      <trkpt lat="45.83693" lon="4.68043">
        <ele>280.66812</ele>
        <time>2023-09-30T07:00:32.000Z</time>
      </trkpt>
      <trkpt lat="45.8369" lon="4.68037">
        <ele>280.10718</ele>
        <time>2023-09-30T07:00:33.000Z</time>
      </trkpt>
      <trkpt lat="45.83687" lon="4.68035">
        <ele>279.56863</ele>
        <time>2023-09-30T07:00:34.000Z</time>
      </trkpt>
      <trkpt lat="45.83684" lon="4.6803">
        <ele>279.10907</ele>
        <time>2023-09-30T07:00:35.000Z</time>
      </trkpt>
      <trkpt lat="45.83681" lon="4.68026">
        <ele>279.10599</ele>
        <time>2023-09-30T07:00:36.000Z</time>
      </trkpt>
      <trkpt lat="45.83678" lon="4.68022">
        <ele>279.04648</ele>
        <time>2023-09-30T07:00:37.000Z</time>
      </trkpt>
      <trkpt lat="45.83674" lon="4.68018">
        <ele>278.68286</ele>
        <time>2023-09-30T07:00:38.000Z</time>
      </trkpt>
      <trkpt lat="45.83671" lon="4.68013">
        <ele>278.40201</ele>
        <time>2023-09-30T07:00:39.000Z</time>
      </trkpt>
      <trkpt lat="45.83668" lon="4.68009">
        <ele>278.14581</ele>
        <time>2023-09-30T07:00:40.000Z</time>
      </trkpt>
      <trkpt lat="45.83665" lon="4.68003">
        <ele>277.91992</ele>
        <time>2023-09-30T07:00:41.000Z</time>
      </trkpt>
      <trkpt lat="45.83661" lon="4.67999">
        <ele>277.70056</ele>
        <time>2023-09-30T07:00:42.000Z</time>
      </trkpt>
      <trkpt lat="45.83658" lon="4.67995">
        <ele>277.47137</ele>
        <time>2023-09-30T07:00:43.000Z</time>
      </trkpt>
      <trkpt lat="45.83654" lon="4.67991">
        <ele>277.28357</ele>
        <time>2023-09-30T07:00:44.000Z</time>
      </trkpt>
      <trkpt lat="45.83652" lon="4.67986">
        <ele>277.12314</ele>
        <time>2023-09-30T07:00:45.000Z</time>
      </trkpt>
      <trkpt lat="45.83648" lon="4.67981">
        <ele>277.13083</ele>
        <time>2023-09-30T07:00:46.000Z</time>
      </trkpt>
      <trkpt lat="45.83644" lon="4.67977">
        <ele>277.19086</ele>
        <time>2023-09-30T07:00:47.000Z</time>
      </trkpt>
      <trkpt lat="45.83641" lon="4.67973">
        <ele>277.26007</ele>
        <time>2023-09-30T07:00:48.000Z</time>
      </trkpt>
      <trkpt lat="45.83638" lon="4.67969">
        <ele>277.05344</ele>
        <time>2023-09-30T07:00:49.000Z</time>
      </trkpt>
      <trkpt lat="45.83634" lon="4.67965">
        <ele>277.19818</ele>
        <time>2023-09-30T07:00:50.000Z</time>
      </trkpt>
      <trkpt lat="45.8363" lon="4.67961">
        <ele>277.19315</ele>
        <time>2023-09-30T07:00:51.000Z</time>
      </trkpt>
      <trkpt lat="45.83626" lon="4.67959">
        <ele>277.185</ele>
        <time>2023-09-30T07:00:52.000Z</time>
      </trkpt>
      <trkpt lat="45.83622" lon="4.67957">
        <ele>277.20703</ele>
        <time>2023-09-30T07:00:53.000Z</time>
      </trkpt>
      <trkpt lat="45.83618" lon="4.67952">
        <ele>277.22101</ele>
        <time>2023-09-30T07:00:54.000Z</time>
      </trkpt>
      <trkpt lat="45.83614" lon="4.67948">
        <ele>277.15317</ele>
        <time>2023-09-30T07:00:55.000Z</time>
      </trkpt>
      <trkpt lat="45.8361" lon="4.67945">
        <ele>277.11172</ele>
        <time>2023-09-30T07:00:56.000Z</time>
      </trkpt>
      <trkpt lat="45.83607" lon="4.67943">
        <ele>277.08307</ele>
        <time>2023-09-30T07:00:57.000Z</time>
      </trkpt>
      <trkpt lat="45.83602" lon="4.67939">
        <ele>277.48465</ele>
        <time>2023-09-30T07:00:58.000Z</time>
      </trkpt>
      <trkpt lat="45.83597" lon="4.67936">
        <ele>277.80664</ele>
        <time>2023-09-30T07:00:59.000Z</time>
      </trkpt>
      <trkpt lat="45.83592" lon="4.67932">
        <ele>278.15759</ele>
        <time>2023-09-30T07:01:00.000Z</time>
      </trkpt>
      <trkpt lat="45.83587" lon="4.67929">
        <ele>278.60449</ele>
        <time>2023-09-30T07:01:01.000Z</time>
      </trkpt>
      <trkpt lat="45.83583" lon="4.67926">
        <ele>279.0755</ele>
        <time>2023-09-30T07:01:02.000Z</time>
      </trkpt>
      <trkpt lat="45.83578" lon="4.67923">
        <ele>279.25006</ele>
        <time>2023-09-30T07:01:03.000Z</time>
      </trkpt>
      <trkpt lat="45.83574" lon="4.6792">
        <ele>279.44403</ele>
        <time>2023-09-30T07:01:04.000Z</time>
      </trkpt>
      <trkpt lat="45.8357" lon="4.67916">
        <ele>279.60553</ele>
        <time>2023-09-30T07:01:05.000Z</time>
      </trkpt>
      <trkpt lat="45.83565" lon="4.67912">
        <ele>279.75229</ele>
        <time>2023-09-30T07:01:06.000Z</time>
      </trkpt>
      <trkpt lat="45.83561" lon="4.67909">
        <ele>279.84418</ele>
        <time>2023-09-30T07:01:07.000Z</time>
      </trkpt>
      <trkpt lat="45.83557" lon="4.67904">
        <ele>279.90784</ele>
        <time>2023-09-30T07:01:08.000Z</time>
      </trkpt>
      <trkpt lat="45.83553" lon="4.67899">
        <ele>279.98859</ele>
        <time>2023-09-30T07:01:09.000Z</time>
      </trkpt>
      <trkpt lat="45.8355" lon="4.67893">
        <ele>280.07135</ele>
        <time>2023-09-30T07:01:10.000Z</time>
      </trkpt>
      <trkpt lat="45.83546" lon="4.67886">
        <ele>280.12811</ele>
        <time>2023-09-30T07:01:11.000Z</time>
      </trkpt>
      <trkpt lat="45.83543" lon="4.67881">
        <ele>280.20956</ele>
        <time>2023-09-30T07:01:12.000Z</time>
      </trkpt>
      <trkpt lat="45.83539" lon="4.67876">
        <ele>280.2562</ele>
        <time>2023-09-30T07:01:13.000Z</time>
      </trkpt>
      <trkpt lat="45.83536" lon="4.67871">
        <ele>280.43619</ele>
        <time>2023-09-30T07:01:14.000Z</time>
      </trkpt>
      <trkpt lat="45.83532" lon="4.67866">
        <ele>280.57217</ele>
        <time>2023-09-30T07:01:15.000Z</time>
      </trkpt>
      <trkpt lat="45.8353" lon="4.6786">
        <ele>280.68347</ele>
        <time>2023-09-30T07:01:16.000Z</time>
      </trkpt>
      <trkpt lat="45.83526" lon="4.67855">
        <ele>280.79205</ele>
        <time>2023-09-30T07:01:17.000Z</time>
      </trkpt>
      <trkpt lat="45.83523" lon="4.67851">
        <ele>280.88187</ele>
        <time>2023-09-30T07:01:18.000Z</time>
      </trkpt>
      <trkpt lat="45.8352" lon="4.67847">
        <ele>280.98004</ele>
        <time>2023-09-30T07:01:19.000Z</time>
      </trkpt>
      <trkpt lat="45.83517" lon="4.67844">
        <ele>281.04236</ele>
        <time>2023-09-30T07:01:20.000Z</time>
      </trkpt>
      <trkpt lat="45.83513" lon="4.67839">
        <ele>280.73639</ele>
        <time>2023-09-30T07:01:21.000Z</time>
      </trkpt>
      <trkpt lat="45.8351" lon="4.67834">
        <ele>280.46817</ele>
        <time>2023-09-30T07:01:22.000Z</time>
      </trkpt>
      <trkpt lat="45.83506" lon="4.67831">
        <ele>280.47424</ele>
        <time>2023-09-30T07:01:23.000Z</time>
      </trkpt>
      <trkpt lat="45.83502" lon="4.67827">
        <ele>280.45178</ele>
        <time>2023-09-30T07:01:24.000Z</time>
      </trkpt>
      <trkpt lat="45.83499" lon="4.67824">
        <ele>280.46851</ele>
        <time>2023-09-30T07:01:25.000Z</time>
      </trkpt>
      <trkpt lat="45.83495" lon="4.67821">
        <ele>280.44485</ele>
        <time>2023-09-30T07:01:26.000Z</time>
      </trkpt>
      <trkpt lat="45.83491" lon="4.67818">
        <ele>280.4588</ele>
        <time>2023-09-30T07:01:27.000Z</time>
      </trkpt>
      <trkpt lat="45.83486" lon="4.67815">
        <ele>280.47223</ele>
        <time>2023-09-30T07:01:28.000Z</time>
      </trkpt>
      <trkpt lat="45.83482" lon="4.67812">
        <ele>280.45306</ele>
        <time>2023-09-30T07:01:29.000Z</time>
      </trkpt>
      <trkpt lat="45.83477" lon="4.6781">
        <ele>280.43704</ele>
        <time>2023-09-30T07:01:30.000Z</time>
      </trkpt>
      <trkpt lat="45.83472" lon="4.67808">
        <ele>280.42001</ele>
        <time>2023-09-30T07:01:31.000Z</time>
      </trkpt>
      <trkpt lat="45.83467" lon="4.67807">
        <ele>280.38208</ele>
        <time>2023-09-30T07:01:32.000Z</time>
      </trkpt>
      <trkpt lat="45.83462" lon="4.67806">
        <ele>280.49747</ele>
        <time>2023-09-30T07:01:33.000Z</time>
      </trkpt>
      <trkpt lat="45.83457" lon="4.67804">
        <ele>280.49463</ele>
        <time>2023-09-30T07:01:34.000Z</time>
      </trkpt>
      <trkpt lat="45.83452" lon="4.67799">
        <ele>280.61243</ele>
        <time>2023-09-30T07:01:35.000Z</time>
      </trkpt>
      <trkpt lat="45.83448" lon="4.67794">
        <ele>280.4277</ele>
        <time>2023-09-30T07:01:36.000Z</time>
      </trkpt>
      <trkpt lat="45.83444" lon="4.67788">
        <ele>280.52484</ele>
        <time>2023-09-30T07:01:37.000Z</time>
      </trkpt>
      <trkpt lat="45.83442" lon="4.6778">
        <ele>280.46439</ele>
        <time>2023-09-30T07:01:38.000Z</time>
      </trkpt>
      <trkpt lat="45.83441" lon="4.67773">
        <ele>280.39371</ele>
        <time>2023-09-30T07:01:39.000Z</time>
      </trkpt>
      <trkpt lat="45.8344" lon="4.67766">
        <ele>280.33844</ele>
        <time>2023-09-30T07:01:40.000Z</time>
      </trkpt>
      <trkpt lat="45.83439" lon="4.67759">
        <ele>280.55432</ele>
        <time>2023-09-30T07:01:41.000Z</time>
      </trkpt>
      <trkpt lat="45.83439" lon="4.67754">
        <ele>280.61935</ele>
        <time>2023-09-30T07:01:42.000Z</time>
      </trkpt>
      <trkpt lat="45.83439" lon="4.67746">
        <ele>280.98502</ele>
        <time>2023-09-30T07:01:43.000Z</time>
      </trkpt>
      <trkpt lat="45.83438" lon="4.67741">
        <ele>281.34656</ele>
        <time>2023-09-30T07:01:44.000Z</time>
      </trkpt>
      <trkpt lat="45.83436" lon="4.67735">
        <ele>281.67209</ele>
        <time>2023-09-30T07:01:45.000Z</time>
      </trkpt>
      <trkpt lat="45.83433" lon="4.67729">
        <ele>282.04224</ele>
        <time>2023-09-30T07:01:46.000Z</time>
      </trkpt>
      <trkpt lat="45.83431" lon="4.67725">
        <ele>282.40341</ele>
        <time>2023-09-30T07:01:47.000Z</time>
      </trkpt>
      <trkpt lat="45.83429" lon="4.6772">
        <ele>282.77469</ele>
        <time>2023-09-30T07:01:48.000Z</time>
      </trkpt>
      <trkpt lat="45.83426" lon="4.67716">
        <ele>283.14227</ele>
        <time>2023-09-30T07:01:49.000Z</time>
      </trkpt>
      <trkpt lat="45.83423" lon="4.67712">
        <ele>283.492</ele>
        <time>2023-09-30T07:01:50.000Z</time>
      </trkpt>
      <trkpt lat="45.83419" lon="4.67708">
        <ele>283.84918</ele>
        <time>2023-09-30T07:01:51.000Z</time>
      </trkpt>
      <trkpt lat="45.83416" lon="4.67705">
        <ele>284.19312</ele>
        <time>2023-09-30T07:01:52.000Z</time>
      </trkpt>
      <trkpt lat="45.83412" lon="4.67703">
        <ele>284.38873</ele>
        <time>2023-09-30T07:01:53.000Z</time>
      </trkpt>
      <trkpt lat="45.83408" lon="4.677">
        <ele>284.56915</ele>
        <time>2023-09-30T07:01:54.000Z</time>
      </trkpt>
      <trkpt lat="45.83404" lon="4.67698">
        <ele>284.63589</ele>
        <time>2023-09-30T07:01:55.000Z</time>
      </trkpt>
      <trkpt lat="45.83401" lon="4.67695">
        <ele>284.63983</ele>
        <time>2023-09-30T07:01:56.000Z</time>
      </trkpt>
      <trkpt lat="45.83397" lon="4.67692">
        <ele>284.37091</ele>
        <time>2023-09-30T07:01:57.000Z</time>
      </trkpt>
      <trkpt lat="45.83393" lon="4.6769">
        <ele>284.16937</ele>
        <time>2023-09-30T07:01:58.000Z</time>
      </trkpt>
      <trkpt lat="45.8339" lon="4.67688">
        <ele>283.99969</ele>
        <time>2023-09-30T07:01:59.000Z</time>
      </trkpt>
      <trkpt lat="45.83386" lon="4.67686">
        <ele>283.81927</ele>
        <time>2023-09-30T07:02:00.000Z</time>
      </trkpt>
      <trkpt lat="45.83382" lon="4.67684">
        <ele>283.64294</ele>
        <time>2023-09-30T07:02:01.000Z</time>
      </trkpt>
      <trkpt lat="45.83379" lon="4.67681">
        <ele>283.54752</ele>
        <time>2023-09-30T07:02:02.000Z</time>
      </trkpt>
      <trkpt lat="45.83375" lon="4.67679">
        <ele>283.18405</ele>
        <time>2023-09-30T07:02:03.000Z</time>
      </trkpt>
      <trkpt lat="45.83372" lon="4.67677">
        <ele>282.83746</ele>
        <time>2023-09-30T07:02:04.000Z</time>
      </trkpt>
      <trkpt lat="45.83369" lon="4.67675">
        <ele>282.50253</ele>
        <time>2023-09-30T07:02:05.000Z</time>
      </trkpt>
      <trkpt lat="45.83365" lon="4.67673">
        <ele>282.16901</ele>
        <time>2023-09-30T07:02:06.000Z</time>
      </trkpt>
      <trkpt lat="45.83361" lon="4.67671">
        <ele>281.83618</ele>
        <time>2023-09-30T07:02:07.000Z</time>
      </trkpt>
      <trkpt lat="45.83358" lon="4.67669">
        <ele>281.51794</ele>
        <time>2023-09-30T07:02:08.000Z</time>
      </trkpt>
      <trkpt lat="45.83354" lon="4.67667">
        <ele>281.21323</ele>
        <time>2023-09-30T07:02:09.000Z</time>
      </trkpt>
      <trkpt lat="45.83351" lon="4.67665">
        <ele>280.92828</ele>
        <time>2023-09-30T07:02:10.000Z</time>
      </trkpt>
      <trkpt lat="45.83347" lon="4.67663">
        <ele>280.65173</ele>
        <time>2023-09-30T07:02:11.000Z</time>
      </trkpt>
      <trkpt lat="45.83344" lon="4.67661">
        <ele>280.38657</ele>
        <time>2023-09-30T07:02:12.000Z</time>
      </trkpt>
      <trkpt lat="45.8334" lon="4.67659">
        <ele>280.1431</ele>
        <time>2023-09-30T07:02:13.000Z</time>
      </trkpt>
      <trkpt lat="45.83337" lon="4.67657">
        <ele>279.90363</ele>
        <time>2023-09-30T07:02:14.000Z</time>
      </trkpt>
      <trkpt lat="45.83333" lon="4.67655">
        <ele>279.70099</ele>
        <time>2023-09-30T07:02:15.000Z</time>
      </trkpt>
      <trkpt lat="45.8333" lon="4.67653">
        <ele>279.87839</ele>
        <time>2023-09-30T07:02:16.000Z</time>
      </trkpt>
      <trkpt lat="45.83326" lon="4.67651">
        <ele>280.00589</ele>
        <time>2023-09-30T07:02:17.000Z</time>
      </trkpt>
      <trkpt lat="45.83323" lon="4.67649">
        <ele>280.12262</ele>
        <time>2023-09-30T07:02:18.000Z</time>
      </trkpt>
      <trkpt lat="45.83319" lon="4.67648">
        <ele>280.21167</ele>
        <time>2023-09-30T07:02:19.000Z</time>
      </trkpt>
      <trkpt lat="45.83316" lon="4.67646">
        <ele>280.3157</ele>
        <time>2023-09-30T07:02:20.000Z</time>
      </trkpt>
      <trkpt lat="45.83313" lon="4.67644">
        <ele>280.40228</ele>
        <time>2023-09-30T07:02:21.000Z</time>
      </trkpt>
      <trkpt lat="45.83309" lon="4.67643">
        <ele>280.51712</ele>
        <time>2023-09-30T07:02:22.000Z</time>
      </trkpt>
      <trkpt lat="45.83306" lon="4.67641">
        <ele>280.61621</ele>
        <time>2023-09-30T07:02:23.000Z</time>
      </trkpt>
      <trkpt lat="45.83302" lon="4.67639">
        <ele>280.70972</ele>
        <time>2023-09-30T07:02:24.000Z</time>
      </trkpt>
      <trkpt lat="45.83299" lon="4.67638">
        <ele>280.79379</ele>
        <time>2023-09-30T07:02:25.000Z</time>
      </trkpt>
      <trkpt lat="45.83296" lon="4.67636">
        <ele>280.88626</ele>
        <time>2023-09-30T07:02:26.000Z</time>
      </trkpt>
      <trkpt lat="45.83292" lon="4.67635">
        <ele>280.97403</ele>
        <time>2023-09-30T07:02:27.000Z</time>
      </trkpt>
      <trkpt lat="45.83289" lon="4.67635">
        <ele>281.03403</ele>
        <time>2023-09-30T07:02:28.000Z</time>
      </trkpt>
      <trkpt lat="45.83285" lon="4.67634">
        <ele>281.17706</ele>
        <time>2023-09-30T07:02:29.000Z</time>
      </trkpt>
      <trkpt lat="45.83282" lon="4.67633">
        <ele>281.30365</ele>
        <time>2023-09-30T07:02:30.000Z</time>
      </trkpt>
      <trkpt lat="45.83278" lon="4.67632">
        <ele>281.60104</ele>
        <time>2023-09-30T07:02:31.000Z</time>
      </trkpt>
      <trkpt lat="45.83274" lon="4.67631">
        <ele>282.02557</ele>
        <time>2023-09-30T07:02:32.000Z</time>
      </trkpt>
      <trkpt lat="45.8327" lon="4.6763">
        <ele>282.43433</ele>
        <time>2023-09-30T07:02:33.000Z</time>
      </trkpt>
      <trkpt lat="45.83265" lon="4.67629">
        <ele>282.83405</ele>
        <time>2023-09-30T07:02:34.000Z</time>
      </trkpt>
      <trkpt lat="45.83261" lon="4.67628">
        <ele>282.77484</ele>
        <time>2023-09-30T07:02:35.000Z</time>
      </trkpt>
      <trkpt lat="45.83255" lon="4.67626">
        <ele>282.77029</ele>
        <time>2023-09-30T07:02:36.000Z</time>
      </trkpt>
      <trkpt lat="45.83249" lon="4.67624">
        <ele>282.78192</ele>
        <time>2023-09-30T07:02:37.000Z</time>
      </trkpt>
      <trkpt lat="45.83245" lon="4.6762">
        <ele>282.8222</ele>
        <time>2023-09-30T07:02:38.000Z</time>
      </trkpt>
      <trkpt lat="45.83241" lon="4.67615">
        <ele>282.85522</ele>
        <time>2023-09-30T07:02:39.000Z</time>
      </trkpt>
      <trkpt lat="45.83238" lon="4.6761">
        <ele>282.9072</ele>
        <time>2023-09-30T07:02:40.000Z</time>
      </trkpt>
      <trkpt lat="45.83237" lon="4.67603">
        <ele>283.24396</ele>
        <time>2023-09-30T07:02:41.000Z</time>
      </trkpt>
      <trkpt lat="45.83237" lon="4.67596">
        <ele>283.62491</ele>
        <time>2023-09-30T07:02:42.000Z</time>
      </trkpt>
      <trkpt lat="45.83237" lon="4.6759">
        <ele>284.01685</ele>
        <time>2023-09-30T07:02:43.000Z</time>
      </trkpt>
      <trkpt lat="45.83239" lon="4.67584">
        <ele>284.41867</ele>
        <time>2023-09-30T07:02:44.000Z</time>
      </trkpt>
      <trkpt lat="45.8324" lon="4.67579">
        <ele>284.46008</ele>
        <time>2023-09-30T07:02:45.000Z</time>
      </trkpt>
      <trkpt lat="45.83241" lon="4.67574">
        <ele>284.56686</ele>
        <time>2023-09-30T07:02:46.000Z</time>
      </trkpt>
      <trkpt lat="45.83242" lon="4.6757">
        <ele>284.70444</ele>
        <time>2023-09-30T07:02:47.000Z</time>
      </trkpt>
      <trkpt lat="45.83242" lon="4.67566">
        <ele>284.88397</ele>
        <time>2023-09-30T07:02:48.000Z</time>
      </trkpt>
      <trkpt lat="45.83242" lon="4.67562">
        <ele>284.98526</ele>
        <time>2023-09-30T07:02:49.000Z</time>
      </trkpt>
      <trkpt lat="45.83242" lon="4.67558">
        <ele>285.08057</ele>
        <time>2023-09-30T07:02:50.000Z</time>
      </trkpt>
      <trkpt lat="45.83242" lon="4.67554">
        <ele>285.27219</ele>
        <time>2023-09-30T07:02:51.000Z</time>
      </trkpt>
      <trkpt lat="45.83242" lon="4.67551">
        <ele>285.36554</ele>
        <time>2023-09-30T07:02:52.000Z</time>
      </trkpt>
      <trkpt lat="45.83242" lon="4.67547">
        <ele>285.46017</ele>
        <time>2023-09-30T07:02:53.000Z</time>
      </trkpt>
      <trkpt lat="45.83241" lon="4.67543">
        <ele>285.54932</ele>
        <time>2023-09-30T07:02:54.000Z</time>
      </trkpt>
      <trkpt lat="45.8324" lon="4.67539">
        <ele>285.69614</ele>
        <time>2023-09-30T07:02:55.000Z</time>
      </trkpt>
      <trkpt lat="45.83239" lon="4.67535">
        <ele>285.84125</ele>
        <time>2023-09-30T07:02:56.000Z</time>
      </trkpt>
      <trkpt lat="45.83237" lon="4.67532">
        <ele>285.82916</ele>
        <time>2023-09-30T07:02:57.000Z</time>
      </trkpt>
      <trkpt lat="45.83235" lon="4.6753">
        <ele>285.83145</ele>
        <time>2023-09-30T07:02:58.000Z</time>
      </trkpt>
      <trkpt lat="45.83232" lon="4.67528">
        <ele>285.84271</ele>
        <time>2023-09-30T07:02:59.000Z</time>
      </trkpt>
      <trkpt lat="45.83229" lon="4.67525">
        <ele>285.82355</ele>
        <time>2023-09-30T07:03:00.000Z</time>
      </trkpt>
      <trkpt lat="45.83227" lon="4.67523">
        <ele>285.50397</ele>
        <time>2023-09-30T07:03:01.000Z</time>
      </trkpt>
      <trkpt lat="45.83224" lon="4.6752">
        <ele>285.14267</ele>
        <time>2023-09-30T07:03:02.000Z</time>
      </trkpt>
      <trkpt lat="45.83221" lon="4.67518">
        <ele>284.77716</ele>
        <time>2023-09-30T07:03:03.000Z</time>
      </trkpt>
      <trkpt lat="45.83218" lon="4.67517">
        <ele>284.41058</ele>
        <time>2023-09-30T07:03:04.000Z</time>
      </trkpt>
      <trkpt lat="45.83216" lon="4.67515">
        <ele>284.38388</ele>
        <time>2023-09-30T07:03:05.000Z</time>
      </trkpt>
      <trkpt lat="45.83214" lon="4.67512">
        <ele>284.28964</ele>
        <time>2023-09-30T07:03:06.000Z</time>
      </trkpt>
      <trkpt lat="45.83211" lon="4.6751">
        <ele>284.16412</ele>
        <time>2023-09-30T07:03:07.000Z</time>
      </trkpt>
      <trkpt lat="45.83209" lon="4.67507">
        <ele>284.01715</ele>
        <time>2023-09-30T07:03:08.000Z</time>
      </trkpt>
      <trkpt lat="45.83206" lon="4.67505">
        <ele>283.89444</ele>
        <time>2023-09-30T07:03:09.000Z</time>
      </trkpt>
      <trkpt lat="45.83204" lon="4.67502">
        <ele>283.80875</ele>
        <time>2023-09-30T07:03:10.000Z</time>
      </trkpt>
      <trkpt lat="45.83202" lon="4.67499">
        <ele>283.44644</ele>
        <time>2023-09-30T07:03:11.000Z</time>
      </trkpt>
      <trkpt lat="45.83199" lon="4.67496">
        <ele>283.21179</ele>
        <time>2023-09-30T07:03:12.000Z</time>
      </trkpt>
      <trkpt lat="45.83197" lon="4.67494">
        <ele>282.99127</ele>
        <time>2023-09-30T07:03:13.000Z</time>
      </trkpt>
      <trkpt lat="45.83195" lon="4.67492">
        <ele>282.74847</ele>
        <time>2023-09-30T07:03:14.000Z</time>
      </trkpt>
      <trkpt lat="45.83192" lon="4.67489">
        <ele>282.8941</ele>
        <time>2023-09-30T07:03:15.000Z</time>
      </trkpt>
      <trkpt lat="45.83189" lon="4.67486">
        <ele>282.96191</ele>
        <time>2023-09-30T07:03:16.000Z</time>
      </trkpt>
      <trkpt lat="45.83186" lon="4.67483">
        <ele>283.19537</ele>
        <time>2023-09-30T07:03:17.000Z</time>
      </trkpt>
      <trkpt lat="45.83183" lon="4.67479">
        <ele>283.37982</ele>
        <time>2023-09-30T07:03:18.000Z</time>
      </trkpt>
      <trkpt lat="45.83181" lon="4.67476">
        <ele>283.58145</ele>
        <time>2023-09-30T07:03:19.000Z</time>
      </trkpt>
      <trkpt lat="45.83178" lon="4.67472">
        <ele>283.74594</ele>
        <time>2023-09-30T07:03:20.000Z</time>
      </trkpt>
      <trkpt lat="45.83175" lon="4.67469">
        <ele>283.91034</ele>
        <time>2023-09-30T07:03:21.000Z</time>
      </trkpt>
      <trkpt lat="45.83172" lon="4.67467">
        <ele>284.2305</ele>
        <time>2023-09-30T07:03:22.000Z</time>
      </trkpt>
      <trkpt lat="45.83169" lon="4.67465">
        <ele>284.53888</ele>
        <time>2023-09-30T07:03:23.000Z</time>
      </trkpt>
      <trkpt lat="45.83165" lon="4.67463">
        <ele>284.84189</ele>
        <time>2023-09-30T07:03:24.000Z</time>
      </trkpt>
      <trkpt lat="45.83162" lon="4.67463">
        <ele>285.17627</ele>
        <time>2023-09-30T07:03:25.000Z</time>
      </trkpt>
      <trkpt lat="45.83158" lon="4.67463">
        <ele>285.50201</ele>
        <time>2023-09-30T07:03:26.000Z</time>
      </trkpt>
      <trkpt lat="45.83154" lon="4.67463">
        <ele>285.79294</ele>
        <time>2023-09-30T07:03:27.000Z</time>
      </trkpt>
      <trkpt lat="45.8315" lon="4.67463">
        <ele>286.07529</ele>
        <time>2023-09-30T07:03:28.000Z</time>
      </trkpt>
      <trkpt lat="45.83147" lon="4.67463">
        <ele>286.33734</ele>
        <time>2023-09-30T07:03:29.000Z</time>
      </trkpt>
      <trkpt lat="45.83143" lon="4.67461">
        <ele>286.56989</ele>
        <time>2023-09-30T07:03:30.000Z</time>
      </trkpt>
      <trkpt lat="45.8314" lon="4.67458">
        <ele>286.81659</ele>
        <time>2023-09-30T07:03:31.000Z</time>
      </trkpt>
      <trkpt lat="45.83138" lon="4.67455">
        <ele>286.90704</ele>
        <time>2023-09-30T07:03:32.000Z</time>
      </trkpt>
      <trkpt lat="45.83135" lon="4.67451">
        <ele>286.98419</ele>
        <time>2023-09-30T07:03:33.000Z</time>
      </trkpt>
      <trkpt lat="45.83132" lon="4.67447">
        <ele>287.07819</ele>
        <time>2023-09-30T07:03:34.000Z</time>
      </trkpt>
      <trkpt lat="45.8313" lon="4.67444">
        <ele>287.15344</ele>
        <time>2023-09-30T07:03:35.000Z</time>
      </trkpt>
      <trkpt lat="45.83128" lon="4.6744">
        <ele>287.25903</ele>
        <time>2023-09-30T07:03:36.000Z</time>
      </trkpt>
      <trkpt lat="45.83125" lon="4.67437">
        <ele>287.37216</ele>
        <time>2023-09-30T07:03:37.000Z</time>
      </trkpt>
      <trkpt lat="45.83122" lon="4.67434">
        <ele>287.48969</ele>
        <time>2023-09-30T07:03:38.000Z</time>
      </trkpt>
      <trkpt lat="45.83119" lon="4.67431">
        <ele>287.59357</ele>
        <time>2023-09-30T07:03:39.000Z</time>
      </trkpt>
      <trkpt lat="45.83116" lon="4.67429">
        <ele>287.7366</ele>
        <time>2023-09-30T07:03:40.000Z</time>
      </trkpt>
      <trkpt lat="45.83114" lon="4.67426">
        <ele>287.97232</ele>
        <time>2023-09-30T07:03:41.000Z</time>
      </trkpt>
      <trkpt lat="45.83112" lon="4.67424">
        <ele>287.64673</ele>
        <time>2023-09-30T07:03:42.000Z</time>
      </trkpt>
      <trkpt lat="45.8311" lon="4.67421">
        <ele>287.40393</ele>
        <time>2023-09-30T07:03:43.000Z</time>
      </trkpt>
      <trkpt lat="45.83108" lon="4.67419">
        <ele>287.14688</ele>
        <time>2023-09-30T07:03:44.000Z</time>
      </trkpt>
      <trkpt lat="45.83106" lon="4.67417">
        <ele>286.88876</ele>
        <time>2023-09-30T07:03:45.000Z</time>
      </trkpt>
      <trkpt lat="45.83104" lon="4.67414">
        <ele>286.68341</ele>
        <time>2023-09-30T07:03:46.000Z</time>
      </trkpt>
      <trkpt lat="45.83102" lon="4.67412">
        <ele>286.51935</ele>
        <time>2023-09-30T07:03:47.000Z</time>
      </trkpt>
      <trkpt lat="45.831" lon="4.67409">
        <ele>286.53729</ele>
        <time>2023-09-30T07:03:48.000Z</time>
      </trkpt>
      <trkpt lat="45.83097" lon="4.67407">
        <ele>286.55679</ele>
        <time>2023-09-30T07:03:49.000Z</time>
      </trkpt>
      <trkpt lat="45.83095" lon="4.67404">
        <ele>286.68069</ele>
        <time>2023-09-30T07:03:50.000Z</time>
      </trkpt>
      <trkpt lat="45.83093" lon="4.67402">
        <ele>286.81174</ele>
        <time>2023-09-30T07:03:51.000Z</time>
      </trkpt>
      <trkpt lat="45.83091" lon="4.67399">
        <ele>286.58783</ele>
        <time>2023-09-30T07:03:52.000Z</time>
      </trkpt>
      <trkpt lat="45.83088" lon="4.67396">
        <ele>286.43634</ele>
        <time>2023-09-30T07:03:53.000Z</time>
      </trkpt>
      <trkpt lat="45.83086" lon="4.67394">
        <ele>286.28745</ele>
        <time>2023-09-30T07:03:54.000Z</time>
      </trkpt>
      <trkpt lat="45.83084" lon="4.67391">
        <ele>286.142</ele>
        <time>2023-09-30T07:03:55.000Z</time>
      </trkpt>
      <trkpt lat="45.83083" lon="4.67388">
        <ele>285.9837</ele>
        <time>2023-09-30T07:03:56.000Z</time>
      </trkpt>
      <trkpt lat="45.83081" lon="4.67386">
        <ele>285.81735</ele>
        <time>2023-09-30T07:03:57.000Z</time>
      </trkpt>
      <trkpt lat="45.83078" lon="4.67383">
        <ele>285.68933</ele>
        <time>2023-09-30T07:03:58.000Z</time>
      </trkpt>
      <trkpt lat="45.83076" lon="4.6738">
        <ele>285.75632</ele>
        <time>2023-09-30T07:03:59.000Z</time>
      </trkpt>
      <trkpt lat="45.83074" lon="4.67378">
        <ele>285.85138</ele>
        <time>2023-09-30T07:04:00.000Z</time>
      </trkpt>
      <trkpt lat="45.83071" lon="4.67375">
        <ele>285.88641</ele>
        <time>2023-09-30T07:04:01.000Z</time>
      </trkpt>
      <trkpt lat="45.83069" lon="4.67372">
        <ele>286.33289</ele>
        <time>2023-09-30T07:04:02.000Z</time>
      </trkpt>
      <trkpt lat="45.83067" lon="4.67369">
        <ele>286.70062</ele>
        <time>2023-09-30T07:04:03.000Z</time>
      </trkpt>
      <trkpt lat="45.83065" lon="4.67367">
        <ele>287.08624</ele>
        <time>2023-09-30T07:04:04.000Z</time>
      </trkpt>
      <trkpt lat="45.83062" lon="4.67364">
        <ele>287.48102</ele>
        <time>2023-09-30T07:04:05.000Z</time>
      </trkpt>
      <trkpt lat="45.83059" lon="4.67362">
        <ele>287.85129</ele>
        <time>2023-09-30T07:04:06.000Z</time>
      </trkpt>
      <trkpt lat="45.83057" lon="4.67359">
        <ele>288.30334</ele>
        <time>2023-09-30T07:04:07.000Z</time>
      </trkpt>
      <trkpt lat="45.83054" lon="4.67357">
        <ele>288.57516</ele>
        <time>2023-09-30T07:04:08.000Z</time>
      </trkpt>
      <trkpt lat="45.83052" lon="4.67354">
        <ele>288.8504</ele>
        <time>2023-09-30T07:04:09.000Z</time>
      </trkpt>
      <trkpt lat="45.83049" lon="4.67352">
        <ele>288.71027</ele>
        <time>2023-09-30T07:04:10.000Z</time>
      </trkpt>
      <trkpt lat="45.83047" lon="4.6735">
        <ele>288.63293</ele>
        <time>2023-09-30T07:04:11.000Z</time>
      </trkpt>
      <trkpt lat="45.83044" lon="4.67348">
        <ele>288.90295</ele>
        <time>2023-09-30T07:04:12.000Z</time>
      </trkpt>
      <trkpt lat="45.83042" lon="4.67346">
        <ele>289.10602</ele>
        <time>2023-09-30T07:04:13.000Z</time>
      </trkpt>
      <trkpt lat="45.8304" lon="4.67343">
        <ele>289.327</ele>
        <time>2023-09-30T07:04:14.000Z</time>
      </trkpt>
      <trkpt lat="45.83037" lon="4.67341">
        <ele>289.71158</ele>
        <time>2023-09-30T07:04:15.000Z</time>
      </trkpt>
      <trkpt lat="45.83035" lon="4.67338">
        <ele>290.09705</ele>
        <time>2023-09-30T07:04:16.000Z</time>
      </trkpt>
      <trkpt lat="45.83033" lon="4.67336">
        <ele>290.53232</ele>
        <time>2023-09-30T07:04:17.000Z</time>
      </trkpt>
      <trkpt lat="45.8303" lon="4.67333">
        <ele>291.02155</ele>
        <time>2023-09-30T07:04:18.000Z</time>
      </trkpt>
      <trkpt lat="45.83028" lon="4.67331">
        <ele>290.96576</ele>
        <time>2023-09-30T07:04:19.000Z</time>
      </trkpt>
      <trkpt lat="45.83025" lon="4.67329">
        <ele>290.93079</ele>
        <time>2023-09-30T07:04:20.000Z</time>
      </trkpt>
      <trkpt lat="45.83023" lon="4.67326">
        <ele>290.89777</ele>
        <time>2023-09-30T07:04:21.000Z</time>
      </trkpt>
      <trkpt lat="45.8302" lon="4.67324">
        <ele>290.8623</ele>
        <time>2023-09-30T07:04:22.000Z</time>
      </trkpt>
      <trkpt lat="45.83018" lon="4.67322">
        <ele>290.82364</ele>
        <time>2023-09-30T07:04:23.000Z</time>
      </trkpt>
      <trkpt lat="45.83015" lon="4.67319">
        <ele>290.73639</ele>
        <time>2023-09-30T07:04:24.000Z</time>
      </trkpt>
      <trkpt lat="45.83013" lon="4.67317">
        <ele>290.66635</ele>
        <time>2023-09-30T07:04:25.000Z</time>
      </trkpt>
      <trkpt lat="45.8301" lon="4.67314">
        <ele>290.57037</ele>
        <time>2023-09-30T07:04:26.000Z</time>
      </trkpt>
      <trkpt lat="45.83008" lon="4.67312">
        <ele>290.40417</ele>
        <time>2023-09-30T07:04:27.000Z</time>
      </trkpt>
      <trkpt lat="45.83005" lon="4.6731">
        <ele>290.25299</ele>
        <time>2023-09-30T07:04:28.000Z</time>
      </trkpt>
      <trkpt lat="45.83003" lon="4.67309">
        <ele>290.23831</ele>
        <time>2023-09-30T07:04:29.000Z</time>
      </trkpt>
      <trkpt lat="45.83" lon="4.67308">
        <ele>290.65607</ele>
        <time>2023-09-30T07:04:30.000Z</time>
      </trkpt>
      <trkpt lat="45.82998" lon="4.67309">
        <ele>290.74005</ele>
        <time>2023-09-30T07:04:31.000Z</time>
      </trkpt>
      <trkpt lat="45.82995" lon="4.67311">
        <ele>290.92307</ele>
        <time>2023-09-30T07:04:32.000Z</time>
      </trkpt>
      <trkpt lat="45.82993" lon="4.67314">
        <ele>291.11703</ele>
        <time>2023-09-30T07:04:33.000Z</time>
      </trkpt>
      <trkpt lat="45.82991" lon="4.67318">
        <ele>291.31067</ele>
        <time>2023-09-30T07:04:34.000Z</time>
      </trkpt>
      <trkpt lat="45.82989" lon="4.67323">
        <ele>291.37302</ele>
        <time>2023-09-30T07:04:35.000Z</time>
      </trkpt>
      <trkpt lat="45.82986" lon="4.67327">
        <ele>291.4245</ele>
        <time>2023-09-30T07:04:36.000Z</time>
      </trkpt>
      <trkpt lat="45.82984" lon="4.67331">
        <ele>291.41806</ele>
        <time>2023-09-30T07:04:37.000Z</time>
      </trkpt>
      <trkpt lat="45.82982" lon="4.67336">
        <ele>291.35388</ele>
        <time>2023-09-30T07:04:38.000Z</time>
      </trkpt>
      <trkpt lat="45.8298" lon="4.67341">
        <ele>291.79837</ele>
        <time>2023-09-30T07:04:39.000Z</time>
      </trkpt>
      <trkpt lat="45.82978" lon="4.67345">
        <ele>292.2049</ele>
        <time>2023-09-30T07:04:40.000Z</time>
      </trkpt>
      <trkpt lat="45.82976" lon="4.67349">
        <ele>292.58337</ele>
        <time>2023-09-30T07:04:41.000Z</time>
      </trkpt>
      <trkpt lat="45.82973" lon="4.67354">
        <ele>292.94638</ele>
        <time>2023-09-30T07:04:42.000Z</time>
      </trkpt>
      <trkpt lat="45.82971" lon="4.67358">
        <ele>293.4046</ele>
        <time>2023-09-30T07:04:43.000Z</time>
      </trkpt>
      <trkpt lat="45.82969" lon="4.67362">
        <ele>293.62921</ele>
        <time>2023-09-30T07:04:44.000Z</time>
      </trkpt>
      <trkpt lat="45.82967" lon="4.67367">
        <ele>293.86542</ele>
        <time>2023-09-30T07:04:45.000Z</time>
      </trkpt>
      <trkpt lat="45.82965" lon="4.67371">
        <ele>294.12665</ele>
        <time>2023-09-30T07:04:46.000Z</time>
      </trkpt>
      <trkpt lat="45.82963" lon="4.67375">
        <ele>294.3905</ele>
        <time>2023-09-30T07:04:47.000Z</time>
      </trkpt>
      <trkpt lat="45.82961" lon="4.6738">
        <ele>294.65091</ele>
        <time>2023-09-30T07:04:48.000Z</time>
      </trkpt>
      <trkpt lat="45.82959" lon="4.67384">
        <ele>294.77512</ele>
        <time>2023-09-30T07:04:49.000Z</time>
      </trkpt>
      <trkpt lat="45.82957" lon="4.67388">
        <ele>294.79962</ele>
        <time>2023-09-30T07:04:50.000Z</time>
      </trkpt>
      <trkpt lat="45.82955" lon="4.67392">
        <ele>295.08612</ele>
        <time>2023-09-30T07:04:51.000Z</time>
      </trkpt>
      <trkpt lat="45.82952" lon="4.67396">
        <ele>295.41855</ele>
        <time>2023-09-30T07:04:52.000Z</time>
      </trkpt>
      <trkpt lat="45.8295" lon="4.67401">
        <ele>295.73492</ele>
        <time>2023-09-30T07:04:53.000Z</time>
      </trkpt>
      <trkpt lat="45.82948" lon="4.67405">
        <ele>296.069</ele>
        <time>2023-09-30T07:04:54.000Z</time>
      </trkpt>
      <trkpt lat="45.82946" lon="4.67409">
        <ele>296.1319</ele>
        <time>2023-09-30T07:04:55.000Z</time>
      </trkpt>
      <trkpt lat="45.82944" lon="4.67413">
        <ele>296.2262</ele>
        <time>2023-09-30T07:04:56.000Z</time>
      </trkpt>
      <trkpt lat="45.82942" lon="4.67418">
        <ele>296.32745</ele>
        <time>2023-09-30T07:04:57.000Z</time>
      </trkpt>
      <trkpt lat="45.82941" lon="4.67422">
        <ele>296.41574</ele>
        <time>2023-09-30T07:04:58.000Z</time>
      </trkpt>
      <trkpt lat="45.82939" lon="4.67426">
        <ele>296.33667</ele>
        <time>2023-09-30T07:04:59.000Z</time>
      </trkpt>
      <trkpt lat="45.82937" lon="4.6743">
        <ele>296.25278</ele>
        <time>2023-09-30T07:05:00.000Z</time>
      </trkpt>
      <trkpt lat="45.82935" lon="4.67434">
        <ele>296.20532</ele>
        <time>2023-09-30T07:05:01.000Z</time>
      </trkpt>
      <trkpt lat="45.82933" lon="4.67439">
        <ele>296.18512</ele>
        <time>2023-09-30T07:05:02.000Z</time>
      </trkpt>
      <trkpt lat="45.82931" lon="4.67443">
        <ele>296.09637</ele>
        <time>2023-09-30T07:05:03.000Z</time>
      </trkpt>
      <trkpt lat="45.82929" lon="4.67447">
        <ele>296.42303</ele>
        <time>2023-09-30T07:05:04.000Z</time>
      </trkpt>
      <trkpt lat="45.82927" lon="4.67451">
        <ele>296.69388</ele>
        <time>2023-09-30T07:05:05.000Z</time>
      </trkpt>
      <trkpt lat="45.82925" lon="4.67456">
        <ele>296.95322</ele>
        <time>2023-09-30T07:05:06.000Z</time>
      </trkpt>
      <trkpt lat="45.82923" lon="4.6746">
        <ele>297.20984</ele>
        <time>2023-09-30T07:05:07.000Z</time>
      </trkpt>
      <trkpt lat="45.8292" lon="4.67464">
        <ele>297.46478</ele>
        <time>2023-09-30T07:05:08.000Z</time>
      </trkpt>
      <trkpt lat="45.82918" lon="4.67468">
        <ele>297.70624</ele>
        <time>2023-09-30T07:05:09.000Z</time>
      </trkpt>
      <trkpt lat="45.82916" lon="4.67473">
        <ele>297.68942</ele>
        <time>2023-09-30T07:05:10.000Z</time>
      </trkpt>
      <trkpt lat="45.82914" lon="4.67477">
        <ele>297.70563</ele>
        <time>2023-09-30T07:05:11.000Z</time>
      </trkpt>
      <trkpt lat="45.82913" lon="4.67481">
        <ele>297.59793</ele>
        <time>2023-09-30T07:05:12.000Z</time>
      </trkpt>
      <trkpt lat="45.82911" lon="4.67485">
        <ele>297.52756</ele>
        <time>2023-09-30T07:05:13.000Z</time>
      </trkpt>
      <trkpt lat="45.82909" lon="4.67489">
        <ele>297.42343</ele>
        <time>2023-09-30T07:05:14.000Z</time>
      </trkpt>
      <trkpt lat="45.82906" lon="4.67493">
        <ele>297.63983</ele>
        <time>2023-09-30T07:05:15.000Z</time>
      </trkpt>
      <trkpt lat="45.82904" lon="4.67496">
        <ele>297.89316</ele>
        <time>2023-09-30T07:05:16.000Z</time>
      </trkpt>
      <trkpt lat="45.82902" lon="4.675">
        <ele>298.18463</ele>
        <time>2023-09-30T07:05:17.000Z</time>
      </trkpt>
      <trkpt lat="45.829" lon="4.67504">
        <ele>298.24142</ele>
        <time>2023-09-30T07:05:18.000Z</time>
      </trkpt>
      <trkpt lat="45.82898" lon="4.67507">
        <ele>298.36185</ele>
        <time>2023-09-30T07:05:19.000Z</time>
      </trkpt>
      <trkpt lat="45.82896" lon="4.67511">
        <ele>298.48505</ele>
        <time>2023-09-30T07:05:20.000Z</time>
      </trkpt>
      <trkpt lat="45.82894" lon="4.67513">
        <ele>298.58466</ele>
        <time>2023-09-30T07:05:21.000Z</time>
      </trkpt>
      <trkpt lat="45.82891" lon="4.67514">
        <ele>298.63278</ele>
        <time>2023-09-30T07:05:22.000Z</time>
      </trkpt>
      <trkpt lat="45.82889" lon="4.67513">
        <ele>298.67746</ele>
        <time>2023-09-30T07:05:23.000Z</time>
      </trkpt>
      <trkpt lat="45.82887" lon="4.6751">
        <ele>298.54767</ele>
        <time>2023-09-30T07:05:24.000Z</time>
      </trkpt>
      <trkpt lat="45.82885" lon="4.67507">
        <ele>298.44147</ele>
        <time>2023-09-30T07:05:25.000Z</time>
      </trkpt>
      <trkpt lat="45.82883" lon="4.67503">
        <ele>298.32758</ele>
        <time>2023-09-30T07:05:26.000Z</time>
      </trkpt>
      <trkpt lat="45.82881" lon="4.675">
        <ele>298.20743</ele>
        <time>2023-09-30T07:05:27.000Z</time>
      </trkpt>
      <trkpt lat="45.82879" lon="4.67497">
        <ele>298.05893</ele>
        <time>2023-09-30T07:05:28.000Z</time>
      </trkpt>
      <trkpt lat="45.82877" lon="4.67494">
        <ele>297.91998</ele>
        <time>2023-09-30T07:05:29.000Z</time>
      </trkpt>
      <trkpt lat="45.82875" lon="4.67491">
        <ele>298.01743</ele>
        <time>2023-09-30T07:05:30.000Z</time>
      </trkpt>
      <trkpt lat="45.82872" lon="4.67488">
        <ele>298.07275</ele>
        <time>2023-09-30T07:05:31.000Z</time>
      </trkpt>
      <trkpt lat="45.8287" lon="4.67485">
        <ele>298.12659</ele>
        <time>2023-09-30T07:05:32.000Z</time>
      </trkpt>
      <trkpt lat="45.82867" lon="4.67482">
        <ele>298.29855</ele>
        <time>2023-09-30T07:05:33.000Z</time>
      </trkpt>
      <trkpt lat="45.82865" lon="4.67479">
        <ele>298.47818</ele>
        <time>2023-09-30T07:05:34.000Z</time>
      </trkpt>
      <trkpt lat="45.82862" lon="4.67475">
        <ele>298.56931</ele>
        <time>2023-09-30T07:05:35.000Z</time>
      </trkpt>
      <trkpt lat="45.8286" lon="4.67472">
        <ele>298.6015</ele>
        <time>2023-09-30T07:05:36.000Z</time>
      </trkpt>
      <trkpt lat="45.82857" lon="4.6747">
        <ele>298.60034</ele>
        <time>2023-09-30T07:05:37.000Z</time>
      </trkpt>
      <trkpt lat="45.82855" lon="4.67467">
        <ele>298.82819</ele>
        <time>2023-09-30T07:05:38.000Z</time>
      </trkpt>
      <trkpt lat="45.82852" lon="4.67464">
        <ele>299.04449</ele>
        <time>2023-09-30T07:05:39.000Z</time>
      </trkpt>
      <trkpt lat="45.8285" lon="4.67461">
        <ele>299.04791</ele>
        <time>2023-09-30T07:05:40.000Z</time>
      </trkpt>
      <trkpt lat="45.82847" lon="4.67457">
        <ele>299.0759</ele>
        <time>2023-09-30T07:05:41.000Z</time>
      </trkpt>
      <trkpt lat="45.82845" lon="4.67454">
        <ele>299.12326</ele>
        <time>2023-09-30T07:05:42.000Z</time>
      </trkpt>
      <trkpt lat="45.82843" lon="4.67451">
        <ele>299.1662</ele>
        <time>2023-09-30T07:05:43.000Z</time>
      </trkpt>
      <trkpt lat="45.8284" lon="4.67447">
        <ele>299.23599</ele>
        <time>2023-09-30T07:05:44.000Z</time>
      </trkpt>
      <trkpt lat="45.82838" lon="4.67444">
        <ele>299.28903</ele>
        <time>2023-09-30T07:05:45.000Z</time>
      </trkpt>
      <trkpt lat="45.82835" lon="4.67441">
        <ele>299.34702</ele>
        <time>2023-09-30T07:05:46.000Z</time>
      </trkpt>
      <trkpt lat="45.82833" lon="4.67438">
        <ele>299.42239</ele>
        <time>2023-09-30T07:05:47.000Z</time>
      </trkpt>
      <trkpt lat="45.8283" lon="4.67434">
        <ele>299.52914</ele>
        <time>2023-09-30T07:05:48.000Z</time>
      </trkpt>
      <trkpt lat="45.82827" lon="4.67431">
        <ele>299.5899</ele>
        <time>2023-09-30T07:05:49.000Z</time>
      </trkpt>
      <trkpt lat="45.82825" lon="4.67428">
        <ele>299.64371</ele>
        <time>2023-09-30T07:05:50.000Z</time>
      </trkpt>
      <trkpt lat="45.82822" lon="4.67425">
        <ele>299.67093</ele>
        <time>2023-09-30T07:05:51.000Z</time>
      </trkpt>
      <trkpt lat="45.8282" lon="4.67422">
        <ele>299.67279</ele>
        <time>2023-09-30T07:05:52.000Z</time>
      </trkpt>
      <trkpt lat="45.82818" lon="4.67419">
        <ele>299.51416</ele>
        <time>2023-09-30T07:05:53.000Z</time>
      </trkpt>
      <trkpt lat="45.82815" lon="4.67416">
        <ele>299.50217</ele>
        <time>2023-09-30T07:05:54.000Z</time>
      </trkpt>
      <trkpt lat="45.82813" lon="4.67413">
        <ele>299.46893</ele>
        <time>2023-09-30T07:05:55.000Z</time>
      </trkpt>
      <trkpt lat="45.8281" lon="4.6741">
        <ele>299.44006</ele>
        <time>2023-09-30T07:05:56.000Z</time>
      </trkpt>
      <trkpt lat="45.82808" lon="4.67407">
        <ele>299.47156</ele>
        <time>2023-09-30T07:05:57.000Z</time>
      </trkpt>
      <trkpt lat="45.82805" lon="4.67403">
        <ele>299.27579</ele>
        <time>2023-09-30T07:05:58.000Z</time>
      </trkpt>
      <trkpt lat="45.82802" lon="4.674">
        <ele>299.05432</ele>
        <time>2023-09-30T07:05:59.000Z</time>
      </trkpt>
      <trkpt lat="45.828" lon="4.67397">
        <ele>299.056</ele>
        <time>2023-09-30T07:06:00.000Z</time>
      </trkpt>
      <trkpt lat="45.82797" lon="4.67394">
        <ele>299.01517</ele>
        <time>2023-09-30T07:06:01.000Z</time>
      </trkpt>
      <trkpt lat="45.82794" lon="4.6739">
        <ele>298.98242</ele>
        <time>2023-09-30T07:06:02.000Z</time>
      </trkpt>
      <trkpt lat="45.82792" lon="4.67387">
        <ele>298.95737</ele>
        <time>2023-09-30T07:06:03.000Z</time>
      </trkpt>
      <trkpt lat="45.82789" lon="4.67383">
        <ele>298.96088</ele>
        <time>2023-09-30T07:06:04.000Z</time>
      </trkpt>
      <trkpt lat="45.82787" lon="4.6738">
        <ele>298.99094</ele>
        <time>2023-09-30T07:06:05.000Z</time>
      </trkpt>
      <trkpt lat="45.82784" lon="4.67377">
        <ele>299.01074</ele>
        <time>2023-09-30T07:06:06.000Z</time>
      </trkpt>
      <trkpt lat="45.82781" lon="4.67373">
        <ele>299.02713</ele>
        <time>2023-09-30T07:06:07.000Z</time>
      </trkpt>
      <trkpt lat="45.82779" lon="4.67369">
        <ele>299.05945</ele>
        <time>2023-09-30T07:06:08.000Z</time>
      </trkpt>
      <trkpt lat="45.82776" lon="4.67366">
        <ele>299.12909</ele>
        <time>2023-09-30T07:06:09.000Z</time>
      </trkpt>
      <trkpt lat="45.82773" lon="4.67362">
        <ele>299.29932</ele>
        <time>2023-09-30T07:06:10.000Z</time>
      </trkpt>
      <trkpt lat="45.82771" lon="4.67359">
        <ele>299.55017</ele>
        <time>2023-09-30T07:06:11.000Z</time>
      </trkpt>
      <trkpt lat="45.82768" lon="4.67355">
        <ele>299.83514</ele>
        <time>2023-09-30T07:06:12.000Z</time>
      </trkpt>
      <trkpt lat="45.82765" lon="4.67351">
        <ele>300.12918</ele>
        <time>2023-09-30T07:06:13.000Z</time>
      </trkpt>
      <trkpt lat="45.82762" lon="4.67348">
        <ele>300.26843</ele>
        <time>2023-09-30T07:06:14.000Z</time>
      </trkpt>
      <trkpt lat="45.8276" lon="4.67344">
        <ele>300.24152</ele>
        <time>2023-09-30T07:06:15.000Z</time>
      </trkpt>
      <trkpt lat="45.82757" lon="4.67341">
        <ele>300.21967</ele>
        <time>2023-09-30T07:06:16.000Z</time>
      </trkpt>
      <trkpt lat="45.82754" lon="4.67337">
        <ele>300.13229</ele>
        <time>2023-09-30T07:06:17.000Z</time>
      </trkpt>
      <trkpt lat="45.82751" lon="4.67333">
        <ele>300.28754</ele>
        <time>2023-09-30T07:06:18.000Z</time>
      </trkpt>
      <trkpt lat="45.82748" lon="4.6733">
        <ele>300.40958</ele>
        <time>2023-09-30T07:06:19.000Z</time>
      </trkpt>
      <trkpt lat="45.82745" lon="4.67327">
        <ele>300.51907</ele>
        <time>2023-09-30T07:06:20.000Z</time>
      </trkpt>
      <trkpt lat="45.82742" lon="4.67323">
        <ele>300.63531</ele>
        <time>2023-09-30T07:06:21.000Z</time>
      </trkpt>
      <trkpt lat="45.82739" lon="4.67319">
        <ele>300.7435</ele>
        <time>2023-09-30T07:06:22.000Z</time>
      </trkpt>
      <trkpt lat="45.82736" lon="4.67316">
        <ele>300.82092</ele>
        <time>2023-09-30T07:06:23.000Z</time>
      </trkpt>
      <trkpt lat="45.82733" lon="4.67311">
        <ele>301.01221</ele>
        <time>2023-09-30T07:06:24.000Z</time>
      </trkpt>
      <trkpt lat="45.82729" lon="4.67307">
        <ele>301.18057</ele>
        <time>2023-09-30T07:06:25.000Z</time>
      </trkpt>
      <trkpt lat="45.82726" lon="4.67303">
        <ele>301.32794</ele>
        <time>2023-09-30T07:06:26.000Z</time>
      </trkpt>
      <trkpt lat="45.82723" lon="4.67299">
        <ele>301.47675</ele>
        <time>2023-09-30T07:06:27.000Z</time>
      </trkpt>
      <trkpt lat="45.8272" lon="4.67295">
        <ele>301.59805</ele>
        <time>2023-09-30T07:06:28.000Z</time>
      </trkpt>
      <trkpt lat="45.82716" lon="4.67291">
        <ele>301.7702</ele>
        <time>2023-09-30T07:06:29.000Z</time>
      </trkpt>
      <trkpt lat="45.82712" lon="4.67286">
        <ele>301.64188</ele>
        <time>2023-09-30T07:06:30.000Z</time>
      </trkpt>
      <trkpt lat="45.82709" lon="4.67282">
        <ele>301.49368</ele>
        <time>2023-09-30T07:06:31.000Z</time>
      </trkpt>
      <trkpt lat="45.82706" lon="4.67277">
        <ele>301.32773</ele>
        <time>2023-09-30T07:06:32.000Z</time>
      </trkpt>
      <trkpt lat="45.82703" lon="4.67272">
        <ele>301.1702</ele>
        <time>2023-09-30T07:06:33.000Z</time>
      </trkpt>
      <trkpt lat="45.827" lon="4.67268">
        <ele>301.04358</ele>
        <time>2023-09-30T07:06:34.000Z</time>
      </trkpt>
      <trkpt lat="45.82696" lon="4.67264">
        <ele>301.0929</ele>
        <time>2023-09-30T07:06:35.000Z</time>
      </trkpt>
      <trkpt lat="45.82693" lon="4.6726">
        <ele>301.12897</ele>
        <time>2023-09-30T07:06:36.000Z</time>
      </trkpt>
      <trkpt lat="45.8269" lon="4.67256">
        <ele>301.16678</ele>
        <time>2023-09-30T07:06:37.000Z</time>
      </trkpt>
      <trkpt lat="45.82687" lon="4.67253">
        <ele>301.16422</ele>
        <time>2023-09-30T07:06:38.000Z</time>
      </trkpt>
      <trkpt lat="45.82684" lon="4.67249">
        <ele>301.15802</ele>
        <time>2023-09-30T07:06:39.000Z</time>
      </trkpt>
      <trkpt lat="45.82681" lon="4.67246">
        <ele>301.15897</ele>
        <time>2023-09-30T07:06:40.000Z</time>
      </trkpt>
      <trkpt lat="45.82678" lon="4.67241">
        <ele>301.18088</ele>
        <time>2023-09-30T07:06:41.000Z</time>
      </trkpt>
      <trkpt lat="45.82675" lon="4.67237">
        <ele>301.33087</ele>
        <time>2023-09-30T07:06:42.000Z</time>
      </trkpt>
      <trkpt lat="45.82672" lon="4.67234">
        <ele>301.50903</ele>
        <time>2023-09-30T07:06:43.000Z</time>
      </trkpt>
      <trkpt lat="45.82669" lon="4.6723">
        <ele>301.3775</ele>
        <time>2023-09-30T07:06:44.000Z</time>
      </trkpt>
      <trkpt lat="45.82666" lon="4.67226">
        <ele>301.30164</ele>
        <time>2023-09-30T07:06:45.000Z</time>
      </trkpt>
      <trkpt lat="45.82664" lon="4.67223">
        <ele>301.25397</ele>
        <time>2023-09-30T07:06:46.000Z</time>
      </trkpt>
      <trkpt lat="45.82661" lon="4.67219">
        <ele>301.19363</ele>
        <time>2023-09-30T07:06:47.000Z</time>
      </trkpt>
      <trkpt lat="45.82659" lon="4.67216">
        <ele>301.14368</ele>
        <time>2023-09-30T07:06:48.000Z</time>
      </trkpt>
      <trkpt lat="45.82656" lon="4.67213">
        <ele>301.04004</ele>
        <time>2023-09-30T07:06:49.000Z</time>
      </trkpt>
      <trkpt lat="45.82654" lon="4.6721">
        <ele>301.17014</ele>
        <time>2023-09-30T07:06:50.000Z</time>
      </trkpt>
      <trkpt lat="45.82651" lon="4.67207">
        <ele>301.26108</ele>
        <time>2023-09-30T07:06:51.000Z</time>
      </trkpt>
      <trkpt lat="45.82649" lon="4.67204">
        <ele>301.33496</ele>
        <time>2023-09-30T07:06:52.000Z</time>
      </trkpt>
      <trkpt lat="45.82647" lon="4.67201">
        <ele>301.42773</ele>
        <time>2023-09-30T07:06:53.000Z</time>
      </trkpt>
      <trkpt lat="45.82644" lon="4.67198">
        <ele>301.61954</ele>
        <time>2023-09-30T07:06:54.000Z</time>
      </trkpt>
      <trkpt lat="45.82643" lon="4.67195">
        <ele>301.84296</ele>
        <time>2023-09-30T07:06:55.000Z</time>
      </trkpt>
      <trkpt lat="45.82641" lon="4.67192">
        <ele>302.117</ele>
        <time>2023-09-30T07:06:56.000Z</time>
      </trkpt>
      <trkpt lat="45.82639" lon="4.67189">
        <ele>302.23737</ele>
        <time>2023-09-30T07:06:57.000Z</time>
      </trkpt>
      <trkpt lat="45.82637" lon="4.67186">
        <ele>302.37225</ele>
        <time>2023-09-30T07:06:58.000Z</time>
      </trkpt>
      <trkpt lat="45.82635" lon="4.67185">
        <ele>302.53232</ele>
        <time>2023-09-30T07:06:59.000Z</time>
      </trkpt>
      <trkpt lat="45.82632" lon="4.67186">
        <ele>302.71161</ele>
        <time>2023-09-30T07:07:00.000Z</time>
      </trkpt>
      <trkpt lat="45.8263" lon="4.67188">
        <ele>302.87177</ele>
        <time>2023-09-30T07:07:01.000Z</time>
      </trkpt>
      <trkpt lat="45.82628" lon="4.6719">
        <ele>302.92285</ele>
        <time>2023-09-30T07:07:02.000Z</time>
      </trkpt>
      <trkpt lat="45.82626" lon="4.6719">
        <ele>303.03192</ele>
        <time>2023-09-30T07:07:03.000Z</time>
      </trkpt>
      <trkpt lat="45.82624" lon="4.67188">
        <ele>303.36642</ele>
        <time>2023-09-30T07:07:04.000Z</time>
      </trkpt>
      <trkpt lat="45.82624" lon="4.67185">
        <ele>303.694</ele>
        <time>2023-09-30T07:07:05.000Z</time>
      </trkpt>
      <trkpt lat="45.82623" lon="4.67181">
        <ele>303.8902</ele>
        <time>2023-09-30T07:07:06.000Z</time>
      </trkpt>
      <trkpt lat="45.82623" lon="4.67176">
        <ele>304.10123</ele>
        <time>2023-09-30T07:07:07.000Z</time>
      </trkpt>
      <trkpt lat="45.82621" lon="4.67172">
        <ele>304.30548</ele>
        <time>2023-09-30T07:07:08.000Z</time>
      </trkpt>
      <trkpt lat="45.82619" lon="4.67167">
        <ele>304.49628</ele>
        <time>2023-09-30T07:07:09.000Z</time>
      </trkpt>
      <trkpt lat="45.82616" lon="4.67164">
        <ele>304.67609</ele>
        <time>2023-09-30T07:07:10.000Z</time>
      </trkpt>
      <trkpt lat="45.82613" lon="4.67162">
        <ele>304.86359</ele>
        <time>2023-09-30T07:07:11.000Z</time>
      </trkpt>
      <trkpt lat="45.8261" lon="4.6716">
        <ele>305.0899</ele>
        <time>2023-09-30T07:07:12.000Z</time>
      </trkpt>
      <trkpt lat="45.82607" lon="4.67158">
        <ele>305.31866</ele>
        <time>2023-09-30T07:07:13.000Z</time>
      </trkpt>
      <trkpt lat="45.82603" lon="4.67156">
        <ele>305.43442</ele>
        <time>2023-09-30T07:07:14.000Z</time>
      </trkpt>
      <trkpt lat="45.826" lon="4.67154">
        <ele>305.56778</ele>
        <time>2023-09-30T07:07:15.000Z</time>
      </trkpt>
      <trkpt lat="45.82597" lon="4.67153">
        <ele>305.65619</ele>
        <time>2023-09-30T07:07:16.000Z</time>
      </trkpt>
      <trkpt lat="45.82594" lon="4.67151">
        <ele>305.88324</ele>
        <time>2023-09-30T07:07:17.000Z</time>
      </trkpt>
      <trkpt lat="45.82591" lon="4.67149">
        <ele>306.13498</ele>
        <time>2023-09-30T07:07:18.000Z</time>
      </trkpt>
      <trkpt lat="45.82587" lon="4.67147">
        <ele>306.40945</ele>
        <time>2023-09-30T07:07:19.000Z</time>
      </trkpt>
      <trkpt lat="45.82583" lon="4.67145">
        <ele>306.68549</ele>
        <time>2023-09-30T07:07:20.000Z</time>
      </trkpt>
      <trkpt lat="45.8258" lon="4.67143">
        <ele>306.97415</ele>
        <time>2023-09-30T07:07:21.000Z</time>
      </trkpt>
      <trkpt lat="45.82576" lon="4.67141">
        <ele>307.14371</ele>
        <time>2023-09-30T07:07:22.000Z</time>
      </trkpt>
      <trkpt lat="45.82573" lon="4.6714">
        <ele>307.27728</ele>
        <time>2023-09-30T07:07:23.000Z</time>
      </trkpt>
      <trkpt lat="45.82569" lon="4.67139">
        <ele>307.32806</ele>
        <time>2023-09-30T07:07:24.000Z</time>
      </trkpt>
      <trkpt lat="45.82565" lon="4.67137">
        <ele>307.34152</ele>
        <time>2023-09-30T07:07:25.000Z</time>
      </trkpt>
      <trkpt lat="45.82562" lon="4.67135">
        <ele>307.48419</ele>
        <time>2023-09-30T07:07:26.000Z</time>
      </trkpt>
      <trkpt lat="45.82558" lon="4.67134">
        <ele>307.6192</ele>
        <time>2023-09-30T07:07:27.000Z</time>
      </trkpt>
      <trkpt lat="45.82555" lon="4.67133">
        <ele>307.72903</ele>
        <time>2023-09-30T07:07:28.000Z</time>
      </trkpt>
      <trkpt lat="45.82551" lon="4.67132">
        <ele>307.87088</ele>
        <time>2023-09-30T07:07:29.000Z</time>
      </trkpt>
      <trkpt lat="45.82548" lon="4.67131">
        <ele>307.99884</ele>
        <time>2023-09-30T07:07:30.000Z</time>
      </trkpt>
      <trkpt lat="45.82544" lon="4.6713">
        <ele>308.12787</ele>
        <time>2023-09-30T07:07:31.000Z</time>
      </trkpt>
      <trkpt lat="45.82541" lon="4.67129">
        <ele>308.23602</ele>
        <time>2023-09-30T07:07:32.000Z</time>
      </trkpt>
      <trkpt lat="45.82537" lon="4.67128">
        <ele>308.32065</ele>
        <time>2023-09-30T07:07:33.000Z</time>
      </trkpt>
      <trkpt lat="45.82534" lon="4.67127">
        <ele>308.41116</ele>
        <time>2023-09-30T07:07:34.000Z</time>
      </trkpt>
      <trkpt lat="45.8253" lon="4.67126">
        <ele>308.46329</ele>
        <time>2023-09-30T07:07:35.000Z</time>
      </trkpt>
      <trkpt lat="45.82527" lon="4.67124">
        <ele>308.51337</ele>
        <time>2023-09-30T07:07:36.000Z</time>
      </trkpt>
      <trkpt lat="45.82524" lon="4.67123">
        <ele>308.60727</ele>
        <time>2023-09-30T07:07:37.000Z</time>
      </trkpt>
      <trkpt lat="45.8252" lon="4.67122">
        <ele>308.68869</ele>
        <time>2023-09-30T07:07:38.000Z</time>
      </trkpt>
      <trkpt lat="45.82517" lon="4.67121">
        <ele>308.72736</ele>
        <time>2023-09-30T07:07:39.000Z</time>
      </trkpt>
      <trkpt lat="45.82513" lon="4.6712">
        <ele>308.74399</ele>
        <time>2023-09-30T07:07:40.000Z</time>
      </trkpt>
      <trkpt lat="45.8251" lon="4.67118">
        <ele>308.7363</ele>
        <time>2023-09-30T07:07:41.000Z</time>
      </trkpt>
      <trkpt lat="45.82507" lon="4.67117">
        <ele>308.823</ele>
        <time>2023-09-30T07:07:42.000Z</time>
      </trkpt>
      <trkpt lat="45.82503" lon="4.67115">
        <ele>308.86688</ele>
        <time>2023-09-30T07:07:43.000Z</time>
      </trkpt>
      <trkpt lat="45.825" lon="4.67114">
        <ele>308.91534</ele>
        <time>2023-09-30T07:07:44.000Z</time>
      </trkpt>
      <trkpt lat="45.82497" lon="4.67113">
        <ele>308.96231</ele>
        <time>2023-09-30T07:07:45.000Z</time>
      </trkpt>
      <trkpt lat="45.82493" lon="4.67112">
        <ele>309.01947</ele>
        <time>2023-09-30T07:07:46.000Z</time>
      </trkpt>
      <trkpt lat="45.8249" lon="4.67111">
        <ele>309.0676</ele>
        <time>2023-09-30T07:07:47.000Z</time>
      </trkpt>
      <trkpt lat="45.82487" lon="4.6711">
        <ele>309.12817</ele>
        <time>2023-09-30T07:07:48.000Z</time>
      </trkpt>
      <trkpt lat="45.82484" lon="4.67109">
        <ele>309.17188</ele>
        <time>2023-09-30T07:07:49.000Z</time>
      </trkpt>
      <trkpt lat="45.82481" lon="4.67108">
        <ele>309.23752</ele>
        <time>2023-09-30T07:07:50.000Z</time>
      </trkpt>
      <trkpt lat="45.82478" lon="4.67106">
        <ele>309.2995</ele>
        <time>2023-09-30T07:07:51.000Z</time>
      </trkpt>
      <trkpt lat="45.82475" lon="4.67104">
        <ele>309.39389</ele>
        <time>2023-09-30T07:07:52.000Z</time>
      </trkpt>
      <trkpt lat="45.82473" lon="4.67102">
        <ele>309.48444</ele>
        <time>2023-09-30T07:07:53.000Z</time>
      </trkpt>
      <trkpt lat="45.8247" lon="4.671">
        <ele>309.54739</ele>
        <time>2023-09-30T07:07:54.000Z</time>
      </trkpt>
      <trkpt lat="45.82468" lon="4.67099">
        <ele>309.63654</ele>
        <time>2023-09-30T07:07:55.000Z</time>
      </trkpt>
      <trkpt lat="45.82466" lon="4.67098">
        <ele>309.73993</ele>
        <time>2023-09-30T07:07:56.000Z</time>
      </trkpt>
      <trkpt lat="45.82463" lon="4.67098">
        <ele>309.72079</ele>
        <time>2023-09-30T07:07:58.000Z</time>
      </trkpt>
      <trkpt lat="45.82461" lon="4.67096">
        <ele>309.67633</ele>
        <time>2023-09-30T07:08:02.000Z</time>
      </trkpt>
      <trkpt lat="45.8246" lon="4.67093">
        <ele>309.65851</ele>
        <time>2023-09-30T07:08:04.000Z</time>
      </trkpt>
      <trkpt lat="45.82458" lon="4.67092">
        <ele>309.64886</ele>
        <time>2023-09-30T07:08:06.000Z</time>
      </trkpt>
      <trkpt lat="45.82456" lon="4.67092">
        <ele>309.65338</ele>
        <time>2023-09-30T07:08:08.000Z</time>
      </trkpt>
      <trkpt lat="45.82453" lon="4.67091">
        <ele>309.67752</ele>
        <time>2023-09-30T07:08:10.000Z</time>
      </trkpt>
      <trkpt lat="45.82449" lon="4.67089">
        <ele>309.68814</ele>
        <time>2023-09-30T07:08:12.000Z</time>
      </trkpt>
      <trkpt lat="45.82447" lon="4.67086">
        <ele>309.69833</ele>
        <time>2023-09-30T07:08:14.000Z</time>
      </trkpt>
      <trkpt lat="45.82445" lon="4.67083">
        <ele>309.71814</ele>
        <time>2023-09-30T07:08:16.000Z</time>
      </trkpt>
      <trkpt lat="45.82444" lon="4.67083">
        <ele>309.80341</ele>
        <time>2023-09-30T07:08:19.000Z</time>
      </trkpt>
      <trkpt lat="45.82442" lon="4.67081">
        <ele>309.81332</ele>
        <time>2023-09-30T07:08:23.000Z</time>
      </trkpt>
      <trkpt lat="45.8244" lon="4.67079">
        <ele>309.86404</ele>
        <time>2023-09-30T07:08:25.000Z</time>
      </trkpt>
      <trkpt lat="45.82439" lon="4.67076">
        <ele>309.94339</ele>
        <time>2023-09-30T07:08:28.000Z</time>
      </trkpt>
      <trkpt lat="45.82436" lon="4.67074">
        <ele>310.04858</ele>
        <time>2023-09-30T07:08:30.000Z</time>
      </trkpt>
      <trkpt lat="45.82434" lon="4.67071">
        <ele>310.16684</ele>
        <time>2023-09-30T07:08:32.000Z</time>
      </trkpt>
      <trkpt lat="45.82433" lon="4.67069">
        <ele>310.25809</ele>
        <time>2023-09-30T07:08:33.000Z</time>
      </trkpt>
      <trkpt lat="45.82433" lon="4.67066">
        <ele>310.33313</ele>
        <time>2023-09-30T07:08:34.000Z</time>
      </trkpt>
      <trkpt lat="45.82434" lon="4.67063">
        <ele>310.43134</ele>
        <time>2023-09-30T07:08:35.000Z</time>
      </trkpt>
      <trkpt lat="45.82436" lon="4.6706">
        <ele>310.51917</ele>
        <time>2023-09-30T07:08:36.000Z</time>
      </trkpt>
      <trkpt lat="45.82437" lon="4.67057">
        <ele>310.60162</ele>
        <time>2023-09-30T07:08:37.000Z</time>
      </trkpt>
      <trkpt lat="45.82438" lon="4.67053">
        <ele>310.76169</ele>
        <time>2023-09-30T07:08:38.000Z</time>
      </trkpt>
      <trkpt lat="45.82439" lon="4.6705">
        <ele>310.91025</ele>
        <time>2023-09-30T07:08:39.000Z</time>
      </trkpt>
      <trkpt lat="45.8244" lon="4.67046">
        <ele>311.04214</ele>
        <time>2023-09-30T07:08:40.000Z</time>
      </trkpt>
      <trkpt lat="45.82441" lon="4.67043">
        <ele>311.1651</ele>
        <time>2023-09-30T07:08:41.000Z</time>
      </trkpt>
      <trkpt lat="45.82442" lon="4.67039">
        <ele>311.22144</ele>
        <time>2023-09-30T07:08:42.000Z</time>
      </trkpt>
      <trkpt lat="45.82443" lon="4.67037">
        <ele>311.27893</ele>
        <time>2023-09-30T07:08:43.000Z</time>
      </trkpt>
      <trkpt lat="45.82445" lon="4.67033">
        <ele>311.38272</ele>
        <time>2023-09-30T07:08:45.000Z</time>
      </trkpt>
      <trkpt lat="45.82443" lon="4.67032">
        <ele>311.51584</ele>
        <time>2023-09-30T07:08:48.000Z</time>
      </trkpt>
      <trkpt lat="45.82441" lon="4.67034">
        <ele>311.59698</ele>
        <time>2023-09-30T07:08:49.000Z</time>
      </trkpt>
      <trkpt lat="45.82439" lon="4.67033">
        <ele>311.63214</ele>
        <time>2023-09-30T07:08:50.000Z</time>
      </trkpt>
      <trkpt lat="45.82437" lon="4.67031">
        <ele>311.75534</ele>
        <time>2023-09-30T07:08:51.000Z</time>
      </trkpt>
      <trkpt lat="45.82436" lon="4.67026">
        <ele>311.84061</ele>
        <time>2023-09-30T07:08:52.000Z</time>
      </trkpt>
      <trkpt lat="45.82435" lon="4.67022">
        <ele>311.89581</ele>
        <time>2023-09-30T07:08:53.000Z</time>
      </trkpt>
      <trkpt lat="45.82434" lon="4.67018">
        <ele>311.8533</ele>
        <time>2023-09-30T07:08:54.000Z</time>
      </trkpt>
      <trkpt lat="45.82431" lon="4.67014">
        <ele>311.78976</ele>
        <time>2023-09-30T07:08:55.000Z</time>
      </trkpt>
      <trkpt lat="45.82429" lon="4.67011">
        <ele>311.71481</ele>
        <time>2023-09-30T07:08:56.000Z</time>
      </trkpt>
      <trkpt lat="45.82426" lon="4.67007">
        <ele>311.67401</ele>
        <time>2023-09-30T07:08:57.000Z</time>
      </trkpt>
      <trkpt lat="45.82424" lon="4.67002">
        <ele>311.60168</ele>
        <time>2023-09-30T07:08:58.000Z</time>
      </trkpt>
      <trkpt lat="45.82422" lon="4.66998">
        <ele>311.52679</ele>
        <time>2023-09-30T07:08:59.000Z</time>
      </trkpt>
      <trkpt lat="45.82419" lon="4.66993">
        <ele>311.36917</ele>
        <time>2023-09-30T07:09:00.000Z</time>
      </trkpt>
      <trkpt lat="45.82416" lon="4.66988">
        <ele>311.24805</ele>
        <time>2023-09-30T07:09:01.000Z</time>
      </trkpt>
      <trkpt lat="45.82414" lon="4.66984">
        <ele>311.1424</ele>
        <time>2023-09-30T07:09:02.000Z</time>
      </trkpt>
      <trkpt lat="45.82411" lon="4.66979">
        <ele>311.05817</ele>
        <time>2023-09-30T07:09:03.000Z</time>
      </trkpt>
      <trkpt lat="45.82408" lon="4.66973">
        <ele>310.97031</ele>
        <time>2023-09-30T07:09:04.000Z</time>
      </trkpt>
      <trkpt lat="45.82404" lon="4.66968">
        <ele>310.9422</ele>
        <time>2023-09-30T07:09:05.000Z</time>
      </trkpt>
      <trkpt lat="45.82402" lon="4.66961">
        <ele>310.89728</ele>
        <time>2023-09-30T07:09:06.000Z</time>
      </trkpt>
      <trkpt lat="45.82399" lon="4.66955">
        <ele>310.80258</ele>
        <time>2023-09-30T07:09:07.000Z</time>
      </trkpt>
      <trkpt lat="45.82397" lon="4.66948">
        <ele>310.72174</ele>
        <time>2023-09-30T07:09:08.000Z</time>
      </trkpt>
      <trkpt lat="45.82393" lon="4.66942">
        <ele>310.66245</ele>
        <time>2023-09-30T07:09:09.000Z</time>
      </trkpt>
      <trkpt lat="45.82389" lon="4.66936">
        <ele>310.53809</ele>
        <time>2023-09-30T07:09:10.000Z</time>
      </trkpt>
      <trkpt lat="45.82385" lon="4.6693">
        <ele>310.39526</ele>
        <time>2023-09-30T07:09:11.000Z</time>
      </trkpt>
      <trkpt lat="45.82382" lon="4.66924">
        <ele>310.22687</ele>
        <time>2023-09-30T07:09:12.000Z</time>
      </trkpt>
      <trkpt lat="45.82379" lon="4.66918">
        <ele>310.03772</ele>
        <time>2023-09-30T07:09:13.000Z</time>
      </trkpt>
      <trkpt lat="45.82374" lon="4.66912">
        <ele>309.92282</ele>
        <time>2023-09-30T07:09:14.000Z</time>
      </trkpt>
      <trkpt lat="45.82369" lon="4.66906">
        <ele>309.75076</ele>
        <time>2023-09-30T07:09:15.000Z</time>
      </trkpt>
      <trkpt lat="45.82364" lon="4.66901">
        <ele>309.44247</ele>
        <time>2023-09-30T07:09:16.000Z</time>
      </trkpt>
      <trkpt lat="45.82358" lon="4.66896">
        <ele>309.10837</ele>
        <time>2023-09-30T07:09:17.000Z</time>
      </trkpt>
      <trkpt lat="45.82353" lon="4.66891">
        <ele>308.80133</ele>
        <time>2023-09-30T07:09:18.000Z</time>
      </trkpt>
      <trkpt lat="45.82348" lon="4.66887">
        <ele>308.48004</ele>
        <time>2023-09-30T07:09:19.000Z</time>
      </trkpt>
      <trkpt lat="45.82343" lon="4.66882">
        <ele>308.28094</ele>
        <time>2023-09-30T07:09:20.000Z</time>
      </trkpt>
      <trkpt lat="45.82337" lon="4.66878">
        <ele>308.02747</ele>
        <time>2023-09-30T07:09:21.000Z</time>
      </trkpt>
      <trkpt lat="45.82332" lon="4.66875">
        <ele>307.87299</ele>
        <time>2023-09-30T07:09:22.000Z</time>
      </trkpt>
      <trkpt lat="45.82329" lon="4.66871">
        <ele>307.66461</ele>
        <time>2023-09-30T07:09:23.000Z</time>
      </trkpt>
      <trkpt lat="45.82326" lon="4.66869">
        <ele>307.48334</ele>
        <time>2023-09-30T07:09:24.000Z</time>
      </trkpt>
      <trkpt lat="45.82322" lon="4.66868">
        <ele>307.30371</ele>
        <time>2023-09-30T07:09:25.000Z</time>
      </trkpt>
      <trkpt lat="45.8232" lon="4.66869">
        <ele>307.04022</ele>
        <time>2023-09-30T07:09:26.000Z</time>
      </trkpt>
      <trkpt lat="45.82317" lon="4.66871">
        <ele>306.82928</ele>
        <time>2023-09-30T07:09:27.000Z</time>
      </trkpt>
      <trkpt lat="45.82315" lon="4.66872">
        <ele>306.59711</ele>
        <time>2023-09-30T07:09:28.000Z</time>
      </trkpt>
      <trkpt lat="45.82312" lon="4.66871">
        <ele>306.38406</ele>
        <time>2023-09-30T07:09:29.000Z</time>
      </trkpt>
      <trkpt lat="45.8231" lon="4.66871">
        <ele>306.19965</ele>
        <time>2023-09-30T07:09:30.000Z</time>
      </trkpt>
      <trkpt lat="45.82308" lon="4.66871">
        <ele>305.99677</ele>
        <time>2023-09-30T07:09:31.000Z</time>
      </trkpt>
      <trkpt lat="45.82306" lon="4.6687">
        <ele>305.84702</ele>
        <time>2023-09-30T07:09:32.000Z</time>
      </trkpt>
      <trkpt lat="45.82304" lon="4.6687">
        <ele>305.68268</ele>
        <time>2023-09-30T07:09:33.000Z</time>
      </trkpt>
      <trkpt lat="45.82301" lon="4.66869">
        <ele>305.47928</ele>
        <time>2023-09-30T07:09:34.000Z</time>
      </trkpt>
      <trkpt lat="45.82299" lon="4.66869">
        <ele>305.36307</ele>
        <time>2023-09-30T07:09:35.000Z</time>
      </trkpt>
      <trkpt lat="45.82296" lon="4.66869">
        <ele>305.36151</ele>
        <time>2023-09-30T07:09:36.000Z</time>
      </trkpt>
      <trkpt lat="45.82293" lon="4.66869">
        <ele>305.36478</ele>
        <time>2023-09-30T07:09:37.000Z</time>
      </trkpt>
      <trkpt lat="45.8229" lon="4.66869">
        <ele>305.34561</ele>
        <time>2023-09-30T07:09:38.000Z</time>
      </trkpt>
      <trkpt lat="45.82286" lon="4.66869">
        <ele>305.32843</ele>
        <time>2023-09-30T07:09:39.000Z</time>
      </trkpt>
      <trkpt lat="45.82283" lon="4.66869">
        <ele>305.23639</ele>
        <time>2023-09-30T07:09:40.000Z</time>
      </trkpt>
      <trkpt lat="45.82279" lon="4.6687">
        <ele>305.15167</ele>
        <time>2023-09-30T07:09:41.000Z</time>
      </trkpt>
      <trkpt lat="45.82275" lon="4.6687">
        <ele>304.97177</ele>
        <time>2023-09-30T07:09:42.000Z</time>
      </trkpt>
      <trkpt lat="45.82271" lon="4.6687">
        <ele>304.83591</ele>
        <time>2023-09-30T07:09:43.000Z</time>
      </trkpt>
      <trkpt lat="45.82267" lon="4.6687">
        <ele>304.66623</ele>
        <time>2023-09-30T07:09:44.000Z</time>
      </trkpt>
      <trkpt lat="45.82262" lon="4.66871">
        <ele>304.47897</ele>
        <time>2023-09-30T07:09:45.000Z</time>
      </trkpt>
      <trkpt lat="45.82258" lon="4.66871">
        <ele>304.367</ele>
        <time>2023-09-30T07:09:46.000Z</time>
      </trkpt>
      <trkpt lat="45.82253" lon="4.66872">
        <ele>304.21875</ele>
        <time>2023-09-30T07:09:47.000Z</time>
      </trkpt>
      <trkpt lat="45.82248" lon="4.66873">
        <ele>304.03229</ele>
        <time>2023-09-30T07:09:48.000Z</time>
      </trkpt>
      <trkpt lat="45.82242" lon="4.66874">
        <ele>303.81418</ele>
        <time>2023-09-30T07:09:49.000Z</time>
      </trkpt>
      <trkpt lat="45.82237" lon="4.66876">
        <ele>303.5639</ele>
        <time>2023-09-30T07:09:50.000Z</time>
      </trkpt>
      <trkpt lat="45.82232" lon="4.66877">
        <ele>303.33823</ele>
        <time>2023-09-30T07:09:51.000Z</time>
      </trkpt>
      <trkpt lat="45.82227" lon="4.66878">
        <ele>303.07144</ele>
        <time>2023-09-30T07:09:52.000Z</time>
      </trkpt>
      <trkpt lat="45.82222" lon="4.66879">
        <ele>302.83273</ele>
        <time>2023-09-30T07:09:53.000Z</time>
      </trkpt>
      <trkpt lat="45.82217" lon="4.6688">
        <ele>302.61273</ele>
        <time>2023-09-30T07:09:54.000Z</time>
      </trkpt>
      <trkpt lat="45.82212" lon="4.66881">
        <ele>302.37247</ele>
        <time>2023-09-30T07:09:55.000Z</time>
      </trkpt>
      <trkpt lat="45.82207" lon="4.66882">
        <ele>302.13788</ele>
        <time>2023-09-30T07:09:56.000Z</time>
      </trkpt>
      <trkpt lat="45.82202" lon="4.66883">
        <ele>301.89413</ele>
        <time>2023-09-30T07:09:57.000Z</time>
      </trkpt>
      <trkpt lat="45.82197" lon="4.66884">
        <ele>301.65894</ele>
        <time>2023-09-30T07:09:58.000Z</time>
      </trkpt>
      <trkpt lat="45.82193" lon="4.66885">
        <ele>301.42023</ele>
        <time>2023-09-30T07:09:59.000Z</time>
      </trkpt>
      <trkpt lat="45.82188" lon="4.66886">
        <ele>301.18411</ele>
        <time>2023-09-30T07:10:00.000Z</time>
      </trkpt>
      <trkpt lat="45.82183" lon="4.66886">
        <ele>300.95609</ele>
        <time>2023-09-30T07:10:01.000Z</time>
      </trkpt>
      <trkpt lat="45.82178" lon="4.66887">
        <ele>300.74554</ele>
        <time>2023-09-30T07:10:02.000Z</time>
      </trkpt>
      <trkpt lat="45.82174" lon="4.66887">
        <ele>300.49756</ele>
        <time>2023-09-30T07:10:03.000Z</time>
      </trkpt>
      <trkpt lat="45.82169" lon="4.66887">
        <ele>300.2496</ele>
        <time>2023-09-30T07:10:04.000Z</time>
      </trkpt>
      <trkpt lat="45.82165" lon="4.66887">
        <ele>300.05258</ele>
        <time>2023-09-30T07:10:05.000Z</time>
      </trkpt>
      <trkpt lat="45.82162" lon="4.66887">
        <ele>299.88321</ele>
        <time>2023-09-30T07:10:06.000Z</time>
      </trkpt>
      <trkpt lat="45.82158" lon="4.66886">
        <ele>299.72336</ele>
        <time>2023-09-30T07:10:07.000Z</time>
      </trkpt>
      <trkpt lat="45.82154" lon="4.66885">
        <ele>299.62921</ele>
        <time>2023-09-30T07:10:08.000Z</time>
      </trkpt>
      <trkpt lat="45.82151" lon="4.66887">
        <ele>299.57062</ele>
        <time>2023-09-30T07:10:09.000Z</time>
      </trkpt>
      <trkpt lat="45.82147" lon="4.66888">
        <ele>299.58224</ele>
        <time>2023-09-30T07:10:10.000Z</time>
      </trkpt>
      <trkpt lat="45.82144" lon="4.66891">
        <ele>299.58121</ele>
        <time>2023-09-30T07:10:11.000Z</time>
      </trkpt>
      <trkpt lat="45.82141" lon="4.66893">
        <ele>299.57349</ele>
        <time>2023-09-30T07:10:12.000Z</time>
      </trkpt>
      <trkpt lat="45.82138" lon="4.66892">
        <ele>299.56677</ele>
        <time>2023-09-30T07:10:13.000Z</time>
      </trkpt>
      <trkpt lat="45.82135" lon="4.66891">
        <ele>299.5639</ele>
        <time>2023-09-30T07:10:14.000Z</time>
      </trkpt>
      <trkpt lat="45.82133" lon="4.66889">
        <ele>299.58777</ele>
        <time>2023-09-30T07:10:15.000Z</time>
      </trkpt>
      <trkpt lat="45.8213" lon="4.66888">
        <ele>299.64789</ele>
        <time>2023-09-30T07:10:16.000Z</time>
      </trkpt>
      <trkpt lat="45.82127" lon="4.66887">
        <ele>299.69415</ele>
        <time>2023-09-30T07:10:17.000Z</time>
      </trkpt>
      <trkpt lat="45.82124" lon="4.66884">
        <ele>299.75293</ele>
        <time>2023-09-30T07:10:18.000Z</time>
      </trkpt>
      <trkpt lat="45.82123" lon="4.6688">
        <ele>299.84085</ele>
        <time>2023-09-30T07:10:19.000Z</time>
      </trkpt>
      <trkpt lat="45.82124" lon="4.66876">
        <ele>299.94992</ele>
        <time>2023-09-30T07:10:20.000Z</time>
      </trkpt>
      <trkpt lat="45.82126" lon="4.66873">
        <ele>300.08041</ele>
        <time>2023-09-30T07:10:21.000Z</time>
      </trkpt>
      <trkpt lat="45.82126" lon="4.66868">
        <ele>300.22269</ele>
        <time>2023-09-30T07:10:22.000Z</time>
      </trkpt>
      <trkpt lat="45.82125" lon="4.66865">
        <ele>300.41431</ele>
        <time>2023-09-30T07:10:23.000Z</time>
      </trkpt>
      <trkpt lat="45.82122" lon="4.66862">
        <ele>300.60556</ele>
        <time>2023-09-30T07:10:24.000Z</time>
      </trkpt>
      <trkpt lat="45.82119" lon="4.6686">
        <ele>300.75986</ele>
        <time>2023-09-30T07:10:25.000Z</time>
      </trkpt>
      <trkpt lat="45.82116" lon="4.66857">
        <ele>300.89948</ele>
        <time>2023-09-30T07:10:26.000Z</time>
      </trkpt>
      <trkpt lat="45.82114" lon="4.66854">
        <ele>301.02435</ele>
        <time>2023-09-30T07:10:27.000Z</time>
      </trkpt>
      <trkpt lat="45.82111" lon="4.6685">
        <ele>301.14227</ele>
        <time>2023-09-30T07:10:28.000Z</time>
      </trkpt>
      <trkpt lat="45.82108" lon="4.66847">
        <ele>301.26669</ele>
        <time>2023-09-30T07:10:29.000Z</time>
      </trkpt>
      <trkpt lat="45.82105" lon="4.66843">
        <ele>301.3537</ele>
        <time>2023-09-30T07:10:30.000Z</time>
      </trkpt>
      <trkpt lat="45.82103" lon="4.6684">
        <ele>301.34796</ele>
        <time>2023-09-30T07:10:31.000Z</time>
      </trkpt>
      <trkpt lat="45.821" lon="4.66836">
        <ele>301.37289</ele>
        <time>2023-09-30T07:10:32.000Z</time>
      </trkpt>
      <trkpt lat="45.82097" lon="4.66832">
        <ele>301.37869</ele>
        <time>2023-09-30T07:10:33.000Z</time>
      </trkpt>
      <trkpt lat="45.82094" lon="4.66828">
        <ele>301.40131</ele>
        <time>2023-09-30T07:10:34.000Z</time>
      </trkpt>
      <trkpt lat="45.82091" lon="4.66825">
        <ele>301.40393</ele>
        <time>2023-09-30T07:10:35.000Z</time>
      </trkpt>
      <trkpt lat="45.82088" lon="4.66822">
        <ele>301.3999</ele>
        <time>2023-09-30T07:10:36.000Z</time>
      </trkpt>
      <trkpt lat="45.82085" lon="4.6682">
        <ele>301.41644</ele>
        <time>2023-09-30T07:10:37.000Z</time>
      </trkpt>
      <trkpt lat="45.82082" lon="4.66817">
        <ele>301.46439</ele>
        <time>2023-09-30T07:10:38.000Z</time>
      </trkpt>
      <trkpt lat="45.82079" lon="4.66814">
        <ele>301.46552</ele>
        <time>2023-09-30T07:10:39.000Z</time>
      </trkpt>
      <trkpt lat="45.82076" lon="4.66812">
        <ele>301.4632</ele>
        <time>2023-09-30T07:10:40.000Z</time>
      </trkpt>
      <trkpt lat="45.82073" lon="4.66809">
        <ele>301.40451</ele>
        <time>2023-09-30T07:10:41.000Z</time>
      </trkpt>
      <trkpt lat="45.8207" lon="4.66807">
        <ele>301.3114</ele>
        <time>2023-09-30T07:10:42.000Z</time>
      </trkpt>
      <trkpt lat="45.82067" lon="4.66806">
        <ele>301.19235</ele>
        <time>2023-09-30T07:10:43.000Z</time>
      </trkpt>
      <trkpt lat="45.82064" lon="4.66806">
        <ele>301.07477</ele>
        <time>2023-09-30T07:10:44.000Z</time>
      </trkpt>
      <trkpt lat="45.8206" lon="4.66805">
        <ele>300.95673</ele>
        <time>2023-09-30T07:10:45.000Z</time>
      </trkpt>
      <trkpt lat="45.82057" lon="4.66803">
        <ele>300.85016</ele>
        <time>2023-09-30T07:10:46.000Z</time>
      </trkpt>
      <trkpt lat="45.82055" lon="4.66798">
        <ele>300.76913</ele>
        <time>2023-09-30T07:10:47.000Z</time>
      </trkpt>
      <trkpt lat="45.82055" lon="4.66793">
        <ele>300.66058</ele>
        <time>2023-09-30T07:10:48.000Z</time>
      </trkpt>
      <trkpt lat="45.82055" lon="4.66788">
        <ele>300.56848</ele>
        <time>2023-09-30T07:10:49.000Z</time>
      </trkpt>
      <trkpt lat="45.82053" lon="4.66783">
        <ele>300.48282</ele>
        <time>2023-09-30T07:10:50.000Z</time>
      </trkpt>
      <trkpt lat="45.82051" lon="4.6678">
        <ele>300.48785</ele>
        <time>2023-09-30T07:10:51.000Z</time>
      </trkpt>
      <trkpt lat="45.82048" lon="4.66777">
        <ele>300.51608</ele>
        <time>2023-09-30T07:10:52.000Z</time>
      </trkpt>
      <trkpt lat="45.82045" lon="4.66774">
        <ele>300.58127</ele>
        <time>2023-09-30T07:10:53.000Z</time>
      </trkpt>
      <trkpt lat="45.82042" lon="4.66772">
        <ele>300.62433</ele>
        <time>2023-09-30T07:10:54.000Z</time>
      </trkpt>
      <trkpt lat="45.82039" lon="4.66769">
        <ele>300.64758</ele>
        <time>2023-09-30T07:10:55.000Z</time>
      </trkpt>
      <trkpt lat="45.82036" lon="4.66766">
        <ele>300.64981</ele>
        <time>2023-09-30T07:10:56.000Z</time>
      </trkpt>
      <trkpt lat="45.82033" lon="4.66764">
        <ele>300.64871</ele>
        <time>2023-09-30T07:10:57.000Z</time>
      </trkpt>
      <trkpt lat="45.8203" lon="4.66761">
        <ele>300.61929</ele>
        <time>2023-09-30T07:10:58.000Z</time>
      </trkpt>
      <trkpt lat="45.82028" lon="4.66759">
        <ele>300.61118</ele>
        <time>2023-09-30T07:10:59.000Z</time>
      </trkpt>
      <trkpt lat="45.82025" lon="4.66757">
        <ele>300.61124</ele>
        <time>2023-09-30T07:11:00.000Z</time>
      </trkpt>
      <trkpt lat="45.82022" lon="4.66754">
        <ele>300.65579</ele>
        <time>2023-09-30T07:11:01.000Z</time>
      </trkpt>
      <trkpt lat="45.8202" lon="4.66752">
        <ele>300.72186</ele>
        <time>2023-09-30T07:11:02.000Z</time>
      </trkpt>
      <trkpt lat="45.82017" lon="4.6675">
        <ele>300.80957</ele>
        <time>2023-09-30T07:11:03.000Z</time>
      </trkpt>
      <trkpt lat="45.82015" lon="4.66747">
        <ele>300.90854</ele>
        <time>2023-09-30T07:11:04.000Z</time>
      </trkpt>
      <trkpt lat="45.82012" lon="4.66745">
        <ele>301.02603</ele>
        <time>2023-09-30T07:11:05.000Z</time>
      </trkpt>
      <trkpt lat="45.82009" lon="4.66742">
        <ele>301.13428</ele>
        <time>2023-09-30T07:11:06.000Z</time>
      </trkpt>
      <trkpt lat="45.82006" lon="4.6674">
        <ele>301.23416</ele>
        <time>2023-09-30T07:11:07.000Z</time>
      </trkpt>
      <trkpt lat="45.82004" lon="4.66737">
        <ele>301.36758</ele>
        <time>2023-09-30T07:11:08.000Z</time>
      </trkpt>
      <trkpt lat="45.82001" lon="4.66735">
        <ele>301.47723</ele>
        <time>2023-09-30T07:11:09.000Z</time>
      </trkpt>
      <trkpt lat="45.81998" lon="4.66732">
        <ele>301.57574</ele>
        <time>2023-09-30T07:11:10.000Z</time>
      </trkpt>
      <trkpt lat="45.81995" lon="4.6673">
        <ele>301.69379</ele>
        <time>2023-09-30T07:11:11.000Z</time>
      </trkpt>
      <trkpt lat="45.81993" lon="4.66728">
        <ele>301.79639</ele>
        <time>2023-09-30T07:11:12.000Z</time>
      </trkpt>
      <trkpt lat="45.8199" lon="4.66726">
        <ele>301.89282</ele>
        <time>2023-09-30T07:11:13.000Z</time>
      </trkpt>
      <trkpt lat="45.81987" lon="4.66723">
        <ele>301.98654</ele>
        <time>2023-09-30T07:11:14.000Z</time>
      </trkpt>
      <trkpt lat="45.81984" lon="4.66721">
        <ele>302.10535</ele>
        <time>2023-09-30T07:11:15.000Z</time>
      </trkpt>
      <trkpt lat="45.81981" lon="4.66719">
        <ele>302.22821</ele>
        <time>2023-09-30T07:11:16.000Z</time>
      </trkpt>
      <trkpt lat="45.81978" lon="4.66716">
        <ele>302.3576</ele>
        <time>2023-09-30T07:11:17.000Z</time>
      </trkpt>
      <trkpt lat="45.81975" lon="4.66714">
        <ele>302.48523</ele>
        <time>2023-09-30T07:11:18.000Z</time>
      </trkpt>
      <trkpt lat="45.81972" lon="4.66712">
        <ele>302.60953</ele>
        <time>2023-09-30T07:11:19.000Z</time>
      </trkpt>
      <trkpt lat="45.8197" lon="4.66709">
        <ele>302.72858</ele>
        <time>2023-09-30T07:11:20.000Z</time>
      </trkpt>
      <trkpt lat="45.81967" lon="4.66707">
        <ele>302.85703</ele>
        <time>2023-09-30T07:11:21.000Z</time>
      </trkpt>
      <trkpt lat="45.81964" lon="4.66704">
        <ele>302.9729</ele>
        <time>2023-09-30T07:11:22.000Z</time>
      </trkpt>
      <trkpt lat="45.81961" lon="4.66702">
        <ele>303.06903</ele>
        <time>2023-09-30T07:11:23.000Z</time>
      </trkpt>
      <trkpt lat="45.81958" lon="4.66699">
        <ele>303.14838</ele>
        <time>2023-09-30T07:11:24.000Z</time>
      </trkpt>
      <trkpt lat="45.81955" lon="4.66697">
        <ele>303.2189</ele>
        <time>2023-09-30T07:11:25.000Z</time>
      </trkpt>
      <trkpt lat="45.81952" lon="4.66694">
        <ele>303.29437</ele>
        <time>2023-09-30T07:11:26.000Z</time>
      </trkpt>
      <trkpt lat="45.81949" lon="4.66692">
        <ele>303.33832</ele>
        <time>2023-09-30T07:11:27.000Z</time>
      </trkpt>
      <trkpt lat="45.81946" lon="4.6669">
        <ele>303.36697</ele>
        <time>2023-09-30T07:11:28.000Z</time>
      </trkpt>
      <trkpt lat="45.81943" lon="4.66687">
        <ele>303.40631</ele>
        <time>2023-09-30T07:11:29.000Z</time>
      </trkpt>
      <trkpt lat="45.8194" lon="4.66685">
        <ele>303.43906</ele>
        <time>2023-09-30T07:11:30.000Z</time>
      </trkpt>
      <trkpt lat="45.81937" lon="4.66683">
        <ele>303.48364</ele>
        <time>2023-09-30T07:11:31.000Z</time>
      </trkpt>
      <trkpt lat="45.81934" lon="4.66681">
        <ele>303.52203</ele>
        <time>2023-09-30T07:11:32.000Z</time>
      </trkpt>
      <trkpt lat="45.81931" lon="4.66679">
        <ele>303.56549</ele>
        <time>2023-09-30T07:11:33.000Z</time>
      </trkpt>
      <trkpt lat="45.81928" lon="4.66677">
        <ele>303.61758</ele>
        <time>2023-09-30T07:11:34.000Z</time>
      </trkpt>
      <trkpt lat="45.81925" lon="4.66675">
        <ele>303.64581</ele>
        <time>2023-09-30T07:11:35.000Z</time>
      </trkpt>
      <trkpt lat="45.81922" lon="4.66673">
        <ele>303.68784</ele>
        <time>2023-09-30T07:11:36.000Z</time>
      </trkpt>
      <trkpt lat="45.81919" lon="4.6667">
        <ele>303.71371</ele>
        <time>2023-09-30T07:11:37.000Z</time>
      </trkpt>
      <trkpt lat="45.81916" lon="4.66668">
        <ele>303.73862</ele>
        <time>2023-09-30T07:11:38.000Z</time>
      </trkpt>
      <trkpt lat="45.81913" lon="4.66665">
        <ele>303.79117</ele>
        <time>2023-09-30T07:11:39.000Z</time>
      </trkpt>
      <trkpt lat="45.8191" lon="4.66662">
        <ele>303.84146</ele>
        <time>2023-09-30T07:11:40.000Z</time>
      </trkpt>
      <trkpt lat="45.81907" lon="4.6666">
        <ele>303.90363</ele>
        <time>2023-09-30T07:11:41.000Z</time>
      </trkpt>
      <trkpt lat="45.81904" lon="4.66658">
        <ele>303.97702</ele>
        <time>2023-09-30T07:11:42.000Z</time>
      </trkpt>
      <trkpt lat="45.81901" lon="4.66656">
        <ele>304.0293</ele>
        <time>2023-09-30T07:11:43.000Z</time>
      </trkpt>
      <trkpt lat="45.81898" lon="4.66654">
        <ele>304.11432</ele>
        <time>2023-09-30T07:11:44.000Z</time>
      </trkpt>
      <trkpt lat="45.81895" lon="4.66651">
        <ele>304.20502</ele>
        <time>2023-09-30T07:11:45.000Z</time>
      </trkpt>
      <trkpt lat="45.81892" lon="4.66649">
        <ele>304.30392</ele>
        <time>2023-09-30T07:11:46.000Z</time>
      </trkpt>
      <trkpt lat="45.81889" lon="4.66646">
        <ele>304.44354</ele>
        <time>2023-09-30T07:11:47.000Z</time>
      </trkpt>
      <trkpt lat="45.81886" lon="4.66644">
        <ele>304.56403</ele>
        <time>2023-09-30T07:11:48.000Z</time>
      </trkpt>
      <trkpt lat="45.81883" lon="4.66641">
        <ele>304.67719</ele>
        <time>2023-09-30T07:11:49.000Z</time>
      </trkpt>
      <trkpt lat="45.8188" lon="4.66639">
        <ele>304.79929</ele>
        <time>2023-09-30T07:11:50.000Z</time>
      </trkpt>
      <trkpt lat="45.81877" lon="4.66637">
        <ele>304.95587</ele>
        <time>2023-09-30T07:11:51.000Z</time>
      </trkpt>
      <trkpt lat="45.81874" lon="4.66635">
        <ele>305.12656</ele>
        <time>2023-09-30T07:11:52.000Z</time>
      </trkpt>
      <trkpt lat="45.81872" lon="4.66633">
        <ele>305.28204</ele>
        <time>2023-09-30T07:11:53.000Z</time>
      </trkpt>
      <trkpt lat="45.81869" lon="4.6663">
        <ele>305.41992</ele>
        <time>2023-09-30T07:11:54.000Z</time>
      </trkpt>
      <trkpt lat="45.81866" lon="4.66628">
        <ele>305.57977</ele>
        <time>2023-09-30T07:11:55.000Z</time>
      </trkpt>
      <trkpt lat="45.81863" lon="4.66625">
        <ele>305.76096</ele>
        <time>2023-09-30T07:11:56.000Z</time>
      </trkpt>
      <trkpt lat="45.8186" lon="4.66623">
        <ele>305.95721</ele>
        <time>2023-09-30T07:11:57.000Z</time>
      </trkpt>
      <trkpt lat="45.81857" lon="4.6662">
        <ele>306.16132</ele>
        <time>2023-09-30T07:11:58.000Z</time>
      </trkpt>
      <trkpt lat="45.81854" lon="4.66618">
        <ele>306.34634</ele>
        <time>2023-09-30T07:11:59.000Z</time>
      </trkpt>
      <trkpt lat="45.81852" lon="4.66617">
        <ele>306.52539</ele>
        <time>2023-09-30T07:12:00.000Z</time>
      </trkpt>
      <trkpt lat="45.81849" lon="4.66615">
        <ele>306.68622</ele>
        <time>2023-09-30T07:12:01.000Z</time>
      </trkpt>
      <trkpt lat="45.81846" lon="4.66612">
        <ele>306.83734</ele>
        <time>2023-09-30T07:12:02.000Z</time>
      </trkpt>
      <trkpt lat="45.81844" lon="4.6661">
        <ele>306.98563</ele>
        <time>2023-09-30T07:12:03.000Z</time>
      </trkpt>
      <trkpt lat="45.81842" lon="4.66608">
        <ele>307.08096</ele>
        <time>2023-09-30T07:12:04.000Z</time>
      </trkpt>
      <trkpt lat="45.81839" lon="4.66606">
        <ele>307.18103</ele>
        <time>2023-09-30T07:12:05.000Z</time>
      </trkpt>
      <trkpt lat="45.81836" lon="4.66604">
        <ele>307.23334</ele>
        <time>2023-09-30T07:12:06.000Z</time>
      </trkpt>
      <trkpt lat="45.81833" lon="4.66602">
        <ele>307.25085</ele>
        <time>2023-09-30T07:12:07.000Z</time>
      </trkpt>
      <trkpt lat="45.81829" lon="4.66599">
        <ele>307.28217</ele>
        <time>2023-09-30T07:12:08.000Z</time>
      </trkpt>
      <trkpt lat="45.81827" lon="4.66597">
        <ele>307.30804</ele>
        <time>2023-09-30T07:12:09.000Z</time>
      </trkpt>
      <trkpt lat="45.81824" lon="4.66595">
        <ele>307.40009</ele>
        <time>2023-09-30T07:12:10.000Z</time>
      </trkpt>
      <trkpt lat="45.81821" lon="4.66592">
        <ele>307.47003</ele>
        <time>2023-09-30T07:12:11.000Z</time>
      </trkpt>
      <trkpt lat="45.81818" lon="4.66591">
        <ele>307.52277</ele>
        <time>2023-09-30T07:12:12.000Z</time>
      </trkpt>
      <trkpt lat="45.81815" lon="4.66588">
        <ele>307.54608</ele>
        <time>2023-09-30T07:12:13.000Z</time>
      </trkpt>
      <trkpt lat="45.81812" lon="4.66586">
        <ele>307.59988</ele>
        <time>2023-09-30T07:12:14.000Z</time>
      </trkpt>
      <trkpt lat="45.81809" lon="4.66584">
        <ele>307.64398</ele>
        <time>2023-09-30T07:12:15.000Z</time>
      </trkpt>
      <trkpt lat="45.81806" lon="4.66582">
        <ele>307.67673</ele>
        <time>2023-09-30T07:12:16.000Z</time>
      </trkpt>
      <trkpt lat="45.81803" lon="4.66579">
        <ele>307.7207</ele>
        <time>2023-09-30T07:12:17.000Z</time>
      </trkpt>
      <trkpt lat="45.81799" lon="4.66577">
        <ele>307.72479</ele>
        <time>2023-09-30T07:12:18.000Z</time>
      </trkpt>
      <trkpt lat="45.81796" lon="4.66574">
        <ele>307.68741</ele>
        <time>2023-09-30T07:12:19.000Z</time>
      </trkpt>
      <trkpt lat="45.81792" lon="4.66571">
        <ele>307.68579</ele>
        <time>2023-09-30T07:12:20.000Z</time>
      </trkpt>
      <trkpt lat="45.81789" lon="4.66569">
        <ele>307.71411</ele>
        <time>2023-09-30T07:12:21.000Z</time>
      </trkpt>
      <trkpt lat="45.81786" lon="4.66566">
        <ele>307.70074</ele>
        <time>2023-09-30T07:12:22.000Z</time>
      </trkpt>
      <trkpt lat="45.81783" lon="4.66563">
        <ele>307.70828</ele>
        <time>2023-09-30T07:12:23.000Z</time>
      </trkpt>
      <trkpt lat="45.8178" lon="4.66561">
        <ele>307.82742</ele>
        <time>2023-09-30T07:12:24.000Z</time>
      </trkpt>
      <trkpt lat="45.81777" lon="4.66558">
        <ele>307.93027</ele>
        <time>2023-09-30T07:12:25.000Z</time>
      </trkpt>
      <trkpt lat="45.81774" lon="4.66556">
        <ele>308.07657</ele>
        <time>2023-09-30T07:12:26.000Z</time>
      </trkpt>
      <trkpt lat="45.81771" lon="4.66553">
        <ele>308.2381</ele>
        <time>2023-09-30T07:12:27.000Z</time>
      </trkpt>
      <trkpt lat="45.81768" lon="4.66551">
        <ele>308.39227</ele>
        <time>2023-09-30T07:12:28.000Z</time>
      </trkpt>
      <trkpt lat="45.81765" lon="4.66548">
        <ele>308.55051</ele>
        <time>2023-09-30T07:12:29.000Z</time>
      </trkpt>
      <trkpt lat="45.81762" lon="4.66546">
        <ele>308.61581</ele>
        <time>2023-09-30T07:12:30.000Z</time>
      </trkpt>
      <trkpt lat="45.81759" lon="4.66544">
        <ele>308.65195</ele>
        <time>2023-09-30T07:12:31.000Z</time>
      </trkpt>
      <trkpt lat="45.81756" lon="4.66541">
        <ele>308.71075</ele>
        <time>2023-09-30T07:12:32.000Z</time>
      </trkpt>
      <trkpt lat="45.81753" lon="4.66539">
        <ele>308.81915</ele>
        <time>2023-09-30T07:12:33.000Z</time>
      </trkpt>
      <trkpt lat="45.8175" lon="4.66537">
        <ele>308.90894</ele>
        <time>2023-09-30T07:12:34.000Z</time>
      </trkpt>
      <trkpt lat="45.81747" lon="4.66534">
        <ele>309.01968</ele>
        <time>2023-09-30T07:12:35.000Z</time>
      </trkpt>
      <trkpt lat="45.81744" lon="4.66532">
        <ele>309.11993</ele>
        <time>2023-09-30T07:12:36.000Z</time>
      </trkpt>
      <trkpt lat="45.81741" lon="4.6653">
        <ele>309.21573</ele>
        <time>2023-09-30T07:12:37.000Z</time>
      </trkpt>
      <trkpt lat="45.81738" lon="4.66529">
        <ele>309.34763</ele>
        <time>2023-09-30T07:12:38.000Z</time>
      </trkpt>
      <trkpt lat="45.81735" lon="4.66528">
        <ele>309.52084</ele>
        <time>2023-09-30T07:12:39.000Z</time>
      </trkpt>
      <trkpt lat="45.81731" lon="4.66528">
        <ele>309.6666</ele>
        <time>2023-09-30T07:12:40.000Z</time>
      </trkpt>
      <trkpt lat="45.81728" lon="4.66528">
        <ele>309.79303</ele>
        <time>2023-09-30T07:12:41.000Z</time>
      </trkpt>
      <trkpt lat="45.81725" lon="4.6653">
        <ele>309.95682</ele>
        <time>2023-09-30T07:12:42.000Z</time>
      </trkpt>
      <trkpt lat="45.81722" lon="4.66531">
        <ele>310.11279</ele>
        <time>2023-09-30T07:12:43.000Z</time>
      </trkpt>
      <trkpt lat="45.81719" lon="4.66533">
        <ele>310.17575</ele>
        <time>2023-09-30T07:12:44.000Z</time>
      </trkpt>
      <trkpt lat="45.81716" lon="4.66534">
        <ele>310.25967</ele>
        <time>2023-09-30T07:12:45.000Z</time>
      </trkpt>
      <trkpt lat="45.81713" lon="4.66535">
        <ele>310.29926</ele>
        <time>2023-09-30T07:12:46.000Z</time>
      </trkpt>
      <trkpt lat="45.8171" lon="4.66537">
        <ele>310.33798</ele>
        <time>2023-09-30T07:12:47.000Z</time>
      </trkpt>
      <trkpt lat="45.81707" lon="4.66539">
        <ele>310.36401</ele>
        <time>2023-09-30T07:12:48.000Z</time>
      </trkpt>
      <trkpt lat="45.81705" lon="4.66542">
        <ele>310.36761</ele>
        <time>2023-09-30T07:12:49.000Z</time>
      </trkpt>
      <trkpt lat="45.81702" lon="4.66547">
        <ele>310.39093</ele>
        <time>2023-09-30T07:12:50.000Z</time>
      </trkpt>
      <trkpt lat="45.81701" lon="4.66552">
        <ele>310.52362</ele>
        <time>2023-09-30T07:12:51.000Z</time>
      </trkpt>
      <trkpt lat="45.81701" lon="4.66559">
        <ele>310.61813</ele>
        <time>2023-09-30T07:12:52.000Z</time>
      </trkpt>
      <trkpt lat="45.81701" lon="4.66565">
        <ele>310.69467</ele>
        <time>2023-09-30T07:12:53.000Z</time>
      </trkpt>
      <trkpt lat="45.817" lon="4.66573">
        <ele>310.76511</ele>
        <time>2023-09-30T07:12:54.000Z</time>
      </trkpt>
      <trkpt lat="45.81699" lon="4.66581">
        <ele>310.79608</ele>
        <time>2023-09-30T07:12:55.000Z</time>
      </trkpt>
      <trkpt lat="45.81698" lon="4.6659">
        <ele>310.79852</ele>
        <time>2023-09-30T07:12:56.000Z</time>
      </trkpt>
      <trkpt lat="45.81697" lon="4.666">
        <ele>310.7793</ele>
        <time>2023-09-30T07:12:57.000Z</time>
      </trkpt>
      <trkpt lat="45.81696" lon="4.6661">
        <ele>310.72443</ele>
        <time>2023-09-30T07:12:58.000Z</time>
      </trkpt>
      <trkpt lat="45.81696" lon="4.6662">
        <ele>310.62384</ele>
        <time>2023-09-30T07:12:59.000Z</time>
      </trkpt>
      <trkpt lat="45.81697" lon="4.66631">
        <ele>310.52362</ele>
        <time>2023-09-30T07:13:00.000Z</time>
      </trkpt>
      <trkpt lat="45.81697" lon="4.66641">
        <ele>310.4115</ele>
        <time>2023-09-30T07:13:01.000Z</time>
      </trkpt>
      <trkpt lat="45.81698" lon="4.66649">
        <ele>310.32779</ele>
        <time>2023-09-30T07:13:02.000Z</time>
      </trkpt>
      <trkpt lat="45.81698" lon="4.66657">
        <ele>310.23932</ele>
        <time>2023-09-30T07:13:03.000Z</time>
      </trkpt>
      <trkpt lat="45.81697" lon="4.66662">
        <ele>310.13928</ele>
        <time>2023-09-30T07:13:04.000Z</time>
      </trkpt>
      <trkpt lat="45.81694" lon="4.66666">
        <ele>310.01212</ele>
        <time>2023-09-30T07:13:05.000Z</time>
      </trkpt>
      <trkpt lat="45.81691" lon="4.66669">
        <ele>309.91898</ele>
        <time>2023-09-30T07:13:06.000Z</time>
      </trkpt>
      <trkpt lat="45.81688" lon="4.66672">
        <ele>309.81415</ele>
        <time>2023-09-30T07:13:07.000Z</time>
      </trkpt>
      <trkpt lat="45.81685" lon="4.66676">
        <ele>309.72632</ele>
        <time>2023-09-30T07:13:08.000Z</time>
      </trkpt>
      <trkpt lat="45.81681" lon="4.66678">
        <ele>309.6196</ele>
        <time>2023-09-30T07:13:09.000Z</time>
      </trkpt>
      <trkpt lat="45.81678" lon="4.66681">
        <ele>309.52386</ele>
        <time>2023-09-30T07:13:10.000Z</time>
      </trkpt>
      <trkpt lat="45.81674" lon="4.66683">
        <ele>309.31946</ele>
        <time>2023-09-30T07:13:11.000Z</time>
      </trkpt>
      <trkpt lat="45.8167" lon="4.66684">
        <ele>309.138</ele>
        <time>2023-09-30T07:13:12.000Z</time>
      </trkpt>
      <trkpt lat="45.81666" lon="4.66684">
        <ele>308.98029</ele>
        <time>2023-09-30T07:13:13.000Z</time>
      </trkpt>
      <trkpt lat="45.81662" lon="4.66684">
        <ele>308.8288</ele>
        <time>2023-09-30T07:13:14.000Z</time>
      </trkpt>
      <trkpt lat="45.81658" lon="4.66683">
        <ele>308.66312</ele>
        <time>2023-09-30T07:13:15.000Z</time>
      </trkpt>
      <trkpt lat="45.81655" lon="4.66683">
        <ele>308.53607</ele>
        <time>2023-09-30T07:13:16.000Z</time>
      </trkpt>
      <trkpt lat="45.81651" lon="4.66682">
        <ele>308.41913</ele>
        <time>2023-09-30T07:13:17.000Z</time>
      </trkpt>
      <trkpt lat="45.81647" lon="4.66682">
        <ele>308.31827</ele>
        <time>2023-09-30T07:13:18.000Z</time>
      </trkpt>
      <trkpt lat="45.81644" lon="4.66682">
        <ele>308.25421</ele>
        <time>2023-09-30T07:13:19.000Z</time>
      </trkpt>
      <trkpt lat="45.8164" lon="4.66681">
        <ele>308.26361</ele>
        <time>2023-09-30T07:13:20.000Z</time>
      </trkpt>
      <trkpt lat="45.81637" lon="4.66681">
        <ele>308.267</ele>
        <time>2023-09-30T07:13:21.000Z</time>
      </trkpt>
      <trkpt lat="45.81633" lon="4.66681">
        <ele>308.23969</ele>
        <time>2023-09-30T07:13:22.000Z</time>
      </trkpt>
      <trkpt lat="45.8163" lon="4.66681">
        <ele>308.23938</ele>
        <time>2023-09-30T07:13:23.000Z</time>
      </trkpt>
      <trkpt lat="45.81626" lon="4.66681">
        <ele>308.26642</ele>
        <time>2023-09-30T07:13:24.000Z</time>
      </trkpt>
      <trkpt lat="45.81623" lon="4.66681">
        <ele>308.31293</ele>
        <time>2023-09-30T07:13:25.000Z</time>
      </trkpt>
      <trkpt lat="45.81619" lon="4.66681">
        <ele>308.37009</ele>
        <time>2023-09-30T07:13:26.000Z</time>
      </trkpt>
      <trkpt lat="45.81615" lon="4.66681">
        <ele>308.46338</ele>
        <time>2023-09-30T07:13:27.000Z</time>
      </trkpt>
      <trkpt lat="45.81611" lon="4.66681">
        <ele>308.55005</ele>
        <time>2023-09-30T07:13:28.000Z</time>
      </trkpt>
      <trkpt lat="45.81608" lon="4.66682">
        <ele>308.67355</ele>
        <time>2023-09-30T07:13:29.000Z</time>
      </trkpt>
      <trkpt lat="45.81604" lon="4.66682">
        <ele>308.79688</ele>
        <time>2023-09-30T07:13:30.000Z</time>
      </trkpt>
      <trkpt lat="45.81601" lon="4.66682">
        <ele>308.92126</ele>
        <time>2023-09-30T07:13:31.000Z</time>
      </trkpt>
      <trkpt lat="45.81597" lon="4.66682">
        <ele>309.02435</ele>
        <time>2023-09-30T07:13:32.000Z</time>
      </trkpt>
      <trkpt lat="45.81593" lon="4.66683">
        <ele>309.1048</ele>
        <time>2023-09-30T07:13:33.000Z</time>
      </trkpt>
      <trkpt lat="45.8159" lon="4.66684">
        <ele>309.20566</ele>
        <time>2023-09-30T07:13:34.000Z</time>
      </trkpt>
      <trkpt lat="45.81586" lon="4.66684">
        <ele>309.32837</ele>
        <time>2023-09-30T07:13:35.000Z</time>
      </trkpt>
      <trkpt lat="45.81583" lon="4.66685">
        <ele>309.43442</ele>
        <time>2023-09-30T07:13:36.000Z</time>
      </trkpt>
      <trkpt lat="45.8158" lon="4.66685">
        <ele>309.49182</ele>
        <time>2023-09-30T07:13:37.000Z</time>
      </trkpt>
      <trkpt lat="45.81576" lon="4.66685">
        <ele>309.57526</ele>
        <time>2023-09-30T07:13:38.000Z</time>
      </trkpt>
      <trkpt lat="45.81574" lon="4.66685">
        <ele>309.6651</ele>
        <time>2023-09-30T07:13:39.000Z</time>
      </trkpt>
      <trkpt lat="45.8157" lon="4.66686">
        <ele>309.66586</ele>
        <time>2023-09-30T07:13:40.000Z</time>
      </trkpt>
      <trkpt lat="45.81568" lon="4.66686">
        <ele>309.78589</ele>
        <time>2023-09-30T07:13:41.000Z</time>
      </trkpt>
      <trkpt lat="45.81565" lon="4.66686">
        <ele>309.92188</ele>
        <time>2023-09-30T07:13:42.000Z</time>
      </trkpt>
      <trkpt lat="45.81562" lon="4.66686">
        <ele>310.04922</ele>
        <time>2023-09-30T07:13:43.000Z</time>
      </trkpt>
      <trkpt lat="45.81559" lon="4.66687">
        <ele>310.17917</ele>
        <time>2023-09-30T07:13:44.000Z</time>
      </trkpt>
      <trkpt lat="45.81556" lon="4.66687">
        <ele>310.29031</ele>
        <time>2023-09-30T07:13:45.000Z</time>
      </trkpt>
      <trkpt lat="45.81553" lon="4.66688">
        <ele>310.39874</ele>
        <time>2023-09-30T07:13:46.000Z</time>
      </trkpt>
      <trkpt lat="45.81551" lon="4.66688">
        <ele>310.49661</ele>
        <time>2023-09-30T07:13:47.000Z</time>
      </trkpt>
      <trkpt lat="45.81548" lon="4.66688">
        <ele>310.61441</ele>
        <time>2023-09-30T07:13:48.000Z</time>
      </trkpt>
      <trkpt lat="45.81545" lon="4.66689">
        <ele>310.74219</ele>
        <time>2023-09-30T07:13:49.000Z</time>
      </trkpt>
      <trkpt lat="45.81542" lon="4.66689">
        <ele>310.88437</ele>
        <time>2023-09-30T07:13:50.000Z</time>
      </trkpt>
      <trkpt lat="45.8154" lon="4.66689">
        <ele>311.02866</ele>
        <time>2023-09-30T07:13:51.000Z</time>
      </trkpt>
      <trkpt lat="45.81537" lon="4.66689">
        <ele>311.19147</ele>
        <time>2023-09-30T07:13:52.000Z</time>
      </trkpt>
      <trkpt lat="45.81534" lon="4.6669">
        <ele>311.34344</ele>
        <time>2023-09-30T07:13:53.000Z</time>
      </trkpt>
      <trkpt lat="45.81532" lon="4.6669">
        <ele>311.48215</ele>
        <time>2023-09-30T07:13:54.000Z</time>
      </trkpt>
      <trkpt lat="45.81529" lon="4.6669">
        <ele>311.62234</ele>
        <time>2023-09-30T07:13:55.000Z</time>
      </trkpt>
      <trkpt lat="45.81527" lon="4.6669">
        <ele>311.77277</ele>
        <time>2023-09-30T07:13:56.000Z</time>
      </trkpt>
      <trkpt lat="45.81524" lon="4.6669">
        <ele>311.98505</ele>
        <time>2023-09-30T07:13:57.000Z</time>
      </trkpt>
      <trkpt lat="45.81522" lon="4.6669">
        <ele>312.1778</ele>
        <time>2023-09-30T07:13:58.000Z</time>
      </trkpt>
      <trkpt lat="45.8152" lon="4.6669">
        <ele>312.39069</ele>
        <time>2023-09-30T07:13:59.000Z</time>
      </trkpt>
      <trkpt lat="45.81517" lon="4.6669">
        <ele>312.56342</ele>
        <time>2023-09-30T07:14:00.000Z</time>
      </trkpt>
      <trkpt lat="45.81515" lon="4.66689">
        <ele>312.62451</ele>
        <time>2023-09-30T07:14:01.000Z</time>
      </trkpt>
      <trkpt lat="45.81513" lon="4.66688">
        <ele>312.69263</ele>
        <time>2023-09-30T07:14:02.000Z</time>
      </trkpt>
      <trkpt lat="45.8151" lon="4.66687">
        <ele>312.76297</ele>
        <time>2023-09-30T07:14:03.000Z</time>
      </trkpt>
      <trkpt lat="45.81508" lon="4.66686">
        <ele>312.81744</ele>
        <time>2023-09-30T07:14:04.000Z</time>
      </trkpt>
      <trkpt lat="45.81505" lon="4.66686">
        <ele>312.85318</ele>
        <time>2023-09-30T07:14:05.000Z</time>
      </trkpt>
      <trkpt lat="45.81502" lon="4.66685">
        <ele>312.88538</ele>
        <time>2023-09-30T07:14:06.000Z</time>
      </trkpt>
      <trkpt lat="45.815" lon="4.66685">
        <ele>313.04327</ele>
        <time>2023-09-30T07:14:07.000Z</time>
      </trkpt>
      <trkpt lat="45.81497" lon="4.66685">
        <ele>313.1879</ele>
        <time>2023-09-30T07:14:08.000Z</time>
      </trkpt>
      <trkpt lat="45.81495" lon="4.66685">
        <ele>313.3371</ele>
        <time>2023-09-30T07:14:09.000Z</time>
      </trkpt>
      <trkpt lat="45.81493" lon="4.66684">
        <ele>313.46466</ele>
        <time>2023-09-30T07:14:10.000Z</time>
      </trkpt>
      <trkpt lat="45.8149" lon="4.66684">
        <ele>313.58209</ele>
        <time>2023-09-30T07:14:11.000Z</time>
      </trkpt>
      <trkpt lat="45.81488" lon="4.66683">
        <ele>313.73611</ele>
        <time>2023-09-30T07:14:12.000Z</time>
      </trkpt>
      <trkpt lat="45.81486" lon="4.66683">
        <ele>313.80255</ele>
        <time>2023-09-30T07:14:13.000Z</time>
      </trkpt>
      <trkpt lat="45.81483" lon="4.66682">
        <ele>313.86469</ele>
        <time>2023-09-30T07:14:14.000Z</time>
      </trkpt>
      <trkpt lat="45.81481" lon="4.66682">
        <ele>313.94095</ele>
        <time>2023-09-30T07:14:15.000Z</time>
      </trkpt>
      <trkpt lat="45.81479" lon="4.66681">
        <ele>314.00385</ele>
        <time>2023-09-30T07:14:16.000Z</time>
      </trkpt>
      <trkpt lat="45.81477" lon="4.66681">
        <ele>314.18967</ele>
        <time>2023-09-30T07:14:17.000Z</time>
      </trkpt>
      <trkpt lat="45.81475" lon="4.66681">
        <ele>314.38104</ele>
        <time>2023-09-30T07:14:18.000Z</time>
      </trkpt>
      <trkpt lat="45.81472" lon="4.6668">
        <ele>314.55585</ele>
        <time>2023-09-30T07:14:19.000Z</time>
      </trkpt>
      <trkpt lat="45.8147" lon="4.6668">
        <ele>314.78595</ele>
        <time>2023-09-30T07:14:20.000Z</time>
      </trkpt>
      <trkpt lat="45.81467" lon="4.6668">
        <ele>315.03043</ele>
        <time>2023-09-30T07:14:21.000Z</time>
      </trkpt>
      <trkpt lat="45.81465" lon="4.66679">
        <ele>315.26797</ele>
        <time>2023-09-30T07:14:22.000Z</time>
      </trkpt>
      <trkpt lat="45.81462" lon="4.66679">
        <ele>315.51447</ele>
        <time>2023-09-30T07:14:23.000Z</time>
      </trkpt>
      <trkpt lat="45.8146" lon="4.66679">
        <ele>315.77191</ele>
        <time>2023-09-30T07:14:24.000Z</time>
      </trkpt>
      <trkpt lat="45.81457" lon="4.66678">
        <ele>316.05334</ele>
        <time>2023-09-30T07:14:25.000Z</time>
      </trkpt>
      <trkpt lat="45.81455" lon="4.66678">
        <ele>316.3284</ele>
        <time>2023-09-30T07:14:26.000Z</time>
      </trkpt>
      <trkpt lat="45.81452" lon="4.66677">
        <ele>316.48254</ele>
        <time>2023-09-30T07:14:27.000Z</time>
      </trkpt>
      <trkpt lat="45.8145" lon="4.66677">
        <ele>316.64035</ele>
        <time>2023-09-30T07:14:28.000Z</time>
      </trkpt>
      <trkpt lat="45.81447" lon="4.66677">
        <ele>316.78143</ele>
        <time>2023-09-30T07:14:29.000Z</time>
      </trkpt>
      <trkpt lat="45.81445" lon="4.66677">
        <ele>316.92453</ele>
        <time>2023-09-30T07:14:30.000Z</time>
      </trkpt>
      <trkpt lat="45.81442" lon="4.66676">
        <ele>317.07608</ele>
        <time>2023-09-30T07:14:31.000Z</time>
      </trkpt>
      <trkpt lat="45.81439" lon="4.66676">
        <ele>317.19531</ele>
        <time>2023-09-30T07:14:32.000Z</time>
      </trkpt>
      <trkpt lat="45.81436" lon="4.66675">
        <ele>317.42627</ele>
        <time>2023-09-30T07:14:33.000Z</time>
      </trkpt>
      <trkpt lat="45.81434" lon="4.66675">
        <ele>317.67401</ele>
        <time>2023-09-30T07:14:34.000Z</time>
      </trkpt>
      <trkpt lat="45.81431" lon="4.66674">
        <ele>317.93051</ele>
        <time>2023-09-30T07:14:35.000Z</time>
      </trkpt>
      <trkpt lat="45.81428" lon="4.66673">
        <ele>318.20197</ele>
        <time>2023-09-30T07:14:36.000Z</time>
      </trkpt>
      <trkpt lat="45.81425" lon="4.66673">
        <ele>318.34808</ele>
        <time>2023-09-30T07:14:37.000Z</time>
      </trkpt>
      <trkpt lat="45.81422" lon="4.66672">
        <ele>318.50375</ele>
        <time>2023-09-30T07:14:38.000Z</time>
      </trkpt>
      <trkpt lat="45.8142" lon="4.66671">
        <ele>318.66959</ele>
        <time>2023-09-30T07:14:39.000Z</time>
      </trkpt>
      <trkpt lat="45.81417" lon="4.66669">
        <ele>318.85049</ele>
        <time>2023-09-30T07:14:40.000Z</time>
      </trkpt>
      <trkpt lat="45.81414" lon="4.66666">
        <ele>319.03363</ele>
        <time>2023-09-30T07:14:41.000Z</time>
      </trkpt>
      <trkpt lat="45.81411" lon="4.66664">
        <ele>319.2049</ele>
        <time>2023-09-30T07:14:42.000Z</time>
      </trkpt>
      <trkpt lat="45.81408" lon="4.66661">
        <ele>319.38858</ele>
        <time>2023-09-30T07:14:43.000Z</time>
      </trkpt>
      <trkpt lat="45.81404" lon="4.66659">
        <ele>319.57028</ele>
        <time>2023-09-30T07:14:44.000Z</time>
      </trkpt>
      <trkpt lat="45.81401" lon="4.66657">
        <ele>319.73886</ele>
        <time>2023-09-30T07:14:45.000Z</time>
      </trkpt>
      <trkpt lat="45.81397" lon="4.66655">
        <ele>319.91193</ele>
        <time>2023-09-30T07:14:46.000Z</time>
      </trkpt>
      <trkpt lat="45.81394" lon="4.66653">
        <ele>320.05484</ele>
        <time>2023-09-30T07:14:47.000Z</time>
      </trkpt>
      <trkpt lat="45.8139" lon="4.66652">
        <ele>320.20569</ele>
        <time>2023-09-30T07:14:48.000Z</time>
      </trkpt>
      <trkpt lat="45.81387" lon="4.66652">
        <ele>320.35016</ele>
        <time>2023-09-30T07:14:49.000Z</time>
      </trkpt>
      <trkpt lat="45.81383" lon="4.66651">
        <ele>320.49588</ele>
        <time>2023-09-30T07:14:50.000Z</time>
      </trkpt>
      <trkpt lat="45.8138" lon="4.66651">
        <ele>320.63354</ele>
        <time>2023-09-30T07:14:51.000Z</time>
      </trkpt>
      <trkpt lat="45.81376" lon="4.66651">
        <ele>320.78207</ele>
        <time>2023-09-30T07:14:52.000Z</time>
      </trkpt>
      <trkpt lat="45.81373" lon="4.66651">
        <ele>320.92487</ele>
        <time>2023-09-30T07:14:53.000Z</time>
      </trkpt>
      <trkpt lat="45.81369" lon="4.6665">
        <ele>321.03766</ele>
        <time>2023-09-30T07:14:54.000Z</time>
      </trkpt>
      <trkpt lat="45.81366" lon="4.66649">
        <ele>321.13049</ele>
        <time>2023-09-30T07:14:55.000Z</time>
      </trkpt>
      <trkpt lat="45.81362" lon="4.66648">
        <ele>321.21149</ele>
        <time>2023-09-30T07:14:56.000Z</time>
      </trkpt>
      <trkpt lat="45.81359" lon="4.66648">
        <ele>321.29825</ele>
        <time>2023-09-30T07:14:57.000Z</time>
      </trkpt>
      <trkpt lat="45.81356" lon="4.66648">
        <ele>321.3775</ele>
        <time>2023-09-30T07:14:58.000Z</time>
      </trkpt>
      <trkpt lat="45.81352" lon="4.66647">
        <ele>321.45062</ele>
        <time>2023-09-30T07:14:59.000Z</time>
      </trkpt>
      <trkpt lat="45.81349" lon="4.66645">
        <ele>321.45007</ele>
        <time>2023-09-30T07:15:00.000Z</time>
      </trkpt>
      <trkpt lat="45.81346" lon="4.66643">
        <ele>321.4487</ele>
        <time>2023-09-30T07:15:01.000Z</time>
      </trkpt>
      <trkpt lat="45.81342" lon="4.66642">
        <ele>321.44513</ele>
        <time>2023-09-30T07:15:02.000Z</time>
      </trkpt>
      <trkpt lat="45.81339" lon="4.66642">
        <ele>321.44824</ele>
        <time>2023-09-30T07:15:03.000Z</time>
      </trkpt>
      <trkpt lat="45.81336" lon="4.66646">
        <ele>321.46417</ele>
        <time>2023-09-30T07:15:04.000Z</time>
      </trkpt>
      <trkpt lat="45.81335" lon="4.66651">
        <ele>321.51501</ele>
        <time>2023-09-30T07:15:05.000Z</time>
      </trkpt>
      <trkpt lat="45.81334" lon="4.66658">
        <ele>321.57239</ele>
        <time>2023-09-30T07:15:06.000Z</time>
      </trkpt>
      <trkpt lat="45.81334" lon="4.66664">
        <ele>321.67377</ele>
        <time>2023-09-30T07:15:07.000Z</time>
      </trkpt>
      <trkpt lat="45.81333" lon="4.6667">
        <ele>321.7944</ele>
        <time>2023-09-30T07:15:08.000Z</time>
      </trkpt>
      <trkpt lat="45.81333" lon="4.66676">
        <ele>321.83615</ele>
        <time>2023-09-30T07:15:09.000Z</time>
      </trkpt>
      <trkpt lat="45.81333" lon="4.66682">
        <ele>321.86487</ele>
        <time>2023-09-30T07:15:10.000Z</time>
      </trkpt>
      <trkpt lat="45.81332" lon="4.66687">
        <ele>321.92273</ele>
        <time>2023-09-30T07:15:11.000Z</time>
      </trkpt>
      <trkpt lat="45.81331" lon="4.66693">
        <ele>321.96756</ele>
        <time>2023-09-30T07:15:12.000Z</time>
      </trkpt>
      <trkpt lat="45.81331" lon="4.66698">
        <ele>322.00739</ele>
        <time>2023-09-30T07:15:13.000Z</time>
      </trkpt>
      <trkpt lat="45.8133" lon="4.66703">
        <ele>322.07614</ele>
        <time>2023-09-30T07:15:14.000Z</time>
      </trkpt>
      <trkpt lat="45.8133" lon="4.66708">
        <ele>322.16696</ele>
        <time>2023-09-30T07:15:15.000Z</time>
      </trkpt>
      <trkpt lat="45.81329" lon="4.66713">
        <ele>322.27325</ele>
        <time>2023-09-30T07:15:16.000Z</time>
      </trkpt>
      <trkpt lat="45.81329" lon="4.66718">
        <ele>322.36121</ele>
        <time>2023-09-30T07:15:17.000Z</time>
      </trkpt>
      <trkpt lat="45.81328" lon="4.66723">
        <ele>322.46967</ele>
        <time>2023-09-30T07:15:18.000Z</time>
      </trkpt>
      <trkpt lat="45.81328" lon="4.66728">
        <ele>322.58865</ele>
        <time>2023-09-30T07:15:19.000Z</time>
      </trkpt>
      <trkpt lat="45.81327" lon="4.66733">
        <ele>323.03445</ele>
        <time>2023-09-30T07:15:20.000Z</time>
      </trkpt>
      <trkpt lat="45.81326" lon="4.66737">
        <ele>323.40454</ele>
        <time>2023-09-30T07:15:21.000Z</time>
      </trkpt>
      <trkpt lat="45.81324" lon="4.6674">
        <ele>323.80011</ele>
        <time>2023-09-30T07:15:22.000Z</time>
      </trkpt>
      <trkpt lat="45.81322" lon="4.66742">
        <ele>324.17807</ele>
        <time>2023-09-30T07:15:23.000Z</time>
      </trkpt>
      <trkpt lat="45.81318" lon="4.66742">
        <ele>324.5444</ele>
        <time>2023-09-30T07:15:24.000Z</time>
      </trkpt>
      <trkpt lat="45.81314" lon="4.66741">
        <ele>324.8627</ele>
        <time>2023-09-30T07:15:25.000Z</time>
      </trkpt>
      <trkpt lat="45.81311" lon="4.66739">
        <ele>325.16742</ele>
        <time>2023-09-30T07:15:26.000Z</time>
      </trkpt>
      <trkpt lat="45.81307" lon="4.66737">
        <ele>325.42798</ele>
        <time>2023-09-30T07:15:27.000Z</time>
      </trkpt>
      <trkpt lat="45.81303" lon="4.66736">
        <ele>325.6806</ele>
        <time>2023-09-30T07:15:28.000Z</time>
      </trkpt>
      <trkpt lat="45.813" lon="4.66734">
        <ele>326.00339</ele>
        <time>2023-09-30T07:15:29.000Z</time>
      </trkpt>
      <trkpt lat="45.81296" lon="4.66732">
        <ele>326.12775</ele>
        <time>2023-09-30T07:15:30.000Z</time>
      </trkpt>
      <trkpt lat="45.81292" lon="4.6673">
        <ele>326.20245</ele>
        <time>2023-09-30T07:15:31.000Z</time>
      </trkpt>
      <trkpt lat="45.81288" lon="4.66729">
        <ele>326.20901</ele>
        <time>2023-09-30T07:15:32.000Z</time>
      </trkpt>
      <trkpt lat="45.81284" lon="4.66728">
        <ele>326.5386</ele>
        <time>2023-09-30T07:15:33.000Z</time>
      </trkpt>
      <trkpt lat="45.8128" lon="4.66726">
        <ele>326.80389</ele>
        <time>2023-09-30T07:15:34.000Z</time>
      </trkpt>
      <trkpt lat="45.81276" lon="4.66725">
        <ele>327.06509</ele>
        <time>2023-09-30T07:15:35.000Z</time>
      </trkpt>
      <trkpt lat="45.81272" lon="4.66723">
        <ele>327.29498</ele>
        <time>2023-09-30T07:15:36.000Z</time>
      </trkpt>
      <trkpt lat="45.81267" lon="4.66721">
        <ele>327.55115</ele>
        <time>2023-09-30T07:15:37.000Z</time>
      </trkpt>
      <trkpt lat="45.81263" lon="4.66719">
        <ele>327.79178</ele>
        <time>2023-09-30T07:15:38.000Z</time>
      </trkpt>
      <trkpt lat="45.81259" lon="4.66718">
        <ele>328.01044</ele>
        <time>2023-09-30T07:15:39.000Z</time>
      </trkpt>
      <trkpt lat="45.81254" lon="4.66717">
        <ele>327.94864</ele>
        <time>2023-09-30T07:15:40.000Z</time>
      </trkpt>
      <trkpt lat="45.8125" lon="4.66715">
        <ele>327.96225</ele>
        <time>2023-09-30T07:15:41.000Z</time>
      </trkpt>
      <trkpt lat="45.81246" lon="4.66713">
        <ele>327.9675</ele>
        <time>2023-09-30T07:15:42.000Z</time>
      </trkpt>
      <trkpt lat="45.81242" lon="4.66711">
        <ele>327.97638</ele>
        <time>2023-09-30T07:15:43.000Z</time>
      </trkpt>
      <trkpt lat="45.81237" lon="4.66709">
        <ele>328.0004</ele>
        <time>2023-09-30T07:15:44.000Z</time>
      </trkpt>
      <trkpt lat="45.81233" lon="4.66707">
        <ele>328.06784</ele>
        <time>2023-09-30T07:15:45.000Z</time>
      </trkpt>
      <trkpt lat="45.8123" lon="4.66705">
        <ele>328.14081</ele>
        <time>2023-09-30T07:15:46.000Z</time>
      </trkpt>
      <trkpt lat="45.81226" lon="4.66703">
        <ele>328.22958</ele>
        <time>2023-09-30T07:15:47.000Z</time>
      </trkpt>
      <trkpt lat="45.81223" lon="4.66704">
        <ele>328.29733</ele>
        <time>2023-09-30T07:15:48.000Z</time>
      </trkpt>
      <trkpt lat="45.8122" lon="4.66702">
        <ele>328.15982</ele>
        <time>2023-09-30T07:15:51.000Z</time>
      </trkpt>
      <trkpt lat="45.81217" lon="4.667">
        <ele>328.1723</ele>
        <time>2023-09-30T07:15:52.000Z</time>
      </trkpt>
      <trkpt lat="45.81215" lon="4.66699">
        <ele>328.20236</ele>
        <time>2023-09-30T07:15:53.000Z</time>
      </trkpt>
      <trkpt lat="45.81212" lon="4.66697">
        <ele>328.59668</ele>
        <time>2023-09-30T07:15:54.000Z</time>
      </trkpt>
      <trkpt lat="45.81208" lon="4.66697">
        <ele>328.5965</ele>
        <time>2023-09-30T07:15:55.000Z</time>
      </trkpt>
      <trkpt lat="45.81205" lon="4.66696">
        <ele>328.65451</ele>
        <time>2023-09-30T07:15:56.000Z</time>
      </trkpt>
      <trkpt lat="45.81201" lon="4.66695">
        <ele>328.70795</ele>
        <time>2023-09-30T07:15:57.000Z</time>
      </trkpt>
      <trkpt lat="45.81198" lon="4.66694">
        <ele>328.78482</ele>
        <time>2023-09-30T07:15:58.000Z</time>
      </trkpt>
      <trkpt lat="45.81194" lon="4.66693">
        <ele>328.83633</ele>
        <time>2023-09-30T07:15:59.000Z</time>
      </trkpt>
      <trkpt lat="45.8119" lon="4.66691">
        <ele>328.92206</ele>
        <time>2023-09-30T07:16:00.000Z</time>
      </trkpt>
      <trkpt lat="45.81187" lon="4.6669">
        <ele>328.99933</ele>
        <time>2023-09-30T07:16:01.000Z</time>
      </trkpt>
      <trkpt lat="45.81183" lon="4.66688">
        <ele>329.08139</ele>
        <time>2023-09-30T07:16:02.000Z</time>
      </trkpt>
      <trkpt lat="45.8118" lon="4.66686">
        <ele>329.16779</ele>
        <time>2023-09-30T07:16:03.000Z</time>
      </trkpt>
      <trkpt lat="45.81176" lon="4.66684">
        <ele>329.22858</ele>
        <time>2023-09-30T07:16:04.000Z</time>
      </trkpt>
      <trkpt lat="45.81173" lon="4.66683">
        <ele>329.06436</ele>
        <time>2023-09-30T07:16:05.000Z</time>
      </trkpt>
      <trkpt lat="45.81169" lon="4.66682">
        <ele>328.81567</ele>
        <time>2023-09-30T07:16:06.000Z</time>
      </trkpt>
      <trkpt lat="45.81165" lon="4.66681">
        <ele>328.55313</ele>
        <time>2023-09-30T07:16:07.000Z</time>
      </trkpt>
      <trkpt lat="45.81162" lon="4.6668">
        <ele>328.30905</ele>
        <time>2023-09-30T07:16:08.000Z</time>
      </trkpt>
      <trkpt lat="45.81158" lon="4.66679">
        <ele>328.07391</ele>
        <time>2023-09-30T07:16:09.000Z</time>
      </trkpt>
      <trkpt lat="45.81155" lon="4.66678">
        <ele>327.84302</ele>
        <time>2023-09-30T07:16:10.000Z</time>
      </trkpt>
      <trkpt lat="45.81152" lon="4.66677">
        <ele>328.21262</ele>
        <time>2023-09-30T07:16:11.000Z</time>
      </trkpt>
      <trkpt lat="45.81148" lon="4.66676">
        <ele>328.60144</ele>
        <time>2023-09-30T07:16:12.000Z</time>
      </trkpt>
      <trkpt lat="45.81145" lon="4.66674">
        <ele>329.00012</ele>
        <time>2023-09-30T07:16:13.000Z</time>
      </trkpt>
      <trkpt lat="45.81141" lon="4.66673">
        <ele>329.07471</ele>
        <time>2023-09-30T07:16:14.000Z</time>
      </trkpt>
      <trkpt lat="45.81137" lon="4.66672">
        <ele>329.22723</ele>
        <time>2023-09-30T07:16:15.000Z</time>
      </trkpt>
      <trkpt lat="45.81134" lon="4.6667">
        <ele>329.35498</ele>
        <time>2023-09-30T07:16:16.000Z</time>
      </trkpt>
      <trkpt lat="45.81131" lon="4.66669">
        <ele>329.4859</ele>
        <time>2023-09-30T07:16:17.000Z</time>
      </trkpt>
      <trkpt lat="45.81127" lon="4.66668">
        <ele>329.62518</ele>
        <time>2023-09-30T07:16:18.000Z</time>
      </trkpt>
      <trkpt lat="45.81124" lon="4.66667">
        <ele>329.79132</ele>
        <time>2023-09-30T07:16:19.000Z</time>
      </trkpt>
      <trkpt lat="45.81121" lon="4.66665">
        <ele>329.92679</ele>
        <time>2023-09-30T07:16:20.000Z</time>
      </trkpt>
      <trkpt lat="45.81117" lon="4.66664">
        <ele>330.06433</ele>
        <time>2023-09-30T07:16:21.000Z</time>
      </trkpt>
      <trkpt lat="45.81114" lon="4.66662">
        <ele>330.20395</ele>
        <time>2023-09-30T07:16:22.000Z</time>
      </trkpt>
      <trkpt lat="45.81111" lon="4.6666">
        <ele>330.3244</ele>
        <time>2023-09-30T07:16:23.000Z</time>
      </trkpt>
      <trkpt lat="45.81109" lon="4.66662">
        <ele>330.43692</ele>
        <time>2023-09-30T07:16:39.000Z</time>
      </trkpt>
      <trkpt lat="45.81107" lon="4.66662">
        <ele>330.75018</ele>
        <time>2023-09-30T07:16:40.000Z</time>
      </trkpt>
      <trkpt lat="45.81104" lon="4.66662">
        <ele>331.11996</ele>
        <time>2023-09-30T07:16:41.000Z</time>
      </trkpt>
      <trkpt lat="45.81102" lon="4.66661">
        <ele>331.51816</ele>
        <time>2023-09-30T07:16:42.000Z</time>
      </trkpt>
      <trkpt lat="45.81099" lon="4.66659">
        <ele>331.90533</ele>
        <time>2023-09-30T07:16:44.000Z</time>
      </trkpt>
      <trkpt lat="45.81097" lon="4.66658">
        <ele>332.28726</ele>
        <time>2023-09-30T07:16:45.000Z</time>
      </trkpt>
      <trkpt lat="45.81095" lon="4.66657">
        <ele>332.63617</ele>
        <time>2023-09-30T07:16:46.000Z</time>
      </trkpt>
      <trkpt lat="45.81092" lon="4.66656">
        <ele>332.60052</ele>
        <time>2023-09-30T07:16:47.000Z</time>
      </trkpt>
      <trkpt lat="45.8109" lon="4.66654">
        <ele>332.61203</ele>
        <time>2023-09-30T07:16:48.000Z</time>
      </trkpt>
      <trkpt lat="45.81087" lon="4.66653">
        <ele>332.64096</ele>
        <time>2023-09-30T07:16:49.000Z</time>
      </trkpt>
      <trkpt lat="45.81084" lon="4.66652">
        <ele>332.70764</ele>
        <time>2023-09-30T07:16:50.000Z</time>
      </trkpt>
      <trkpt lat="45.81081" lon="4.66651">
        <ele>332.77536</ele>
        <time>2023-09-30T07:16:51.000Z</time>
      </trkpt>
      <trkpt lat="45.81078" lon="4.6665">
        <ele>332.83759</ele>
        <time>2023-09-30T07:16:52.000Z</time>
      </trkpt>
      <trkpt lat="45.81075" lon="4.66649">
        <ele>332.88947</ele>
        <time>2023-09-30T07:16:53.000Z</time>
      </trkpt>
      <trkpt lat="45.81072" lon="4.66649">
        <ele>332.91312</ele>
        <time>2023-09-30T07:16:54.000Z</time>
      </trkpt>
      <trkpt lat="45.81068" lon="4.66648">
        <ele>332.94147</ele>
        <time>2023-09-30T07:16:55.000Z</time>
      </trkpt>
      <trkpt lat="45.81065" lon="4.66648">
        <ele>332.9751</ele>
        <time>2023-09-30T07:16:56.000Z</time>
      </trkpt>
      <trkpt lat="45.81062" lon="4.66647">
        <ele>333.02985</ele>
        <time>2023-09-30T07:16:57.000Z</time>
      </trkpt>
      <trkpt lat="45.81059" lon="4.66647">
        <ele>333.08911</ele>
        <time>2023-09-30T07:16:58.000Z</time>
      </trkpt>
      <trkpt lat="45.81056" lon="4.66648">
        <ele>333.16846</ele>
        <time>2023-09-30T07:16:59.000Z</time>
      </trkpt>
      <trkpt lat="45.81052" lon="4.66649">
        <ele>333.28745</ele>
        <time>2023-09-30T07:17:00.000Z</time>
      </trkpt>
      <trkpt lat="45.81049" lon="4.66651">
        <ele>333.40012</ele>
        <time>2023-09-30T07:17:01.000Z</time>
      </trkpt>
      <trkpt lat="45.81045" lon="4.66653">
        <ele>333.51151</ele>
        <time>2023-09-30T07:17:02.000Z</time>
      </trkpt>
      <trkpt lat="45.81042" lon="4.66654">
        <ele>333.60596</ele>
        <time>2023-09-30T07:17:03.000Z</time>
      </trkpt>
      <trkpt lat="45.81039" lon="4.66654">
        <ele>333.69272</ele>
        <time>2023-09-30T07:17:04.000Z</time>
      </trkpt>
      <trkpt lat="45.81035" lon="4.66654">
        <ele>333.7984</ele>
        <time>2023-09-30T07:17:05.000Z</time>
      </trkpt>
      <trkpt lat="45.81032" lon="4.66653">
        <ele>333.93933</ele>
        <time>2023-09-30T07:17:06.000Z</time>
      </trkpt>
      <trkpt lat="45.81028" lon="4.66653">
        <ele>334.12152</ele>
        <time>2023-09-30T07:17:07.000Z</time>
      </trkpt>
      <trkpt lat="45.81025" lon="4.66653">
        <ele>334.3031</ele>
        <time>2023-09-30T07:17:08.000Z</time>
      </trkpt>
      <trkpt lat="45.81021" lon="4.66653">
        <ele>334.58856</ele>
        <time>2023-09-30T07:17:09.000Z</time>
      </trkpt>
      <trkpt lat="45.81017" lon="4.66653">
        <ele>334.86127</ele>
        <time>2023-09-30T07:17:10.000Z</time>
      </trkpt>
      <trkpt lat="45.81014" lon="4.66653">
        <ele>335.13962</ele>
        <time>2023-09-30T07:17:11.000Z</time>
      </trkpt>
      <trkpt lat="45.8101" lon="4.66653">
        <ele>335.4411</ele>
        <time>2023-09-30T07:17:12.000Z</time>
      </trkpt>
      <trkpt lat="45.81006" lon="4.66653">
        <ele>335.72186</ele>
        <time>2023-09-30T07:17:13.000Z</time>
      </trkpt>
      <trkpt lat="45.81003" lon="4.66654">
        <ele>335.87015</ele>
        <time>2023-09-30T07:17:14.000Z</time>
      </trkpt>
      <trkpt lat="45.80999" lon="4.66655">
        <ele>335.97925</ele>
        <time>2023-09-30T07:17:15.000Z</time>
      </trkpt>
      <trkpt lat="45.80995" lon="4.66655">
        <ele>335.99982</ele>
        <time>2023-09-30T07:17:16.000Z</time>
      </trkpt>
      <trkpt lat="45.80992" lon="4.66655">
        <ele>336.37555</ele>
        <time>2023-09-30T07:17:17.000Z</time>
      </trkpt>
      <trkpt lat="45.80988" lon="4.66656">
        <ele>336.68274</ele>
        <time>2023-09-30T07:17:18.000Z</time>
      </trkpt>
      <trkpt lat="45.80984" lon="4.66656">
        <ele>337.01874</ele>
        <time>2023-09-30T07:17:19.000Z</time>
      </trkpt>
      <trkpt lat="45.8098" lon="4.66656">
        <ele>337.36285</ele>
        <time>2023-09-30T07:17:20.000Z</time>
      </trkpt>
      <trkpt lat="45.80977" lon="4.66656">
        <ele>337.73441</ele>
        <time>2023-09-30T07:17:21.000Z</time>
      </trkpt>
      <trkpt lat="45.80973" lon="4.66656">
        <ele>338.12277</ele>
        <time>2023-09-30T07:17:22.000Z</time>
      </trkpt>
      <trkpt lat="45.80969" lon="4.66656">
        <ele>338.53635</ele>
        <time>2023-09-30T07:17:23.000Z</time>
      </trkpt>
      <trkpt lat="45.80965" lon="4.66656">
        <ele>338.92038</ele>
        <time>2023-09-30T07:17:24.000Z</time>
      </trkpt>
      <trkpt lat="45.80961" lon="4.66656">
        <ele>339.17685</ele>
        <time>2023-09-30T07:17:25.000Z</time>
      </trkpt>
      <trkpt lat="45.80957" lon="4.66656">
        <ele>339.45798</ele>
        <time>2023-09-30T07:17:26.000Z</time>
      </trkpt>
      <trkpt lat="45.80954" lon="4.66656">
        <ele>339.72357</ele>
        <time>2023-09-30T07:17:27.000Z</time>
      </trkpt>
      <trkpt lat="45.8095" lon="4.66656">
        <ele>339.79535</ele>
        <time>2023-09-30T07:17:28.000Z</time>
      </trkpt>
      <trkpt lat="45.80946" lon="4.66655">
        <ele>339.60574</ele>
        <time>2023-09-30T07:17:29.000Z</time>
      </trkpt>
      <trkpt lat="45.80943" lon="4.66655">
        <ele>339.41656</ele>
        <time>2023-09-30T07:17:30.000Z</time>
      </trkpt>
      <trkpt lat="45.80939" lon="4.66655">
        <ele>339.67627</ele>
        <time>2023-09-30T07:17:31.000Z</time>
      </trkpt>
      <trkpt lat="45.80936" lon="4.66656">
        <ele>339.83871</ele>
        <time>2023-09-30T07:17:32.000Z</time>
      </trkpt>
      <trkpt lat="45.80932" lon="4.66656">
        <ele>340.03839</ele>
        <time>2023-09-30T07:17:33.000Z</time>
      </trkpt>
      <trkpt lat="45.80928" lon="4.66655">
        <ele>340.39301</ele>
        <time>2023-09-30T07:17:34.000Z</time>
      </trkpt>
      <trkpt lat="45.80925" lon="4.66655">
        <ele>340.77853</ele>
        <time>2023-09-30T07:17:35.000Z</time>
      </trkpt>
      <trkpt lat="45.80921" lon="4.66655">
        <ele>341.24396</ele>
        <time>2023-09-30T07:17:36.000Z</time>
      </trkpt>
      <trkpt lat="45.80917" lon="4.66655">
        <ele>341.37909</ele>
        <time>2023-09-30T07:17:37.000Z</time>
      </trkpt>
      <trkpt lat="45.80914" lon="4.66655">
        <ele>341.54224</ele>
        <time>2023-09-30T07:17:38.000Z</time>
      </trkpt>
      <trkpt lat="45.8091" lon="4.66654">
        <ele>341.67023</ele>
        <time>2023-09-30T07:17:39.000Z</time>
      </trkpt>
      <trkpt lat="45.80907" lon="4.66654">
        <ele>341.78168</ele>
        <time>2023-09-30T07:17:40.000Z</time>
      </trkpt>
      <trkpt lat="45.80904" lon="4.66654">
        <ele>341.87671</ele>
        <time>2023-09-30T07:17:41.000Z</time>
      </trkpt>
      <trkpt lat="45.809" lon="4.66656">
        <ele>342.01917</ele>
        <time>2023-09-30T07:17:42.000Z</time>
      </trkpt>
      <trkpt lat="45.80897" lon="4.66658">
        <ele>342.09955</ele>
        <time>2023-09-30T07:17:43.000Z</time>
      </trkpt>
      <trkpt lat="45.80894" lon="4.66661">
        <ele>342.22882</ele>
        <time>2023-09-30T07:17:44.000Z</time>
      </trkpt>
      <trkpt lat="45.80891" lon="4.66664">
        <ele>342.13312</ele>
        <time>2023-09-30T07:17:45.000Z</time>
      </trkpt>
      <trkpt lat="45.80887" lon="4.66666">
        <ele>341.93219</ele>
        <time>2023-09-30T07:17:46.000Z</time>
      </trkpt>
      <trkpt lat="45.80884" lon="4.66668">
        <ele>341.6937</ele>
        <time>2023-09-30T07:17:47.000Z</time>
      </trkpt>
      <trkpt lat="45.80881" lon="4.66671">
        <ele>342.22586</ele>
        <time>2023-09-30T07:17:48.000Z</time>
      </trkpt>
      <trkpt lat="45.80877" lon="4.66673">
        <ele>342.83768</ele>
        <time>2023-09-30T07:17:49.000Z</time>
      </trkpt>
      <trkpt lat="45.80874" lon="4.66675">
        <ele>343.44135</ele>
        <time>2023-09-30T07:17:50.000Z</time>
      </trkpt>
      <trkpt lat="45.80871" lon="4.66677">
        <ele>343.59296</ele>
        <time>2023-09-30T07:17:51.000Z</time>
      </trkpt>
      <trkpt lat="45.80867" lon="4.66679">
        <ele>343.85034</ele>
        <time>2023-09-30T07:17:52.000Z</time>
      </trkpt>
      <trkpt lat="45.80863" lon="4.66681">
        <ele>344.13171</ele>
        <time>2023-09-30T07:17:53.000Z</time>
      </trkpt>
      <trkpt lat="45.8086" lon="4.66683">
        <ele>344.42194</ele>
        <time>2023-09-30T07:17:54.000Z</time>
      </trkpt>
      <trkpt lat="45.80856" lon="4.66684">
        <ele>344.69302</ele>
        <time>2023-09-30T07:17:55.000Z</time>
      </trkpt>
      <trkpt lat="45.80853" lon="4.66686">
        <ele>344.94171</ele>
        <time>2023-09-30T07:17:56.000Z</time>
      </trkpt>
      <trkpt lat="45.80849" lon="4.66687">
        <ele>345.18198</ele>
        <time>2023-09-30T07:17:57.000Z</time>
      </trkpt>
      <trkpt lat="45.80846" lon="4.66688">
        <ele>345.45435</ele>
        <time>2023-09-30T07:17:58.000Z</time>
      </trkpt>
      <trkpt lat="45.80842" lon="4.6669">
        <ele>345.72354</ele>
        <time>2023-09-30T07:17:59.000Z</time>
      </trkpt>
      <trkpt lat="45.80839" lon="4.66691">
        <ele>345.99673</ele>
        <time>2023-09-30T07:18:00.000Z</time>
      </trkpt>
      <trkpt lat="45.80836" lon="4.66693">
        <ele>346.27887</ele>
        <time>2023-09-30T07:18:01.000Z</time>
      </trkpt>
      <trkpt lat="45.80832" lon="4.66694">
        <ele>346.22678</ele>
        <time>2023-09-30T07:18:02.000Z</time>
      </trkpt>
      <trkpt lat="45.80829" lon="4.66696">
        <ele>346.11108</ele>
        <time>2023-09-30T07:18:03.000Z</time>
      </trkpt>
      <trkpt lat="45.80826" lon="4.66697">
        <ele>345.97751</ele>
        <time>2023-09-30T07:18:04.000Z</time>
      </trkpt>
      <trkpt lat="45.80822" lon="4.66699">
        <ele>346.06723</ele>
        <time>2023-09-30T07:18:05.000Z</time>
      </trkpt>
      <trkpt lat="45.80819" lon="4.66702">
        <ele>346.82788</ele>
        <time>2023-09-30T07:18:06.000Z</time>
      </trkpt>
      <trkpt lat="45.80816" lon="4.66704">
        <ele>347.53049</ele>
        <time>2023-09-30T07:18:07.000Z</time>
      </trkpt>
      <trkpt lat="45.80813" lon="4.66706">
        <ele>347.6543</ele>
        <time>2023-09-30T07:18:08.000Z</time>
      </trkpt>
      <trkpt lat="45.8081" lon="4.66708">
        <ele>347.89072</ele>
        <time>2023-09-30T07:18:09.000Z</time>
      </trkpt>
      <trkpt lat="45.80807" lon="4.66711">
        <ele>348.16193</ele>
        <time>2023-09-30T07:18:10.000Z</time>
      </trkpt>
      <trkpt lat="45.80804" lon="4.66715">
        <ele>348.41159</ele>
        <time>2023-09-30T07:18:11.000Z</time>
      </trkpt>
      <trkpt lat="45.80802" lon="4.66718">
        <ele>348.69626</ele>
        <time>2023-09-30T07:18:12.000Z</time>
      </trkpt>
      <trkpt lat="45.80799" lon="4.66721">
        <ele>348.95822</ele>
        <time>2023-09-30T07:18:13.000Z</time>
      </trkpt>
      <trkpt lat="45.80796" lon="4.66724">
        <ele>349.26443</ele>
        <time>2023-09-30T07:18:14.000Z</time>
      </trkpt>
      <trkpt lat="45.80793" lon="4.66726">
        <ele>349.53329</ele>
        <time>2023-09-30T07:18:15.000Z</time>
      </trkpt>
      <trkpt lat="45.8079" lon="4.66728">
        <ele>349.82925</ele>
        <time>2023-09-30T07:18:16.000Z</time>
      </trkpt>
      <trkpt lat="45.80787" lon="4.66729">
        <ele>350.10773</ele>
        <time>2023-09-30T07:18:17.000Z</time>
      </trkpt>
      <trkpt lat="45.80783" lon="4.66731">
        <ele>350.44498</ele>
        <time>2023-09-30T07:18:18.000Z</time>
      </trkpt>
      <trkpt lat="45.8078" lon="4.66732">
        <ele>350.74847</ele>
        <time>2023-09-30T07:18:19.000Z</time>
      </trkpt>
      <trkpt lat="45.80777" lon="4.66733">
        <ele>351.0722</ele>
        <time>2023-09-30T07:18:20.000Z</time>
      </trkpt>
      <trkpt lat="45.80774" lon="4.66734">
        <ele>351.40808</ele>
        <time>2023-09-30T07:18:21.000Z</time>
      </trkpt>
      <trkpt lat="45.80772" lon="4.66734">
        <ele>352.0256</ele>
        <time>2023-09-30T07:18:22.000Z</time>
      </trkpt>
      <trkpt lat="45.80769" lon="4.66733">
        <ele>352.76169</ele>
        <time>2023-09-30T07:18:23.000Z</time>
      </trkpt>
      <trkpt lat="45.80767" lon="4.66732">
        <ele>353.51544</ele>
        <time>2023-09-30T07:18:24.000Z</time>
      </trkpt>
      <trkpt lat="45.80765" lon="4.66731">
        <ele>354.07562</ele>
        <time>2023-09-30T07:18:25.000Z</time>
      </trkpt>
      <trkpt lat="45.80763" lon="4.6673">
        <ele>353.83582</ele>
        <time>2023-09-30T07:18:26.000Z</time>
      </trkpt>
      <trkpt lat="45.80762" lon="4.66729">
        <ele>354.30811</ele>
        <time>2023-09-30T07:18:27.000Z</time>
      </trkpt>
      <trkpt lat="45.8076" lon="4.66727">
        <ele>354.64511</ele>
        <time>2023-09-30T07:18:28.000Z</time>
      </trkpt>
      <trkpt lat="45.80759" lon="4.66725">
        <ele>354.91751</ele>
        <time>2023-09-30T07:18:29.000Z</time>
      </trkpt>
      <trkpt lat="45.80757" lon="4.66722">
        <ele>355.14313</ele>
        <time>2023-09-30T07:18:30.000Z</time>
      </trkpt>
      <trkpt lat="45.80755" lon="4.6672">
        <ele>355.37708</ele>
        <time>2023-09-30T07:18:31.000Z</time>
      </trkpt>
      <trkpt lat="45.80754" lon="4.66717">
        <ele>355.53683</ele>
        <time>2023-09-30T07:18:32.000Z</time>
      </trkpt>
      <trkpt lat="45.80752" lon="4.66713">
        <ele>355.66199</ele>
        <time>2023-09-30T07:18:33.000Z</time>
      </trkpt>
      <trkpt lat="45.8075" lon="4.66709">
        <ele>355.70251</ele>
        <time>2023-09-30T07:18:34.000Z</time>
      </trkpt>
      <trkpt lat="45.80749" lon="4.66705">
        <ele>355.74786</ele>
        <time>2023-09-30T07:18:35.000Z</time>
      </trkpt>
      <trkpt lat="45.80748" lon="4.667">
        <ele>355.79242</ele>
        <time>2023-09-30T07:18:36.000Z</time>
      </trkpt>
      <trkpt lat="45.80747" lon="4.66694">
        <ele>355.8317</ele>
        <time>2023-09-30T07:18:37.000Z</time>
      </trkpt>
      <trkpt lat="45.80745" lon="4.66689">
        <ele>355.85941</ele>
        <time>2023-09-30T07:18:38.000Z</time>
      </trkpt>
      <trkpt lat="45.80744" lon="4.66682">
        <ele>355.60526</ele>
        <time>2023-09-30T07:18:39.000Z</time>
      </trkpt>
      <trkpt lat="45.80743" lon="4.66676">
        <ele>355.3349</ele>
        <time>2023-09-30T07:18:40.000Z</time>
      </trkpt>
      <trkpt lat="45.80742" lon="4.6667">
        <ele>354.82901</ele>
        <time>2023-09-30T07:18:41.000Z</time>
      </trkpt>
      <trkpt lat="45.8074" lon="4.66663">
        <ele>354.93759</ele>
        <time>2023-09-30T07:18:42.000Z</time>
      </trkpt>
      <trkpt lat="45.8074" lon="4.66656">
        <ele>354.90167</ele>
        <time>2023-09-30T07:18:43.000Z</time>
      </trkpt>
      <trkpt lat="45.80741" lon="4.66649">
        <ele>354.86255</ele>
        <time>2023-09-30T07:18:44.000Z</time>
      </trkpt>
      <trkpt lat="45.80742" lon="4.66644">
        <ele>355.04233</ele>
        <time>2023-09-30T07:18:45.000Z</time>
      </trkpt>
      <trkpt lat="45.80744" lon="4.66638">
        <ele>355.40665</ele>
        <time>2023-09-30T07:18:46.000Z</time>
      </trkpt>
      <trkpt lat="45.80746" lon="4.66633">
        <ele>355.16461</ele>
        <time>2023-09-30T07:18:47.000Z</time>
      </trkpt>
      <trkpt lat="45.80748" lon="4.66628">
        <ele>354.99725</ele>
        <time>2023-09-30T07:18:48.000Z</time>
      </trkpt>
      <trkpt lat="45.80751" lon="4.66623">
        <ele>354.89124</ele>
        <time>2023-09-30T07:18:49.000Z</time>
      </trkpt>
      <trkpt lat="45.80754" lon="4.66619">
        <ele>354.82819</ele>
        <time>2023-09-30T07:18:50.000Z</time>
      </trkpt>
      <trkpt lat="45.80757" lon="4.66614">
        <ele>354.74484</ele>
        <time>2023-09-30T07:18:51.000Z</time>
      </trkpt>
      <trkpt lat="45.8076" lon="4.6661">
        <ele>354.70184</ele>
        <time>2023-09-30T07:18:52.000Z</time>
      </trkpt>
      <trkpt lat="45.80762" lon="4.66606">
        <ele>354.69238</ele>
        <time>2023-09-30T07:18:53.000Z</time>
      </trkpt>
      <trkpt lat="45.80765" lon="4.66603">
        <ele>354.6655</ele>
        <time>2023-09-30T07:18:54.000Z</time>
      </trkpt>
      <trkpt lat="45.80767" lon="4.66599">
        <ele>354.67908</ele>
        <time>2023-09-30T07:18:55.000Z</time>
      </trkpt>
      <trkpt lat="45.8077" lon="4.66595">
        <ele>354.65875</ele>
        <time>2023-09-30T07:18:56.000Z</time>
      </trkpt>
      <trkpt lat="45.80772" lon="4.66591">
        <ele>354.65292</ele>
        <time>2023-09-30T07:18:57.000Z</time>
      </trkpt>
      <trkpt lat="45.80775" lon="4.66587">
        <ele>354.59225</ele>
        <time>2023-09-30T07:18:58.000Z</time>
      </trkpt>
      <trkpt lat="45.80778" lon="4.66582">
        <ele>354.84564</ele>
        <time>2023-09-30T07:18:59.000Z</time>
      </trkpt>
      <trkpt lat="45.80781" lon="4.66577">
        <ele>355.06586</ele>
        <time>2023-09-30T07:19:00.000Z</time>
      </trkpt>
      <trkpt lat="45.80783" lon="4.66572">
        <ele>355.47736</ele>
        <time>2023-09-30T07:19:01.000Z</time>
      </trkpt>
      <trkpt lat="45.80784" lon="4.66566">
        <ele>355.2182</ele>
        <time>2023-09-30T07:19:02.000Z</time>
      </trkpt>
      <trkpt lat="45.80786" lon="4.6656">
        <ele>354.68802</ele>
        <time>2023-09-30T07:19:03.000Z</time>
      </trkpt>
      <trkpt lat="45.80787" lon="4.66555">
        <ele>354.13129</ele>
        <time>2023-09-30T07:19:04.000Z</time>
      </trkpt>
      <trkpt lat="45.80787" lon="4.66548">
        <ele>353.66376</ele>
        <time>2023-09-30T07:19:05.000Z</time>
      </trkpt>
      <trkpt lat="45.80788" lon="4.66541">
        <ele>353.08771</ele>
        <time>2023-09-30T07:19:06.000Z</time>
      </trkpt>
      <trkpt lat="45.80788" lon="4.66535">
        <ele>353.13928</ele>
        <time>2023-09-30T07:19:07.000Z</time>
      </trkpt>
      <trkpt lat="45.80787" lon="4.66528">
        <ele>353.15588</ele>
        <time>2023-09-30T07:19:08.000Z</time>
      </trkpt>
      <trkpt lat="45.80788" lon="4.66521">
        <ele>353.12183</ele>
        <time>2023-09-30T07:19:09.000Z</time>
      </trkpt>
      <trkpt lat="45.80788" lon="4.66516">
        <ele>353.03006</ele>
        <time>2023-09-30T07:19:10.000Z</time>
      </trkpt>
      <trkpt lat="45.80788" lon="4.66511">
        <ele>352.92191</ele>
        <time>2023-09-30T07:19:11.000Z</time>
      </trkpt>
      <trkpt lat="45.80788" lon="4.66505">
        <ele>352.79791</ele>
        <time>2023-09-30T07:19:12.000Z</time>
      </trkpt>
      <trkpt lat="45.80788" lon="4.66499">
        <ele>352.68329</ele>
        <time>2023-09-30T07:19:13.000Z</time>
      </trkpt>
      <trkpt lat="45.80787" lon="4.66492">
        <ele>352.58429</ele>
        <time>2023-09-30T07:19:14.000Z</time>
      </trkpt>
      <trkpt lat="45.80787" lon="4.66487">
        <ele>352.46979</ele>
        <time>2023-09-30T07:19:15.000Z</time>
      </trkpt>
      <trkpt lat="45.80787" lon="4.66481">
        <ele>352.35306</ele>
        <time>2023-09-30T07:19:16.000Z</time>
      </trkpt>
      <trkpt lat="45.80787" lon="4.66475">
        <ele>352.24689</ele>
        <time>2023-09-30T07:19:17.000Z</time>
      </trkpt>
      <trkpt lat="45.80787" lon="4.66469">
        <ele>352.14886</ele>
        <time>2023-09-30T07:19:18.000Z</time>
      </trkpt>
      <trkpt lat="45.80787" lon="4.66464">
        <ele>352.02258</ele>
        <time>2023-09-30T07:19:19.000Z</time>
      </trkpt>
      <trkpt lat="45.80788" lon="4.66461">
        <ele>351.88776</ele>
        <time>2023-09-30T07:19:20.000Z</time>
      </trkpt>
      <trkpt lat="45.80788" lon="4.66458">
        <ele>351.75571</ele>
        <time>2023-09-30T07:19:21.000Z</time>
      </trkpt>
      <trkpt lat="45.80788" lon="4.66455">
        <ele>351.69308</ele>
        <time>2023-09-30T07:19:22.000Z</time>
      </trkpt>
      <trkpt lat="45.80789" lon="4.66451">
        <ele>352.01474</ele>
        <time>2023-09-30T07:19:23.000Z</time>
      </trkpt>
      <trkpt lat="45.8079" lon="4.66446">
        <ele>352.35529</ele>
        <time>2023-09-30T07:19:24.000Z</time>
      </trkpt>
      <trkpt lat="45.80791" lon="4.6644">
        <ele>352.27838</ele>
        <time>2023-09-30T07:19:25.000Z</time>
      </trkpt>
      <trkpt lat="45.80792" lon="4.66435">
        <ele>352.31607</ele>
        <time>2023-09-30T07:19:26.000Z</time>
      </trkpt>
      <trkpt lat="45.80793" lon="4.66431">
        <ele>351.58084</ele>
        <time>2023-09-30T07:19:27.000Z</time>
      </trkpt>
      <trkpt lat="45.80793" lon="4.66429">
        <ele>350.92749</ele>
        <time>2023-09-30T07:19:28.000Z</time>
      </trkpt>
      <trkpt lat="45.80794" lon="4.66426">
        <ele>350.905</ele>
        <time>2023-09-30T07:19:29.000Z</time>
      </trkpt>
      <trkpt lat="45.80795" lon="4.66424">
        <ele>350.797</ele>
        <time>2023-09-30T07:19:30.000Z</time>
      </trkpt>
      <trkpt lat="45.80796" lon="4.66421">
        <ele>350.74243</ele>
        <time>2023-09-30T07:19:31.000Z</time>
      </trkpt>
      <trkpt lat="45.80798" lon="4.66419">
        <ele>350.7113</ele>
        <time>2023-09-30T07:19:32.000Z</time>
      </trkpt>
      <trkpt lat="45.80799" lon="4.66417">
        <ele>350.66418</ele>
        <time>2023-09-30T07:19:33.000Z</time>
      </trkpt>
      <trkpt lat="45.808" lon="4.66413">
        <ele>350.64832</ele>
        <time>2023-09-30T07:19:35.000Z</time>
      </trkpt>
      <trkpt lat="45.80798" lon="4.66411">
        <ele>350.62949</ele>
        <time>2023-09-30T07:19:36.000Z</time>
      </trkpt>
      <trkpt lat="45.80795" lon="4.66411">
        <ele>350.37973</ele>
        <time>2023-09-30T07:19:37.000Z</time>
      </trkpt>
      <trkpt lat="45.80793" lon="4.66414">
        <ele>349.97177</ele>
        <time>2023-09-30T07:19:38.000Z</time>
      </trkpt>
      <trkpt lat="45.80793" lon="4.66417">
        <ele>349.51239</ele>
        <time>2023-09-30T07:19:39.000Z</time>
      </trkpt>
      <trkpt lat="45.80792" lon="4.66422">
        <ele>349.67154</ele>
        <time>2023-09-30T07:19:40.000Z</time>
      </trkpt>
      <trkpt lat="45.80792" lon="4.66427">
        <ele>349.72662</ele>
        <time>2023-09-30T07:19:41.000Z</time>
      </trkpt>
      <trkpt lat="45.8079" lon="4.66431">
        <ele>349.81198</ele>
        <time>2023-09-30T07:19:42.000Z</time>
      </trkpt>
      <trkpt lat="45.80787" lon="4.66434">
        <ele>349.84445</ele>
        <time>2023-09-30T07:19:43.000Z</time>
      </trkpt>
      <trkpt lat="45.80783" lon="4.66434">
        <ele>349.92377</ele>
        <time>2023-09-30T07:19:44.000Z</time>
      </trkpt>
      <trkpt lat="45.8078" lon="4.66432">
        <ele>350.04248</ele>
        <time>2023-09-30T07:19:45.000Z</time>
      </trkpt>
      <trkpt lat="45.80777" lon="4.66428">
        <ele>350.543</ele>
        <time>2023-09-30T07:19:46.000Z</time>
      </trkpt>
      <trkpt lat="45.80775" lon="4.66423">
        <ele>351.10037</ele>
        <time>2023-09-30T07:19:47.000Z</time>
      </trkpt>
      <trkpt lat="45.80773" lon="4.66417">
        <ele>351.74783</ele>
        <time>2023-09-30T07:19:48.000Z</time>
      </trkpt>
      <trkpt lat="45.80772" lon="4.66411">
        <ele>352.42029</ele>
        <time>2023-09-30T07:19:49.000Z</time>
      </trkpt>
      <trkpt lat="45.80771" lon="4.66404">
        <ele>352.48447</ele>
        <time>2023-09-30T07:19:50.000Z</time>
      </trkpt>
      <trkpt lat="45.80771" lon="4.66395">
        <ele>352.66919</ele>
        <time>2023-09-30T07:19:51.000Z</time>
      </trkpt>
      <trkpt lat="45.80769" lon="4.66389">
        <ele>352.85162</ele>
        <time>2023-09-30T07:19:52.000Z</time>
      </trkpt>
      <trkpt lat="45.80767" lon="4.66383">
        <ele>353.00845</ele>
        <time>2023-09-30T07:19:53.000Z</time>
      </trkpt>
      <trkpt lat="45.80766" lon="4.66376">
        <ele>353.14566</ele>
        <time>2023-09-30T07:19:54.000Z</time>
      </trkpt>
      <trkpt lat="45.80765" lon="4.6637">
        <ele>353.27005</ele>
        <time>2023-09-30T07:19:55.000Z</time>
      </trkpt>
      <trkpt lat="45.80763" lon="4.66363">
        <ele>353.40656</ele>
        <time>2023-09-30T07:19:56.000Z</time>
      </trkpt>
      <trkpt lat="45.80762" lon="4.66357">
        <ele>353.8201</ele>
        <time>2023-09-30T07:19:57.000Z</time>
      </trkpt>
      <trkpt lat="45.80761" lon="4.6635">
        <ele>354.36295</ele>
        <time>2023-09-30T07:19:58.000Z</time>
      </trkpt>
      <trkpt lat="45.80759" lon="4.66343">
        <ele>354.96442</ele>
        <time>2023-09-30T07:19:59.000Z</time>
      </trkpt>
      <trkpt lat="45.80757" lon="4.66336">
        <ele>354.9809</ele>
        <time>2023-09-30T07:20:00.000Z</time>
      </trkpt>
      <trkpt lat="45.80756" lon="4.66329">
        <ele>355.14777</ele>
        <time>2023-09-30T07:20:01.000Z</time>
      </trkpt>
      <trkpt lat="45.80754" lon="4.66322">
        <ele>355.32227</ele>
        <time>2023-09-30T07:20:02.000Z</time>
      </trkpt>
      <trkpt lat="45.80753" lon="4.66316">
        <ele>355.54181</ele>
        <time>2023-09-30T07:20:03.000Z</time>
      </trkpt>
      <trkpt lat="45.80751" lon="4.66309">
        <ele>355.73822</ele>
        <time>2023-09-30T07:20:04.000Z</time>
      </trkpt>
      <trkpt lat="45.80748" lon="4.66303">
        <ele>355.90173</ele>
        <time>2023-09-30T07:20:05.000Z</time>
      </trkpt>
      <trkpt lat="45.80746" lon="4.66296">
        <ele>356.10611</ele>
        <time>2023-09-30T07:20:06.000Z</time>
      </trkpt>
      <trkpt lat="45.80743" lon="4.66291">
        <ele>356.26709</ele>
        <time>2023-09-30T07:20:07.000Z</time>
      </trkpt>
      <trkpt lat="45.80741" lon="4.66286">
        <ele>356.44989</ele>
        <time>2023-09-30T07:20:08.000Z</time>
      </trkpt>
      <trkpt lat="45.80738" lon="4.66281">
        <ele>356.61072</ele>
        <time>2023-09-30T07:20:09.000Z</time>
      </trkpt>
      <trkpt lat="45.80735" lon="4.66276">
        <ele>356.76251</ele>
        <time>2023-09-30T07:20:10.000Z</time>
      </trkpt>
      <trkpt lat="45.80733" lon="4.66271">
        <ele>356.91064</ele>
        <time>2023-09-30T07:20:11.000Z</time>
      </trkpt>
      <trkpt lat="45.80731" lon="4.66267">
        <ele>357.02179</ele>
        <time>2023-09-30T07:20:12.000Z</time>
      </trkpt>
      <trkpt lat="45.80729" lon="4.66261">
        <ele>357.1553</ele>
        <time>2023-09-30T07:20:13.000Z</time>
      </trkpt>
      <trkpt lat="45.80726" lon="4.66257">
        <ele>357.28622</ele>
        <time>2023-09-30T07:20:14.000Z</time>
      </trkpt>
      <trkpt lat="45.80723" lon="4.66253">
        <ele>357.39722</ele>
        <time>2023-09-30T07:20:15.000Z</time>
      </trkpt>
      <trkpt lat="45.8072" lon="4.66249">
        <ele>357.19574</ele>
        <time>2023-09-30T07:20:16.000Z</time>
      </trkpt>
      <trkpt lat="45.80717" lon="4.66245">
        <ele>356.96527</ele>
        <time>2023-09-30T07:20:17.000Z</time>
      </trkpt>
      <trkpt lat="45.80713" lon="4.66244">
        <ele>356.73813</ele>
        <time>2023-09-30T07:20:18.000Z</time>
      </trkpt>
      <trkpt lat="45.8071" lon="4.66245">
        <ele>356.50961</ele>
        <time>2023-09-30T07:20:19.000Z</time>
      </trkpt>
      <trkpt lat="45.80706" lon="4.66246">
        <ele>356.26187</ele>
        <time>2023-09-30T07:20:20.000Z</time>
      </trkpt>
      <trkpt lat="45.80703" lon="4.66248">
        <ele>355.8714</ele>
        <time>2023-09-30T07:20:21.000Z</time>
      </trkpt>
      <trkpt lat="45.80699" lon="4.66249">
        <ele>355.50519</ele>
        <time>2023-09-30T07:20:22.000Z</time>
      </trkpt>
      <trkpt lat="45.80696" lon="4.66249">
        <ele>355.12747</ele>
        <time>2023-09-30T07:20:23.000Z</time>
      </trkpt>
      <trkpt lat="45.80692" lon="4.66249">
        <ele>354.73178</ele>
        <time>2023-09-30T07:20:24.000Z</time>
      </trkpt>
      <trkpt lat="45.80689" lon="4.66249">
        <ele>354.32495</ele>
        <time>2023-09-30T07:20:25.000Z</time>
      </trkpt>
      <trkpt lat="45.80685" lon="4.66249">
        <ele>353.92285</ele>
        <time>2023-09-30T07:20:26.000Z</time>
      </trkpt>
      <trkpt lat="45.80681" lon="4.66249">
        <ele>353.54205</ele>
        <time>2023-09-30T07:20:27.000Z</time>
      </trkpt>
      <trkpt lat="45.80677" lon="4.66249">
        <ele>353.18463</ele>
        <time>2023-09-30T07:20:28.000Z</time>
      </trkpt>
      <trkpt lat="45.80673" lon="4.66249">
        <ele>352.85236</ele>
        <time>2023-09-30T07:20:29.000Z</time>
      </trkpt>
      <trkpt lat="45.80669" lon="4.66249">
        <ele>352.46725</ele>
        <time>2023-09-30T07:20:30.000Z</time>
      </trkpt>
      <trkpt lat="45.80665" lon="4.6625">
        <ele>352.01837</ele>
        <time>2023-09-30T07:20:31.000Z</time>
      </trkpt>
      <trkpt lat="45.80661" lon="4.6625">
        <ele>351.53442</ele>
        <time>2023-09-30T07:20:32.000Z</time>
      </trkpt>
      <trkpt lat="45.80658" lon="4.66251">
        <ele>351.80292</ele>
        <time>2023-09-30T07:20:33.000Z</time>
      </trkpt>
      <trkpt lat="45.80654" lon="4.66251">
        <ele>351.97513</ele>
        <time>2023-09-30T07:20:34.000Z</time>
      </trkpt>
      <trkpt lat="45.8065" lon="4.66251">
        <ele>352.15027</ele>
        <time>2023-09-30T07:20:35.000Z</time>
      </trkpt>
      <trkpt lat="45.80647" lon="4.66251">
        <ele>352.64975</ele>
        <time>2023-09-30T07:20:36.000Z</time>
      </trkpt>
      <trkpt lat="45.80643" lon="4.66251">
        <ele>353.18466</ele>
        <time>2023-09-30T07:20:37.000Z</time>
      </trkpt>
      <trkpt lat="45.80639" lon="4.66252">
        <ele>353.72897</ele>
        <time>2023-09-30T07:20:38.000Z</time>
      </trkpt>
      <trkpt lat="45.80635" lon="4.66252">
        <ele>354.32874</ele>
        <time>2023-09-30T07:20:39.000Z</time>
      </trkpt>
      <trkpt lat="45.80632" lon="4.66252">
        <ele>354.90683</ele>
        <time>2023-09-30T07:20:40.000Z</time>
      </trkpt>
      <trkpt lat="45.80629" lon="4.66253">
        <ele>355.61713</ele>
        <time>2023-09-30T07:20:41.000Z</time>
      </trkpt>
      <trkpt lat="45.80626" lon="4.66253">
        <ele>356.28528</ele>
        <time>2023-09-30T07:20:42.000Z</time>
      </trkpt>
      <trkpt lat="45.80624" lon="4.66253">
        <ele>356.96912</ele>
        <time>2023-09-30T07:20:43.000Z</time>
      </trkpt>
      <trkpt lat="45.80622" lon="4.66252">
        <ele>357.70084</ele>
        <time>2023-09-30T07:20:44.000Z</time>
      </trkpt>
      <trkpt lat="45.8062" lon="4.66251">
        <ele>358.431</ele>
        <time>2023-09-30T07:20:45.000Z</time>
      </trkpt>
      <trkpt lat="45.80618" lon="4.66251">
        <ele>359.17807</ele>
        <time>2023-09-30T07:21:02.000Z</time>
      </trkpt>
      <trkpt lat="45.80614" lon="4.66249">
        <ele>359.90582</ele>
        <time>2023-09-30T07:21:04.000Z</time>
      </trkpt>
      <trkpt lat="45.80612" lon="4.66249">
        <ele>360.61215</ele>
        <time>2023-09-30T07:21:05.000Z</time>
      </trkpt>
      <trkpt lat="45.8061" lon="4.66249">
        <ele>361.28986</ele>
        <time>2023-09-30T07:21:06.000Z</time>
      </trkpt>
      <trkpt lat="45.80609" lon="4.6625">
        <ele>361.99789</ele>
        <time>2023-09-30T07:21:07.000Z</time>
      </trkpt>
      <trkpt lat="45.80608" lon="4.66252">
        <ele>362.76593</ele>
        <time>2023-09-30T07:21:08.000Z</time>
      </trkpt>
      <trkpt lat="45.80607" lon="4.66255">
        <ele>363.53778</ele>
        <time>2023-09-30T07:21:09.000Z</time>
      </trkpt>
      <trkpt lat="45.80606" lon="4.66258">
        <ele>363.55841</ele>
        <time>2023-09-30T07:21:10.000Z</time>
      </trkpt>
      <trkpt lat="45.80605" lon="4.66261">
        <ele>363.66876</ele>
        <time>2023-09-30T07:21:11.000Z</time>
      </trkpt>
      <trkpt lat="45.80603" lon="4.66262">
        <ele>363.35211</ele>
        <time>2023-09-30T07:21:12.000Z</time>
      </trkpt>
      <trkpt lat="45.80601" lon="4.66263">
        <ele>362.93997</ele>
        <time>2023-09-30T07:21:13.000Z</time>
      </trkpt>
      <trkpt lat="45.80598" lon="4.66264">
        <ele>363.26758</ele>
        <time>2023-09-30T07:21:14.000Z</time>
      </trkpt>
      <trkpt lat="45.80596" lon="4.66264">
        <ele>363.42899</ele>
        <time>2023-09-30T07:21:15.000Z</time>
      </trkpt>
      <trkpt lat="45.80594" lon="4.66263">
        <ele>363.52188</ele>
        <time>2023-09-30T07:21:16.000Z</time>
      </trkpt>
      <trkpt lat="45.80592" lon="4.6626">
        <ele>363.68622</ele>
        <time>2023-09-30T07:21:17.000Z</time>
      </trkpt>
      <trkpt lat="45.8059" lon="4.66256">
        <ele>363.83917</ele>
        <time>2023-09-30T07:21:18.000Z</time>
      </trkpt>
      <trkpt lat="45.80589" lon="4.66252">
        <ele>363.99295</ele>
        <time>2023-09-30T07:21:19.000Z</time>
      </trkpt>
      <trkpt lat="45.80588" lon="4.66248">
        <ele>364.13742</ele>
        <time>2023-09-30T07:21:20.000Z</time>
      </trkpt>
      <trkpt lat="45.80587" lon="4.66244">
        <ele>364.23117</ele>
        <time>2023-09-30T07:21:21.000Z</time>
      </trkpt>
      <trkpt lat="45.80585" lon="4.6624">
        <ele>363.96564</ele>
        <time>2023-09-30T07:21:22.000Z</time>
      </trkpt>
      <trkpt lat="45.80584" lon="4.66237">
        <ele>363.42609</ele>
        <time>2023-09-30T07:21:23.000Z</time>
      </trkpt>
      <trkpt lat="45.80582" lon="4.66233">
        <ele>362.87564</ele>
        <time>2023-09-30T07:21:24.000Z</time>
      </trkpt>
      <trkpt lat="45.80581" lon="4.66229">
        <ele>363.06973</ele>
        <time>2023-09-30T07:21:25.000Z</time>
      </trkpt>
      <trkpt lat="45.80579" lon="4.66226">
        <ele>363.13629</ele>
        <time>2023-09-30T07:21:26.000Z</time>
      </trkpt>
      <trkpt lat="45.80578" lon="4.66222">
        <ele>363.20575</ele>
        <time>2023-09-30T07:21:27.000Z</time>
      </trkpt>
      <trkpt lat="45.80576" lon="4.66218">
        <ele>363.28677</ele>
        <time>2023-09-30T07:21:28.000Z</time>
      </trkpt>
      <trkpt lat="45.80575" lon="4.66215">
        <ele>363.42462</ele>
        <time>2023-09-30T07:21:29.000Z</time>
      </trkpt>
      <trkpt lat="45.80573" lon="4.66212">
        <ele>363.53473</ele>
        <time>2023-09-30T07:21:30.000Z</time>
      </trkpt>
      <trkpt lat="45.80572" lon="4.66208">
        <ele>363.62927</ele>
        <time>2023-09-30T07:21:31.000Z</time>
      </trkpt>
      <trkpt lat="45.8057" lon="4.66204">
        <ele>364.22116</ele>
        <time>2023-09-30T07:21:32.000Z</time>
      </trkpt>
      <trkpt lat="45.80569" lon="4.66201">
        <ele>364.89307</ele>
        <time>2023-09-30T07:21:33.000Z</time>
      </trkpt>
      <trkpt lat="45.80567" lon="4.66197">
        <ele>364.81622</ele>
        <time>2023-09-30T07:21:34.000Z</time>
      </trkpt>
      <trkpt lat="45.80566" lon="4.66194">
        <ele>364.89648</ele>
        <time>2023-09-30T07:21:35.000Z</time>
      </trkpt>
      <trkpt lat="45.80564" lon="4.66191">
        <ele>365.00247</ele>
        <time>2023-09-30T07:21:36.000Z</time>
      </trkpt>
      <trkpt lat="45.80563" lon="4.66187">
        <ele>365.06628</ele>
        <time>2023-09-30T07:21:37.000Z</time>
      </trkpt>
      <trkpt lat="45.80561" lon="4.66184">
        <ele>365.13385</ele>
        <time>2023-09-30T07:21:38.000Z</time>
      </trkpt>
      <trkpt lat="45.8056" lon="4.6618">
        <ele>365.21155</ele>
        <time>2023-09-30T07:21:39.000Z</time>
      </trkpt>
      <trkpt lat="45.80559" lon="4.66177">
        <ele>365.28119</ele>
        <time>2023-09-30T07:21:40.000Z</time>
      </trkpt>
      <trkpt lat="45.80558" lon="4.66175">
        <ele>365.36417</ele>
        <time>2023-09-30T07:21:41.000Z</time>
      </trkpt>
      <trkpt lat="45.80557" lon="4.6617">
        <ele>365.80038</ele>
        <time>2023-09-30T07:21:43.000Z</time>
      </trkpt>
      <trkpt lat="45.80557" lon="4.66167">
        <ele>366.46979</ele>
        <time>2023-09-30T07:21:44.000Z</time>
      </trkpt>
      <trkpt lat="45.80557" lon="4.66165">
        <ele>367.14423</ele>
        <time>2023-09-30T07:21:45.000Z</time>
      </trkpt>
      <trkpt lat="45.80557" lon="4.66162">
        <ele>366.71609</ele>
        <time>2023-09-30T07:21:46.000Z</time>
      </trkpt>
      <trkpt lat="45.80557" lon="4.66158">
        <ele>366.4415</ele>
        <time>2023-09-30T07:21:47.000Z</time>
      </trkpt>
      <trkpt lat="45.80555" lon="4.66154">
        <ele>365.92459</ele>
        <time>2023-09-30T07:21:48.000Z</time>
      </trkpt>
      <trkpt lat="45.80553" lon="4.6615">
        <ele>366.18927</ele>
        <time>2023-09-30T07:21:49.000Z</time>
      </trkpt>
      <trkpt lat="45.80551" lon="4.66147">
        <ele>366.29602</ele>
        <time>2023-09-30T07:21:50.000Z</time>
      </trkpt>
      <trkpt lat="45.80549" lon="4.66144">
        <ele>365.81586</ele>
        <time>2023-09-30T07:21:51.000Z</time>
      </trkpt>
      <trkpt lat="45.80546" lon="4.6614">
        <ele>366.73047</ele>
        <time>2023-09-30T07:21:52.000Z</time>
      </trkpt>
      <trkpt lat="45.80544" lon="4.66137">
        <ele>367.59296</ele>
        <time>2023-09-30T07:21:53.000Z</time>
      </trkpt>
      <trkpt lat="45.80542" lon="4.66134">
        <ele>368.48425</ele>
        <time>2023-09-30T07:21:54.000Z</time>
      </trkpt>
      <trkpt lat="45.8054" lon="4.66131">
        <ele>369.34213</ele>
        <time>2023-09-30T07:21:55.000Z</time>
      </trkpt>
      <trkpt lat="45.80537" lon="4.66128">
        <ele>370.20737</ele>
        <time>2023-09-30T07:21:56.000Z</time>
      </trkpt>
      <trkpt lat="45.80535" lon="4.66125">
        <ele>371.09259</ele>
        <time>2023-09-30T07:21:57.000Z</time>
      </trkpt>
      <trkpt lat="45.80533" lon="4.66122">
        <ele>371.99307</ele>
        <time>2023-09-30T07:21:58.000Z</time>
      </trkpt>
      <trkpt lat="45.80531" lon="4.66118">
        <ele>372.86157</ele>
        <time>2023-09-30T07:21:59.000Z</time>
      </trkpt>
      <trkpt lat="45.80528" lon="4.66114">
        <ele>373.72729</ele>
        <time>2023-09-30T07:22:00.000Z</time>
      </trkpt>
      <trkpt lat="45.80526" lon="4.66111">
        <ele>374.62103</ele>
        <time>2023-09-30T07:22:01.000Z</time>
      </trkpt>
      <trkpt lat="45.80524" lon="4.66108">
        <ele>375.50421</ele>
        <time>2023-09-30T07:22:02.000Z</time>
      </trkpt>
      <trkpt lat="45.80522" lon="4.66106">
        <ele>376.37494</ele>
        <time>2023-09-30T07:22:03.000Z</time>
      </trkpt>
      <trkpt lat="45.8052" lon="4.66103">
        <ele>377.24677</ele>
        <time>2023-09-30T07:22:04.000Z</time>
      </trkpt>
      <trkpt lat="45.80518" lon="4.661">
        <ele>378.12579</ele>
        <time>2023-09-30T07:22:05.000Z</time>
      </trkpt>
      <trkpt lat="45.80516" lon="4.66097">
        <ele>379.39557</ele>
        <time>2023-09-30T07:22:06.000Z</time>
      </trkpt>
      <trkpt lat="45.80514" lon="4.66094">
        <ele>380.66095</ele>
        <time>2023-09-30T07:22:07.000Z</time>
      </trkpt>
      <trkpt lat="45.80512" lon="4.66091">
        <ele>382.20932</ele>
        <time>2023-09-30T07:22:08.000Z</time>
      </trkpt>
      <trkpt lat="45.8051" lon="4.66088">
        <ele>382.96048</ele>
        <time>2023-09-30T07:22:09.000Z</time>
      </trkpt>
      <trkpt lat="45.80508" lon="4.66085">
        <ele>383.73322</ele>
        <time>2023-09-30T07:22:10.000Z</time>
      </trkpt>
      <trkpt lat="45.80506" lon="4.66082">
        <ele>385.03983</ele>
        <time>2023-09-30T07:22:11.000Z</time>
      </trkpt>
      <trkpt lat="45.80504" lon="4.66078">
        <ele>385.00565</ele>
        <time>2023-09-30T07:22:12.000Z</time>
      </trkpt>
      <trkpt lat="45.80502" lon="4.66075">
        <ele>384.90616</ele>
        <time>2023-09-30T07:22:13.000Z</time>
      </trkpt>
      <trkpt lat="45.80499" lon="4.66072">
        <ele>385.18234</ele>
        <time>2023-09-30T07:22:14.000Z</time>
      </trkpt>
      <trkpt lat="45.80497" lon="4.66069">
        <ele>385.4147</ele>
        <time>2023-09-30T07:22:15.000Z</time>
      </trkpt>
      <trkpt lat="45.80495" lon="4.66067">
        <ele>385.63678</ele>
        <time>2023-09-30T07:22:16.000Z</time>
      </trkpt>
      <trkpt lat="45.80492" lon="4.66065">
        <ele>385.8165</ele>
        <time>2023-09-30T07:22:17.000Z</time>
      </trkpt>
      <trkpt lat="45.8049" lon="4.66063">
        <ele>385.99213</ele>
        <time>2023-09-30T07:22:18.000Z</time>
      </trkpt>
      <trkpt lat="45.80487" lon="4.66062">
        <ele>386.22137</ele>
        <time>2023-09-30T07:22:19.000Z</time>
      </trkpt>
      <trkpt lat="45.80484" lon="4.6606">
        <ele>386.44507</ele>
        <time>2023-09-30T07:22:20.000Z</time>
      </trkpt>
      <trkpt lat="45.80481" lon="4.6606">
        <ele>386.65466</ele>
        <time>2023-09-30T07:22:21.000Z</time>
      </trkpt>
      <trkpt lat="45.80478" lon="4.66059">
        <ele>386.5882</ele>
        <time>2023-09-30T07:22:22.000Z</time>
      </trkpt>
      <trkpt lat="45.80475" lon="4.66058">
        <ele>386.53632</ele>
        <time>2023-09-30T07:22:23.000Z</time>
      </trkpt>
      <trkpt lat="45.80472" lon="4.66057">
        <ele>386.48071</ele>
        <time>2023-09-30T07:22:24.000Z</time>
      </trkpt>
      <trkpt lat="45.8047" lon="4.66056">
        <ele>386.41583</ele>
        <time>2023-09-30T07:22:25.000Z</time>
      </trkpt>
      <trkpt lat="45.80467" lon="4.66054">
        <ele>386.29413</ele>
        <time>2023-09-30T07:22:26.000Z</time>
      </trkpt>
      <trkpt lat="45.80463" lon="4.66053">
        <ele>386.57144</ele>
        <time>2023-09-30T07:22:27.000Z</time>
      </trkpt>
      <trkpt lat="45.8046" lon="4.66051">
        <ele>386.77896</ele>
        <time>2023-09-30T07:22:28.000Z</time>
      </trkpt>
      <trkpt lat="45.80457" lon="4.6605">
        <ele>386.9837</ele>
        <time>2023-09-30T07:22:29.000Z</time>
      </trkpt>
      <trkpt lat="45.80454" lon="4.66048">
        <ele>387.36566</ele>
        <time>2023-09-30T07:22:30.000Z</time>
      </trkpt>
      <trkpt lat="45.80451" lon="4.66046">
        <ele>387.8183</ele>
        <time>2023-09-30T07:22:31.000Z</time>
      </trkpt>
      <trkpt lat="45.80448" lon="4.66045">
        <ele>388.24057</ele>
        <time>2023-09-30T07:22:32.000Z</time>
      </trkpt>
      <trkpt lat="45.80445" lon="4.66043">
        <ele>388.75519</ele>
        <time>2023-09-30T07:22:33.000Z</time>
      </trkpt>
      <trkpt lat="45.80442" lon="4.66042">
        <ele>388.86816</ele>
        <time>2023-09-30T07:22:34.000Z</time>
      </trkpt>
      <trkpt lat="45.80439" lon="4.6604">
        <ele>389.04916</ele>
        <time>2023-09-30T07:22:35.000Z</time>
      </trkpt>
      <trkpt lat="45.80436" lon="4.66039">
        <ele>389.24506</ele>
        <time>2023-09-30T07:22:36.000Z</time>
      </trkpt>
      <trkpt lat="45.80433" lon="4.66037">
        <ele>389.4783</ele>
        <time>2023-09-30T07:22:37.000Z</time>
      </trkpt>
      <trkpt lat="45.8043" lon="4.66035">
        <ele>389.72052</ele>
        <time>2023-09-30T07:22:38.000Z</time>
      </trkpt>
      <trkpt lat="45.80427" lon="4.66034">
        <ele>389.95615</ele>
        <time>2023-09-30T07:22:39.000Z</time>
      </trkpt>
      <trkpt lat="45.80424" lon="4.66032">
        <ele>390.22336</ele>
        <time>2023-09-30T07:22:40.000Z</time>
      </trkpt>
      <trkpt lat="45.80421" lon="4.6603">
        <ele>390.4859</ele>
        <time>2023-09-30T07:22:41.000Z</time>
      </trkpt>
      <trkpt lat="45.80418" lon="4.66029">
        <ele>391.02197</ele>
        <time>2023-09-30T07:22:42.000Z</time>
      </trkpt>
      <trkpt lat="45.80415" lon="4.66028">
        <ele>391.56384</ele>
        <time>2023-09-30T07:22:43.000Z</time>
      </trkpt>
      <trkpt lat="45.80413" lon="4.66027">
        <ele>392.12738</ele>
        <time>2023-09-30T07:22:44.000Z</time>
      </trkpt>
      <trkpt lat="45.80411" lon="4.66026">
        <ele>392.7019</ele>
        <time>2023-09-30T07:22:45.000Z</time>
      </trkpt>
      <trkpt lat="45.80408" lon="4.66025">
        <ele>393.31741</ele>
        <time>2023-09-30T07:22:46.000Z</time>
      </trkpt>
      <trkpt lat="45.80406" lon="4.66024">
        <ele>393.53592</ele>
        <time>2023-09-30T07:22:47.000Z</time>
      </trkpt>
      <trkpt lat="45.80403" lon="4.66022">
        <ele>393.80481</ele>
        <time>2023-09-30T07:22:48.000Z</time>
      </trkpt>
      <trkpt lat="45.80401" lon="4.66021">
        <ele>394.08966</ele>
        <time>2023-09-30T07:22:49.000Z</time>
      </trkpt>
      <trkpt lat="45.80398" lon="4.6602">
        <ele>394.31989</ele>
        <time>2023-09-30T07:22:50.000Z</time>
      </trkpt>
      <trkpt lat="45.80396" lon="4.66018">
        <ele>394.55911</ele>
        <time>2023-09-30T07:22:51.000Z</time>
      </trkpt>
      <trkpt lat="45.80394" lon="4.66016">
        <ele>394.8439</ele>
        <time>2023-09-30T07:22:52.000Z</time>
      </trkpt>
      <trkpt lat="45.80392" lon="4.66015">
        <ele>395.62442</ele>
        <time>2023-09-30T07:22:53.000Z</time>
      </trkpt>
      <trkpt lat="45.80389" lon="4.66014">
        <ele>396.44363</ele>
        <time>2023-09-30T07:22:54.000Z</time>
      </trkpt>
      <trkpt lat="45.80387" lon="4.66013">
        <ele>397.23807</ele>
        <time>2023-09-30T07:22:55.000Z</time>
      </trkpt>
      <trkpt lat="45.80385" lon="4.66012">
        <ele>398.04373</ele>
        <time>2023-09-30T07:22:56.000Z</time>
      </trkpt>
      <trkpt lat="45.80382" lon="4.66012">
        <ele>398.82382</ele>
        <time>2023-09-30T07:22:57.000Z</time>
      </trkpt>
      <trkpt lat="45.80379" lon="4.66011">
        <ele>399.58511</ele>
        <time>2023-09-30T07:22:58.000Z</time>
      </trkpt>
      <trkpt lat="45.80377" lon="4.6601">
        <ele>400.32965</ele>
        <time>2023-09-30T07:22:59.000Z</time>
      </trkpt>
      <trkpt lat="45.80374" lon="4.6601">
        <ele>401.02563</ele>
        <time>2023-09-30T07:23:00.000Z</time>
      </trkpt>
      <trkpt lat="45.80372" lon="4.66009">
        <ele>401.72235</ele>
        <time>2023-09-30T07:23:01.000Z</time>
      </trkpt>
      <trkpt lat="45.80369" lon="4.66009">
        <ele>402.41351</ele>
        <time>2023-09-30T07:23:02.000Z</time>
      </trkpt>
      <trkpt lat="45.80367" lon="4.66009">
        <ele>402.55576</ele>
        <time>2023-09-30T07:23:03.000Z</time>
      </trkpt>
      <trkpt lat="45.80365" lon="4.66008">
        <ele>402.7243</ele>
        <time>2023-09-30T07:23:04.000Z</time>
      </trkpt>
      <trkpt lat="45.80363" lon="4.66007">
        <ele>402.88092</ele>
        <time>2023-09-30T07:23:05.000Z</time>
      </trkpt>
      <trkpt lat="45.80361" lon="4.66006">
        <ele>403.04892</ele>
        <time>2023-09-30T07:23:06.000Z</time>
      </trkpt>
      <trkpt lat="45.80358" lon="4.66005">
        <ele>403.2265</ele>
        <time>2023-09-30T07:23:07.000Z</time>
      </trkpt>
      <trkpt lat="45.80355" lon="4.66004">
        <ele>403.34271</ele>
        <time>2023-09-30T07:23:08.000Z</time>
      </trkpt>
      <trkpt lat="45.80353" lon="4.66003">
        <ele>403.47495</ele>
        <time>2023-09-30T07:23:09.000Z</time>
      </trkpt>
      <trkpt lat="45.8035" lon="4.66003">
        <ele>403.61163</ele>
        <time>2023-09-30T07:23:10.000Z</time>
      </trkpt>
      <trkpt lat="45.80348" lon="4.66002">
        <ele>403.74786</ele>
        <time>2023-09-30T07:23:11.000Z</time>
      </trkpt>
      <trkpt lat="45.80345" lon="4.66002">
        <ele>403.85995</ele>
        <time>2023-09-30T07:23:12.000Z</time>
      </trkpt>
      <trkpt lat="45.80343" lon="4.66002">
        <ele>403.45746</ele>
        <time>2023-09-30T07:23:13.000Z</time>
      </trkpt>
      <trkpt lat="45.80341" lon="4.66002">
        <ele>403.04364</ele>
        <time>2023-09-30T07:23:14.000Z</time>
      </trkpt>
      <trkpt lat="45.80338" lon="4.66001">
        <ele>402.68234</ele>
        <time>2023-09-30T07:23:15.000Z</time>
      </trkpt>
      <trkpt lat="45.80336" lon="4.66">
        <ele>402.29929</ele>
        <time>2023-09-30T07:23:16.000Z</time>
      </trkpt>
      <trkpt lat="45.80333" lon="4.65999">
        <ele>401.90225</ele>
        <time>2023-09-30T07:23:17.000Z</time>
      </trkpt>
      <trkpt lat="45.80331" lon="4.65997">
        <ele>401.50967</ele>
        <time>2023-09-30T07:23:18.000Z</time>
      </trkpt>
      <trkpt lat="45.80328" lon="4.65996">
        <ele>401.12741</ele>
        <time>2023-09-30T07:23:19.000Z</time>
      </trkpt>
      <trkpt lat="45.80326" lon="4.65994">
        <ele>400.77692</ele>
        <time>2023-09-30T07:23:20.000Z</time>
      </trkpt>
      <trkpt lat="45.80323" lon="4.65992">
        <ele>400.4191</ele>
        <time>2023-09-30T07:23:21.000Z</time>
      </trkpt>
      <trkpt lat="45.8032" lon="4.65991">
        <ele>399.81354</ele>
        <time>2023-09-30T07:23:22.000Z</time>
      </trkpt>
      <trkpt lat="45.80317" lon="4.6599">
        <ele>399.5755</ele>
        <time>2023-09-30T07:23:23.000Z</time>
      </trkpt>
      <trkpt lat="45.80314" lon="4.65988">
        <ele>399.85037</ele>
        <time>2023-09-30T07:23:24.000Z</time>
      </trkpt>
      <trkpt lat="45.80312" lon="4.65986">
        <ele>400.02103</ele>
        <time>2023-09-30T07:23:25.000Z</time>
      </trkpt>
      <trkpt lat="45.80309" lon="4.65984">
        <ele>400.18484</ele>
        <time>2023-09-30T07:23:26.000Z</time>
      </trkpt>
      <trkpt lat="45.80306" lon="4.65983">
        <ele>400.34833</ele>
        <time>2023-09-30T07:23:27.000Z</time>
      </trkpt>
      <trkpt lat="45.80304" lon="4.65981">
        <ele>400.57507</ele>
        <time>2023-09-30T07:23:28.000Z</time>
      </trkpt>
      <trkpt lat="45.80301" lon="4.6598">
        <ele>400.79297</ele>
        <time>2023-09-30T07:23:29.000Z</time>
      </trkpt>
      <trkpt lat="45.80299" lon="4.65978">
        <ele>401.05017</ele>
        <time>2023-09-30T07:23:30.000Z</time>
      </trkpt>
      <trkpt lat="45.80296" lon="4.65977">
        <ele>401.4505</ele>
        <time>2023-09-30T07:23:31.000Z</time>
      </trkpt>
      <trkpt lat="45.80294" lon="4.65976">
        <ele>401.85803</ele>
        <time>2023-09-30T07:23:32.000Z</time>
      </trkpt>
      <trkpt lat="45.80291" lon="4.65974">
        <ele>402.26025</ele>
        <time>2023-09-30T07:23:33.000Z</time>
      </trkpt>
      <trkpt lat="45.80289" lon="4.65973">
        <ele>402.65442</ele>
        <time>2023-09-30T07:23:34.000Z</time>
      </trkpt>
      <trkpt lat="45.80286" lon="4.65971">
        <ele>403.01938</ele>
        <time>2023-09-30T07:23:35.000Z</time>
      </trkpt>
      <trkpt lat="45.80284" lon="4.6597">
        <ele>403.38336</ele>
        <time>2023-09-30T07:23:36.000Z</time>
      </trkpt>
      <trkpt lat="45.80281" lon="4.65968">
        <ele>403.75092</ele>
        <time>2023-09-30T07:23:37.000Z</time>
      </trkpt>
      <trkpt lat="45.80279" lon="4.65966">
        <ele>404.12067</ele>
        <time>2023-09-30T07:23:38.000Z</time>
      </trkpt>
      <trkpt lat="45.80276" lon="4.65965">
        <ele>404.47925</ele>
        <time>2023-09-30T07:23:39.000Z</time>
      </trkpt>
      <trkpt lat="45.80274" lon="4.65963">
        <ele>404.83911</ele>
        <time>2023-09-30T07:23:40.000Z</time>
      </trkpt>
      <trkpt lat="45.80272" lon="4.6596">
        <ele>405.20956</ele>
        <time>2023-09-30T07:23:41.000Z</time>
      </trkpt>
      <trkpt lat="45.8027" lon="4.65958">
        <ele>405.85095</ele>
        <time>2023-09-30T07:23:42.000Z</time>
      </trkpt>
      <trkpt lat="45.80267" lon="4.65957">
        <ele>406.68744</ele>
        <time>2023-09-30T07:23:43.000Z</time>
      </trkpt>
      <trkpt lat="45.80265" lon="4.65955">
        <ele>406.95877</ele>
        <time>2023-09-30T07:23:44.000Z</time>
      </trkpt>
      <trkpt lat="45.80263" lon="4.65953">
        <ele>407.35837</ele>
        <time>2023-09-30T07:23:45.000Z</time>
      </trkpt>
      <trkpt lat="45.8026" lon="4.65951">
        <ele>407.74622</ele>
        <time>2023-09-30T07:23:46.000Z</time>
      </trkpt>
      <trkpt lat="45.80258" lon="4.65948">
        <ele>408.11642</ele>
        <time>2023-09-30T07:23:47.000Z</time>
      </trkpt>
      <trkpt lat="45.80256" lon="4.65946">
        <ele>408.487</ele>
        <time>2023-09-30T07:23:48.000Z</time>
      </trkpt>
      <trkpt lat="45.80254" lon="4.65943">
        <ele>408.68362</ele>
        <time>2023-09-30T07:23:49.000Z</time>
      </trkpt>
      <trkpt lat="45.80252" lon="4.65941">
        <ele>408.81915</ele>
        <time>2023-09-30T07:23:50.000Z</time>
      </trkpt>
      <trkpt lat="45.8025" lon="4.65939">
        <ele>408.83792</ele>
        <time>2023-09-30T07:23:51.000Z</time>
      </trkpt>
      <trkpt lat="45.80248" lon="4.65937">
        <ele>408.89755</ele>
        <time>2023-09-30T07:23:52.000Z</time>
      </trkpt>
      <trkpt lat="45.80246" lon="4.65934">
        <ele>408.61234</ele>
        <time>2023-09-30T07:23:53.000Z</time>
      </trkpt>
      <trkpt lat="45.80244" lon="4.65932">
        <ele>408.09283</ele>
        <time>2023-09-30T07:23:54.000Z</time>
      </trkpt>
      <trkpt lat="45.80241" lon="4.65929">
        <ele>407.57443</ele>
        <time>2023-09-30T07:23:55.000Z</time>
      </trkpt>
      <trkpt lat="45.80239" lon="4.65927">
        <ele>407.65936</ele>
        <time>2023-09-30T07:23:56.000Z</time>
      </trkpt>
      <trkpt lat="45.80236" lon="4.65924">
        <ele>407.62866</ele>
        <time>2023-09-30T07:23:57.000Z</time>
      </trkpt>
      <trkpt lat="45.80234" lon="4.65921">
        <ele>407.57657</ele>
        <time>2023-09-30T07:23:58.000Z</time>
      </trkpt>
      <trkpt lat="45.80231" lon="4.65919">
        <ele>407.50461</ele>
        <time>2023-09-30T07:23:59.000Z</time>
      </trkpt>
      <trkpt lat="45.80229" lon="4.65916">
        <ele>407.39926</ele>
        <time>2023-09-30T07:24:00.000Z</time>
      </trkpt>
      <trkpt lat="45.80226" lon="4.65914">
        <ele>407.28635</ele>
        <time>2023-09-30T07:24:01.000Z</time>
      </trkpt>
      <trkpt lat="45.80223" lon="4.65912">
        <ele>406.86813</ele>
        <time>2023-09-30T07:24:02.000Z</time>
      </trkpt>
      <trkpt lat="45.8022" lon="4.65909">
        <ele>406.41708</ele>
        <time>2023-09-30T07:24:03.000Z</time>
      </trkpt>
      <trkpt lat="45.80218" lon="4.65907">
        <ele>406.78363</ele>
        <time>2023-09-30T07:24:04.000Z</time>
      </trkpt>
      <trkpt lat="45.80215" lon="4.65904">
        <ele>407.58203</ele>
        <time>2023-09-30T07:24:05.000Z</time>
      </trkpt>
      <trkpt lat="45.80212" lon="4.65902">
        <ele>408.41779</ele>
        <time>2023-09-30T07:24:06.000Z</time>
      </trkpt>
      <trkpt lat="45.80209" lon="4.659">
        <ele>409.26154</ele>
        <time>2023-09-30T07:24:07.000Z</time>
      </trkpt>
      <trkpt lat="45.80206" lon="4.65897">
        <ele>410.10175</ele>
        <time>2023-09-30T07:24:08.000Z</time>
      </trkpt>
      <trkpt lat="45.80203" lon="4.65895">
        <ele>411.11533</ele>
        <time>2023-09-30T07:24:09.000Z</time>
      </trkpt>
      <trkpt lat="45.802" lon="4.65893">
        <ele>412.18488</ele>
        <time>2023-09-30T07:24:10.000Z</time>
      </trkpt>
      <trkpt lat="45.80197" lon="4.65891">
        <ele>413.22186</ele>
        <time>2023-09-30T07:24:11.000Z</time>
      </trkpt>
      <trkpt lat="45.80194" lon="4.65888">
        <ele>414.22208</ele>
        <time>2023-09-30T07:24:12.000Z</time>
      </trkpt>
      <trkpt lat="45.80191" lon="4.65886">
        <ele>415.54907</ele>
        <time>2023-09-30T07:24:13.000Z</time>
      </trkpt>
      <trkpt lat="45.80189" lon="4.65883">
        <ele>417.08701</ele>
        <time>2023-09-30T07:24:14.000Z</time>
      </trkpt>
      <trkpt lat="45.80186" lon="4.65881">
        <ele>418.6044</ele>
        <time>2023-09-30T07:24:15.000Z</time>
      </trkpt>
      <trkpt lat="45.80183" lon="4.65879">
        <ele>419.51425</ele>
        <time>2023-09-30T07:24:16.000Z</time>
      </trkpt>
      <trkpt lat="45.8018" lon="4.65876">
        <ele>420.54654</ele>
        <time>2023-09-30T07:24:17.000Z</time>
      </trkpt>
      <trkpt lat="45.80177" lon="4.65874">
        <ele>421.63248</ele>
        <time>2023-09-30T07:24:18.000Z</time>
      </trkpt>
      <trkpt lat="45.80174" lon="4.65872">
        <ele>422.72208</ele>
        <time>2023-09-30T07:24:19.000Z</time>
      </trkpt>
      <trkpt lat="45.80172" lon="4.65871">
        <ele>423.83398</ele>
        <time>2023-09-30T07:24:20.000Z</time>
      </trkpt>
      <trkpt lat="45.80168" lon="4.65868">
        <ele>424.96405</ele>
        <time>2023-09-30T07:24:21.000Z</time>
      </trkpt>
      <trkpt lat="45.80165" lon="4.65866">
        <ele>426.40088</ele>
        <time>2023-09-30T07:24:22.000Z</time>
      </trkpt>
      <trkpt lat="45.80162" lon="4.65864">
        <ele>427.86542</ele>
        <time>2023-09-30T07:24:23.000Z</time>
      </trkpt>
      <trkpt lat="45.80159" lon="4.65862">
        <ele>428.56055</ele>
        <time>2023-09-30T07:24:24.000Z</time>
      </trkpt>
      <trkpt lat="45.80156" lon="4.6586">
        <ele>428.76709</ele>
        <time>2023-09-30T07:24:25.000Z</time>
      </trkpt>
      <trkpt lat="45.80153" lon="4.65858">
        <ele>428.99274</ele>
        <time>2023-09-30T07:24:26.000Z</time>
      </trkpt>
      <trkpt lat="45.80149" lon="4.65856">
        <ele>429.17758</ele>
        <time>2023-09-30T07:24:27.000Z</time>
      </trkpt>
      <trkpt lat="45.80146" lon="4.65854">
        <ele>429.35077</ele>
        <time>2023-09-30T07:24:28.000Z</time>
      </trkpt>
      <trkpt lat="45.80143" lon="4.65853">
        <ele>429.49991</ele>
        <time>2023-09-30T07:24:29.000Z</time>
      </trkpt>
      <trkpt lat="45.80139" lon="4.65851">
        <ele>429.6329</ele>
        <time>2023-09-30T07:24:30.000Z</time>
      </trkpt>
      <trkpt lat="45.80136" lon="4.65849">
        <ele>429.77203</ele>
        <time>2023-09-30T07:24:31.000Z</time>
      </trkpt>
      <trkpt lat="45.80132" lon="4.65847">
        <ele>429.9184</ele>
        <time>2023-09-30T07:24:32.000Z</time>
      </trkpt>
      <trkpt lat="45.80128" lon="4.65845">
        <ele>430.10385</ele>
        <time>2023-09-30T07:24:33.000Z</time>
      </trkpt>
      <trkpt lat="45.80124" lon="4.65843">
        <ele>430.2879</ele>
        <time>2023-09-30T07:24:34.000Z</time>
      </trkpt>
      <trkpt lat="45.8012" lon="4.65841">
        <ele>430.49951</ele>
        <time>2023-09-30T07:24:35.000Z</time>
      </trkpt>
      <trkpt lat="45.80117" lon="4.65838">
        <ele>430.70331</ele>
        <time>2023-09-30T07:24:36.000Z</time>
      </trkpt>
      <trkpt lat="45.80113" lon="4.65836">
        <ele>430.86298</ele>
        <time>2023-09-30T07:24:37.000Z</time>
      </trkpt>
      <trkpt lat="45.8011" lon="4.65834">
        <ele>431.00137</ele>
        <time>2023-09-30T07:24:38.000Z</time>
      </trkpt>
      <trkpt lat="45.80106" lon="4.65831">
        <ele>431.18863</ele>
        <time>2023-09-30T07:24:39.000Z</time>
      </trkpt>
      <trkpt lat="45.80103" lon="4.65829">
        <ele>431.37433</ele>
        <time>2023-09-30T07:24:40.000Z</time>
      </trkpt>
      <trkpt lat="45.80099" lon="4.65827">
        <ele>431.5419</ele>
        <time>2023-09-30T07:24:41.000Z</time>
      </trkpt>
      <trkpt lat="45.80096" lon="4.65825">
        <ele>431.67715</ele>
        <time>2023-09-30T07:24:42.000Z</time>
      </trkpt>
      <trkpt lat="45.80092" lon="4.65823">
        <ele>431.82773</ele>
        <time>2023-09-30T07:24:43.000Z</time>
      </trkpt>
      <trkpt lat="45.80089" lon="4.6582">
        <ele>431.93927</ele>
        <time>2023-09-30T07:24:44.000Z</time>
      </trkpt>
      <trkpt lat="45.80085" lon="4.65818">
        <ele>432.08023</ele>
        <time>2023-09-30T07:24:45.000Z</time>
      </trkpt>
      <trkpt lat="45.80082" lon="4.65815">
        <ele>432.16147</ele>
        <time>2023-09-30T07:24:46.000Z</time>
      </trkpt>
      <trkpt lat="45.80078" lon="4.65813">
        <ele>432.28174</ele>
        <time>2023-09-30T07:24:47.000Z</time>
      </trkpt>
      <trkpt lat="45.80075" lon="4.6581">
        <ele>432.38965</ele>
        <time>2023-09-30T07:24:48.000Z</time>
      </trkpt>
      <trkpt lat="45.80071" lon="4.65808">
        <ele>432.46021</ele>
        <time>2023-09-30T07:24:49.000Z</time>
      </trkpt>
      <trkpt lat="45.80068" lon="4.65805">
        <ele>432.52448</ele>
        <time>2023-09-30T07:24:50.000Z</time>
      </trkpt>
      <trkpt lat="45.80064" lon="4.65803">
        <ele>432.65472</ele>
        <time>2023-09-30T07:24:51.000Z</time>
      </trkpt>
      <trkpt lat="45.80061" lon="4.658">
        <ele>432.75323</ele>
        <time>2023-09-30T07:24:52.000Z</time>
      </trkpt>
      <trkpt lat="45.80058" lon="4.65798">
        <ele>432.84259</ele>
        <time>2023-09-30T07:24:53.000Z</time>
      </trkpt>
      <trkpt lat="45.80054" lon="4.65796">
        <ele>432.95123</ele>
        <time>2023-09-30T07:24:54.000Z</time>
      </trkpt>
      <trkpt lat="45.80051" lon="4.65793">
        <ele>433.0705</ele>
        <time>2023-09-30T07:24:55.000Z</time>
      </trkpt>
      <trkpt lat="45.80047" lon="4.65791">
        <ele>433.20981</ele>
        <time>2023-09-30T07:24:56.000Z</time>
      </trkpt>
      <trkpt lat="45.80043" lon="4.65789">
        <ele>433.3959</ele>
        <time>2023-09-30T07:24:57.000Z</time>
      </trkpt>
      <trkpt lat="45.8004" lon="4.65787">
        <ele>433.57056</ele>
        <time>2023-09-30T07:24:58.000Z</time>
      </trkpt>
      <trkpt lat="45.80036" lon="4.65785">
        <ele>433.73883</ele>
        <time>2023-09-30T07:24:59.000Z</time>
      </trkpt>
      <trkpt lat="45.80033" lon="4.65782">
        <ele>433.91058</ele>
        <time>2023-09-30T07:25:00.000Z</time>
      </trkpt>
      <trkpt lat="45.8003" lon="4.65781">
        <ele>434.0936</ele>
        <time>2023-09-30T07:25:01.000Z</time>
      </trkpt>
      <trkpt lat="45.80026" lon="4.65779">
        <ele>434.29596</ele>
        <time>2023-09-30T07:25:02.000Z</time>
      </trkpt>
      <trkpt lat="45.80023" lon="4.65777">
        <ele>434.49731</ele>
        <time>2023-09-30T07:25:03.000Z</time>
      </trkpt>
      <trkpt lat="45.8002" lon="4.65775">
        <ele>434.69907</ele>
        <time>2023-09-30T07:25:04.000Z</time>
      </trkpt>
      <trkpt lat="45.80017" lon="4.65773">
        <ele>434.95126</ele>
        <time>2023-09-30T07:25:05.000Z</time>
      </trkpt>
      <trkpt lat="45.80014" lon="4.65772">
        <ele>435.18011</ele>
        <time>2023-09-30T07:25:06.000Z</time>
      </trkpt>
      <trkpt lat="45.8001" lon="4.65769">
        <ele>435.43686</ele>
        <time>2023-09-30T07:25:07.000Z</time>
      </trkpt>
      <trkpt lat="45.80007" lon="4.65767">
        <ele>435.70474</ele>
        <time>2023-09-30T07:25:08.000Z</time>
      </trkpt>
      <trkpt lat="45.80004" lon="4.65765">
        <ele>436.04404</ele>
        <time>2023-09-30T07:25:09.000Z</time>
      </trkpt>
      <trkpt lat="45.8" lon="4.65764">
        <ele>436.3956</ele>
        <time>2023-09-30T07:25:10.000Z</time>
      </trkpt>
      <trkpt lat="45.79997" lon="4.65761">
        <ele>436.64191</ele>
        <time>2023-09-30T07:25:11.000Z</time>
      </trkpt>
      <trkpt lat="45.79994" lon="4.65759">
        <ele>436.90228</ele>
        <time>2023-09-30T07:25:12.000Z</time>
      </trkpt>
      <trkpt lat="45.79991" lon="4.65758">
        <ele>437.16486</ele>
        <time>2023-09-30T07:25:13.000Z</time>
      </trkpt>
      <trkpt lat="45.79989" lon="4.65756">
        <ele>437.41699</ele>
        <time>2023-09-30T07:25:14.000Z</time>
      </trkpt>
      <trkpt lat="45.79985" lon="4.65755">
        <ele>437.63263</ele>
        <time>2023-09-30T07:25:15.000Z</time>
      </trkpt>
      <trkpt lat="45.79982" lon="4.65753">
        <ele>437.82574</ele>
        <time>2023-09-30T07:25:16.000Z</time>
      </trkpt>
      <trkpt lat="45.79978" lon="4.65751">
        <ele>437.9942</ele>
        <time>2023-09-30T07:25:17.000Z</time>
      </trkpt>
      <trkpt lat="45.79974" lon="4.65749">
        <ele>438.15811</ele>
        <time>2023-09-30T07:25:18.000Z</time>
      </trkpt>
      <trkpt lat="45.7997" lon="4.65748">
        <ele>438.28589</ele>
        <time>2023-09-30T07:25:19.000Z</time>
      </trkpt>
      <trkpt lat="45.79967" lon="4.65747">
        <ele>438.39789</ele>
        <time>2023-09-30T07:25:20.000Z</time>
      </trkpt>
      <trkpt lat="45.79964" lon="4.65747">
        <ele>438.65607</ele>
        <time>2023-09-30T07:25:21.000Z</time>
      </trkpt>
      <trkpt lat="45.7996" lon="4.65747">
        <ele>438.76303</ele>
        <time>2023-09-30T07:25:22.000Z</time>
      </trkpt>
      <trkpt lat="45.79957" lon="4.65747">
        <ele>438.84198</ele>
        <time>2023-09-30T07:25:23.000Z</time>
      </trkpt>
      <trkpt lat="45.79954" lon="4.65747">
        <ele>438.92691</ele>
        <time>2023-09-30T07:25:24.000Z</time>
      </trkpt>
      <trkpt lat="45.7995" lon="4.65747">
        <ele>438.9726</ele>
        <time>2023-09-30T07:25:25.000Z</time>
      </trkpt>
      <trkpt lat="45.79947" lon="4.65747">
        <ele>439.03793</ele>
        <time>2023-09-30T07:25:26.000Z</time>
      </trkpt>
      <trkpt lat="45.79944" lon="4.65747">
        <ele>437.54233</ele>
        <time>2023-09-30T07:25:27.000Z</time>
      </trkpt>
      <trkpt lat="45.7994" lon="4.65747">
        <ele>436.04596</ele>
        <time>2023-09-30T07:25:28.000Z</time>
      </trkpt>
      <trkpt lat="45.79936" lon="4.65747">
        <ele>434.54688</ele>
        <time>2023-09-30T07:25:29.000Z</time>
      </trkpt>
      <trkpt lat="45.79932" lon="4.65746">
        <ele>433.0416</ele>
        <time>2023-09-30T07:25:30.000Z</time>
      </trkpt>
      <trkpt lat="45.79928" lon="4.65745">
        <ele>431.5661</ele>
        <time>2023-09-30T07:25:31.000Z</time>
      </trkpt>
      <trkpt lat="45.79924" lon="4.65745">
        <ele>430.12909</ele>
        <time>2023-09-30T07:25:32.000Z</time>
      </trkpt>
      <trkpt lat="45.7992" lon="4.65745">
        <ele>429.66202</ele>
        <time>2023-09-30T07:25:33.000Z</time>
      </trkpt>
      <trkpt lat="45.79916" lon="4.65745">
        <ele>429.27969</ele>
        <time>2023-09-30T07:25:34.000Z</time>
      </trkpt>
      <trkpt lat="45.79913" lon="4.65745">
        <ele>428.93393</ele>
        <time>2023-09-30T07:25:35.000Z</time>
      </trkpt>
      <trkpt lat="45.79909" lon="4.65746">
        <ele>428.50983</ele>
        <time>2023-09-30T07:25:36.000Z</time>
      </trkpt>
      <trkpt lat="45.79905" lon="4.65748">
        <ele>428.08405</ele>
        <time>2023-09-30T07:25:37.000Z</time>
      </trkpt>
      <trkpt lat="45.79901" lon="4.65749">
        <ele>427.4454</ele>
        <time>2023-09-30T07:25:38.000Z</time>
      </trkpt>
      <trkpt lat="45.79896" lon="4.65749">
        <ele>426.71484</ele>
        <time>2023-09-30T07:25:39.000Z</time>
      </trkpt>
      <trkpt lat="45.79892" lon="4.6575">
        <ele>425.94269</ele>
        <time>2023-09-30T07:25:40.000Z</time>
      </trkpt>
      <trkpt lat="45.79888" lon="4.6575">
        <ele>425.01572</ele>
        <time>2023-09-30T07:25:41.000Z</time>
      </trkpt>
      <trkpt lat="45.79884" lon="4.65751">
        <ele>424.69867</ele>
        <time>2023-09-30T07:25:42.000Z</time>
      </trkpt>
      <trkpt lat="45.7988" lon="4.65751">
        <ele>424.26376</ele>
        <time>2023-09-30T07:25:43.000Z</time>
      </trkpt>
      <trkpt lat="45.79875" lon="4.65752">
        <ele>423.84247</ele>
        <time>2023-09-30T07:25:44.000Z</time>
      </trkpt>
      <trkpt lat="45.79871" lon="4.65753">
        <ele>423.09122</ele>
        <time>2023-09-30T07:25:45.000Z</time>
      </trkpt>
      <trkpt lat="45.79868" lon="4.65753">
        <ele>423.06183</ele>
        <time>2023-09-30T07:25:46.000Z</time>
      </trkpt>
      <trkpt lat="45.79864" lon="4.65754">
        <ele>424.56241</ele>
        <time>2023-09-30T07:25:47.000Z</time>
      </trkpt>
      <trkpt lat="45.79861" lon="4.65754">
        <ele>426.05511</ele>
        <time>2023-09-30T07:25:48.000Z</time>
      </trkpt>
      <trkpt lat="45.79857" lon="4.65754">
        <ele>427.52411</ele>
        <time>2023-09-30T07:25:49.000Z</time>
      </trkpt>
      <trkpt lat="45.79853" lon="4.65754">
        <ele>429.01065</ele>
        <time>2023-09-30T07:25:50.000Z</time>
      </trkpt>
      <trkpt lat="45.7985" lon="4.65755">
        <ele>430.6459</ele>
        <time>2023-09-30T07:25:51.000Z</time>
      </trkpt>
      <trkpt lat="45.79846" lon="4.65755">
        <ele>432.29321</ele>
        <time>2023-09-30T07:25:52.000Z</time>
      </trkpt>
      <trkpt lat="45.79842" lon="4.65756">
        <ele>432.97379</ele>
        <time>2023-09-30T07:25:53.000Z</time>
      </trkpt>
      <trkpt lat="45.79838" lon="4.65756">
        <ele>433.53607</ele>
        <time>2023-09-30T07:25:54.000Z</time>
      </trkpt>
      <trkpt lat="45.79833" lon="4.65758">
        <ele>434.08759</ele>
        <time>2023-09-30T07:25:55.000Z</time>
      </trkpt>
      <trkpt lat="45.79828" lon="4.65759">
        <ele>434.25946</ele>
        <time>2023-09-30T07:25:56.000Z</time>
      </trkpt>
      <trkpt lat="45.79823" lon="4.6576">
        <ele>434.46347</ele>
        <time>2023-09-30T07:25:57.000Z</time>
      </trkpt>
      <trkpt lat="45.79818" lon="4.6576">
        <ele>434.88785</ele>
        <time>2023-09-30T07:25:58.000Z</time>
      </trkpt>
      <trkpt lat="45.79813" lon="4.6576">
        <ele>435.43524</ele>
        <time>2023-09-30T07:25:59.000Z</time>
      </trkpt>
      <trkpt lat="45.79807" lon="4.6576">
        <ele>436.06039</ele>
        <time>2023-09-30T07:26:00.000Z</time>
      </trkpt>
      <trkpt lat="45.79803" lon="4.6576">
        <ele>434.95612</ele>
        <time>2023-09-30T07:26:01.000Z</time>
      </trkpt>
      <trkpt lat="45.79798" lon="4.6576">
        <ele>435.08813</ele>
        <time>2023-09-30T07:26:02.000Z</time>
      </trkpt>
      <trkpt lat="45.79793" lon="4.6576">
        <ele>435.33926</ele>
        <time>2023-09-30T07:26:03.000Z</time>
      </trkpt>
      <trkpt lat="45.79788" lon="4.6576">
        <ele>435.58539</ele>
        <time>2023-09-30T07:26:04.000Z</time>
      </trkpt>
      <trkpt lat="45.79783" lon="4.65759">
        <ele>436.16959</ele>
        <time>2023-09-30T07:26:05.000Z</time>
      </trkpt>
      <trkpt lat="45.79777" lon="4.65759">
        <ele>436.05884</ele>
        <time>2023-09-30T07:26:06.000Z</time>
      </trkpt>
      <trkpt lat="45.79772" lon="4.6576">
        <ele>434.2272</ele>
        <time>2023-09-30T07:26:07.000Z</time>
      </trkpt>
      <trkpt lat="45.79768" lon="4.65762">
        <ele>434.01797</ele>
        <time>2023-09-30T07:26:08.000Z</time>
      </trkpt>
      <trkpt lat="45.79764" lon="4.65764">
        <ele>433.79791</ele>
        <time>2023-09-30T07:26:09.000Z</time>
      </trkpt>
      <trkpt lat="45.7976" lon="4.65765">
        <ele>433.54053</ele>
        <time>2023-09-30T07:26:10.000Z</time>
      </trkpt>
      <trkpt lat="45.79756" lon="4.65767">
        <ele>433.1123</ele>
        <time>2023-09-30T07:26:11.000Z</time>
      </trkpt>
      <trkpt lat="45.79753" lon="4.6577">
        <ele>432.60303</ele>
        <time>2023-09-30T07:26:12.000Z</time>
      </trkpt>
      <trkpt lat="45.79749" lon="4.65772">
        <ele>430.51001</ele>
        <time>2023-09-30T07:26:13.000Z</time>
      </trkpt>
      <trkpt lat="45.79746" lon="4.65774">
        <ele>428.46671</ele>
        <time>2023-09-30T07:26:14.000Z</time>
      </trkpt>
      <trkpt lat="45.79742" lon="4.65776">
        <ele>426.37079</ele>
        <time>2023-09-30T07:26:15.000Z</time>
      </trkpt>
      <trkpt lat="45.79738" lon="4.65778">
        <ele>426.30014</ele>
        <time>2023-09-30T07:26:16.000Z</time>
      </trkpt>
      <trkpt lat="45.79734" lon="4.6578">
        <ele>426.24585</ele>
        <time>2023-09-30T07:26:17.000Z</time>
      </trkpt>
      <trkpt lat="45.79731" lon="4.65782">
        <ele>425.94135</ele>
        <time>2023-09-30T07:26:18.000Z</time>
      </trkpt>
      <trkpt lat="45.79727" lon="4.65784">
        <ele>425.54913</ele>
        <time>2023-09-30T07:26:19.000Z</time>
      </trkpt>
      <trkpt lat="45.79723" lon="4.65785">
        <ele>425.53857</ele>
        <time>2023-09-30T07:26:20.000Z</time>
      </trkpt>
      <trkpt lat="45.7972" lon="4.65787">
        <ele>427.18375</ele>
        <time>2023-09-30T07:26:21.000Z</time>
      </trkpt>
      <trkpt lat="45.79716" lon="4.65789">
        <ele>427.1105</ele>
        <time>2023-09-30T07:26:22.000Z</time>
      </trkpt>
      <trkpt lat="45.79713" lon="4.65791">
        <ele>427.05072</ele>
        <time>2023-09-30T07:26:23.000Z</time>
      </trkpt>
      <trkpt lat="45.79709" lon="4.65793">
        <ele>426.98087</ele>
        <time>2023-09-30T07:26:24.000Z</time>
      </trkpt>
      <trkpt lat="45.79706" lon="4.65795">
        <ele>426.88794</ele>
        <time>2023-09-30T07:26:25.000Z</time>
      </trkpt>
      <trkpt lat="45.79702" lon="4.65796">
        <ele>426.43594</ele>
        <time>2023-09-30T07:26:26.000Z</time>
      </trkpt>
      <trkpt lat="45.79698" lon="4.65798">
        <ele>427.04694</ele>
        <time>2023-09-30T07:26:27.000Z</time>
      </trkpt>
      <trkpt lat="45.79695" lon="4.658">
        <ele>426.08017</ele>
        <time>2023-09-30T07:26:28.000Z</time>
      </trkpt>
      <trkpt lat="45.79691" lon="4.65801">
        <ele>425.11533</ele>
        <time>2023-09-30T07:26:29.000Z</time>
      </trkpt>
      <trkpt lat="45.79688" lon="4.65803">
        <ele>424.15039</ele>
        <time>2023-09-30T07:26:30.000Z</time>
      </trkpt>
      <trkpt lat="45.79684" lon="4.65805">
        <ele>423.20059</ele>
        <time>2023-09-30T07:26:31.000Z</time>
      </trkpt>
      <trkpt lat="45.79681" lon="4.65807">
        <ele>422.25739</ele>
        <time>2023-09-30T07:26:32.000Z</time>
      </trkpt>
      <trkpt lat="45.79677" lon="4.65809">
        <ele>422.39609</ele>
        <time>2023-09-30T07:26:33.000Z</time>
      </trkpt>
      <trkpt lat="45.79674" lon="4.6581">
        <ele>422.18863</ele>
        <time>2023-09-30T07:26:34.000Z</time>
      </trkpt>
      <trkpt lat="45.7967" lon="4.65812">
        <ele>422.00854</ele>
        <time>2023-09-30T07:26:35.000Z</time>
      </trkpt>
      <trkpt lat="45.79667" lon="4.65814">
        <ele>421.26324</ele>
        <time>2023-09-30T07:26:36.000Z</time>
      </trkpt>
      <trkpt lat="45.79664" lon="4.65815">
        <ele>420.30673</ele>
        <time>2023-09-30T07:26:37.000Z</time>
      </trkpt>
      <trkpt lat="45.7966" lon="4.65816">
        <ele>419.60049</ele>
        <time>2023-09-30T07:26:38.000Z</time>
      </trkpt>
      <trkpt lat="45.79657" lon="4.65818">
        <ele>418.95123</ele>
        <time>2023-09-30T07:26:39.000Z</time>
      </trkpt>
      <trkpt lat="45.79654" lon="4.65819">
        <ele>417.90509</ele>
        <time>2023-09-30T07:26:40.000Z</time>
      </trkpt>
      <trkpt lat="45.7965" lon="4.65821">
        <ele>416.89389</ele>
        <time>2023-09-30T07:26:41.000Z</time>
      </trkpt>
      <trkpt lat="45.79646" lon="4.65822">
        <ele>415.44766</ele>
        <time>2023-09-30T07:26:42.000Z</time>
      </trkpt>
      <trkpt lat="45.79642" lon="4.65823">
        <ele>413.66742</ele>
        <time>2023-09-30T07:26:43.000Z</time>
      </trkpt>
      <trkpt lat="45.79638" lon="4.65823">
        <ele>412.90146</ele>
        <time>2023-09-30T07:26:44.000Z</time>
      </trkpt>
      <trkpt lat="45.79635" lon="4.65824">
        <ele>411.95792</ele>
        <time>2023-09-30T07:26:45.000Z</time>
      </trkpt>
      <trkpt lat="45.79631" lon="4.65825">
        <ele>411.35474</ele>
        <time>2023-09-30T07:26:46.000Z</time>
      </trkpt>
      <trkpt lat="45.79627" lon="4.65827">
        <ele>411.37915</ele>
        <time>2023-09-30T07:26:47.000Z</time>
      </trkpt>
      <trkpt lat="45.79624" lon="4.65827">
        <ele>410.89484</ele>
        <time>2023-09-30T07:26:48.000Z</time>
      </trkpt>
      <trkpt lat="45.79621" lon="4.65828">
        <ele>410.09357</ele>
        <time>2023-09-30T07:26:49.000Z</time>
      </trkpt>
      <trkpt lat="45.79618" lon="4.65829">
        <ele>409.26825</ele>
        <time>2023-09-30T07:26:50.000Z</time>
      </trkpt>
      <trkpt lat="45.79614" lon="4.6583">
        <ele>409.46262</ele>
        <time>2023-09-30T07:26:51.000Z</time>
      </trkpt>
      <trkpt lat="45.79611" lon="4.65831">
        <ele>409.51862</ele>
        <time>2023-09-30T07:26:52.000Z</time>
      </trkpt>
      <trkpt lat="45.79608" lon="4.65832">
        <ele>410.04053</ele>
        <time>2023-09-30T07:26:53.000Z</time>
      </trkpt>
      <trkpt lat="45.79604" lon="4.65832">
        <ele>410.86469</ele>
        <time>2023-09-30T07:26:54.000Z</time>
      </trkpt>
      <trkpt lat="45.79601" lon="4.65833">
        <ele>411.69693</ele>
        <time>2023-09-30T07:26:55.000Z</time>
      </trkpt>
      <trkpt lat="45.79598" lon="4.65833">
        <ele>411.55804</ele>
        <time>2023-09-30T07:26:56.000Z</time>
      </trkpt>
      <trkpt lat="45.79595" lon="4.65833">
        <ele>411.6145</ele>
        <time>2023-09-30T07:26:57.000Z</time>
      </trkpt>
      <trkpt lat="45.79592" lon="4.65832">
        <ele>411.69623</ele>
        <time>2023-09-30T07:26:58.000Z</time>
      </trkpt>
      <trkpt lat="45.79589" lon="4.65832">
        <ele>411.78677</ele>
        <time>2023-09-30T07:26:59.000Z</time>
      </trkpt>
      <trkpt lat="45.79587" lon="4.65832">
        <ele>411.9068</ele>
        <time>2023-09-30T07:27:00.000Z</time>
      </trkpt>
      <trkpt lat="45.79585" lon="4.65832">
        <ele>412.0621</ele>
        <time>2023-09-30T07:27:01.000Z</time>
      </trkpt>
      <trkpt lat="45.79583" lon="4.65831">
        <ele>412.65936</ele>
        <time>2023-09-30T07:27:02.000Z</time>
      </trkpt>
      <trkpt lat="45.7958" lon="4.6583">
        <ele>413.60138</ele>
        <time>2023-09-30T07:27:03.000Z</time>
      </trkpt>
      <trkpt lat="45.79577" lon="4.6583">
        <ele>413.49042</ele>
        <time>2023-09-30T07:27:04.000Z</time>
      </trkpt>
      <trkpt lat="45.79574" lon="4.6583">
        <ele>413.40552</ele>
        <time>2023-09-30T07:27:05.000Z</time>
      </trkpt>
      <trkpt lat="45.79571" lon="4.65829">
        <ele>412.83414</ele>
        <time>2023-09-30T07:27:06.000Z</time>
      </trkpt>
      <trkpt lat="45.79568" lon="4.65827">
        <ele>411.86343</ele>
        <time>2023-09-30T07:27:07.000Z</time>
      </trkpt>
      <trkpt lat="45.79565" lon="4.65826">
        <ele>412.42285</ele>
        <time>2023-09-30T07:27:08.000Z</time>
      </trkpt>
      <trkpt lat="45.79563" lon="4.65825">
        <ele>412.8399</ele>
        <time>2023-09-30T07:27:09.000Z</time>
      </trkpt>
      <trkpt lat="45.7956" lon="4.65823">
        <ele>413.42252</ele>
        <time>2023-09-30T07:27:10.000Z</time>
      </trkpt>
      <trkpt lat="45.79557" lon="4.65821">
        <ele>413.00275</ele>
        <time>2023-09-30T07:27:11.000Z</time>
      </trkpt>
      <trkpt lat="45.79554" lon="4.65819">
        <ele>412.63882</ele>
        <time>2023-09-30T07:27:12.000Z</time>
      </trkpt>
      <trkpt lat="45.79551" lon="4.65817">
        <ele>412.57065</ele>
        <time>2023-09-30T07:27:13.000Z</time>
      </trkpt>
      <trkpt lat="45.79548" lon="4.65815">
        <ele>412.61053</ele>
        <time>2023-09-30T07:27:14.000Z</time>
      </trkpt>
      <trkpt lat="45.79545" lon="4.65812">
        <ele>413.99521</ele>
        <time>2023-09-30T07:27:15.000Z</time>
      </trkpt>
      <trkpt lat="45.79542" lon="4.6581">
        <ele>413.9454</ele>
        <time>2023-09-30T07:27:16.000Z</time>
      </trkpt>
      <trkpt lat="45.79539" lon="4.65807">
        <ele>413.88403</ele>
        <time>2023-09-30T07:27:17.000Z</time>
      </trkpt>
      <trkpt lat="45.79536" lon="4.65805">
        <ele>414.70956</ele>
        <time>2023-09-30T07:27:18.000Z</time>
      </trkpt>
      <trkpt lat="45.79534" lon="4.65803">
        <ele>415.67572</ele>
        <time>2023-09-30T07:27:19.000Z</time>
      </trkpt>
      <trkpt lat="45.79532" lon="4.65802">
        <ele>416.58014</ele>
        <time>2023-09-30T07:27:20.000Z</time>
      </trkpt>
      <trkpt lat="45.79529" lon="4.658">
        <ele>417.52026</ele>
        <time>2023-09-30T07:27:21.000Z</time>
      </trkpt>
      <trkpt lat="45.79526" lon="4.65798">
        <ele>418.42432</ele>
        <time>2023-09-30T07:27:22.000Z</time>
      </trkpt>
      <trkpt lat="45.79524" lon="4.65796">
        <ele>419.38013</ele>
        <time>2023-09-30T07:27:23.000Z</time>
      </trkpt>
      <trkpt lat="45.79521" lon="4.65794">
        <ele>420.31561</ele>
        <time>2023-09-30T07:27:24.000Z</time>
      </trkpt>
      <trkpt lat="45.79519" lon="4.65793">
        <ele>421.42831</ele>
        <time>2023-09-30T07:27:25.000Z</time>
      </trkpt>
      <trkpt lat="45.79516" lon="4.65791">
        <ele>423.02652</ele>
        <time>2023-09-30T07:27:26.000Z</time>
      </trkpt>
      <trkpt lat="45.79513" lon="4.65789">
        <ele>425.13135</ele>
        <time>2023-09-30T07:27:27.000Z</time>
      </trkpt>
      <trkpt lat="45.7951" lon="4.65787">
        <ele>426.10278</ele>
        <time>2023-09-30T07:27:28.000Z</time>
      </trkpt>
      <trkpt lat="45.79507" lon="4.65786">
        <ele>427.59195</ele>
        <time>2023-09-30T07:27:29.000Z</time>
      </trkpt>
      <trkpt lat="45.79505" lon="4.65784">
        <ele>428.91513</ele>
        <time>2023-09-30T07:27:30.000Z</time>
      </trkpt>
      <trkpt lat="45.79503" lon="4.65783">
        <ele>430.23721</ele>
        <time>2023-09-30T07:27:31.000Z</time>
      </trkpt>
      <trkpt lat="45.795" lon="4.65781">
        <ele>431.68423</ele>
        <time>2023-09-30T07:27:32.000Z</time>
      </trkpt>
      <trkpt lat="45.79496" lon="4.65779">
        <ele>432.86798</ele>
        <time>2023-09-30T07:27:33.000Z</time>
      </trkpt>
      <trkpt lat="45.79494" lon="4.65777">
        <ele>433.95538</ele>
        <time>2023-09-30T07:27:34.000Z</time>
      </trkpt>
      <trkpt lat="45.79491" lon="4.65775">
        <ele>433.78052</ele>
        <time>2023-09-30T07:27:35.000Z</time>
      </trkpt>
      <trkpt lat="45.79488" lon="4.65774">
        <ele>435.0127</ele>
        <time>2023-09-30T07:27:36.000Z</time>
      </trkpt>
      <trkpt lat="45.79487" lon="4.65773">
        <ele>436.99933</ele>
        <time>2023-09-30T07:27:37.000Z</time>
      </trkpt>
      <trkpt lat="45.79484" lon="4.65771">
        <ele>437.94296</ele>
        <time>2023-09-30T07:27:38.000Z</time>
      </trkpt>
      <trkpt lat="45.79482" lon="4.6577">
        <ele>438.96637</ele>
        <time>2023-09-30T07:27:39.000Z</time>
      </trkpt>
      <trkpt lat="45.79479" lon="4.65769">
        <ele>438.34482</ele>
        <time>2023-09-30T07:27:40.000Z</time>
      </trkpt>
      <trkpt lat="45.79477" lon="4.65769">
        <ele>438.4881</ele>
        <time>2023-09-30T07:27:41.000Z</time>
      </trkpt>
      <trkpt lat="45.79475" lon="4.65768">
        <ele>438.6915</ele>
        <time>2023-09-30T07:27:42.000Z</time>
      </trkpt>
      <trkpt lat="45.79473" lon="4.65766">
        <ele>438.83383</ele>
        <time>2023-09-30T07:27:43.000Z</time>
      </trkpt>
      <trkpt lat="45.7947" lon="4.65766">
        <ele>439.01563</ele>
        <time>2023-09-30T07:27:44.000Z</time>
      </trkpt>
      <trkpt lat="45.79467" lon="4.65765">
        <ele>439.11945</ele>
        <time>2023-09-30T07:27:45.000Z</time>
      </trkpt>
      <trkpt lat="45.79465" lon="4.65765">
        <ele>439.1701</ele>
        <time>2023-09-30T07:27:46.000Z</time>
      </trkpt>
      <trkpt lat="45.79461" lon="4.65764">
        <ele>438.77359</ele>
        <time>2023-09-30T07:27:48.000Z</time>
      </trkpt>
      <trkpt lat="45.79459" lon="4.65764">
        <ele>438.47867</ele>
        <time>2023-09-30T07:27:49.000Z</time>
      </trkpt>
      <trkpt lat="45.79456" lon="4.65763">
        <ele>438.14835</ele>
        <time>2023-09-30T07:27:50.000Z</time>
      </trkpt>
      <trkpt lat="45.79454" lon="4.65762">
        <ele>438.02374</ele>
        <time>2023-09-30T07:27:51.000Z</time>
      </trkpt>
      <trkpt lat="45.79452" lon="4.65761">
        <ele>437.95322</ele>
        <time>2023-09-30T07:27:52.000Z</time>
      </trkpt>
      <trkpt lat="45.79449" lon="4.65761">
        <ele>437.95615</ele>
        <time>2023-09-30T07:27:53.000Z</time>
      </trkpt>
      <trkpt lat="45.79446" lon="4.6576">
        <ele>437.94952</ele>
        <time>2023-09-30T07:27:54.000Z</time>
      </trkpt>
      <trkpt lat="45.79443" lon="4.65759">
        <ele>437.90244</ele>
        <time>2023-09-30T07:27:55.000Z</time>
      </trkpt>
      <trkpt lat="45.79441" lon="4.65759">
        <ele>437.6478</ele>
        <time>2023-09-30T07:27:56.000Z</time>
      </trkpt>
      <trkpt lat="45.79439" lon="4.65759">
        <ele>437.06519</ele>
        <time>2023-09-30T07:27:57.000Z</time>
      </trkpt>
      <trkpt lat="45.79437" lon="4.65759">
        <ele>436.27988</ele>
        <time>2023-09-30T07:27:58.000Z</time>
      </trkpt>
      <trkpt lat="45.79434" lon="4.65759">
        <ele>435.52655</ele>
        <time>2023-09-30T07:27:59.000Z</time>
      </trkpt>
      <trkpt lat="45.7943" lon="4.65758">
        <ele>434.64423</ele>
        <time>2023-09-30T07:28:00.000Z</time>
      </trkpt>
      <trkpt lat="45.79428" lon="4.65758">
        <ele>435.52597</ele>
        <time>2023-09-30T07:28:01.000Z</time>
      </trkpt>
      <trkpt lat="45.79425" lon="4.65757">
        <ele>435.55429</ele>
        <time>2023-09-30T07:28:02.000Z</time>
      </trkpt>
      <trkpt lat="45.79422" lon="4.65756">
        <ele>435.6734</ele>
        <time>2023-09-30T07:28:03.000Z</time>
      </trkpt>
      <trkpt lat="45.7942" lon="4.65756">
        <ele>435.70557</ele>
        <time>2023-09-30T07:28:04.000Z</time>
      </trkpt>
      <trkpt lat="45.79417" lon="4.65757">
        <ele>435.78339</ele>
        <time>2023-09-30T07:28:05.000Z</time>
      </trkpt>
      <trkpt lat="45.79414" lon="4.65757">
        <ele>435.89047</ele>
        <time>2023-09-30T07:28:06.000Z</time>
      </trkpt>
      <trkpt lat="45.79412" lon="4.65757">
        <ele>435.6673</ele>
        <time>2023-09-30T07:28:07.000Z</time>
      </trkpt>
      <trkpt lat="45.79409" lon="4.65757">
        <ele>435.88788</ele>
        <time>2023-09-30T07:28:08.000Z</time>
      </trkpt>
      <trkpt lat="45.79407" lon="4.65756">
        <ele>435.93448</ele>
        <time>2023-09-30T07:28:09.000Z</time>
      </trkpt>
      <trkpt lat="45.79405" lon="4.65755">
        <ele>435.98404</ele>
        <time>2023-09-30T07:28:10.000Z</time>
      </trkpt>
      <trkpt lat="45.79402" lon="4.65755">
        <ele>435.8291</ele>
        <time>2023-09-30T07:28:11.000Z</time>
      </trkpt>
      <trkpt lat="45.79399" lon="4.65755">
        <ele>435.62167</ele>
        <time>2023-09-30T07:28:12.000Z</time>
      </trkpt>
      <trkpt lat="45.79395" lon="4.65754">
        <ele>435.27896</ele>
        <time>2023-09-30T07:28:13.000Z</time>
      </trkpt>
      <trkpt lat="45.79393" lon="4.65753">
        <ele>434.84579</ele>
        <time>2023-09-30T07:28:14.000Z</time>
      </trkpt>
      <trkpt lat="45.7939" lon="4.65752">
        <ele>435.20215</ele>
        <time>2023-09-30T07:28:15.000Z</time>
      </trkpt>
      <trkpt lat="45.79388" lon="4.65751">
        <ele>435.37851</ele>
        <time>2023-09-30T07:28:16.000Z</time>
      </trkpt>
      <trkpt lat="45.79385" lon="4.6575">
        <ele>436.7561</ele>
        <time>2023-09-30T07:28:17.000Z</time>
      </trkpt>
      <trkpt lat="45.79384" lon="4.6575">
        <ele>437.6163</ele>
        <time>2023-09-30T07:28:18.000Z</time>
      </trkpt>
      <trkpt lat="45.7938" lon="4.65748">
        <ele>438.68588</ele>
        <time>2023-09-30T07:28:20.000Z</time>
      </trkpt>
      <trkpt lat="45.79377" lon="4.65747">
        <ele>439.94537</ele>
        <time>2023-09-30T07:28:21.000Z</time>
      </trkpt>
      <trkpt lat="45.79374" lon="4.65746">
        <ele>441.13055</ele>
        <time>2023-09-30T07:28:22.000Z</time>
      </trkpt>
      <trkpt lat="45.79372" lon="4.65746">
        <ele>442.34766</ele>
        <time>2023-09-30T07:28:23.000Z</time>
      </trkpt>
      <trkpt lat="45.7937" lon="4.65746">
        <ele>443.46509</ele>
        <time>2023-09-30T07:28:24.000Z</time>
      </trkpt>
      <trkpt lat="45.79368" lon="4.65747">
        <ele>444.64771</ele>
        <time>2023-09-30T07:28:25.000Z</time>
      </trkpt>
      <trkpt lat="45.79366" lon="4.65748">
        <ele>445.82227</ele>
        <time>2023-09-30T07:28:26.000Z</time>
      </trkpt>
      <trkpt lat="45.79364" lon="4.65749">
        <ele>447.03745</ele>
        <time>2023-09-30T07:28:27.000Z</time>
      </trkpt>
      <trkpt lat="45.79362" lon="4.65749">
        <ele>448.5625</ele>
        <time>2023-09-30T07:28:28.000Z</time>
      </trkpt>
      <trkpt lat="45.79359" lon="4.6575">
        <ele>450.01285</ele>
        <time>2023-09-30T07:28:29.000Z</time>
      </trkpt>
      <trkpt lat="45.79357" lon="4.6575">
        <ele>451.63983</ele>
        <time>2023-09-30T07:28:30.000Z</time>
      </trkpt>
      <trkpt lat="45.79355" lon="4.65751">
        <ele>453.2251</ele>
        <time>2023-09-30T07:28:31.000Z</time>
      </trkpt>
      <trkpt lat="45.79353" lon="4.65751">
        <ele>454.84171</ele>
        <time>2023-09-30T07:28:32.000Z</time>
      </trkpt>
      <trkpt lat="45.7935" lon="4.65751">
        <ele>456.0379</ele>
        <time>2023-09-30T07:28:33.000Z</time>
      </trkpt>
      <trkpt lat="45.79347" lon="4.65751">
        <ele>457.32813</ele>
        <time>2023-09-30T07:28:34.000Z</time>
      </trkpt>
      <trkpt lat="45.79345" lon="4.6575">
        <ele>458.76416</ele>
        <time>2023-09-30T07:28:35.000Z</time>
      </trkpt>
      <trkpt lat="45.79343" lon="4.6575">
        <ele>459.53497</ele>
        <time>2023-09-30T07:28:36.000Z</time>
      </trkpt>
      <trkpt lat="45.7934" lon="4.6575">
        <ele>460.65298</ele>
        <time>2023-09-30T07:28:37.000Z</time>
      </trkpt>
      <trkpt lat="45.79338" lon="4.6575">
        <ele>457.44116</ele>
        <time>2023-09-30T07:28:38.000Z</time>
      </trkpt>
      <trkpt lat="45.79336" lon="4.6575">
        <ele>457.55444</ele>
        <time>2023-09-30T07:28:39.000Z</time>
      </trkpt>
      <trkpt lat="45.79333" lon="4.65751">
        <ele>457.55255</ele>
        <time>2023-09-30T07:28:40.000Z</time>
      </trkpt>
      <trkpt lat="45.79331" lon="4.65751">
        <ele>457.27002</ele>
        <time>2023-09-30T07:28:41.000Z</time>
      </trkpt>
      <trkpt lat="45.79329" lon="4.65751">
        <ele>456.94864</ele>
        <time>2023-09-30T07:28:42.000Z</time>
      </trkpt>
      <trkpt lat="45.79326" lon="4.65751">
        <ele>454.68637</ele>
        <time>2023-09-30T07:28:44.000Z</time>
      </trkpt>
      <trkpt lat="45.79322" lon="4.65752">
        <ele>454.25113</ele>
        <time>2023-09-30T07:28:46.000Z</time>
      </trkpt>
      <trkpt lat="45.7932" lon="4.65751">
        <ele>453.79434</ele>
        <time>2023-09-30T07:28:47.000Z</time>
      </trkpt>
      <trkpt lat="45.79317" lon="4.65751">
        <ele>453.29419</ele>
        <time>2023-09-30T07:28:48.000Z</time>
      </trkpt>
      <trkpt lat="45.79314" lon="4.65751">
        <ele>452.76221</ele>
        <time>2023-09-30T07:28:49.000Z</time>
      </trkpt>
      <trkpt lat="45.79312" lon="4.65751">
        <ele>449.59637</ele>
        <time>2023-09-30T07:28:50.000Z</time>
      </trkpt>
      <trkpt lat="45.79309" lon="4.65751">
        <ele>448.93732</ele>
        <time>2023-09-30T07:28:51.000Z</time>
      </trkpt>
      <trkpt lat="45.79307" lon="4.65752">
        <ele>448.21436</ele>
        <time>2023-09-30T07:28:52.000Z</time>
      </trkpt>
      <trkpt lat="45.79304" lon="4.65753">
        <ele>447.47958</ele>
        <time>2023-09-30T07:28:53.000Z</time>
      </trkpt>
      <trkpt lat="45.79302" lon="4.65753">
        <ele>446.26825</ele>
        <time>2023-09-30T07:28:54.000Z</time>
      </trkpt>
      <trkpt lat="45.793" lon="4.65754">
        <ele>445.41339</ele>
        <time>2023-09-30T07:28:55.000Z</time>
      </trkpt>
      <trkpt lat="45.79297" lon="4.65754">
        <ele>444.62579</ele>
        <time>2023-09-30T07:28:56.000Z</time>
      </trkpt>
      <trkpt lat="45.79295" lon="4.65753">
        <ele>443.77765</ele>
        <time>2023-09-30T07:28:57.000Z</time>
      </trkpt>
      <trkpt lat="45.79292" lon="4.65753">
        <ele>442.70581</ele>
        <time>2023-09-30T07:28:58.000Z</time>
      </trkpt>
      <trkpt lat="45.7929" lon="4.65754">
        <ele>441.49298</ele>
        <time>2023-09-30T07:28:59.000Z</time>
      </trkpt>
      <trkpt lat="45.79288" lon="4.65755">
        <ele>443.8515</ele>
        <time>2023-09-30T07:29:00.000Z</time>
      </trkpt>
      <trkpt lat="45.79286" lon="4.65756">
        <ele>442.62704</ele>
        <time>2023-09-30T07:29:01.000Z</time>
      </trkpt>
      <trkpt lat="45.79284" lon="4.65756">
        <ele>441.24249</ele>
        <time>2023-09-30T07:29:02.000Z</time>
      </trkpt>
      <trkpt lat="45.79282" lon="4.65757">
        <ele>440.74005</ele>
        <time>2023-09-30T07:29:03.000Z</time>
      </trkpt>
      <trkpt lat="45.7928" lon="4.65757">
        <ele>440.05478</ele>
        <time>2023-09-30T07:29:04.000Z</time>
      </trkpt>
      <trkpt lat="45.79278" lon="4.65758">
        <ele>441.26166</ele>
        <time>2023-09-30T07:29:05.000Z</time>
      </trkpt>
      <trkpt lat="45.79276" lon="4.65759">
        <ele>440.49765</ele>
        <time>2023-09-30T07:29:06.000Z</time>
      </trkpt>
      <trkpt lat="45.79274" lon="4.65759">
        <ele>439.82959</ele>
        <time>2023-09-30T07:29:07.000Z</time>
      </trkpt>
      <trkpt lat="45.7927" lon="4.65759">
        <ele>439.01733</ele>
        <time>2023-09-30T07:29:09.000Z</time>
      </trkpt>
      <trkpt lat="45.79267" lon="4.65758">
        <ele>438.31573</ele>
        <time>2023-09-30T07:29:11.000Z</time>
      </trkpt>
      <trkpt lat="45.79264" lon="4.65758">
        <ele>440.49518</ele>
        <time>2023-09-30T07:29:12.000Z</time>
      </trkpt>
      <trkpt lat="45.79261" lon="4.65757">
        <ele>440.23813</ele>
        <time>2023-09-30T07:29:14.000Z</time>
      </trkpt>
      <trkpt lat="45.79258" lon="4.65757">
        <ele>439.93439</ele>
        <time>2023-09-30T07:29:16.000Z</time>
      </trkpt>
      <trkpt lat="45.79256" lon="4.65757">
        <ele>439.67642</ele>
        <time>2023-09-30T07:29:17.000Z</time>
      </trkpt>
      <trkpt lat="45.79254" lon="4.65756">
        <ele>439.88623</ele>
        <time>2023-09-30T07:29:18.000Z</time>
      </trkpt>
      <trkpt lat="45.79251" lon="4.65756">
        <ele>440.15201</ele>
        <time>2023-09-30T07:29:19.000Z</time>
      </trkpt>
      <trkpt lat="45.79249" lon="4.65756">
        <ele>440.38965</ele>
        <time>2023-09-30T07:29:20.000Z</time>
      </trkpt>
      <trkpt lat="45.79248" lon="4.65756">
        <ele>440.74066</ele>
        <time>2023-09-30T07:29:21.000Z</time>
      </trkpt>
      <trkpt lat="45.79245" lon="4.65756">
        <ele>441.21442</ele>
        <time>2023-09-30T07:29:22.000Z</time>
      </trkpt>
      <trkpt lat="45.79243" lon="4.65755">
        <ele>442.82993</ele>
        <time>2023-09-30T07:29:23.000Z</time>
      </trkpt>
      <trkpt lat="45.7924" lon="4.65755">
        <ele>443.09781</ele>
        <time>2023-09-30T07:29:24.000Z</time>
      </trkpt>
      <trkpt lat="45.79238" lon="4.65754">
        <ele>443.60507</ele>
        <time>2023-09-30T07:29:25.000Z</time>
      </trkpt>
      <trkpt lat="45.79235" lon="4.65754">
        <ele>444.29218</ele>
        <time>2023-09-30T07:29:26.000Z</time>
      </trkpt>
      <trkpt lat="45.79233" lon="4.65753">
        <ele>444.13159</ele>
        <time>2023-09-30T07:29:27.000Z</time>
      </trkpt>
      <trkpt lat="45.7923" lon="4.65752">
        <ele>444.15997</ele>
        <time>2023-09-30T07:29:28.000Z</time>
      </trkpt>
      <trkpt lat="45.79228" lon="4.65751">
        <ele>446.39191</ele>
        <time>2023-09-30T07:29:29.000Z</time>
      </trkpt>
      <trkpt lat="45.79226" lon="4.6575">
        <ele>446.74115</ele>
        <time>2023-09-30T07:29:30.000Z</time>
      </trkpt>
      <trkpt lat="45.79224" lon="4.6575">
        <ele>447.03375</ele>
        <time>2023-09-30T07:29:31.000Z</time>
      </trkpt>
      <trkpt lat="45.79221" lon="4.65749">
        <ele>447.508</ele>
        <time>2023-09-30T07:29:32.000Z</time>
      </trkpt>
      <trkpt lat="45.79219" lon="4.65748">
        <ele>447.92032</ele>
        <time>2023-09-30T07:29:33.000Z</time>
      </trkpt>
      <trkpt lat="45.79216" lon="4.65748">
        <ele>450.18829</ele>
        <time>2023-09-30T07:29:35.000Z</time>
      </trkpt>
      <trkpt lat="45.79214" lon="4.65749">
        <ele>450.47491</ele>
        <time>2023-09-30T07:29:37.000Z</time>
      </trkpt>
      <trkpt lat="45.79211" lon="4.6575">
        <ele>450.85553</ele>
        <time>2023-09-30T07:29:39.000Z</time>
      </trkpt>
      <trkpt lat="45.79207" lon="4.65749">
        <ele>453.25116</ele>
        <time>2023-09-30T07:29:41.000Z</time>
      </trkpt>
      <trkpt lat="45.79204" lon="4.65747">
        <ele>453.77264</ele>
        <time>2023-09-30T07:29:43.000Z</time>
      </trkpt>
      <trkpt lat="45.79202" lon="4.65747">
        <ele>454.30829</ele>
        <time>2023-09-30T07:29:44.000Z</time>
      </trkpt>
      <trkpt lat="45.792" lon="4.65747">
        <ele>454.77179</ele>
        <time>2023-09-30T07:29:45.000Z</time>
      </trkpt>
      <trkpt lat="45.79197" lon="4.65746">
        <ele>455.14105</ele>
        <time>2023-09-30T07:29:46.000Z</time>
      </trkpt>
      <trkpt lat="45.79195" lon="4.65746">
        <ele>457.4715</ele>
        <time>2023-09-30T07:29:47.000Z</time>
      </trkpt>
      <trkpt lat="45.79193" lon="4.65745">
        <ele>456.96564</ele>
        <time>2023-09-30T07:29:48.000Z</time>
      </trkpt>
      <trkpt lat="45.79191" lon="4.65745">
        <ele>457.67242</ele>
        <time>2023-09-30T07:29:49.000Z</time>
      </trkpt>
      <trkpt lat="45.79188" lon="4.65744">
        <ele>458.40118</ele>
        <time>2023-09-30T07:29:50.000Z</time>
      </trkpt>
      <trkpt lat="45.79186" lon="4.65744">
        <ele>459.14096</ele>
        <time>2023-09-30T07:29:51.000Z</time>
      </trkpt>
      <trkpt lat="45.79183" lon="4.65744">
        <ele>459.88339</ele>
        <time>2023-09-30T07:29:52.000Z</time>
      </trkpt>
      <trkpt lat="45.7918" lon="4.65744">
        <ele>462.46597</ele>
        <time>2023-09-30T07:29:53.000Z</time>
      </trkpt>
      <trkpt lat="45.79178" lon="4.65743">
        <ele>461.25006</ele>
        <time>2023-09-30T07:29:54.000Z</time>
      </trkpt>
      <trkpt lat="45.79175" lon="4.65742">
        <ele>461.99298</ele>
        <time>2023-09-30T07:29:55.000Z</time>
      </trkpt>
      <trkpt lat="45.79173" lon="4.65742">
        <ele>462.75555</ele>
        <time>2023-09-30T07:29:56.000Z</time>
      </trkpt>
      <trkpt lat="45.79171" lon="4.65741">
        <ele>463.54166</ele>
        <time>2023-09-30T07:29:57.000Z</time>
      </trkpt>
      <trkpt lat="45.79168" lon="4.65739">
        <ele>466.12784</ele>
        <time>2023-09-30T07:29:59.000Z</time>
      </trkpt>
      <trkpt lat="45.79166" lon="4.6574">
        <ele>465.02002</ele>
        <time>2023-09-30T07:30:00.000Z</time>
      </trkpt>
      <trkpt lat="45.79163" lon="4.65739">
        <ele>465.76163</ele>
        <time>2023-09-30T07:30:02.000Z</time>
      </trkpt>
      <trkpt lat="45.79161" lon="4.65737">
        <ele>466.52597</ele>
        <time>2023-09-30T07:30:03.000Z</time>
      </trkpt>
      <trkpt lat="45.79159" lon="4.65734">
        <ele>466.96436</ele>
        <time>2023-09-30T07:30:05.000Z</time>
      </trkpt>
      <trkpt lat="45.79157" lon="4.65731">
        <ele>467.64999</ele>
        <time>2023-09-30T07:30:07.000Z</time>
      </trkpt>
      <trkpt lat="45.79153" lon="4.65731">
        <ele>468.3439</ele>
        <time>2023-09-30T07:30:09.000Z</time>
      </trkpt>
      <trkpt lat="45.79152" lon="4.65731">
        <ele>470.75797</ele>
        <time>2023-09-30T07:30:13.000Z</time>
      </trkpt>
      <trkpt lat="45.7915" lon="4.65731">
        <ele>471.55728</ele>
        <time>2023-09-30T07:30:16.000Z</time>
      </trkpt>
      <trkpt lat="45.79146" lon="4.6573">
        <ele>470.46466</ele>
        <time>2023-09-30T07:30:18.000Z</time>
      </trkpt>
      <trkpt lat="45.79143" lon="4.65729">
        <ele>472.7399</ele>
        <time>2023-09-30T07:30:20.000Z</time>
      </trkpt>
      <trkpt lat="45.79139" lon="4.65729">
        <ele>475.01874</ele>
        <time>2023-09-30T07:30:22.000Z</time>
      </trkpt>
      <trkpt lat="45.79137" lon="4.65728">
        <ele>477.21103</ele>
        <time>2023-09-30T07:30:23.000Z</time>
      </trkpt>
      <trkpt lat="45.79136" lon="4.65728">
        <ele>479.28485</ele>
        <time>2023-09-30T07:30:24.000Z</time>
      </trkpt>
      <trkpt lat="45.79134" lon="4.65727">
        <ele>481.32217</ele>
        <time>2023-09-30T07:30:25.000Z</time>
      </trkpt>
      <trkpt lat="45.79132" lon="4.65726">
        <ele>481.5166</ele>
        <time>2023-09-30T07:30:26.000Z</time>
      </trkpt>
      <trkpt lat="45.7913" lon="4.65725">
        <ele>483.3819</ele>
        <time>2023-09-30T07:30:27.000Z</time>
      </trkpt>
      <trkpt lat="45.79127" lon="4.65723">
        <ele>485.33023</ele>
        <time>2023-09-30T07:30:28.000Z</time>
      </trkpt>
      <trkpt lat="45.79125" lon="4.65722">
        <ele>487.24722</ele>
        <time>2023-09-30T07:30:29.000Z</time>
      </trkpt>
      <trkpt lat="45.79123" lon="4.65722">
        <ele>489.14331</ele>
        <time>2023-09-30T07:30:30.000Z</time>
      </trkpt>
      <trkpt lat="45.79121" lon="4.65722">
        <ele>489.20435</ele>
        <time>2023-09-30T07:30:31.000Z</time>
      </trkpt>
      <trkpt lat="45.79119" lon="4.65722">
        <ele>490.9628</ele>
        <time>2023-09-30T07:30:32.000Z</time>
      </trkpt>
      <trkpt lat="45.79117" lon="4.65723">
        <ele>492.82422</ele>
        <time>2023-09-30T07:30:33.000Z</time>
      </trkpt>
      <trkpt lat="45.79115" lon="4.65724">
        <ele>494.70541</ele>
        <time>2023-09-30T07:30:34.000Z</time>
      </trkpt>
      <trkpt lat="45.79113" lon="4.65725">
        <ele>494.92758</ele>
        <time>2023-09-30T07:30:36.000Z</time>
      </trkpt>
      <trkpt lat="45.79111" lon="4.65725">
        <ele>496.75653</ele>
        <time>2023-09-30T07:30:39.000Z</time>
      </trkpt>
      <trkpt lat="45.7911" lon="4.65727">
        <ele>498.56436</ele>
        <time>2023-09-30T07:31:19.000Z</time>
      </trkpt>
      <trkpt lat="45.79112" lon="4.65728">
        <ele>498.58447</ele>
        <time>2023-09-30T07:31:25.000Z</time>
      </trkpt>
      <trkpt lat="45.7911" lon="4.65724">
        <ele>500.31232</ele>
        <time>2023-09-30T07:33:19.000Z</time>
      </trkpt>
      <trkpt lat="45.79108" lon="4.6572">
        <ele>501.98624</ele>
        <time>2023-09-30T07:33:21.000Z</time>
      </trkpt>
      <trkpt lat="45.79107" lon="4.65717">
        <ele>502.22284</ele>
        <time>2023-09-30T07:33:23.000Z</time>
      </trkpt>
      <trkpt lat="45.79105" lon="4.65714">
        <ele>502.44669</ele>
        <time>2023-09-30T07:33:25.000Z</time>
      </trkpt>
      <trkpt lat="45.79103" lon="4.65712">
        <ele>502.68488</ele>
        <time>2023-09-30T07:33:27.000Z</time>
      </trkpt>
      <trkpt lat="45.791" lon="4.65709">
        <ele>502.97818</ele>
        <time>2023-09-30T07:33:29.000Z</time>
      </trkpt>
      <trkpt lat="45.79097" lon="4.65707">
        <ele>503.26636</ele>
        <time>2023-09-30T07:33:31.000Z</time>
      </trkpt>
      <trkpt lat="45.79095" lon="4.65705">
        <ele>503.55444</ele>
        <time>2023-09-30T07:33:32.000Z</time>
      </trkpt>
      <trkpt lat="45.79093" lon="4.65704">
        <ele>503.84805</ele>
        <time>2023-09-30T07:33:33.000Z</time>
      </trkpt>
      <trkpt lat="45.79091" lon="4.65702">
        <ele>504.12653</ele>
        <time>2023-09-30T07:33:34.000Z</time>
      </trkpt>
      <trkpt lat="45.79089" lon="4.657">
        <ele>504.37695</ele>
        <time>2023-09-30T07:33:35.000Z</time>
      </trkpt>
      <trkpt lat="45.79088" lon="4.65699">
        <ele>504.58319</ele>
        <time>2023-09-30T07:33:36.000Z</time>
      </trkpt>
      <trkpt lat="45.79085" lon="4.65696">
        <ele>504.89313</ele>
        <time>2023-09-30T07:33:38.000Z</time>
      </trkpt>
      <trkpt lat="45.79083" lon="4.65694">
        <ele>505.13361</ele>
        <time>2023-09-30T07:33:39.000Z</time>
      </trkpt>
      <trkpt lat="45.79081" lon="4.65692">
        <ele>505.46967</ele>
        <time>2023-09-30T07:33:40.000Z</time>
      </trkpt>
      <trkpt lat="45.7908" lon="4.6569">
        <ele>505.73456</ele>
        <time>2023-09-30T07:33:41.000Z</time>
      </trkpt>
      <trkpt lat="45.79078" lon="4.65687">
        <ele>505.96909</ele>
        <time>2023-09-30T07:33:42.000Z</time>
      </trkpt>
      <trkpt lat="45.79076" lon="4.65686">
        <ele>506.21564</ele>
        <time>2023-09-30T07:33:43.000Z</time>
      </trkpt>
      <trkpt lat="45.79073" lon="4.65682">
        <ele>506.53531</ele>
        <time>2023-09-30T07:33:45.000Z</time>
      </trkpt>
      <trkpt lat="45.79071" lon="4.65679">
        <ele>506.90643</ele>
        <time>2023-09-30T07:33:46.000Z</time>
      </trkpt>
      <trkpt lat="45.7907" lon="4.65677">
        <ele>507.14096</ele>
        <time>2023-09-30T07:33:47.000Z</time>
      </trkpt>
      <trkpt lat="45.79068" lon="4.65676">
        <ele>507.36801</ele>
        <time>2023-09-30T07:33:48.000Z</time>
      </trkpt>
      <trkpt lat="45.79066" lon="4.65674">
        <ele>507.45377</ele>
        <time>2023-09-30T07:33:49.000Z</time>
      </trkpt>
      <trkpt lat="45.79064" lon="4.65672">
        <ele>507.55731</ele>
        <time>2023-09-30T07:33:50.000Z</time>
      </trkpt>
      <trkpt lat="45.79062" lon="4.6567">
        <ele>507.67374</ele>
        <time>2023-09-30T07:33:51.000Z</time>
      </trkpt>
      <trkpt lat="45.79061" lon="4.65669">
        <ele>507.78925</ele>
        <time>2023-09-30T07:33:52.000Z</time>
      </trkpt>
      <trkpt lat="45.79058" lon="4.65667">
        <ele>507.93073</ele>
        <time>2023-09-30T07:33:53.000Z</time>
      </trkpt>
      <trkpt lat="45.79056" lon="4.65665">
        <ele>508.15375</ele>
        <time>2023-09-30T07:33:54.000Z</time>
      </trkpt>
      <trkpt lat="45.79053" lon="4.65663">
        <ele>508.35303</ele>
        <time>2023-09-30T07:33:55.000Z</time>
      </trkpt>
      <trkpt lat="45.79051" lon="4.65661">
        <ele>508.56607</ele>
        <time>2023-09-30T07:33:56.000Z</time>
      </trkpt>
      <trkpt lat="45.79049" lon="4.65659">
        <ele>508.78925</ele>
        <time>2023-09-30T07:33:57.000Z</time>
      </trkpt>
      <trkpt lat="45.79047" lon="4.65657">
        <ele>509.07294</ele>
        <time>2023-09-30T07:33:58.000Z</time>
      </trkpt>
      <trkpt lat="45.79045" lon="4.65655">
        <ele>509.26212</ele>
        <time>2023-09-30T07:33:59.000Z</time>
      </trkpt>
      <trkpt lat="45.79043" lon="4.65653">
        <ele>509.48419</ele>
        <time>2023-09-30T07:34:00.000Z</time>
      </trkpt>
      <trkpt lat="45.79041" lon="4.65651">
        <ele>509.59555</ele>
        <time>2023-09-30T07:34:01.000Z</time>
      </trkpt>
      <trkpt lat="45.79039" lon="4.65648">
        <ele>509.70743</ele>
        <time>2023-09-30T07:34:02.000Z</time>
      </trkpt>
      <trkpt lat="45.79038" lon="4.65646">
        <ele>509.78973</ele>
        <time>2023-09-30T07:34:03.000Z</time>
      </trkpt>
      <trkpt lat="45.79036" lon="4.65644">
        <ele>509.8797</ele>
        <time>2023-09-30T07:34:04.000Z</time>
      </trkpt>
      <trkpt lat="45.79035" lon="4.65641">
        <ele>509.89908</ele>
        <time>2023-09-30T07:34:05.000Z</time>
      </trkpt>
      <trkpt lat="45.79033" lon="4.65639">
        <ele>509.9252</ele>
        <time>2023-09-30T07:34:06.000Z</time>
      </trkpt>
      <trkpt lat="45.79032" lon="4.65637">
        <ele>509.97208</ele>
        <time>2023-09-30T07:34:07.000Z</time>
      </trkpt>
      <trkpt lat="45.79031" lon="4.65634">
        <ele>510.07318</ele>
        <time>2023-09-30T07:34:08.000Z</time>
      </trkpt>
      <trkpt lat="45.79029" lon="4.65631">
        <ele>510.19638</ele>
        <time>2023-09-30T07:34:09.000Z</time>
      </trkpt>
      <trkpt lat="45.79027" lon="4.65629">
        <ele>510.35245</ele>
        <time>2023-09-30T07:34:10.000Z</time>
      </trkpt>
      <trkpt lat="45.79026" lon="4.65627">
        <ele>510.56412</ele>
        <time>2023-09-30T07:34:11.000Z</time>
      </trkpt>
      <trkpt lat="45.79024" lon="4.65625">
        <ele>510.7955</ele>
        <time>2023-09-30T07:34:12.000Z</time>
      </trkpt>
      <trkpt lat="45.79022" lon="4.65622">
        <ele>511.03229</ele>
        <time>2023-09-30T07:34:13.000Z</time>
      </trkpt>
      <trkpt lat="45.7902" lon="4.65619">
        <ele>511.20245</ele>
        <time>2023-09-30T07:34:14.000Z</time>
      </trkpt>
      <trkpt lat="45.79019" lon="4.65617">
        <ele>511.37109</ele>
        <time>2023-09-30T07:34:15.000Z</time>
      </trkpt>
      <trkpt lat="45.79017" lon="4.65614">
        <ele>511.51944</ele>
        <time>2023-09-30T07:34:16.000Z</time>
      </trkpt>
      <trkpt lat="45.79015" lon="4.65611">
        <ele>511.67627</ele>
        <time>2023-09-30T07:34:17.000Z</time>
      </trkpt>
      <trkpt lat="45.79014" lon="4.65608">
        <ele>511.79999</ele>
        <time>2023-09-30T07:34:18.000Z</time>
      </trkpt>
      <trkpt lat="45.79013" lon="4.65604">
        <ele>511.92075</ele>
        <time>2023-09-30T07:34:19.000Z</time>
      </trkpt>
      <trkpt lat="45.79011" lon="4.656">
        <ele>512.03558</ele>
        <time>2023-09-30T07:34:20.000Z</time>
      </trkpt>
      <trkpt lat="45.7901" lon="4.65596">
        <ele>512.13391</ele>
        <time>2023-09-30T07:34:21.000Z</time>
      </trkpt>
      <trkpt lat="45.79009" lon="4.65592">
        <ele>512.26019</ele>
        <time>2023-09-30T07:34:22.000Z</time>
      </trkpt>
      <trkpt lat="45.79009" lon="4.65588">
        <ele>512.40948</ele>
        <time>2023-09-30T07:34:23.000Z</time>
      </trkpt>
      <trkpt lat="45.79008" lon="4.65584">
        <ele>512.5802</ele>
        <time>2023-09-30T07:34:24.000Z</time>
      </trkpt>
      <trkpt lat="45.79008" lon="4.6558">
        <ele>512.77014</ele>
        <time>2023-09-30T07:34:25.000Z</time>
      </trkpt>
      <trkpt lat="45.79008" lon="4.65576">
        <ele>512.94324</ele>
        <time>2023-09-30T07:34:26.000Z</time>
      </trkpt>
      <trkpt lat="45.79007" lon="4.65572">
        <ele>513.14001</ele>
        <time>2023-09-30T07:34:27.000Z</time>
      </trkpt>
      <trkpt lat="45.79007" lon="4.65568">
        <ele>513.30365</ele>
        <time>2023-09-30T07:34:28.000Z</time>
      </trkpt>
      <trkpt lat="45.79006" lon="4.65564">
        <ele>513.45636</ele>
        <time>2023-09-30T07:34:29.000Z</time>
      </trkpt>
      <trkpt lat="45.79005" lon="4.6556">
        <ele>513.57556</ele>
        <time>2023-09-30T07:34:30.000Z</time>
      </trkpt>
      <trkpt lat="45.79004" lon="4.65555">
        <ele>513.73749</ele>
        <time>2023-09-30T07:34:31.000Z</time>
      </trkpt>
      <trkpt lat="45.79003" lon="4.65551">
        <ele>513.93677</ele>
        <time>2023-09-30T07:34:32.000Z</time>
      </trkpt>
      <trkpt lat="45.79002" lon="4.65547">
        <ele>514.11884</ele>
        <time>2023-09-30T07:34:33.000Z</time>
      </trkpt>
      <trkpt lat="45.79002" lon="4.65542">
        <ele>514.30878</ele>
        <time>2023-09-30T07:34:34.000Z</time>
      </trkpt>
      <trkpt lat="45.79002" lon="4.65538">
        <ele>514.53021</ele>
        <time>2023-09-30T07:34:35.000Z</time>
      </trkpt>
      <trkpt lat="45.79001" lon="4.65534">
        <ele>514.72156</ele>
        <time>2023-09-30T07:34:36.000Z</time>
      </trkpt>
      <trkpt lat="45.79" lon="4.65529">
        <ele>514.97968</ele>
        <time>2023-09-30T07:34:37.000Z</time>
      </trkpt>
      <trkpt lat="45.78999" lon="4.65525">
        <ele>515.23657</ele>
        <time>2023-09-30T07:34:38.000Z</time>
      </trkpt>
      <trkpt lat="45.78998" lon="4.65521">
        <ele>515.54205</ele>
        <time>2023-09-30T07:34:39.000Z</time>
      </trkpt>
      <trkpt lat="45.78996" lon="4.65517">
        <ele>515.84534</ele>
        <time>2023-09-30T07:34:40.000Z</time>
      </trkpt>
      <trkpt lat="45.78995" lon="4.65513">
        <ele>516.12036</ele>
        <time>2023-09-30T07:34:41.000Z</time>
      </trkpt>
      <trkpt lat="45.78994" lon="4.65509">
        <ele>516.41675</ele>
        <time>2023-09-30T07:34:42.000Z</time>
      </trkpt>
      <trkpt lat="45.78993" lon="4.65506">
        <ele>516.69055</ele>
        <time>2023-09-30T07:34:43.000Z</time>
      </trkpt>
      <trkpt lat="45.78992" lon="4.65503">
        <ele>516.94934</ele>
        <time>2023-09-30T07:34:44.000Z</time>
      </trkpt>
      <trkpt lat="45.78992" lon="4.65498">
        <ele>517.14917</ele>
        <time>2023-09-30T07:34:45.000Z</time>
      </trkpt>
      <trkpt lat="45.78991" lon="4.65495">
        <ele>517.30829</ele>
        <time>2023-09-30T07:34:46.000Z</time>
      </trkpt>
      <trkpt lat="45.78991" lon="4.65491">
        <ele>517.43103</ele>
        <time>2023-09-30T07:34:47.000Z</time>
      </trkpt>
      <trkpt lat="45.78991" lon="4.65487">
        <ele>517.57703</ele>
        <time>2023-09-30T07:34:48.000Z</time>
      </trkpt>
      <trkpt lat="45.78991" lon="4.65482">
        <ele>517.68713</ele>
        <time>2023-09-30T07:34:49.000Z</time>
      </trkpt>
      <trkpt lat="45.7899" lon="4.65478">
        <ele>517.83698</ele>
        <time>2023-09-30T07:34:50.000Z</time>
      </trkpt>
      <trkpt lat="45.7899" lon="4.65474">
        <ele>517.92407</ele>
        <time>2023-09-30T07:34:51.000Z</time>
      </trkpt>
      <trkpt lat="45.78989" lon="4.65472">
        <ele>518.00073</ele>
        <time>2023-09-30T07:34:52.000Z</time>
      </trkpt>
      <trkpt lat="45.78988" lon="4.65468">
        <ele>518.12238</ele>
        <time>2023-09-30T07:34:54.000Z</time>
      </trkpt>
      <trkpt lat="45.78986" lon="4.65463">
        <ele>518.29144</ele>
        <time>2023-09-30T07:34:56.000Z</time>
      </trkpt>
      <trkpt lat="45.78985" lon="4.65461">
        <ele>518.46326</ele>
        <time>2023-09-30T07:34:57.000Z</time>
      </trkpt>
      <trkpt lat="45.78985" lon="4.65458">
        <ele>518.65002</ele>
        <time>2023-09-30T07:34:58.000Z</time>
      </trkpt>
      <trkpt lat="45.78984" lon="4.65455">
        <ele>518.80609</ele>
        <time>2023-09-30T07:34:59.000Z</time>
      </trkpt>
      <trkpt lat="45.78984" lon="4.65452">
        <ele>518.94897</ele>
        <time>2023-09-30T07:35:00.000Z</time>
      </trkpt>
      <trkpt lat="45.78984" lon="4.65449">
        <ele>519.06323</ele>
        <time>2023-09-30T07:35:01.000Z</time>
      </trkpt>
      <trkpt lat="45.78984" lon="4.65445">
        <ele>519.15869</ele>
        <time>2023-09-30T07:35:02.000Z</time>
      </trkpt>
      <trkpt lat="45.78984" lon="4.65441">
        <ele>519.32813</ele>
        <time>2023-09-30T07:35:03.000Z</time>
      </trkpt>
      <trkpt lat="45.78984" lon="4.65438">
        <ele>519.45819</ele>
        <time>2023-09-30T07:35:04.000Z</time>
      </trkpt>
      <trkpt lat="45.78984" lon="4.65435">
        <ele>519.61603</ele>
        <time>2023-09-30T07:35:05.000Z</time>
      </trkpt>
      <trkpt lat="45.78984" lon="4.65431">
        <ele>519.74072</ele>
        <time>2023-09-30T07:35:06.000Z</time>
      </trkpt>
      <trkpt lat="45.78985" lon="4.65428">
        <ele>519.9126</ele>
        <time>2023-09-30T07:35:07.000Z</time>
      </trkpt>
      <trkpt lat="45.78985" lon="4.65425">
        <ele>520.12036</ele>
        <time>2023-09-30T07:35:08.000Z</time>
      </trkpt>
      <trkpt lat="45.78985" lon="4.65421">
        <ele>520.38684</ele>
        <time>2023-09-30T07:35:09.000Z</time>
      </trkpt>
      <trkpt lat="45.78985" lon="4.65418">
        <ele>520.65784</ele>
        <time>2023-09-30T07:35:10.000Z</time>
      </trkpt>
      <trkpt lat="45.78984" lon="4.65414">
        <ele>521.00238</ele>
        <time>2023-09-30T07:35:11.000Z</time>
      </trkpt>
      <trkpt lat="45.78983" lon="4.6541">
        <ele>521.32727</ele>
        <time>2023-09-30T07:35:12.000Z</time>
      </trkpt>
      <trkpt lat="45.78983" lon="4.65408">
        <ele>521.62512</ele>
        <time>2023-09-30T07:35:13.000Z</time>
      </trkpt>
      <trkpt lat="45.78982" lon="4.65404">
        <ele>521.85321</ele>
        <time>2023-09-30T07:35:14.000Z</time>
      </trkpt>
      <trkpt lat="45.78982" lon="4.65401">
        <ele>522.03174</ele>
        <time>2023-09-30T07:35:15.000Z</time>
      </trkpt>
      <trkpt lat="45.78981" lon="4.65398">
        <ele>522.14569</ele>
        <time>2023-09-30T07:35:16.000Z</time>
      </trkpt>
      <trkpt lat="45.78981" lon="4.65395">
        <ele>522.26233</ele>
        <time>2023-09-30T07:35:17.000Z</time>
      </trkpt>
      <trkpt lat="45.7898" lon="4.65393">
        <ele>522.39709</ele>
        <time>2023-09-30T07:35:18.000Z</time>
      </trkpt>
      <trkpt lat="45.78979" lon="4.6539">
        <ele>522.51428</ele>
        <time>2023-09-30T07:35:19.000Z</time>
      </trkpt>
      <trkpt lat="45.78978" lon="4.65387">
        <ele>522.64954</ele>
        <time>2023-09-30T07:35:20.000Z</time>
      </trkpt>
      <trkpt lat="45.78978" lon="4.65384">
        <ele>522.7652</ele>
        <time>2023-09-30T07:35:21.000Z</time>
      </trkpt>
      <trkpt lat="45.78977" lon="4.65382">
        <ele>522.94196</ele>
        <time>2023-09-30T07:35:22.000Z</time>
      </trkpt>
      <trkpt lat="45.78976" lon="4.65379">
        <ele>523.08069</ele>
        <time>2023-09-30T07:35:23.000Z</time>
      </trkpt>
      <trkpt lat="45.78975" lon="4.65376">
        <ele>523.22864</ele>
        <time>2023-09-30T07:35:24.000Z</time>
      </trkpt>
      <trkpt lat="45.78974" lon="4.65373">
        <ele>523.36304</ele>
        <time>2023-09-30T07:35:25.000Z</time>
      </trkpt>
      <trkpt lat="45.78972" lon="4.6537">
        <ele>523.54407</ele>
        <time>2023-09-30T07:35:26.000Z</time>
      </trkpt>
      <trkpt lat="45.78971" lon="4.65367">
        <ele>523.72632</ele>
        <time>2023-09-30T07:35:27.000Z</time>
      </trkpt>
      <trkpt lat="45.7897" lon="4.65363">
        <ele>523.8938</ele>
        <time>2023-09-30T07:35:28.000Z</time>
      </trkpt>
      <trkpt lat="45.78969" lon="4.65359">
        <ele>523.98254</ele>
        <time>2023-09-30T07:35:29.000Z</time>
      </trkpt>
      <trkpt lat="45.78968" lon="4.65355">
        <ele>524.0387</ele>
        <time>2023-09-30T07:35:30.000Z</time>
      </trkpt>
      <trkpt lat="45.78967" lon="4.65352">
        <ele>524.19635</ele>
        <time>2023-09-30T07:35:31.000Z</time>
      </trkpt>
      <trkpt lat="45.78966" lon="4.65348">
        <ele>524.31238</ele>
        <time>2023-09-30T07:35:32.000Z</time>
      </trkpt>
      <trkpt lat="45.78965" lon="4.65344">
        <ele>524.44666</ele>
        <time>2023-09-30T07:35:33.000Z</time>
      </trkpt>
      <trkpt lat="45.78964" lon="4.6534">
        <ele>524.6286</ele>
        <time>2023-09-30T07:35:34.000Z</time>
      </trkpt>
      <trkpt lat="45.78962" lon="4.65336">
        <ele>524.80292</ele>
        <time>2023-09-30T07:35:35.000Z</time>
      </trkpt>
      <trkpt lat="45.78961" lon="4.65333">
        <ele>524.99292</ele>
        <time>2023-09-30T07:35:36.000Z</time>
      </trkpt>
      <trkpt lat="45.7896" lon="4.6533">
        <ele>525.11432</ele>
        <time>2023-09-30T07:35:37.000Z</time>
      </trkpt>
      <trkpt lat="45.78958" lon="4.65326">
        <ele>525.23669</ele>
        <time>2023-09-30T07:35:38.000Z</time>
      </trkpt>
      <trkpt lat="45.78956" lon="4.65322">
        <ele>525.34668</ele>
        <time>2023-09-30T07:35:39.000Z</time>
      </trkpt>
      <trkpt lat="45.78955" lon="4.65318">
        <ele>525.43488</ele>
        <time>2023-09-30T07:35:40.000Z</time>
      </trkpt>
      <trkpt lat="45.78953" lon="4.65315">
        <ele>525.54681</ele>
        <time>2023-09-30T07:35:41.000Z</time>
      </trkpt>
      <trkpt lat="45.78952" lon="4.65312">
        <ele>525.78168</ele>
        <time>2023-09-30T07:35:42.000Z</time>
      </trkpt>
      <trkpt lat="45.7895" lon="4.65309">
        <ele>526.01794</ele>
        <time>2023-09-30T07:35:43.000Z</time>
      </trkpt>
      <trkpt lat="45.78949" lon="4.65307">
        <ele>526.28851</ele>
        <time>2023-09-30T07:35:44.000Z</time>
      </trkpt>
      <trkpt lat="45.78948" lon="4.65304">
        <ele>526.565</ele>
        <time>2023-09-30T07:35:45.000Z</time>
      </trkpt>
      <trkpt lat="45.78947" lon="4.65301">
        <ele>526.88531</ele>
        <time>2023-09-30T07:35:46.000Z</time>
      </trkpt>
      <trkpt lat="45.78946" lon="4.65297">
        <ele>527.13757</ele>
        <time>2023-09-30T07:35:47.000Z</time>
      </trkpt>
      <trkpt lat="45.78945" lon="4.65294">
        <ele>527.39423</ele>
        <time>2023-09-30T07:35:48.000Z</time>
      </trkpt>
      <trkpt lat="45.78945" lon="4.6529">
        <ele>527.66559</ele>
        <time>2023-09-30T07:35:49.000Z</time>
      </trkpt>
      <trkpt lat="45.78944" lon="4.65288">
        <ele>527.93201</ele>
        <time>2023-09-30T07:35:50.000Z</time>
      </trkpt>
      <trkpt lat="45.78943" lon="4.65285">
        <ele>528.07361</ele>
        <time>2023-09-30T07:35:51.000Z</time>
      </trkpt>
      <trkpt lat="45.78942" lon="4.65281">
        <ele>528.30371</ele>
        <time>2023-09-30T07:35:52.000Z</time>
      </trkpt>
      <trkpt lat="45.7894" lon="4.65278">
        <ele>528.46796</ele>
        <time>2023-09-30T07:35:53.000Z</time>
      </trkpt>
      <trkpt lat="45.78938" lon="4.65275">
        <ele>528.65485</ele>
        <time>2023-09-30T07:35:54.000Z</time>
      </trkpt>
      <trkpt lat="45.78937" lon="4.65272">
        <ele>528.8421</ele>
        <time>2023-09-30T07:35:55.000Z</time>
      </trkpt>
      <trkpt lat="45.78934" lon="4.65269">
        <ele>529.03638</ele>
        <time>2023-09-30T07:35:56.000Z</time>
      </trkpt>
      <trkpt lat="45.78932" lon="4.65266">
        <ele>529.30585</ele>
        <time>2023-09-30T07:35:57.000Z</time>
      </trkpt>
      <trkpt lat="45.7893" lon="4.65263">
        <ele>529.56714</ele>
        <time>2023-09-30T07:35:58.000Z</time>
      </trkpt>
      <trkpt lat="45.78928" lon="4.6526">
        <ele>529.86487</ele>
        <time>2023-09-30T07:35:59.000Z</time>
      </trkpt>
      <trkpt lat="45.78926" lon="4.65257">
        <ele>530.14685</ele>
        <time>2023-09-30T07:36:00.000Z</time>
      </trkpt>
      <trkpt lat="45.78924" lon="4.65253">
        <ele>530.42249</ele>
        <time>2023-09-30T07:36:01.000Z</time>
      </trkpt>
      <trkpt lat="45.78922" lon="4.6525">
        <ele>530.56989</ele>
        <time>2023-09-30T07:36:02.000Z</time>
      </trkpt>
      <trkpt lat="45.7892" lon="4.65246">
        <ele>530.69421</ele>
        <time>2023-09-30T07:36:03.000Z</time>
      </trkpt>
      <trkpt lat="45.78918" lon="4.65242">
        <ele>530.78833</ele>
        <time>2023-09-30T07:36:04.000Z</time>
      </trkpt>
      <trkpt lat="45.78916" lon="4.65238">
        <ele>530.9845</ele>
        <time>2023-09-30T07:36:05.000Z</time>
      </trkpt>
      <trkpt lat="45.78914" lon="4.65235">
        <ele>531.11615</ele>
        <time>2023-09-30T07:36:06.000Z</time>
      </trkpt>
      <trkpt lat="45.78912" lon="4.65232">
        <ele>531.27142</ele>
        <time>2023-09-30T07:36:07.000Z</time>
      </trkpt>
      <trkpt lat="45.7891" lon="4.65229">
        <ele>531.46204</ele>
        <time>2023-09-30T07:36:08.000Z</time>
      </trkpt>
      <trkpt lat="45.78908" lon="4.65225">
        <ele>531.68896</ele>
        <time>2023-09-30T07:36:09.000Z</time>
      </trkpt>
      <trkpt lat="45.78906" lon="4.65222">
        <ele>531.94934</ele>
        <time>2023-09-30T07:36:10.000Z</time>
      </trkpt>
      <trkpt lat="45.78905" lon="4.6522">
        <ele>532.18274</ele>
        <time>2023-09-30T07:36:11.000Z</time>
      </trkpt>
      <trkpt lat="45.78904" lon="4.65216">
        <ele>532.39832</ele>
        <time>2023-09-30T07:36:13.000Z</time>
      </trkpt>
      <trkpt lat="45.78903" lon="4.65213">
        <ele>532.65607</ele>
        <time>2023-09-30T07:36:14.000Z</time>
      </trkpt>
      <trkpt lat="45.78902" lon="4.6521">
        <ele>532.88208</ele>
        <time>2023-09-30T07:36:15.000Z</time>
      </trkpt>
      <trkpt lat="45.789" lon="4.65208">
        <ele>533.12018</ele>
        <time>2023-09-30T07:36:16.000Z</time>
      </trkpt>
      <trkpt lat="45.78898" lon="4.65206">
        <ele>533.36523</ele>
        <time>2023-09-30T07:36:17.000Z</time>
      </trkpt>
      <trkpt lat="45.78897" lon="4.65204">
        <ele>533.60913</ele>
        <time>2023-09-30T07:36:18.000Z</time>
      </trkpt>
      <trkpt lat="45.78895" lon="4.65203">
        <ele>533.85864</ele>
        <time>2023-09-30T07:36:19.000Z</time>
      </trkpt>
      <trkpt lat="45.78893" lon="4.65201">
        <ele>534.03955</ele>
        <time>2023-09-30T07:36:20.000Z</time>
      </trkpt>
      <trkpt lat="45.78891" lon="4.652">
        <ele>534.20544</ele>
        <time>2023-09-30T07:36:21.000Z</time>
      </trkpt>
      <trkpt lat="45.78888" lon="4.65197">
        <ele>534.14758</ele>
        <time>2023-09-30T07:36:23.000Z</time>
      </trkpt>
      <trkpt lat="45.78886" lon="4.65194">
        <ele>533.98987</ele>
        <time>2023-09-30T07:36:25.000Z</time>
      </trkpt>
      <trkpt lat="45.78883" lon="4.65192">
        <ele>533.84436</ele>
        <time>2023-09-30T07:36:27.000Z</time>
      </trkpt>
      <trkpt lat="45.78881" lon="4.6519">
        <ele>533.65479</ele>
        <time>2023-09-30T07:36:28.000Z</time>
      </trkpt>
      <trkpt lat="45.78879" lon="4.65189">
        <ele>533.37769</ele>
        <time>2023-09-30T07:36:29.000Z</time>
      </trkpt>
      <trkpt lat="45.78877" lon="4.65188">
        <ele>533.17029</ele>
        <time>2023-09-30T07:36:30.000Z</time>
      </trkpt>
      <trkpt lat="45.78876" lon="4.65186">
        <ele>532.89691</ele>
        <time>2023-09-30T07:36:31.000Z</time>
      </trkpt>
      <trkpt lat="45.78874" lon="4.65185">
        <ele>532.8363</ele>
        <time>2023-09-30T07:36:32.000Z</time>
      </trkpt>
      <trkpt lat="45.78872" lon="4.65184">
        <ele>532.81079</ele>
        <time>2023-09-30T07:36:33.000Z</time>
      </trkpt>
      <trkpt lat="45.78869" lon="4.65183">
        <ele>532.82147</ele>
        <time>2023-09-30T07:36:34.000Z</time>
      </trkpt>
      <trkpt lat="45.78867" lon="4.65181">
        <ele>532.84802</ele>
        <time>2023-09-30T07:36:35.000Z</time>
      </trkpt>
      <trkpt lat="45.78865" lon="4.65179">
        <ele>532.86365</ele>
        <time>2023-09-30T07:36:36.000Z</time>
      </trkpt>
      <trkpt lat="45.78862" lon="4.65178">
        <ele>532.92029</ele>
        <time>2023-09-30T07:36:37.000Z</time>
      </trkpt>
      <trkpt lat="45.7886" lon="4.65176">
        <ele>532.98865</ele>
        <time>2023-09-30T07:36:38.000Z</time>
      </trkpt>
      <trkpt lat="45.78857" lon="4.65175">
        <ele>533.04651</ele>
        <time>2023-09-30T07:36:39.000Z</time>
      </trkpt>
      <trkpt lat="45.78855" lon="4.65173">
        <ele>533.31897</ele>
        <time>2023-09-30T07:36:40.000Z</time>
      </trkpt>
      <trkpt lat="45.78853" lon="4.65172">
        <ele>533.51337</ele>
        <time>2023-09-30T07:38:24.000Z</time>
      </trkpt>
      <trkpt lat="45.7885" lon="4.65172">
        <ele>533.73157</ele>
        <time>2023-09-30T07:38:26.000Z</time>
      </trkpt>
      <trkpt lat="45.78848" lon="4.65172">
        <ele>534.00958</ele>
        <time>2023-09-30T07:38:27.000Z</time>
      </trkpt>
      <trkpt lat="45.78846" lon="4.65171">
        <ele>534.35852</ele>
        <time>2023-09-30T07:38:28.000Z</time>
      </trkpt>
      <trkpt lat="45.78844" lon="4.65171">
        <ele>534.85797</ele>
        <time>2023-09-30T07:38:29.000Z</time>
      </trkpt>
      <trkpt lat="45.78842" lon="4.6517">
        <ele>535.44318</ele>
        <time>2023-09-30T07:38:30.000Z</time>
      </trkpt>
      <trkpt lat="45.78839" lon="4.65169">
        <ele>536.03528</ele>
        <time>2023-09-30T07:38:32.000Z</time>
      </trkpt>
      <trkpt lat="45.78837" lon="4.65168">
        <ele>536.526</ele>
        <time>2023-09-30T07:38:34.000Z</time>
      </trkpt>
      <trkpt lat="45.78835" lon="4.65166">
        <ele>537.00482</ele>
        <time>2023-09-30T07:39:08.000Z</time>
      </trkpt>
      <trkpt lat="45.78832" lon="4.65164">
        <ele>537.45679</ele>
        <time>2023-09-30T07:39:11.000Z</time>
      </trkpt>
      <trkpt lat="45.7883" lon="4.65162">
        <ele>538.06671</ele>
        <time>2023-09-30T07:39:13.000Z</time>
      </trkpt>
      <trkpt lat="45.78829" lon="4.6516">
        <ele>538.40692</ele>
        <time>2023-09-30T07:39:19.000Z</time>
      </trkpt>
      <trkpt lat="45.78826" lon="4.65156">
        <ele>538.73065</ele>
        <time>2023-09-30T07:39:21.000Z</time>
      </trkpt>
      <trkpt lat="45.78825" lon="4.65155">
        <ele>538.98889</ele>
        <time>2023-09-30T07:39:22.000Z</time>
      </trkpt>
      <trkpt lat="45.78823" lon="4.65153">
        <ele>539.21942</ele>
        <time>2023-09-30T07:39:23.000Z</time>
      </trkpt>
      <trkpt lat="45.78822" lon="4.65151">
        <ele>539.43878</ele>
        <time>2023-09-30T07:39:24.000Z</time>
      </trkpt>
      <trkpt lat="45.7882" lon="4.65149">
        <ele>539.62122</ele>
        <time>2023-09-30T07:39:25.000Z</time>
      </trkpt>
      <trkpt lat="45.78819" lon="4.65145">
        <ele>540.0033</ele>
        <time>2023-09-30T07:39:27.000Z</time>
      </trkpt>
      <trkpt lat="45.78818" lon="4.6514">
        <ele>540.47192</ele>
        <time>2023-09-30T07:39:29.000Z</time>
      </trkpt>
      <trkpt lat="45.78816" lon="4.65137">
        <ele>540.70038</ele>
        <time>2023-09-30T07:39:31.000Z</time>
      </trkpt>
      <trkpt lat="45.78814" lon="4.65134">
        <ele>540.97998</ele>
        <time>2023-09-30T07:39:33.000Z</time>
      </trkpt>
      <trkpt lat="45.78812" lon="4.65133">
        <ele>541.25525</ele>
        <time>2023-09-30T07:39:34.000Z</time>
      </trkpt>
      <trkpt lat="45.78811" lon="4.65131">
        <ele>541.53204</ele>
        <time>2023-09-30T07:39:35.000Z</time>
      </trkpt>
      <trkpt lat="45.78808" lon="4.65128">
        <ele>541.82141</ele>
        <time>2023-09-30T07:39:37.000Z</time>
      </trkpt>
      <trkpt lat="45.78807" lon="4.65126">
        <ele>542.17798</ele>
        <time>2023-09-30T07:39:38.000Z</time>
      </trkpt>
      <trkpt lat="45.78806" lon="4.65123">
        <ele>542.5285</ele>
        <time>2023-09-30T07:39:39.000Z</time>
      </trkpt>
      <trkpt lat="45.78805" lon="4.65121">
        <ele>542.86554</ele>
        <time>2023-09-30T07:39:40.000Z</time>
      </trkpt>
      <trkpt lat="45.78804" lon="4.65119">
        <ele>543.24603</ele>
        <time>2023-09-30T07:39:41.000Z</time>
      </trkpt>
      <trkpt lat="45.78803" lon="4.65116">
        <ele>543.64392</ele>
        <time>2023-09-30T07:39:42.000Z</time>
      </trkpt>
      <trkpt lat="45.78802" lon="4.65113">
        <ele>543.92157</ele>
        <time>2023-09-30T07:39:43.000Z</time>
      </trkpt>
      <trkpt lat="45.78802" lon="4.6511">
        <ele>544.04968</ele>
        <time>2023-09-30T07:39:44.000Z</time>
      </trkpt>
      <trkpt lat="45.78801" lon="4.65107">
        <ele>543.7738</ele>
        <time>2023-09-30T07:39:45.000Z</time>
      </trkpt>
      <trkpt lat="45.788" lon="4.65104">
        <ele>543.5105</ele>
        <time>2023-09-30T07:39:46.000Z</time>
      </trkpt>
      <trkpt lat="45.78799" lon="4.65101">
        <ele>543.58319</ele>
        <time>2023-09-30T07:39:47.000Z</time>
      </trkpt>
      <trkpt lat="45.78797" lon="4.65098">
        <ele>543.62854</ele>
        <time>2023-09-30T07:39:49.000Z</time>
      </trkpt>
      <trkpt lat="45.78795" lon="4.65097">
        <ele>544.31506</ele>
        <time>2023-09-30T07:39:59.000Z</time>
      </trkpt>
      <trkpt lat="45.78794" lon="4.65094">
        <ele>545.06921</ele>
        <time>2023-09-30T07:40:03.000Z</time>
      </trkpt>
      <trkpt lat="45.78792" lon="4.65092">
        <ele>545.03082</ele>
        <time>2023-09-30T07:40:15.000Z</time>
      </trkpt>
      <trkpt lat="45.78791" lon="4.6509">
        <ele>545.13635</ele>
        <time>2023-09-30T07:40:18.000Z</time>
      </trkpt>
      <trkpt lat="45.78789" lon="4.65088">
        <ele>545.52649</ele>
        <time>2023-09-30T07:42:23.000Z</time>
      </trkpt>
      <trkpt lat="45.78788" lon="4.65084">
        <ele>545.87976</ele>
        <time>2023-09-30T07:42:25.000Z</time>
      </trkpt>
      <trkpt lat="45.78787" lon="4.65081">
        <ele>546.05859</ele>
        <time>2023-09-30T07:42:27.000Z</time>
      </trkpt>
      <trkpt lat="45.78785" lon="4.65078">
        <ele>546.20575</ele>
        <time>2023-09-30T07:42:29.000Z</time>
      </trkpt>
      <trkpt lat="45.78783" lon="4.65076">
        <ele>546.35229</ele>
        <time>2023-09-30T07:42:31.000Z</time>
      </trkpt>
      <trkpt lat="45.78782" lon="4.65075">
        <ele>546.4856</ele>
        <time>2023-09-30T07:42:33.000Z</time>
      </trkpt>
      <trkpt lat="45.7878" lon="4.65074">
        <ele>546.55341</ele>
        <time>2023-09-30T07:42:39.000Z</time>
      </trkpt>
      <trkpt lat="45.78778" lon="4.6507">
        <ele>546.67438</ele>
        <time>2023-09-30T07:42:41.000Z</time>
      </trkpt>
      <trkpt lat="45.78776" lon="4.65066">
        <ele>546.84436</ele>
        <time>2023-09-30T07:42:43.000Z</time>
      </trkpt>
      <trkpt lat="45.78775" lon="4.65064">
        <ele>547.00452</ele>
        <time>2023-09-30T07:42:44.000Z</time>
      </trkpt>
      <trkpt lat="45.78773" lon="4.65061">
        <ele>547.21387</ele>
        <time>2023-09-30T07:42:46.000Z</time>
      </trkpt>
      <trkpt lat="45.7877" lon="4.65058">
        <ele>547.56006</ele>
        <time>2023-09-30T07:42:48.000Z</time>
      </trkpt>
      <trkpt lat="45.78768" lon="4.65056">
        <ele>548.34998</ele>
        <time>2023-09-30T07:42:49.000Z</time>
      </trkpt>
      <trkpt lat="45.78766" lon="4.65055">
        <ele>549.11267</ele>
        <time>2023-09-30T07:42:50.000Z</time>
      </trkpt>
      <trkpt lat="45.78764" lon="4.65053">
        <ele>549.57507</ele>
        <time>2023-09-30T07:42:51.000Z</time>
      </trkpt>
      <trkpt lat="45.78763" lon="4.65051">
        <ele>550.11267</ele>
        <time>2023-09-30T07:42:52.000Z</time>
      </trkpt>
      <trkpt lat="45.78761" lon="4.65049">
        <ele>549.98676</ele>
        <time>2023-09-30T07:42:53.000Z</time>
      </trkpt>
      <trkpt lat="45.7876" lon="4.65047">
        <ele>549.81555</ele>
        <time>2023-09-30T07:42:54.000Z</time>
      </trkpt>
      <trkpt lat="45.78759" lon="4.65045">
        <ele>550.25354</ele>
        <time>2023-09-30T07:42:55.000Z</time>
      </trkpt>
      <trkpt lat="45.78757" lon="4.65043">
        <ele>550.49719</ele>
        <time>2023-09-30T07:42:56.000Z</time>
      </trkpt>
      <trkpt lat="45.78754" lon="4.65041">
        <ele>550.47009</ele>
        <time>2023-09-30T07:42:58.000Z</time>
      </trkpt>
      <trkpt lat="45.78751" lon="4.65038">
        <ele>550.53503</ele>
        <time>2023-09-30T07:43:00.000Z</time>
      </trkpt>
      <trkpt lat="45.78749" lon="4.65036">
        <ele>550.71265</ele>
        <time>2023-09-30T07:43:01.000Z</time>
      </trkpt>
      <trkpt lat="45.78747" lon="4.65034">
        <ele>550.7594</ele>
        <time>2023-09-30T07:43:02.000Z</time>
      </trkpt>
      <trkpt lat="45.78745" lon="4.65032">
        <ele>550.78943</ele>
        <time>2023-09-30T07:43:04.000Z</time>
      </trkpt>
      <trkpt lat="45.78743" lon="4.65031">
        <ele>551.09698</ele>
        <time>2023-09-30T07:43:08.000Z</time>
      </trkpt>
      <trkpt lat="45.78741" lon="4.65029">
        <ele>551.4325</ele>
        <time>2023-09-30T07:43:10.000Z</time>
      </trkpt>
      <trkpt lat="45.78737" lon="4.65028">
        <ele>551.74982</ele>
        <time>2023-09-30T07:43:12.000Z</time>
      </trkpt>
      <trkpt lat="45.78735" lon="4.65027">
        <ele>552.27753</ele>
        <time>2023-09-30T07:43:14.000Z</time>
      </trkpt>
      <trkpt lat="45.78733" lon="4.65027">
        <ele>552.81311</ele>
        <time>2023-09-30T07:43:17.000Z</time>
      </trkpt>
      <trkpt lat="45.7873" lon="4.65025">
        <ele>553.68677</ele>
        <time>2023-09-30T07:43:23.000Z</time>
      </trkpt>
      <trkpt lat="45.78728" lon="4.65024">
        <ele>554.52625</ele>
        <time>2023-09-30T07:43:24.000Z</time>
      </trkpt>
      <trkpt lat="45.78726" lon="4.65023">
        <ele>555.37207</ele>
        <time>2023-09-30T07:43:25.000Z</time>
      </trkpt>
      <trkpt lat="45.78724" lon="4.65023">
        <ele>556.18054</ele>
        <time>2023-09-30T07:43:26.000Z</time>
      </trkpt>
      <trkpt lat="45.78722" lon="4.65023">
        <ele>556.95093</ele>
        <time>2023-09-30T07:43:27.000Z</time>
      </trkpt>
      <trkpt lat="45.7872" lon="4.65023">
        <ele>557.71545</ele>
        <time>2023-09-30T07:43:28.000Z</time>
      </trkpt>
      <trkpt lat="45.78717" lon="4.65025">
        <ele>558.5014</ele>
        <time>2023-09-30T07:43:30.000Z</time>
      </trkpt>
      <trkpt lat="45.78715" lon="4.65026">
        <ele>559.24988</ele>
        <time>2023-09-30T07:43:31.000Z</time>
      </trkpt>
      <trkpt lat="45.78713" lon="4.65027">
        <ele>559.98901</ele>
        <time>2023-09-30T07:43:32.000Z</time>
      </trkpt>
      <trkpt lat="45.78711" lon="4.65027">
        <ele>560.69067</ele>
        <time>2023-09-30T07:43:33.000Z</time>
      </trkpt>
      <trkpt lat="45.78708" lon="4.65028">
        <ele>561.44476</ele>
        <time>2023-09-30T07:43:34.000Z</time>
      </trkpt>
      <trkpt lat="45.78705" lon="4.65029">
        <ele>562.1524</ele>
        <time>2023-09-30T07:43:35.000Z</time>
      </trkpt>
      <trkpt lat="45.78702" lon="4.6503">
        <ele>562.06146</ele>
        <time>2023-09-30T07:43:36.000Z</time>
      </trkpt>
      <trkpt lat="45.78698" lon="4.65029">
        <ele>563.12634</ele>
        <time>2023-09-30T07:43:37.000Z</time>
      </trkpt>
      <trkpt lat="45.78695" lon="4.65028">
        <ele>564.18762</ele>
        <time>2023-09-30T07:43:38.000Z</time>
      </trkpt>
      <trkpt lat="45.78692" lon="4.65028">
        <ele>563.80316</ele>
        <time>2023-09-30T07:43:39.000Z</time>
      </trkpt>
      <trkpt lat="45.78688" lon="4.65028">
        <ele>563.90619</ele>
        <time>2023-09-30T07:43:40.000Z</time>
      </trkpt>
      <trkpt lat="45.78685" lon="4.65027">
        <ele>563.87109</ele>
        <time>2023-09-30T07:43:41.000Z</time>
      </trkpt>
      <trkpt lat="45.78682" lon="4.65026">
        <ele>563.66223</ele>
        <time>2023-09-30T07:43:42.000Z</time>
      </trkpt>
      <trkpt lat="45.78678" lon="4.65023">
        <ele>563.41949</ele>
        <time>2023-09-30T07:43:43.000Z</time>
      </trkpt>
      <trkpt lat="45.78673" lon="4.65021">
        <ele>562.83124</ele>
        <time>2023-09-30T07:43:44.000Z</time>
      </trkpt>
      <trkpt lat="45.78669" lon="4.65019">
        <ele>562.17499</ele>
        <time>2023-09-30T07:43:45.000Z</time>
      </trkpt>
      <trkpt lat="45.78665" lon="4.65019">
        <ele>561.57617</ele>
        <time>2023-09-30T07:43:46.000Z</time>
      </trkpt>
      <trkpt lat="45.78662" lon="4.6502">
        <ele>561.03772</ele>
        <time>2023-09-30T07:43:47.000Z</time>
      </trkpt>
      <trkpt lat="45.78659" lon="4.65019">
        <ele>560.4978</ele>
        <time>2023-09-30T07:43:48.000Z</time>
      </trkpt>
      <trkpt lat="45.78656" lon="4.65018">
        <ele>560.00745</ele>
        <time>2023-09-30T07:43:49.000Z</time>
      </trkpt>
      <trkpt lat="45.78653" lon="4.65018">
        <ele>559.48413</ele>
        <time>2023-09-30T07:43:50.000Z</time>
      </trkpt>
      <trkpt lat="45.7865" lon="4.65018">
        <ele>558.95654</ele>
        <time>2023-09-30T07:43:51.000Z</time>
      </trkpt>
      <trkpt lat="45.78646" lon="4.65018">
        <ele>558.37091</ele>
        <time>2023-09-30T07:43:52.000Z</time>
      </trkpt>
      <trkpt lat="45.78642" lon="4.65018">
        <ele>557.80164</ele>
        <time>2023-09-30T07:43:53.000Z</time>
      </trkpt>
      <trkpt lat="45.78637" lon="4.65018">
        <ele>557.15039</ele>
        <time>2023-09-30T07:43:54.000Z</time>
      </trkpt>
      <trkpt lat="45.78634" lon="4.65018">
        <ele>556.46136</ele>
        <time>2023-09-30T07:43:55.000Z</time>
      </trkpt>
      <trkpt lat="45.7863" lon="4.65017">
        <ele>556.59821</ele>
        <time>2023-09-30T07:43:56.000Z</time>
      </trkpt>
      <trkpt lat="45.78626" lon="4.65015">
        <ele>555.77789</ele>
        <time>2023-09-30T07:43:57.000Z</time>
      </trkpt>
      <trkpt lat="45.78622" lon="4.65013">
        <ele>554.95251</ele>
        <time>2023-09-30T07:43:58.000Z</time>
      </trkpt>
      <trkpt lat="45.78619" lon="4.65011">
        <ele>555.28009</ele>
        <time>2023-09-30T07:43:59.000Z</time>
      </trkpt>
      <trkpt lat="45.78616" lon="4.6501">
        <ele>555.15973</ele>
        <time>2023-09-30T07:44:00.000Z</time>
      </trkpt>
      <trkpt lat="45.78614" lon="4.65009">
        <ele>555.12897</ele>
        <time>2023-09-30T07:44:01.000Z</time>
      </trkpt>
      <trkpt lat="45.78611" lon="4.65007">
        <ele>555.10339</ele>
        <time>2023-09-30T07:44:02.000Z</time>
      </trkpt>
      <trkpt lat="45.78609" lon="4.65006">
        <ele>555.09235</ele>
        <time>2023-09-30T07:44:03.000Z</time>
      </trkpt>
      <trkpt lat="45.78607" lon="4.65004">
        <ele>549.33722</ele>
        <time>2023-09-30T07:44:04.000Z</time>
      </trkpt>
      <trkpt lat="45.78604" lon="4.65003">
        <ele>549.12921</ele>
        <time>2023-09-30T07:44:05.000Z</time>
      </trkpt>
      <trkpt lat="45.78602" lon="4.65001">
        <ele>548.84344</ele>
        <time>2023-09-30T07:44:06.000Z</time>
      </trkpt>
      <trkpt lat="45.786" lon="4.65">
        <ele>548.49774</ele>
        <time>2023-09-30T07:44:07.000Z</time>
      </trkpt>
      <trkpt lat="45.78598" lon="4.64999">
        <ele>548.14465</ele>
        <time>2023-09-30T07:44:08.000Z</time>
      </trkpt>
      <trkpt lat="45.78596" lon="4.64998">
        <ele>547.70337</ele>
        <time>2023-09-30T07:44:09.000Z</time>
      </trkpt>
      <trkpt lat="45.78594" lon="4.64996">
        <ele>543.09943</ele>
        <time>2023-09-30T07:44:10.000Z</time>
      </trkpt>
      <trkpt lat="45.78592" lon="4.64994">
        <ele>542.46625</ele>
        <time>2023-09-30T07:44:11.000Z</time>
      </trkpt>
      <trkpt lat="45.7859" lon="4.64993">
        <ele>541.85297</ele>
        <time>2023-09-30T07:44:12.000Z</time>
      </trkpt>
      <trkpt lat="45.78588" lon="4.64991">
        <ele>541.19495</ele>
        <time>2023-09-30T07:44:13.000Z</time>
      </trkpt>
      <trkpt lat="45.78585" lon="4.64989">
        <ele>540.52063</ele>
        <time>2023-09-30T07:44:15.000Z</time>
      </trkpt>
      <trkpt lat="45.78583" lon="4.64988">
        <ele>534.56543</ele>
        <time>2023-09-30T07:44:16.000Z</time>
      </trkpt>
      <trkpt lat="45.7858" lon="4.64986">
        <ele>533.6012</ele>
        <time>2023-09-30T07:44:18.000Z</time>
      </trkpt>
      <trkpt lat="45.78577" lon="4.64983">
        <ele>532.52075</ele>
        <time>2023-09-30T07:44:20.000Z</time>
      </trkpt>
      <trkpt lat="45.78575" lon="4.64981">
        <ele>531.37756</ele>
        <time>2023-09-30T07:44:21.000Z</time>
      </trkpt>
      <trkpt lat="45.78572" lon="4.64979">
        <ele>525.87891</ele>
        <time>2023-09-30T07:44:22.000Z</time>
      </trkpt>
      <trkpt lat="45.78568" lon="4.64977">
        <ele>524.40881</ele>
        <time>2023-09-30T07:44:23.000Z</time>
      </trkpt>
      <trkpt lat="45.78565" lon="4.64977">
        <ele>522.87128</ele>
        <time>2023-09-30T07:44:24.000Z</time>
      </trkpt>
      <trkpt lat="45.78562" lon="4.64976">
        <ele>521.25842</ele>
        <time>2023-09-30T07:44:25.000Z</time>
      </trkpt>
      <trkpt lat="45.7856" lon="4.64975">
        <ele>519.56616</ele>
        <time>2023-09-30T07:44:26.000Z</time>
      </trkpt>
      <trkpt lat="45.78557" lon="4.64974">
        <ele>518.47565</ele>
        <time>2023-09-30T07:44:28.000Z</time>
      </trkpt>
      <trkpt lat="45.78555" lon="4.64974">
        <ele>516.93256</ele>
        <time>2023-09-30T07:44:29.000Z</time>
      </trkpt>
      <trkpt lat="45.78553" lon="4.64974">
        <ele>515.32275</ele>
        <time>2023-09-30T07:44:30.000Z</time>
      </trkpt>
      <trkpt lat="45.7855" lon="4.64975">
        <ele>513.64667</ele>
        <time>2023-09-30T07:44:31.000Z</time>
      </trkpt>
      <trkpt lat="45.78546" lon="4.64975">
        <ele>511.90411</ele>
        <time>2023-09-30T07:44:32.000Z</time>
      </trkpt>
      <trkpt lat="45.78542" lon="4.64976">
        <ele>510.0921</ele>
        <time>2023-09-30T07:44:33.000Z</time>
      </trkpt>
      <trkpt lat="45.78539" lon="4.64977">
        <ele>512.18427</ele>
        <time>2023-09-30T07:44:34.000Z</time>
      </trkpt>
      <trkpt lat="45.78536" lon="4.64978">
        <ele>511.77704</ele>
        <time>2023-09-30T07:44:35.000Z</time>
      </trkpt>
      <trkpt lat="45.78533" lon="4.64979">
        <ele>510.24261</ele>
        <time>2023-09-30T07:44:36.000Z</time>
      </trkpt>
      <trkpt lat="45.78529" lon="4.6498">
        <ele>508.66211</ele>
        <time>2023-09-30T07:44:37.000Z</time>
      </trkpt>
      <trkpt lat="45.78526" lon="4.64981">
        <ele>507.03546</ele>
        <time>2023-09-30T07:44:38.000Z</time>
      </trkpt>
      <trkpt lat="45.78523" lon="4.64983">
        <ele>510.63687</ele>
        <time>2023-09-30T07:44:39.000Z</time>
      </trkpt>
      <trkpt lat="45.78519" lon="4.64985">
        <ele>509.44043</ele>
        <time>2023-09-30T07:44:40.000Z</time>
      </trkpt>
      <trkpt lat="45.78515" lon="4.64986">
        <ele>511.55991</ele>
        <time>2023-09-30T07:44:41.000Z</time>
      </trkpt>
      <trkpt lat="45.78511" lon="4.64987">
        <ele>510.51187</ele>
        <time>2023-09-30T07:44:42.000Z</time>
      </trkpt>
      <trkpt lat="45.78507" lon="4.64987">
        <ele>513.78845</ele>
        <time>2023-09-30T07:44:43.000Z</time>
      </trkpt>
      <trkpt lat="45.78504" lon="4.64988">
        <ele>513.18396</ele>
        <time>2023-09-30T07:44:44.000Z</time>
      </trkpt>
      <trkpt lat="45.78501" lon="4.64989">
        <ele>512.62268</ele>
        <time>2023-09-30T07:44:45.000Z</time>
      </trkpt>
      <trkpt lat="45.78498" lon="4.64989">
        <ele>512.11023</ele>
        <time>2023-09-30T07:44:46.000Z</time>
      </trkpt>
      <trkpt lat="45.78494" lon="4.6499">
        <ele>515.36591</ele>
        <time>2023-09-30T07:44:47.000Z</time>
      </trkpt>
      <trkpt lat="45.7849" lon="4.6499">
        <ele>520.2619</ele>
        <time>2023-09-30T07:44:48.000Z</time>
      </trkpt>
      <trkpt lat="45.78487" lon="4.6499">
        <ele>520.3512</ele>
        <time>2023-09-30T07:44:49.000Z</time>
      </trkpt>
      <trkpt lat="45.78484" lon="4.6499">
        <ele>520.52216</ele>
        <time>2023-09-30T07:44:50.000Z</time>
      </trkpt>
      <trkpt lat="45.78482" lon="4.64991">
        <ele>520.78217</ele>
        <time>2023-09-30T07:44:51.000Z</time>
      </trkpt>
      <trkpt lat="45.78478" lon="4.64989">
        <ele>524.66125</ele>
        <time>2023-09-30T07:44:53.000Z</time>
      </trkpt>
      <trkpt lat="45.78477" lon="4.64988">
        <ele>525.29913</ele>
        <time>2023-09-30T07:44:54.000Z</time>
      </trkpt>
      <trkpt lat="45.78475" lon="4.64987">
        <ele>526.25122</ele>
        <time>2023-09-30T07:44:55.000Z</time>
      </trkpt>
      <trkpt lat="45.78472" lon="4.64987">
        <ele>525.81604</ele>
        <time>2023-09-30T07:44:56.000Z</time>
      </trkpt>
      <trkpt lat="45.78469" lon="4.64987">
        <ele>526.51794</ele>
        <time>2023-09-30T07:44:57.000Z</time>
      </trkpt>
      <trkpt lat="45.78467" lon="4.64987">
        <ele>527.33173</ele>
        <time>2023-09-30T07:44:58.000Z</time>
      </trkpt>
      <trkpt lat="45.78464" lon="4.64988">
        <ele>531.57062</ele>
        <time>2023-09-30T07:44:59.000Z</time>
      </trkpt>
      <trkpt lat="45.78462" lon="4.64989">
        <ele>532.79736</ele>
        <time>2023-09-30T07:45:00.000Z</time>
      </trkpt>
      <trkpt lat="45.78459" lon="4.64989">
        <ele>533.9054</ele>
        <time>2023-09-30T07:45:01.000Z</time>
      </trkpt>
      <trkpt lat="45.78455" lon="4.64989">
        <ele>531.80109</ele>
        <time>2023-09-30T07:45:02.000Z</time>
      </trkpt>
      <trkpt lat="45.78452" lon="4.64987">
        <ele>532.81311</ele>
        <time>2023-09-30T07:45:03.000Z</time>
      </trkpt>
      <trkpt lat="45.7845" lon="4.64987">
        <ele>533.92822</ele>
        <time>2023-09-30T07:45:04.000Z</time>
      </trkpt>
      <trkpt lat="45.78448" lon="4.64986">
        <ele>531.5191</ele>
        <time>2023-09-30T07:45:05.000Z</time>
      </trkpt>
      <trkpt lat="45.78446" lon="4.64986">
        <ele>532.43591</ele>
        <time>2023-09-30T07:45:06.000Z</time>
      </trkpt>
      <trkpt lat="45.78442" lon="4.64985">
        <ele>533.42651</ele>
        <time>2023-09-30T07:45:07.000Z</time>
      </trkpt>
      <trkpt lat="45.78439" lon="4.64985">
        <ele>530.77924</ele>
        <time>2023-09-30T07:45:08.000Z</time>
      </trkpt>
      <trkpt lat="45.78436" lon="4.64985">
        <ele>531.54993</ele>
        <time>2023-09-30T07:45:09.000Z</time>
      </trkpt>
      <trkpt lat="45.78434" lon="4.64985">
        <ele>532.11432</ele>
        <time>2023-09-30T07:45:10.000Z</time>
      </trkpt>
      <trkpt lat="45.78432" lon="4.64985">
        <ele>529.33655</ele>
        <time>2023-09-30T07:45:11.000Z</time>
      </trkpt>
      <trkpt lat="45.78429" lon="4.64984">
        <ele>529.77728</ele>
        <time>2023-09-30T07:45:12.000Z</time>
      </trkpt>
      <trkpt lat="45.78426" lon="4.64983">
        <ele>526.70471</ele>
        <time>2023-09-30T07:45:13.000Z</time>
      </trkpt>
      <trkpt lat="45.78423" lon="4.64982">
        <ele>526.80695</ele>
        <time>2023-09-30T07:45:14.000Z</time>
      </trkpt>
      <trkpt lat="45.78421" lon="4.64981">
        <ele>526.88232</ele>
        <time>2023-09-30T07:45:15.000Z</time>
      </trkpt>
      <trkpt lat="45.78418" lon="4.64981">
        <ele>526.91388</ele>
        <time>2023-09-30T07:45:16.000Z</time>
      </trkpt>
      <trkpt lat="45.78415" lon="4.6498">
        <ele>524.38293</ele>
        <time>2023-09-30T07:45:17.000Z</time>
      </trkpt>
      <trkpt lat="45.78412" lon="4.64979">
        <ele>524.27618</ele>
        <time>2023-09-30T07:45:19.000Z</time>
      </trkpt>
      <trkpt lat="45.78409" lon="4.64976">
        <ele>520.81799</ele>
        <time>2023-09-30T07:45:21.000Z</time>
      </trkpt>
      <trkpt lat="45.78408" lon="4.64974">
        <ele>520.2804</ele>
        <time>2023-09-30T07:45:22.000Z</time>
      </trkpt>
      <trkpt lat="45.78406" lon="4.64971">
        <ele>515.16461</ele>
        <time>2023-09-30T07:45:24.000Z</time>
      </trkpt>
      <trkpt lat="45.78403" lon="4.6497">
        <ele>514.2276</ele>
        <time>2023-09-30T07:45:26.000Z</time>
      </trkpt>
      <trkpt lat="45.784" lon="4.6497">
        <ele>513.34894</ele>
        <time>2023-09-30T07:45:29.000Z</time>
      </trkpt>
      <trkpt lat="45.78399" lon="4.64969">
        <ele>508.98038</ele>
        <time>2023-09-30T07:45:31.000Z</time>
      </trkpt>
      <trkpt lat="45.78397" lon="4.64966">
        <ele>511.14911</ele>
        <time>2023-09-30T07:45:34.000Z</time>
      </trkpt>
      <trkpt lat="45.78396" lon="4.64964">
        <ele>510.74237</ele>
        <time>2023-09-30T07:45:37.000Z</time>
      </trkpt>
      <trkpt lat="45.78395" lon="4.64962">
        <ele>509.80118</ele>
        <time>2023-09-30T07:45:39.000Z</time>
      </trkpt>
      <trkpt lat="45.78393" lon="4.64959">
        <ele>508.81689</ele>
        <time>2023-09-30T07:45:41.000Z</time>
      </trkpt>
      <trkpt lat="45.78391" lon="4.64958">
        <ele>508.03891</ele>
        <time>2023-09-30T07:45:44.000Z</time>
      </trkpt>
      <trkpt lat="45.7839" lon="4.64956">
        <ele>507.22348</ele>
        <time>2023-09-30T07:45:47.000Z</time>
      </trkpt>
      <trkpt lat="45.78389" lon="4.64953">
        <ele>509.76074</ele>
        <time>2023-09-30T07:45:50.000Z</time>
      </trkpt>
      <trkpt lat="45.78388" lon="4.6495">
        <ele>509.08261</ele>
        <time>2023-09-30T07:45:53.000Z</time>
      </trkpt>
      <trkpt lat="45.78388" lon="4.64947">
        <ele>508.04791</ele>
        <time>2023-09-30T07:45:55.000Z</time>
      </trkpt>
      <trkpt lat="45.78388" lon="4.64944">
        <ele>507.51221</ele>
        <time>2023-09-30T07:46:00.000Z</time>
      </trkpt>
      <trkpt lat="45.78387" lon="4.64941">
        <ele>505.62085</ele>
        <time>2023-09-30T07:46:12.000Z</time>
      </trkpt>
      <trkpt lat="45.78387" lon="4.64937">
        <ele>505.12613</ele>
        <time>2023-09-30T07:46:56.000Z</time>
      </trkpt>
      <trkpt lat="45.78388" lon="4.64934">
        <ele>506.62256</ele>
        <time>2023-09-30T07:46:57.000Z</time>
      </trkpt>
      <trkpt lat="45.78388" lon="4.6493">
        <ele>505.73456</ele>
        <time>2023-09-30T07:46:59.000Z</time>
      </trkpt>
      <trkpt lat="45.78388" lon="4.64928">
        <ele>504.80746</ele>
        <time>2023-09-30T07:47:00.000Z</time>
      </trkpt>
      <trkpt lat="45.78388" lon="4.64925">
        <ele>504.00693</ele>
        <time>2023-09-30T07:47:01.000Z</time>
      </trkpt>
      <trkpt lat="45.78387" lon="4.64922">
        <ele>509.80844</ele>
        <time>2023-09-30T07:47:02.000Z</time>
      </trkpt>
      <trkpt lat="45.78387" lon="4.6492">
        <ele>509.54062</ele>
        <time>2023-09-30T07:47:03.000Z</time>
      </trkpt>
      <trkpt lat="45.78386" lon="4.64915">
        <ele>510.36752</ele>
        <time>2023-09-30T07:47:05.000Z</time>
      </trkpt>
      <trkpt lat="45.78385" lon="4.64912">
        <ele>514.646</ele>
        <time>2023-09-30T07:47:06.000Z</time>
      </trkpt>
      <trkpt lat="45.78385" lon="4.6491">
        <ele>515.74701</ele>
        <time>2023-09-30T07:47:07.000Z</time>
      </trkpt>
      <trkpt lat="45.78384" lon="4.64906">
        <ele>516.10474</ele>
        <time>2023-09-30T07:47:09.000Z</time>
      </trkpt>
      <trkpt lat="45.78382" lon="4.64901">
        <ele>516.94086</ele>
        <time>2023-09-30T07:47:11.000Z</time>
      </trkpt>
      <trkpt lat="45.78381" lon="4.64898">
        <ele>517.75012</ele>
        <time>2023-09-30T07:47:12.000Z</time>
      </trkpt>
      <trkpt lat="45.7838" lon="4.64895">
        <ele>518.47113</ele>
        <time>2023-09-30T07:47:13.000Z</time>
      </trkpt>
      <trkpt lat="45.78378" lon="4.64892">
        <ele>518.63263</ele>
        <time>2023-09-30T07:47:14.000Z</time>
      </trkpt>
      <trkpt lat="45.78377" lon="4.64889">
        <ele>517.2934</ele>
        <time>2023-09-30T07:47:15.000Z</time>
      </trkpt>
      <trkpt lat="45.78376" lon="4.64886">
        <ele>515.98608</ele>
        <time>2023-09-30T07:47:16.000Z</time>
      </trkpt>
      <trkpt lat="45.78375" lon="4.64884">
        <ele>515.02252</ele>
        <time>2023-09-30T07:47:17.000Z</time>
      </trkpt>
      <trkpt lat="45.78375" lon="4.6488">
        <ele>514.97406</ele>
        <time>2023-09-30T07:47:18.000Z</time>
      </trkpt>
      <trkpt lat="45.78375" lon="4.64877">
        <ele>516.2738</ele>
        <time>2023-09-30T07:47:19.000Z</time>
      </trkpt>
      <trkpt lat="45.78376" lon="4.64873">
        <ele>516.28723</ele>
        <time>2023-09-30T07:47:20.000Z</time>
      </trkpt>
      <trkpt lat="45.78376" lon="4.64868">
        <ele>516.37372</ele>
        <time>2023-09-30T07:47:21.000Z</time>
      </trkpt>
      <trkpt lat="45.78376" lon="4.64863">
        <ele>515.95703</ele>
        <time>2023-09-30T07:47:22.000Z</time>
      </trkpt>
      <trkpt lat="45.78377" lon="4.64859">
        <ele>515.59039</ele>
        <time>2023-09-30T07:47:23.000Z</time>
      </trkpt>
      <trkpt lat="45.78377" lon="4.64856">
        <ele>515.91766</ele>
        <time>2023-09-30T07:47:24.000Z</time>
      </trkpt>
      <trkpt lat="45.78377" lon="4.64851">
        <ele>513.86938</ele>
        <time>2023-09-30T07:47:25.000Z</time>
      </trkpt>
      <trkpt lat="45.78377" lon="4.64847">
        <ele>513.13562</ele>
        <time>2023-09-30T07:47:26.000Z</time>
      </trkpt>
      <trkpt lat="45.78377" lon="4.64843">
        <ele>511.43564</ele>
        <time>2023-09-30T07:47:27.000Z</time>
      </trkpt>
      <trkpt lat="45.78378" lon="4.64838">
        <ele>509.64325</ele>
        <time>2023-09-30T07:47:28.000Z</time>
      </trkpt>
      <trkpt lat="45.78378" lon="4.64834">
        <ele>507.33945</ele>
        <time>2023-09-30T07:47:29.000Z</time>
      </trkpt>
      <trkpt lat="45.78377" lon="4.6483">
        <ele>504.93564</ele>
        <time>2023-09-30T07:47:30.000Z</time>
      </trkpt>
      <trkpt lat="45.78377" lon="4.64826">
        <ele>502.46231</ele>
        <time>2023-09-30T07:47:31.000Z</time>
      </trkpt>
      <trkpt lat="45.78376" lon="4.64821">
        <ele>499.64111</ele>
        <time>2023-09-30T07:47:32.000Z</time>
      </trkpt>
      <trkpt lat="45.78376" lon="4.64817">
        <ele>497.20468</ele>
        <time>2023-09-30T07:47:33.000Z</time>
      </trkpt>
      <trkpt lat="45.78375" lon="4.64813">
        <ele>495.694</ele>
        <time>2023-09-30T07:47:34.000Z</time>
      </trkpt>
      <trkpt lat="45.78374" lon="4.64809">
        <ele>494.98438</ele>
        <time>2023-09-30T07:47:35.000Z</time>
      </trkpt>
      <trkpt lat="45.78373" lon="4.64804">
        <ele>494.64014</ele>
        <time>2023-09-30T07:47:36.000Z</time>
      </trkpt>
      <trkpt lat="45.78371" lon="4.648">
        <ele>494.72296</ele>
        <time>2023-09-30T07:47:37.000Z</time>
      </trkpt>
      <trkpt lat="45.78369" lon="4.64796">
        <ele>494.34106</ele>
        <time>2023-09-30T07:47:38.000Z</time>
      </trkpt>
      <trkpt lat="45.78367" lon="4.64792">
        <ele>493.66983</ele>
        <time>2023-09-30T07:47:39.000Z</time>
      </trkpt>
      <trkpt lat="45.78365" lon="4.64788">
        <ele>492.61163</ele>
        <time>2023-09-30T07:47:40.000Z</time>
      </trkpt>
      <trkpt lat="45.78363" lon="4.64784">
        <ele>491.89941</ele>
        <time>2023-09-30T07:47:41.000Z</time>
      </trkpt>
      <trkpt lat="45.78362" lon="4.6478">
        <ele>491.57993</ele>
        <time>2023-09-30T07:47:42.000Z</time>
      </trkpt>
      <trkpt lat="45.7836" lon="4.64775">
        <ele>491.23886</ele>
        <time>2023-09-30T07:47:43.000Z</time>
      </trkpt>
      <trkpt lat="45.78359" lon="4.6477">
        <ele>490.23315</ele>
        <time>2023-09-30T07:47:44.000Z</time>
      </trkpt>
      <trkpt lat="45.78358" lon="4.64766">
        <ele>489.46753</ele>
        <time>2023-09-30T07:47:45.000Z</time>
      </trkpt>
      <trkpt lat="45.78356" lon="4.64763">
        <ele>493.62045</ele>
        <time>2023-09-30T07:47:46.000Z</time>
      </trkpt>
      <trkpt lat="45.78354" lon="4.64759">
        <ele>493.4632</ele>
        <time>2023-09-30T07:47:47.000Z</time>
      </trkpt>
      <trkpt lat="45.78352" lon="4.64756">
        <ele>493.37811</ele>
        <time>2023-09-30T07:47:48.000Z</time>
      </trkpt>
      <trkpt lat="45.7835" lon="4.64754">
        <ele>493.80078</ele>
        <time>2023-09-30T07:47:49.000Z</time>
      </trkpt>
      <trkpt lat="45.78347" lon="4.64752">
        <ele>494.36768</ele>
        <time>2023-09-30T07:47:50.000Z</time>
      </trkpt>
      <trkpt lat="45.78345" lon="4.64751">
        <ele>495.04266</ele>
        <time>2023-09-30T07:47:51.000Z</time>
      </trkpt>
      <trkpt lat="45.78342" lon="4.64748">
        <ele>499.73004</ele>
        <time>2023-09-30T07:47:52.000Z</time>
      </trkpt>
      <trkpt lat="45.78339" lon="4.64745">
        <ele>500.67096</ele>
        <time>2023-09-30T07:47:53.000Z</time>
      </trkpt>
      <trkpt lat="45.78337" lon="4.64742">
        <ele>501.29166</ele>
        <time>2023-09-30T07:47:54.000Z</time>
      </trkpt>
      <trkpt lat="45.78335" lon="4.64739">
        <ele>502.62799</ele>
        <time>2023-09-30T07:47:55.000Z</time>
      </trkpt>
      <trkpt lat="45.78333" lon="4.64736">
        <ele>503.62222</ele>
        <time>2023-09-30T07:47:56.000Z</time>
      </trkpt>
      <trkpt lat="45.78331" lon="4.64733">
        <ele>504.22992</ele>
        <time>2023-09-30T07:47:57.000Z</time>
      </trkpt>
      <trkpt lat="45.78329" lon="4.64729">
        <ele>507.50934</ele>
        <time>2023-09-30T07:47:58.000Z</time>
      </trkpt>
      <trkpt lat="45.78327" lon="4.64725">
        <ele>507.80737</ele>
        <time>2023-09-30T07:47:59.000Z</time>
      </trkpt>
      <trkpt lat="45.78326" lon="4.64722">
        <ele>508.39313</ele>
        <time>2023-09-30T07:48:00.000Z</time>
      </trkpt>
      <trkpt lat="45.78324" lon="4.64719">
        <ele>509.18222</ele>
        <time>2023-09-30T07:48:01.000Z</time>
      </trkpt>
      <trkpt lat="45.78322" lon="4.64717">
        <ele>510.04639</ele>
        <time>2023-09-30T07:48:02.000Z</time>
      </trkpt>
      <trkpt lat="45.78319" lon="4.64715">
        <ele>510.96973</ele>
        <time>2023-09-30T07:48:03.000Z</time>
      </trkpt>
      <trkpt lat="45.78316" lon="4.64713">
        <ele>515.23535</ele>
        <time>2023-09-30T07:48:04.000Z</time>
      </trkpt>
      <trkpt lat="45.78314" lon="4.64711">
        <ele>516.48547</ele>
        <time>2023-09-30T07:48:05.000Z</time>
      </trkpt>
      <trkpt lat="45.78312" lon="4.6471">
        <ele>513.40009</ele>
        <time>2023-09-30T07:48:06.000Z</time>
      </trkpt>
      <trkpt lat="45.7831" lon="4.64708">
        <ele>514.3891</ele>
        <time>2023-09-30T07:48:07.000Z</time>
      </trkpt>
      <trkpt lat="45.78309" lon="4.64706">
        <ele>515.43542</ele>
        <time>2023-09-30T07:48:08.000Z</time>
      </trkpt>
      <trkpt lat="45.78307" lon="4.64704">
        <ele>516.53827</ele>
        <time>2023-09-30T07:48:09.000Z</time>
      </trkpt>
      <trkpt lat="45.78305" lon="4.64701">
        <ele>520.72742</ele>
        <time>2023-09-30T07:48:10.000Z</time>
      </trkpt>
      <trkpt lat="45.78304" lon="4.64699">
        <ele>522.04547</ele>
        <time>2023-09-30T07:48:11.000Z</time>
      </trkpt>
      <trkpt lat="45.78302" lon="4.64697">
        <ele>519.78528</ele>
        <time>2023-09-30T07:48:12.000Z</time>
      </trkpt>
      <trkpt lat="45.78301" lon="4.64694">
        <ele>520.78802</ele>
        <time>2023-09-30T07:48:13.000Z</time>
      </trkpt>
      <trkpt lat="45.78299" lon="4.64691">
        <ele>521.79388</ele>
        <time>2023-09-30T07:48:14.000Z</time>
      </trkpt>
      <trkpt lat="45.78297" lon="4.64688">
        <ele>522.81897</ele>
        <time>2023-09-30T07:48:15.000Z</time>
      </trkpt>
      <trkpt lat="45.78296" lon="4.64685">
        <ele>526.93738</ele>
        <time>2023-09-30T07:48:16.000Z</time>
      </trkpt>
      <trkpt lat="45.78294" lon="4.64683">
        <ele>528.10315</ele>
        <time>2023-09-30T07:48:17.000Z</time>
      </trkpt>
      <trkpt lat="45.78293" lon="4.6468">
        <ele>525.85974</ele>
        <time>2023-09-30T07:48:18.000Z</time>
      </trkpt>
      <trkpt lat="45.78292" lon="4.64678">
        <ele>526.77722</ele>
        <time>2023-09-30T07:48:19.000Z</time>
      </trkpt>
      <trkpt lat="45.7829" lon="4.64676">
        <ele>527.72571</ele>
        <time>2023-09-30T07:48:20.000Z</time>
      </trkpt>
      <trkpt lat="45.78288" lon="4.64674">
        <ele>528.69226</ele>
        <time>2023-09-30T07:48:21.000Z</time>
      </trkpt>
      <trkpt lat="45.78286" lon="4.64673">
        <ele>532.5459</ele>
        <time>2023-09-30T07:48:22.000Z</time>
      </trkpt>
      <trkpt lat="45.78284" lon="4.64671">
        <ele>533.67084</ele>
        <time>2023-09-30T07:48:23.000Z</time>
      </trkpt>
      <trkpt lat="45.78282" lon="4.64669">
        <ele>531.52679</ele>
        <time>2023-09-30T07:48:24.000Z</time>
      </trkpt>
      <trkpt lat="45.7828" lon="4.64667">
        <ele>532.34137</ele>
        <time>2023-09-30T07:48:25.000Z</time>
      </trkpt>
      <trkpt lat="45.78278" lon="4.64665">
        <ele>533.13416</ele>
        <time>2023-09-30T07:48:26.000Z</time>
      </trkpt>
      <trkpt lat="45.78276" lon="4.64664">
        <ele>535.20831</ele>
        <time>2023-09-30T07:48:27.000Z</time>
      </trkpt>
      <trkpt lat="45.78274" lon="4.64662">
        <ele>536.96094</ele>
        <time>2023-09-30T07:48:28.000Z</time>
      </trkpt>
      <trkpt lat="45.78272" lon="4.6466">
        <ele>538.31702</ele>
        <time>2023-09-30T07:48:29.000Z</time>
      </trkpt>
      <trkpt lat="45.7827" lon="4.64658">
        <ele>537.16992</ele>
        <time>2023-09-30T07:48:30.000Z</time>
      </trkpt>
      <trkpt lat="45.78268" lon="4.64656">
        <ele>537.90167</ele>
        <time>2023-09-30T07:48:31.000Z</time>
      </trkpt>
      <trkpt lat="45.78265" lon="4.64653">
        <ele>538.69446</ele>
        <time>2023-09-30T07:48:32.000Z</time>
      </trkpt>
      <trkpt lat="45.78262" lon="4.6465">
        <ele>539.63989</ele>
        <time>2023-09-30T07:48:33.000Z</time>
      </trkpt>
      <trkpt lat="45.78258" lon="4.64646">
        <ele>540.58246</ele>
        <time>2023-09-30T07:48:34.000Z</time>
      </trkpt>
      <trkpt lat="45.78255" lon="4.64643">
        <ele>541.52185</ele>
        <time>2023-09-30T07:48:35.000Z</time>
      </trkpt>
      <trkpt lat="45.78252" lon="4.64639">
        <ele>539.34814</ele>
        <time>2023-09-30T07:48:36.000Z</time>
      </trkpt>
      <trkpt lat="45.78249" lon="4.64636">
        <ele>542.48657</ele>
        <time>2023-09-30T07:48:37.000Z</time>
      </trkpt>
      <trkpt lat="45.78246" lon="4.64633">
        <ele>543.20569</ele>
        <time>2023-09-30T07:48:38.000Z</time>
      </trkpt>
      <trkpt lat="45.78244" lon="4.64629">
        <ele>544.07306</ele>
        <time>2023-09-30T07:48:39.000Z</time>
      </trkpt>
      <trkpt lat="45.78241" lon="4.64626">
        <ele>544.93787</ele>
        <time>2023-09-30T07:48:40.000Z</time>
      </trkpt>
      <trkpt lat="45.78238" lon="4.64623">
        <ele>545.79846</ele>
        <time>2023-09-30T07:48:41.000Z</time>
      </trkpt>
      <trkpt lat="45.78235" lon="4.6462">
        <ele>543.77563</ele>
        <time>2023-09-30T07:48:42.000Z</time>
      </trkpt>
      <trkpt lat="45.78231" lon="4.64618">
        <ele>546.61804</ele>
        <time>2023-09-30T07:48:43.000Z</time>
      </trkpt>
      <trkpt lat="45.78227" lon="4.64617">
        <ele>547.26544</ele>
        <time>2023-09-30T07:48:44.000Z</time>
      </trkpt>
      <trkpt lat="45.78223" lon="4.64615">
        <ele>548.05237</ele>
        <time>2023-09-30T07:48:45.000Z</time>
      </trkpt>
      <trkpt lat="45.7822" lon="4.64613">
        <ele>548.83795</ele>
        <time>2023-09-30T07:48:46.000Z</time>
      </trkpt>
      <trkpt lat="45.78216" lon="4.64611">
        <ele>548.53571</ele>
        <time>2023-09-30T07:48:47.000Z</time>
      </trkpt>
      <trkpt lat="45.78213" lon="4.64609">
        <ele>549.18158</ele>
        <time>2023-09-30T07:48:48.000Z</time>
      </trkpt>
      <trkpt lat="45.7821" lon="4.64608">
        <ele>550.17023</ele>
        <time>2023-09-30T07:48:49.000Z</time>
      </trkpt>
      <trkpt lat="45.78208" lon="4.64605">
        <ele>550.02393</ele>
        <time>2023-09-30T07:48:50.000Z</time>
      </trkpt>
      <trkpt lat="45.78205" lon="4.64603">
        <ele>550.83655</ele>
        <time>2023-09-30T07:48:51.000Z</time>
      </trkpt>
      <trkpt lat="45.78203" lon="4.646">
        <ele>551.53333</ele>
        <time>2023-09-30T07:48:52.000Z</time>
      </trkpt>
      <trkpt lat="45.782" lon="4.64598">
        <ele>551.33118</ele>
        <time>2023-09-30T07:48:53.000Z</time>
      </trkpt>
      <trkpt lat="45.78198" lon="4.64595">
        <ele>551.09991</ele>
        <time>2023-09-30T07:48:54.000Z</time>
      </trkpt>
      <trkpt lat="45.78196" lon="4.64592">
        <ele>550.81348</ele>
        <time>2023-09-30T07:48:55.000Z</time>
      </trkpt>
      <trkpt lat="45.78194" lon="4.64588">
        <ele>550.47192</ele>
        <time>2023-09-30T07:48:57.000Z</time>
      </trkpt>
      <trkpt lat="45.78193" lon="4.64585">
        <ele>547.70416</ele>
        <time>2023-09-30T07:48:58.000Z</time>
      </trkpt>
      <trkpt lat="45.7819" lon="4.64582">
        <ele>547.30042</ele>
        <time>2023-09-30T07:48:59.000Z</time>
      </trkpt>
      <trkpt lat="45.78188" lon="4.6458">
        <ele>546.82434</ele>
        <time>2023-09-30T07:49:00.000Z</time>
      </trkpt>
      <trkpt lat="45.78185" lon="4.64577">
        <ele>546.35712</ele>
        <time>2023-09-30T07:49:01.000Z</time>
      </trkpt>
      <trkpt lat="45.78182" lon="4.64575">
        <ele>545.24182</ele>
        <time>2023-09-30T07:49:02.000Z</time>
      </trkpt>
      <trkpt lat="45.7818" lon="4.64572">
        <ele>544.03479</ele>
        <time>2023-09-30T07:49:03.000Z</time>
      </trkpt>
      <trkpt lat="45.78177" lon="4.6457">
        <ele>540.64294</ele>
        <time>2023-09-30T07:49:04.000Z</time>
      </trkpt>
      <trkpt lat="45.78174" lon="4.64568">
        <ele>539.46228</ele>
        <time>2023-09-30T07:49:05.000Z</time>
      </trkpt>
      <trkpt lat="45.78171" lon="4.64565">
        <ele>538.29865</ele>
        <time>2023-09-30T07:49:06.000Z</time>
      </trkpt>
      <trkpt lat="45.78169" lon="4.64564">
        <ele>537.09888</ele>
        <time>2023-09-30T07:49:07.000Z</time>
      </trkpt>
      <trkpt lat="45.78167" lon="4.64563">
        <ele>535.88275</ele>
        <time>2023-09-30T07:49:08.000Z</time>
      </trkpt>
      <trkpt lat="45.78164" lon="4.64562">
        <ele>534.03748</ele>
        <time>2023-09-30T07:49:09.000Z</time>
      </trkpt>
      <trkpt lat="45.78161" lon="4.64562">
        <ele>532.04413</ele>
        <time>2023-09-30T07:49:10.000Z</time>
      </trkpt>
      <trkpt lat="45.78158" lon="4.64562">
        <ele>530.73407</ele>
        <time>2023-09-30T07:49:11.000Z</time>
      </trkpt>
      <trkpt lat="45.78156" lon="4.6456">
        <ele>529.435</ele>
        <time>2023-09-30T07:49:12.000Z</time>
      </trkpt>
      <trkpt lat="45.78153" lon="4.64559">
        <ele>528.14417</ele>
        <time>2023-09-30T07:49:13.000Z</time>
      </trkpt>
      <trkpt lat="45.78151" lon="4.64556">
        <ele>527.28717</ele>
        <time>2023-09-30T07:49:14.000Z</time>
      </trkpt>
      <trkpt lat="45.78149" lon="4.64554">
        <ele>526.74084</ele>
        <time>2023-09-30T07:49:15.000Z</time>
      </trkpt>
      <trkpt lat="45.78148" lon="4.64551">
        <ele>525.90594</ele>
        <time>2023-09-30T07:49:16.000Z</time>
      </trkpt>
      <trkpt lat="45.78146" lon="4.64549">
        <ele>525.46674</ele>
        <time>2023-09-30T07:49:17.000Z</time>
      </trkpt>
      <trkpt lat="45.78144" lon="4.64547">
        <ele>525.02258</ele>
        <time>2023-09-30T07:49:18.000Z</time>
      </trkpt>
      <trkpt lat="45.78142" lon="4.64545">
        <ele>523.09143</ele>
        <time>2023-09-30T07:49:19.000Z</time>
      </trkpt>
      <trkpt lat="45.78141" lon="4.64544">
        <ele>522.56183</ele>
        <time>2023-09-30T07:49:20.000Z</time>
      </trkpt>
      <trkpt lat="45.78139" lon="4.64542">
        <ele>520.56641</ele>
        <time>2023-09-30T07:49:21.000Z</time>
      </trkpt>
      <trkpt lat="45.78137" lon="4.64541">
        <ele>520.46313</ele>
        <time>2023-09-30T07:49:22.000Z</time>
      </trkpt>
      <trkpt lat="45.78135" lon="4.64539">
        <ele>520.40344</ele>
        <time>2023-09-30T07:49:23.000Z</time>
      </trkpt>
      <trkpt lat="45.78134" lon="4.64537">
        <ele>520.3457</ele>
        <time>2023-09-30T07:49:24.000Z</time>
      </trkpt>
      <trkpt lat="45.78131" lon="4.64536">
        <ele>520.21277</ele>
        <time>2023-09-30T07:49:26.000Z</time>
      </trkpt>
      <trkpt lat="45.78129" lon="4.64535">
        <ele>518.91705</ele>
        <time>2023-09-30T07:49:32.000Z</time>
      </trkpt>
      <trkpt lat="45.78127" lon="4.64535">
        <ele>519.32727</ele>
        <time>2023-09-30T07:50:02.000Z</time>
      </trkpt>
      <trkpt lat="45.78125" lon="4.64533">
        <ele>519.72278</ele>
        <time>2023-09-30T07:50:05.000Z</time>
      </trkpt>
      <trkpt lat="45.78123" lon="4.64532">
        <ele>519.43628</ele>
        <time>2023-09-30T07:50:10.000Z</time>
      </trkpt>
      <trkpt lat="45.78121" lon="4.64531">
        <ele>522.88098</ele>
        <time>2023-09-30T07:50:13.000Z</time>
      </trkpt>
      <trkpt lat="45.78119" lon="4.6453">
        <ele>522.74927</ele>
        <time>2023-09-30T07:50:17.000Z</time>
      </trkpt>
      <trkpt lat="45.78121" lon="4.64532">
        <ele>525.36389</ele>
        <time>2023-09-30T07:50:28.000Z</time>
      </trkpt>
      <trkpt lat="45.78118" lon="4.64531">
        <ele>529.36578</ele>
        <time>2023-09-30T07:50:38.000Z</time>
      </trkpt>
      <trkpt lat="45.78116" lon="4.6453">
        <ele>529.95862</ele>
        <time>2023-09-30T07:50:40.000Z</time>
      </trkpt>
      <trkpt lat="45.78114" lon="4.64529">
        <ele>530.25214</ele>
        <time>2023-09-30T07:50:42.000Z</time>
      </trkpt>
      <trkpt lat="45.78111" lon="4.64527">
        <ele>534.53381</ele>
        <time>2023-09-30T07:50:44.000Z</time>
      </trkpt>
      <trkpt lat="45.78109" lon="4.64525">
        <ele>534.96521</ele>
        <time>2023-09-30T07:50:46.000Z</time>
      </trkpt>
      <trkpt lat="45.78107" lon="4.64522">
        <ele>535.44012</ele>
        <time>2023-09-30T07:50:48.000Z</time>
      </trkpt>
      <trkpt lat="45.78105" lon="4.64519">
        <ele>540.16022</ele>
        <time>2023-09-30T07:50:50.000Z</time>
      </trkpt>
      <trkpt lat="45.78103" lon="4.64517">
        <ele>541.01361</ele>
        <time>2023-09-30T07:50:51.000Z</time>
      </trkpt>
      <trkpt lat="45.78101" lon="4.64516">
        <ele>543.32324</ele>
        <time>2023-09-30T07:50:52.000Z</time>
      </trkpt>
      <trkpt lat="45.78098" lon="4.64515">
        <ele>544.46106</ele>
        <time>2023-09-30T07:50:53.000Z</time>
      </trkpt>
      <trkpt lat="45.78096" lon="4.64514">
        <ele>545.66101</ele>
        <time>2023-09-30T07:50:54.000Z</time>
      </trkpt>
      <trkpt lat="45.78092" lon="4.64513">
        <ele>542.09216</ele>
        <time>2023-09-30T07:50:56.000Z</time>
      </trkpt>
      <trkpt lat="45.7809" lon="4.64512">
        <ele>543.17944</ele>
        <time>2023-09-30T07:50:57.000Z</time>
      </trkpt>
      <trkpt lat="45.78088" lon="4.64511">
        <ele>545.43445</ele>
        <time>2023-09-30T07:50:58.000Z</time>
      </trkpt>
      <trkpt lat="45.78085" lon="4.64511">
        <ele>546.09308</ele>
        <time>2023-09-30T07:50:59.000Z</time>
      </trkpt>
      <trkpt lat="45.78083" lon="4.6451">
        <ele>546.77643</ele>
        <time>2023-09-30T07:51:00.000Z</time>
      </trkpt>
      <trkpt lat="45.7808" lon="4.6451">
        <ele>541.36707</ele>
        <time>2023-09-30T07:51:02.000Z</time>
      </trkpt>
      <trkpt lat="45.78076" lon="4.64508">
        <ele>538.86755</ele>
        <time>2023-09-30T07:51:04.000Z</time>
      </trkpt>
      <trkpt lat="45.78075" lon="4.64508">
        <ele>539.66687</ele>
        <time>2023-09-30T07:51:05.000Z</time>
      </trkpt>
      <trkpt lat="45.78072" lon="4.64507">
        <ele>537.75397</ele>
        <time>2023-09-30T07:51:06.000Z</time>
      </trkpt>
      <trkpt lat="45.7807" lon="4.64505">
        <ele>534.33868</ele>
        <time>2023-09-30T07:51:07.000Z</time>
      </trkpt>
      <trkpt lat="45.78067" lon="4.64502">
        <ele>528.435</ele>
        <time>2023-09-30T07:51:08.000Z</time>
      </trkpt>
      <trkpt lat="45.78064" lon="4.645">
        <ele>528.35876</ele>
        <time>2023-09-30T07:51:09.000Z</time>
      </trkpt>
      <trkpt lat="45.78061" lon="4.64497">
        <ele>524.58722</ele>
        <time>2023-09-30T07:51:10.000Z</time>
      </trkpt>
      <trkpt lat="45.78059" lon="4.64495">
        <ele>524.08984</ele>
        <time>2023-09-30T07:51:11.000Z</time>
      </trkpt>
      <trkpt lat="45.78056" lon="4.64492">
        <ele>523.54608</ele>
        <time>2023-09-30T07:51:13.000Z</time>
      </trkpt>
      <trkpt lat="45.78054" lon="4.64489">
        <ele>517.98291</ele>
        <time>2023-09-30T07:51:14.000Z</time>
      </trkpt>
      <trkpt lat="45.78052" lon="4.64487">
        <ele>516.87402</ele>
        <time>2023-09-30T07:51:15.000Z</time>
      </trkpt>
      <trkpt lat="45.7805" lon="4.64484">
        <ele>515.66705</ele>
        <time>2023-09-30T07:51:16.000Z</time>
      </trkpt>
      <trkpt lat="45.78049" lon="4.64481">
        <ele>514.28424</ele>
        <time>2023-09-30T07:51:17.000Z</time>
      </trkpt>
      <trkpt lat="45.78047" lon="4.64478">
        <ele>511.36221</ele>
        <time>2023-09-30T07:51:18.000Z</time>
      </trkpt>
      <trkpt lat="45.78045" lon="4.64475">
        <ele>514.479</ele>
        <time>2023-09-30T07:51:19.000Z</time>
      </trkpt>
      <trkpt lat="45.78043" lon="4.64473">
        <ele>511.77374</ele>
        <time>2023-09-30T07:51:20.000Z</time>
      </trkpt>
      <trkpt lat="45.78042" lon="4.6447">
        <ele>509.69434</ele>
        <time>2023-09-30T07:51:21.000Z</time>
      </trkpt>
      <trkpt lat="45.7804" lon="4.64468">
        <ele>507.90732</ele>
        <time>2023-09-30T07:51:22.000Z</time>
      </trkpt>
      <trkpt lat="45.78038" lon="4.64465">
        <ele>504.66376</ele>
        <time>2023-09-30T07:51:23.000Z</time>
      </trkpt>
      <trkpt lat="45.78037" lon="4.64463">
        <ele>508.81015</ele>
        <time>2023-09-30T07:51:24.000Z</time>
      </trkpt>
      <trkpt lat="45.78035" lon="4.64462">
        <ele>506.59442</ele>
        <time>2023-09-30T07:51:25.000Z</time>
      </trkpt>
      <trkpt lat="45.78033" lon="4.6446">
        <ele>504.9808</ele>
        <time>2023-09-30T07:51:26.000Z</time>
      </trkpt>
      <trkpt lat="45.78031" lon="4.64458">
        <ele>503.24649</ele>
        <time>2023-09-30T07:51:27.000Z</time>
      </trkpt>
      <trkpt lat="45.78029" lon="4.64456">
        <ele>501.52109</ele>
        <time>2023-09-30T07:51:28.000Z</time>
      </trkpt>
      <trkpt lat="45.78026" lon="4.64455">
        <ele>506.03253</ele>
        <time>2023-09-30T07:51:29.000Z</time>
      </trkpt>
      <trkpt lat="45.78024" lon="4.64454">
        <ele>504.91241</ele>
        <time>2023-09-30T07:51:30.000Z</time>
      </trkpt>
      <trkpt lat="45.78021" lon="4.64453">
        <ele>508.44501</ele>
        <time>2023-09-30T07:51:31.000Z</time>
      </trkpt>
      <trkpt lat="45.78019" lon="4.64452">
        <ele>507.63794</ele>
        <time>2023-09-30T07:51:32.000Z</time>
      </trkpt>
      <trkpt lat="45.78018" lon="4.64449">
        <ele>506.81534</ele>
        <time>2023-09-30T07:51:35.000Z</time>
      </trkpt>
      <trkpt lat="45.78017" lon="4.64447">
        <ele>511.88779</ele>
        <time>2023-09-30T07:53:35.000Z</time>
      </trkpt>
      <trkpt lat="45.78017" lon="4.64442">
        <ele>511.58307</ele>
        <time>2023-09-30T07:53:37.000Z</time>
      </trkpt>
      <trkpt lat="45.78017" lon="4.64437">
        <ele>511.31851</ele>
        <time>2023-09-30T07:53:39.000Z</time>
      </trkpt>
      <trkpt lat="45.78016" lon="4.64435">
        <ele>511.10107</ele>
        <time>2023-09-30T07:53:40.000Z</time>
      </trkpt>
      <trkpt lat="45.78015" lon="4.64433">
        <ele>516.88397</ele>
        <time>2023-09-30T07:53:41.000Z</time>
      </trkpt>
      <trkpt lat="45.78013" lon="4.6443">
        <ele>517.16003</ele>
        <time>2023-09-30T07:53:42.000Z</time>
      </trkpt>
      <trkpt lat="45.78012" lon="4.64428">
        <ele>518.61877</ele>
        <time>2023-09-30T07:53:43.000Z</time>
      </trkpt>
      <trkpt lat="45.78011" lon="4.64426">
        <ele>519.47009</ele>
        <time>2023-09-30T07:53:44.000Z</time>
      </trkpt>
      <trkpt lat="45.78009" lon="4.64423">
        <ele>519.95886</ele>
        <time>2023-09-30T07:53:45.000Z</time>
      </trkpt>
      <trkpt lat="45.78007" lon="4.6442">
        <ele>521.89575</ele>
        <time>2023-09-30T07:53:46.000Z</time>
      </trkpt>
      <trkpt lat="45.78005" lon="4.64417">
        <ele>528.38812</ele>
        <time>2023-09-30T07:53:47.000Z</time>
      </trkpt>
      <trkpt lat="45.78003" lon="4.64414">
        <ele>529.9549</ele>
        <time>2023-09-30T07:53:48.000Z</time>
      </trkpt>
      <trkpt lat="45.78002" lon="4.64412">
        <ele>531.12292</ele>
        <time>2023-09-30T07:53:49.000Z</time>
      </trkpt>
      <trkpt lat="45.78" lon="4.64409">
        <ele>532.43005</ele>
        <time>2023-09-30T07:53:50.000Z</time>
      </trkpt>
      <trkpt lat="45.77999" lon="4.64406">
        <ele>533.88922</ele>
        <time>2023-09-30T07:53:51.000Z</time>
      </trkpt>
      <trkpt lat="45.77997" lon="4.64403">
        <ele>535.50763</ele>
        <time>2023-09-30T07:53:52.000Z</time>
      </trkpt>
      <trkpt lat="45.77995" lon="4.644">
        <ele>541.35748</ele>
        <time>2023-09-30T07:53:53.000Z</time>
      </trkpt>
      <trkpt lat="45.77993" lon="4.64398">
        <ele>538.47479</ele>
        <time>2023-09-30T07:53:54.000Z</time>
      </trkpt>
      <trkpt lat="45.77991" lon="4.64396">
        <ele>539.97626</ele>
        <time>2023-09-30T07:53:55.000Z</time>
      </trkpt>
      <trkpt lat="45.77989" lon="4.64393">
        <ele>541.5932</ele>
        <time>2023-09-30T07:53:56.000Z</time>
      </trkpt>
      <trkpt lat="45.77987" lon="4.6439">
        <ele>539.65405</ele>
        <time>2023-09-30T07:53:57.000Z</time>
      </trkpt>
      <trkpt lat="45.77986" lon="4.64387">
        <ele>541.04236</ele>
        <time>2023-09-30T07:53:58.000Z</time>
      </trkpt>
      <trkpt lat="45.77985" lon="4.64384">
        <ele>546.51898</ele>
        <time>2023-09-30T07:53:59.000Z</time>
      </trkpt>
      <trkpt lat="45.77983" lon="4.64381">
        <ele>548.27899</ele>
        <time>2023-09-30T07:54:00.000Z</time>
      </trkpt>
      <trkpt lat="45.77981" lon="4.64378">
        <ele>545.60901</ele>
        <time>2023-09-30T07:54:01.000Z</time>
      </trkpt>
      <trkpt lat="45.77979" lon="4.64375">
        <ele>547.04529</ele>
        <time>2023-09-30T07:54:02.000Z</time>
      </trkpt>
      <trkpt lat="45.77978" lon="4.64372">
        <ele>548.53955</ele>
        <time>2023-09-30T07:54:03.000Z</time>
      </trkpt>
      <trkpt lat="45.77976" lon="4.64369">
        <ele>550.03552</ele>
        <time>2023-09-30T07:54:04.000Z</time>
      </trkpt>
      <trkpt lat="45.77976" lon="4.64366">
        <ele>555.53302</ele>
        <time>2023-09-30T07:54:05.000Z</time>
      </trkpt>
      <trkpt lat="45.77974" lon="4.64362">
        <ele>557.31171</ele>
        <time>2023-09-30T07:54:06.000Z</time>
      </trkpt>
      <trkpt lat="45.77972" lon="4.64358">
        <ele>553.96179</ele>
        <time>2023-09-30T07:54:07.000Z</time>
      </trkpt>
      <trkpt lat="45.7797" lon="4.64355">
        <ele>555.24048</ele>
        <time>2023-09-30T07:54:08.000Z</time>
      </trkpt>
      <trkpt lat="45.77968" lon="4.64352">
        <ele>556.50476</ele>
        <time>2023-09-30T07:54:09.000Z</time>
      </trkpt>
      <trkpt lat="45.77966" lon="4.64349">
        <ele>557.7738</ele>
        <time>2023-09-30T07:54:10.000Z</time>
      </trkpt>
      <trkpt lat="45.77964" lon="4.64346">
        <ele>562.59045</ele>
        <time>2023-09-30T07:54:11.000Z</time>
      </trkpt>
      <trkpt lat="45.77963" lon="4.64343">
        <ele>564.02551</ele>
        <time>2023-09-30T07:54:12.000Z</time>
      </trkpt>
      <trkpt lat="45.77962" lon="4.6434">
        <ele>561.07532</ele>
        <time>2023-09-30T07:54:13.000Z</time>
      </trkpt>
      <trkpt lat="45.77961" lon="4.64336">
        <ele>562.06116</ele>
        <time>2023-09-30T07:54:14.000Z</time>
      </trkpt>
      <trkpt lat="45.77961" lon="4.64332">
        <ele>563.24054</ele>
        <time>2023-09-30T07:54:15.000Z</time>
      </trkpt>
      <trkpt lat="45.7796" lon="4.64329">
        <ele>564.40369</ele>
        <time>2023-09-30T07:54:16.000Z</time>
      </trkpt>
      <trkpt lat="45.77958" lon="4.64325">
        <ele>568.58777</ele>
        <time>2023-09-30T07:54:17.000Z</time>
      </trkpt>
      <trkpt lat="45.77956" lon="4.64321">
        <ele>570.03448</ele>
        <time>2023-09-30T07:54:18.000Z</time>
      </trkpt>
      <trkpt lat="45.77954" lon="4.64317">
        <ele>567.48041</ele>
        <time>2023-09-30T07:54:19.000Z</time>
      </trkpt>
      <trkpt lat="45.77952" lon="4.64314">
        <ele>568.5285</ele>
        <time>2023-09-30T07:54:20.000Z</time>
      </trkpt>
      <trkpt lat="45.7795" lon="4.6431">
        <ele>569.54095</ele>
        <time>2023-09-30T07:54:21.000Z</time>
      </trkpt>
      <trkpt lat="45.77948" lon="4.64306">
        <ele>570.73755</ele>
        <time>2023-09-30T07:54:22.000Z</time>
      </trkpt>
      <trkpt lat="45.77946" lon="4.64303">
        <ele>574.7901</ele>
        <time>2023-09-30T07:54:23.000Z</time>
      </trkpt>
      <trkpt lat="45.77945" lon="4.643">
        <ele>576.1026</ele>
        <time>2023-09-30T07:54:24.000Z</time>
      </trkpt>
      <trkpt lat="45.77943" lon="4.64296">
        <ele>573.43677</ele>
        <time>2023-09-30T07:54:25.000Z</time>
      </trkpt>
      <trkpt lat="45.77941" lon="4.64291">
        <ele>574.33191</ele>
        <time>2023-09-30T07:54:26.000Z</time>
      </trkpt>
      <trkpt lat="45.77938" lon="4.64285">
        <ele>575.18298</ele>
        <time>2023-09-30T07:54:27.000Z</time>
      </trkpt>
      <trkpt lat="45.77935" lon="4.6428">
        <ele>576.24402</ele>
        <time>2023-09-30T07:54:28.000Z</time>
      </trkpt>
      <trkpt lat="45.7793" lon="4.64273">
        <ele>579.77478</ele>
        <time>2023-09-30T07:54:29.000Z</time>
      </trkpt>
      <trkpt lat="45.77926" lon="4.64265">
        <ele>580.93823</ele>
        <time>2023-09-30T07:54:30.000Z</time>
      </trkpt>
      <trkpt lat="45.77922" lon="4.64255">
        <ele>578.54706</ele>
        <time>2023-09-30T07:54:31.000Z</time>
      </trkpt>
      <trkpt lat="45.77919" lon="4.64245">
        <ele>579.34485</ele>
        <time>2023-09-30T07:54:32.000Z</time>
      </trkpt>
      <trkpt lat="45.77913" lon="4.64237">
        <ele>580.11084</ele>
        <time>2023-09-30T07:54:33.000Z</time>
      </trkpt>
      <trkpt lat="45.77907" lon="4.64228">
        <ele>581.06262</ele>
        <time>2023-09-30T07:54:34.000Z</time>
      </trkpt>
      <trkpt lat="45.77902" lon="4.6422">
        <ele>584.13391</ele>
        <time>2023-09-30T07:54:35.000Z</time>
      </trkpt>
      <trkpt lat="45.77898" lon="4.64208">
        <ele>585.17859</ele>
        <time>2023-09-30T07:54:36.000Z</time>
      </trkpt>
      <trkpt lat="45.77895" lon="4.64199">
        <ele>583.17377</ele>
        <time>2023-09-30T07:54:37.000Z</time>
      </trkpt>
      <trkpt lat="45.77891" lon="4.64192">
        <ele>583.90308</ele>
        <time>2023-09-30T07:54:38.000Z</time>
      </trkpt>
      <trkpt lat="45.77888" lon="4.64185">
        <ele>584.59656</ele>
        <time>2023-09-30T07:54:39.000Z</time>
      </trkpt>
      <trkpt lat="45.77885" lon="4.6418">
        <ele>585.45233</ele>
        <time>2023-09-30T07:54:40.000Z</time>
      </trkpt>
      <trkpt lat="45.77882" lon="4.64173">
        <ele>587.91138</ele>
        <time>2023-09-30T07:54:41.000Z</time>
      </trkpt>
      <trkpt lat="45.77879" lon="4.64167">
        <ele>590.27087</ele>
        <time>2023-09-30T07:54:42.000Z</time>
      </trkpt>
      <trkpt lat="45.77877" lon="4.64161">
        <ele>589.67877</ele>
        <time>2023-09-30T07:54:43.000Z</time>
      </trkpt>
      <trkpt lat="45.77873" lon="4.64155">
        <ele>591.69873</ele>
        <time>2023-09-30T07:54:44.000Z</time>
      </trkpt>
      <trkpt lat="45.77869" lon="4.64148">
        <ele>593.65997</ele>
        <time>2023-09-30T07:54:45.000Z</time>
      </trkpt>
      <trkpt lat="45.77865" lon="4.64142">
        <ele>595.6861</ele>
        <time>2023-09-30T07:54:46.000Z</time>
      </trkpt>
      <trkpt lat="45.7786" lon="4.64133">
        <ele>597.63531</ele>
        <time>2023-09-30T07:54:47.000Z</time>
      </trkpt>
      <trkpt lat="45.77856" lon="4.64126">
        <ele>599.53973</ele>
        <time>2023-09-30T07:54:48.000Z</time>
      </trkpt>
      <trkpt lat="45.77852" lon="4.64117">
        <ele>598.90729</ele>
        <time>2023-09-30T07:54:49.000Z</time>
      </trkpt>
      <trkpt lat="45.77848" lon="4.64106">
        <ele>600.38123</ele>
        <time>2023-09-30T07:54:50.000Z</time>
      </trkpt>
      <trkpt lat="45.77844" lon="4.64095">
        <ele>601.76147</ele>
        <time>2023-09-30T07:54:51.000Z</time>
      </trkpt>
      <trkpt lat="45.77841" lon="4.64082">
        <ele>603.21368</ele>
        <time>2023-09-30T07:54:52.000Z</time>
      </trkpt>
      <trkpt lat="45.77837" lon="4.6407">
        <ele>604.58899</ele>
        <time>2023-09-30T07:54:53.000Z</time>
      </trkpt>
      <trkpt lat="45.77833" lon="4.64059">
        <ele>605.90277</ele>
        <time>2023-09-30T07:54:54.000Z</time>
      </trkpt>
      <trkpt lat="45.7783" lon="4.64049">
        <ele>605.02332</ele>
        <time>2023-09-30T07:54:55.000Z</time>
      </trkpt>
      <trkpt lat="45.77826" lon="4.6404">
        <ele>606.05725</ele>
        <time>2023-09-30T07:54:56.000Z</time>
      </trkpt>
      <trkpt lat="45.77822" lon="4.64032">
        <ele>607.00293</ele>
        <time>2023-09-30T07:54:57.000Z</time>
      </trkpt>
      <trkpt lat="45.77818" lon="4.64026">
        <ele>608.04712</ele>
        <time>2023-09-30T07:54:58.000Z</time>
      </trkpt>
      <trkpt lat="45.77814" lon="4.64021">
        <ele>609.06665</ele>
        <time>2023-09-30T07:54:59.000Z</time>
      </trkpt>
      <trkpt lat="45.77811" lon="4.64017">
        <ele>610.047</ele>
        <time>2023-09-30T07:55:00.000Z</time>
      </trkpt>
      <trkpt lat="45.77807" lon="4.64013">
        <ele>609.35297</ele>
        <time>2023-09-30T07:55:01.000Z</time>
      </trkpt>
      <trkpt lat="45.77805" lon="4.64009">
        <ele>608.67932</ele>
        <time>2023-09-30T07:55:02.000Z</time>
      </trkpt>
      <trkpt lat="45.77802" lon="4.64006">
        <ele>608.03229</ele>
        <time>2023-09-30T07:55:03.000Z</time>
      </trkpt>
      <trkpt lat="45.778" lon="4.64002">
        <ele>607.4292</ele>
        <time>2023-09-30T07:55:04.000Z</time>
      </trkpt>
      <trkpt lat="45.77797" lon="4.64">
        <ele>606.8349</ele>
        <time>2023-09-30T07:55:05.000Z</time>
      </trkpt>
      <trkpt lat="45.77796" lon="4.63997">
        <ele>606.32483</ele>
        <time>2023-09-30T07:55:06.000Z</time>
      </trkpt>
      <trkpt lat="45.77796" lon="4.63995">
        <ele>605.82654</ele>
        <time>2023-09-30T07:55:07.000Z</time>
      </trkpt>
      <trkpt lat="45.77794" lon="4.63992">
        <ele>605.32025</ele>
        <time>2023-09-30T07:55:08.000Z</time>
      </trkpt>
      <trkpt lat="45.77793" lon="4.63989">
        <ele>604.80652</ele>
        <time>2023-09-30T07:55:09.000Z</time>
      </trkpt>
      <trkpt lat="45.77791" lon="4.63986">
        <ele>604.48608</ele>
        <time>2023-09-30T07:55:10.000Z</time>
      </trkpt>
      <trkpt lat="45.7779" lon="4.63984">
        <ele>604.21747</ele>
        <time>2023-09-30T07:55:11.000Z</time>
      </trkpt>
      <trkpt lat="45.77787" lon="4.63981">
        <ele>603.99982</ele>
        <time>2023-09-30T07:55:12.000Z</time>
      </trkpt>
      <trkpt lat="45.77785" lon="4.63979">
        <ele>603.828</ele>
        <time>2023-09-30T07:55:13.000Z</time>
      </trkpt>
      <trkpt lat="45.77784" lon="4.63977">
        <ele>603.70013</ele>
        <time>2023-09-30T07:55:14.000Z</time>
      </trkpt>
      <trkpt lat="45.77782" lon="4.63975">
        <ele>602.3299</ele>
        <time>2023-09-30T07:55:15.000Z</time>
      </trkpt>
      <trkpt lat="45.77779" lon="4.63972">
        <ele>601.0199</ele>
        <time>2023-09-30T07:55:16.000Z</time>
      </trkpt>
      <trkpt lat="45.77777" lon="4.63968">
        <ele>601.00739</ele>
        <time>2023-09-30T07:55:17.000Z</time>
      </trkpt>
      <trkpt lat="45.77774" lon="4.63965">
        <ele>601.03088</ele>
        <time>2023-09-30T07:55:18.000Z</time>
      </trkpt>
      <trkpt lat="45.7777" lon="4.63962">
        <ele>601.03815</ele>
        <time>2023-09-30T07:55:19.000Z</time>
      </trkpt>
      <trkpt lat="45.77767" lon="4.63959">
        <ele>601.03094</ele>
        <time>2023-09-30T07:55:20.000Z</time>
      </trkpt>
      <trkpt lat="45.77764" lon="4.63956">
        <ele>601.03552</ele>
        <time>2023-09-30T07:55:21.000Z</time>
      </trkpt>
      <trkpt lat="45.77761" lon="4.63953">
        <ele>601.08118</ele>
        <time>2023-09-30T07:55:22.000Z</time>
      </trkpt>
      <trkpt lat="45.77757" lon="4.6395">
        <ele>601.11517</ele>
        <time>2023-09-30T07:55:23.000Z</time>
      </trkpt>
      <trkpt lat="45.77754" lon="4.63947">
        <ele>601.15283</ele>
        <time>2023-09-30T07:55:24.000Z</time>
      </trkpt>
      <trkpt lat="45.77751" lon="4.63944">
        <ele>601.19342</ele>
        <time>2023-09-30T07:55:25.000Z</time>
      </trkpt>
      <trkpt lat="45.77748" lon="4.63941">
        <ele>601.2113</ele>
        <time>2023-09-30T07:55:26.000Z</time>
      </trkpt>
      <trkpt lat="45.77746" lon="4.63938">
        <ele>601.2608</ele>
        <time>2023-09-30T07:55:27.000Z</time>
      </trkpt>
      <trkpt lat="45.77743" lon="4.63935">
        <ele>601.33765</ele>
        <time>2023-09-30T07:55:28.000Z</time>
      </trkpt>
      <trkpt lat="45.7774" lon="4.63933">
        <ele>600.2467</ele>
        <time>2023-09-30T07:55:29.000Z</time>
      </trkpt>
      <trkpt lat="45.77738" lon="4.6393">
        <ele>599.16571</ele>
        <time>2023-09-30T07:55:30.000Z</time>
      </trkpt>
      <trkpt lat="45.77735" lon="4.63928">
        <ele>598.06805</ele>
        <time>2023-09-30T07:55:31.000Z</time>
      </trkpt>
      <trkpt lat="45.77732" lon="4.63927">
        <ele>596.99084</ele>
        <time>2023-09-30T07:55:32.000Z</time>
      </trkpt>
      <trkpt lat="45.77729" lon="4.63926">
        <ele>595.91193</ele>
        <time>2023-09-30T07:55:33.000Z</time>
      </trkpt>
      <trkpt lat="45.77725" lon="4.63926">
        <ele>594.67542</ele>
        <time>2023-09-30T07:55:34.000Z</time>
      </trkpt>
      <trkpt lat="45.77722" lon="4.63927">
        <ele>594.62634</ele>
        <time>2023-09-30T07:55:35.000Z</time>
      </trkpt>
      <trkpt lat="45.77718" lon="4.63928">
        <ele>595.16602</ele>
        <time>2023-09-30T07:55:36.000Z</time>
      </trkpt>
      <trkpt lat="45.77714" lon="4.63928">
        <ele>594.33337</ele>
        <time>2023-09-30T07:55:37.000Z</time>
      </trkpt>
      <trkpt lat="45.77711" lon="4.63929">
        <ele>593.49963</ele>
        <time>2023-09-30T07:55:38.000Z</time>
      </trkpt>
      <trkpt lat="45.77708" lon="4.6393">
        <ele>592.65295</ele>
        <time>2023-09-30T07:55:39.000Z</time>
      </trkpt>
      <trkpt lat="45.77705" lon="4.6393">
        <ele>591.81781</ele>
        <time>2023-09-30T07:55:40.000Z</time>
      </trkpt>
      <trkpt lat="45.77702" lon="4.6393">
        <ele>591.00415</ele>
        <time>2023-09-30T07:55:41.000Z</time>
      </trkpt>
      <trkpt lat="45.77699" lon="4.63929">
        <ele>590.16431</ele>
        <time>2023-09-30T07:55:42.000Z</time>
      </trkpt>
      <trkpt lat="45.77696" lon="4.63927">
        <ele>589.07513</ele>
        <time>2023-09-30T07:55:43.000Z</time>
      </trkpt>
      <trkpt lat="45.77693" lon="4.63925">
        <ele>587.81085</ele>
        <time>2023-09-30T07:55:44.000Z</time>
      </trkpt>
      <trkpt lat="45.77691" lon="4.63923">
        <ele>587.32294</ele>
        <time>2023-09-30T07:55:45.000Z</time>
      </trkpt>
      <trkpt lat="45.77688" lon="4.63921">
        <ele>586.00836</ele>
        <time>2023-09-30T07:55:46.000Z</time>
      </trkpt>
      <trkpt lat="45.77686" lon="4.63919">
        <ele>584.69128</ele>
        <time>2023-09-30T07:55:47.000Z</time>
      </trkpt>
      <trkpt lat="45.77683" lon="4.63916">
        <ele>583.94153</ele>
        <time>2023-09-30T07:55:48.000Z</time>
      </trkpt>
      <trkpt lat="45.77681" lon="4.63914">
        <ele>584.28308</ele>
        <time>2023-09-30T07:55:49.000Z</time>
      </trkpt>
      <trkpt lat="45.77678" lon="4.63912">
        <ele>584.57129</ele>
        <time>2023-09-30T07:55:50.000Z</time>
      </trkpt>
      <trkpt lat="45.77674" lon="4.63909">
        <ele>584.58771</ele>
        <time>2023-09-30T07:55:51.000Z</time>
      </trkpt>
      <trkpt lat="45.77671" lon="4.63906">
        <ele>584.53101</ele>
        <time>2023-09-30T07:55:52.000Z</time>
      </trkpt>
      <trkpt lat="45.77667" lon="4.63903">
        <ele>584.23499</ele>
        <time>2023-09-30T07:55:53.000Z</time>
      </trkpt>
      <trkpt lat="45.77662" lon="4.639">
        <ele>584.01343</ele>
        <time>2023-09-30T07:55:54.000Z</time>
      </trkpt>
      <trkpt lat="45.77657" lon="4.63898">
        <ele>584.92926</ele>
        <time>2023-09-30T07:55:55.000Z</time>
      </trkpt>
      <trkpt lat="45.77652" lon="4.63895">
        <ele>585.39532</ele>
        <time>2023-09-30T07:55:56.000Z</time>
      </trkpt>
      <trkpt lat="45.77647" lon="4.63892">
        <ele>585.88934</ele>
        <time>2023-09-30T07:55:57.000Z</time>
      </trkpt>
      <trkpt lat="45.77641" lon="4.63889">
        <ele>586.33923</ele>
        <time>2023-09-30T07:55:58.000Z</time>
      </trkpt>
      <trkpt lat="45.77635" lon="4.63887">
        <ele>586.81781</ele>
        <time>2023-09-30T07:55:59.000Z</time>
      </trkpt>
      <trkpt lat="45.7763" lon="4.63883">
        <ele>587.28259</ele>
        <time>2023-09-30T07:56:00.000Z</time>
      </trkpt>
      <trkpt lat="45.77625" lon="4.63881">
        <ele>587.64001</ele>
        <time>2023-09-30T07:56:01.000Z</time>
      </trkpt>
      <trkpt lat="45.7762" lon="4.63877">
        <ele>587.16254</ele>
        <time>2023-09-30T07:56:02.000Z</time>
      </trkpt>
      <trkpt lat="45.77615" lon="4.63874">
        <ele>586.96405</ele>
        <time>2023-09-30T07:56:03.000Z</time>
      </trkpt>
      <trkpt lat="45.77611" lon="4.63869">
        <ele>587.7771</ele>
        <time>2023-09-30T07:56:04.000Z</time>
      </trkpt>
      <trkpt lat="45.77607" lon="4.63866">
        <ele>587.79218</ele>
        <time>2023-09-30T07:56:05.000Z</time>
      </trkpt>
      <trkpt lat="45.77603" lon="4.63862">
        <ele>588.64423</ele>
        <time>2023-09-30T07:56:06.000Z</time>
      </trkpt>
      <trkpt lat="45.776" lon="4.63859">
        <ele>589.49298</ele>
        <time>2023-09-30T07:56:07.000Z</time>
      </trkpt>
      <trkpt lat="45.77597" lon="4.63856">
        <ele>589.66364</ele>
        <time>2023-09-30T07:56:08.000Z</time>
      </trkpt>
      <trkpt lat="45.77593" lon="4.63853">
        <ele>589.89819</ele>
        <time>2023-09-30T07:56:09.000Z</time>
      </trkpt>
      <trkpt lat="45.77591" lon="4.63851">
        <ele>590.21625</ele>
        <time>2023-09-30T07:56:10.000Z</time>
      </trkpt>
      <trkpt lat="45.77589" lon="4.63848">
        <ele>590.75641</ele>
        <time>2023-09-30T07:56:11.000Z</time>
      </trkpt>
      <trkpt lat="45.77586" lon="4.63846">
        <ele>591.34192</ele>
        <time>2023-09-30T07:56:12.000Z</time>
      </trkpt>
      <trkpt lat="45.77585" lon="4.63843">
        <ele>592.3327</ele>
        <time>2023-09-30T07:56:13.000Z</time>
      </trkpt>
      <trkpt lat="45.77583" lon="4.63842">
        <ele>593.38782</ele>
        <time>2023-09-30T07:56:14.000Z</time>
      </trkpt>
      <trkpt lat="45.77581" lon="4.63841">
        <ele>593.37109</ele>
        <time>2023-09-30T07:56:15.000Z</time>
      </trkpt>
      <trkpt lat="45.7758" lon="4.63839">
        <ele>593.22058</ele>
        <time>2023-09-30T07:56:16.000Z</time>
      </trkpt>
      <trkpt lat="45.77579" lon="4.63836">
        <ele>593.04956</ele>
        <time>2023-09-30T07:56:18.000Z</time>
      </trkpt>
      <trkpt lat="45.77578" lon="4.63833">
        <ele>592.81586</ele>
        <time>2023-09-30T07:56:19.000Z</time>
      </trkpt>
      <trkpt lat="45.77577" lon="4.63831">
        <ele>592.57684</ele>
        <time>2023-09-30T07:56:20.000Z</time>
      </trkpt>
      <trkpt lat="45.77576" lon="4.63827">
        <ele>592.40002</ele>
        <time>2023-09-30T07:56:22.000Z</time>
      </trkpt>
      <trkpt lat="45.77574" lon="4.63823">
        <ele>592.23218</ele>
        <time>2023-09-30T07:56:24.000Z</time>
      </trkpt>
      <trkpt lat="45.77573" lon="4.63821">
        <ele>593.15338</ele>
        <time>2023-09-30T07:56:25.000Z</time>
      </trkpt>
      <trkpt lat="45.77572" lon="4.63818">
        <ele>594.0116</ele>
        <time>2023-09-30T07:56:26.000Z</time>
      </trkpt>
      <trkpt lat="45.77571" lon="4.63815">
        <ele>594.03168</ele>
        <time>2023-09-30T07:56:27.000Z</time>
      </trkpt>
      <trkpt lat="45.77569" lon="4.63813">
        <ele>594.04059</ele>
        <time>2023-09-30T07:56:28.000Z</time>
      </trkpt>
      <trkpt lat="45.77568" lon="4.6381">
        <ele>594.05389</ele>
        <time>2023-09-30T07:56:29.000Z</time>
      </trkpt>
      <trkpt lat="45.77567" lon="4.63808">
        <ele>594.06232</ele>
        <time>2023-09-30T07:56:30.000Z</time>
      </trkpt>
      <trkpt lat="45.77565" lon="4.63805">
        <ele>594.17194</ele>
        <time>2023-09-30T07:56:31.000Z</time>
      </trkpt>
      <trkpt lat="45.77564" lon="4.63801">
        <ele>594.32874</ele>
        <time>2023-09-30T07:56:32.000Z</time>
      </trkpt>
      <trkpt lat="45.77562" lon="4.63798">
        <ele>594.4032</ele>
        <time>2023-09-30T07:56:33.000Z</time>
      </trkpt>
      <trkpt lat="45.77561" lon="4.63794">
        <ele>594.52893</ele>
        <time>2023-09-30T07:56:34.000Z</time>
      </trkpt>
      <trkpt lat="45.7756" lon="4.6379">
        <ele>594.59698</ele>
        <time>2023-09-30T07:56:35.000Z</time>
      </trkpt>
      <trkpt lat="45.77559" lon="4.63786">
        <ele>594.5047</ele>
        <time>2023-09-30T07:56:36.000Z</time>
      </trkpt>
      <trkpt lat="45.77558" lon="4.63783">
        <ele>594.38232</ele>
        <time>2023-09-30T07:56:37.000Z</time>
      </trkpt>
      <trkpt lat="45.77556" lon="4.63778">
        <ele>594.2832</ele>
        <time>2023-09-30T07:56:38.000Z</time>
      </trkpt>
      <trkpt lat="45.77555" lon="4.63774">
        <ele>594.1322</ele>
        <time>2023-09-30T07:56:39.000Z</time>
      </trkpt>
      <trkpt lat="45.77553" lon="4.6377">
        <ele>593.93433</ele>
        <time>2023-09-30T07:56:40.000Z</time>
      </trkpt>
      <trkpt lat="45.77551" lon="4.63766">
        <ele>593.76776</ele>
        <time>2023-09-30T07:56:41.000Z</time>
      </trkpt>
      <trkpt lat="45.7755" lon="4.63762">
        <ele>593.62219</ele>
        <time>2023-09-30T07:56:42.000Z</time>
      </trkpt>
      <trkpt lat="45.77548" lon="4.63758">
        <ele>593.4668</ele>
        <time>2023-09-30T07:56:43.000Z</time>
      </trkpt>
      <trkpt lat="45.77546" lon="4.63754">
        <ele>593.43256</ele>
        <time>2023-09-30T07:56:44.000Z</time>
      </trkpt>
      <trkpt lat="45.77545" lon="4.63751">
        <ele>593.21088</ele>
        <time>2023-09-30T07:56:45.000Z</time>
      </trkpt>
      <trkpt lat="45.77544" lon="4.63747">
        <ele>593.01581</ele>
        <time>2023-09-30T07:56:46.000Z</time>
      </trkpt>
      <trkpt lat="45.77543" lon="4.63743">
        <ele>593.01569</ele>
        <time>2023-09-30T07:56:47.000Z</time>
      </trkpt>
      <trkpt lat="45.77542" lon="4.63741">
        <ele>592.99005</ele>
        <time>2023-09-30T07:56:48.000Z</time>
      </trkpt>
      <trkpt lat="45.77541" lon="4.63738">
        <ele>592.93689</ele>
        <time>2023-09-30T07:56:49.000Z</time>
      </trkpt>
      <trkpt lat="45.77539" lon="4.63736">
        <ele>592.89441</ele>
        <time>2023-09-30T07:56:50.000Z</time>
      </trkpt>
      <trkpt lat="45.77537" lon="4.63733">
        <ele>592.71063</ele>
        <time>2023-09-30T07:56:51.000Z</time>
      </trkpt>
      <trkpt lat="45.77535" lon="4.6373">
        <ele>592.38165</ele>
        <time>2023-09-30T07:56:52.000Z</time>
      </trkpt>
      <trkpt lat="45.77533" lon="4.63729">
        <ele>592.37799</ele>
        <time>2023-09-30T07:56:53.000Z</time>
      </trkpt>
      <trkpt lat="45.77531" lon="4.63725">
        <ele>592.36005</ele>
        <time>2023-09-30T07:56:55.000Z</time>
      </trkpt>
      <trkpt lat="45.77528" lon="4.63722">
        <ele>592.46106</ele>
        <time>2023-09-30T07:56:56.000Z</time>
      </trkpt>
      <trkpt lat="45.77525" lon="4.63719">
        <ele>592.62262</ele>
        <time>2023-09-30T07:56:57.000Z</time>
      </trkpt>
      <trkpt lat="45.77523" lon="4.63715">
        <ele>592.83551</ele>
        <time>2023-09-30T07:56:58.000Z</time>
      </trkpt>
      <trkpt lat="45.7752" lon="4.63711">
        <ele>592.88245</ele>
        <time>2023-09-30T07:56:59.000Z</time>
      </trkpt>
      <trkpt lat="45.77518" lon="4.63707">
        <ele>592.78021</ele>
        <time>2023-09-30T07:57:00.000Z</time>
      </trkpt>
      <trkpt lat="45.77515" lon="4.63704">
        <ele>593.17438</ele>
        <time>2023-09-30T07:57:01.000Z</time>
      </trkpt>
      <trkpt lat="45.77512" lon="4.63701">
        <ele>593.52209</ele>
        <time>2023-09-30T07:57:02.000Z</time>
      </trkpt>
      <trkpt lat="45.77508" lon="4.63698">
        <ele>593.87585</ele>
        <time>2023-09-30T07:57:03.000Z</time>
      </trkpt>
      <trkpt lat="45.77505" lon="4.63695">
        <ele>594.28357</ele>
        <time>2023-09-30T07:57:04.000Z</time>
      </trkpt>
      <trkpt lat="45.77503" lon="4.63693">
        <ele>594.61169</ele>
        <time>2023-09-30T07:57:05.000Z</time>
      </trkpt>
      <trkpt lat="45.77501" lon="4.63691">
        <ele>594.91125</ele>
        <time>2023-09-30T07:57:06.000Z</time>
      </trkpt>
      <trkpt lat="45.77499" lon="4.63689">
        <ele>595.26672</ele>
        <time>2023-09-30T07:57:07.000Z</time>
      </trkpt>
      <trkpt lat="45.77497" lon="4.63687">
        <ele>595.45251</ele>
        <time>2023-09-30T07:57:08.000Z</time>
      </trkpt>
      <trkpt lat="45.77495" lon="4.63684">
        <ele>595.54456</ele>
        <time>2023-09-30T07:57:09.000Z</time>
      </trkpt>
      <trkpt lat="45.77492" lon="4.63681">
        <ele>595.52075</ele>
        <time>2023-09-30T07:57:10.000Z</time>
      </trkpt>
      <trkpt lat="45.77491" lon="4.63679">
        <ele>595.97412</ele>
        <time>2023-09-30T07:57:11.000Z</time>
      </trkpt>
      <trkpt lat="45.77488" lon="4.63675">
        <ele>596.36932</ele>
        <time>2023-09-30T07:57:13.000Z</time>
      </trkpt>
      <trkpt lat="45.77486" lon="4.63673">
        <ele>596.92902</ele>
        <time>2023-09-30T07:57:14.000Z</time>
      </trkpt>
      <trkpt lat="45.77485" lon="4.63671">
        <ele>597.21838</ele>
        <time>2023-09-30T07:57:15.000Z</time>
      </trkpt>
      <trkpt lat="45.77483" lon="4.63669">
        <ele>597.40076</ele>
        <time>2023-09-30T07:57:16.000Z</time>
      </trkpt>
      <trkpt lat="45.7748" lon="4.63667">
        <ele>597.44586</ele>
        <time>2023-09-30T07:57:17.000Z</time>
      </trkpt>
      <trkpt lat="45.77477" lon="4.63666">
        <ele>597.49927</ele>
        <time>2023-09-30T07:57:18.000Z</time>
      </trkpt>
      <trkpt lat="45.77474" lon="4.63665">
        <ele>597.59198</ele>
        <time>2023-09-30T07:57:19.000Z</time>
      </trkpt>
      <trkpt lat="45.7747" lon="4.63665">
        <ele>597.92786</ele>
        <time>2023-09-30T07:57:20.000Z</time>
      </trkpt>
      <trkpt lat="45.77467" lon="4.63664">
        <ele>598.44922</ele>
        <time>2023-09-30T07:57:21.000Z</time>
      </trkpt>
      <trkpt lat="45.77465" lon="4.63664">
        <ele>598.65631</ele>
        <time>2023-09-30T07:57:22.000Z</time>
      </trkpt>
      <trkpt lat="45.77462" lon="4.63663">
        <ele>598.81427</ele>
        <time>2023-09-30T07:57:24.000Z</time>
      </trkpt>
      <trkpt lat="45.7746" lon="4.63662">
        <ele>599.00897</ele>
        <time>2023-09-30T07:57:26.000Z</time>
      </trkpt>
      <trkpt lat="45.77458" lon="4.6366">
        <ele>599.0191</ele>
        <time>2023-09-30T07:57:27.000Z</time>
      </trkpt>
      <trkpt lat="45.77456" lon="4.63658">
        <ele>598.97546</ele>
        <time>2023-09-30T07:57:28.000Z</time>
      </trkpt>
      <trkpt lat="45.77454" lon="4.63655">
        <ele>598.83411</ele>
        <time>2023-09-30T07:57:29.000Z</time>
      </trkpt>
      <trkpt lat="45.77452" lon="4.63654">
        <ele>598.61847</ele>
        <time>2023-09-30T07:57:30.000Z</time>
      </trkpt>
      <trkpt lat="45.77451" lon="4.63652">
        <ele>598.36304</ele>
        <time>2023-09-30T07:57:31.000Z</time>
      </trkpt>
      <trkpt lat="45.77448" lon="4.63649">
        <ele>598.26538</ele>
        <time>2023-09-30T07:57:32.000Z</time>
      </trkpt>
      <trkpt lat="45.77446" lon="4.63648">
        <ele>598.32782</ele>
        <time>2023-09-30T07:57:33.000Z</time>
      </trkpt>
      <trkpt lat="45.77445" lon="4.63646">
        <ele>597.93573</ele>
        <time>2023-09-30T07:57:34.000Z</time>
      </trkpt>
      <trkpt lat="45.77443" lon="4.63643">
        <ele>597.67712</ele>
        <time>2023-09-30T07:57:35.000Z</time>
      </trkpt>
      <trkpt lat="45.77442" lon="4.6364">
        <ele>597.41779</ele>
        <time>2023-09-30T07:57:36.000Z</time>
      </trkpt>
      <trkpt lat="45.77441" lon="4.63637">
        <ele>597.50867</ele>
        <time>2023-09-30T07:57:37.000Z</time>
      </trkpt>
      <trkpt lat="45.7744" lon="4.63634">
        <ele>597.67316</ele>
        <time>2023-09-30T07:57:38.000Z</time>
      </trkpt>
      <trkpt lat="45.77438" lon="4.6363">
        <ele>597.90326</ele>
        <time>2023-09-30T07:57:39.000Z</time>
      </trkpt>
      <trkpt lat="45.77437" lon="4.63627">
        <ele>598.05359</ele>
        <time>2023-09-30T07:57:40.000Z</time>
      </trkpt>
      <trkpt lat="45.77435" lon="4.63624">
        <ele>598.15265</ele>
        <time>2023-09-30T07:57:41.000Z</time>
      </trkpt>
      <trkpt lat="45.77434" lon="4.63621">
        <ele>598.18945</ele>
        <time>2023-09-30T07:57:42.000Z</time>
      </trkpt>
      <trkpt lat="45.77433" lon="4.63619">
        <ele>598.15771</ele>
        <time>2023-09-30T07:57:43.000Z</time>
      </trkpt>
      <trkpt lat="45.77432" lon="4.63617">
        <ele>598.15247</ele>
        <time>2023-09-30T07:57:44.000Z</time>
      </trkpt>
      <trkpt lat="45.7743" lon="4.63612">
        <ele>598.11481</ele>
        <time>2023-09-30T07:57:46.000Z</time>
      </trkpt>
      <trkpt lat="45.77429" lon="4.63609">
        <ele>598.04285</ele>
        <time>2023-09-30T07:57:47.000Z</time>
      </trkpt>
      <trkpt lat="45.77427" lon="4.63605">
        <ele>598.12463</ele>
        <time>2023-09-30T07:57:48.000Z</time>
      </trkpt>
      <trkpt lat="45.77425" lon="4.636">
        <ele>598.28564</ele>
        <time>2023-09-30T07:57:49.000Z</time>
      </trkpt>
      <trkpt lat="45.77423" lon="4.63595">
        <ele>598.56671</ele>
        <time>2023-09-30T07:57:50.000Z</time>
      </trkpt>
      <trkpt lat="45.77421" lon="4.63592">
        <ele>598.90942</ele>
        <time>2023-09-30T07:57:51.000Z</time>
      </trkpt>
      <trkpt lat="45.77419" lon="4.63588">
        <ele>599.24902</ele>
        <time>2023-09-30T07:57:52.000Z</time>
      </trkpt>
      <trkpt lat="45.77418" lon="4.63584">
        <ele>599.59052</ele>
        <time>2023-09-30T07:57:53.000Z</time>
      </trkpt>
      <trkpt lat="45.77418" lon="4.6358">
        <ele>599.95172</ele>
        <time>2023-09-30T07:57:54.000Z</time>
      </trkpt>
      <trkpt lat="45.77417" lon="4.63577">
        <ele>600.38751</ele>
        <time>2023-09-30T07:57:55.000Z</time>
      </trkpt>
      <trkpt lat="45.77416" lon="4.63574">
        <ele>601.51013</ele>
        <time>2023-09-30T07:57:56.000Z</time>
      </trkpt>
      <trkpt lat="45.77414" lon="4.6357">
        <ele>602.61218</ele>
        <time>2023-09-30T07:57:57.000Z</time>
      </trkpt>
      <trkpt lat="45.77413" lon="4.63566">
        <ele>603.41827</ele>
        <time>2023-09-30T07:57:58.000Z</time>
      </trkpt>
      <trkpt lat="45.77413" lon="4.63562">
        <ele>604.25305</ele>
        <time>2023-09-30T07:57:59.000Z</time>
      </trkpt>
      <trkpt lat="45.77413" lon="4.63559">
        <ele>604.97052</ele>
        <time>2023-09-30T07:58:01.000Z</time>
      </trkpt>
      <trkpt lat="45.77412" lon="4.63555">
        <ele>605.63928</ele>
        <time>2023-09-30T07:58:02.000Z</time>
      </trkpt>
      <trkpt lat="45.77411" lon="4.63551">
        <ele>606.31873</ele>
        <time>2023-09-30T07:58:03.000Z</time>
      </trkpt>
      <trkpt lat="45.7741" lon="4.63548">
        <ele>607.00232</ele>
        <time>2023-09-30T07:58:04.000Z</time>
      </trkpt>
      <trkpt lat="45.77409" lon="4.63544">
        <ele>607.76355</ele>
        <time>2023-09-30T07:58:05.000Z</time>
      </trkpt>
      <trkpt lat="45.77407" lon="4.6354">
        <ele>608.40594</ele>
        <time>2023-09-30T07:58:06.000Z</time>
      </trkpt>
      <trkpt lat="45.77405" lon="4.63535">
        <ele>609.16553</ele>
        <time>2023-09-30T07:58:07.000Z</time>
      </trkpt>
      <trkpt lat="45.77404" lon="4.63532">
        <ele>610.13202</ele>
        <time>2023-09-30T07:58:08.000Z</time>
      </trkpt>
      <trkpt lat="45.77404" lon="4.63529">
        <ele>610.92566</ele>
        <time>2023-09-30T07:58:09.000Z</time>
      </trkpt>
      <trkpt lat="45.77403" lon="4.63526">
        <ele>611.7724</ele>
        <time>2023-09-30T07:58:10.000Z</time>
      </trkpt>
      <trkpt lat="45.77402" lon="4.63523">
        <ele>612.48029</ele>
        <time>2023-09-30T07:58:11.000Z</time>
      </trkpt>
      <trkpt lat="45.774" lon="4.6352">
        <ele>613.06543</ele>
        <time>2023-09-30T07:58:12.000Z</time>
      </trkpt>
      <trkpt lat="45.77398" lon="4.63517">
        <ele>613.8974</ele>
        <time>2023-09-30T07:58:13.000Z</time>
      </trkpt>
      <trkpt lat="45.77396" lon="4.63514">
        <ele>614.6225</ele>
        <time>2023-09-30T07:58:14.000Z</time>
      </trkpt>
      <trkpt lat="45.77393" lon="4.63511">
        <ele>615.31348</ele>
        <time>2023-09-30T07:58:15.000Z</time>
      </trkpt>
      <trkpt lat="45.77391" lon="4.63508">
        <ele>615.97986</ele>
        <time>2023-09-30T07:58:16.000Z</time>
      </trkpt>
      <trkpt lat="45.77389" lon="4.63505">
        <ele>616.14923</ele>
        <time>2023-09-30T07:58:17.000Z</time>
      </trkpt>
      <trkpt lat="45.77387" lon="4.63501">
        <ele>616.48346</ele>
        <time>2023-09-30T07:58:18.000Z</time>
      </trkpt>
      <trkpt lat="45.77385" lon="4.63498">
        <ele>616.77802</ele>
        <time>2023-09-30T07:58:19.000Z</time>
      </trkpt>
      <trkpt lat="45.77384" lon="4.63495">
        <ele>617.17047</ele>
        <time>2023-09-30T07:58:20.000Z</time>
      </trkpt>
      <trkpt lat="45.77382" lon="4.63492">
        <ele>617.72314</ele>
        <time>2023-09-30T07:58:21.000Z</time>
      </trkpt>
      <trkpt lat="45.7738" lon="4.63489">
        <ele>618.37372</ele>
        <time>2023-09-30T07:58:22.000Z</time>
      </trkpt>
      <trkpt lat="45.77378" lon="4.63486">
        <ele>619.00952</ele>
        <time>2023-09-30T07:58:23.000Z</time>
      </trkpt>
      <trkpt lat="45.77376" lon="4.63484">
        <ele>619.66516</ele>
        <time>2023-09-30T07:58:24.000Z</time>
      </trkpt>
      <trkpt lat="45.77375" lon="4.63481">
        <ele>620.33777</ele>
        <time>2023-09-30T07:58:25.000Z</time>
      </trkpt>
      <trkpt lat="45.77374" lon="4.63478">
        <ele>621.11426</ele>
        <time>2023-09-30T07:58:26.000Z</time>
      </trkpt>
      <trkpt lat="45.77373" lon="4.63475">
        <ele>621.94696</ele>
        <time>2023-09-30T07:58:27.000Z</time>
      </trkpt>
      <trkpt lat="45.77372" lon="4.63473">
        <ele>622.51819</ele>
        <time>2023-09-30T07:58:28.000Z</time>
      </trkpt>
      <trkpt lat="45.77371" lon="4.6347">
        <ele>623.31018</ele>
        <time>2023-09-30T07:58:29.000Z</time>
      </trkpt>
      <trkpt lat="45.7737" lon="4.63467">
        <ele>624.078</ele>
        <time>2023-09-30T07:58:30.000Z</time>
      </trkpt>
      <trkpt lat="45.77369" lon="4.63465">
        <ele>624.95978</ele>
        <time>2023-09-30T07:58:31.000Z</time>
      </trkpt>
      <trkpt lat="45.77367" lon="4.63463">
        <ele>625.99414</ele>
        <time>2023-09-30T07:58:32.000Z</time>
      </trkpt>
      <trkpt lat="45.77366" lon="4.63461">
        <ele>626.71655</ele>
        <time>2023-09-30T07:58:33.000Z</time>
      </trkpt>
      <trkpt lat="45.77364" lon="4.63459">
        <ele>627.57208</ele>
        <time>2023-09-30T07:58:34.000Z</time>
      </trkpt>
      <trkpt lat="45.77363" lon="4.63456">
        <ele>628.45673</ele>
        <time>2023-09-30T07:58:35.000Z</time>
      </trkpt>
      <trkpt lat="45.77362" lon="4.63453">
        <ele>629.21515</ele>
        <time>2023-09-30T07:58:36.000Z</time>
      </trkpt>
      <trkpt lat="45.77361" lon="4.6345">
        <ele>629.85571</ele>
        <time>2023-09-30T07:58:37.000Z</time>
      </trkpt>
      <trkpt lat="45.77359" lon="4.63448">
        <ele>630.38715</ele>
        <time>2023-09-30T07:58:38.000Z</time>
      </trkpt>
      <trkpt lat="45.77358" lon="4.63446">
        <ele>630.92444</ele>
        <time>2023-09-30T07:58:39.000Z</time>
      </trkpt>
      <trkpt lat="45.77357" lon="4.63443">
        <ele>631.30121</ele>
        <time>2023-09-30T07:58:40.000Z</time>
      </trkpt>
      <trkpt lat="45.77355" lon="4.6344">
        <ele>631.63507</ele>
        <time>2023-09-30T07:58:41.000Z</time>
      </trkpt>
      <trkpt lat="45.77354" lon="4.63438">
        <ele>631.99634</ele>
        <time>2023-09-30T07:58:42.000Z</time>
      </trkpt>
      <trkpt lat="45.77352" lon="4.63436">
        <ele>632.38428</ele>
        <time>2023-09-30T07:58:43.000Z</time>
      </trkpt>
      <trkpt lat="45.7735" lon="4.63435">
        <ele>632.77625</ele>
        <time>2023-09-30T07:58:44.000Z</time>
      </trkpt>
      <trkpt lat="45.77348" lon="4.63431">
        <ele>633.20074</ele>
        <time>2023-09-30T07:58:46.000Z</time>
      </trkpt>
      <trkpt lat="45.77346" lon="4.63428">
        <ele>633.63348</ele>
        <time>2023-09-30T07:58:47.000Z</time>
      </trkpt>
      <trkpt lat="45.77344" lon="4.63425">
        <ele>634.01373</ele>
        <time>2023-09-30T07:58:49.000Z</time>
      </trkpt>
      <trkpt lat="45.77343" lon="4.63424">
        <ele>634.2851</ele>
        <time>2023-09-30T07:58:51.000Z</time>
      </trkpt>
      <trkpt lat="45.77344" lon="4.63425">
        <ele>634.58044</ele>
        <time>2023-09-30T07:58:56.000Z</time>
      </trkpt>
      <trkpt lat="45.77346" lon="4.63423">
        <ele>634.89331</ele>
        <time>2023-09-30T07:59:06.000Z</time>
      </trkpt>
      <trkpt lat="45.77346" lon="4.6342">
        <ele>634.94012</ele>
        <time>2023-09-30T07:59:13.000Z</time>
      </trkpt>
      <trkpt lat="45.77345" lon="4.63418">
        <ele>635.17004</ele>
        <time>2023-09-30T07:59:17.000Z</time>
      </trkpt>
      <trkpt lat="45.77344" lon="4.63414">
        <ele>635.27087</ele>
        <time>2023-09-30T07:59:21.000Z</time>
      </trkpt>
      <trkpt lat="45.77342" lon="4.63412">
        <ele>635.53107</ele>
        <time>2023-09-30T07:59:25.000Z</time>
      </trkpt>
      <trkpt lat="45.7734" lon="4.63411">
        <ele>636.34998</ele>
        <time>2023-09-30T07:59:28.000Z</time>
      </trkpt>
      <trkpt lat="45.7734" lon="4.63407">
        <ele>636.53113</ele>
        <time>2023-09-30T07:59:33.000Z</time>
      </trkpt>
      <trkpt lat="45.77339" lon="4.63405">
        <ele>637.61212</ele>
        <time>2023-09-30T07:59:35.000Z</time>
      </trkpt>
      <trkpt lat="45.77337" lon="4.63403">
        <ele>638.5658</ele>
        <time>2023-09-30T07:59:37.000Z</time>
      </trkpt>
      <trkpt lat="45.77335" lon="4.634">
        <ele>638.73749</ele>
        <time>2023-09-30T07:59:40.000Z</time>
      </trkpt>
      <trkpt lat="45.77334" lon="4.63397">
        <ele>633.35645</ele>
        <time>2023-09-30T07:59:43.000Z</time>
      </trkpt>
      <trkpt lat="45.77332" lon="4.63396">
        <ele>633.36249</ele>
        <time>2023-09-30T07:59:46.000Z</time>
      </trkpt>
      <trkpt lat="45.77331" lon="4.63394">
        <ele>634.26532</ele>
        <time>2023-09-30T07:59:51.000Z</time>
      </trkpt>
      <trkpt lat="45.7733" lon="4.63391">
        <ele>635.10132</ele>
        <time>2023-09-30T07:59:55.000Z</time>
      </trkpt>
      <trkpt lat="45.7733" lon="4.63388">
        <ele>636.18347</ele>
        <time>2023-09-30T07:59:59.000Z</time>
      </trkpt>
      <trkpt lat="45.77329" lon="4.63386">
        <ele>637.22369</ele>
        <time>2023-09-30T08:00:01.000Z</time>
      </trkpt>
      <trkpt lat="45.77328" lon="4.63383">
        <ele>638.36908</ele>
        <time>2023-09-30T08:00:04.000Z</time>
      </trkpt>
      <trkpt lat="45.77328" lon="4.6338">
        <ele>639.55481</ele>
        <time>2023-09-30T08:00:08.000Z</time>
      </trkpt>
      <trkpt lat="45.77329" lon="4.63378">
        <ele>641.00763</ele>
        <time>2023-09-30T08:00:13.000Z</time>
      </trkpt>
      <trkpt lat="45.77329" lon="4.63374">
        <ele>642.2533</ele>
        <time>2023-09-30T08:00:16.000Z</time>
      </trkpt>
      <trkpt lat="45.77328" lon="4.63371">
        <ele>643.27295</ele>
        <time>2023-09-30T08:00:18.000Z</time>
      </trkpt>
      <trkpt lat="45.77327" lon="4.63369">
        <ele>644.67444</ele>
        <time>2023-09-30T08:00:20.000Z</time>
      </trkpt>
      <trkpt lat="45.77326" lon="4.63367">
        <ele>645.85876</ele>
        <time>2023-09-30T08:00:22.000Z</time>
      </trkpt>
      <trkpt lat="45.77324" lon="4.63364">
        <ele>647.25604</ele>
        <time>2023-09-30T08:00:25.000Z</time>
      </trkpt>
      <trkpt lat="45.77323" lon="4.63361">
        <ele>648.44617</ele>
        <time>2023-09-30T08:00:28.000Z</time>
      </trkpt>
      <trkpt lat="45.77323" lon="4.63358">
        <ele>649.10962</ele>
        <time>2023-09-30T08:00:31.000Z</time>
      </trkpt>
      <trkpt lat="45.77323" lon="4.63356">
        <ele>650.46631</ele>
        <time>2023-09-30T08:00:35.000Z</time>
      </trkpt>
      <trkpt lat="45.77323" lon="4.63353">
        <ele>650.88586</ele>
        <time>2023-09-30T08:00:37.000Z</time>
      </trkpt>
      <trkpt lat="45.77323" lon="4.63349">
        <ele>651.49084</ele>
        <time>2023-09-30T08:00:40.000Z</time>
      </trkpt>
      <trkpt lat="45.77324" lon="4.63347">
        <ele>652.13715</ele>
        <time>2023-09-30T08:00:43.000Z</time>
      </trkpt>
      <trkpt lat="45.77324" lon="4.63344">
        <ele>656.25098</ele>
        <time>2023-09-30T08:00:47.000Z</time>
      </trkpt>
      <trkpt lat="45.77325" lon="4.6334">
        <ele>657.82336</ele>
        <time>2023-09-30T08:01:18.000Z</time>
      </trkpt>
      <trkpt lat="45.77325" lon="4.63335">
        <ele>658.25604</ele>
        <time>2023-09-30T08:01:20.000Z</time>
      </trkpt>
      <trkpt lat="45.77325" lon="4.63332">
        <ele>658.55896</ele>
        <time>2023-09-30T08:01:22.000Z</time>
      </trkpt>
      <trkpt lat="45.77327" lon="4.6333">
        <ele>658.57849</ele>
        <time>2023-09-30T08:01:24.000Z</time>
      </trkpt>
      <trkpt lat="45.77329" lon="4.63326">
        <ele>651.10791</ele>
        <time>2023-09-30T08:01:26.000Z</time>
      </trkpt>
      <trkpt lat="45.77331" lon="4.63323">
        <ele>650.58563</ele>
        <time>2023-09-30T08:01:27.000Z</time>
      </trkpt>
      <trkpt lat="45.77332" lon="4.63321">
        <ele>650.04639</ele>
        <time>2023-09-30T08:01:28.000Z</time>
      </trkpt>
      <trkpt lat="45.77334" lon="4.63317">
        <ele>649.34094</ele>
        <time>2023-09-30T08:01:29.000Z</time>
      </trkpt>
      <trkpt lat="45.77336" lon="4.63314">
        <ele>648.68134</ele>
        <time>2023-09-30T08:01:30.000Z</time>
      </trkpt>
      <trkpt lat="45.77337" lon="4.63311">
        <ele>648.18524</ele>
        <time>2023-09-30T08:01:31.000Z</time>
      </trkpt>
      <trkpt lat="45.77339" lon="4.63308">
        <ele>640.38049</ele>
        <time>2023-09-30T08:01:32.000Z</time>
      </trkpt>
      <trkpt lat="45.77341" lon="4.63305">
        <ele>639.30811</ele>
        <time>2023-09-30T08:01:33.000Z</time>
      </trkpt>
      <trkpt lat="45.77343" lon="4.63303">
        <ele>638.18835</ele>
        <time>2023-09-30T08:01:34.000Z</time>
      </trkpt>
      <trkpt lat="45.77347" lon="4.63302">
        <ele>637.00781</ele>
        <time>2023-09-30T08:01:35.000Z</time>
      </trkpt>
      <trkpt lat="45.7735" lon="4.63301">
        <ele>635.6969</ele>
        <time>2023-09-30T08:01:36.000Z</time>
      </trkpt>
      <trkpt lat="45.77352" lon="4.63298">
        <ele>627.60846</ele>
        <time>2023-09-30T08:01:38.000Z</time>
      </trkpt>
      <trkpt lat="45.77354" lon="4.63296">
        <ele>625.83826</ele>
        <time>2023-09-30T08:01:39.000Z</time>
      </trkpt>
      <trkpt lat="45.77355" lon="4.63294">
        <ele>623.84393</ele>
        <time>2023-09-30T08:01:40.000Z</time>
      </trkpt>
      <trkpt lat="45.77358" lon="4.63293">
        <ele>622.46155</ele>
        <time>2023-09-30T08:01:41.000Z</time>
      </trkpt>
      <trkpt lat="45.7736" lon="4.63291">
        <ele>623.17572</ele>
        <time>2023-09-30T08:01:42.000Z</time>
      </trkpt>
      <trkpt lat="45.77362" lon="4.63288">
        <ele>621.0943</ele>
        <time>2023-09-30T08:01:43.000Z</time>
      </trkpt>
      <trkpt lat="45.77364" lon="4.63285">
        <ele>611.30872</ele>
        <time>2023-09-30T08:01:44.000Z</time>
      </trkpt>
      <trkpt lat="45.77366" lon="4.63283">
        <ele>608.96136</ele>
        <time>2023-09-30T08:01:45.000Z</time>
      </trkpt>
      <trkpt lat="45.77368" lon="4.63281">
        <ele>606.48151</ele>
        <time>2023-09-30T08:01:47.000Z</time>
      </trkpt>
      <trkpt lat="45.77371" lon="4.63279">
        <ele>611.35522</ele>
        <time>2023-09-30T08:01:49.000Z</time>
      </trkpt>
      <trkpt lat="45.77373" lon="4.63278">
        <ele>602.33081</ele>
        <time>2023-09-30T08:01:50.000Z</time>
      </trkpt>
      <trkpt lat="45.77375" lon="4.63276">
        <ele>599.91809</ele>
        <time>2023-09-30T08:01:51.000Z</time>
      </trkpt>
      <trkpt lat="45.77377" lon="4.63275">
        <ele>597.41162</ele>
        <time>2023-09-30T08:01:52.000Z</time>
      </trkpt>
      <trkpt lat="45.77381" lon="4.63272">
        <ele>594.81512</ele>
        <time>2023-09-30T08:01:54.000Z</time>
      </trkpt>
      <trkpt lat="45.77384" lon="4.63271">
        <ele>586.21326</ele>
        <time>2023-09-30T08:01:56.000Z</time>
      </trkpt>
      <trkpt lat="45.77386" lon="4.6327">
        <ele>590.26068</ele>
        <time>2023-09-30T08:01:59.000Z</time>
      </trkpt>
      <trkpt lat="45.77388" lon="4.63268">
        <ele>588.85181</ele>
        <time>2023-09-30T08:02:01.000Z</time>
      </trkpt>
      <trkpt lat="45.77392" lon="4.63267">
        <ele>586.32898</ele>
        <time>2023-09-30T08:02:03.000Z</time>
      </trkpt>
      <trkpt lat="45.77394" lon="4.63267">
        <ele>583.73602</ele>
        <time>2023-09-30T08:02:05.000Z</time>
      </trkpt>
      <trkpt lat="45.77396" lon="4.63267">
        <ele>581.07245</ele>
        <time>2023-09-30T08:02:06.000Z</time>
      </trkpt>
      <trkpt lat="45.77398" lon="4.63267">
        <ele>588.59851</ele>
        <time>2023-09-30T08:02:07.000Z</time>
      </trkpt>
      <trkpt lat="45.77401" lon="4.63266">
        <ele>586.64807</ele>
        <time>2023-09-30T08:02:09.000Z</time>
      </trkpt>
      <trkpt lat="45.77402" lon="4.63264">
        <ele>584.6886</ele>
        <time>2023-09-30T08:02:11.000Z</time>
      </trkpt>
      <trkpt lat="45.77403" lon="4.63261">
        <ele>586.38416</ele>
        <time>2023-09-30T08:02:15.000Z</time>
      </trkpt>
      <trkpt lat="45.77403" lon="4.63259">
        <ele>588.11169</ele>
        <time>2023-09-30T08:02:26.000Z</time>
      </trkpt>
      <trkpt lat="45.77405" lon="4.6326">
        <ele>589.80237</ele>
        <time>2023-09-30T08:02:35.000Z</time>
      </trkpt>
      <trkpt lat="45.77403" lon="4.63258">
        <ele>594.7442</ele>
        <time>2023-09-30T08:02:49.000Z</time>
      </trkpt>
      <trkpt lat="45.77401" lon="4.63257">
        <ele>593.91595</ele>
        <time>2023-09-30T08:02:53.000Z</time>
      </trkpt>
      <trkpt lat="45.77399" lon="4.63256">
        <ele>593.33337</ele>
        <time>2023-09-30T08:02:56.000Z</time>
      </trkpt>
      <trkpt lat="45.77397" lon="4.63255">
        <ele>592.6759</ele>
        <time>2023-09-30T08:03:00.000Z</time>
      </trkpt>
      <trkpt lat="45.77395" lon="4.63255">
        <ele>598.83533</ele>
        <time>2023-09-30T08:03:03.000Z</time>
      </trkpt>
      <trkpt lat="45.77393" lon="4.63252">
        <ele>597.26355</ele>
        <time>2023-09-30T08:03:13.000Z</time>
      </trkpt>
      <trkpt lat="45.77392" lon="4.63249">
        <ele>595.77136</ele>
        <time>2023-09-30T08:03:15.000Z</time>
      </trkpt>
      <trkpt lat="45.7739" lon="4.63248">
        <ele>594.8125</ele>
        <time>2023-09-30T08:03:18.000Z</time>
      </trkpt>
      <trkpt lat="45.77389" lon="4.63245">
        <ele>599.74939</ele>
        <time>2023-09-30T08:03:20.000Z</time>
      </trkpt>
      <trkpt lat="45.77387" lon="4.63244">
        <ele>599.92914</ele>
        <time>2023-09-30T08:03:23.000Z</time>
      </trkpt>
      <trkpt lat="45.77385" lon="4.63244">
        <ele>598.54132</ele>
        <time>2023-09-30T08:03:27.000Z</time>
      </trkpt>
      <trkpt lat="45.77383" lon="4.63243">
        <ele>598.64099</ele>
        <time>2023-09-30T08:03:30.000Z</time>
      </trkpt>
      <trkpt lat="45.77382" lon="4.63241">
        <ele>599.25659</ele>
        <time>2023-09-30T08:03:32.000Z</time>
      </trkpt>
      <trkpt lat="45.77379" lon="4.6324">
        <ele>600.97906</ele>
        <time>2023-09-30T08:03:35.000Z</time>
      </trkpt>
      <trkpt lat="45.77376" lon="4.63238">
        <ele>599.40118</ele>
        <time>2023-09-30T08:03:38.000Z</time>
      </trkpt>
      <trkpt lat="45.77374" lon="4.63237">
        <ele>600.82275</ele>
        <time>2023-09-30T08:03:41.000Z</time>
      </trkpt>
      <trkpt lat="45.77372" lon="4.63235">
        <ele>601.53143</ele>
        <time>2023-09-30T08:03:43.000Z</time>
      </trkpt>
      <trkpt lat="45.77371" lon="4.63234">
        <ele>600.99426</ele>
        <time>2023-09-30T08:03:52.000Z</time>
      </trkpt>
      <trkpt lat="45.77369" lon="4.63231">
        <ele>600.43884</ele>
        <time>2023-09-30T08:04:50.000Z</time>
      </trkpt>
      <trkpt lat="45.77368" lon="4.6323">
        <ele>597.61127</ele>
        <time>2023-09-30T08:04:53.000Z</time>
      </trkpt>
      <trkpt lat="45.77366" lon="4.63229">
        <ele>601.65833</ele>
        <time>2023-09-30T08:04:56.000Z</time>
      </trkpt>
      <trkpt lat="45.77363" lon="4.63229">
        <ele>602.00403</ele>
        <time>2023-09-30T08:05:00.000Z</time>
      </trkpt>
      <trkpt lat="45.77362" lon="4.63227">
        <ele>604.86243</ele>
        <time>2023-09-30T08:05:04.000Z</time>
      </trkpt>
      <trkpt lat="45.77359" lon="4.63226">
        <ele>605.43884</ele>
        <time>2023-09-30T08:05:07.000Z</time>
      </trkpt>
      <trkpt lat="45.77357" lon="4.63225">
        <ele>608.15594</ele>
        <time>2023-09-30T08:05:10.000Z</time>
      </trkpt>
      <trkpt lat="45.77356" lon="4.63223">
        <ele>610.01898</ele>
        <time>2023-09-30T08:05:15.000Z</time>
      </trkpt>
      <trkpt lat="45.77353" lon="4.63222">
        <ele>611.87384</ele>
        <time>2023-09-30T08:05:26.000Z</time>
      </trkpt>
      <trkpt lat="45.77351" lon="4.63221">
        <ele>613.13031</ele>
        <time>2023-09-30T08:05:28.000Z</time>
      </trkpt>
      <trkpt lat="45.77348" lon="4.63221">
        <ele>615.0177</ele>
        <time>2023-09-30T08:05:30.000Z</time>
      </trkpt>
      <trkpt lat="45.77346" lon="4.6322">
        <ele>616.2782</ele>
        <time>2023-09-30T08:05:31.000Z</time>
      </trkpt>
      <trkpt lat="45.77343" lon="4.63218">
        <ele>617.86975</ele>
        <time>2023-09-30T08:05:33.000Z</time>
      </trkpt>
      <trkpt lat="45.77341" lon="4.63218">
        <ele>617.33307</ele>
        <time>2023-09-30T08:05:34.000Z</time>
      </trkpt>
      <trkpt lat="45.77339" lon="4.63218">
        <ele>618.2677</ele>
        <time>2023-09-30T08:05:35.000Z</time>
      </trkpt>
      <trkpt lat="45.77335" lon="4.63217">
        <ele>618.27179</ele>
        <time>2023-09-30T08:05:37.000Z</time>
      </trkpt>
      <trkpt lat="45.77332" lon="4.63216">
        <ele>618.15149</ele>
        <time>2023-09-30T08:05:39.000Z</time>
      </trkpt>
      <trkpt lat="45.7733" lon="4.63216">
        <ele>615.7594</ele>
        <time>2023-09-30T08:05:40.000Z</time>
      </trkpt>
      <trkpt lat="45.77328" lon="4.63216">
        <ele>616.50623</ele>
        <time>2023-09-30T08:05:41.000Z</time>
      </trkpt>
      <trkpt lat="45.77325" lon="4.63218">
        <ele>614.98096</ele>
        <time>2023-09-30T08:05:43.000Z</time>
      </trkpt>
      <trkpt lat="45.77323" lon="4.63219">
        <ele>613.43475</ele>
        <time>2023-09-30T08:05:45.000Z</time>
      </trkpt>
      <trkpt lat="45.7732" lon="4.6322">
        <ele>612.68097</ele>
        <time>2023-09-30T08:05:47.000Z</time>
      </trkpt>
      <trkpt lat="45.77318" lon="4.6322">
        <ele>609.93817</ele>
        <time>2023-09-30T08:05:49.000Z</time>
      </trkpt>
      <trkpt lat="45.77316" lon="4.63219">
        <ele>610.35217</ele>
        <time>2023-09-30T08:05:51.000Z</time>
      </trkpt>
      <trkpt lat="45.77314" lon="4.63217">
        <ele>608.14606</ele>
        <time>2023-09-30T08:05:53.000Z</time>
      </trkpt>
      <trkpt lat="45.77312" lon="4.63216">
        <ele>605.76251</ele>
        <time>2023-09-30T08:05:55.000Z</time>
      </trkpt>
      <trkpt lat="45.77309" lon="4.63215">
        <ele>603.64319</ele>
        <time>2023-09-30T08:05:57.000Z</time>
      </trkpt>
      <trkpt lat="45.77307" lon="4.63215">
        <ele>601.37366</ele>
        <time>2023-09-30T08:06:02.000Z</time>
      </trkpt>
      <trkpt lat="45.77306" lon="4.63215">
        <ele>600.42584</ele>
        <time>2023-09-30T08:06:07.000Z</time>
      </trkpt>
      <trkpt lat="45.77303" lon="4.63213">
        <ele>600.27893</ele>
        <time>2023-09-30T08:06:12.000Z</time>
      </trkpt>
      <trkpt lat="45.77301" lon="4.63214">
        <ele>601.86749</ele>
        <time>2023-09-30T08:06:15.000Z</time>
      </trkpt>
      <trkpt lat="45.77299" lon="4.63214">
        <ele>601.20996</ele>
        <time>2023-09-30T08:06:17.000Z</time>
      </trkpt>
      <trkpt lat="45.77296" lon="4.63215">
        <ele>600.45654</ele>
        <time>2023-09-30T08:06:20.000Z</time>
      </trkpt>
      <trkpt lat="45.77294" lon="4.63214">
        <ele>603.50775</ele>
        <time>2023-09-30T08:06:26.000Z</time>
      </trkpt>
      <trkpt lat="45.77292" lon="4.63215">
        <ele>602.81653</ele>
        <time>2023-09-30T08:06:29.000Z</time>
      </trkpt>
      <trkpt lat="45.7729" lon="4.63215">
        <ele>602.04395</ele>
        <time>2023-09-30T08:06:31.000Z</time>
      </trkpt>
      <trkpt lat="45.77288" lon="4.63217">
        <ele>603.03259</ele>
        <time>2023-09-30T08:06:33.000Z</time>
      </trkpt>
      <trkpt lat="45.77286" lon="4.63219">
        <ele>604.72479</ele>
        <time>2023-09-30T08:06:35.000Z</time>
      </trkpt>
      <trkpt lat="45.77283" lon="4.63217">
        <ele>604.17303</ele>
        <time>2023-09-30T08:06:37.000Z</time>
      </trkpt>
      <trkpt lat="45.7728" lon="4.63214">
        <ele>605.03766</ele>
        <time>2023-09-30T08:06:39.000Z</time>
      </trkpt>
      <trkpt lat="45.77278" lon="4.63214">
        <ele>605.92865</ele>
        <time>2023-09-30T08:06:40.000Z</time>
      </trkpt>
      <trkpt lat="45.77276" lon="4.63212">
        <ele>608.29211</ele>
        <time>2023-09-30T08:06:42.000Z</time>
      </trkpt>
      <trkpt lat="45.77274" lon="4.63212">
        <ele>610.46698</ele>
        <time>2023-09-30T08:06:47.000Z</time>
      </trkpt>
      <trkpt lat="45.77272" lon="4.63208">
        <ele>611.67664</ele>
        <time>2023-09-30T08:06:49.000Z</time>
      </trkpt>
      <trkpt lat="45.7727" lon="4.63207">
        <ele>612.88385</ele>
        <time>2023-09-30T08:06:50.000Z</time>
      </trkpt>
      <trkpt lat="45.77268" lon="4.63207">
        <ele>616.78741</ele>
        <time>2023-09-30T08:06:51.000Z</time>
      </trkpt>
      <trkpt lat="45.77265" lon="4.63207">
        <ele>618.32452</ele>
        <time>2023-09-30T08:06:52.000Z</time>
      </trkpt>
      <trkpt lat="45.77263" lon="4.63208">
        <ele>621.99182</ele>
        <time>2023-09-30T08:06:53.000Z</time>
      </trkpt>
      <trkpt lat="45.77261" lon="4.63208">
        <ele>624.40125</ele>
        <time>2023-09-30T08:06:54.000Z</time>
      </trkpt>
      <trkpt lat="45.77259" lon="4.63209">
        <ele>626.20203</ele>
        <time>2023-09-30T08:06:56.000Z</time>
      </trkpt>
      <trkpt lat="45.77258" lon="4.63211">
        <ele>625.97278</ele>
        <time>2023-09-30T08:07:02.000Z</time>
      </trkpt>
      <trkpt lat="45.77257" lon="4.63214">
        <ele>627.69812</ele>
        <time>2023-09-30T08:07:39.000Z</time>
      </trkpt>
      <trkpt lat="45.77257" lon="4.63216">
        <ele>630.18359</ele>
        <time>2023-09-30T08:07:41.000Z</time>
      </trkpt>
      <trkpt lat="45.77257" lon="4.63219">
        <ele>630.77496</ele>
        <time>2023-09-30T08:07:42.000Z</time>
      </trkpt>
      <trkpt lat="45.77256" lon="4.63222">
        <ele>633.24518</ele>
        <time>2023-09-30T08:07:43.000Z</time>
      </trkpt>
      <trkpt lat="45.77255" lon="4.63225">
        <ele>635.25067</ele>
        <time>2023-09-30T08:07:45.000Z</time>
      </trkpt>
      <trkpt lat="45.77254" lon="4.6323">
        <ele>635.37976</ele>
        <time>2023-09-30T08:07:47.000Z</time>
      </trkpt>
      <trkpt lat="45.77252" lon="4.63233">
        <ele>637.35907</ele>
        <time>2023-09-30T08:07:49.000Z</time>
      </trkpt>
      <trkpt lat="45.7725" lon="4.63233">
        <ele>639.31384</ele>
        <time>2023-09-30T08:07:50.000Z</time>
      </trkpt>
      <trkpt lat="45.77248" lon="4.63232">
        <ele>639.77716</ele>
        <time>2023-09-30T08:07:51.000Z</time>
      </trkpt>
      <trkpt lat="45.77247" lon="4.6323">
        <ele>640.27228</ele>
        <time>2023-09-30T08:07:52.000Z</time>
      </trkpt>
      <trkpt lat="45.77246" lon="4.63226">
        <ele>640.73224</ele>
        <time>2023-09-30T08:07:54.000Z</time>
      </trkpt>
      <trkpt lat="45.77249" lon="4.63222">
        <ele>640.93024</ele>
        <time>2023-09-30T08:07:56.000Z</time>
      </trkpt>
      <trkpt lat="45.77251" lon="4.63221">
        <ele>641.25165</ele>
        <time>2023-09-30T08:07:58.000Z</time>
      </trkpt>
      <trkpt lat="45.77252" lon="4.63218">
        <ele>641.73425</ele>
        <time>2023-09-30T08:08:00.000Z</time>
      </trkpt>
      <trkpt lat="45.77252" lon="4.63215">
        <ele>642.16901</ele>
        <time>2023-09-30T08:08:01.000Z</time>
      </trkpt>
      <trkpt lat="45.77252" lon="4.63212">
        <ele>642.48676</ele>
        <time>2023-09-30T08:08:02.000Z</time>
      </trkpt>
      <trkpt lat="45.77253" lon="4.63209">
        <ele>642.71228</ele>
        <time>2023-09-30T08:08:03.000Z</time>
      </trkpt>
      <trkpt lat="45.77253" lon="4.63206">
        <ele>643.78595</ele>
        <time>2023-09-30T08:08:04.000Z</time>
      </trkpt>
      <trkpt lat="45.77253" lon="4.63203">
        <ele>644.60168</ele>
        <time>2023-09-30T08:08:05.000Z</time>
      </trkpt>
      <trkpt lat="45.77253" lon="4.63199">
        <ele>645.18018</ele>
        <time>2023-09-30T08:08:06.000Z</time>
      </trkpt>
      <trkpt lat="45.77253" lon="4.63195">
        <ele>645.6123</ele>
        <time>2023-09-30T08:08:07.000Z</time>
      </trkpt>
      <trkpt lat="45.77254" lon="4.63191">
        <ele>645.28381</ele>
        <time>2023-09-30T08:08:08.000Z</time>
      </trkpt>
      <trkpt lat="45.77254" lon="4.63187">
        <ele>644.8623</ele>
        <time>2023-09-30T08:08:09.000Z</time>
      </trkpt>
      <trkpt lat="45.77254" lon="4.63183">
        <ele>644.23828</ele>
        <time>2023-09-30T08:08:10.000Z</time>
      </trkpt>
      <trkpt lat="45.77254" lon="4.63178">
        <ele>644.02948</ele>
        <time>2023-09-30T08:08:11.000Z</time>
      </trkpt>
      <trkpt lat="45.77253" lon="4.63173">
        <ele>643.94708</ele>
        <time>2023-09-30T08:08:12.000Z</time>
      </trkpt>
      <trkpt lat="45.77252" lon="4.63169">
        <ele>643.67706</ele>
        <time>2023-09-30T08:08:13.000Z</time>
      </trkpt>
      <trkpt lat="45.77252" lon="4.63165">
        <ele>643.35345</ele>
        <time>2023-09-30T08:08:14.000Z</time>
      </trkpt>
      <trkpt lat="45.77249" lon="4.63161">
        <ele>642.92487</ele>
        <time>2023-09-30T08:08:15.000Z</time>
      </trkpt>
      <trkpt lat="45.77246" lon="4.63155">
        <ele>642.33655</ele>
        <time>2023-09-30T08:08:16.000Z</time>
      </trkpt>
      <trkpt lat="45.77244" lon="4.6315">
        <ele>641.88928</ele>
        <time>2023-09-30T08:08:17.000Z</time>
      </trkpt>
      <trkpt lat="45.77242" lon="4.63146">
        <ele>641.58276</ele>
        <time>2023-09-30T08:08:18.000Z</time>
      </trkpt>
      <trkpt lat="45.7724" lon="4.63142">
        <ele>641.159</ele>
        <time>2023-09-30T08:08:19.000Z</time>
      </trkpt>
      <trkpt lat="45.77239" lon="4.63139">
        <ele>640.63879</ele>
        <time>2023-09-30T08:08:20.000Z</time>
      </trkpt>
      <trkpt lat="45.77238" lon="4.63135">
        <ele>640.0592</ele>
        <time>2023-09-30T08:08:21.000Z</time>
      </trkpt>
      <trkpt lat="45.77236" lon="4.63131">
        <ele>639.43512</ele>
        <time>2023-09-30T08:08:22.000Z</time>
      </trkpt>
      <trkpt lat="45.77235" lon="4.63129">
        <ele>638.95227</ele>
        <time>2023-09-30T08:08:23.000Z</time>
      </trkpt>
      <trkpt lat="45.77233" lon="4.63125">
        <ele>637.58093</ele>
        <time>2023-09-30T08:08:24.000Z</time>
      </trkpt>
      <trkpt lat="45.77231" lon="4.63121">
        <ele>636.46143</ele>
        <time>2023-09-30T08:08:25.000Z</time>
      </trkpt>
      <trkpt lat="45.7723" lon="4.63117">
        <ele>635.4397</ele>
        <time>2023-09-30T08:08:26.000Z</time>
      </trkpt>
      <trkpt lat="45.77229" lon="4.63114">
        <ele>634.83673</ele>
        <time>2023-09-30T08:08:27.000Z</time>
      </trkpt>
      <trkpt lat="45.77227" lon="4.63109">
        <ele>634.36102</ele>
        <time>2023-09-30T08:08:28.000Z</time>
      </trkpt>
      <trkpt lat="45.77225" lon="4.63104">
        <ele>633.85248</ele>
        <time>2023-09-30T08:08:29.000Z</time>
      </trkpt>
      <trkpt lat="45.77223" lon="4.63098">
        <ele>633.52356</ele>
        <time>2023-09-30T08:08:30.000Z</time>
      </trkpt>
      <trkpt lat="45.77221" lon="4.63093">
        <ele>633.26215</ele>
        <time>2023-09-30T08:08:31.000Z</time>
      </trkpt>
      <trkpt lat="45.77219" lon="4.63088">
        <ele>632.97638</ele>
        <time>2023-09-30T08:08:32.000Z</time>
      </trkpt>
      <trkpt lat="45.77216" lon="4.63083">
        <ele>628.72302</ele>
        <time>2023-09-30T08:08:33.000Z</time>
      </trkpt>
      <trkpt lat="45.77214" lon="4.63079">
        <ele>628.29175</ele>
        <time>2023-09-30T08:08:34.000Z</time>
      </trkpt>
      <trkpt lat="45.77213" lon="4.63075">
        <ele>627.98181</ele>
        <time>2023-09-30T08:08:35.000Z</time>
      </trkpt>
      <trkpt lat="45.77212" lon="4.63072">
        <ele>627.83392</ele>
        <time>2023-09-30T08:08:36.000Z</time>
      </trkpt>
      <trkpt lat="45.77211" lon="4.63068">
        <ele>627.58142</ele>
        <time>2023-09-30T08:08:37.000Z</time>
      </trkpt>
      <trkpt lat="45.7721" lon="4.63064">
        <ele>627.35779</ele>
        <time>2023-09-30T08:08:38.000Z</time>
      </trkpt>
      <trkpt lat="45.77209" lon="4.6306">
        <ele>624.32098</ele>
        <time>2023-09-30T08:08:39.000Z</time>
      </trkpt>
      <trkpt lat="45.77208" lon="4.63057">
        <ele>623.84985</ele>
        <time>2023-09-30T08:08:40.000Z</time>
      </trkpt>
      <trkpt lat="45.77207" lon="4.63053">
        <ele>623.42407</ele>
        <time>2023-09-30T08:08:41.000Z</time>
      </trkpt>
      <trkpt lat="45.77206" lon="4.6305">
        <ele>623.07629</ele>
        <time>2023-09-30T08:08:42.000Z</time>
      </trkpt>
      <trkpt lat="45.77205" lon="4.63046">
        <ele>622.68176</ele>
        <time>2023-09-30T08:08:43.000Z</time>
      </trkpt>
      <trkpt lat="45.77204" lon="4.63043">
        <ele>622.29346</ele>
        <time>2023-09-30T08:08:44.000Z</time>
      </trkpt>
      <trkpt lat="45.77204" lon="4.63039">
        <ele>618.45288</ele>
        <time>2023-09-30T08:08:45.000Z</time>
      </trkpt>
      <trkpt lat="45.77203" lon="4.63036">
        <ele>617.80292</ele>
        <time>2023-09-30T08:08:46.000Z</time>
      </trkpt>
      <trkpt lat="45.77202" lon="4.63033">
        <ele>617.04529</ele>
        <time>2023-09-30T08:08:47.000Z</time>
      </trkpt>
      <trkpt lat="45.77201" lon="4.63029">
        <ele>616.15564</ele>
        <time>2023-09-30T08:08:48.000Z</time>
      </trkpt>
      <trkpt lat="45.772" lon="4.63024">
        <ele>615.24536</ele>
        <time>2023-09-30T08:08:49.000Z</time>
      </trkpt>
      <trkpt lat="45.77198" lon="4.6302">
        <ele>614.315</ele>
        <time>2023-09-30T08:08:50.000Z</time>
      </trkpt>
      <trkpt lat="45.77196" lon="4.63016">
        <ele>611.2088</ele>
        <time>2023-09-30T08:08:51.000Z</time>
      </trkpt>
      <trkpt lat="45.77194" lon="4.63012">
        <ele>610.10614</ele>
        <time>2023-09-30T08:08:52.000Z</time>
      </trkpt>
      <trkpt lat="45.77192" lon="4.63009">
        <ele>613.00385</ele>
        <time>2023-09-30T08:08:53.000Z</time>
      </trkpt>
      <trkpt lat="45.77191" lon="4.63005">
        <ele>611.6958</ele>
        <time>2023-09-30T08:08:54.000Z</time>
      </trkpt>
      <trkpt lat="45.77189" lon="4.63002">
        <ele>609.64362</ele>
        <time>2023-09-30T08:08:55.000Z</time>
      </trkpt>
      <trkpt lat="45.77186" lon="4.62998">
        <ele>607.84991</ele>
        <time>2023-09-30T08:08:56.000Z</time>
      </trkpt>
      <trkpt lat="45.77183" lon="4.62996">
        <ele>606.09729</ele>
        <time>2023-09-30T08:08:57.000Z</time>
      </trkpt>
      <trkpt lat="45.77181" lon="4.62994">
        <ele>604.74023</ele>
        <time>2023-09-30T08:08:58.000Z</time>
      </trkpt>
      <trkpt lat="45.77178" lon="4.62992">
        <ele>606.05737</ele>
        <time>2023-09-30T08:08:59.000Z</time>
      </trkpt>
      <trkpt lat="45.77176" lon="4.62989">
        <ele>604.79895</ele>
        <time>2023-09-30T08:09:00.000Z</time>
      </trkpt>
      <trkpt lat="45.77173" lon="4.62985">
        <ele>603.70618</ele>
        <time>2023-09-30T08:09:01.000Z</time>
      </trkpt>
      <trkpt lat="45.7717" lon="4.62979">
        <ele>602.48712</ele>
        <time>2023-09-30T08:09:02.000Z</time>
      </trkpt>
      <trkpt lat="45.77168" lon="4.62973">
        <ele>600.87573</ele>
        <time>2023-09-30T08:09:03.000Z</time>
      </trkpt>
      <trkpt lat="45.77167" lon="4.62967">
        <ele>598.87708</ele>
        <time>2023-09-30T08:09:04.000Z</time>
      </trkpt>
      <trkpt lat="45.77166" lon="4.62963">
        <ele>600.26013</ele>
        <time>2023-09-30T08:09:05.000Z</time>
      </trkpt>
      <trkpt lat="45.77166" lon="4.62958">
        <ele>600.23315</ele>
        <time>2023-09-30T08:09:06.000Z</time>
      </trkpt>
      <trkpt lat="45.77165" lon="4.62954">
        <ele>599.43652</ele>
        <time>2023-09-30T08:09:07.000Z</time>
      </trkpt>
      <trkpt lat="45.77164" lon="4.6295">
        <ele>597.85699</ele>
        <time>2023-09-30T08:09:08.000Z</time>
      </trkpt>
      <trkpt lat="45.77161" lon="4.62947">
        <ele>596.03894</ele>
        <time>2023-09-30T08:09:09.000Z</time>
      </trkpt>
      <trkpt lat="45.77158" lon="4.62944">
        <ele>593.84906</ele>
        <time>2023-09-30T08:09:10.000Z</time>
      </trkpt>
      <trkpt lat="45.77155" lon="4.62941">
        <ele>594.26166</ele>
        <time>2023-09-30T08:09:11.000Z</time>
      </trkpt>
      <trkpt lat="45.77152" lon="4.62938">
        <ele>592.29968</ele>
        <time>2023-09-30T08:09:12.000Z</time>
      </trkpt>
      <trkpt lat="45.77149" lon="4.62935">
        <ele>590.0946</ele>
        <time>2023-09-30T08:09:13.000Z</time>
      </trkpt>
      <trkpt lat="45.77146" lon="4.62933">
        <ele>590.36536</ele>
        <time>2023-09-30T08:09:14.000Z</time>
      </trkpt>
      <trkpt lat="45.77141" lon="4.62931">
        <ele>590.51208</ele>
        <time>2023-09-30T08:09:15.000Z</time>
      </trkpt>
      <trkpt lat="45.77137" lon="4.6293">
        <ele>590.33862</ele>
        <time>2023-09-30T08:09:16.000Z</time>
      </trkpt>
      <trkpt lat="45.77132" lon="4.6293">
        <ele>590.24792</ele>
        <time>2023-09-30T08:09:17.000Z</time>
      </trkpt>
      <trkpt lat="45.77129" lon="4.62929">
        <ele>589.00409</ele>
        <time>2023-09-30T08:09:18.000Z</time>
      </trkpt>
      <trkpt lat="45.77125" lon="4.62929">
        <ele>587.75293</ele>
        <time>2023-09-30T08:09:19.000Z</time>
      </trkpt>
      <trkpt lat="45.7712" lon="4.62928">
        <ele>586.22192</ele>
        <time>2023-09-30T08:09:20.000Z</time>
      </trkpt>
      <trkpt lat="45.77117" lon="4.62927">
        <ele>584.9574</ele>
        <time>2023-09-30T08:09:21.000Z</time>
      </trkpt>
      <trkpt lat="45.77114" lon="4.62926">
        <ele>583.75903</ele>
        <time>2023-09-30T08:09:22.000Z</time>
      </trkpt>
      <trkpt lat="45.77112" lon="4.62925">
        <ele>582.02771</ele>
        <time>2023-09-30T08:09:23.000Z</time>
      </trkpt>
      <trkpt lat="45.7711" lon="4.62923">
        <ele>580.91809</ele>
        <time>2023-09-30T08:09:24.000Z</time>
      </trkpt>
      <trkpt lat="45.77108" lon="4.6292">
        <ele>579.97894</ele>
        <time>2023-09-30T08:09:25.000Z</time>
      </trkpt>
      <trkpt lat="45.77106" lon="4.62917">
        <ele>576.66101</ele>
        <time>2023-09-30T08:09:26.000Z</time>
      </trkpt>
      <trkpt lat="45.77104" lon="4.62913">
        <ele>575.92267</ele>
        <time>2023-09-30T08:09:27.000Z</time>
      </trkpt>
      <trkpt lat="45.77101" lon="4.62908">
        <ele>575.64441</ele>
        <time>2023-09-30T08:09:28.000Z</time>
      </trkpt>
      <trkpt lat="45.77098" lon="4.62901">
        <ele>575.66327</ele>
        <time>2023-09-30T08:09:29.000Z</time>
      </trkpt>
      <trkpt lat="45.77095" lon="4.62896">
        <ele>576.12396</ele>
        <time>2023-09-30T08:09:30.000Z</time>
      </trkpt>
      <trkpt lat="45.77092" lon="4.6289">
        <ele>576.12109</ele>
        <time>2023-09-30T08:09:31.000Z</time>
      </trkpt>
      <trkpt lat="45.77089" lon="4.62884">
        <ele>576.55798</ele>
        <time>2023-09-30T08:09:32.000Z</time>
      </trkpt>
      <trkpt lat="45.77086" lon="4.62875">
        <ele>577.46887</ele>
        <time>2023-09-30T08:09:33.000Z</time>
      </trkpt>
      <trkpt lat="45.77082" lon="4.62867">
        <ele>576.05237</ele>
        <time>2023-09-30T08:09:34.000Z</time>
      </trkpt>
      <trkpt lat="45.7708" lon="4.6286">
        <ele>575.12292</ele>
        <time>2023-09-30T08:09:35.000Z</time>
      </trkpt>
      <trkpt lat="45.77078" lon="4.62853">
        <ele>573.94379</ele>
        <time>2023-09-30T08:09:36.000Z</time>
      </trkpt>
      <trkpt lat="45.77076" lon="4.62847">
        <ele>572.48035</ele>
        <time>2023-09-30T08:09:37.000Z</time>
      </trkpt>
      <trkpt lat="45.77074" lon="4.6284">
        <ele>571.28204</ele>
        <time>2023-09-30T08:09:38.000Z</time>
      </trkpt>
      <trkpt lat="45.77072" lon="4.62833">
        <ele>570.01575</ele>
        <time>2023-09-30T08:09:39.000Z</time>
      </trkpt>
      <trkpt lat="45.7707" lon="4.62826">
        <ele>569.41504</ele>
        <time>2023-09-30T08:09:40.000Z</time>
      </trkpt>
      <trkpt lat="45.77068" lon="4.62819">
        <ele>568.10345</ele>
        <time>2023-09-30T08:09:41.000Z</time>
      </trkpt>
      <trkpt lat="45.77066" lon="4.62812">
        <ele>566.604</ele>
        <time>2023-09-30T08:09:42.000Z</time>
      </trkpt>
      <trkpt lat="45.77063" lon="4.62805">
        <ele>565.92834</ele>
        <time>2023-09-30T08:09:43.000Z</time>
      </trkpt>
      <trkpt lat="45.77061" lon="4.62798">
        <ele>566.93298</ele>
        <time>2023-09-30T08:09:44.000Z</time>
      </trkpt>
      <trkpt lat="45.77058" lon="4.62792">
        <ele>567.85712</ele>
        <time>2023-09-30T08:09:45.000Z</time>
      </trkpt>
      <trkpt lat="45.77057" lon="4.62785">
        <ele>569.32629</ele>
        <time>2023-09-30T08:09:46.000Z</time>
      </trkpt>
      <trkpt lat="45.77055" lon="4.62777">
        <ele>568.91431</ele>
        <time>2023-09-30T08:09:47.000Z</time>
      </trkpt>
      <trkpt lat="45.77053" lon="4.62768">
        <ele>569.00006</ele>
        <time>2023-09-30T08:09:48.000Z</time>
      </trkpt>
      <trkpt lat="45.77051" lon="4.62759">
        <ele>569.17029</ele>
        <time>2023-09-30T08:09:49.000Z</time>
      </trkpt>
      <trkpt lat="45.77049" lon="4.62749">
        <ele>569.46069</ele>
        <time>2023-09-30T08:09:50.000Z</time>
      </trkpt>
      <trkpt lat="45.77046" lon="4.62738">
        <ele>569.33264</ele>
        <time>2023-09-30T08:09:51.000Z</time>
      </trkpt>
      <trkpt lat="45.77042" lon="4.62727">
        <ele>568.83691</ele>
        <time>2023-09-30T08:09:52.000Z</time>
      </trkpt>
      <trkpt lat="45.77039" lon="4.62716">
        <ele>568.01355</ele>
        <time>2023-09-30T08:09:53.000Z</time>
      </trkpt>
      <trkpt lat="45.77034" lon="4.62704">
        <ele>567.1778</ele>
        <time>2023-09-30T08:09:54.000Z</time>
      </trkpt>
      <trkpt lat="45.77028" lon="4.62686">
        <ele>567.69446</ele>
        <time>2023-09-30T08:09:55.000Z</time>
      </trkpt>
      <trkpt lat="45.77022" lon="4.62676">
        <ele>568.20441</ele>
        <time>2023-09-30T08:09:56.000Z</time>
      </trkpt>
      <trkpt lat="45.7702" lon="4.62667">
        <ele>569.10803</ele>
        <time>2023-09-30T08:09:57.000Z</time>
      </trkpt>
      <trkpt lat="45.77018" lon="4.62658">
        <ele>570.46613</ele>
        <time>2023-09-30T08:09:58.000Z</time>
      </trkpt>
      <trkpt lat="45.77014" lon="4.6265">
        <ele>571.18573</ele>
        <time>2023-09-30T08:09:59.000Z</time>
      </trkpt>
      <trkpt lat="45.77013" lon="4.62641">
        <ele>571.6853</ele>
        <time>2023-09-30T08:10:00.000Z</time>
      </trkpt>
      <trkpt lat="45.77011" lon="4.62634">
        <ele>572.76617</ele>
        <time>2023-09-30T08:10:01.000Z</time>
      </trkpt>
      <trkpt lat="45.77009" lon="4.62628">
        <ele>573.91772</ele>
        <time>2023-09-30T08:10:02.000Z</time>
      </trkpt>
      <trkpt lat="45.77007" lon="4.62621">
        <ele>575.58704</ele>
        <time>2023-09-30T08:10:03.000Z</time>
      </trkpt>
      <trkpt lat="45.77006" lon="4.62612">
        <ele>574.48395</ele>
        <time>2023-09-30T08:10:04.000Z</time>
      </trkpt>
      <trkpt lat="45.77005" lon="4.62602">
        <ele>573.65796</ele>
        <time>2023-09-30T08:10:05.000Z</time>
      </trkpt>
      <trkpt lat="45.77004" lon="4.62593">
        <ele>574.39337</ele>
        <time>2023-09-30T08:10:06.000Z</time>
      </trkpt>
      <trkpt lat="45.77002" lon="4.62582">
        <ele>574.82562</ele>
        <time>2023-09-30T08:10:07.000Z</time>
      </trkpt>
      <trkpt lat="45.77003" lon="4.62572">
        <ele>575.23108</ele>
        <time>2023-09-30T08:10:08.000Z</time>
      </trkpt>
      <trkpt lat="45.77003" lon="4.62564">
        <ele>575.76349</ele>
        <time>2023-09-30T08:10:09.000Z</time>
      </trkpt>
      <trkpt lat="45.77003" lon="4.62556">
        <ele>576.06238</ele>
        <time>2023-09-30T08:10:10.000Z</time>
      </trkpt>
      <trkpt lat="45.77005" lon="4.62551">
        <ele>576.44165</ele>
        <time>2023-09-30T08:10:11.000Z</time>
      </trkpt>
      <trkpt lat="45.77006" lon="4.62542">
        <ele>577.27112</ele>
        <time>2023-09-30T08:10:12.000Z</time>
      </trkpt>
      <trkpt lat="45.77006" lon="4.62534">
        <ele>578.46155</ele>
        <time>2023-09-30T08:10:13.000Z</time>
      </trkpt>
      <trkpt lat="45.77006" lon="4.62525">
        <ele>579.85547</ele>
        <time>2023-09-30T08:10:14.000Z</time>
      </trkpt>
      <trkpt lat="45.77007" lon="4.62513">
        <ele>579.49365</ele>
        <time>2023-09-30T08:10:15.000Z</time>
      </trkpt>
      <trkpt lat="45.77006" lon="4.62503">
        <ele>579.2085</ele>
        <time>2023-09-30T08:10:16.000Z</time>
      </trkpt>
      <trkpt lat="45.77007" lon="4.62492">
        <ele>578.55005</ele>
        <time>2023-09-30T08:10:17.000Z</time>
      </trkpt>
      <trkpt lat="45.77009" lon="4.62482">
        <ele>577.25397</ele>
        <time>2023-09-30T08:10:18.000Z</time>
      </trkpt>
      <trkpt lat="45.77008" lon="4.62472">
        <ele>578.02985</ele>
        <time>2023-09-30T08:10:19.000Z</time>
      </trkpt>
      <trkpt lat="45.77008" lon="4.62459">
        <ele>578.6059</ele>
        <time>2023-09-30T08:10:20.000Z</time>
      </trkpt>
      <trkpt lat="45.77007" lon="4.62454">
        <ele>578.9317</ele>
        <time>2023-09-30T08:10:21.000Z</time>
      </trkpt>
      <trkpt lat="45.77008" lon="4.62444">
        <ele>579.47241</ele>
        <time>2023-09-30T08:10:22.000Z</time>
      </trkpt>
      <trkpt lat="45.77005" lon="4.62439">
        <ele>579.6413</ele>
        <time>2023-09-30T08:10:23.000Z</time>
      </trkpt>
      <trkpt lat="45.77003" lon="4.62432">
        <ele>579.49579</ele>
        <time>2023-09-30T08:10:24.000Z</time>
      </trkpt>
      <trkpt lat="45.77002" lon="4.62427">
        <ele>578.8476</ele>
        <time>2023-09-30T08:10:25.000Z</time>
      </trkpt>
      <trkpt lat="45.77" lon="4.62421">
        <ele>576.56628</ele>
        <time>2023-09-30T08:10:26.000Z</time>
      </trkpt>
      <trkpt lat="45.76997" lon="4.62407">
        <ele>574.51953</ele>
        <time>2023-09-30T08:10:27.000Z</time>
      </trkpt>
      <trkpt lat="45.76994" lon="4.62398">
        <ele>572.4165</ele>
        <time>2023-09-30T08:10:28.000Z</time>
      </trkpt>
      <trkpt lat="45.76989" lon="4.62385">
        <ele>570.10175</ele>
        <time>2023-09-30T08:10:29.000Z</time>
      </trkpt>
      <trkpt lat="45.76986" lon="4.62378">
        <ele>567.80634</ele>
        <time>2023-09-30T08:10:30.000Z</time>
      </trkpt>
      <trkpt lat="45.76984" lon="4.62372">
        <ele>566.96576</ele>
        <time>2023-09-30T08:10:31.000Z</time>
      </trkpt>
      <trkpt lat="45.7698" lon="4.62364">
        <ele>565.58264</ele>
        <time>2023-09-30T08:10:32.000Z</time>
      </trkpt>
      <trkpt lat="45.76978" lon="4.6236">
        <ele>565.31036</ele>
        <time>2023-09-30T08:10:33.000Z</time>
      </trkpt>
      <trkpt lat="45.76977" lon="4.62356">
        <ele>564.03546</ele>
        <time>2023-09-30T08:10:34.000Z</time>
      </trkpt>
      <trkpt lat="45.76976" lon="4.62354">
        <ele>563.50256</ele>
        <time>2023-09-30T08:10:35.000Z</time>
      </trkpt>
      <trkpt lat="45.76977" lon="4.62351">
        <ele>563.2002</ele>
        <time>2023-09-30T08:10:36.000Z</time>
      </trkpt>
      <trkpt lat="45.76975" lon="4.62345">
        <ele>563.03015</ele>
        <time>2023-09-30T08:10:37.000Z</time>
      </trkpt>
      <trkpt lat="45.76974" lon="4.62342">
        <ele>563.53973</ele>
        <time>2023-09-30T08:10:38.000Z</time>
      </trkpt>
      <trkpt lat="45.76973" lon="4.62338">
        <ele>565.56531</ele>
        <time>2023-09-30T08:10:39.000Z</time>
      </trkpt>
      <trkpt lat="45.76972" lon="4.62333">
        <ele>564.94208</ele>
        <time>2023-09-30T08:10:40.000Z</time>
      </trkpt>
      <trkpt lat="45.76971" lon="4.62328">
        <ele>564.25891</ele>
        <time>2023-09-30T08:10:41.000Z</time>
      </trkpt>
      <trkpt lat="45.7697" lon="4.62321">
        <ele>563.52527</ele>
        <time>2023-09-30T08:10:42.000Z</time>
      </trkpt>
      <trkpt lat="45.76968" lon="4.62314">
        <ele>562.72791</ele>
        <time>2023-09-30T08:10:43.000Z</time>
      </trkpt>
      <trkpt lat="45.76968" lon="4.62305">
        <ele>563.08252</ele>
        <time>2023-09-30T08:10:44.000Z</time>
      </trkpt>
      <trkpt lat="45.76969" lon="4.62296">
        <ele>566.40112</ele>
        <time>2023-09-30T08:10:45.000Z</time>
      </trkpt>
      <trkpt lat="45.7697" lon="4.62288">
        <ele>567.22021</ele>
        <time>2023-09-30T08:10:46.000Z</time>
      </trkpt>
      <trkpt lat="45.76972" lon="4.6228">
        <ele>568.25256</ele>
        <time>2023-09-30T08:10:47.000Z</time>
      </trkpt>
      <trkpt lat="45.76975" lon="4.62273">
        <ele>569.28259</ele>
        <time>2023-09-30T08:10:48.000Z</time>
      </trkpt>
      <trkpt lat="45.76976" lon="4.62265">
        <ele>570.35022</ele>
        <time>2023-09-30T08:10:49.000Z</time>
      </trkpt>
      <trkpt lat="45.76976" lon="4.62256">
        <ele>571.54077</ele>
        <time>2023-09-30T08:10:50.000Z</time>
      </trkpt>
      <trkpt lat="45.76977" lon="4.62247">
        <ele>573.89783</ele>
        <time>2023-09-30T08:10:51.000Z</time>
      </trkpt>
      <trkpt lat="45.76977" lon="4.62239">
        <ele>574.60669</ele>
        <time>2023-09-30T08:10:52.000Z</time>
      </trkpt>
      <trkpt lat="45.76976" lon="4.62229">
        <ele>574.03113</ele>
        <time>2023-09-30T08:10:53.000Z</time>
      </trkpt>
      <trkpt lat="45.76977" lon="4.62222">
        <ele>574.46716</ele>
        <time>2023-09-30T08:10:54.000Z</time>
      </trkpt>
      <trkpt lat="45.76976" lon="4.62215">
        <ele>574.98877</ele>
        <time>2023-09-30T08:10:55.000Z</time>
      </trkpt>
      <trkpt lat="45.76977" lon="4.62212">
        <ele>575.56311</ele>
        <time>2023-09-30T08:10:56.000Z</time>
      </trkpt>
      <trkpt lat="45.7698" lon="4.62209">
        <ele>578.03687</ele>
        <time>2023-09-30T08:10:57.000Z</time>
      </trkpt>
      <trkpt lat="45.76978" lon="4.62208">
        <ele>580.55896</ele>
        <time>2023-09-30T08:11:03.000Z</time>
      </trkpt>
      <trkpt lat="45.76978" lon="4.62204">
        <ele>578.69861</ele>
        <time>2023-09-30T08:11:08.000Z</time>
      </trkpt>
      <trkpt lat="45.76978" lon="4.62201">
        <ele>580.96936</ele>
        <time>2023-09-30T08:11:09.000Z</time>
      </trkpt>
      <trkpt lat="45.76979" lon="4.62198">
        <ele>581.77075</ele>
        <time>2023-09-30T08:11:10.000Z</time>
      </trkpt>
      <trkpt lat="45.7698" lon="4.62193">
        <ele>584.09381</ele>
        <time>2023-09-30T08:11:11.000Z</time>
      </trkpt>
      <trkpt lat="45.76981" lon="4.62189">
        <ele>586.42346</ele>
        <time>2023-09-30T08:11:12.000Z</time>
      </trkpt>
      <trkpt lat="45.76981" lon="4.62185">
        <ele>588.81653</ele>
        <time>2023-09-30T08:11:13.000Z</time>
      </trkpt>
      <trkpt lat="45.76981" lon="4.62182">
        <ele>588.4472</ele>
        <time>2023-09-30T08:11:14.000Z</time>
      </trkpt>
      <trkpt lat="45.76981" lon="4.62179">
        <ele>590.72974</ele>
        <time>2023-09-30T08:11:17.000Z</time>
      </trkpt>
      <trkpt lat="45.76981" lon="4.62176">
        <ele>592.92902</ele>
        <time>2023-09-30T08:11:25.000Z</time>
      </trkpt>
      <trkpt lat="45.76982" lon="4.62172">
        <ele>594.99792</ele>
        <time>2023-09-30T08:11:30.000Z</time>
      </trkpt>
      <trkpt lat="45.76981" lon="4.62169">
        <ele>596.69958</ele>
        <time>2023-09-30T08:11:48.000Z</time>
      </trkpt>
      <trkpt lat="45.76982" lon="4.62166">
        <ele>598.35785</ele>
        <time>2023-09-30T08:11:49.000Z</time>
      </trkpt>
      <trkpt lat="45.76982" lon="4.62162">
        <ele>597.75244</ele>
        <time>2023-09-30T08:11:50.000Z</time>
      </trkpt>
      <trkpt lat="45.76983" lon="4.62157">
        <ele>599.18219</ele>
        <time>2023-09-30T08:11:51.000Z</time>
      </trkpt>
      <trkpt lat="45.76984" lon="4.6215">
        <ele>600.56189</ele>
        <time>2023-09-30T08:11:52.000Z</time>
      </trkpt>
      <trkpt lat="45.76986" lon="4.62145">
        <ele>601.96008</ele>
        <time>2023-09-30T08:11:53.000Z</time>
      </trkpt>
      <trkpt lat="45.76986" lon="4.62139">
        <ele>603.19702</ele>
        <time>2023-09-30T08:11:54.000Z</time>
      </trkpt>
      <trkpt lat="45.76988" lon="4.62132">
        <ele>604.37518</ele>
        <time>2023-09-30T08:11:55.000Z</time>
      </trkpt>
      <trkpt lat="45.7699" lon="4.62124">
        <ele>603.66498</ele>
        <time>2023-09-30T08:11:56.000Z</time>
      </trkpt>
      <trkpt lat="45.76991" lon="4.62117">
        <ele>602.93408</ele>
        <time>2023-09-30T08:11:57.000Z</time>
      </trkpt>
      <trkpt lat="45.76992" lon="4.6211">
        <ele>603.82776</ele>
        <time>2023-09-30T08:11:58.000Z</time>
      </trkpt>
      <trkpt lat="45.76996" lon="4.62103">
        <ele>603.17633</ele>
        <time>2023-09-30T08:11:59.000Z</time>
      </trkpt>
      <trkpt lat="45.76998" lon="4.62096">
        <ele>603.96686</ele>
        <time>2023-09-30T08:12:00.000Z</time>
      </trkpt>
      <trkpt lat="45.77003" lon="4.62089">
        <ele>603.30505</ele>
        <time>2023-09-30T08:12:01.000Z</time>
      </trkpt>
      <trkpt lat="45.77007" lon="4.62084">
        <ele>602.65735</ele>
        <time>2023-09-30T08:12:02.000Z</time>
      </trkpt>
      <trkpt lat="45.77012" lon="4.62078">
        <ele>602.03217</ele>
        <time>2023-09-30T08:12:03.000Z</time>
      </trkpt>
      <trkpt lat="45.77017" lon="4.62073">
        <ele>601.3913</ele>
        <time>2023-09-30T08:12:04.000Z</time>
      </trkpt>
      <trkpt lat="45.77022" lon="4.62068">
        <ele>600.67657</ele>
        <time>2023-09-30T08:12:05.000Z</time>
      </trkpt>
      <trkpt lat="45.77025" lon="4.62064">
        <ele>599.99353</ele>
        <time>2023-09-30T08:12:06.000Z</time>
      </trkpt>
      <trkpt lat="45.77028" lon="4.62062">
        <ele>599.51166</ele>
        <time>2023-09-30T08:12:07.000Z</time>
      </trkpt>
      <trkpt lat="45.77031" lon="4.62058">
        <ele>599.32147</ele>
        <time>2023-09-30T08:12:08.000Z</time>
      </trkpt>
      <trkpt lat="45.77033" lon="4.62054">
        <ele>599.11169</ele>
        <time>2023-09-30T08:12:09.000Z</time>
      </trkpt>
      <trkpt lat="45.77034" lon="4.62049">
        <ele>598.92529</ele>
        <time>2023-09-30T08:12:10.000Z</time>
      </trkpt>
      <trkpt lat="45.77036" lon="4.62045">
        <ele>598.74695</ele>
        <time>2023-09-30T08:12:11.000Z</time>
      </trkpt>
      <trkpt lat="45.77037" lon="4.6204">
        <ele>592.55359</ele>
        <time>2023-09-30T08:12:12.000Z</time>
      </trkpt>
      <trkpt lat="45.77039" lon="4.62032">
        <ele>592.08142</ele>
        <time>2023-09-30T08:12:13.000Z</time>
      </trkpt>
      <trkpt lat="45.77042" lon="4.62027">
        <ele>591.72522</ele>
        <time>2023-09-30T08:12:14.000Z</time>
      </trkpt>
      <trkpt lat="45.77046" lon="4.62021">
        <ele>591.38391</ele>
        <time>2023-09-30T08:12:15.000Z</time>
      </trkpt>
      <trkpt lat="45.77049" lon="4.62018">
        <ele>591.02948</ele>
        <time>2023-09-30T08:12:16.000Z</time>
      </trkpt>
      <trkpt lat="45.77054" lon="4.62013">
        <ele>591.13593</ele>
        <time>2023-09-30T08:12:17.000Z</time>
      </trkpt>
      <trkpt lat="45.77061" lon="4.62008">
        <ele>591.19983</ele>
        <time>2023-09-30T08:12:18.000Z</time>
      </trkpt>
      <trkpt lat="45.77067" lon="4.62004">
        <ele>591.22986</ele>
        <time>2023-09-30T08:12:19.000Z</time>
      </trkpt>
      <trkpt lat="45.77073" lon="4.62003">
        <ele>591.31165</ele>
        <time>2023-09-30T08:12:20.000Z</time>
      </trkpt>
      <trkpt lat="45.77078" lon="4.62002">
        <ele>591.31714</ele>
        <time>2023-09-30T08:12:21.000Z</time>
      </trkpt>
      <trkpt lat="45.77083" lon="4.62001">
        <ele>591.34656</ele>
        <time>2023-09-30T08:12:22.000Z</time>
      </trkpt>
      <trkpt lat="45.77088" lon="4.62002">
        <ele>591.00958</ele>
        <time>2023-09-30T08:12:23.000Z</time>
      </trkpt>
      <trkpt lat="45.77093" lon="4.61998">
        <ele>590.67993</ele>
        <time>2023-09-30T08:12:24.000Z</time>
      </trkpt>
      <trkpt lat="45.77101" lon="4.61993">
        <ele>590.32605</ele>
        <time>2023-09-30T08:12:25.000Z</time>
      </trkpt>
      <trkpt lat="45.77105" lon="4.61983">
        <ele>589.96515</ele>
        <time>2023-09-30T08:12:26.000Z</time>
      </trkpt>
      <trkpt lat="45.77111" lon="4.61974">
        <ele>589.46375</ele>
        <time>2023-09-30T08:12:27.000Z</time>
      </trkpt>
      <trkpt lat="45.77118" lon="4.61967">
        <ele>582.58032</ele>
        <time>2023-09-30T08:12:28.000Z</time>
      </trkpt>
      <trkpt lat="45.77125" lon="4.61959">
        <ele>581.74329</ele>
        <time>2023-09-30T08:12:29.000Z</time>
      </trkpt>
      <trkpt lat="45.77132" lon="4.61951">
        <ele>580.87488</ele>
        <time>2023-09-30T08:12:30.000Z</time>
      </trkpt>
      <trkpt lat="45.77137" lon="4.61943">
        <ele>580.10767</ele>
        <time>2023-09-30T08:12:31.000Z</time>
      </trkpt>
      <trkpt lat="45.77141" lon="4.61935">
        <ele>585.4176</ele>
        <time>2023-09-30T08:12:32.000Z</time>
      </trkpt>
      <trkpt lat="45.77144" lon="4.61928">
        <ele>585.07483</ele>
        <time>2023-09-30T08:12:33.000Z</time>
      </trkpt>
      <trkpt lat="45.77147" lon="4.61919">
        <ele>584.72913</ele>
        <time>2023-09-30T08:12:34.000Z</time>
      </trkpt>
      <trkpt lat="45.7715" lon="4.61911">
        <ele>584.21924</ele>
        <time>2023-09-30T08:12:35.000Z</time>
      </trkpt>
      <trkpt lat="45.7715" lon="4.61899">
        <ele>583.7677</ele>
        <time>2023-09-30T08:12:36.000Z</time>
      </trkpt>
      <trkpt lat="45.77149" lon="4.61888">
        <ele>582.80402</ele>
        <time>2023-09-30T08:12:37.000Z</time>
      </trkpt>
      <trkpt lat="45.77151" lon="4.61879">
        <ele>581.9386</ele>
        <time>2023-09-30T08:12:38.000Z</time>
      </trkpt>
      <trkpt lat="45.77153" lon="4.6187">
        <ele>581.13782</ele>
        <time>2023-09-30T08:12:39.000Z</time>
      </trkpt>
      <trkpt lat="45.77155" lon="4.61862">
        <ele>580.31689</ele>
        <time>2023-09-30T08:12:40.000Z</time>
      </trkpt>
      <trkpt lat="45.77156" lon="4.61852">
        <ele>579.54871</ele>
        <time>2023-09-30T08:12:41.000Z</time>
      </trkpt>
      <trkpt lat="45.7716" lon="4.61843">
        <ele>578.76514</ele>
        <time>2023-09-30T08:12:42.000Z</time>
      </trkpt>
      <trkpt lat="45.77165" lon="4.61835">
        <ele>578.24811</ele>
        <time>2023-09-30T08:12:43.000Z</time>
      </trkpt>
      <trkpt lat="45.77166" lon="4.61825">
        <ele>577.75464</ele>
        <time>2023-09-30T08:12:44.000Z</time>
      </trkpt>
      <trkpt lat="45.77171" lon="4.61816">
        <ele>577.2876</ele>
        <time>2023-09-30T08:12:45.000Z</time>
      </trkpt>
      <trkpt lat="45.77174" lon="4.61808">
        <ele>576.87976</ele>
        <time>2023-09-30T08:12:46.000Z</time>
      </trkpt>
      <trkpt lat="45.7718" lon="4.61803">
        <ele>576.54657</ele>
        <time>2023-09-30T08:12:47.000Z</time>
      </trkpt>
      <trkpt lat="45.77184" lon="4.61798">
        <ele>582.53137</ele>
        <time>2023-09-30T08:12:48.000Z</time>
      </trkpt>
      <trkpt lat="45.77188" lon="4.61796">
        <ele>582.04602</ele>
        <time>2023-09-30T08:12:49.000Z</time>
      </trkpt>
      <trkpt lat="45.77193" lon="4.61794">
        <ele>581.59424</ele>
        <time>2023-09-30T08:12:50.000Z</time>
      </trkpt>
      <trkpt lat="45.77196" lon="4.61789">
        <ele>581.08978</ele>
        <time>2023-09-30T08:12:51.000Z</time>
      </trkpt>
      <trkpt lat="45.77201" lon="4.61789">
        <ele>580.56238</ele>
        <time>2023-09-30T08:12:52.000Z</time>
      </trkpt>
      <trkpt lat="45.77206" lon="4.61787">
        <ele>579.93103</ele>
        <time>2023-09-30T08:12:53.000Z</time>
      </trkpt>
      <trkpt lat="45.77211" lon="4.61786">
        <ele>579.30286</ele>
        <time>2023-09-30T08:12:54.000Z</time>
      </trkpt>
      <trkpt lat="45.77218" lon="4.61785">
        <ele>578.85358</ele>
        <time>2023-09-30T08:12:55.000Z</time>
      </trkpt>
      <trkpt lat="45.77225" lon="4.61784">
        <ele>578.31018</ele>
        <time>2023-09-30T08:12:56.000Z</time>
      </trkpt>
      <trkpt lat="45.77234" lon="4.61783">
        <ele>577.78766</ele>
        <time>2023-09-30T08:12:57.000Z</time>
      </trkpt>
      <trkpt lat="45.77241" lon="4.61784">
        <ele>577.20264</ele>
        <time>2023-09-30T08:12:58.000Z</time>
      </trkpt>
      <trkpt lat="45.77245" lon="4.61785">
        <ele>576.56915</ele>
        <time>2023-09-30T08:12:59.000Z</time>
      </trkpt>
      <trkpt lat="45.77251" lon="4.6179">
        <ele>575.92566</ele>
        <time>2023-09-30T08:13:00.000Z</time>
      </trkpt>
      <trkpt lat="45.77256" lon="4.61794">
        <ele>575.23566</ele>
        <time>2023-09-30T08:13:01.000Z</time>
      </trkpt>
      <trkpt lat="45.77261" lon="4.61797">
        <ele>574.50397</ele>
        <time>2023-09-30T08:13:02.000Z</time>
      </trkpt>
      <trkpt lat="45.77266" lon="4.61801">
        <ele>573.7973</ele>
        <time>2023-09-30T08:13:03.000Z</time>
      </trkpt>
      <trkpt lat="45.7727" lon="4.61806">
        <ele>573.04718</ele>
        <time>2023-09-30T08:13:04.000Z</time>
      </trkpt>
      <trkpt lat="45.77274" lon="4.61811">
        <ele>572.23712</ele>
        <time>2023-09-30T08:13:05.000Z</time>
      </trkpt>
      <trkpt lat="45.77277" lon="4.61817">
        <ele>571.36121</ele>
        <time>2023-09-30T08:13:06.000Z</time>
      </trkpt>
      <trkpt lat="45.77281" lon="4.61824">
        <ele>570.4339</ele>
        <time>2023-09-30T08:13:07.000Z</time>
      </trkpt>
      <trkpt lat="45.77285" lon="4.6183">
        <ele>569.61926</ele>
        <time>2023-09-30T08:13:08.000Z</time>
      </trkpt>
      <trkpt lat="45.77287" lon="4.61834">
        <ele>568.78851</ele>
        <time>2023-09-30T08:13:09.000Z</time>
      </trkpt>
      <trkpt lat="45.7729" lon="4.6184">
        <ele>567.97076</ele>
        <time>2023-09-30T08:13:10.000Z</time>
      </trkpt>
      <trkpt lat="45.77292" lon="4.61844">
        <ele>567.07202</ele>
        <time>2023-09-30T08:13:11.000Z</time>
      </trkpt>
      <trkpt lat="45.77294" lon="4.61849">
        <ele>566.10388</ele>
        <time>2023-09-30T08:13:12.000Z</time>
      </trkpt>
      <trkpt lat="45.77296" lon="4.61856">
        <ele>565.17297</ele>
        <time>2023-09-30T08:13:13.000Z</time>
      </trkpt>
      <trkpt lat="45.77297" lon="4.6186">
        <ele>564.24762</ele>
        <time>2023-09-30T08:13:14.000Z</time>
      </trkpt>
      <trkpt lat="45.77298" lon="4.61862">
        <ele>563.33405</ele>
        <time>2023-09-30T08:13:15.000Z</time>
      </trkpt>
      <trkpt lat="45.77302" lon="4.61869">
        <ele>562.4422</ele>
        <time>2023-09-30T08:13:16.000Z</time>
      </trkpt>
      <trkpt lat="45.77305" lon="4.61873">
        <ele>561.55499</ele>
        <time>2023-09-30T08:13:17.000Z</time>
      </trkpt>
      <trkpt lat="45.77307" lon="4.61878">
        <ele>560.698</ele>
        <time>2023-09-30T08:13:18.000Z</time>
      </trkpt>
      <trkpt lat="45.77312" lon="4.61884">
        <ele>559.90204</ele>
        <time>2023-09-30T08:13:19.000Z</time>
      </trkpt>
      <trkpt lat="45.77314" lon="4.61887">
        <ele>559.12714</ele>
        <time>2023-09-30T08:13:20.000Z</time>
      </trkpt>
      <trkpt lat="45.77319" lon="4.61893">
        <ele>558.28815</ele>
        <time>2023-09-30T08:13:21.000Z</time>
      </trkpt>
      <trkpt lat="45.77322" lon="4.61899">
        <ele>557.48279</ele>
        <time>2023-09-30T08:13:22.000Z</time>
      </trkpt>
      <trkpt lat="45.77328" lon="4.61906">
        <ele>556.69617</ele>
        <time>2023-09-30T08:13:23.000Z</time>
      </trkpt>
      <trkpt lat="45.77332" lon="4.61915">
        <ele>555.89075</ele>
        <time>2023-09-30T08:13:24.000Z</time>
      </trkpt>
      <trkpt lat="45.77337" lon="4.6192">
        <ele>555.13574</ele>
        <time>2023-09-30T08:13:25.000Z</time>
      </trkpt>
      <trkpt lat="45.77339" lon="4.61924">
        <ele>554.36163</ele>
        <time>2023-09-30T08:13:26.000Z</time>
      </trkpt>
      <trkpt lat="45.77345" lon="4.61927">
        <ele>553.61511</ele>
        <time>2023-09-30T08:13:27.000Z</time>
      </trkpt>
      <trkpt lat="45.7735" lon="4.61931">
        <ele>552.82263</ele>
        <time>2023-09-30T08:13:28.000Z</time>
      </trkpt>
      <trkpt lat="45.77354" lon="4.61935">
        <ele>552.33716</ele>
        <time>2023-09-30T08:13:29.000Z</time>
      </trkpt>
      <trkpt lat="45.77358" lon="4.61938">
        <ele>551.82068</ele>
        <time>2023-09-30T08:13:30.000Z</time>
      </trkpt>
      <trkpt lat="45.77363" lon="4.61943">
        <ele>551.33496</ele>
        <time>2023-09-30T08:13:31.000Z</time>
      </trkpt>
      <trkpt lat="45.77368" lon="4.61947">
        <ele>550.85803</ele>
        <time>2023-09-30T08:13:32.000Z</time>
      </trkpt>
      <trkpt lat="45.77375" lon="4.61951">
        <ele>550.35736</ele>
        <time>2023-09-30T08:13:33.000Z</time>
      </trkpt>
      <trkpt lat="45.7738" lon="4.61957">
        <ele>549.82086</ele>
        <time>2023-09-30T08:13:34.000Z</time>
      </trkpt>
      <trkpt lat="45.77386" lon="4.61961">
        <ele>549.24573</ele>
        <time>2023-09-30T08:13:35.000Z</time>
      </trkpt>
      <trkpt lat="45.7739" lon="4.61964">
        <ele>548.65051</ele>
        <time>2023-09-30T08:13:36.000Z</time>
      </trkpt>
      <trkpt lat="45.77395" lon="4.61966">
        <ele>547.96643</ele>
        <time>2023-09-30T08:13:37.000Z</time>
      </trkpt>
      <trkpt lat="45.77399" lon="4.61967">
        <ele>547.24304</ele>
        <time>2023-09-30T08:13:38.000Z</time>
      </trkpt>
      <trkpt lat="45.77406" lon="4.61971">
        <ele>546.4259</ele>
        <time>2023-09-30T08:13:39.000Z</time>
      </trkpt>
      <trkpt lat="45.77411" lon="4.61973">
        <ele>545.59357</ele>
        <time>2023-09-30T08:13:40.000Z</time>
      </trkpt>
      <trkpt lat="45.77416" lon="4.61974">
        <ele>544.85394</ele>
        <time>2023-09-30T08:13:41.000Z</time>
      </trkpt>
      <trkpt lat="45.77422" lon="4.61976">
        <ele>544.07153</ele>
        <time>2023-09-30T08:13:42.000Z</time>
      </trkpt>
      <trkpt lat="45.77426" lon="4.61977">
        <ele>543.25928</ele>
        <time>2023-09-30T08:13:43.000Z</time>
      </trkpt>
      <trkpt lat="45.77431" lon="4.61975">
        <ele>542.40796</ele>
        <time>2023-09-30T08:13:44.000Z</time>
      </trkpt>
      <trkpt lat="45.77436" lon="4.61976">
        <ele>541.48889</ele>
        <time>2023-09-30T08:13:45.000Z</time>
      </trkpt>
      <trkpt lat="45.77442" lon="4.61975">
        <ele>540.60828</ele>
        <time>2023-09-30T08:13:46.000Z</time>
      </trkpt>
      <trkpt lat="45.77447" lon="4.61973">
        <ele>539.80554</ele>
        <time>2023-09-30T08:13:47.000Z</time>
      </trkpt>
      <trkpt lat="45.77453" lon="4.61974">
        <ele>538.99878</ele>
        <time>2023-09-30T08:13:48.000Z</time>
      </trkpt>
      <trkpt lat="45.77455" lon="4.61971">
        <ele>538.16101</ele>
        <time>2023-09-30T08:13:49.000Z</time>
      </trkpt>
      <trkpt lat="45.7746" lon="4.61969">
        <ele>537.42694</ele>
        <time>2023-09-30T08:13:50.000Z</time>
      </trkpt>
      <trkpt lat="45.77464" lon="4.61967">
        <ele>536.76093</ele>
        <time>2023-09-30T08:13:51.000Z</time>
      </trkpt>
      <trkpt lat="45.77468" lon="4.61969">
        <ele>536.16028</ele>
        <time>2023-09-30T08:13:52.000Z</time>
      </trkpt>
      <trkpt lat="45.77473" lon="4.61972">
        <ele>535.7428</ele>
        <time>2023-09-30T08:13:53.000Z</time>
      </trkpt>
      <trkpt lat="45.77481" lon="4.61973">
        <ele>535.25739</ele>
        <time>2023-09-30T08:13:54.000Z</time>
      </trkpt>
      <trkpt lat="45.77487" lon="4.61975">
        <ele>534.85803</ele>
        <time>2023-09-30T08:13:55.000Z</time>
      </trkpt>
      <trkpt lat="45.77493" lon="4.61977">
        <ele>534.43689</ele>
        <time>2023-09-30T08:13:56.000Z</time>
      </trkpt>
      <trkpt lat="45.77499" lon="4.61979">
        <ele>534.09436</ele>
        <time>2023-09-30T08:13:57.000Z</time>
      </trkpt>
      <trkpt lat="45.77503" lon="4.61981">
        <ele>533.68536</ele>
        <time>2023-09-30T08:13:58.000Z</time>
      </trkpt>
      <trkpt lat="45.77509" lon="4.61983">
        <ele>533.31</ele>
        <time>2023-09-30T08:13:59.000Z</time>
      </trkpt>
      <trkpt lat="45.77514" lon="4.61982">
        <ele>532.91956</ele>
        <time>2023-09-30T08:14:00.000Z</time>
      </trkpt>
      <trkpt lat="45.7752" lon="4.61987">
        <ele>532.39233</ele>
        <time>2023-09-30T08:14:01.000Z</time>
      </trkpt>
      <trkpt lat="45.77527" lon="4.61987">
        <ele>531.90344</ele>
        <time>2023-09-30T08:14:02.000Z</time>
      </trkpt>
      <trkpt lat="45.77533" lon="4.61987">
        <ele>531.40704</ele>
        <time>2023-09-30T08:14:03.000Z</time>
      </trkpt>
      <trkpt lat="45.77541" lon="4.61984">
        <ele>530.54578</ele>
        <time>2023-09-30T08:14:04.000Z</time>
      </trkpt>
      <trkpt lat="45.77548" lon="4.61984">
        <ele>529.78638</ele>
        <time>2023-09-30T08:14:05.000Z</time>
      </trkpt>
      <trkpt lat="45.77555" lon="4.61982">
        <ele>529.05328</ele>
        <time>2023-09-30T08:14:06.000Z</time>
      </trkpt>
      <trkpt lat="45.7756" lon="4.61983">
        <ele>528.21069</ele>
        <time>2023-09-30T08:14:07.000Z</time>
      </trkpt>
      <trkpt lat="45.77565" lon="4.61984">
        <ele>527.33954</ele>
        <time>2023-09-30T08:14:08.000Z</time>
      </trkpt>
      <trkpt lat="45.77571" lon="4.61985">
        <ele>526.61523</ele>
        <time>2023-09-30T08:14:09.000Z</time>
      </trkpt>
      <trkpt lat="45.77576" lon="4.61987">
        <ele>525.70178</ele>
        <time>2023-09-30T08:14:10.000Z</time>
      </trkpt>
      <trkpt lat="45.77581" lon="4.61988">
        <ele>524.95227</ele>
        <time>2023-09-30T08:14:11.000Z</time>
      </trkpt>
      <trkpt lat="45.77584" lon="4.61989">
        <ele>524.15271</ele>
        <time>2023-09-30T08:14:12.000Z</time>
      </trkpt>
      <trkpt lat="45.77588" lon="4.61988">
        <ele>523.26056</ele>
        <time>2023-09-30T08:14:13.000Z</time>
      </trkpt>
      <trkpt lat="45.77591" lon="4.61987">
        <ele>522.12537</ele>
        <time>2023-09-30T08:14:14.000Z</time>
      </trkpt>
      <trkpt lat="45.77593" lon="4.61985">
        <ele>520.995</ele>
        <time>2023-09-30T08:14:15.000Z</time>
      </trkpt>
      <trkpt lat="45.77595" lon="4.61982">
        <ele>519.92242</ele>
        <time>2023-09-30T08:14:16.000Z</time>
      </trkpt>
      <trkpt lat="45.77597" lon="4.61982">
        <ele>518.86108</ele>
        <time>2023-09-30T08:14:17.000Z</time>
      </trkpt>
      <trkpt lat="45.77599" lon="4.61982">
        <ele>518.11542</ele>
        <time>2023-09-30T08:14:22.000Z</time>
      </trkpt>
      <trkpt lat="45.77601" lon="4.61984">
        <ele>517.46906</ele>
        <time>2023-09-30T08:14:26.000Z</time>
      </trkpt>
      <trkpt lat="45.776" lon="4.61986">
        <ele>516.5354</ele>
        <time>2023-09-30T08:15:49.000Z</time>
      </trkpt>
      <trkpt lat="45.77601" lon="4.61988">
        <ele>515.79962</ele>
        <time>2023-09-30T08:15:52.000Z</time>
      </trkpt>
      <trkpt lat="45.77602" lon="4.61992">
        <ele>515.07898</ele>
        <time>2023-09-30T08:15:54.000Z</time>
      </trkpt>
      <trkpt lat="45.77603" lon="4.61995">
        <ele>514.36938</ele>
        <time>2023-09-30T08:15:55.000Z</time>
      </trkpt>
      <trkpt lat="45.77605" lon="4.61997">
        <ele>514.13812</ele>
        <time>2023-09-30T08:15:56.000Z</time>
      </trkpt>
      <trkpt lat="45.77607" lon="4.61999">
        <ele>513.85242</ele>
        <time>2023-09-30T08:15:57.000Z</time>
      </trkpt>
      <trkpt lat="45.7761" lon="4.62">
        <ele>513.53918</ele>
        <time>2023-09-30T08:15:58.000Z</time>
      </trkpt>
      <trkpt lat="45.77612" lon="4.62001">
        <ele>513.21588</ele>
        <time>2023-09-30T08:15:59.000Z</time>
      </trkpt>
      <trkpt lat="45.77614" lon="4.62001">
        <ele>512.91357</ele>
        <time>2023-09-30T08:16:00.000Z</time>
      </trkpt>
      <trkpt lat="45.77617" lon="4.62">
        <ele>512.59698</ele>
        <time>2023-09-30T08:16:08.000Z</time>
      </trkpt>
      <trkpt lat="45.7762" lon="4.62">
        <ele>512.43109</ele>
        <time>2023-09-30T08:16:09.000Z</time>
      </trkpt>
      <trkpt lat="45.77624" lon="4.62">
        <ele>512.04584</ele>
        <time>2023-09-30T08:16:10.000Z</time>
      </trkpt>
      <trkpt lat="45.77628" lon="4.62001">
        <ele>511.64005</ele>
        <time>2023-09-30T08:16:11.000Z</time>
      </trkpt>
      <trkpt lat="45.77634" lon="4.62001">
        <ele>511.1626</ele>
        <time>2023-09-30T08:16:12.000Z</time>
      </trkpt>
      <trkpt lat="45.77639" lon="4.62001">
        <ele>511.00562</ele>
        <time>2023-09-30T08:16:13.000Z</time>
      </trkpt>
      <trkpt lat="45.77646" lon="4.62">
        <ele>510.77408</ele>
        <time>2023-09-30T08:16:14.000Z</time>
      </trkpt>
      <trkpt lat="45.77652" lon="4.62">
        <ele>510.50555</ele>
        <time>2023-09-30T08:16:15.000Z</time>
      </trkpt>
      <trkpt lat="45.77659" lon="4.62">
        <ele>510.20474</ele>
        <time>2023-09-30T08:16:16.000Z</time>
      </trkpt>
      <trkpt lat="45.77665" lon="4.61998">
        <ele>509.71436</ele>
        <time>2023-09-30T08:16:17.000Z</time>
      </trkpt>
      <trkpt lat="45.77672" lon="4.61998">
        <ele>509.31738</ele>
        <time>2023-09-30T08:16:18.000Z</time>
      </trkpt>
      <trkpt lat="45.77678" lon="4.61997">
        <ele>509.24738</ele>
        <time>2023-09-30T08:16:19.000Z</time>
      </trkpt>
      <trkpt lat="45.77685" lon="4.61994">
        <ele>509.24506</ele>
        <time>2023-09-30T08:16:20.000Z</time>
      </trkpt>
      <trkpt lat="45.77691" lon="4.61992">
        <ele>508.8078</ele>
        <time>2023-09-30T08:16:21.000Z</time>
      </trkpt>
      <trkpt lat="45.77698" lon="4.61992">
        <ele>508.44067</ele>
        <time>2023-09-30T08:16:22.000Z</time>
      </trkpt>
      <trkpt lat="45.77704" lon="4.61992">
        <ele>508.01166</ele>
        <time>2023-09-30T08:16:23.000Z</time>
      </trkpt>
      <trkpt lat="45.77711" lon="4.61993">
        <ele>507.58041</ele>
        <time>2023-09-30T08:16:24.000Z</time>
      </trkpt>
      <trkpt lat="45.77717" lon="4.61995">
        <ele>507.09848</ele>
        <time>2023-09-30T08:16:25.000Z</time>
      </trkpt>
      <trkpt lat="45.77725" lon="4.61998">
        <ele>506.64447</ele>
        <time>2023-09-30T08:16:26.000Z</time>
      </trkpt>
      <trkpt lat="45.77732" lon="4.62">
        <ele>506.1911</ele>
        <time>2023-09-30T08:16:27.000Z</time>
      </trkpt>
      <trkpt lat="45.77739" lon="4.62003">
        <ele>505.9632</ele>
        <time>2023-09-30T08:16:28.000Z</time>
      </trkpt>
      <trkpt lat="45.77745" lon="4.62005">
        <ele>505.77173</ele>
        <time>2023-09-30T08:16:29.000Z</time>
      </trkpt>
      <trkpt lat="45.7775" lon="4.62007">
        <ele>505.60855</ele>
        <time>2023-09-30T08:16:30.000Z</time>
      </trkpt>
      <trkpt lat="45.77755" lon="4.62008">
        <ele>504.9751</ele>
        <time>2023-09-30T08:16:31.000Z</time>
      </trkpt>
      <trkpt lat="45.7776" lon="4.6201">
        <ele>504.39868</ele>
        <time>2023-09-30T08:16:32.000Z</time>
      </trkpt>
      <trkpt lat="45.77765" lon="4.62011">
        <ele>503.80444</ele>
        <time>2023-09-30T08:16:33.000Z</time>
      </trkpt>
      <trkpt lat="45.7777" lon="4.62014">
        <ele>503.19012</ele>
        <time>2023-09-30T08:16:34.000Z</time>
      </trkpt>
      <trkpt lat="45.77775" lon="4.62016">
        <ele>502.55991</ele>
        <time>2023-09-30T08:16:35.000Z</time>
      </trkpt>
      <trkpt lat="45.77781" lon="4.62017">
        <ele>501.9292</ele>
        <time>2023-09-30T08:16:36.000Z</time>
      </trkpt>
      <trkpt lat="45.77786" lon="4.62019">
        <ele>501.2399</ele>
        <time>2023-09-30T08:16:37.000Z</time>
      </trkpt>
      <trkpt lat="45.77791" lon="4.6202">
        <ele>500.36896</ele>
        <time>2023-09-30T08:16:38.000Z</time>
      </trkpt>
      <trkpt lat="45.77795" lon="4.62021">
        <ele>499.43829</ele>
        <time>2023-09-30T08:16:39.000Z</time>
      </trkpt>
      <trkpt lat="45.778" lon="4.62023">
        <ele>498.61493</ele>
        <time>2023-09-30T08:16:40.000Z</time>
      </trkpt>
      <trkpt lat="45.77803" lon="4.62025">
        <ele>498.30606</ele>
        <time>2023-09-30T08:16:41.000Z</time>
      </trkpt>
      <trkpt lat="45.77807" lon="4.62028">
        <ele>497.97589</ele>
        <time>2023-09-30T08:16:42.000Z</time>
      </trkpt>
      <trkpt lat="45.77811" lon="4.62031">
        <ele>497.64218</ele>
        <time>2023-09-30T08:16:43.000Z</time>
      </trkpt>
      <trkpt lat="45.77814" lon="4.62035">
        <ele>496.71881</ele>
        <time>2023-09-30T08:16:44.000Z</time>
      </trkpt>
      <trkpt lat="45.77818" lon="4.62039">
        <ele>495.94473</ele>
        <time>2023-09-30T08:16:45.000Z</time>
      </trkpt>
      <trkpt lat="45.77821" lon="4.62043">
        <ele>495.08539</ele>
        <time>2023-09-30T08:16:46.000Z</time>
      </trkpt>
      <trkpt lat="45.77823" lon="4.62048">
        <ele>494.13983</ele>
        <time>2023-09-30T08:16:47.000Z</time>
      </trkpt>
      <trkpt lat="45.77826" lon="4.62052">
        <ele>492.9624</ele>
        <time>2023-09-30T08:16:48.000Z</time>
      </trkpt>
      <trkpt lat="45.77829" lon="4.62056">
        <ele>491.68906</ele>
        <time>2023-09-30T08:16:49.000Z</time>
      </trkpt>
      <trkpt lat="45.77833" lon="4.62058">
        <ele>490.62759</ele>
        <time>2023-09-30T08:16:50.000Z</time>
      </trkpt>
      <trkpt lat="45.77836" lon="4.62059">
        <ele>490.04135</ele>
        <time>2023-09-30T08:16:51.000Z</time>
      </trkpt>
      <trkpt lat="45.77841" lon="4.62061">
        <ele>489.59711</ele>
        <time>2023-09-30T08:16:52.000Z</time>
      </trkpt>
      <trkpt lat="45.77846" lon="4.62062">
        <ele>488.54663</ele>
        <time>2023-09-30T08:16:53.000Z</time>
      </trkpt>
      <trkpt lat="45.77851" lon="4.62062">
        <ele>487.62128</ele>
        <time>2023-09-30T08:16:54.000Z</time>
      </trkpt>
      <trkpt lat="45.77857" lon="4.6206">
        <ele>486.73218</ele>
        <time>2023-09-30T08:16:55.000Z</time>
      </trkpt>
      <trkpt lat="45.77861" lon="4.62057">
        <ele>485.8663</ele>
        <time>2023-09-30T08:16:56.000Z</time>
      </trkpt>
      <trkpt lat="45.77865" lon="4.62052">
        <ele>485.32544</ele>
        <time>2023-09-30T08:16:57.000Z</time>
      </trkpt>
      <trkpt lat="45.77869" lon="4.62048">
        <ele>484.97974</ele>
        <time>2023-09-30T08:16:58.000Z</time>
      </trkpt>
      <trkpt lat="45.77873" lon="4.62043">
        <ele>483.9725</ele>
        <time>2023-09-30T08:16:59.000Z</time>
      </trkpt>
      <trkpt lat="45.77876" lon="4.62038">
        <ele>482.82144</ele>
        <time>2023-09-30T08:17:00.000Z</time>
      </trkpt>
      <trkpt lat="45.77878" lon="4.62031">
        <ele>481.55069</ele>
        <time>2023-09-30T08:17:01.000Z</time>
      </trkpt>
      <trkpt lat="45.7788" lon="4.62025">
        <ele>480.25031</ele>
        <time>2023-09-30T08:17:02.000Z</time>
      </trkpt>
      <trkpt lat="45.77881" lon="4.62019">
        <ele>478.97769</ele>
        <time>2023-09-30T08:17:03.000Z</time>
      </trkpt>
      <trkpt lat="45.77883" lon="4.62012">
        <ele>478.3038</ele>
        <time>2023-09-30T08:17:04.000Z</time>
      </trkpt>
      <trkpt lat="45.77885" lon="4.62005">
        <ele>477.51205</ele>
        <time>2023-09-30T08:17:05.000Z</time>
      </trkpt>
      <trkpt lat="45.77888" lon="4.61998">
        <ele>476.9165</ele>
        <time>2023-09-30T08:17:06.000Z</time>
      </trkpt>
      <trkpt lat="45.7789" lon="4.61991">
        <ele>476.86557</ele>
        <time>2023-09-30T08:17:07.000Z</time>
      </trkpt>
      <trkpt lat="45.77892" lon="4.61983">
        <ele>477.29346</ele>
        <time>2023-09-30T08:17:08.000Z</time>
      </trkpt>
      <trkpt lat="45.77895" lon="4.61976">
        <ele>476.7084</ele>
        <time>2023-09-30T08:17:09.000Z</time>
      </trkpt>
      <trkpt lat="45.77895" lon="4.61968">
        <ele>476.12711</ele>
        <time>2023-09-30T08:17:10.000Z</time>
      </trkpt>
      <trkpt lat="45.77897" lon="4.61963">
        <ele>475.59384</ele>
        <time>2023-09-30T08:17:11.000Z</time>
      </trkpt>
      <trkpt lat="45.77902" lon="4.61956">
        <ele>474.90317</ele>
        <time>2023-09-30T08:17:12.000Z</time>
      </trkpt>
      <trkpt lat="45.77907" lon="4.61954">
        <ele>475.3353</ele>
        <time>2023-09-30T08:17:13.000Z</time>
      </trkpt>
      <trkpt lat="45.7791" lon="4.61949">
        <ele>475.62897</ele>
        <time>2023-09-30T08:17:14.000Z</time>
      </trkpt>
      <trkpt lat="45.77916" lon="4.61944">
        <ele>476.11459</ele>
        <time>2023-09-30T08:17:15.000Z</time>
      </trkpt>
      <trkpt lat="45.7792" lon="4.6194">
        <ele>476.68439</ele>
        <time>2023-09-30T08:17:16.000Z</time>
      </trkpt>
      <trkpt lat="45.77925" lon="4.61934">
        <ele>476.91693</ele>
        <time>2023-09-30T08:17:17.000Z</time>
      </trkpt>
      <trkpt lat="45.77931" lon="4.61928">
        <ele>477.06015</ele>
        <time>2023-09-30T08:17:18.000Z</time>
      </trkpt>
      <trkpt lat="45.77937" lon="4.61924">
        <ele>477.07257</ele>
        <time>2023-09-30T08:17:19.000Z</time>
      </trkpt>
      <trkpt lat="45.77942" lon="4.61921">
        <ele>477.0856</ele>
        <time>2023-09-30T08:17:20.000Z</time>
      </trkpt>
      <trkpt lat="45.77947" lon="4.61916">
        <ele>477.00812</ele>
        <time>2023-09-30T08:17:21.000Z</time>
      </trkpt>
      <trkpt lat="45.77951" lon="4.61915">
        <ele>476.58627</ele>
        <time>2023-09-30T08:17:22.000Z</time>
      </trkpt>
      <trkpt lat="45.77953" lon="4.61911">
        <ele>476.18686</ele>
        <time>2023-09-30T08:17:23.000Z</time>
      </trkpt>
      <trkpt lat="45.77956" lon="4.61909">
        <ele>475.62738</ele>
        <time>2023-09-30T08:17:24.000Z</time>
      </trkpt>
      <trkpt lat="45.77959" lon="4.61906">
        <ele>474.82843</ele>
        <time>2023-09-30T08:17:25.000Z</time>
      </trkpt>
      <trkpt lat="45.77961" lon="4.61903">
        <ele>473.89136</ele>
        <time>2023-09-30T08:17:26.000Z</time>
      </trkpt>
      <trkpt lat="45.77964" lon="4.61898">
        <ele>472.92828</ele>
        <time>2023-09-30T08:17:27.000Z</time>
      </trkpt>
      <trkpt lat="45.77966" lon="4.61893">
        <ele>471.71381</ele>
        <time>2023-09-30T08:17:28.000Z</time>
      </trkpt>
      <trkpt lat="45.77968" lon="4.61889">
        <ele>471.54135</ele>
        <time>2023-09-30T08:17:29.000Z</time>
      </trkpt>
      <trkpt lat="45.77972" lon="4.61886">
        <ele>471.27399</ele>
        <time>2023-09-30T08:17:30.000Z</time>
      </trkpt>
      <trkpt lat="45.77976" lon="4.6188">
        <ele>471.03198</ele>
        <time>2023-09-30T08:17:31.000Z</time>
      </trkpt>
      <trkpt lat="45.77979" lon="4.61876">
        <ele>469.79404</ele>
        <time>2023-09-30T08:17:32.000Z</time>
      </trkpt>
      <trkpt lat="45.77981" lon="4.61872">
        <ele>468.2247</ele>
        <time>2023-09-30T08:17:33.000Z</time>
      </trkpt>
      <trkpt lat="45.77984" lon="4.61867">
        <ele>466.68726</ele>
        <time>2023-09-30T08:17:34.000Z</time>
      </trkpt>
      <trkpt lat="45.77987" lon="4.61862">
        <ele>464.98721</ele>
        <time>2023-09-30T08:17:35.000Z</time>
      </trkpt>
      <trkpt lat="45.77991" lon="4.61857">
        <ele>463.23627</ele>
        <time>2023-09-30T08:17:36.000Z</time>
      </trkpt>
      <trkpt lat="45.77995" lon="4.61851">
        <ele>461.51846</ele>
        <time>2023-09-30T08:17:37.000Z</time>
      </trkpt>
      <trkpt lat="45.77998" lon="4.61844">
        <ele>459.82895</ele>
        <time>2023-09-30T08:17:38.000Z</time>
      </trkpt>
      <trkpt lat="45.78" lon="4.61839">
        <ele>458.80508</ele>
        <time>2023-09-30T08:17:39.000Z</time>
      </trkpt>
      <trkpt lat="45.78002" lon="4.61833">
        <ele>458.03833</ele>
        <time>2023-09-30T08:17:40.000Z</time>
      </trkpt>
      <trkpt lat="45.78004" lon="4.61828">
        <ele>457.36548</ele>
        <time>2023-09-30T08:17:41.000Z</time>
      </trkpt>
      <trkpt lat="45.78005" lon="4.61821">
        <ele>457.33569</ele>
        <time>2023-09-30T08:17:42.000Z</time>
      </trkpt>
      <trkpt lat="45.78006" lon="4.61815">
        <ele>457.27792</ele>
        <time>2023-09-30T08:17:43.000Z</time>
      </trkpt>
      <trkpt lat="45.78006" lon="4.61809">
        <ele>456.47113</ele>
        <time>2023-09-30T08:17:44.000Z</time>
      </trkpt>
      <trkpt lat="45.78006" lon="4.61804">
        <ele>456.08096</ele>
        <time>2023-09-30T08:17:45.000Z</time>
      </trkpt>
      <trkpt lat="45.78007" lon="4.618">
        <ele>455.68735</ele>
        <time>2023-09-30T08:17:46.000Z</time>
      </trkpt>
      <trkpt lat="45.78007" lon="4.61796">
        <ele>454.86197</ele>
        <time>2023-09-30T08:17:47.000Z</time>
      </trkpt>
      <trkpt lat="45.78007" lon="4.61793">
        <ele>453.83871</ele>
        <time>2023-09-30T08:17:48.000Z</time>
      </trkpt>
      <trkpt lat="45.78007" lon="4.6179">
        <ele>452.8085</ele>
        <time>2023-09-30T08:17:49.000Z</time>
      </trkpt>
      <trkpt lat="45.78006" lon="4.61788">
        <ele>452.00775</ele>
        <time>2023-09-30T08:17:54.000Z</time>
      </trkpt>
      <trkpt lat="45.78006" lon="4.61784">
        <ele>451.17368</ele>
        <time>2023-09-30T08:17:57.000Z</time>
      </trkpt>
      <trkpt lat="45.78006" lon="4.6178">
        <ele>451.63217</ele>
        <time>2023-09-30T08:17:59.000Z</time>
      </trkpt>
      <trkpt lat="45.78006" lon="4.61777">
        <ele>451.20142</ele>
        <time>2023-09-30T08:18:07.000Z</time>
      </trkpt>
      <trkpt lat="45.78005" lon="4.61775">
        <ele>450.76343</ele>
        <time>2023-09-30T08:18:08.000Z</time>
      </trkpt>
      <trkpt lat="45.78003" lon="4.61772">
        <ele>450.32349</ele>
        <time>2023-09-30T08:18:09.000Z</time>
      </trkpt>
      <trkpt lat="45.78003" lon="4.61767">
        <ele>449.84332</ele>
        <time>2023-09-30T08:18:10.000Z</time>
      </trkpt>
      <trkpt lat="45.78004" lon="4.6176">
        <ele>449.3414</ele>
        <time>2023-09-30T08:18:11.000Z</time>
      </trkpt>
      <trkpt lat="45.78005" lon="4.61756">
        <ele>448.72272</ele>
        <time>2023-09-30T08:18:12.000Z</time>
      </trkpt>
      <trkpt lat="45.78006" lon="4.61752">
        <ele>448.27051</ele>
        <time>2023-09-30T08:18:13.000Z</time>
      </trkpt>
      <trkpt lat="45.78006" lon="4.61749">
        <ele>447.47354</ele>
        <time>2023-09-30T08:18:14.000Z</time>
      </trkpt>
      <trkpt lat="45.78007" lon="4.61746">
        <ele>446.7077</ele>
        <time>2023-09-30T08:18:15.000Z</time>
      </trkpt>
      <trkpt lat="45.78006" lon="4.61743">
        <ele>445.69565</ele>
        <time>2023-09-30T08:18:16.000Z</time>
      </trkpt>
      <trkpt lat="45.78007" lon="4.6174">
        <ele>444.65729</ele>
        <time>2023-09-30T08:18:17.000Z</time>
      </trkpt>
      <trkpt lat="45.78006" lon="4.61736">
        <ele>444.53296</ele>
        <time>2023-09-30T08:18:18.000Z</time>
      </trkpt>
      <trkpt lat="45.78007" lon="4.61733">
        <ele>444.24213</ele>
        <time>2023-09-30T08:18:19.000Z</time>
      </trkpt>
      <trkpt lat="45.78007" lon="4.61729">
        <ele>443.95319</ele>
        <time>2023-09-30T08:18:20.000Z</time>
      </trkpt>
      <trkpt lat="45.78007" lon="4.61723">
        <ele>443.70361</ele>
        <time>2023-09-30T08:18:21.000Z</time>
      </trkpt>
      <trkpt lat="45.78006" lon="4.61716">
        <ele>443.44562</ele>
        <time>2023-09-30T08:18:22.000Z</time>
      </trkpt>
      <trkpt lat="45.78004" lon="4.61709">
        <ele>443.17236</ele>
        <time>2023-09-30T08:18:23.000Z</time>
      </trkpt>
      <trkpt lat="45.78004" lon="4.61702">
        <ele>442.92831</ele>
        <time>2023-09-30T08:18:24.000Z</time>
      </trkpt>
      <trkpt lat="45.78003" lon="4.61693">
        <ele>442.6666</ele>
        <time>2023-09-30T08:18:25.000Z</time>
      </trkpt>
      <trkpt lat="45.78001" lon="4.61683">
        <ele>442.38208</ele>
        <time>2023-09-30T08:18:26.000Z</time>
      </trkpt>
      <trkpt lat="45.77998" lon="4.61674">
        <ele>442.85101</ele>
        <time>2023-09-30T08:18:27.000Z</time>
      </trkpt>
      <trkpt lat="45.77996" lon="4.61665">
        <ele>442.31934</ele>
        <time>2023-09-30T08:18:28.000Z</time>
      </trkpt>
      <trkpt lat="45.77993" lon="4.61655">
        <ele>441.91309</ele>
        <time>2023-09-30T08:18:29.000Z</time>
      </trkpt>
      <trkpt lat="45.77989" lon="4.61645">
        <ele>441.5062</ele>
        <time>2023-09-30T08:18:30.000Z</time>
      </trkpt>
      <trkpt lat="45.77985" lon="4.61635">
        <ele>441.07388</ele>
        <time>2023-09-30T08:18:31.000Z</time>
      </trkpt>
      <trkpt lat="45.77981" lon="4.61626">
        <ele>440.6398</ele>
        <time>2023-09-30T08:18:32.000Z</time>
      </trkpt>
      <trkpt lat="45.77976" lon="4.61619">
        <ele>440.20978</ele>
        <time>2023-09-30T08:18:33.000Z</time>
      </trkpt>
      <trkpt lat="45.77967" lon="4.61616">
        <ele>439.78384</ele>
        <time>2023-09-30T08:18:34.000Z</time>
      </trkpt>
      <trkpt lat="45.77961" lon="4.6161">
        <ele>439.34952</ele>
        <time>2023-09-30T08:18:35.000Z</time>
      </trkpt>
      <trkpt lat="45.77955" lon="4.61603">
        <ele>438.86606</ele>
        <time>2023-09-30T08:18:36.000Z</time>
      </trkpt>
      <trkpt lat="45.7795" lon="4.61596">
        <ele>438.3985</ele>
        <time>2023-09-30T08:18:37.000Z</time>
      </trkpt>
      <trkpt lat="45.77946" lon="4.61587">
        <ele>437.97812</ele>
        <time>2023-09-30T08:18:38.000Z</time>
      </trkpt>
      <trkpt lat="45.77941" lon="4.61581">
        <ele>437.57697</ele>
        <time>2023-09-30T08:18:39.000Z</time>
      </trkpt>
      <trkpt lat="45.77938" lon="4.61574">
        <ele>437.13348</ele>
        <time>2023-09-30T08:18:40.000Z</time>
      </trkpt>
      <trkpt lat="45.77934" lon="4.61566">
        <ele>436.60776</ele>
        <time>2023-09-30T08:18:41.000Z</time>
      </trkpt>
      <trkpt lat="45.7793" lon="4.61557">
        <ele>436.06503</ele>
        <time>2023-09-30T08:18:42.000Z</time>
      </trkpt>
      <trkpt lat="45.77927" lon="4.61548">
        <ele>435.48892</ele>
        <time>2023-09-30T08:18:43.000Z</time>
      </trkpt>
      <trkpt lat="45.77923" lon="4.6154">
        <ele>434.48447</ele>
        <time>2023-09-30T08:18:44.000Z</time>
      </trkpt>
      <trkpt lat="45.77918" lon="4.61533">
        <ele>433.45703</ele>
        <time>2023-09-30T08:18:45.000Z</time>
      </trkpt>
      <trkpt lat="45.77912" lon="4.61529">
        <ele>432.0936</ele>
        <time>2023-09-30T08:18:46.000Z</time>
      </trkpt>
      <trkpt lat="45.77906" lon="4.61527">
        <ele>430.73648</ele>
        <time>2023-09-30T08:18:47.000Z</time>
      </trkpt>
      <trkpt lat="45.77902" lon="4.61525">
        <ele>430.37875</ele>
        <time>2023-09-30T08:18:48.000Z</time>
      </trkpt>
      <trkpt lat="45.77898" lon="4.61523">
        <ele>429.8707</ele>
        <time>2023-09-30T08:18:49.000Z</time>
      </trkpt>
      <trkpt lat="45.77894" lon="4.6152">
        <ele>429.371</ele>
        <time>2023-09-30T08:18:50.000Z</time>
      </trkpt>
      <trkpt lat="45.7789" lon="4.61517">
        <ele>428.96069</ele>
        <time>2023-09-30T08:18:51.000Z</time>
      </trkpt>
      <trkpt lat="45.77887" lon="4.61514">
        <ele>429.00903</ele>
        <time>2023-09-30T08:18:52.000Z</time>
      </trkpt>
      <trkpt lat="45.77883" lon="4.61509">
        <ele>429.08676</ele>
        <time>2023-09-30T08:18:53.000Z</time>
      </trkpt>
      <trkpt lat="45.77881" lon="4.61505">
        <ele>429.50439</ele>
        <time>2023-09-30T08:18:54.000Z</time>
      </trkpt>
      <trkpt lat="45.7788" lon="4.615">
        <ele>429.96246</ele>
        <time>2023-09-30T08:18:55.000Z</time>
      </trkpt>
      <trkpt lat="45.7788" lon="4.61495">
        <ele>429.37119</ele>
        <time>2023-09-30T08:18:56.000Z</time>
      </trkpt>
      <trkpt lat="45.7788" lon="4.61491">
        <ele>428.99887</ele>
        <time>2023-09-30T08:18:57.000Z</time>
      </trkpt>
      <trkpt lat="45.7788" lon="4.61486">
        <ele>428.57721</ele>
        <time>2023-09-30T08:18:58.000Z</time>
      </trkpt>
      <trkpt lat="45.77879" lon="4.61482">
        <ele>428.14362</ele>
        <time>2023-09-30T08:18:59.000Z</time>
      </trkpt>
      <trkpt lat="45.77879" lon="4.61478">
        <ele>427.7692</ele>
        <time>2023-09-30T08:19:00.000Z</time>
      </trkpt>
      <trkpt lat="45.77879" lon="4.61474">
        <ele>427.48315</ele>
        <time>2023-09-30T08:19:01.000Z</time>
      </trkpt>
      <trkpt lat="45.77878" lon="4.6147">
        <ele>427.26031</ele>
        <time>2023-09-30T08:19:02.000Z</time>
      </trkpt>
      <trkpt lat="45.77878" lon="4.61465">
        <ele>427.13174</ele>
        <time>2023-09-30T08:19:03.000Z</time>
      </trkpt>
      <trkpt lat="45.77878" lon="4.61462">
        <ele>427.02628</ele>
        <time>2023-09-30T08:19:04.000Z</time>
      </trkpt>
      <trkpt lat="45.77879" lon="4.61457">
        <ele>426.93369</ele>
        <time>2023-09-30T08:19:05.000Z</time>
      </trkpt>
      <trkpt lat="45.7788" lon="4.61453">
        <ele>426.90338</ele>
        <time>2023-09-30T08:19:06.000Z</time>
      </trkpt>
      <trkpt lat="45.7788" lon="4.61449">
        <ele>426.89346</ele>
        <time>2023-09-30T08:19:07.000Z</time>
      </trkpt>
      <trkpt lat="45.7788" lon="4.61445">
        <ele>426.98105</ele>
        <time>2023-09-30T08:19:08.000Z</time>
      </trkpt>
      <trkpt lat="45.7788" lon="4.61441">
        <ele>427.08075</ele>
        <time>2023-09-30T08:19:09.000Z</time>
      </trkpt>
      <trkpt lat="45.7788" lon="4.61437">
        <ele>427.22592</ele>
        <time>2023-09-30T08:19:10.000Z</time>
      </trkpt>
      <trkpt lat="45.7788" lon="4.61433">
        <ele>427.3772</ele>
        <time>2023-09-30T08:19:11.000Z</time>
      </trkpt>
      <trkpt lat="45.7788" lon="4.6143">
        <ele>427.12189</ele>
        <time>2023-09-30T08:19:12.000Z</time>
      </trkpt>
      <trkpt lat="45.77881" lon="4.61426">
        <ele>426.89053</ele>
        <time>2023-09-30T08:19:13.000Z</time>
      </trkpt>
      <trkpt lat="45.77881" lon="4.61423">
        <ele>426.32291</ele>
        <time>2023-09-30T08:19:14.000Z</time>
      </trkpt>
      <trkpt lat="45.77882" lon="4.61421">
        <ele>425.75275</ele>
        <time>2023-09-30T08:19:15.000Z</time>
      </trkpt>
      <trkpt lat="45.77883" lon="4.61418">
        <ele>426.23431</ele>
        <time>2023-09-30T08:19:16.000Z</time>
      </trkpt>
      <trkpt lat="45.77885" lon="4.61415">
        <ele>426.53946</ele>
        <time>2023-09-30T08:19:17.000Z</time>
      </trkpt>
      <trkpt lat="45.77886" lon="4.61413">
        <ele>426.88776</ele>
        <time>2023-09-30T08:19:18.000Z</time>
      </trkpt>
      <trkpt lat="45.77887" lon="4.6141">
        <ele>427.22794</ele>
        <time>2023-09-30T08:19:19.000Z</time>
      </trkpt>
      <trkpt lat="45.77888" lon="4.61408">
        <ele>427.55087</ele>
        <time>2023-09-30T08:19:20.000Z</time>
      </trkpt>
      <trkpt lat="45.7789" lon="4.61405">
        <ele>427.89462</ele>
        <time>2023-09-30T08:19:21.000Z</time>
      </trkpt>
      <trkpt lat="45.77891" lon="4.61403">
        <ele>428.22723</ele>
        <time>2023-09-30T08:19:22.000Z</time>
      </trkpt>
      <trkpt lat="45.77893" lon="4.61401">
        <ele>428.5827</ele>
        <time>2023-09-30T08:19:23.000Z</time>
      </trkpt>
      <trkpt lat="45.77895" lon="4.61398">
        <ele>428.91998</ele>
        <time>2023-09-30T08:19:24.000Z</time>
      </trkpt>
      <trkpt lat="45.77897" lon="4.61396">
        <ele>429.3493</ele>
        <time>2023-09-30T08:19:25.000Z</time>
      </trkpt>
      <trkpt lat="45.77899" lon="4.61394">
        <ele>429.69928</ele>
        <time>2023-09-30T08:19:26.000Z</time>
      </trkpt>
      <trkpt lat="45.77901" lon="4.61391">
        <ele>430.03793</ele>
        <time>2023-09-30T08:19:27.000Z</time>
      </trkpt>
      <trkpt lat="45.77903" lon="4.61389">
        <ele>430.3125</ele>
        <time>2023-09-30T08:19:28.000Z</time>
      </trkpt>
      <trkpt lat="45.77905" lon="4.61387">
        <ele>430.63037</ele>
        <time>2023-09-30T08:19:29.000Z</time>
      </trkpt>
      <trkpt lat="45.77907" lon="4.61385">
        <ele>430.91998</ele>
        <time>2023-09-30T08:19:30.000Z</time>
      </trkpt>
      <trkpt lat="45.77909" lon="4.61382">
        <ele>431.17456</ele>
        <time>2023-09-30T08:19:31.000Z</time>
      </trkpt>
      <trkpt lat="45.7791" lon="4.6138">
        <ele>431.39697</ele>
        <time>2023-09-30T08:19:32.000Z</time>
      </trkpt>
      <trkpt lat="45.77912" lon="4.61377">
        <ele>431.58432</ele>
        <time>2023-09-30T08:19:33.000Z</time>
      </trkpt>
      <trkpt lat="45.77914" lon="4.61375">
        <ele>431.76831</ele>
        <time>2023-09-30T08:19:34.000Z</time>
      </trkpt>
      <trkpt lat="45.77916" lon="4.61373">
        <ele>431.94946</ele>
        <time>2023-09-30T08:19:35.000Z</time>
      </trkpt>
      <trkpt lat="45.77918" lon="4.6137">
        <ele>432.13885</ele>
        <time>2023-09-30T08:19:36.000Z</time>
      </trkpt>
      <trkpt lat="45.7792" lon="4.61368">
        <ele>432.31256</ele>
        <time>2023-09-30T08:19:37.000Z</time>
      </trkpt>
      <trkpt lat="45.77922" lon="4.61366">
        <ele>432.46255</ele>
        <time>2023-09-30T08:19:38.000Z</time>
      </trkpt>
      <trkpt lat="45.77923" lon="4.61364">
        <ele>432.64926</ele>
        <time>2023-09-30T08:19:39.000Z</time>
      </trkpt>
      <trkpt lat="45.77925" lon="4.61362">
        <ele>432.85098</ele>
        <time>2023-09-30T08:19:40.000Z</time>
      </trkpt>
      <trkpt lat="45.77927" lon="4.61359">
        <ele>433.14307</ele>
        <time>2023-09-30T08:19:41.000Z</time>
      </trkpt>
      <trkpt lat="45.77929" lon="4.61356">
        <ele>433.41074</ele>
        <time>2023-09-30T08:19:42.000Z</time>
      </trkpt>
      <trkpt lat="45.77931" lon="4.61353">
        <ele>433.74341</ele>
        <time>2023-09-30T08:19:43.000Z</time>
      </trkpt>
      <trkpt lat="45.77933" lon="4.6135">
        <ele>433.97931</ele>
        <time>2023-09-30T08:19:44.000Z</time>
      </trkpt>
      <trkpt lat="45.77935" lon="4.61347">
        <ele>434.57553</ele>
        <time>2023-09-30T08:19:45.000Z</time>
      </trkpt>
      <trkpt lat="45.77937" lon="4.61344">
        <ele>435.35751</ele>
        <time>2023-09-30T08:19:46.000Z</time>
      </trkpt>
      <trkpt lat="45.7794" lon="4.61342">
        <ele>436.33139</ele>
        <time>2023-09-30T08:19:47.000Z</time>
      </trkpt>
      <trkpt lat="45.77942" lon="4.61339">
        <ele>437.29282</ele>
        <time>2023-09-30T08:19:48.000Z</time>
      </trkpt>
      <trkpt lat="45.77944" lon="4.61336">
        <ele>437.24765</ele>
        <time>2023-09-30T08:19:49.000Z</time>
      </trkpt>
      <trkpt lat="45.77945" lon="4.61333">
        <ele>437.36792</ele>
        <time>2023-09-30T08:19:50.000Z</time>
      </trkpt>
      <trkpt lat="45.77947" lon="4.6133">
        <ele>437.5</ele>
        <time>2023-09-30T08:19:51.000Z</time>
      </trkpt>
      <trkpt lat="45.77948" lon="4.61327">
        <ele>437.68149</ele>
        <time>2023-09-30T08:19:52.000Z</time>
      </trkpt>
      <trkpt lat="45.77949" lon="4.61323">
        <ele>437.84332</ele>
        <time>2023-09-30T08:19:53.000Z</time>
      </trkpt>
      <trkpt lat="45.77949" lon="4.6132">
        <ele>438.02167</ele>
        <time>2023-09-30T08:19:54.000Z</time>
      </trkpt>
      <trkpt lat="45.7795" lon="4.61316">
        <ele>438.21835</ele>
        <time>2023-09-30T08:19:55.000Z</time>
      </trkpt>
      <trkpt lat="45.7795" lon="4.61313">
        <ele>438.43896</ele>
        <time>2023-09-30T08:19:56.000Z</time>
      </trkpt>
      <trkpt lat="45.7795" lon="4.61309">
        <ele>438.6795</ele>
        <time>2023-09-30T08:19:57.000Z</time>
      </trkpt>
      <trkpt lat="45.77949" lon="4.61306">
        <ele>438.92636</ele>
        <time>2023-09-30T08:19:58.000Z</time>
      </trkpt>
      <trkpt lat="45.77949" lon="4.61303">
        <ele>439.17661</ele>
        <time>2023-09-30T08:19:59.000Z</time>
      </trkpt>
      <trkpt lat="45.77948" lon="4.61301">
        <ele>439.43848</ele>
        <time>2023-09-30T08:20:00.000Z</time>
      </trkpt>
      <trkpt lat="45.77947" lon="4.61298">
        <ele>440.03833</ele>
        <time>2023-09-30T08:20:01.000Z</time>
      </trkpt>
      <trkpt lat="45.77946" lon="4.61295">
        <ele>440.8623</ele>
        <time>2023-09-30T08:20:02.000Z</time>
      </trkpt>
      <trkpt lat="45.77945" lon="4.61292">
        <ele>441.66757</ele>
        <time>2023-09-30T08:20:03.000Z</time>
      </trkpt>
      <trkpt lat="45.77944" lon="4.61289">
        <ele>441.6329</ele>
        <time>2023-09-30T08:20:04.000Z</time>
      </trkpt>
      <trkpt lat="45.77944" lon="4.61287">
        <ele>441.35953</ele>
        <time>2023-09-30T08:20:05.000Z</time>
      </trkpt>
      <trkpt lat="45.77943" lon="4.61284">
        <ele>440.98575</ele>
        <time>2023-09-30T08:20:06.000Z</time>
      </trkpt>
      <trkpt lat="45.77943" lon="4.61281">
        <ele>440.43573</ele>
        <time>2023-09-30T08:20:07.000Z</time>
      </trkpt>
      <trkpt lat="45.77943" lon="4.61276">
        <ele>439.8858</ele>
        <time>2023-09-30T08:20:09.000Z</time>
      </trkpt>
      <trkpt lat="45.77944" lon="4.61274">
        <ele>440.31924</ele>
        <time>2023-09-30T08:20:11.000Z</time>
      </trkpt>
      <trkpt lat="45.77948" lon="4.61271">
        <ele>440.5607</ele>
        <time>2023-09-30T08:20:13.000Z</time>
      </trkpt>
      <trkpt lat="45.7795" lon="4.6127">
        <ele>440.80902</ele>
        <time>2023-09-30T08:20:14.000Z</time>
      </trkpt>
      <trkpt lat="45.77953" lon="4.61269">
        <ele>440.97403</ele>
        <time>2023-09-30T08:20:15.000Z</time>
      </trkpt>
      <trkpt lat="45.77958" lon="4.61269">
        <ele>441.15021</ele>
        <time>2023-09-30T08:20:16.000Z</time>
      </trkpt>
      <trkpt lat="45.77963" lon="4.61269">
        <ele>441.28595</ele>
        <time>2023-09-30T08:20:17.000Z</time>
      </trkpt>
      <trkpt lat="45.77969" lon="4.61267">
        <ele>441.36743</ele>
        <time>2023-09-30T08:20:18.000Z</time>
      </trkpt>
      <trkpt lat="45.77975" lon="4.61265">
        <ele>441.40176</ele>
        <time>2023-09-30T08:20:19.000Z</time>
      </trkpt>
      <trkpt lat="45.7798" lon="4.61262">
        <ele>441.32404</ele>
        <time>2023-09-30T08:20:20.000Z</time>
      </trkpt>
      <trkpt lat="45.77985" lon="4.61262">
        <ele>441.21426</ele>
        <time>2023-09-30T08:20:21.000Z</time>
      </trkpt>
      <trkpt lat="45.77991" lon="4.61263">
        <ele>441.06723</ele>
        <time>2023-09-30T08:20:22.000Z</time>
      </trkpt>
      <trkpt lat="45.77997" lon="4.61263">
        <ele>440.84344</ele>
        <time>2023-09-30T08:20:23.000Z</time>
      </trkpt>
      <trkpt lat="45.78003" lon="4.61265">
        <ele>440.16998</ele>
        <time>2023-09-30T08:20:24.000Z</time>
      </trkpt>
      <trkpt lat="45.78011" lon="4.61267">
        <ele>439.36411</ele>
        <time>2023-09-30T08:20:25.000Z</time>
      </trkpt>
      <trkpt lat="45.78019" lon="4.61269">
        <ele>438.37042</ele>
        <time>2023-09-30T08:20:26.000Z</time>
      </trkpt>
      <trkpt lat="45.78026" lon="4.61272">
        <ele>438.21527</ele>
        <time>2023-09-30T08:20:27.000Z</time>
      </trkpt>
      <trkpt lat="45.78033" lon="4.61272">
        <ele>437.85016</ele>
        <time>2023-09-30T08:20:28.000Z</time>
      </trkpt>
      <trkpt lat="45.7804" lon="4.61273">
        <ele>437.43329</ele>
        <time>2023-09-30T08:20:29.000Z</time>
      </trkpt>
      <trkpt lat="45.78048" lon="4.61272">
        <ele>436.98138</ele>
        <time>2023-09-30T08:20:30.000Z</time>
      </trkpt>
      <trkpt lat="45.78056" lon="4.61271">
        <ele>436.52246</ele>
        <time>2023-09-30T08:20:31.000Z</time>
      </trkpt>
      <trkpt lat="45.78065" lon="4.61269">
        <ele>436.02945</ele>
        <time>2023-09-30T08:20:32.000Z</time>
      </trkpt>
      <trkpt lat="45.78074" lon="4.61267">
        <ele>435.99872</ele>
        <time>2023-09-30T08:20:33.000Z</time>
      </trkpt>
      <trkpt lat="45.78083" lon="4.61264">
        <ele>436.26172</ele>
        <time>2023-09-30T08:20:34.000Z</time>
      </trkpt>
      <trkpt lat="45.78093" lon="4.61262">
        <ele>436.60532</ele>
        <time>2023-09-30T08:20:35.000Z</time>
      </trkpt>
      <trkpt lat="45.78103" lon="4.6126">
        <ele>436.24991</ele>
        <time>2023-09-30T08:20:36.000Z</time>
      </trkpt>
      <trkpt lat="45.78114" lon="4.61257">
        <ele>436.10727</ele>
        <time>2023-09-30T08:20:37.000Z</time>
      </trkpt>
      <trkpt lat="45.78124" lon="4.61255">
        <ele>435.89233</ele>
        <time>2023-09-30T08:20:38.000Z</time>
      </trkpt>
      <trkpt lat="45.78133" lon="4.61253">
        <ele>435.48575</ele>
        <time>2023-09-30T08:20:39.000Z</time>
      </trkpt>
      <trkpt lat="45.78142" lon="4.61252">
        <ele>434.94711</ele>
        <time>2023-09-30T08:20:40.000Z</time>
      </trkpt>
      <trkpt lat="45.7815" lon="4.61252">
        <ele>434.2374</ele>
        <time>2023-09-30T08:20:41.000Z</time>
      </trkpt>
      <trkpt lat="45.78158" lon="4.61251">
        <ele>433.56927</ele>
        <time>2023-09-30T08:20:42.000Z</time>
      </trkpt>
      <trkpt lat="45.78164" lon="4.61253">
        <ele>433.23306</ele>
        <time>2023-09-30T08:20:43.000Z</time>
      </trkpt>
      <trkpt lat="45.78171" lon="4.61253">
        <ele>432.836</ele>
        <time>2023-09-30T08:20:44.000Z</time>
      </trkpt>
      <trkpt lat="45.78178" lon="4.61251">
        <ele>432.37421</ele>
        <time>2023-09-30T08:20:45.000Z</time>
      </trkpt>
      <trkpt lat="45.78184" lon="4.61248">
        <ele>431.69873</ele>
        <time>2023-09-30T08:20:46.000Z</time>
      </trkpt>
      <trkpt lat="45.78191" lon="4.61246">
        <ele>431.1311</ele>
        <time>2023-09-30T08:20:47.000Z</time>
      </trkpt>
      <trkpt lat="45.78198" lon="4.61242">
        <ele>430.61557</ele>
        <time>2023-09-30T08:20:48.000Z</time>
      </trkpt>
      <trkpt lat="45.78203" lon="4.61238">
        <ele>430.00848</ele>
        <time>2023-09-30T08:20:49.000Z</time>
      </trkpt>
      <trkpt lat="45.78209" lon="4.61234">
        <ele>429.55853</ele>
        <time>2023-09-30T08:20:50.000Z</time>
      </trkpt>
      <trkpt lat="45.78216" lon="4.6123">
        <ele>429.11288</ele>
        <time>2023-09-30T08:20:51.000Z</time>
      </trkpt>
      <trkpt lat="45.78221" lon="4.61226">
        <ele>428.77386</ele>
        <time>2023-09-30T08:20:52.000Z</time>
      </trkpt>
      <trkpt lat="45.78226" lon="4.61223">
        <ele>428.0332</ele>
        <time>2023-09-30T08:20:53.000Z</time>
      </trkpt>
      <trkpt lat="45.78231" lon="4.61223">
        <ele>427.15689</ele>
        <time>2023-09-30T08:20:54.000Z</time>
      </trkpt>
      <trkpt lat="45.78236" lon="4.61225">
        <ele>426.29004</ele>
        <time>2023-09-30T08:20:55.000Z</time>
      </trkpt>
      <trkpt lat="45.7824" lon="4.61229">
        <ele>425.92987</ele>
        <time>2023-09-30T08:20:56.000Z</time>
      </trkpt>
      <trkpt lat="45.78243" lon="4.61234">
        <ele>425.36035</ele>
        <time>2023-09-30T08:20:57.000Z</time>
      </trkpt>
      <trkpt lat="45.78246" lon="4.61243">
        <ele>424.6416</ele>
        <time>2023-09-30T08:20:58.000Z</time>
      </trkpt>
      <trkpt lat="45.7825" lon="4.61252">
        <ele>423.90878</ele>
        <time>2023-09-30T08:20:59.000Z</time>
      </trkpt>
      <trkpt lat="45.78254" lon="4.6126">
        <ele>423.46484</ele>
        <time>2023-09-30T08:21:00.000Z</time>
      </trkpt>
      <trkpt lat="45.78257" lon="4.61268">
        <ele>422.91864</ele>
        <time>2023-09-30T08:21:01.000Z</time>
      </trkpt>
      <trkpt lat="45.7826" lon="4.61278">
        <ele>422.00888</ele>
        <time>2023-09-30T08:21:02.000Z</time>
      </trkpt>
      <trkpt lat="45.78265" lon="4.61285">
        <ele>420.78012</ele>
        <time>2023-09-30T08:21:03.000Z</time>
      </trkpt>
      <trkpt lat="45.78269" lon="4.61291">
        <ele>419.57892</ele>
        <time>2023-09-30T08:21:04.000Z</time>
      </trkpt>
      <trkpt lat="45.78275" lon="4.61295">
        <ele>418.33438</ele>
        <time>2023-09-30T08:21:05.000Z</time>
      </trkpt>
      <trkpt lat="45.78281" lon="4.61296">
        <ele>417.36627</ele>
        <time>2023-09-30T08:21:06.000Z</time>
      </trkpt>
      <trkpt lat="45.78286" lon="4.61292">
        <ele>416.42212</ele>
        <time>2023-09-30T08:21:07.000Z</time>
      </trkpt>
      <trkpt lat="45.78291" lon="4.61286">
        <ele>415.39755</ele>
        <time>2023-09-30T08:21:08.000Z</time>
      </trkpt>
      <trkpt lat="45.78295" lon="4.61281">
        <ele>414.47476</ele>
        <time>2023-09-30T08:21:09.000Z</time>
      </trkpt>
      <trkpt lat="45.78301" lon="4.61276">
        <ele>414.04449</ele>
        <time>2023-09-30T08:21:10.000Z</time>
      </trkpt>
      <trkpt lat="45.78307" lon="4.61271">
        <ele>413.79077</ele>
        <time>2023-09-30T08:21:11.000Z</time>
      </trkpt>
      <trkpt lat="45.78313" lon="4.61269">
        <ele>414.37613</ele>
        <time>2023-09-30T08:21:12.000Z</time>
      </trkpt>
      <trkpt lat="45.7832" lon="4.61261">
        <ele>414.69131</ele>
        <time>2023-09-30T08:21:13.000Z</time>
      </trkpt>
      <trkpt lat="45.78327" lon="4.61252">
        <ele>413.47321</ele>
        <time>2023-09-30T08:21:14.000Z</time>
      </trkpt>
      <trkpt lat="45.78334" lon="4.61247">
        <ele>412.4668</ele>
        <time>2023-09-30T08:21:15.000Z</time>
      </trkpt>
      <trkpt lat="45.78342" lon="4.61242">
        <ele>411.60043</ele>
        <time>2023-09-30T08:21:16.000Z</time>
      </trkpt>
      <trkpt lat="45.78348" lon="4.61237">
        <ele>410.74762</ele>
        <time>2023-09-30T08:21:17.000Z</time>
      </trkpt>
      <trkpt lat="45.78354" lon="4.61231">
        <ele>410.30811</ele>
        <time>2023-09-30T08:21:18.000Z</time>
      </trkpt>
      <trkpt lat="45.7836" lon="4.61227">
        <ele>410.29898</ele>
        <time>2023-09-30T08:21:19.000Z</time>
      </trkpt>
      <trkpt lat="45.78366" lon="4.61222">
        <ele>409.87949</ele>
        <time>2023-09-30T08:21:20.000Z</time>
      </trkpt>
      <trkpt lat="45.78372" lon="4.61219">
        <ele>409.94443</ele>
        <time>2023-09-30T08:21:21.000Z</time>
      </trkpt>
      <trkpt lat="45.7838" lon="4.61217">
        <ele>410.23407</ele>
        <time>2023-09-30T08:21:22.000Z</time>
      </trkpt>
      <trkpt lat="45.78386" lon="4.61215">
        <ele>410.33868</ele>
        <time>2023-09-30T08:21:23.000Z</time>
      </trkpt>
      <trkpt lat="45.78392" lon="4.61214">
        <ele>410.23444</ele>
        <time>2023-09-30T08:21:24.000Z</time>
      </trkpt>
      <trkpt lat="45.784" lon="4.61212">
        <ele>410.34488</ele>
        <time>2023-09-30T08:21:25.000Z</time>
      </trkpt>
      <trkpt lat="45.78404" lon="4.61209">
        <ele>410.05145</ele>
        <time>2023-09-30T08:21:26.000Z</time>
      </trkpt>
      <trkpt lat="45.78409" lon="4.61207">
        <ele>409.55316</ele>
        <time>2023-09-30T08:21:27.000Z</time>
      </trkpt>
      <trkpt lat="45.78414" lon="4.61208">
        <ele>409.08926</ele>
        <time>2023-09-30T08:21:28.000Z</time>
      </trkpt>
      <trkpt lat="45.78418" lon="4.61208">
        <ele>408.65131</ele>
        <time>2023-09-30T08:21:29.000Z</time>
      </trkpt>
      <trkpt lat="45.78422" lon="4.61209">
        <ele>407.57385</ele>
        <time>2023-09-30T08:21:30.000Z</time>
      </trkpt>
      <trkpt lat="45.78426" lon="4.61209">
        <ele>406.40448</ele>
        <time>2023-09-30T08:21:31.000Z</time>
      </trkpt>
      <trkpt lat="45.78431" lon="4.61209">
        <ele>404.34628</ele>
        <time>2023-09-30T08:21:32.000Z</time>
      </trkpt>
      <trkpt lat="45.78435" lon="4.61209">
        <ele>402.48373</ele>
        <time>2023-09-30T08:21:33.000Z</time>
      </trkpt>
      <trkpt lat="45.78439" lon="4.61209">
        <ele>401.99521</ele>
        <time>2023-09-30T08:21:34.000Z</time>
      </trkpt>
      <trkpt lat="45.78443" lon="4.61209">
        <ele>401.28284</ele>
        <time>2023-09-30T08:21:35.000Z</time>
      </trkpt>
      <trkpt lat="45.78446" lon="4.6121">
        <ele>400.7085</ele>
        <time>2023-09-30T08:21:36.000Z</time>
      </trkpt>
      <trkpt lat="45.78451" lon="4.61212">
        <ele>400.10596</ele>
        <time>2023-09-30T08:21:37.000Z</time>
      </trkpt>
      <trkpt lat="45.78455" lon="4.61213">
        <ele>399.27277</ele>
        <time>2023-09-30T08:21:38.000Z</time>
      </trkpt>
      <trkpt lat="45.7846" lon="4.61215">
        <ele>398.23444</ele>
        <time>2023-09-30T08:21:39.000Z</time>
      </trkpt>
      <trkpt lat="45.78464" lon="4.61217">
        <ele>397.58173</ele>
        <time>2023-09-30T08:21:40.000Z</time>
      </trkpt>
      <trkpt lat="45.78468" lon="4.61219">
        <ele>396.7493</ele>
        <time>2023-09-30T08:21:41.000Z</time>
      </trkpt>
      <trkpt lat="45.78471" lon="4.61221">
        <ele>396.05719</ele>
        <time>2023-09-30T08:21:42.000Z</time>
      </trkpt>
      <trkpt lat="45.78475" lon="4.61222">
        <ele>395.69443</ele>
        <time>2023-09-30T08:21:43.000Z</time>
      </trkpt>
      <trkpt lat="45.7848" lon="4.61221">
        <ele>395.51395</ele>
        <time>2023-09-30T08:21:44.000Z</time>
      </trkpt>
      <trkpt lat="45.78484" lon="4.61219">
        <ele>395.18497</ele>
        <time>2023-09-30T08:21:45.000Z</time>
      </trkpt>
      <trkpt lat="45.78488" lon="4.61217">
        <ele>395.35248</ele>
        <time>2023-09-30T08:21:46.000Z</time>
      </trkpt>
      <trkpt lat="45.78492" lon="4.61215">
        <ele>395.72479</ele>
        <time>2023-09-30T08:21:47.000Z</time>
      </trkpt>
      <trkpt lat="45.78496" lon="4.61212">
        <ele>396.05466</ele>
        <time>2023-09-30T08:21:48.000Z</time>
      </trkpt>
      <trkpt lat="45.785" lon="4.61209">
        <ele>396.35696</ele>
        <time>2023-09-30T08:21:49.000Z</time>
      </trkpt>
      <trkpt lat="45.78504" lon="4.61206">
        <ele>396.6778</ele>
        <time>2023-09-30T08:21:50.000Z</time>
      </trkpt>
      <trkpt lat="45.78507" lon="4.61204">
        <ele>396.92624</ele>
        <time>2023-09-30T08:21:51.000Z</time>
      </trkpt>
      <trkpt lat="45.78511" lon="4.612">
        <ele>397.14236</ele>
        <time>2023-09-30T08:21:52.000Z</time>
      </trkpt>
      <trkpt lat="45.78515" lon="4.61197">
        <ele>397.39734</ele>
        <time>2023-09-30T08:21:53.000Z</time>
      </trkpt>
      <trkpt lat="45.78519" lon="4.61193">
        <ele>397.6423</ele>
        <time>2023-09-30T08:21:54.000Z</time>
      </trkpt>
      <trkpt lat="45.78521" lon="4.61189">
        <ele>397.841</ele>
        <time>2023-09-30T08:21:55.000Z</time>
      </trkpt>
      <trkpt lat="45.78526" lon="4.61185">
        <ele>397.97214</ele>
        <time>2023-09-30T08:21:56.000Z</time>
      </trkpt>
      <trkpt lat="45.7853" lon="4.61182">
        <ele>398.12933</ele>
        <time>2023-09-30T08:21:57.000Z</time>
      </trkpt>
      <trkpt lat="45.78534" lon="4.61177">
        <ele>398.34491</ele>
        <time>2023-09-30T08:21:58.000Z</time>
      </trkpt>
      <trkpt lat="45.78539" lon="4.61173">
        <ele>398.4913</ele>
        <time>2023-09-30T08:21:59.000Z</time>
      </trkpt>
      <trkpt lat="45.78544" lon="4.61169">
        <ele>398.6048</ele>
        <time>2023-09-30T08:22:00.000Z</time>
      </trkpt>
      <trkpt lat="45.78548" lon="4.61164">
        <ele>398.69452</ele>
        <time>2023-09-30T08:22:01.000Z</time>
      </trkpt>
      <trkpt lat="45.78553" lon="4.6116">
        <ele>398.81784</ele>
        <time>2023-09-30T08:22:02.000Z</time>
      </trkpt>
      <trkpt lat="45.78558" lon="4.61154">
        <ele>398.80219</ele>
        <time>2023-09-30T08:22:03.000Z</time>
      </trkpt>
      <trkpt lat="45.78562" lon="4.61149">
        <ele>398.90439</ele>
        <time>2023-09-30T08:22:04.000Z</time>
      </trkpt>
      <trkpt lat="45.78566" lon="4.61144">
        <ele>398.92822</ele>
        <time>2023-09-30T08:22:05.000Z</time>
      </trkpt>
      <trkpt lat="45.78571" lon="4.61139">
        <ele>398.85114</ele>
        <time>2023-09-30T08:22:06.000Z</time>
      </trkpt>
      <trkpt lat="45.78576" lon="4.61135">
        <ele>398.75232</ele>
        <time>2023-09-30T08:22:07.000Z</time>
      </trkpt>
      <trkpt lat="45.78581" lon="4.61131">
        <ele>398.70459</ele>
        <time>2023-09-30T08:22:08.000Z</time>
      </trkpt>
      <trkpt lat="45.78586" lon="4.61128">
        <ele>398.66635</ele>
        <time>2023-09-30T08:22:09.000Z</time>
      </trkpt>
      <trkpt lat="45.78592" lon="4.61126">
        <ele>398.70673</ele>
        <time>2023-09-30T08:22:10.000Z</time>
      </trkpt>
      <trkpt lat="45.78597" lon="4.61123">
        <ele>398.76282</ele>
        <time>2023-09-30T08:22:11.000Z</time>
      </trkpt>
      <trkpt lat="45.78601" lon="4.6112">
        <ele>398.7731</ele>
        <time>2023-09-30T08:22:12.000Z</time>
      </trkpt>
      <trkpt lat="45.78605" lon="4.61118">
        <ele>398.79956</ele>
        <time>2023-09-30T08:22:13.000Z</time>
      </trkpt>
      <trkpt lat="45.78608" lon="4.61116">
        <ele>398.89081</ele>
        <time>2023-09-30T08:22:14.000Z</time>
      </trkpt>
      <trkpt lat="45.7861" lon="4.61114">
        <ele>398.90283</ele>
        <time>2023-09-30T08:22:15.000Z</time>
      </trkpt>
      <trkpt lat="45.78612" lon="4.61111">
        <ele>398.88651</ele>
        <time>2023-09-30T08:22:16.000Z</time>
      </trkpt>
      <trkpt lat="45.78615" lon="4.61109">
        <ele>398.87689</ele>
        <time>2023-09-30T08:22:17.000Z</time>
      </trkpt>
      <trkpt lat="45.78618" lon="4.61106">
        <ele>398.93454</ele>
        <time>2023-09-30T08:22:18.000Z</time>
      </trkpt>
      <trkpt lat="45.78622" lon="4.611">
        <ele>398.99481</ele>
        <time>2023-09-30T08:22:19.000Z</time>
      </trkpt>
      <trkpt lat="45.78627" lon="4.61093">
        <ele>399.0842</ele>
        <time>2023-09-30T08:22:20.000Z</time>
      </trkpt>
      <trkpt lat="45.78631" lon="4.61085">
        <ele>399.84891</ele>
        <time>2023-09-30T08:22:21.000Z</time>
      </trkpt>
      <trkpt lat="45.78637" lon="4.61076">
        <ele>400.94238</ele>
        <time>2023-09-30T08:22:22.000Z</time>
      </trkpt>
      <trkpt lat="45.78642" lon="4.61068">
        <ele>402.02417</ele>
        <time>2023-09-30T08:22:23.000Z</time>
      </trkpt>
      <trkpt lat="45.78646" lon="4.61059">
        <ele>402.99414</ele>
        <time>2023-09-30T08:22:24.000Z</time>
      </trkpt>
      <trkpt lat="45.78651" lon="4.61051">
        <ele>403.93564</ele>
        <time>2023-09-30T08:22:25.000Z</time>
      </trkpt>
      <trkpt lat="45.78656" lon="4.61043">
        <ele>404.79761</ele>
        <time>2023-09-30T08:22:26.000Z</time>
      </trkpt>
      <trkpt lat="45.78659" lon="4.61033">
        <ele>404.14145</ele>
        <time>2023-09-30T08:22:27.000Z</time>
      </trkpt>
      <trkpt lat="45.78661" lon="4.61023">
        <ele>403.69058</ele>
        <time>2023-09-30T08:22:28.000Z</time>
      </trkpt>
      <trkpt lat="45.78661" lon="4.61013">
        <ele>403.21246</ele>
        <time>2023-09-30T08:22:29.000Z</time>
      </trkpt>
      <trkpt lat="45.78661" lon="4.61003">
        <ele>402.62564</ele>
        <time>2023-09-30T08:22:30.000Z</time>
      </trkpt>
      <trkpt lat="45.78661" lon="4.60992">
        <ele>402.0152</ele>
        <time>2023-09-30T08:22:31.000Z</time>
      </trkpt>
      <trkpt lat="45.78662" lon="4.60982">
        <ele>401.43668</ele>
        <time>2023-09-30T08:22:32.000Z</time>
      </trkpt>
      <trkpt lat="45.78665" lon="4.60972">
        <ele>400.82208</ele>
        <time>2023-09-30T08:22:33.000Z</time>
      </trkpt>
      <trkpt lat="45.78669" lon="4.60962">
        <ele>400.13544</ele>
        <time>2023-09-30T08:22:34.000Z</time>
      </trkpt>
      <trkpt lat="45.78674" lon="4.60953">
        <ele>399.47366</ele>
        <time>2023-09-30T08:22:35.000Z</time>
      </trkpt>
      <trkpt lat="45.78678" lon="4.60944">
        <ele>398.81317</ele>
        <time>2023-09-30T08:22:36.000Z</time>
      </trkpt>
      <trkpt lat="45.78681" lon="4.60936">
        <ele>398.1611</ele>
        <time>2023-09-30T08:22:37.000Z</time>
      </trkpt>
      <trkpt lat="45.78684" lon="4.6093">
        <ele>397.5816</ele>
        <time>2023-09-30T08:22:38.000Z</time>
      </trkpt>
      <trkpt lat="45.78686" lon="4.60925">
        <ele>397.00186</ele>
        <time>2023-09-30T08:22:39.000Z</time>
      </trkpt>
      <trkpt lat="45.78689" lon="4.6092">
        <ele>396.40536</ele>
        <time>2023-09-30T08:22:40.000Z</time>
      </trkpt>
      <trkpt lat="45.78693" lon="4.60915">
        <ele>395.06683</ele>
        <time>2023-09-30T08:22:41.000Z</time>
      </trkpt>
      <trkpt lat="45.78697" lon="4.60909">
        <ele>393.3049</ele>
        <time>2023-09-30T08:22:42.000Z</time>
      </trkpt>
      <trkpt lat="45.78701" lon="4.60901">
        <ele>391.61884</ele>
        <time>2023-09-30T08:22:43.000Z</time>
      </trkpt>
      <trkpt lat="45.78707" lon="4.60896">
        <ele>389.97229</ele>
        <time>2023-09-30T08:22:44.000Z</time>
      </trkpt>
      <trkpt lat="45.78713" lon="4.6089">
        <ele>388.4483</ele>
        <time>2023-09-30T08:22:45.000Z</time>
      </trkpt>
      <trkpt lat="45.78719" lon="4.60882">
        <ele>387.67828</ele>
        <time>2023-09-30T08:22:46.000Z</time>
      </trkpt>
      <trkpt lat="45.78724" lon="4.60873">
        <ele>388.33856</ele>
        <time>2023-09-30T08:22:47.000Z</time>
      </trkpt>
      <trkpt lat="45.7873" lon="4.60864">
        <ele>389.23981</ele>
        <time>2023-09-30T08:22:48.000Z</time>
      </trkpt>
      <trkpt lat="45.78736" lon="4.60857">
        <ele>390.16135</ele>
        <time>2023-09-30T08:22:49.000Z</time>
      </trkpt>
      <trkpt lat="45.7874" lon="4.60848">
        <ele>389.69257</ele>
        <time>2023-09-30T08:22:50.000Z</time>
      </trkpt>
      <trkpt lat="45.78745" lon="4.60837">
        <ele>389.41171</ele>
        <time>2023-09-30T08:22:51.000Z</time>
      </trkpt>
      <trkpt lat="45.78751" lon="4.60827">
        <ele>389.29846</ele>
        <time>2023-09-30T08:22:52.000Z</time>
      </trkpt>
      <trkpt lat="45.78756" lon="4.60819">
        <ele>389.48248</ele>
        <time>2023-09-30T08:22:53.000Z</time>
      </trkpt>
      <trkpt lat="45.78763" lon="4.6081">
        <ele>389.52094</ele>
        <time>2023-09-30T08:22:54.000Z</time>
      </trkpt>
      <trkpt lat="45.7877" lon="4.60802">
        <ele>389.65204</ele>
        <time>2023-09-30T08:22:55.000Z</time>
      </trkpt>
      <trkpt lat="45.78777" lon="4.60793">
        <ele>389.90552</ele>
        <time>2023-09-30T08:22:56.000Z</time>
      </trkpt>
      <trkpt lat="45.78784" lon="4.60785">
        <ele>389.92889</ele>
        <time>2023-09-30T08:22:57.000Z</time>
      </trkpt>
      <trkpt lat="45.78792" lon="4.60775">
        <ele>389.50897</ele>
        <time>2023-09-30T08:22:58.000Z</time>
      </trkpt>
      <trkpt lat="45.78797" lon="4.60766">
        <ele>389.55646</ele>
        <time>2023-09-30T08:22:59.000Z</time>
      </trkpt>
      <trkpt lat="45.788" lon="4.60753">
        <ele>389.95435</ele>
        <time>2023-09-30T08:23:00.000Z</time>
      </trkpt>
      <trkpt lat="45.78803" lon="4.60741">
        <ele>390.07281</ele>
        <time>2023-09-30T08:23:01.000Z</time>
      </trkpt>
      <trkpt lat="45.78803" lon="4.60728">
        <ele>390.45486</ele>
        <time>2023-09-30T08:23:02.000Z</time>
      </trkpt>
      <trkpt lat="45.78805" lon="4.60714">
        <ele>390.32635</ele>
        <time>2023-09-30T08:23:03.000Z</time>
      </trkpt>
      <trkpt lat="45.78807" lon="4.60701">
        <ele>390.01343</ele>
        <time>2023-09-30T08:23:04.000Z</time>
      </trkpt>
      <trkpt lat="45.78812" lon="4.60688">
        <ele>389.5675</ele>
        <time>2023-09-30T08:23:05.000Z</time>
      </trkpt>
      <trkpt lat="45.78815" lon="4.60676">
        <ele>388.76028</ele>
        <time>2023-09-30T08:23:06.000Z</time>
      </trkpt>
      <trkpt lat="45.78821" lon="4.60665">
        <ele>388.04358</ele>
        <time>2023-09-30T08:23:07.000Z</time>
      </trkpt>
      <trkpt lat="45.78826" lon="4.60654">
        <ele>387.15204</ele>
        <time>2023-09-30T08:23:08.000Z</time>
      </trkpt>
      <trkpt lat="45.78832" lon="4.60643">
        <ele>386.07959</ele>
        <time>2023-09-30T08:23:09.000Z</time>
      </trkpt>
      <trkpt lat="45.78837" lon="4.60632">
        <ele>385.98355</ele>
        <time>2023-09-30T08:23:10.000Z</time>
      </trkpt>
      <trkpt lat="45.78842" lon="4.6062">
        <ele>385.81146</ele>
        <time>2023-09-30T08:23:11.000Z</time>
      </trkpt>
      <trkpt lat="45.78847" lon="4.60609">
        <ele>385.4541</ele>
        <time>2023-09-30T08:23:12.000Z</time>
      </trkpt>
      <trkpt lat="45.78852" lon="4.60598">
        <ele>384.93872</ele>
        <time>2023-09-30T08:23:13.000Z</time>
      </trkpt>
      <trkpt lat="45.78856" lon="4.60589">
        <ele>384.64084</ele>
        <time>2023-09-30T08:23:14.000Z</time>
      </trkpt>
      <trkpt lat="45.7886" lon="4.60579">
        <ele>384.77646</ele>
        <time>2023-09-30T08:23:15.000Z</time>
      </trkpt>
      <trkpt lat="45.78864" lon="4.60567">
        <ele>385.02588</ele>
        <time>2023-09-30T08:23:16.000Z</time>
      </trkpt>
      <trkpt lat="45.78866" lon="4.60553">
        <ele>385.64996</ele>
        <time>2023-09-30T08:23:17.000Z</time>
      </trkpt>
      <trkpt lat="45.78866" lon="4.60541">
        <ele>386.71939</ele>
        <time>2023-09-30T08:23:18.000Z</time>
      </trkpt>
      <trkpt lat="45.78868" lon="4.60529">
        <ele>387.68338</ele>
        <time>2023-09-30T08:23:19.000Z</time>
      </trkpt>
      <trkpt lat="45.78869" lon="4.60517">
        <ele>388.57758</ele>
        <time>2023-09-30T08:23:20.000Z</time>
      </trkpt>
      <trkpt lat="45.7887" lon="4.60507">
        <ele>389.92181</ele>
        <time>2023-09-30T08:23:21.000Z</time>
      </trkpt>
      <trkpt lat="45.78872" lon="4.605">
        <ele>391.25037</ele>
        <time>2023-09-30T08:23:22.000Z</time>
      </trkpt>
      <trkpt lat="45.78871" lon="4.60493">
        <ele>393.0983</ele>
        <time>2023-09-30T08:23:23.000Z</time>
      </trkpt>
      <trkpt lat="45.78872" lon="4.60487">
        <ele>395.06293</ele>
        <time>2023-09-30T08:23:24.000Z</time>
      </trkpt>
      <trkpt lat="45.78871" lon="4.60483">
        <ele>396.93747</ele>
        <time>2023-09-30T08:23:25.000Z</time>
      </trkpt>
      <trkpt lat="45.78873" lon="4.60479">
        <ele>398.88458</ele>
        <time>2023-09-30T08:23:26.000Z</time>
      </trkpt>
      <trkpt lat="45.78873" lon="4.60476">
        <ele>399.63318</ele>
        <time>2023-09-30T08:23:27.000Z</time>
      </trkpt>
      <trkpt lat="45.78872" lon="4.60471">
        <ele>400.15366</ele>
        <time>2023-09-30T08:23:28.000Z</time>
      </trkpt>
      <trkpt lat="45.78871" lon="4.60466">
        <ele>400.88699</ele>
        <time>2023-09-30T08:23:29.000Z</time>
      </trkpt>
      <trkpt lat="45.7887" lon="4.60461">
        <ele>402.08893</ele>
        <time>2023-09-30T08:23:30.000Z</time>
      </trkpt>
      <trkpt lat="45.7887" lon="4.60455">
        <ele>403.23987</ele>
        <time>2023-09-30T08:23:31.000Z</time>
      </trkpt>
      <trkpt lat="45.78869" lon="4.60449">
        <ele>406.6485</ele>
        <time>2023-09-30T08:23:32.000Z</time>
      </trkpt>
      <trkpt lat="45.78869" lon="4.60445">
        <ele>409.23193</ele>
        <time>2023-09-30T08:23:34.000Z</time>
      </trkpt>
      <trkpt lat="45.78869" lon="4.60442">
        <ele>410.58731</ele>
        <time>2023-09-30T08:23:36.000Z</time>
      </trkpt>
      <trkpt lat="45.7887" lon="4.6044">
        <ele>410.06476</ele>
        <time>2023-09-30T08:23:42.000Z</time>
      </trkpt>
      <trkpt lat="45.78873" lon="4.6044">
        <ele>410.77179</ele>
        <time>2023-09-30T08:23:44.000Z</time>
      </trkpt>
      <trkpt lat="45.78872" lon="4.60445">
        <ele>411.36026</ele>
        <time>2023-09-30T08:23:46.000Z</time>
      </trkpt>
      <trkpt lat="45.7887" lon="4.60448">
        <ele>411.83667</ele>
        <time>2023-09-30T08:23:47.000Z</time>
      </trkpt>
      <trkpt lat="45.7887" lon="4.60451">
        <ele>409.98431</ele>
        <time>2023-09-30T08:23:48.000Z</time>
      </trkpt>
      <trkpt lat="45.7887" lon="4.60454">
        <ele>409.81137</ele>
        <time>2023-09-30T08:23:49.000Z</time>
      </trkpt>
      <trkpt lat="45.78871" lon="4.60458">
        <ele>409.53482</ele>
        <time>2023-09-30T08:23:50.000Z</time>
      </trkpt>
      <trkpt lat="45.78871" lon="4.60462">
        <ele>409.02725</ele>
        <time>2023-09-30T08:23:51.000Z</time>
      </trkpt>
      <trkpt lat="45.78872" lon="4.60467">
        <ele>408.46335</ele>
        <time>2023-09-30T08:23:52.000Z</time>
      </trkpt>
      <trkpt lat="45.78872" lon="4.6047">
        <ele>407.94</ele>
        <time>2023-09-30T08:23:53.000Z</time>
      </trkpt>
      <trkpt lat="45.78872" lon="4.60473">
        <ele>403.92749</ele>
        <time>2023-09-30T08:23:54.000Z</time>
      </trkpt>
      <trkpt lat="45.78872" lon="4.60477">
        <ele>402.98175</ele>
        <time>2023-09-30T08:23:55.000Z</time>
      </trkpt>
      <trkpt lat="45.78871" lon="4.60481">
        <ele>403.18658</ele>
        <time>2023-09-30T08:23:56.000Z</time>
      </trkpt>
      <trkpt lat="45.78871" lon="4.60485">
        <ele>403.36426</ele>
        <time>2023-09-30T08:23:57.000Z</time>
      </trkpt>
      <trkpt lat="45.78871" lon="4.60489">
        <ele>403.52478</ele>
        <time>2023-09-30T08:23:58.000Z</time>
      </trkpt>
      <trkpt lat="45.7887" lon="4.60493">
        <ele>403.65668</ele>
        <time>2023-09-30T08:23:59.000Z</time>
      </trkpt>
      <trkpt lat="45.78869" lon="4.60497">
        <ele>399.89679</ele>
        <time>2023-09-30T08:24:00.000Z</time>
      </trkpt>
      <trkpt lat="45.78869" lon="4.605">
        <ele>397.56766</ele>
        <time>2023-09-30T08:24:01.000Z</time>
      </trkpt>
      <trkpt lat="45.78869" lon="4.60504">
        <ele>395.82718</ele>
        <time>2023-09-30T08:24:02.000Z</time>
      </trkpt>
      <trkpt lat="45.78868" lon="4.60507">
        <ele>395.15692</ele>
        <time>2023-09-30T08:24:03.000Z</time>
      </trkpt>
      <trkpt lat="45.78868" lon="4.6051">
        <ele>395.85602</ele>
        <time>2023-09-30T08:24:05.000Z</time>
      </trkpt>
      <trkpt lat="45.78867" lon="4.60512">
        <ele>391.48462</ele>
        <time>2023-09-30T08:24:07.000Z</time>
      </trkpt>
      <trkpt lat="45.78866" lon="4.60515">
        <ele>390.52026</ele>
        <time>2023-09-30T08:24:10.000Z</time>
      </trkpt>
      <trkpt lat="45.78865" lon="4.60517">
        <ele>389.47827</ele>
        <time>2023-09-30T08:24:12.000Z</time>
      </trkpt>
      <trkpt lat="45.78865" lon="4.6052">
        <ele>387.14798</ele>
        <time>2023-09-30T08:24:13.000Z</time>
      </trkpt>
      <trkpt lat="45.78865" lon="4.60524">
        <ele>386.00616</ele>
        <time>2023-09-30T08:24:14.000Z</time>
      </trkpt>
      <trkpt lat="45.78866" lon="4.60527">
        <ele>384.81589</ele>
        <time>2023-09-30T08:24:15.000Z</time>
      </trkpt>
      <trkpt lat="45.78868" lon="4.60528">
        <ele>383.57996</ele>
        <time>2023-09-30T08:24:16.000Z</time>
      </trkpt>
      <trkpt lat="45.7887" lon="4.60527">
        <ele>382.30759</ele>
        <time>2023-09-30T08:24:17.000Z</time>
      </trkpt>
      <trkpt lat="45.78872" lon="4.60525">
        <ele>380.99982</ele>
        <time>2023-09-30T08:24:18.000Z</time>
      </trkpt>
      <trkpt lat="45.78874" lon="4.60522">
        <ele>380.41461</ele>
        <time>2023-09-30T08:24:20.000Z</time>
      </trkpt>
      <trkpt lat="45.78876" lon="4.60521">
        <ele>379.23898</ele>
        <time>2023-09-30T08:24:22.000Z</time>
      </trkpt>
      <trkpt lat="45.78878" lon="4.60519">
        <ele>378.05182</ele>
        <time>2023-09-30T08:24:23.000Z</time>
      </trkpt>
      <trkpt lat="45.78879" lon="4.60516">
        <ele>376.7951</ele>
        <time>2023-09-30T08:24:24.000Z</time>
      </trkpt>
      <trkpt lat="45.78881" lon="4.60512">
        <ele>372.90399</ele>
        <time>2023-09-30T08:24:26.000Z</time>
      </trkpt>
      <trkpt lat="45.78882" lon="4.6051">
        <ele>371.37296</ele>
        <time>2023-09-30T08:24:27.000Z</time>
      </trkpt>
      <trkpt lat="45.78883" lon="4.60506">
        <ele>373.59702</ele>
        <time>2023-09-30T08:24:29.000Z</time>
      </trkpt>
      <trkpt lat="45.78884" lon="4.60501">
        <ele>372.28204</ele>
        <time>2023-09-30T08:24:31.000Z</time>
      </trkpt>
      <trkpt lat="45.78885" lon="4.60499">
        <ele>368.72589</ele>
        <time>2023-09-30T08:24:32.000Z</time>
      </trkpt>
      <trkpt lat="45.78886" lon="4.60496">
        <ele>367.37082</ele>
        <time>2023-09-30T08:24:34.000Z</time>
      </trkpt>
      <trkpt lat="45.78887" lon="4.60494">
        <ele>363.91351</ele>
        <time>2023-09-30T08:24:39.000Z</time>
      </trkpt>
      <trkpt lat="45.78888" lon="4.60491">
        <ele>364.17535</ele>
        <time>2023-09-30T08:24:52.000Z</time>
      </trkpt>
      <trkpt lat="45.78889" lon="4.60489">
        <ele>362.80988</ele>
        <time>2023-09-30T08:24:56.000Z</time>
      </trkpt>
      <trkpt lat="45.78889" lon="4.60486">
        <ele>359.89307</ele>
        <time>2023-09-30T08:26:04.000Z</time>
      </trkpt>
      <trkpt lat="45.7889" lon="4.60484">
        <ele>360.34903</ele>
        <time>2023-09-30T08:26:07.000Z</time>
      </trkpt>
      <trkpt lat="45.78891" lon="4.60481">
        <ele>357.70432</ele>
        <time>2023-09-30T08:26:10.000Z</time>
      </trkpt>
      <trkpt lat="45.78894" lon="4.6048">
        <ele>355.10556</ele>
        <time>2023-09-30T08:26:13.000Z</time>
      </trkpt>
      <trkpt lat="45.78896" lon="4.6048">
        <ele>352.52277</ele>
        <time>2023-09-30T08:26:16.000Z</time>
      </trkpt>
      <trkpt lat="45.78898" lon="4.60479">
        <ele>349.94879</ele>
        <time>2023-09-30T08:26:18.000Z</time>
      </trkpt>
      <trkpt lat="45.789" lon="4.60478">
        <ele>347.45398</ele>
        <time>2023-09-30T08:26:20.000Z</time>
      </trkpt>
      <trkpt lat="45.78902" lon="4.60477">
        <ele>347.93311</ele>
        <time>2023-09-30T08:26:22.000Z</time>
      </trkpt>
      <trkpt lat="45.78904" lon="4.60477">
        <ele>345.62875</ele>
        <time>2023-09-30T08:26:24.000Z</time>
      </trkpt>
      <trkpt lat="45.78906" lon="4.60475">
        <ele>343.28342</ele>
        <time>2023-09-30T08:26:26.000Z</time>
      </trkpt>
      <trkpt lat="45.78909" lon="4.60475">
        <ele>341.01849</ele>
        <time>2023-09-30T08:26:28.000Z</time>
      </trkpt>
      <trkpt lat="45.7891" lon="4.60472">
        <ele>341.36066</ele>
        <time>2023-09-30T08:26:31.000Z</time>
      </trkpt>
      <trkpt lat="45.78912" lon="4.60471">
        <ele>339.47122</ele>
        <time>2023-09-30T08:26:40.000Z</time>
      </trkpt>
      <trkpt lat="45.78915" lon="4.6047">
        <ele>337.67886</ele>
        <time>2023-09-30T08:26:42.000Z</time>
      </trkpt>
      <trkpt lat="45.78917" lon="4.6047">
        <ele>335.65924</ele>
        <time>2023-09-30T08:26:44.000Z</time>
      </trkpt>
      <trkpt lat="45.78919" lon="4.6047">
        <ele>336.0047</ele>
        <time>2023-09-30T08:26:46.000Z</time>
      </trkpt>
      <trkpt lat="45.78922" lon="4.60469">
        <ele>334.19699</ele>
        <time>2023-09-30T08:26:48.000Z</time>
      </trkpt>
      <trkpt lat="45.78925" lon="4.60469">
        <ele>334.55173</ele>
        <time>2023-09-30T08:26:50.000Z</time>
      </trkpt>
      <trkpt lat="45.78927" lon="4.6047">
        <ele>334.79581</ele>
        <time>2023-09-30T08:26:52.000Z</time>
      </trkpt>
      <trkpt lat="45.78929" lon="4.60471">
        <ele>333.19757</ele>
        <time>2023-09-30T08:26:53.000Z</time>
      </trkpt>
      <trkpt lat="45.78931" lon="4.60472">
        <ele>333.2308</ele>
        <time>2023-09-30T08:26:54.000Z</time>
      </trkpt>
      <trkpt lat="45.78933" lon="4.60473">
        <ele>333.20135</ele>
        <time>2023-09-30T08:26:56.000Z</time>
      </trkpt>
      <trkpt lat="45.78935" lon="4.60473">
        <ele>333.14117</ele>
        <time>2023-09-30T08:26:58.000Z</time>
      </trkpt>
      <trkpt lat="45.78937" lon="4.60473">
        <ele>333.07144</ele>
        <time>2023-09-30T08:27:03.000Z</time>
      </trkpt>
      <trkpt lat="45.78939" lon="4.60475">
        <ele>333.19067</ele>
        <time>2023-09-30T08:27:31.000Z</time>
      </trkpt>
      <trkpt lat="45.78941" lon="4.60476">
        <ele>333.30127</ele>
        <time>2023-09-30T08:27:34.000Z</time>
      </trkpt>
      <trkpt lat="45.78943" lon="4.60478">
        <ele>333.35223</ele>
        <time>2023-09-30T08:27:38.000Z</time>
      </trkpt>
      <trkpt lat="45.78944" lon="4.60479">
        <ele>333.63641</ele>
        <time>2023-09-30T08:27:55.000Z</time>
      </trkpt>
      <trkpt lat="45.78944" lon="4.60483">
        <ele>333.93863</ele>
        <time>2023-09-30T08:28:01.000Z</time>
      </trkpt>
      <trkpt lat="45.78945" lon="4.60485">
        <ele>334.28787</ele>
        <time>2023-09-30T08:28:05.000Z</time>
      </trkpt>
      <trkpt lat="45.78947" lon="4.60488">
        <ele>334.60382</ele>
        <time>2023-09-30T08:28:09.000Z</time>
      </trkpt>
      <trkpt lat="45.78948" lon="4.60491">
        <ele>334.94083</ele>
        <time>2023-09-30T08:28:12.000Z</time>
      </trkpt>
      <trkpt lat="45.7895" lon="4.60493">
        <ele>335.13397</ele>
        <time>2023-09-30T08:28:16.000Z</time>
      </trkpt>
      <trkpt lat="45.78951" lon="4.60497">
        <ele>335.14047</ele>
        <time>2023-09-30T08:28:19.000Z</time>
      </trkpt>
      <trkpt lat="45.78953" lon="4.60499">
        <ele>335.41092</ele>
        <time>2023-09-30T08:28:21.000Z</time>
      </trkpt>
      <trkpt lat="45.78955" lon="4.60501">
        <ele>335.62802</ele>
        <time>2023-09-30T08:28:23.000Z</time>
      </trkpt>
      <trkpt lat="45.78956" lon="4.60503">
        <ele>335.90298</ele>
        <time>2023-09-30T08:28:27.000Z</time>
      </trkpt>
      <trkpt lat="45.78958" lon="4.60505">
        <ele>336.23184</ele>
        <time>2023-09-30T08:28:30.000Z</time>
      </trkpt>
      <trkpt lat="45.78959" lon="4.60506">
        <ele>336.70828</ele>
        <time>2023-09-30T08:28:33.000Z</time>
      </trkpt>
      <trkpt lat="45.78961" lon="4.60509">
        <ele>337.15485</ele>
        <time>2023-09-30T08:28:36.000Z</time>
      </trkpt>
      <trkpt lat="45.78962" lon="4.60512">
        <ele>337.63724</ele>
        <time>2023-09-30T08:28:39.000Z</time>
      </trkpt>
      <trkpt lat="45.78963" lon="4.60514">
        <ele>338.125</ele>
        <time>2023-09-30T08:28:42.000Z</time>
      </trkpt>
      <trkpt lat="45.78964" lon="4.60517">
        <ele>338.6362</ele>
        <time>2023-09-30T08:28:45.000Z</time>
      </trkpt>
      <trkpt lat="45.78966" lon="4.60519">
        <ele>338.93622</ele>
        <time>2023-09-30T08:28:49.000Z</time>
      </trkpt>
      <trkpt lat="45.78967" lon="4.60521">
        <ele>342.83987</ele>
        <time>2023-09-30T08:28:51.000Z</time>
      </trkpt>
      <trkpt lat="45.78969" lon="4.60522">
        <ele>343.26624</ele>
        <time>2023-09-30T08:28:53.000Z</time>
      </trkpt>
      <trkpt lat="45.78972" lon="4.60524">
        <ele>343.758</ele>
        <time>2023-09-30T08:28:56.000Z</time>
      </trkpt>
      <trkpt lat="45.78974" lon="4.60526">
        <ele>347.03299</ele>
        <time>2023-09-30T08:28:59.000Z</time>
      </trkpt>
      <trkpt lat="45.78976" lon="4.60526">
        <ele>347.36606</ele>
        <time>2023-09-30T08:29:02.000Z</time>
      </trkpt>
      <trkpt lat="45.78977" lon="4.60524">
        <ele>350.89035</ele>
        <time>2023-09-30T08:29:05.000Z</time>
      </trkpt>
      <trkpt lat="45.78978" lon="4.60521">
        <ele>355.67157</ele>
        <time>2023-09-30T08:29:11.000Z</time>
      </trkpt>
      <trkpt lat="45.78977" lon="4.60518">
        <ele>356.49884</ele>
        <time>2023-09-30T08:29:16.000Z</time>
      </trkpt>
      <trkpt lat="45.78976" lon="4.60516">
        <ele>360.18344</ele>
        <time>2023-09-30T08:29:19.000Z</time>
      </trkpt>
      <trkpt lat="45.78975" lon="4.60513">
        <ele>365.28598</ele>
        <time>2023-09-30T08:29:26.000Z</time>
      </trkpt>
      <trkpt lat="45.78976" lon="4.6051">
        <ele>366.6196</ele>
        <time>2023-09-30T08:29:29.000Z</time>
      </trkpt>
      <trkpt lat="45.78976" lon="4.60507">
        <ele>369.73163</ele>
        <time>2023-09-30T08:29:33.000Z</time>
      </trkpt>
      <trkpt lat="45.78976" lon="4.60504">
        <ele>374.40787</ele>
        <time>2023-09-30T08:29:40.000Z</time>
      </trkpt>
      <trkpt lat="45.78976" lon="4.60501">
        <ele>377.34521</ele>
        <time>2023-09-30T08:29:58.000Z</time>
      </trkpt>
      <trkpt lat="45.78976" lon="4.60497">
        <ele>380.31677</ele>
        <time>2023-09-30T08:30:01.000Z</time>
      </trkpt>
      <trkpt lat="45.78976" lon="4.60494">
        <ele>383.30304</ele>
        <time>2023-09-30T08:30:03.000Z</time>
      </trkpt>
      <trkpt lat="45.78976" lon="4.60489">
        <ele>386.29498</ele>
        <time>2023-09-30T08:30:05.000Z</time>
      </trkpt>
      <trkpt lat="45.78977" lon="4.60486">
        <ele>386.40802</ele>
        <time>2023-09-30T08:30:14.000Z</time>
      </trkpt>
      <trkpt lat="45.78977" lon="4.60484">
        <ele>386.35873</ele>
        <time>2023-09-30T08:30:22.000Z</time>
      </trkpt>
      <trkpt lat="45.78979" lon="4.60484">
        <ele>386.63684</ele>
        <time>2023-09-30T08:31:44.000Z</time>
      </trkpt>
      <trkpt lat="45.7898" lon="4.60487">
        <ele>383.18219</ele>
        <time>2023-09-30T08:31:50.000Z</time>
      </trkpt>
      <trkpt lat="45.78979" lon="4.6049">
        <ele>383.19769</ele>
        <time>2023-09-30T08:32:00.000Z</time>
      </trkpt>
      <trkpt lat="45.7898" lon="4.60493">
        <ele>383.29071</ele>
        <time>2023-09-30T08:32:06.000Z</time>
      </trkpt>
      <trkpt lat="45.78979" lon="4.60496">
        <ele>380.21173</ele>
        <time>2023-09-30T08:32:13.000Z</time>
      </trkpt>
      <trkpt lat="45.78979" lon="4.60499">
        <ele>381.87067</ele>
        <time>2023-09-30T08:32:16.000Z</time>
      </trkpt>
      <trkpt lat="45.78979" lon="4.60502">
        <ele>380.47406</ele>
        <time>2023-09-30T08:32:18.000Z</time>
      </trkpt>
      <trkpt lat="45.78979" lon="4.60506">
        <ele>375.66852</ele>
        <time>2023-09-30T08:32:20.000Z</time>
      </trkpt>
      <trkpt lat="45.78979" lon="4.60509">
        <ele>376.6684</ele>
        <time>2023-09-30T08:32:22.000Z</time>
      </trkpt>
      <trkpt lat="45.78979" lon="4.60512">
        <ele>373.06213</ele>
        <time>2023-09-30T08:32:35.000Z</time>
      </trkpt>
      <trkpt lat="45.78979" lon="4.60514">
        <ele>369.82993</ele>
        <time>2023-09-30T08:32:37.000Z</time>
      </trkpt>
      <trkpt lat="45.7898" lon="4.60517">
        <ele>370.05713</ele>
        <time>2023-09-30T08:32:39.000Z</time>
      </trkpt>
      <trkpt lat="45.78982" lon="4.6052">
        <ele>371.70688</ele>
        <time>2023-09-30T08:32:41.000Z</time>
      </trkpt>
      <trkpt lat="45.78984" lon="4.60522">
        <ele>368.71246</ele>
        <time>2023-09-30T08:32:46.000Z</time>
      </trkpt>
      <trkpt lat="45.78984" lon="4.60526">
        <ele>369.2211</ele>
        <time>2023-09-30T08:32:52.000Z</time>
      </trkpt>
      <trkpt lat="45.78986" lon="4.60527">
        <ele>367.59637</ele>
        <time>2023-09-30T08:32:56.000Z</time>
      </trkpt>
      <trkpt lat="45.78988" lon="4.60531">
        <ele>368.00204</ele>
        <time>2023-09-30T08:33:04.000Z</time>
      </trkpt>
      <trkpt lat="45.7899" lon="4.60534">
        <ele>366.2854</ele>
        <time>2023-09-30T08:33:06.000Z</time>
      </trkpt>
      <trkpt lat="45.78992" lon="4.60536">
        <ele>367.37482</ele>
        <time>2023-09-30T08:33:07.000Z</time>
      </trkpt>
      <trkpt lat="45.78994" lon="4.60538">
        <ele>368.62912</ele>
        <time>2023-09-30T08:33:08.000Z</time>
      </trkpt>
      <trkpt lat="45.78996" lon="4.6054">
        <ele>369.85065</ele>
        <time>2023-09-30T08:33:09.000Z</time>
      </trkpt>
      <trkpt lat="45.78998" lon="4.60541">
        <ele>373.74905</ele>
        <time>2023-09-30T08:33:10.000Z</time>
      </trkpt>
      <trkpt lat="45.79" lon="4.60543">
        <ele>375.27899</ele>
        <time>2023-09-30T08:33:11.000Z</time>
      </trkpt>
      <trkpt lat="45.79002" lon="4.60545">
        <ele>377.88165</ele>
        <time>2023-09-30T08:33:12.000Z</time>
      </trkpt>
      <trkpt lat="45.79004" lon="4.60548">
        <ele>380.75641</ele>
        <time>2023-09-30T08:33:13.000Z</time>
      </trkpt>
      <trkpt lat="45.79006" lon="4.60549">
        <ele>381.74521</ele>
        <time>2023-09-30T08:33:14.000Z</time>
      </trkpt>
      <trkpt lat="45.79008" lon="4.6055">
        <ele>382.67438</ele>
        <time>2023-09-30T08:33:15.000Z</time>
      </trkpt>
      <trkpt lat="45.7901" lon="4.60552">
        <ele>385.79086</ele>
        <time>2023-09-30T08:33:16.000Z</time>
      </trkpt>
      <trkpt lat="45.79013" lon="4.60553">
        <ele>387.06219</ele>
        <time>2023-09-30T08:33:17.000Z</time>
      </trkpt>
      <trkpt lat="45.79015" lon="4.60553">
        <ele>387.97086</ele>
        <time>2023-09-30T08:33:18.000Z</time>
      </trkpt>
      <trkpt lat="45.79017" lon="4.60554">
        <ele>387.26154</ele>
        <time>2023-09-30T08:33:19.000Z</time>
      </trkpt>
      <trkpt lat="45.7902" lon="4.60555">
        <ele>388.8403</ele>
        <time>2023-09-30T08:33:21.000Z</time>
      </trkpt>
      <trkpt lat="45.79023" lon="4.60556">
        <ele>387.27469</ele>
        <time>2023-09-30T08:33:22.000Z</time>
      </trkpt>
      <trkpt lat="45.79025" lon="4.60559">
        <ele>388.78827</ele>
        <time>2023-09-30T08:33:23.000Z</time>
      </trkpt>
      <trkpt lat="45.79027" lon="4.6056">
        <ele>388.48776</ele>
        <time>2023-09-30T08:33:24.000Z</time>
      </trkpt>
      <trkpt lat="45.79029" lon="4.60563">
        <ele>390.13635</ele>
        <time>2023-09-30T08:33:25.000Z</time>
      </trkpt>
      <trkpt lat="45.7903" lon="4.60566">
        <ele>389.78909</ele>
        <time>2023-09-30T08:33:26.000Z</time>
      </trkpt>
      <trkpt lat="45.79032" lon="4.60569">
        <ele>391.49683</ele>
        <time>2023-09-30T08:33:27.000Z</time>
      </trkpt>
      <trkpt lat="45.79033" lon="4.60571">
        <ele>393.935</ele>
        <time>2023-09-30T08:33:28.000Z</time>
      </trkpt>
      <trkpt lat="45.79036" lon="4.60573">
        <ele>396.64539</ele>
        <time>2023-09-30T08:33:29.000Z</time>
      </trkpt>
      <trkpt lat="45.79038" lon="4.60573">
        <ele>399.43442</ele>
        <time>2023-09-30T08:33:30.000Z</time>
      </trkpt>
      <trkpt lat="45.7904" lon="4.60574">
        <ele>398.25436</ele>
        <time>2023-09-30T08:33:31.000Z</time>
      </trkpt>
      <trkpt lat="45.79043" lon="4.60574">
        <ele>399.75058</ele>
        <time>2023-09-30T08:33:32.000Z</time>
      </trkpt>
      <trkpt lat="45.79045" lon="4.60575">
        <ele>400.06412</ele>
        <time>2023-09-30T08:33:33.000Z</time>
      </trkpt>
      <trkpt lat="45.79048" lon="4.60575">
        <ele>400.21671</ele>
        <time>2023-09-30T08:33:34.000Z</time>
      </trkpt>
      <trkpt lat="45.7905" lon="4.60576">
        <ele>400.38763</ele>
        <time>2023-09-30T08:33:35.000Z</time>
      </trkpt>
      <trkpt lat="45.79052" lon="4.60577">
        <ele>400.67911</ele>
        <time>2023-09-30T08:33:37.000Z</time>
      </trkpt>
      <trkpt lat="45.79055" lon="4.60579">
        <ele>401.64624</ele>
        <time>2023-09-30T08:33:39.000Z</time>
      </trkpt>
      <trkpt lat="45.79057" lon="4.60582">
        <ele>402.54694</ele>
        <time>2023-09-30T08:33:41.000Z</time>
      </trkpt>
      <trkpt lat="45.79059" lon="4.60585">
        <ele>405.80243</ele>
        <time>2023-09-30T08:33:43.000Z</time>
      </trkpt>
      <trkpt lat="45.79062" lon="4.60588">
        <ele>409.07394</ele>
        <time>2023-09-30T08:33:45.000Z</time>
      </trkpt>
      <trkpt lat="45.79065" lon="4.6059">
        <ele>409.98383</ele>
        <time>2023-09-30T08:33:47.000Z</time>
      </trkpt>
      <trkpt lat="45.79064" lon="4.60592">
        <ele>411.16779</ele>
        <time>2023-09-30T08:33:58.000Z</time>
      </trkpt>
      <trkpt lat="45.79066" lon="4.60595">
        <ele>412.11224</ele>
        <time>2023-09-30T08:34:04.000Z</time>
      </trkpt>
      <trkpt lat="45.79067" lon="4.60595">
        <ele>412.78583</ele>
        <time>2023-09-30T08:34:06.000Z</time>
      </trkpt>
      <trkpt lat="45.7907" lon="4.60598">
        <ele>413.41913</ele>
        <time>2023-09-30T08:34:08.000Z</time>
      </trkpt>
      <trkpt lat="45.79072" lon="4.60601">
        <ele>413.93378</ele>
        <time>2023-09-30T08:34:10.000Z</time>
      </trkpt>
      <trkpt lat="45.79073" lon="4.60603">
        <ele>414.50293</ele>
        <time>2023-09-30T08:34:11.000Z</time>
      </trkpt>
      <trkpt lat="45.79074" lon="4.60606">
        <ele>414.48795</ele>
        <time>2023-09-30T08:34:12.000Z</time>
      </trkpt>
      <trkpt lat="45.79075" lon="4.60609">
        <ele>414.48682</ele>
        <time>2023-09-30T08:34:14.000Z</time>
      </trkpt>
      <trkpt lat="45.79077" lon="4.6061">
        <ele>416.16925</ele>
        <time>2023-09-30T08:34:20.000Z</time>
      </trkpt>
      <trkpt lat="45.79079" lon="4.60611">
        <ele>417.73163</ele>
        <time>2023-09-30T08:34:24.000Z</time>
      </trkpt>
      <trkpt lat="45.79081" lon="4.60614">
        <ele>418.56372</ele>
        <time>2023-09-30T08:34:26.000Z</time>
      </trkpt>
      <trkpt lat="45.79083" lon="4.60616">
        <ele>419.28387</ele>
        <time>2023-09-30T08:34:28.000Z</time>
      </trkpt>
      <trkpt lat="45.79085" lon="4.60618">
        <ele>420.28891</ele>
        <time>2023-09-30T08:34:29.000Z</time>
      </trkpt>
      <trkpt lat="45.79088" lon="4.6062">
        <ele>421.67743</ele>
        <time>2023-09-30T08:34:31.000Z</time>
      </trkpt>
      <trkpt lat="45.79091" lon="4.60621">
        <ele>422.84219</ele>
        <time>2023-09-30T08:34:33.000Z</time>
      </trkpt>
      <trkpt lat="45.79093" lon="4.60621">
        <ele>424.13043</ele>
        <time>2023-09-30T08:34:34.000Z</time>
      </trkpt>
      <trkpt lat="45.79095" lon="4.60622">
        <ele>425.38266</ele>
        <time>2023-09-30T08:34:35.000Z</time>
      </trkpt>
      <trkpt lat="45.79097" lon="4.60622">
        <ele>425.46036</ele>
        <time>2023-09-30T08:34:36.000Z</time>
      </trkpt>
      <trkpt lat="45.79099" lon="4.60623">
        <ele>425.51807</ele>
        <time>2023-09-30T08:34:37.000Z</time>
      </trkpt>
      <trkpt lat="45.79102" lon="4.60624">
        <ele>426.39679</ele>
        <time>2023-09-30T08:34:39.000Z</time>
      </trkpt>
      <trkpt lat="45.79104" lon="4.60626">
        <ele>427.0668</ele>
        <time>2023-09-30T08:34:40.000Z</time>
      </trkpt>
      <trkpt lat="45.79107" lon="4.60629">
        <ele>427.81348</ele>
        <time>2023-09-30T08:34:42.000Z</time>
      </trkpt>
      <trkpt lat="45.79109" lon="4.60631">
        <ele>428.59799</ele>
        <time>2023-09-30T08:34:44.000Z</time>
      </trkpt>
      <trkpt lat="45.7911" lon="4.60633">
        <ele>429.49457</ele>
        <time>2023-09-30T08:34:46.000Z</time>
      </trkpt>
      <trkpt lat="45.79112" lon="4.60635">
        <ele>430.43668</ele>
        <time>2023-09-30T08:34:51.000Z</time>
      </trkpt>
      <trkpt lat="45.79114" lon="4.60637">
        <ele>430.73285</ele>
        <time>2023-09-30T08:34:59.000Z</time>
      </trkpt>
      <trkpt lat="45.79116" lon="4.60639">
        <ele>431.00797</ele>
        <time>2023-09-30T08:35:01.000Z</time>
      </trkpt>
      <trkpt lat="45.79117" lon="4.6064">
        <ele>430.92731</ele>
        <time>2023-09-30T08:35:03.000Z</time>
      </trkpt>
      <trkpt lat="45.79119" lon="4.60641">
        <ele>429.56641</ele>
        <time>2023-09-30T08:35:05.000Z</time>
      </trkpt>
      <trkpt lat="45.79121" lon="4.60643">
        <ele>429.60043</ele>
        <time>2023-09-30T08:35:07.000Z</time>
      </trkpt>
      <trkpt lat="45.79123" lon="4.60645">
        <ele>429.46396</ele>
        <time>2023-09-30T08:35:10.000Z</time>
      </trkpt>
      <trkpt lat="45.79125" lon="4.60647">
        <ele>429.65024</ele>
        <time>2023-09-30T08:35:12.000Z</time>
      </trkpt>
      <trkpt lat="45.79127" lon="4.60648">
        <ele>429.55951</ele>
        <time>2023-09-30T08:35:14.000Z</time>
      </trkpt>
      <trkpt lat="45.79129" lon="4.60649">
        <ele>429.62076</ele>
        <time>2023-09-30T08:35:16.000Z</time>
      </trkpt>
      <trkpt lat="45.79131" lon="4.6065">
        <ele>430.22357</ele>
        <time>2023-09-30T08:35:18.000Z</time>
      </trkpt>
      <trkpt lat="45.79133" lon="4.60652">
        <ele>429.09039</ele>
        <time>2023-09-30T08:36:00.000Z</time>
      </trkpt>
      <trkpt lat="45.79135" lon="4.60652">
        <ele>428.03256</ele>
        <time>2023-09-30T08:36:01.000Z</time>
      </trkpt>
      <trkpt lat="45.79137" lon="4.60652">
        <ele>427.94525</ele>
        <time>2023-09-30T08:36:02.000Z</time>
      </trkpt>
      <trkpt lat="45.79139" lon="4.60652">
        <ele>427.79932</ele>
        <time>2023-09-30T08:36:03.000Z</time>
      </trkpt>
      <trkpt lat="45.79142" lon="4.60652">
        <ele>427.18726</ele>
        <time>2023-09-30T08:36:04.000Z</time>
      </trkpt>
      <trkpt lat="45.79144" lon="4.60651">
        <ele>426.50629</ele>
        <time>2023-09-30T08:36:05.000Z</time>
      </trkpt>
      <trkpt lat="45.79147" lon="4.6065">
        <ele>425.98129</ele>
        <time>2023-09-30T08:36:06.000Z</time>
      </trkpt>
      <trkpt lat="45.79149" lon="4.60649">
        <ele>425.60919</ele>
        <time>2023-09-30T08:36:07.000Z</time>
      </trkpt>
      <trkpt lat="45.79152" lon="4.60648">
        <ele>425.28369</ele>
        <time>2023-09-30T08:36:08.000Z</time>
      </trkpt>
      <trkpt lat="45.79155" lon="4.60648">
        <ele>425.47943</ele>
        <time>2023-09-30T08:36:09.000Z</time>
      </trkpt>
      <trkpt lat="45.79157" lon="4.60647">
        <ele>426.52994</ele>
        <time>2023-09-30T08:36:10.000Z</time>
      </trkpt>
      <trkpt lat="45.79161" lon="4.60647">
        <ele>427.56607</ele>
        <time>2023-09-30T08:36:11.000Z</time>
      </trkpt>
      <trkpt lat="45.79164" lon="4.60647">
        <ele>428.77032</ele>
        <time>2023-09-30T08:36:12.000Z</time>
      </trkpt>
      <trkpt lat="45.79166" lon="4.60647">
        <ele>428.37997</ele>
        <time>2023-09-30T08:36:13.000Z</time>
      </trkpt>
      <trkpt lat="45.79168" lon="4.60645">
        <ele>428.28214</ele>
        <time>2023-09-30T08:36:14.000Z</time>
      </trkpt>
      <trkpt lat="45.7917" lon="4.60644">
        <ele>428.84628</ele>
        <time>2023-09-30T08:36:15.000Z</time>
      </trkpt>
      <trkpt lat="45.79171" lon="4.60642">
        <ele>429.14825</ele>
        <time>2023-09-30T08:36:17.000Z</time>
      </trkpt>
      <trkpt lat="45.7917" lon="4.6064">
        <ele>429.48755</ele>
        <time>2023-09-30T08:36:26.000Z</time>
      </trkpt>
      <trkpt lat="45.7917" lon="4.60636">
        <ele>429.22235</ele>
        <time>2023-09-30T08:36:37.000Z</time>
      </trkpt>
      <trkpt lat="45.7917" lon="4.60633">
        <ele>428.50717</ele>
        <time>2023-09-30T08:36:38.000Z</time>
      </trkpt>
      <trkpt lat="45.79169" lon="4.60629">
        <ele>428.70172</ele>
        <time>2023-09-30T08:36:39.000Z</time>
      </trkpt>
      <trkpt lat="45.79168" lon="4.60625">
        <ele>428.96548</ele>
        <time>2023-09-30T08:36:40.000Z</time>
      </trkpt>
      <trkpt lat="45.79166" lon="4.6062">
        <ele>429.12518</ele>
        <time>2023-09-30T08:36:41.000Z</time>
      </trkpt>
      <trkpt lat="45.79164" lon="4.60616">
        <ele>429.34741</ele>
        <time>2023-09-30T08:36:42.000Z</time>
      </trkpt>
      <trkpt lat="45.79161" lon="4.60612">
        <ele>430.17105</ele>
        <time>2023-09-30T08:36:43.000Z</time>
      </trkpt>
      <trkpt lat="45.79159" lon="4.60608">
        <ele>431.02499</ele>
        <time>2023-09-30T08:36:44.000Z</time>
      </trkpt>
      <trkpt lat="45.79156" lon="4.60605">
        <ele>432.0018</ele>
        <time>2023-09-30T08:36:45.000Z</time>
      </trkpt>
      <trkpt lat="45.79154" lon="4.60601">
        <ele>431.88174</ele>
        <time>2023-09-30T08:36:46.000Z</time>
      </trkpt>
      <trkpt lat="45.79151" lon="4.60597">
        <ele>431.86212</ele>
        <time>2023-09-30T08:36:47.000Z</time>
      </trkpt>
      <trkpt lat="45.79149" lon="4.60593">
        <ele>431.41202</ele>
        <time>2023-09-30T08:36:48.000Z</time>
      </trkpt>
      <trkpt lat="45.79146" lon="4.60589">
        <ele>430.66138</ele>
        <time>2023-09-30T08:36:49.000Z</time>
      </trkpt>
      <trkpt lat="45.79143" lon="4.60585">
        <ele>429.80167</ele>
        <time>2023-09-30T08:36:50.000Z</time>
      </trkpt>
      <trkpt lat="45.7914" lon="4.6058">
        <ele>428.81256</ele>
        <time>2023-09-30T08:36:51.000Z</time>
      </trkpt>
      <trkpt lat="45.79136" lon="4.60576">
        <ele>428.82187</ele>
        <time>2023-09-30T08:36:52.000Z</time>
      </trkpt>
      <trkpt lat="45.79132" lon="4.6057">
        <ele>428.51581</ele>
        <time>2023-09-30T08:36:53.000Z</time>
      </trkpt>
      <trkpt lat="45.79127" lon="4.60566">
        <ele>428.18228</ele>
        <time>2023-09-30T08:36:54.000Z</time>
      </trkpt>
      <trkpt lat="45.79123" lon="4.60564">
        <ele>427.9256</ele>
        <time>2023-09-30T08:36:55.000Z</time>
      </trkpt>
      <trkpt lat="45.79119" lon="4.60559">
        <ele>427.63242</ele>
        <time>2023-09-30T08:36:56.000Z</time>
      </trkpt>
      <trkpt lat="45.79114" lon="4.60556">
        <ele>427.32062</ele>
        <time>2023-09-30T08:36:57.000Z</time>
      </trkpt>
      <trkpt lat="45.7911" lon="4.60553">
        <ele>427.03149</ele>
        <time>2023-09-30T08:36:58.000Z</time>
      </trkpt>
      <trkpt lat="45.79104" lon="4.6055">
        <ele>426.67569</ele>
        <time>2023-09-30T08:36:59.000Z</time>
      </trkpt>
      <trkpt lat="45.79101" lon="4.60546">
        <ele>426.30875</ele>
        <time>2023-09-30T08:37:00.000Z</time>
      </trkpt>
      <trkpt lat="45.79097" lon="4.60542">
        <ele>425.9938</ele>
        <time>2023-09-30T08:37:01.000Z</time>
      </trkpt>
      <trkpt lat="45.79093" lon="4.60538">
        <ele>425.66953</ele>
        <time>2023-09-30T08:37:02.000Z</time>
      </trkpt>
      <trkpt lat="45.79089" lon="4.60535">
        <ele>424.55142</ele>
        <time>2023-09-30T08:37:03.000Z</time>
      </trkpt>
      <trkpt lat="45.79085" lon="4.60531">
        <ele>423.43829</ele>
        <time>2023-09-30T08:37:04.000Z</time>
      </trkpt>
      <trkpt lat="45.79081" lon="4.60528">
        <ele>422.12354</ele>
        <time>2023-09-30T08:37:05.000Z</time>
      </trkpt>
      <trkpt lat="45.79077" lon="4.60525">
        <ele>421.93433</ele>
        <time>2023-09-30T08:37:06.000Z</time>
      </trkpt>
      <trkpt lat="45.79073" lon="4.60522">
        <ele>421.53833</ele>
        <time>2023-09-30T08:37:07.000Z</time>
      </trkpt>
      <trkpt lat="45.79068" lon="4.60519">
        <ele>421.10571</ele>
        <time>2023-09-30T08:37:08.000Z</time>
      </trkpt>
      <trkpt lat="45.79064" lon="4.60515">
        <ele>420.69662</ele>
        <time>2023-09-30T08:37:09.000Z</time>
      </trkpt>
      <trkpt lat="45.7906" lon="4.60511">
        <ele>420.4108</ele>
        <time>2023-09-30T08:37:10.000Z</time>
      </trkpt>
      <trkpt lat="45.79056" lon="4.60507">
        <ele>420.06244</ele>
        <time>2023-09-30T08:37:11.000Z</time>
      </trkpt>
      <trkpt lat="45.79053" lon="4.60501">
        <ele>419.75772</ele>
        <time>2023-09-30T08:37:12.000Z</time>
      </trkpt>
      <trkpt lat="45.7905" lon="4.60496">
        <ele>419.6084</ele>
        <time>2023-09-30T08:37:13.000Z</time>
      </trkpt>
      <trkpt lat="45.79047" lon="4.6049">
        <ele>419.479</ele>
        <time>2023-09-30T08:37:14.000Z</time>
      </trkpt>
      <trkpt lat="45.79046" lon="4.60483">
        <ele>419.3287</ele>
        <time>2023-09-30T08:37:15.000Z</time>
      </trkpt>
      <trkpt lat="45.79046" lon="4.60476">
        <ele>419.17221</ele>
        <time>2023-09-30T08:37:16.000Z</time>
      </trkpt>
      <trkpt lat="45.79045" lon="4.60469">
        <ele>419.0878</ele>
        <time>2023-09-30T08:37:17.000Z</time>
      </trkpt>
      <trkpt lat="45.79046" lon="4.60462">
        <ele>416.41806</ele>
        <time>2023-09-30T08:37:18.000Z</time>
      </trkpt>
      <trkpt lat="45.79046" lon="4.60455">
        <ele>416.23233</ele>
        <time>2023-09-30T08:37:19.000Z</time>
      </trkpt>
      <trkpt lat="45.79047" lon="4.60449">
        <ele>415.99722</ele>
        <time>2023-09-30T08:37:20.000Z</time>
      </trkpt>
      <trkpt lat="45.79048" lon="4.60441">
        <ele>415.77045</ele>
        <time>2023-09-30T08:37:21.000Z</time>
      </trkpt>
      <trkpt lat="45.79049" lon="4.60434">
        <ele>415.53394</ele>
        <time>2023-09-30T08:37:22.000Z</time>
      </trkpt>
      <trkpt lat="45.7905" lon="4.60427">
        <ele>415.35834</ele>
        <time>2023-09-30T08:37:23.000Z</time>
      </trkpt>
      <trkpt lat="45.7905" lon="4.60419">
        <ele>412.79486</ele>
        <time>2023-09-30T08:37:24.000Z</time>
      </trkpt>
      <trkpt lat="45.7905" lon="4.60413">
        <ele>412.50739</ele>
        <time>2023-09-30T08:37:25.000Z</time>
      </trkpt>
      <trkpt lat="45.7905" lon="4.60409">
        <ele>412.2265</ele>
        <time>2023-09-30T08:37:26.000Z</time>
      </trkpt>
      <trkpt lat="45.79051" lon="4.60405">
        <ele>411.93945</ele>
        <time>2023-09-30T08:37:27.000Z</time>
      </trkpt>
      <trkpt lat="45.79051" lon="4.60402">
        <ele>411.66495</ele>
        <time>2023-09-30T08:37:28.000Z</time>
      </trkpt>
      <trkpt lat="45.79053" lon="4.60397">
        <ele>409.26807</ele>
        <time>2023-09-30T08:37:30.000Z</time>
      </trkpt>
      <trkpt lat="45.79054" lon="4.60394">
        <ele>408.82834</ele>
        <time>2023-09-30T08:37:31.000Z</time>
      </trkpt>
      <trkpt lat="45.79056" lon="4.60392">
        <ele>408.40564</ele>
        <time>2023-09-30T08:37:32.000Z</time>
      </trkpt>
      <trkpt lat="45.79058" lon="4.6039">
        <ele>407.96967</ele>
        <time>2023-09-30T08:37:33.000Z</time>
      </trkpt>
      <trkpt lat="45.79059" lon="4.60386">
        <ele>405.93741</ele>
        <time>2023-09-30T08:37:35.000Z</time>
      </trkpt>
      <trkpt lat="45.79058" lon="4.60384">
        <ele>402.94754</ele>
        <time>2023-09-30T08:38:09.000Z</time>
      </trkpt>
      <trkpt lat="45.79056" lon="4.60385">
        <ele>402.12097</ele>
        <time>2023-09-30T08:38:11.000Z</time>
      </trkpt>
      <trkpt lat="45.79054" lon="4.60388">
        <ele>401.26059</ele>
        <time>2023-09-30T08:38:12.000Z</time>
      </trkpt>
      <trkpt lat="45.79053" lon="4.60392">
        <ele>400.36502</ele>
        <time>2023-09-30T08:38:13.000Z</time>
      </trkpt>
      <trkpt lat="45.79052" lon="4.60395">
        <ele>401.97552</ele>
        <time>2023-09-30T08:38:14.000Z</time>
      </trkpt>
      <trkpt lat="45.79052" lon="4.60399">
        <ele>399.15857</ele>
        <time>2023-09-30T08:38:15.000Z</time>
      </trkpt>
      <trkpt lat="45.79051" lon="4.60402">
        <ele>398.30487</ele>
        <time>2023-09-30T08:38:16.000Z</time>
      </trkpt>
      <trkpt lat="45.79052" lon="4.60406">
        <ele>398.21442</ele>
        <time>2023-09-30T08:38:18.000Z</time>
      </trkpt>
      <trkpt lat="45.79053" lon="4.60409">
        <ele>397.33661</ele>
        <time>2023-09-30T08:38:19.000Z</time>
      </trkpt>
      <trkpt lat="45.79056" lon="4.60408">
        <ele>397.02353</ele>
        <time>2023-09-30T08:38:20.000Z</time>
      </trkpt>
      <trkpt lat="45.79059" lon="4.60405">
        <ele>397.08823</ele>
        <time>2023-09-30T08:38:21.000Z</time>
      </trkpt>
      <trkpt lat="45.79061" lon="4.60401">
        <ele>395.43774</ele>
        <time>2023-09-30T08:38:22.000Z</time>
      </trkpt>
      <trkpt lat="45.79063" lon="4.60396">
        <ele>393.79706</ele>
        <time>2023-09-30T08:38:23.000Z</time>
      </trkpt>
      <trkpt lat="45.79066" lon="4.60392">
        <ele>392.14865</ele>
        <time>2023-09-30T08:38:24.000Z</time>
      </trkpt>
      <trkpt lat="45.79068" lon="4.60389">
        <ele>389.88635</ele>
        <time>2023-09-30T08:38:25.000Z</time>
      </trkpt>
      <trkpt lat="45.7907" lon="4.60386">
        <ele>389.87387</ele>
        <time>2023-09-30T08:38:26.000Z</time>
      </trkpt>
      <trkpt lat="45.79073" lon="4.60383">
        <ele>387.85474</ele>
        <time>2023-09-30T08:38:27.000Z</time>
      </trkpt>
      <trkpt lat="45.79075" lon="4.60381">
        <ele>385.83951</ele>
        <time>2023-09-30T08:38:28.000Z</time>
      </trkpt>
      <trkpt lat="45.79077" lon="4.60379">
        <ele>383.83923</ele>
        <time>2023-09-30T08:38:29.000Z</time>
      </trkpt>
      <trkpt lat="45.79079" lon="4.60377">
        <ele>383.33841</ele>
        <time>2023-09-30T08:38:30.000Z</time>
      </trkpt>
      <trkpt lat="45.79081" lon="4.60375">
        <ele>383.69022</ele>
        <time>2023-09-30T08:38:31.000Z</time>
      </trkpt>
      <trkpt lat="45.79084" lon="4.60373">
        <ele>381.88141</ele>
        <time>2023-09-30T08:38:32.000Z</time>
      </trkpt>
      <trkpt lat="45.79087" lon="4.6037">
        <ele>380.10638</ele>
        <time>2023-09-30T08:38:33.000Z</time>
      </trkpt>
      <trkpt lat="45.79089" lon="4.60368">
        <ele>378.36877</ele>
        <time>2023-09-30T08:38:34.000Z</time>
      </trkpt>
      <trkpt lat="45.79092" lon="4.60365">
        <ele>376.67529</ele>
        <time>2023-09-30T08:38:35.000Z</time>
      </trkpt>
      <trkpt lat="45.79095" lon="4.60362">
        <ele>376.99377</ele>
        <time>2023-09-30T08:38:36.000Z</time>
      </trkpt>
      <trkpt lat="45.79099" lon="4.6036">
        <ele>375.36237</ele>
        <time>2023-09-30T08:38:37.000Z</time>
      </trkpt>
      <trkpt lat="45.79102" lon="4.60357">
        <ele>372.97614</ele>
        <time>2023-09-30T08:38:38.000Z</time>
      </trkpt>
      <trkpt lat="45.79105" lon="4.60353">
        <ele>371.38953</ele>
        <time>2023-09-30T08:38:39.000Z</time>
      </trkpt>
      <trkpt lat="45.79108" lon="4.6035">
        <ele>369.24524</ele>
        <time>2023-09-30T08:38:40.000Z</time>
      </trkpt>
      <trkpt lat="45.79111" lon="4.60346">
        <ele>369.06851</ele>
        <time>2023-09-30T08:38:41.000Z</time>
      </trkpt>
      <trkpt lat="45.79114" lon="4.60342">
        <ele>367.8298</ele>
        <time>2023-09-30T08:38:42.000Z</time>
      </trkpt>
      <trkpt lat="45.79117" lon="4.60339">
        <ele>367.8147</ele>
        <time>2023-09-30T08:38:43.000Z</time>
      </trkpt>
      <trkpt lat="45.79119" lon="4.60335">
        <ele>367.82715</ele>
        <time>2023-09-30T08:38:44.000Z</time>
      </trkpt>
      <trkpt lat="45.79121" lon="4.60331">
        <ele>368.47641</ele>
        <time>2023-09-30T08:38:45.000Z</time>
      </trkpt>
      <trkpt lat="45.79123" lon="4.60326">
        <ele>369.00653</ele>
        <time>2023-09-30T08:38:46.000Z</time>
      </trkpt>
      <trkpt lat="45.79125" lon="4.60322">
        <ele>369.55298</ele>
        <time>2023-09-30T08:38:47.000Z</time>
      </trkpt>
      <trkpt lat="45.79127" lon="4.60317">
        <ele>370.12292</ele>
        <time>2023-09-30T08:38:48.000Z</time>
      </trkpt>
      <trkpt lat="45.79129" lon="4.60313">
        <ele>369.99185</ele>
        <time>2023-09-30T08:38:49.000Z</time>
      </trkpt>
      <trkpt lat="45.79131" lon="4.60309">
        <ele>369.98355</ele>
        <time>2023-09-30T08:38:50.000Z</time>
      </trkpt>
      <trkpt lat="45.79134" lon="4.60305">
        <ele>370.04889</ele>
        <time>2023-09-30T08:38:51.000Z</time>
      </trkpt>
      <trkpt lat="45.79136" lon="4.60301">
        <ele>370.1192</ele>
        <time>2023-09-30T08:38:52.000Z</time>
      </trkpt>
      <trkpt lat="45.79138" lon="4.60298">
        <ele>370.20917</ele>
        <time>2023-09-30T08:38:53.000Z</time>
      </trkpt>
      <trkpt lat="45.79141" lon="4.60294">
        <ele>370.30353</ele>
        <time>2023-09-30T08:38:54.000Z</time>
      </trkpt>
      <trkpt lat="45.79144" lon="4.60291">
        <ele>370.41324</ele>
        <time>2023-09-30T08:38:55.000Z</time>
      </trkpt>
      <trkpt lat="45.79146" lon="4.60288">
        <ele>370.53009</ele>
        <time>2023-09-30T08:38:56.000Z</time>
      </trkpt>
      <trkpt lat="45.79148" lon="4.60284">
        <ele>370.63196</ele>
        <time>2023-09-30T08:38:57.000Z</time>
      </trkpt>
      <trkpt lat="45.79151" lon="4.60279">
        <ele>370.62787</ele>
        <time>2023-09-30T08:38:58.000Z</time>
      </trkpt>
      <trkpt lat="45.79154" lon="4.60273">
        <ele>370.59253</ele>
        <time>2023-09-30T08:38:59.000Z</time>
      </trkpt>
      <trkpt lat="45.79158" lon="4.60267">
        <ele>370.68674</ele>
        <time>2023-09-30T08:39:00.000Z</time>
      </trkpt>
      <trkpt lat="45.79161" lon="4.60261">
        <ele>370.75613</ele>
        <time>2023-09-30T08:39:01.000Z</time>
      </trkpt>
      <trkpt lat="45.79165" lon="4.60255">
        <ele>371.37842</ele>
        <time>2023-09-30T08:39:02.000Z</time>
      </trkpt>
      <trkpt lat="45.79169" lon="4.60249">
        <ele>370.80225</ele>
        <time>2023-09-30T08:39:03.000Z</time>
      </trkpt>
      <trkpt lat="45.79173" lon="4.60244">
        <ele>370.2558</ele>
        <time>2023-09-30T08:39:04.000Z</time>
      </trkpt>
      <trkpt lat="45.79176" lon="4.60237">
        <ele>369.68106</ele>
        <time>2023-09-30T08:39:05.000Z</time>
      </trkpt>
      <trkpt lat="45.79179" lon="4.60232">
        <ele>369.67767</ele>
        <time>2023-09-30T08:39:06.000Z</time>
      </trkpt>
      <trkpt lat="45.79182" lon="4.60226">
        <ele>369.70685</ele>
        <time>2023-09-30T08:39:07.000Z</time>
      </trkpt>
      <trkpt lat="45.79185" lon="4.60222">
        <ele>369.73447</ele>
        <time>2023-09-30T08:39:08.000Z</time>
      </trkpt>
      <trkpt lat="45.79188" lon="4.60216">
        <ele>370.51007</ele>
        <time>2023-09-30T08:39:09.000Z</time>
      </trkpt>
      <trkpt lat="45.79191" lon="4.60212">
        <ele>371.15543</ele>
        <time>2023-09-30T08:39:10.000Z</time>
      </trkpt>
      <trkpt lat="45.79194" lon="4.60207">
        <ele>371.68402</ele>
        <time>2023-09-30T08:39:11.000Z</time>
      </trkpt>
      <trkpt lat="45.79197" lon="4.60203">
        <ele>371.7464</ele>
        <time>2023-09-30T08:39:12.000Z</time>
      </trkpt>
      <trkpt lat="45.79199" lon="4.60199">
        <ele>371.79263</ele>
        <time>2023-09-30T08:39:13.000Z</time>
      </trkpt>
      <trkpt lat="45.79202" lon="4.60196">
        <ele>371.80609</ele>
        <time>2023-09-30T08:39:14.000Z</time>
      </trkpt>
      <trkpt lat="45.79205" lon="4.60193">
        <ele>371.82022</ele>
        <time>2023-09-30T08:39:15.000Z</time>
      </trkpt>
      <trkpt lat="45.79208" lon="4.60189">
        <ele>371.41553</ele>
        <time>2023-09-30T08:39:16.000Z</time>
      </trkpt>
      <trkpt lat="45.79211" lon="4.60185">
        <ele>371.03162</ele>
        <time>2023-09-30T08:39:17.000Z</time>
      </trkpt>
      <trkpt lat="45.79213" lon="4.60182">
        <ele>371.13055</ele>
        <time>2023-09-30T08:39:18.000Z</time>
      </trkpt>
      <trkpt lat="45.79216" lon="4.6018">
        <ele>371.21088</ele>
        <time>2023-09-30T08:39:19.000Z</time>
      </trkpt>
      <trkpt lat="45.7922" lon="4.60177">
        <ele>371.1745</ele>
        <time>2023-09-30T08:39:20.000Z</time>
      </trkpt>
      <trkpt lat="45.79223" lon="4.60173">
        <ele>371.16208</ele>
        <time>2023-09-30T08:39:21.000Z</time>
      </trkpt>
      <trkpt lat="45.79226" lon="4.6017">
        <ele>370.45892</ele>
        <time>2023-09-30T08:39:22.000Z</time>
      </trkpt>
      <trkpt lat="45.79229" lon="4.60167">
        <ele>369.71124</ele>
        <time>2023-09-30T08:39:23.000Z</time>
      </trkpt>
      <trkpt lat="45.79232" lon="4.60163">
        <ele>369.35852</ele>
        <time>2023-09-30T08:39:24.000Z</time>
      </trkpt>
      <trkpt lat="45.79235" lon="4.6016">
        <ele>368.9212</ele>
        <time>2023-09-30T08:39:25.000Z</time>
      </trkpt>
      <trkpt lat="45.79239" lon="4.60156">
        <ele>367.91211</ele>
        <time>2023-09-30T08:39:26.000Z</time>
      </trkpt>
      <trkpt lat="45.79242" lon="4.60153">
        <ele>366.83633</ele>
        <time>2023-09-30T08:39:27.000Z</time>
      </trkpt>
      <trkpt lat="45.79245" lon="4.6015">
        <ele>365.77573</ele>
        <time>2023-09-30T08:39:28.000Z</time>
      </trkpt>
      <trkpt lat="45.79249" lon="4.60147">
        <ele>364.64865</ele>
        <time>2023-09-30T08:39:29.000Z</time>
      </trkpt>
      <trkpt lat="45.79252" lon="4.60143">
        <ele>363.46576</ele>
        <time>2023-09-30T08:39:30.000Z</time>
      </trkpt>
      <trkpt lat="45.79256" lon="4.6014">
        <ele>362.44766</ele>
        <time>2023-09-30T08:39:31.000Z</time>
      </trkpt>
      <trkpt lat="45.7926" lon="4.60136">
        <ele>361.7048</ele>
        <time>2023-09-30T08:39:32.000Z</time>
      </trkpt>
      <trkpt lat="45.79263" lon="4.60133">
        <ele>360.87482</ele>
        <time>2023-09-30T08:39:33.000Z</time>
      </trkpt>
      <trkpt lat="45.79267" lon="4.6013">
        <ele>360.05624</ele>
        <time>2023-09-30T08:39:34.000Z</time>
      </trkpt>
      <trkpt lat="45.7927" lon="4.60126">
        <ele>360.11511</ele>
        <time>2023-09-30T08:39:35.000Z</time>
      </trkpt>
      <trkpt lat="45.79274" lon="4.60123">
        <ele>360.57086</ele>
        <time>2023-09-30T08:39:36.000Z</time>
      </trkpt>
      <trkpt lat="45.79277" lon="4.6012">
        <ele>361.03241</ele>
        <time>2023-09-30T08:39:37.000Z</time>
      </trkpt>
      <trkpt lat="45.79281" lon="4.60117">
        <ele>360.49475</ele>
        <time>2023-09-30T08:39:38.000Z</time>
      </trkpt>
      <trkpt lat="45.79284" lon="4.60114">
        <ele>359.99808</ele>
        <time>2023-09-30T08:39:39.000Z</time>
      </trkpt>
      <trkpt lat="45.79288" lon="4.6011">
        <ele>359.49713</ele>
        <time>2023-09-30T08:39:40.000Z</time>
      </trkpt>
      <trkpt lat="45.79292" lon="4.60108">
        <ele>359.42853</ele>
        <time>2023-09-30T08:39:41.000Z</time>
      </trkpt>
      <trkpt lat="45.79296" lon="4.60105">
        <ele>360.06573</ele>
        <time>2023-09-30T08:39:42.000Z</time>
      </trkpt>
      <trkpt lat="45.793" lon="4.60102">
        <ele>360.73206</ele>
        <time>2023-09-30T08:39:43.000Z</time>
      </trkpt>
      <trkpt lat="45.79305" lon="4.601">
        <ele>360.95416</ele>
        <time>2023-09-30T08:39:44.000Z</time>
      </trkpt>
      <trkpt lat="45.79309" lon="4.60098">
        <ele>361.28766</ele>
        <time>2023-09-30T08:39:45.000Z</time>
      </trkpt>
      <trkpt lat="45.79313" lon="4.60096">
        <ele>361.62738</ele>
        <time>2023-09-30T08:39:46.000Z</time>
      </trkpt>
      <trkpt lat="45.79318" lon="4.60094">
        <ele>361.94937</ele>
        <time>2023-09-30T08:39:47.000Z</time>
      </trkpt>
      <trkpt lat="45.79322" lon="4.60093">
        <ele>361.81723</ele>
        <time>2023-09-30T08:39:48.000Z</time>
      </trkpt>
      <trkpt lat="45.79327" lon="4.60091">
        <ele>361.73404</ele>
        <time>2023-09-30T08:39:49.000Z</time>
      </trkpt>
      <trkpt lat="45.79332" lon="4.6009">
        <ele>361.69</ele>
        <time>2023-09-30T08:39:50.000Z</time>
      </trkpt>
      <trkpt lat="45.79335" lon="4.60088">
        <ele>361.63553</ele>
        <time>2023-09-30T08:39:51.000Z</time>
      </trkpt>
      <trkpt lat="45.79339" lon="4.60087">
        <ele>361.75552</ele>
        <time>2023-09-30T08:39:52.000Z</time>
      </trkpt>
      <trkpt lat="45.79343" lon="4.60086">
        <ele>361.97736</ele>
        <time>2023-09-30T08:39:53.000Z</time>
      </trkpt>
      <trkpt lat="45.79348" lon="4.60084">
        <ele>362.21478</ele>
        <time>2023-09-30T08:39:54.000Z</time>
      </trkpt>
      <trkpt lat="45.79353" lon="4.60083">
        <ele>361.22406</ele>
        <time>2023-09-30T08:39:55.000Z</time>
      </trkpt>
      <trkpt lat="45.79357" lon="4.60081">
        <ele>361.51547</ele>
        <time>2023-09-30T08:39:56.000Z</time>
      </trkpt>
      <trkpt lat="45.79363" lon="4.60081">
        <ele>361.75815</ele>
        <time>2023-09-30T08:39:57.000Z</time>
      </trkpt>
      <trkpt lat="45.79367" lon="4.60079">
        <ele>362.66269</ele>
        <time>2023-09-30T08:39:58.000Z</time>
      </trkpt>
      <trkpt lat="45.79372" lon="4.60078">
        <ele>363.5137</ele>
        <time>2023-09-30T08:39:59.000Z</time>
      </trkpt>
      <trkpt lat="45.79377" lon="4.60077">
        <ele>364.49197</ele>
        <time>2023-09-30T08:40:00.000Z</time>
      </trkpt>
      <trkpt lat="45.79381" lon="4.60076">
        <ele>365.03552</ele>
        <time>2023-09-30T08:40:01.000Z</time>
      </trkpt>
      <trkpt lat="45.79386" lon="4.60075">
        <ele>365.5672</ele>
        <time>2023-09-30T08:40:02.000Z</time>
      </trkpt>
      <trkpt lat="45.7939" lon="4.60076">
        <ele>366.11581</ele>
        <time>2023-09-30T08:40:03.000Z</time>
      </trkpt>
      <trkpt lat="45.79394" lon="4.60075">
        <ele>366.70868</ele>
        <time>2023-09-30T08:40:04.000Z</time>
      </trkpt>
      <trkpt lat="45.79399" lon="4.60074">
        <ele>367.31754</ele>
        <time>2023-09-30T08:40:05.000Z</time>
      </trkpt>
      <trkpt lat="45.79403" lon="4.60073">
        <ele>367.73541</ele>
        <time>2023-09-30T08:40:06.000Z</time>
      </trkpt>
      <trkpt lat="45.79408" lon="4.60073">
        <ele>368.21732</ele>
        <time>2023-09-30T08:40:07.000Z</time>
      </trkpt>
      <trkpt lat="45.79412" lon="4.60072">
        <ele>369.16321</ele>
        <time>2023-09-30T08:40:08.000Z</time>
      </trkpt>
      <trkpt lat="45.79416" lon="4.60072">
        <ele>370.09747</ele>
        <time>2023-09-30T08:40:09.000Z</time>
      </trkpt>
      <trkpt lat="45.7942" lon="4.60072">
        <ele>371.02014</ele>
        <time>2023-09-30T08:40:10.000Z</time>
      </trkpt>
      <trkpt lat="45.79423" lon="4.60071">
        <ele>371.94153</ele>
        <time>2023-09-30T08:40:11.000Z</time>
      </trkpt>
      <trkpt lat="45.79426" lon="4.60069">
        <ele>372.89847</ele>
        <time>2023-09-30T08:40:12.000Z</time>
      </trkpt>
      <trkpt lat="45.79429" lon="4.60066">
        <ele>373.83176</ele>
        <time>2023-09-30T08:40:13.000Z</time>
      </trkpt>
      <trkpt lat="45.79432" lon="4.60061">
        <ele>374.7551</ele>
        <time>2023-09-30T08:40:14.000Z</time>
      </trkpt>
      <trkpt lat="45.79434" lon="4.60054">
        <ele>376.00665</ele>
        <time>2023-09-30T08:40:15.000Z</time>
      </trkpt>
      <trkpt lat="45.79437" lon="4.60046">
        <ele>375.95703</ele>
        <time>2023-09-30T08:40:16.000Z</time>
      </trkpt>
      <trkpt lat="45.79439" lon="4.60037">
        <ele>375.8811</ele>
        <time>2023-09-30T08:40:17.000Z</time>
      </trkpt>
      <trkpt lat="45.7944" lon="4.60027">
        <ele>375.77264</ele>
        <time>2023-09-30T08:40:18.000Z</time>
      </trkpt>
      <trkpt lat="45.7944" lon="4.60017">
        <ele>375.19427</ele>
        <time>2023-09-30T08:40:19.000Z</time>
      </trkpt>
      <trkpt lat="45.7944" lon="4.60005">
        <ele>374.45557</ele>
        <time>2023-09-30T08:40:20.000Z</time>
      </trkpt>
      <trkpt lat="45.79441" lon="4.59994">
        <ele>373.69415</ele>
        <time>2023-09-30T08:40:21.000Z</time>
      </trkpt>
      <trkpt lat="45.79441" lon="4.59981">
        <ele>372.85809</ele>
        <time>2023-09-30T08:40:22.000Z</time>
      </trkpt>
      <trkpt lat="45.79442" lon="4.59967">
        <ele>371.97052</ele>
        <time>2023-09-30T08:40:23.000Z</time>
      </trkpt>
      <trkpt lat="45.79442" lon="4.59954">
        <ele>370.44589</ele>
        <time>2023-09-30T08:40:24.000Z</time>
      </trkpt>
      <trkpt lat="45.79443" lon="4.59938">
        <ele>368.77042</ele>
        <time>2023-09-30T08:40:25.000Z</time>
      </trkpt>
      <trkpt lat="45.79445" lon="4.59925">
        <ele>367.25659</ele>
        <time>2023-09-30T08:40:26.000Z</time>
      </trkpt>
      <trkpt lat="45.79449" lon="4.5991">
        <ele>365.60455</ele>
        <time>2023-09-30T08:40:27.000Z</time>
      </trkpt>
      <trkpt lat="45.79454" lon="4.59895">
        <ele>365.37564</ele>
        <time>2023-09-30T08:40:28.000Z</time>
      </trkpt>
      <trkpt lat="45.79461" lon="4.59882">
        <ele>364.72565</ele>
        <time>2023-09-30T08:40:29.000Z</time>
      </trkpt>
      <trkpt lat="45.79469" lon="4.59869">
        <ele>364.38141</ele>
        <time>2023-09-30T08:40:30.000Z</time>
      </trkpt>
      <trkpt lat="45.79477" lon="4.59857">
        <ele>362.76007</ele>
        <time>2023-09-30T08:40:31.000Z</time>
      </trkpt>
      <trkpt lat="45.79485" lon="4.59844">
        <ele>361.03473</ele>
        <time>2023-09-30T08:40:32.000Z</time>
      </trkpt>
      <trkpt lat="45.79492" lon="4.59831">
        <ele>359.28278</ele>
        <time>2023-09-30T08:40:33.000Z</time>
      </trkpt>
      <trkpt lat="45.79498" lon="4.59818">
        <ele>357.50958</ele>
        <time>2023-09-30T08:40:34.000Z</time>
      </trkpt>
      <trkpt lat="45.79506" lon="4.59806">
        <ele>355.67871</ele>
        <time>2023-09-30T08:40:35.000Z</time>
      </trkpt>
      <trkpt lat="45.79515" lon="4.59795">
        <ele>354.31671</ele>
        <time>2023-09-30T08:40:36.000Z</time>
      </trkpt>
      <trkpt lat="45.79524" lon="4.59785">
        <ele>352.98282</ele>
        <time>2023-09-30T08:40:37.000Z</time>
      </trkpt>
      <trkpt lat="45.79532" lon="4.59776">
        <ele>350.99738</ele>
        <time>2023-09-30T08:40:38.000Z</time>
      </trkpt>
      <trkpt lat="45.79539" lon="4.59768">
        <ele>350.86172</ele>
        <time>2023-09-30T08:40:39.000Z</time>
      </trkpt>
      <trkpt lat="45.79547" lon="4.59761">
        <ele>350.72183</ele>
        <time>2023-09-30T08:40:40.000Z</time>
      </trkpt>
      <trkpt lat="45.79552" lon="4.59755">
        <ele>350.67017</ele>
        <time>2023-09-30T08:40:41.000Z</time>
      </trkpt>
      <trkpt lat="45.79556" lon="4.59749">
        <ele>350.68439</ele>
        <time>2023-09-30T08:40:42.000Z</time>
      </trkpt>
      <trkpt lat="45.79559" lon="4.59745">
        <ele>350.22659</ele>
        <time>2023-09-30T08:40:43.000Z</time>
      </trkpt>
      <trkpt lat="45.79564" lon="4.59741">
        <ele>350.45676</ele>
        <time>2023-09-30T08:40:44.000Z</time>
      </trkpt>
      <trkpt lat="45.79569" lon="4.59738">
        <ele>350.80106</ele>
        <time>2023-09-30T08:40:45.000Z</time>
      </trkpt>
      <trkpt lat="45.79575" lon="4.59733">
        <ele>351.17657</ele>
        <time>2023-09-30T08:40:46.000Z</time>
      </trkpt>
      <trkpt lat="45.7958" lon="4.59727">
        <ele>351.66144</ele>
        <time>2023-09-30T08:40:47.000Z</time>
      </trkpt>
      <trkpt lat="45.79587" lon="4.59723">
        <ele>350.66241</ele>
        <time>2023-09-30T08:40:48.000Z</time>
      </trkpt>
      <trkpt lat="45.79593" lon="4.59719">
        <ele>350.04437</ele>
        <time>2023-09-30T08:40:49.000Z</time>
      </trkpt>
      <trkpt lat="45.79598" lon="4.59713">
        <ele>349.10052</ele>
        <time>2023-09-30T08:40:50.000Z</time>
      </trkpt>
      <trkpt lat="45.79602" lon="4.5971">
        <ele>349.37027</ele>
        <time>2023-09-30T08:40:51.000Z</time>
      </trkpt>
      <trkpt lat="45.79605" lon="4.59707">
        <ele>348.70264</ele>
        <time>2023-09-30T08:40:52.000Z</time>
      </trkpt>
      <trkpt lat="45.79608" lon="4.59705">
        <ele>348.16541</ele>
        <time>2023-09-30T08:40:53.000Z</time>
      </trkpt>
      <trkpt lat="45.7961" lon="4.59702">
        <ele>347.66544</ele>
        <time>2023-09-30T08:40:54.000Z</time>
      </trkpt>
      <trkpt lat="45.79611" lon="4.59698">
        <ele>347.20853</ele>
        <time>2023-09-30T08:40:55.000Z</time>
      </trkpt>
      <trkpt lat="45.79614" lon="4.597">
        <ele>347.58337</ele>
        <time>2023-09-30T08:40:57.000Z</time>
      </trkpt>
      <trkpt lat="45.79613" lon="4.59702">
        <ele>347.65448</ele>
        <time>2023-09-30T08:40:59.000Z</time>
      </trkpt>
      <trkpt lat="45.7961" lon="4.59701">
        <ele>348.40765</ele>
        <time>2023-09-30T08:41:01.000Z</time>
      </trkpt>
      <trkpt lat="45.79608" lon="4.59703">
        <ele>347.862</ele>
        <time>2023-09-30T08:41:02.000Z</time>
      </trkpt>
      <trkpt lat="45.79607" lon="4.59704">
        <ele>347.34518</ele>
        <time>2023-09-30T08:41:03.000Z</time>
      </trkpt>
      <trkpt lat="45.79604" lon="4.59706">
        <ele>347.18216</ele>
        <time>2023-09-30T08:41:04.000Z</time>
      </trkpt>
      <trkpt lat="45.79601" lon="4.59708">
        <ele>346.13464</ele>
        <time>2023-09-30T08:41:05.000Z</time>
      </trkpt>
      <trkpt lat="45.79598" lon="4.5971">
        <ele>345.60321</ele>
        <time>2023-09-30T08:41:06.000Z</time>
      </trkpt>
      <trkpt lat="45.79596" lon="4.59712">
        <ele>344.99979</ele>
        <time>2023-09-30T08:41:07.000Z</time>
      </trkpt>
      <trkpt lat="45.79593" lon="4.59714">
        <ele>344.42426</ele>
        <time>2023-09-30T08:41:08.000Z</time>
      </trkpt>
      <trkpt lat="45.79591" lon="4.59716">
        <ele>343.97955</ele>
        <time>2023-09-30T08:41:09.000Z</time>
      </trkpt>
      <trkpt lat="45.79588" lon="4.5972">
        <ele>343.57254</ele>
        <time>2023-09-30T08:41:10.000Z</time>
      </trkpt>
      <trkpt lat="45.79585" lon="4.59723">
        <ele>343.20148</ele>
        <time>2023-09-30T08:41:11.000Z</time>
      </trkpt>
      <trkpt lat="45.79582" lon="4.59726">
        <ele>342.89429</ele>
        <time>2023-09-30T08:41:12.000Z</time>
      </trkpt>
      <trkpt lat="45.79579" lon="4.59729">
        <ele>342.35867</ele>
        <time>2023-09-30T08:41:13.000Z</time>
      </trkpt>
      <trkpt lat="45.79576" lon="4.59732">
        <ele>342.41898</ele>
        <time>2023-09-30T08:41:14.000Z</time>
      </trkpt>
      <trkpt lat="45.79573" lon="4.59735">
        <ele>343.11124</ele>
        <time>2023-09-30T08:41:15.000Z</time>
      </trkpt>
      <trkpt lat="45.79569" lon="4.59737">
        <ele>343.64508</ele>
        <time>2023-09-30T08:41:16.000Z</time>
      </trkpt>
      <trkpt lat="45.79566" lon="4.59739">
        <ele>344.2298</ele>
        <time>2023-09-30T08:41:17.000Z</time>
      </trkpt>
      <trkpt lat="45.79563" lon="4.5974">
        <ele>344.87265</ele>
        <time>2023-09-30T08:41:18.000Z</time>
      </trkpt>
      <trkpt lat="45.7956" lon="4.59743">
        <ele>344.24432</ele>
        <time>2023-09-30T08:41:19.000Z</time>
      </trkpt>
      <trkpt lat="45.79557" lon="4.59747">
        <ele>344.03482</ele>
        <time>2023-09-30T08:41:20.000Z</time>
      </trkpt>
      <trkpt lat="45.79559" lon="4.59754">
        <ele>343.86346</ele>
        <time>2023-09-30T08:41:21.000Z</time>
      </trkpt>
      <trkpt lat="45.79561" lon="4.59758">
        <ele>343.74652</ele>
        <time>2023-09-30T08:41:22.000Z</time>
      </trkpt>
      <trkpt lat="45.79563" lon="4.59763">
        <ele>343.66293</ele>
        <time>2023-09-30T08:41:23.000Z</time>
      </trkpt>
      <trkpt lat="45.79566" lon="4.59768">
        <ele>342.97113</ele>
        <time>2023-09-30T08:41:24.000Z</time>
      </trkpt>
      <trkpt lat="45.79567" lon="4.59772">
        <ele>343.1991</ele>
        <time>2023-09-30T08:41:25.000Z</time>
      </trkpt>
      <trkpt lat="45.7957" lon="4.59778">
        <ele>343.41827</ele>
        <time>2023-09-30T08:41:26.000Z</time>
      </trkpt>
      <trkpt lat="45.79573" lon="4.59783">
        <ele>343.64014</ele>
        <time>2023-09-30T08:41:27.000Z</time>
      </trkpt>
      <trkpt lat="45.79575" lon="4.59788">
        <ele>343.88062</ele>
        <time>2023-09-30T08:41:28.000Z</time>
      </trkpt>
      <trkpt lat="45.79578" lon="4.59792">
        <ele>344.0098</ele>
        <time>2023-09-30T08:41:29.000Z</time>
      </trkpt>
      <trkpt lat="45.7958" lon="4.59798">
        <ele>344.13824</ele>
        <time>2023-09-30T08:41:30.000Z</time>
      </trkpt>
      <trkpt lat="45.79582" lon="4.59803">
        <ele>345.04654</ele>
        <time>2023-09-30T08:41:31.000Z</time>
      </trkpt>
      <trkpt lat="45.79585" lon="4.59807">
        <ele>345.9599</ele>
        <time>2023-09-30T08:41:32.000Z</time>
      </trkpt>
      <trkpt lat="45.79587" lon="4.59812">
        <ele>346.40561</ele>
        <time>2023-09-30T08:41:33.000Z</time>
      </trkpt>
      <trkpt lat="45.7959" lon="4.59816">
        <ele>346.19788</ele>
        <time>2023-09-30T08:41:34.000Z</time>
      </trkpt>
      <trkpt lat="45.79592" lon="4.5982">
        <ele>346.39645</ele>
        <time>2023-09-30T08:41:35.000Z</time>
      </trkpt>
      <trkpt lat="45.79594" lon="4.59825">
        <ele>346.67526</ele>
        <time>2023-09-30T08:41:36.000Z</time>
      </trkpt>
      <trkpt lat="45.79597" lon="4.5983">
        <ele>346.89899</ele>
        <time>2023-09-30T08:41:37.000Z</time>
      </trkpt>
      <trkpt lat="45.796" lon="4.59834">
        <ele>347.09296</ele>
        <time>2023-09-30T08:41:38.000Z</time>
      </trkpt>
      <trkpt lat="45.79603" lon="4.59839">
        <ele>347.30911</ele>
        <time>2023-09-30T08:41:39.000Z</time>
      </trkpt>
      <trkpt lat="45.79605" lon="4.59843">
        <ele>347.48544</ele>
        <time>2023-09-30T08:41:40.000Z</time>
      </trkpt>
      <trkpt lat="45.79608" lon="4.59848">
        <ele>347.59894</ele>
        <time>2023-09-30T08:41:41.000Z</time>
      </trkpt>
      <trkpt lat="45.7961" lon="4.59853">
        <ele>347.62909</ele>
        <time>2023-09-30T08:41:42.000Z</time>
      </trkpt>
      <trkpt lat="45.79612" lon="4.59858">
        <ele>347.59317</ele>
        <time>2023-09-30T08:41:43.000Z</time>
      </trkpt>
      <trkpt lat="45.79615" lon="4.59863">
        <ele>347.64575</ele>
        <time>2023-09-30T08:41:44.000Z</time>
      </trkpt>
      <trkpt lat="45.79617" lon="4.59868">
        <ele>347.66504</ele>
        <time>2023-09-30T08:41:45.000Z</time>
      </trkpt>
      <trkpt lat="45.7962" lon="4.59872">
        <ele>347.69891</ele>
        <time>2023-09-30T08:41:46.000Z</time>
      </trkpt>
      <trkpt lat="45.79623" lon="4.59877">
        <ele>348.33228</ele>
        <time>2023-09-30T08:41:47.000Z</time>
      </trkpt>
      <trkpt lat="45.79625" lon="4.59883">
        <ele>348.46671</ele>
        <time>2023-09-30T08:41:48.000Z</time>
      </trkpt>
      <trkpt lat="45.79628" lon="4.59887">
        <ele>348.55652</ele>
        <time>2023-09-30T08:41:49.000Z</time>
      </trkpt>
      <trkpt lat="45.7963" lon="4.59891">
        <ele>348.58508</ele>
        <time>2023-09-30T08:41:50.000Z</time>
      </trkpt>
      <trkpt lat="45.79632" lon="4.59896">
        <ele>347.84097</ele>
        <time>2023-09-30T08:41:51.000Z</time>
      </trkpt>
      <trkpt lat="45.79635" lon="4.59902">
        <ele>347.02808</ele>
        <time>2023-09-30T08:41:52.000Z</time>
      </trkpt>
      <trkpt lat="45.79638" lon="4.59909">
        <ele>346.92294</ele>
        <time>2023-09-30T08:41:53.000Z</time>
      </trkpt>
      <trkpt lat="45.79641" lon="4.59914">
        <ele>347.1225</ele>
        <time>2023-09-30T08:41:54.000Z</time>
      </trkpt>
      <trkpt lat="45.79643" lon="4.5992">
        <ele>347.16031</ele>
        <time>2023-09-30T08:41:55.000Z</time>
      </trkpt>
      <trkpt lat="45.79645" lon="4.59925">
        <ele>347.28381</ele>
        <time>2023-09-30T08:41:56.000Z</time>
      </trkpt>
      <trkpt lat="45.79647" lon="4.5993">
        <ele>347.23785</ele>
        <time>2023-09-30T08:41:57.000Z</time>
      </trkpt>
      <trkpt lat="45.79648" lon="4.59935">
        <ele>347.16711</ele>
        <time>2023-09-30T08:41:58.000Z</time>
      </trkpt>
      <trkpt lat="45.7965" lon="4.5994">
        <ele>347.10126</ele>
        <time>2023-09-30T08:41:59.000Z</time>
      </trkpt>
      <trkpt lat="45.79652" lon="4.59944">
        <ele>347.00037</ele>
        <time>2023-09-30T08:42:00.000Z</time>
      </trkpt>
      <trkpt lat="45.79654" lon="4.59947">
        <ele>346.87997</ele>
        <time>2023-09-30T08:42:01.000Z</time>
      </trkpt>
      <trkpt lat="45.79656" lon="4.5995">
        <ele>346.80313</ele>
        <time>2023-09-30T08:42:02.000Z</time>
      </trkpt>
      <trkpt lat="45.79659" lon="4.59955">
        <ele>347.71808</ele>
        <time>2023-09-30T08:42:03.000Z</time>
      </trkpt>
      <trkpt lat="45.79661" lon="4.59958">
        <ele>348.74725</ele>
        <time>2023-09-30T08:42:04.000Z</time>
      </trkpt>
      <trkpt lat="45.79664" lon="4.59961">
        <ele>349.3732</ele>
        <time>2023-09-30T08:42:05.000Z</time>
      </trkpt>
      <trkpt lat="45.79666" lon="4.59963">
        <ele>350.03711</ele>
        <time>2023-09-30T08:42:06.000Z</time>
      </trkpt>
      <trkpt lat="45.79669" lon="4.59966">
        <ele>350.06314</ele>
        <time>2023-09-30T08:42:07.000Z</time>
      </trkpt>
      <trkpt lat="45.79672" lon="4.59968">
        <ele>350.56964</ele>
        <time>2023-09-30T08:42:08.000Z</time>
      </trkpt>
      <trkpt lat="45.79676" lon="4.59971">
        <ele>351.42401</ele>
        <time>2023-09-30T08:42:09.000Z</time>
      </trkpt>
      <trkpt lat="45.79679" lon="4.59973">
        <ele>351.47156</ele>
        <time>2023-09-30T08:42:10.000Z</time>
      </trkpt>
      <trkpt lat="45.79681" lon="4.59976">
        <ele>351.54211</ele>
        <time>2023-09-30T08:42:11.000Z</time>
      </trkpt>
      <trkpt lat="45.79684" lon="4.59979">
        <ele>351.64795</ele>
        <time>2023-09-30T08:42:12.000Z</time>
      </trkpt>
      <trkpt lat="45.79687" lon="4.59982">
        <ele>351.80145</ele>
        <time>2023-09-30T08:42:13.000Z</time>
      </trkpt>
      <trkpt lat="45.7969" lon="4.59985">
        <ele>351.79095</ele>
        <time>2023-09-30T08:42:14.000Z</time>
      </trkpt>
      <trkpt lat="45.79693" lon="4.59988">
        <ele>351.95868</ele>
        <time>2023-09-30T08:42:15.000Z</time>
      </trkpt>
      <trkpt lat="45.79696" lon="4.5999">
        <ele>352.53629</ele>
        <time>2023-09-30T08:42:16.000Z</time>
      </trkpt>
      <trkpt lat="45.79699" lon="4.59993">
        <ele>353.31812</ele>
        <time>2023-09-30T08:42:17.000Z</time>
      </trkpt>
      <trkpt lat="45.79702" lon="4.59996">
        <ele>354.34842</ele>
        <time>2023-09-30T08:42:18.000Z</time>
      </trkpt>
      <trkpt lat="45.79705" lon="4.59999">
        <ele>355.4736</ele>
        <time>2023-09-30T08:42:19.000Z</time>
      </trkpt>
      <trkpt lat="45.79707" lon="4.60002">
        <ele>356.17914</ele>
        <time>2023-09-30T08:42:20.000Z</time>
      </trkpt>
      <trkpt lat="45.7971" lon="4.60004">
        <ele>356.9274</ele>
        <time>2023-09-30T08:42:21.000Z</time>
      </trkpt>
      <trkpt lat="45.79713" lon="4.60007">
        <ele>357.69131</ele>
        <time>2023-09-30T08:42:22.000Z</time>
      </trkpt>
      <trkpt lat="45.79716" lon="4.6001">
        <ele>357.54297</ele>
        <time>2023-09-30T08:42:23.000Z</time>
      </trkpt>
      <trkpt lat="45.79719" lon="4.60013">
        <ele>357.37897</ele>
        <time>2023-09-30T08:42:24.000Z</time>
      </trkpt>
      <trkpt lat="45.79722" lon="4.60016">
        <ele>357.65912</ele>
        <time>2023-09-30T08:42:25.000Z</time>
      </trkpt>
      <trkpt lat="45.79725" lon="4.60019">
        <ele>357.90335</ele>
        <time>2023-09-30T08:42:26.000Z</time>
      </trkpt>
      <trkpt lat="45.79728" lon="4.60021">
        <ele>358.18774</ele>
        <time>2023-09-30T08:42:27.000Z</time>
      </trkpt>
      <trkpt lat="45.7973" lon="4.60024">
        <ele>358.45526</ele>
        <time>2023-09-30T08:42:28.000Z</time>
      </trkpt>
      <trkpt lat="45.79733" lon="4.60027">
        <ele>358.35907</ele>
        <time>2023-09-30T08:42:29.000Z</time>
      </trkpt>
      <trkpt lat="45.79735" lon="4.6003">
        <ele>359.09894</ele>
        <time>2023-09-30T08:42:30.000Z</time>
      </trkpt>
      <trkpt lat="45.79738" lon="4.60033">
        <ele>359.78357</ele>
        <time>2023-09-30T08:42:31.000Z</time>
      </trkpt>
      <trkpt lat="45.79741" lon="4.60036">
        <ele>360.48514</ele>
        <time>2023-09-30T08:42:32.000Z</time>
      </trkpt>
      <trkpt lat="45.79744" lon="4.60038">
        <ele>360.68597</ele>
        <time>2023-09-30T08:42:33.000Z</time>
      </trkpt>
      <trkpt lat="45.79747" lon="4.60041">
        <ele>361.51749</ele>
        <time>2023-09-30T08:42:34.000Z</time>
      </trkpt>
      <trkpt lat="45.79751" lon="4.60043">
        <ele>362.15131</ele>
        <time>2023-09-30T08:42:35.000Z</time>
      </trkpt>
      <trkpt lat="45.79754" lon="4.60046">
        <ele>361.80856</ele>
        <time>2023-09-30T08:42:36.000Z</time>
      </trkpt>
      <trkpt lat="45.79757" lon="4.60048">
        <ele>361.4494</ele>
        <time>2023-09-30T08:42:37.000Z</time>
      </trkpt>
      <trkpt lat="45.7976" lon="4.60051">
        <ele>360.87698</ele>
        <time>2023-09-30T08:42:38.000Z</time>
      </trkpt>
      <trkpt lat="45.79764" lon="4.60054">
        <ele>360.185</ele>
        <time>2023-09-30T08:42:39.000Z</time>
      </trkpt>
      <trkpt lat="45.79767" lon="4.60056">
        <ele>359.91144</ele>
        <time>2023-09-30T08:42:40.000Z</time>
      </trkpt>
      <trkpt lat="45.79771" lon="4.60059">
        <ele>359.46579</ele>
        <time>2023-09-30T08:42:41.000Z</time>
      </trkpt>
      <trkpt lat="45.79774" lon="4.60061">
        <ele>358.97809</ele>
        <time>2023-09-30T08:42:42.000Z</time>
      </trkpt>
      <trkpt lat="45.79777" lon="4.60063">
        <ele>358.43906</ele>
        <time>2023-09-30T08:42:43.000Z</time>
      </trkpt>
      <trkpt lat="45.79781" lon="4.60066">
        <ele>357.90384</ele>
        <time>2023-09-30T08:42:44.000Z</time>
      </trkpt>
      <trkpt lat="45.79784" lon="4.60069">
        <ele>357.35446</ele>
        <time>2023-09-30T08:42:45.000Z</time>
      </trkpt>
      <trkpt lat="45.79787" lon="4.60072">
        <ele>356.87418</ele>
        <time>2023-09-30T08:42:46.000Z</time>
      </trkpt>
      <trkpt lat="45.7979" lon="4.60075">
        <ele>356.97699</ele>
        <time>2023-09-30T08:42:47.000Z</time>
      </trkpt>
      <trkpt lat="45.79793" lon="4.60078">
        <ele>357.09662</ele>
        <time>2023-09-30T08:42:48.000Z</time>
      </trkpt>
      <trkpt lat="45.79797" lon="4.6008">
        <ele>357.25342</ele>
        <time>2023-09-30T08:42:49.000Z</time>
      </trkpt>
      <trkpt lat="45.798" lon="4.60083">
        <ele>357.43729</ele>
        <time>2023-09-30T08:42:50.000Z</time>
      </trkpt>
      <trkpt lat="45.79803" lon="4.60086">
        <ele>357.67133</ele>
        <time>2023-09-30T08:42:51.000Z</time>
      </trkpt>
      <trkpt lat="45.79806" lon="4.60088">
        <ele>357.38779</ele>
        <time>2023-09-30T08:42:52.000Z</time>
      </trkpt>
      <trkpt lat="45.79809" lon="4.60091">
        <ele>357.59222</ele>
        <time>2023-09-30T08:42:53.000Z</time>
      </trkpt>
      <trkpt lat="45.79812" lon="4.60095">
        <ele>357.16742</ele>
        <time>2023-09-30T08:42:54.000Z</time>
      </trkpt>
      <trkpt lat="45.79815" lon="4.60098">
        <ele>356.8913</ele>
        <time>2023-09-30T08:42:55.000Z</time>
      </trkpt>
      <trkpt lat="45.79818" lon="4.60101">
        <ele>357.05878</ele>
        <time>2023-09-30T08:42:56.000Z</time>
      </trkpt>
      <trkpt lat="45.79821" lon="4.60104">
        <ele>357.20428</ele>
        <time>2023-09-30T08:42:57.000Z</time>
      </trkpt>
      <trkpt lat="45.79824" lon="4.60107">
        <ele>357.31189</ele>
        <time>2023-09-30T08:42:58.000Z</time>
      </trkpt>
      <trkpt lat="45.79827" lon="4.6011">
        <ele>357.42438</ele>
        <time>2023-09-30T08:42:59.000Z</time>
      </trkpt>
      <trkpt lat="45.7983" lon="4.60114">
        <ele>357.52838</ele>
        <time>2023-09-30T08:43:00.000Z</time>
      </trkpt>
      <trkpt lat="45.79833" lon="4.60117">
        <ele>357.78058</ele>
        <time>2023-09-30T08:43:01.000Z</time>
      </trkpt>
      <trkpt lat="45.79835" lon="4.6012">
        <ele>358.04321</ele>
        <time>2023-09-30T08:43:02.000Z</time>
      </trkpt>
      <trkpt lat="45.79837" lon="4.60123">
        <ele>358.24564</ele>
        <time>2023-09-30T08:43:03.000Z</time>
      </trkpt>
      <trkpt lat="45.79843" lon="4.60128">
        <ele>358.40726</ele>
        <time>2023-09-30T08:43:04.000Z</time>
      </trkpt>
      <trkpt lat="45.79846" lon="4.60131">
        <ele>358.50992</ele>
        <time>2023-09-30T08:43:05.000Z</time>
      </trkpt>
      <trkpt lat="45.7985" lon="4.60136">
        <ele>359.28302</ele>
        <time>2023-09-30T08:43:06.000Z</time>
      </trkpt>
      <trkpt lat="45.79853" lon="4.60142">
        <ele>359.46576</ele>
        <time>2023-09-30T08:43:07.000Z</time>
      </trkpt>
      <trkpt lat="45.79857" lon="4.60146">
        <ele>359.76974</ele>
        <time>2023-09-30T08:43:08.000Z</time>
      </trkpt>
      <trkpt lat="45.79862" lon="4.60151">
        <ele>360.08197</ele>
        <time>2023-09-30T08:43:09.000Z</time>
      </trkpt>
      <trkpt lat="45.79867" lon="4.60153">
        <ele>360.38947</ele>
        <time>2023-09-30T08:43:10.000Z</time>
      </trkpt>
      <trkpt lat="45.79872" lon="4.60158">
        <ele>360.35687</ele>
        <time>2023-09-30T08:43:11.000Z</time>
      </trkpt>
      <trkpt lat="45.79878" lon="4.60164">
        <ele>360.85513</ele>
        <time>2023-09-30T08:43:12.000Z</time>
      </trkpt>
      <trkpt lat="45.79883" lon="4.60168">
        <ele>361.319</ele>
        <time>2023-09-30T08:43:13.000Z</time>
      </trkpt>
      <trkpt lat="45.79888" lon="4.60173">
        <ele>361.28754</ele>
        <time>2023-09-30T08:43:14.000Z</time>
      </trkpt>
      <trkpt lat="45.79893" lon="4.60175">
        <ele>361.26825</ele>
        <time>2023-09-30T08:43:15.000Z</time>
      </trkpt>
      <trkpt lat="45.79898" lon="4.6018">
        <ele>361.70615</ele>
        <time>2023-09-30T08:43:16.000Z</time>
      </trkpt>
      <trkpt lat="45.79903" lon="4.60183">
        <ele>362.17789</ele>
        <time>2023-09-30T08:43:17.000Z</time>
      </trkpt>
      <trkpt lat="45.79908" lon="4.60187">
        <ele>362.16095</ele>
        <time>2023-09-30T08:43:18.000Z</time>
      </trkpt>
      <trkpt lat="45.79913" lon="4.6019">
        <ele>362.17377</ele>
        <time>2023-09-30T08:43:19.000Z</time>
      </trkpt>
      <trkpt lat="45.79917" lon="4.60194">
        <ele>362.18439</ele>
        <time>2023-09-30T08:43:20.000Z</time>
      </trkpt>
      <trkpt lat="45.79922" lon="4.60199">
        <ele>362.19205</ele>
        <time>2023-09-30T08:43:21.000Z</time>
      </trkpt>
      <trkpt lat="45.79925" lon="4.60203">
        <ele>362.19424</ele>
        <time>2023-09-30T08:43:22.000Z</time>
      </trkpt>
      <trkpt lat="45.7993" lon="4.60207">
        <ele>362.71591</ele>
        <time>2023-09-30T08:43:23.000Z</time>
      </trkpt>
      <trkpt lat="45.79934" lon="4.60211">
        <ele>363.5321</ele>
        <time>2023-09-30T08:43:24.000Z</time>
      </trkpt>
      <trkpt lat="45.79939" lon="4.60215">
        <ele>363.66269</ele>
        <time>2023-09-30T08:43:25.000Z</time>
      </trkpt>
      <trkpt lat="45.79943" lon="4.60219">
        <ele>363.02988</ele>
        <time>2023-09-30T08:43:26.000Z</time>
      </trkpt>
      <trkpt lat="45.79948" lon="4.60222">
        <ele>362.41428</ele>
        <time>2023-09-30T08:43:27.000Z</time>
      </trkpt>
      <trkpt lat="45.79952" lon="4.60225">
        <ele>361.65802</ele>
        <time>2023-09-30T08:43:28.000Z</time>
      </trkpt>
      <trkpt lat="45.79955" lon="4.6023">
        <ele>360.89191</ele>
        <time>2023-09-30T08:43:29.000Z</time>
      </trkpt>
      <trkpt lat="45.79959" lon="4.60234">
        <ele>360.10934</ele>
        <time>2023-09-30T08:43:30.000Z</time>
      </trkpt>
      <trkpt lat="45.79963" lon="4.60238">
        <ele>359.64542</ele>
        <time>2023-09-30T08:43:31.000Z</time>
      </trkpt>
      <trkpt lat="45.79967" lon="4.60242">
        <ele>359.14313</ele>
        <time>2023-09-30T08:43:32.000Z</time>
      </trkpt>
      <trkpt lat="45.79971" lon="4.60246">
        <ele>358.66754</ele>
        <time>2023-09-30T08:43:33.000Z</time>
      </trkpt>
      <trkpt lat="45.79974" lon="4.60248">
        <ele>358.67438</ele>
        <time>2023-09-30T08:43:34.000Z</time>
      </trkpt>
      <trkpt lat="45.79978" lon="4.60251">
        <ele>358.68692</ele>
        <time>2023-09-30T08:43:35.000Z</time>
      </trkpt>
      <trkpt lat="45.79982" lon="4.60254">
        <ele>358.27066</ele>
        <time>2023-09-30T08:43:36.000Z</time>
      </trkpt>
      <trkpt lat="45.79986" lon="4.60257">
        <ele>357.8237</ele>
        <time>2023-09-30T08:43:37.000Z</time>
      </trkpt>
      <trkpt lat="45.7999" lon="4.60261">
        <ele>357.8884</ele>
        <time>2023-09-30T08:43:38.000Z</time>
      </trkpt>
      <trkpt lat="45.79993" lon="4.60266">
        <ele>357.92023</ele>
        <time>2023-09-30T08:43:39.000Z</time>
      </trkpt>
      <trkpt lat="45.79997" lon="4.60269">
        <ele>357.99994</ele>
        <time>2023-09-30T08:43:40.000Z</time>
      </trkpt>
      <trkpt lat="45.8" lon="4.60273">
        <ele>358.07593</ele>
        <time>2023-09-30T08:43:41.000Z</time>
      </trkpt>
      <trkpt lat="45.80003" lon="4.60276">
        <ele>358.1203</ele>
        <time>2023-09-30T08:43:42.000Z</time>
      </trkpt>
      <trkpt lat="45.80007" lon="4.60281">
        <ele>358.15536</ele>
        <time>2023-09-30T08:43:43.000Z</time>
      </trkpt>
      <trkpt lat="45.8001" lon="4.60285">
        <ele>357.41165</ele>
        <time>2023-09-30T08:43:44.000Z</time>
      </trkpt>
      <trkpt lat="45.80013" lon="4.60289">
        <ele>357.42535</ele>
        <time>2023-09-30T08:43:45.000Z</time>
      </trkpt>
      <trkpt lat="45.80016" lon="4.60294">
        <ele>357.43115</ele>
        <time>2023-09-30T08:43:46.000Z</time>
      </trkpt>
      <trkpt lat="45.80019" lon="4.60298">
        <ele>357.4231</ele>
        <time>2023-09-30T08:43:47.000Z</time>
      </trkpt>
      <trkpt lat="45.80022" lon="4.60304">
        <ele>357.41895</ele>
        <time>2023-09-30T08:43:48.000Z</time>
      </trkpt>
      <trkpt lat="45.80024" lon="4.60309">
        <ele>357.41055</ele>
        <time>2023-09-30T08:43:49.000Z</time>
      </trkpt>
      <trkpt lat="45.80026" lon="4.60314">
        <ele>357.39182</ele>
        <time>2023-09-30T08:43:50.000Z</time>
      </trkpt>
      <trkpt lat="45.80029" lon="4.60319">
        <ele>357.3566</ele>
        <time>2023-09-30T08:43:51.000Z</time>
      </trkpt>
      <trkpt lat="45.80032" lon="4.60323">
        <ele>357.31</ele>
        <time>2023-09-30T08:43:52.000Z</time>
      </trkpt>
      <trkpt lat="45.80034" lon="4.60327">
        <ele>356.6683</ele>
        <time>2023-09-30T08:43:53.000Z</time>
      </trkpt>
      <trkpt lat="45.80037" lon="4.60331">
        <ele>356.21484</ele>
        <time>2023-09-30T08:43:54.000Z</time>
      </trkpt>
      <trkpt lat="45.8004" lon="4.60335">
        <ele>355.75684</ele>
        <time>2023-09-30T08:43:55.000Z</time>
      </trkpt>
      <trkpt lat="45.80043" lon="4.6034">
        <ele>355.28772</ele>
        <time>2023-09-30T08:43:56.000Z</time>
      </trkpt>
      <trkpt lat="45.80046" lon="4.60345">
        <ele>354.82684</ele>
        <time>2023-09-30T08:43:57.000Z</time>
      </trkpt>
      <trkpt lat="45.80049" lon="4.6035">
        <ele>354.57239</ele>
        <time>2023-09-30T08:43:58.000Z</time>
      </trkpt>
      <trkpt lat="45.80052" lon="4.60355">
        <ele>354.37592</ele>
        <time>2023-09-30T08:43:59.000Z</time>
      </trkpt>
      <trkpt lat="45.80055" lon="4.6036">
        <ele>354.16104</ele>
        <time>2023-09-30T08:44:00.000Z</time>
      </trkpt>
      <trkpt lat="45.80058" lon="4.60365">
        <ele>353.9537</ele>
        <time>2023-09-30T08:44:01.000Z</time>
      </trkpt>
      <trkpt lat="45.80059" lon="4.6037">
        <ele>353.78992</ele>
        <time>2023-09-30T08:44:02.000Z</time>
      </trkpt>
      <trkpt lat="45.8006" lon="4.60375">
        <ele>353.16681</ele>
        <time>2023-09-30T08:44:03.000Z</time>
      </trkpt>
      <trkpt lat="45.8006" lon="4.60381">
        <ele>353.0697</ele>
        <time>2023-09-30T08:44:04.000Z</time>
      </trkpt>
      <trkpt lat="45.8006" lon="4.60386">
        <ele>352.9527</ele>
        <time>2023-09-30T08:44:05.000Z</time>
      </trkpt>
      <trkpt lat="45.8006" lon="4.60391">
        <ele>352.85873</ele>
        <time>2023-09-30T08:44:06.000Z</time>
      </trkpt>
      <trkpt lat="45.80058" lon="4.60396">
        <ele>352.78094</ele>
        <time>2023-09-30T08:44:07.000Z</time>
      </trkpt>
      <trkpt lat="45.80058" lon="4.604">
        <ele>352.68326</ele>
        <time>2023-09-30T08:44:08.000Z</time>
      </trkpt>
      <trkpt lat="45.80059" lon="4.60405">
        <ele>352.61234</ele>
        <time>2023-09-30T08:44:09.000Z</time>
      </trkpt>
      <trkpt lat="45.80058" lon="4.60409">
        <ele>352.56747</ele>
        <time>2023-09-30T08:44:10.000Z</time>
      </trkpt>
      <trkpt lat="45.80059" lon="4.60414">
        <ele>352.54486</ele>
        <time>2023-09-30T08:44:11.000Z</time>
      </trkpt>
      <trkpt lat="45.80059" lon="4.60418">
        <ele>352.57513</ele>
        <time>2023-09-30T08:44:12.000Z</time>
      </trkpt>
      <trkpt lat="45.8006" lon="4.60423">
        <ele>353.13593</ele>
        <time>2023-09-30T08:44:13.000Z</time>
      </trkpt>
      <trkpt lat="45.8006" lon="4.60428">
        <ele>353.50067</ele>
        <time>2023-09-30T08:44:14.000Z</time>
      </trkpt>
      <trkpt lat="45.8006" lon="4.60433">
        <ele>353.86182</ele>
        <time>2023-09-30T08:44:15.000Z</time>
      </trkpt>
      <trkpt lat="45.8006" lon="4.60438">
        <ele>354.19809</ele>
        <time>2023-09-30T08:44:16.000Z</time>
      </trkpt>
      <trkpt lat="45.8006" lon="4.60442">
        <ele>354.54437</ele>
        <time>2023-09-30T08:44:17.000Z</time>
      </trkpt>
      <trkpt lat="45.80059" lon="4.60445">
        <ele>354.69122</ele>
        <time>2023-09-30T08:44:18.000Z</time>
      </trkpt>
      <trkpt lat="45.80062" lon="4.60448">
        <ele>354.76617</ele>
        <time>2023-09-30T08:44:20.000Z</time>
      </trkpt>
      <trkpt lat="45.80064" lon="4.60449">
        <ele>354.79202</ele>
        <time>2023-09-30T08:44:21.000Z</time>
      </trkpt>
      <trkpt lat="45.80068" lon="4.60449">
        <ele>354.77106</ele>
        <time>2023-09-30T08:44:22.000Z</time>
      </trkpt>
      <trkpt lat="45.80071" lon="4.6045">
        <ele>354.71841</ele>
        <time>2023-09-30T08:44:23.000Z</time>
      </trkpt>
      <trkpt lat="45.80074" lon="4.60451">
        <ele>354.62399</ele>
        <time>2023-09-30T08:44:24.000Z</time>
      </trkpt>
      <trkpt lat="45.80077" lon="4.60454">
        <ele>354.48996</ele>
        <time>2023-09-30T08:44:25.000Z</time>
      </trkpt>
      <trkpt lat="45.80079" lon="4.60459">
        <ele>354.31644</ele>
        <time>2023-09-30T08:44:26.000Z</time>
      </trkpt>
      <trkpt lat="45.80076" lon="4.60469">
        <ele>354.09103</ele>
        <time>2023-09-30T08:44:27.000Z</time>
      </trkpt>
      <trkpt lat="45.80073" lon="4.60478">
        <ele>353.7998</ele>
        <time>2023-09-30T08:44:28.000Z</time>
      </trkpt>
      <trkpt lat="45.80069" lon="4.60488">
        <ele>353.48651</ele>
        <time>2023-09-30T08:44:29.000Z</time>
      </trkpt>
      <trkpt lat="45.80064" lon="4.60499">
        <ele>353.11584</ele>
        <time>2023-09-30T08:44:30.000Z</time>
      </trkpt>
      <trkpt lat="45.80059" lon="4.60511">
        <ele>352.69992</ele>
        <time>2023-09-30T08:44:31.000Z</time>
      </trkpt>
      <trkpt lat="45.80053" lon="4.60522">
        <ele>352.23651</ele>
        <time>2023-09-30T08:44:32.000Z</time>
      </trkpt>
      <trkpt lat="45.80046" lon="4.60534">
        <ele>351.68149</ele>
        <time>2023-09-30T08:44:33.000Z</time>
      </trkpt>
      <trkpt lat="45.80039" lon="4.60546">
        <ele>350.9931</ele>
        <time>2023-09-30T08:44:34.000Z</time>
      </trkpt>
      <trkpt lat="45.80032" lon="4.60558">
        <ele>350.26437</ele>
        <time>2023-09-30T08:44:35.000Z</time>
      </trkpt>
      <trkpt lat="45.80027" lon="4.6057">
        <ele>349.50644</ele>
        <time>2023-09-30T08:44:36.000Z</time>
      </trkpt>
      <trkpt lat="45.80022" lon="4.60582">
        <ele>348.79059</ele>
        <time>2023-09-30T08:44:37.000Z</time>
      </trkpt>
      <trkpt lat="45.80017" lon="4.60594">
        <ele>347.90048</ele>
        <time>2023-09-30T08:44:38.000Z</time>
      </trkpt>
      <trkpt lat="45.80013" lon="4.60606">
        <ele>346.91037</ele>
        <time>2023-09-30T08:44:39.000Z</time>
      </trkpt>
      <trkpt lat="45.80009" lon="4.60616">
        <ele>345.90143</ele>
        <time>2023-09-30T08:44:40.000Z</time>
      </trkpt>
      <trkpt lat="45.80005" lon="4.60625">
        <ele>344.89911</ele>
        <time>2023-09-30T08:44:41.000Z</time>
      </trkpt>
      <trkpt lat="45.80002" lon="4.60631">
        <ele>343.90094</ele>
        <time>2023-09-30T08:44:42.000Z</time>
      </trkpt>
      <trkpt lat="45.79999" lon="4.60638">
        <ele>342.88623</ele>
        <time>2023-09-30T08:44:43.000Z</time>
      </trkpt>
      <trkpt lat="45.79998" lon="4.60642">
        <ele>341.91315</ele>
        <time>2023-09-30T08:44:44.000Z</time>
      </trkpt>
      <trkpt lat="45.79997" lon="4.60647">
        <ele>340.95819</ele>
        <time>2023-09-30T08:44:45.000Z</time>
      </trkpt>
      <trkpt lat="45.79999" lon="4.60652">
        <ele>339.89871</ele>
        <time>2023-09-30T08:44:46.000Z</time>
      </trkpt>
      <trkpt lat="45.80002" lon="4.60656">
        <ele>338.88641</ele>
        <time>2023-09-30T08:44:47.000Z</time>
      </trkpt>
      <trkpt lat="45.80007" lon="4.60657">
        <ele>337.91653</ele>
        <time>2023-09-30T08:44:48.000Z</time>
      </trkpt>
      <trkpt lat="45.80014" lon="4.60655">
        <ele>336.909</ele>
        <time>2023-09-30T08:44:49.000Z</time>
      </trkpt>
      <trkpt lat="45.80021" lon="4.60654">
        <ele>335.92532</ele>
        <time>2023-09-30T08:44:50.000Z</time>
      </trkpt>
      <trkpt lat="45.80028" lon="4.60653">
        <ele>334.99451</ele>
        <time>2023-09-30T08:44:51.000Z</time>
      </trkpt>
      <trkpt lat="45.80035" lon="4.60655">
        <ele>334.08646</ele>
        <time>2023-09-30T08:44:52.000Z</time>
      </trkpt>
      <trkpt lat="45.80043" lon="4.60658">
        <ele>333.20087</ele>
        <time>2023-09-30T08:44:53.000Z</time>
      </trkpt>
      <trkpt lat="45.80051" lon="4.60661">
        <ele>332.46042</ele>
        <time>2023-09-30T08:44:54.000Z</time>
      </trkpt>
      <trkpt lat="45.80056" lon="4.60663">
        <ele>331.70416</ele>
        <time>2023-09-30T08:44:55.000Z</time>
      </trkpt>
      <trkpt lat="45.80062" lon="4.60667">
        <ele>331.04172</ele>
        <time>2023-09-30T08:44:56.000Z</time>
      </trkpt>
      <trkpt lat="45.80065" lon="4.60671">
        <ele>330.36359</ele>
        <time>2023-09-30T08:44:57.000Z</time>
      </trkpt>
      <trkpt lat="45.80069" lon="4.60673">
        <ele>329.81519</ele>
        <time>2023-09-30T08:44:58.000Z</time>
      </trkpt>
      <trkpt lat="45.80071" lon="4.60674">
        <ele>329.37476</ele>
        <time>2023-09-30T08:44:59.000Z</time>
      </trkpt>
      <trkpt lat="45.80073" lon="4.60672">
        <ele>328.84662</ele>
        <time>2023-09-30T08:45:01.000Z</time>
      </trkpt>
      <trkpt lat="45.80076" lon="4.6067">
        <ele>328.3642</ele>
        <time>2023-09-30T08:45:03.000Z</time>
      </trkpt>
      <trkpt lat="45.80078" lon="4.60669">
        <ele>327.89224</ele>
        <time>2023-09-30T08:45:04.000Z</time>
      </trkpt>
      <trkpt lat="45.8008" lon="4.60669">
        <ele>327.42657</ele>
        <time>2023-09-30T08:45:06.000Z</time>
      </trkpt>
      <trkpt lat="45.80082" lon="4.60668">
        <ele>327.12848</ele>
        <time>2023-09-30T08:45:09.000Z</time>
      </trkpt>
      <trkpt lat="45.80086" lon="4.60667">
        <ele>326.73239</ele>
        <time>2023-09-30T08:45:11.000Z</time>
      </trkpt>
      <trkpt lat="45.80089" lon="4.60666">
        <ele>326.48859</ele>
        <time>2023-09-30T08:45:12.000Z</time>
      </trkpt>
      <trkpt lat="45.80093" lon="4.60665">
        <ele>326.22476</ele>
        <time>2023-09-30T08:45:13.000Z</time>
      </trkpt>
      <trkpt lat="45.80097" lon="4.60664">
        <ele>325.93573</ele>
        <time>2023-09-30T08:45:14.000Z</time>
      </trkpt>
      <trkpt lat="45.80101" lon="4.60662">
        <ele>325.75226</ele>
        <time>2023-09-30T08:45:15.000Z</time>
      </trkpt>
      <trkpt lat="45.80105" lon="4.60657">
        <ele>325.85022</ele>
        <time>2023-09-30T08:45:16.000Z</time>
      </trkpt>
      <trkpt lat="45.80108" lon="4.60653">
        <ele>325.91553</ele>
        <time>2023-09-30T08:45:17.000Z</time>
      </trkpt>
      <trkpt lat="45.80113" lon="4.6065">
        <ele>326.00525</ele>
        <time>2023-09-30T08:45:18.000Z</time>
      </trkpt>
      <trkpt lat="45.80118" lon="4.60647">
        <ele>326.09711</ele>
        <time>2023-09-30T08:45:19.000Z</time>
      </trkpt>
      <trkpt lat="45.80123" lon="4.60644">
        <ele>326.21405</ele>
        <time>2023-09-30T08:45:20.000Z</time>
      </trkpt>
      <trkpt lat="45.80128" lon="4.6064">
        <ele>326.39301</ele>
        <time>2023-09-30T08:45:21.000Z</time>
      </trkpt>
      <trkpt lat="45.80133" lon="4.60635">
        <ele>326.48831</ele>
        <time>2023-09-30T08:45:22.000Z</time>
      </trkpt>
      <trkpt lat="45.80139" lon="4.60631">
        <ele>326.57318</ele>
        <time>2023-09-30T08:45:23.000Z</time>
      </trkpt>
      <trkpt lat="45.80145" lon="4.60627">
        <ele>326.64105</ele>
        <time>2023-09-30T08:45:24.000Z</time>
      </trkpt>
      <trkpt lat="45.80152" lon="4.60622">
        <ele>326.93472</ele>
        <time>2023-09-30T08:45:25.000Z</time>
      </trkpt>
      <trkpt lat="45.80158" lon="4.60618">
        <ele>327.32755</ele>
        <time>2023-09-30T08:45:26.000Z</time>
      </trkpt>
      <trkpt lat="45.80165" lon="4.60613">
        <ele>327.6922</ele>
        <time>2023-09-30T08:45:27.000Z</time>
      </trkpt>
      <trkpt lat="45.80171" lon="4.60608">
        <ele>327.52322</ele>
        <time>2023-09-30T08:45:28.000Z</time>
      </trkpt>
      <trkpt lat="45.80176" lon="4.60603">
        <ele>327.37985</ele>
        <time>2023-09-30T08:45:29.000Z</time>
      </trkpt>
      <trkpt lat="45.80182" lon="4.60599">
        <ele>327.11435</ele>
        <time>2023-09-30T08:45:30.000Z</time>
      </trkpt>
      <trkpt lat="45.80186" lon="4.60594">
        <ele>326.81064</ele>
        <time>2023-09-30T08:45:31.000Z</time>
      </trkpt>
      <trkpt lat="45.8019" lon="4.60589">
        <ele>326.50775</ele>
        <time>2023-09-30T08:45:32.000Z</time>
      </trkpt>
      <trkpt lat="45.80193" lon="4.60584">
        <ele>326.2128</ele>
        <time>2023-09-30T08:45:33.000Z</time>
      </trkpt>
      <trkpt lat="45.80197" lon="4.6058">
        <ele>325.96274</ele>
        <time>2023-09-30T08:45:34.000Z</time>
      </trkpt>
      <trkpt lat="45.80202" lon="4.60576">
        <ele>325.67175</ele>
        <time>2023-09-30T08:45:35.000Z</time>
      </trkpt>
      <trkpt lat="45.80207" lon="4.60573">
        <ele>325.09628</ele>
        <time>2023-09-30T08:45:36.000Z</time>
      </trkpt>
      <trkpt lat="45.80211" lon="4.60571">
        <ele>324.51166</ele>
        <time>2023-09-30T08:45:37.000Z</time>
      </trkpt>
      <trkpt lat="45.80213" lon="4.60567">
        <ele>323.9357</ele>
        <time>2023-09-30T08:45:38.000Z</time>
      </trkpt>
      <trkpt lat="45.80216" lon="4.60565">
        <ele>323.35464</ele>
        <time>2023-09-30T08:45:39.000Z</time>
      </trkpt>
      <trkpt lat="45.80219" lon="4.60563">
        <ele>322.80731</ele>
        <time>2023-09-30T08:45:40.000Z</time>
      </trkpt>
      <trkpt lat="45.80221" lon="4.60562">
        <ele>322.28763</ele>
        <time>2023-09-30T08:45:41.000Z</time>
      </trkpt>
      <trkpt lat="45.80223" lon="4.60561">
        <ele>321.80634</ele>
        <time>2023-09-30T08:45:42.000Z</time>
      </trkpt>
      <trkpt lat="45.80226" lon="4.6056">
        <ele>321.34659</ele>
        <time>2023-09-30T08:45:43.000Z</time>
      </trkpt>
      <trkpt lat="45.80226" lon="4.60558">
        <ele>320.93146</ele>
        <time>2023-09-30T08:45:44.000Z</time>
      </trkpt>
      <trkpt lat="45.80229" lon="4.60557">
        <ele>320.27655</ele>
        <time>2023-09-30T08:45:45.000Z</time>
      </trkpt>
      <trkpt lat="45.80231" lon="4.60557">
        <ele>319.63718</ele>
        <time>2023-09-30T08:45:46.000Z</time>
      </trkpt>
      <trkpt lat="45.80233" lon="4.60555">
        <ele>318.99387</ele>
        <time>2023-09-30T08:45:47.000Z</time>
      </trkpt>
      <trkpt lat="45.80236" lon="4.60553">
        <ele>318.89484</ele>
        <time>2023-09-30T08:45:48.000Z</time>
      </trkpt>
      <trkpt lat="45.80239" lon="4.60551">
        <ele>318.82489</ele>
        <time>2023-09-30T08:45:49.000Z</time>
      </trkpt>
      <trkpt lat="45.80242" lon="4.60549">
        <ele>318.69232</ele>
        <time>2023-09-30T08:45:50.000Z</time>
      </trkpt>
      <trkpt lat="45.80245" lon="4.60547">
        <ele>318.73871</ele>
        <time>2023-09-30T08:45:51.000Z</time>
      </trkpt>
      <trkpt lat="45.80248" lon="4.60545">
        <ele>318.74704</ele>
        <time>2023-09-30T08:45:52.000Z</time>
      </trkpt>
      <trkpt lat="45.80252" lon="4.60543">
        <ele>318.76999</ele>
        <time>2023-09-30T08:45:53.000Z</time>
      </trkpt>
      <trkpt lat="45.80256" lon="4.60542">
        <ele>318.7645</ele>
        <time>2023-09-30T08:45:54.000Z</time>
      </trkpt>
      <trkpt lat="45.80262" lon="4.60539">
        <ele>318.73792</ele>
        <time>2023-09-30T08:45:55.000Z</time>
      </trkpt>
      <trkpt lat="45.80265" lon="4.60535">
        <ele>318.72443</ele>
        <time>2023-09-30T08:45:56.000Z</time>
      </trkpt>
      <trkpt lat="45.8027" lon="4.60534">
        <ele>318.73761</ele>
        <time>2023-09-30T08:45:57.000Z</time>
      </trkpt>
      <trkpt lat="45.80275" lon="4.60532">
        <ele>318.6918</ele>
        <time>2023-09-30T08:45:58.000Z</time>
      </trkpt>
      <trkpt lat="45.8028" lon="4.60531">
        <ele>318.71979</ele>
        <time>2023-09-30T08:45:59.000Z</time>
      </trkpt>
      <trkpt lat="45.80284" lon="4.60529">
        <ele>318.72696</ele>
        <time>2023-09-30T08:46:00.000Z</time>
      </trkpt>
      <trkpt lat="45.80289" lon="4.60527">
        <ele>318.63995</ele>
        <time>2023-09-30T08:46:01.000Z</time>
      </trkpt>
      <trkpt lat="45.80293" lon="4.60525">
        <ele>318.57901</ele>
        <time>2023-09-30T08:46:02.000Z</time>
      </trkpt>
      <trkpt lat="45.80297" lon="4.60524">
        <ele>318.5119</ele>
        <time>2023-09-30T08:46:03.000Z</time>
      </trkpt>
      <trkpt lat="45.80301" lon="4.60523">
        <ele>318.51535</ele>
        <time>2023-09-30T08:46:04.000Z</time>
      </trkpt>
      <trkpt lat="45.80304" lon="4.60522">
        <ele>318.5174</ele>
        <time>2023-09-30T08:46:05.000Z</time>
      </trkpt>
      <trkpt lat="45.80308" lon="4.60521">
        <ele>318.54156</ele>
        <time>2023-09-30T08:46:06.000Z</time>
      </trkpt>
      <trkpt lat="45.80312" lon="4.6052">
        <ele>318.57568</ele>
        <time>2023-09-30T08:46:07.000Z</time>
      </trkpt>
      <trkpt lat="45.80316" lon="4.60521">
        <ele>318.63675</ele>
        <time>2023-09-30T08:46:08.000Z</time>
      </trkpt>
      <trkpt lat="45.8032" lon="4.60522">
        <ele>318.64331</ele>
        <time>2023-09-30T08:46:09.000Z</time>
      </trkpt>
      <trkpt lat="45.80323" lon="4.60522">
        <ele>318.66388</ele>
        <time>2023-09-30T08:46:10.000Z</time>
      </trkpt>
      <trkpt lat="45.80326" lon="4.60522">
        <ele>318.66827</ele>
        <time>2023-09-30T08:46:11.000Z</time>
      </trkpt>
      <trkpt lat="45.80329" lon="4.60522">
        <ele>318.70459</ele>
        <time>2023-09-30T08:46:12.000Z</time>
      </trkpt>
      <trkpt lat="45.80333" lon="4.60523">
        <ele>318.72568</ele>
        <time>2023-09-30T08:46:13.000Z</time>
      </trkpt>
      <trkpt lat="45.80336" lon="4.60524">
        <ele>318.75333</ele>
        <time>2023-09-30T08:46:14.000Z</time>
      </trkpt>
      <trkpt lat="45.80339" lon="4.60525">
        <ele>318.81314</ele>
        <time>2023-09-30T08:46:15.000Z</time>
      </trkpt>
      <trkpt lat="45.80342" lon="4.60525">
        <ele>318.89398</ele>
        <time>2023-09-30T08:46:16.000Z</time>
      </trkpt>
      <trkpt lat="45.80345" lon="4.60526">
        <ele>318.97177</ele>
        <time>2023-09-30T08:46:17.000Z</time>
      </trkpt>
      <trkpt lat="45.80348" lon="4.60527">
        <ele>319.09399</ele>
        <time>2023-09-30T08:46:18.000Z</time>
      </trkpt>
      <trkpt lat="45.80351" lon="4.60528">
        <ele>319.17572</ele>
        <time>2023-09-30T08:46:19.000Z</time>
      </trkpt>
      <trkpt lat="45.80354" lon="4.60529">
        <ele>319.24161</ele>
        <time>2023-09-30T08:46:20.000Z</time>
      </trkpt>
      <trkpt lat="45.80357" lon="4.6053">
        <ele>319.36502</ele>
        <time>2023-09-30T08:46:21.000Z</time>
      </trkpt>
      <trkpt lat="45.8036" lon="4.6053">
        <ele>319.46402</ele>
        <time>2023-09-30T08:46:22.000Z</time>
      </trkpt>
      <trkpt lat="45.80363" lon="4.60531">
        <ele>319.58368</ele>
        <time>2023-09-30T08:46:23.000Z</time>
      </trkpt>
      <trkpt lat="45.80366" lon="4.60532">
        <ele>319.65851</ele>
        <time>2023-09-30T08:46:24.000Z</time>
      </trkpt>
      <trkpt lat="45.80369" lon="4.60533">
        <ele>319.77997</ele>
        <time>2023-09-30T08:46:25.000Z</time>
      </trkpt>
      <trkpt lat="45.80372" lon="4.60534">
        <ele>319.92252</ele>
        <time>2023-09-30T08:46:26.000Z</time>
      </trkpt>
      <trkpt lat="45.80375" lon="4.60535">
        <ele>320.07721</ele>
        <time>2023-09-30T08:46:27.000Z</time>
      </trkpt>
      <trkpt lat="45.80377" lon="4.60536">
        <ele>320.10028</ele>
        <time>2023-09-30T08:46:28.000Z</time>
      </trkpt>
      <trkpt lat="45.8038" lon="4.60537">
        <ele>320.16571</ele>
        <time>2023-09-30T08:46:29.000Z</time>
      </trkpt>
      <trkpt lat="45.80383" lon="4.60539">
        <ele>320.26321</ele>
        <time>2023-09-30T08:46:30.000Z</time>
      </trkpt>
      <trkpt lat="45.80386" lon="4.6054">
        <ele>320.41962</ele>
        <time>2023-09-30T08:46:31.000Z</time>
      </trkpt>
      <trkpt lat="45.80389" lon="4.60541">
        <ele>320.70407</ele>
        <time>2023-09-30T08:46:32.000Z</time>
      </trkpt>
      <trkpt lat="45.80392" lon="4.60542">
        <ele>321.07498</ele>
        <time>2023-09-30T08:46:33.000Z</time>
      </trkpt>
      <trkpt lat="45.80396" lon="4.60543">
        <ele>321.43555</ele>
        <time>2023-09-30T08:46:34.000Z</time>
      </trkpt>
      <trkpt lat="45.804" lon="4.60543">
        <ele>321.82632</ele>
        <time>2023-09-30T08:46:35.000Z</time>
      </trkpt>
      <trkpt lat="45.80404" lon="4.60544">
        <ele>322.19519</ele>
        <time>2023-09-30T08:46:36.000Z</time>
      </trkpt>
      <trkpt lat="45.80408" lon="4.60544">
        <ele>322.64432</ele>
        <time>2023-09-30T08:46:37.000Z</time>
      </trkpt>
      <trkpt lat="45.80412" lon="4.60545">
        <ele>322.74982</ele>
        <time>2023-09-30T08:46:38.000Z</time>
      </trkpt>
      <trkpt lat="45.80416" lon="4.60546">
        <ele>322.87476</ele>
        <time>2023-09-30T08:46:39.000Z</time>
      </trkpt>
      <trkpt lat="45.8042" lon="4.60547">
        <ele>323.03159</ele>
        <time>2023-09-30T08:46:40.000Z</time>
      </trkpt>
      <trkpt lat="45.80424" lon="4.60547">
        <ele>323.19785</ele>
        <time>2023-09-30T08:46:41.000Z</time>
      </trkpt>
      <trkpt lat="45.80428" lon="4.60548">
        <ele>323.23212</ele>
        <time>2023-09-30T08:46:42.000Z</time>
      </trkpt>
      <trkpt lat="45.80432" lon="4.60549">
        <ele>323.31171</ele>
        <time>2023-09-30T08:46:43.000Z</time>
      </trkpt>
      <trkpt lat="45.80436" lon="4.6055">
        <ele>323.37509</ele>
        <time>2023-09-30T08:46:44.000Z</time>
      </trkpt>
      <trkpt lat="45.8044" lon="4.60551">
        <ele>323.39508</ele>
        <time>2023-09-30T08:46:45.000Z</time>
      </trkpt>
      <trkpt lat="45.80444" lon="4.60551">
        <ele>323.36798</ele>
        <time>2023-09-30T08:46:46.000Z</time>
      </trkpt>
      <trkpt lat="45.80448" lon="4.60551">
        <ele>323.39786</ele>
        <time>2023-09-30T08:46:47.000Z</time>
      </trkpt>
      <trkpt lat="45.80452" lon="4.60551">
        <ele>323.54572</ele>
        <time>2023-09-30T08:46:48.000Z</time>
      </trkpt>
      <trkpt lat="45.80456" lon="4.60552">
        <ele>323.57635</ele>
        <time>2023-09-30T08:46:49.000Z</time>
      </trkpt>
      <trkpt lat="45.80461" lon="4.60553">
        <ele>323.64716</ele>
        <time>2023-09-30T08:46:50.000Z</time>
      </trkpt>
      <trkpt lat="45.80464" lon="4.60553">
        <ele>323.647</ele>
        <time>2023-09-30T08:46:51.000Z</time>
      </trkpt>
      <trkpt lat="45.80468" lon="4.60554">
        <ele>323.49432</ele>
        <time>2023-09-30T08:46:52.000Z</time>
      </trkpt>
      <trkpt lat="45.80472" lon="4.60554">
        <ele>323.28253</ele>
        <time>2023-09-30T08:46:53.000Z</time>
      </trkpt>
      <trkpt lat="45.80477" lon="4.60556">
        <ele>323.09943</ele>
        <time>2023-09-30T08:46:54.000Z</time>
      </trkpt>
      <trkpt lat="45.80481" lon="4.60557">
        <ele>322.78107</ele>
        <time>2023-09-30T08:46:55.000Z</time>
      </trkpt>
      <trkpt lat="45.80486" lon="4.60558">
        <ele>322.50458</ele>
        <time>2023-09-30T08:46:56.000Z</time>
      </trkpt>
      <trkpt lat="45.80491" lon="4.60559">
        <ele>322.08667</ele>
        <time>2023-09-30T08:46:57.000Z</time>
      </trkpt>
      <trkpt lat="45.80494" lon="4.6056">
        <ele>322.0163</ele>
        <time>2023-09-30T08:46:58.000Z</time>
      </trkpt>
      <trkpt lat="45.80499" lon="4.60561">
        <ele>321.95456</ele>
        <time>2023-09-30T08:46:59.000Z</time>
      </trkpt>
      <trkpt lat="45.80502" lon="4.60562">
        <ele>321.90961</ele>
        <time>2023-09-30T08:47:00.000Z</time>
      </trkpt>
      <trkpt lat="45.80506" lon="4.60563">
        <ele>321.86404</ele>
        <time>2023-09-30T08:47:01.000Z</time>
      </trkpt>
      <trkpt lat="45.8051" lon="4.60565">
        <ele>321.90372</ele>
        <time>2023-09-30T08:47:02.000Z</time>
      </trkpt>
      <trkpt lat="45.80514" lon="4.60565">
        <ele>321.88007</ele>
        <time>2023-09-30T08:47:03.000Z</time>
      </trkpt>
      <trkpt lat="45.80518" lon="4.60566">
        <ele>322.18231</ele>
        <time>2023-09-30T08:47:04.000Z</time>
      </trkpt>
      <trkpt lat="45.80521" lon="4.60566">
        <ele>322.47754</ele>
        <time>2023-09-30T08:47:05.000Z</time>
      </trkpt>
      <trkpt lat="45.80525" lon="4.60566">
        <ele>322.78842</ele>
        <time>2023-09-30T08:47:06.000Z</time>
      </trkpt>
      <trkpt lat="45.80528" lon="4.60567">
        <ele>323.04633</ele>
        <time>2023-09-30T08:47:07.000Z</time>
      </trkpt>
      <trkpt lat="45.80531" lon="4.60567">
        <ele>323.45352</ele>
        <time>2023-09-30T08:47:08.000Z</time>
      </trkpt>
      <trkpt lat="45.80534" lon="4.60568">
        <ele>323.94684</ele>
        <time>2023-09-30T08:47:09.000Z</time>
      </trkpt>
      <trkpt lat="45.80538" lon="4.60569">
        <ele>324.47321</ele>
        <time>2023-09-30T08:47:10.000Z</time>
      </trkpt>
      <trkpt lat="45.80541" lon="4.60569">
        <ele>325.0069</ele>
        <time>2023-09-30T08:47:11.000Z</time>
      </trkpt>
      <trkpt lat="45.80545" lon="4.60569">
        <ele>325.55048</ele>
        <time>2023-09-30T08:47:12.000Z</time>
      </trkpt>
      <trkpt lat="45.80549" lon="4.6057">
        <ele>326.0517</ele>
        <time>2023-09-30T08:47:13.000Z</time>
      </trkpt>
      <trkpt lat="45.80553" lon="4.60572">
        <ele>326.54626</ele>
        <time>2023-09-30T08:47:14.000Z</time>
      </trkpt>
      <trkpt lat="45.80557" lon="4.60573">
        <ele>327.23285</ele>
        <time>2023-09-30T08:47:15.000Z</time>
      </trkpt>
      <trkpt lat="45.80562" lon="4.60574">
        <ele>327.51364</ele>
        <time>2023-09-30T08:47:16.000Z</time>
      </trkpt>
      <trkpt lat="45.80566" lon="4.60576">
        <ele>327.89966</ele>
        <time>2023-09-30T08:47:17.000Z</time>
      </trkpt>
      <trkpt lat="45.80571" lon="4.60579">
        <ele>328.21518</ele>
        <time>2023-09-30T08:47:18.000Z</time>
      </trkpt>
      <trkpt lat="45.80575" lon="4.60581">
        <ele>328.52533</ele>
        <time>2023-09-30T08:47:19.000Z</time>
      </trkpt>
      <trkpt lat="45.8058" lon="4.60583">
        <ele>328.78326</ele>
        <time>2023-09-30T08:47:20.000Z</time>
      </trkpt>
      <trkpt lat="45.80583" lon="4.60586">
        <ele>329.01517</ele>
        <time>2023-09-30T08:47:21.000Z</time>
      </trkpt>
      <trkpt lat="45.80587" lon="4.60588">
        <ele>329.27386</ele>
        <time>2023-09-30T08:47:22.000Z</time>
      </trkpt>
      <trkpt lat="45.8059" lon="4.6059">
        <ele>329.51724</ele>
        <time>2023-09-30T08:47:23.000Z</time>
      </trkpt>
      <trkpt lat="45.80593" lon="4.60589">
        <ele>329.42679</ele>
        <time>2023-09-30T08:47:24.000Z</time>
      </trkpt>
      <trkpt lat="45.80596" lon="4.60589">
        <ele>329.27197</ele>
        <time>2023-09-30T08:47:25.000Z</time>
      </trkpt>
      <trkpt lat="45.806" lon="4.60588">
        <ele>329.11533</ele>
        <time>2023-09-30T08:47:26.000Z</time>
      </trkpt>
      <trkpt lat="45.80604" lon="4.60586">
        <ele>328.91022</ele>
        <time>2023-09-30T08:47:27.000Z</time>
      </trkpt>
      <trkpt lat="45.80608" lon="4.60583">
        <ele>328.6821</ele>
        <time>2023-09-30T08:47:28.000Z</time>
      </trkpt>
      <trkpt lat="45.80613" lon="4.6058">
        <ele>328.55423</ele>
        <time>2023-09-30T08:47:29.000Z</time>
      </trkpt>
      <trkpt lat="45.80617" lon="4.60577">
        <ele>328.30908</ele>
        <time>2023-09-30T08:47:30.000Z</time>
      </trkpt>
      <trkpt lat="45.80621" lon="4.60573">
        <ele>327.62033</ele>
        <time>2023-09-30T08:47:31.000Z</time>
      </trkpt>
      <trkpt lat="45.80626" lon="4.60568">
        <ele>326.98322</ele>
        <time>2023-09-30T08:47:32.000Z</time>
      </trkpt>
      <trkpt lat="45.80631" lon="4.60563">
        <ele>326.32379</ele>
        <time>2023-09-30T08:47:33.000Z</time>
      </trkpt>
      <trkpt lat="45.80636" lon="4.60557">
        <ele>325.63437</ele>
        <time>2023-09-30T08:47:34.000Z</time>
      </trkpt>
      <trkpt lat="45.80642" lon="4.60551">
        <ele>324.52945</ele>
        <time>2023-09-30T08:47:35.000Z</time>
      </trkpt>
      <trkpt lat="45.80646" lon="4.60546">
        <ele>323.74316</ele>
        <time>2023-09-30T08:47:36.000Z</time>
      </trkpt>
      <trkpt lat="45.8065" lon="4.60541">
        <ele>322.91962</ele>
        <time>2023-09-30T08:47:37.000Z</time>
      </trkpt>
      <trkpt lat="45.80653" lon="4.60536">
        <ele>322.45914</ele>
        <time>2023-09-30T08:47:38.000Z</time>
      </trkpt>
      <trkpt lat="45.80655" lon="4.60532">
        <ele>321.97223</ele>
        <time>2023-09-30T08:47:39.000Z</time>
      </trkpt>
      <trkpt lat="45.80658" lon="4.6053">
        <ele>321.49762</ele>
        <time>2023-09-30T08:47:40.000Z</time>
      </trkpt>
      <trkpt lat="45.8066" lon="4.60528">
        <ele>321.03134</ele>
        <time>2023-09-30T08:47:41.000Z</time>
      </trkpt>
      <trkpt lat="45.80663" lon="4.60526">
        <ele>320.82117</ele>
        <time>2023-09-30T08:47:42.000Z</time>
      </trkpt>
      <trkpt lat="45.80665" lon="4.60524">
        <ele>320.60986</ele>
        <time>2023-09-30T08:47:43.000Z</time>
      </trkpt>
      <trkpt lat="45.80666" lon="4.60521">
        <ele>320.44427</ele>
        <time>2023-09-30T08:47:44.000Z</time>
      </trkpt>
      <trkpt lat="45.80667" lon="4.60518">
        <ele>319.86826</ele>
        <time>2023-09-30T08:47:45.000Z</time>
      </trkpt>
      <trkpt lat="45.80667" lon="4.60514">
        <ele>319.39838</ele>
        <time>2023-09-30T08:47:46.000Z</time>
      </trkpt>
      <trkpt lat="45.80665" lon="4.6051">
        <ele>318.93604</ele>
        <time>2023-09-30T08:47:47.000Z</time>
      </trkpt>
      <trkpt lat="45.80665" lon="4.60506">
        <ele>318.34924</ele>
        <time>2023-09-30T08:47:48.000Z</time>
      </trkpt>
      <trkpt lat="45.80666" lon="4.60504">
        <ele>317.65955</ele>
        <time>2023-09-30T08:47:49.000Z</time>
      </trkpt>
      <trkpt lat="45.80671" lon="4.6051">
        <ele>316.93484</ele>
        <time>2023-09-30T08:47:50.000Z</time>
      </trkpt>
      <trkpt lat="45.80671" lon="4.60515">
        <ele>316.66806</ele>
        <time>2023-09-30T08:47:51.000Z</time>
      </trkpt>
      <trkpt lat="45.80671" lon="4.6052">
        <ele>316.34814</ele>
        <time>2023-09-30T08:47:52.000Z</time>
      </trkpt>
      <trkpt lat="45.8067" lon="4.60525">
        <ele>316.07422</ele>
        <time>2023-09-30T08:47:53.000Z</time>
      </trkpt>
      <trkpt lat="45.80668" lon="4.6053">
        <ele>315.82657</ele>
        <time>2023-09-30T08:47:54.000Z</time>
      </trkpt>
      <trkpt lat="45.80667" lon="4.60535">
        <ele>315.88934</ele>
        <time>2023-09-30T08:47:55.000Z</time>
      </trkpt>
      <trkpt lat="45.80666" lon="4.60539">
        <ele>316.00336</ele>
        <time>2023-09-30T08:47:56.000Z</time>
      </trkpt>
      <trkpt lat="45.80665" lon="4.60545">
        <ele>316.12222</ele>
        <time>2023-09-30T08:47:57.000Z</time>
      </trkpt>
      <trkpt lat="45.80665" lon="4.6055">
        <ele>315.91785</ele>
        <time>2023-09-30T08:47:58.000Z</time>
      </trkpt>
      <trkpt lat="45.80663" lon="4.60555">
        <ele>315.72617</ele>
        <time>2023-09-30T08:47:59.000Z</time>
      </trkpt>
      <trkpt lat="45.80662" lon="4.60561">
        <ele>315.54355</ele>
        <time>2023-09-30T08:48:00.000Z</time>
      </trkpt>
      <trkpt lat="45.80661" lon="4.60566">
        <ele>315.37912</ele>
        <time>2023-09-30T08:48:01.000Z</time>
      </trkpt>
      <trkpt lat="45.80659" lon="4.60571">
        <ele>314.97858</ele>
        <time>2023-09-30T08:48:02.000Z</time>
      </trkpt>
      <trkpt lat="45.80658" lon="4.60577">
        <ele>314.60666</ele>
        <time>2023-09-30T08:48:03.000Z</time>
      </trkpt>
      <trkpt lat="45.80657" lon="4.60582">
        <ele>314.19519</ele>
        <time>2023-09-30T08:48:04.000Z</time>
      </trkpt>
      <trkpt lat="45.80655" lon="4.60587">
        <ele>314.27139</ele>
        <time>2023-09-30T08:48:05.000Z</time>
      </trkpt>
      <trkpt lat="45.80654" lon="4.60592">
        <ele>314.24603</ele>
        <time>2023-09-30T08:48:06.000Z</time>
      </trkpt>
      <trkpt lat="45.80652" lon="4.60597">
        <ele>314.26843</ele>
        <time>2023-09-30T08:48:07.000Z</time>
      </trkpt>
      <trkpt lat="45.80651" lon="4.60603">
        <ele>314.2825</ele>
        <time>2023-09-30T08:48:08.000Z</time>
      </trkpt>
      <trkpt lat="45.8065" lon="4.60608">
        <ele>314.32684</ele>
        <time>2023-09-30T08:48:09.000Z</time>
      </trkpt>
      <trkpt lat="45.80649" lon="4.60613">
        <ele>314.45197</ele>
        <time>2023-09-30T08:48:10.000Z</time>
      </trkpt>
      <trkpt lat="45.80647" lon="4.60619">
        <ele>314.58282</ele>
        <time>2023-09-30T08:48:11.000Z</time>
      </trkpt>
      <trkpt lat="45.80646" lon="4.60624">
        <ele>314.73969</ele>
        <time>2023-09-30T08:48:12.000Z</time>
      </trkpt>
      <trkpt lat="45.80645" lon="4.60629">
        <ele>314.909</ele>
        <time>2023-09-30T08:48:13.000Z</time>
      </trkpt>
      <trkpt lat="45.80644" lon="4.60634">
        <ele>315.07651</ele>
        <time>2023-09-30T08:48:14.000Z</time>
      </trkpt>
      <trkpt lat="45.80643" lon="4.60639">
        <ele>315.30313</ele>
        <time>2023-09-30T08:48:15.000Z</time>
      </trkpt>
      <trkpt lat="45.80641" lon="4.60644">
        <ele>315.51056</ele>
        <time>2023-09-30T08:48:16.000Z</time>
      </trkpt>
      <trkpt lat="45.8064" lon="4.6065">
        <ele>315.71918</ele>
        <time>2023-09-30T08:48:17.000Z</time>
      </trkpt>
      <trkpt lat="45.80638" lon="4.60654">
        <ele>315.96182</ele>
        <time>2023-09-30T08:48:18.000Z</time>
      </trkpt>
      <trkpt lat="45.80637" lon="4.60659">
        <ele>316.23083</ele>
        <time>2023-09-30T08:48:19.000Z</time>
      </trkpt>
      <trkpt lat="45.80635" lon="4.60664">
        <ele>316.52313</ele>
        <time>2023-09-30T08:48:20.000Z</time>
      </trkpt>
      <trkpt lat="45.80634" lon="4.60669">
        <ele>316.81964</ele>
        <time>2023-09-30T08:48:21.000Z</time>
      </trkpt>
      <trkpt lat="45.80632" lon="4.60675">
        <ele>317.12827</ele>
        <time>2023-09-30T08:48:22.000Z</time>
      </trkpt>
      <trkpt lat="45.80631" lon="4.6068">
        <ele>317.69232</ele>
        <time>2023-09-30T08:48:23.000Z</time>
      </trkpt>
      <trkpt lat="45.80629" lon="4.60685">
        <ele>318.29657</ele>
        <time>2023-09-30T08:48:24.000Z</time>
      </trkpt>
      <trkpt lat="45.80628" lon="4.6069">
        <ele>318.51953</ele>
        <time>2023-09-30T08:48:25.000Z</time>
      </trkpt>
      <trkpt lat="45.80626" lon="4.60695">
        <ele>318.83032</ele>
        <time>2023-09-30T08:48:26.000Z</time>
      </trkpt>
      <trkpt lat="45.80625" lon="4.60701">
        <ele>319.13855</ele>
        <time>2023-09-30T08:48:27.000Z</time>
      </trkpt>
      <trkpt lat="45.80623" lon="4.60706">
        <ele>319.45593</ele>
        <time>2023-09-30T08:48:28.000Z</time>
      </trkpt>
      <trkpt lat="45.80622" lon="4.60711">
        <ele>319.76492</ele>
        <time>2023-09-30T08:48:29.000Z</time>
      </trkpt>
      <trkpt lat="45.8062" lon="4.60716">
        <ele>320.06226</ele>
        <time>2023-09-30T08:48:30.000Z</time>
      </trkpt>
      <trkpt lat="45.80618" lon="4.60721">
        <ele>320.49323</ele>
        <time>2023-09-30T08:48:31.000Z</time>
      </trkpt>
      <trkpt lat="45.80616" lon="4.60727">
        <ele>321.00616</ele>
        <time>2023-09-30T08:48:32.000Z</time>
      </trkpt>
      <trkpt lat="45.80614" lon="4.60731">
        <ele>321.53061</ele>
        <time>2023-09-30T08:48:33.000Z</time>
      </trkpt>
      <trkpt lat="45.80612" lon="4.60736">
        <ele>321.63953</ele>
        <time>2023-09-30T08:48:34.000Z</time>
      </trkpt>
      <trkpt lat="45.80609" lon="4.60741">
        <ele>321.79199</ele>
        <time>2023-09-30T08:48:35.000Z</time>
      </trkpt>
      <trkpt lat="45.80607" lon="4.60746">
        <ele>321.97318</ele>
        <time>2023-09-30T08:48:36.000Z</time>
      </trkpt>
      <trkpt lat="45.80604" lon="4.6075">
        <ele>322.112</ele>
        <time>2023-09-30T08:48:37.000Z</time>
      </trkpt>
      <trkpt lat="45.80601" lon="4.60754">
        <ele>322.25119</ele>
        <time>2023-09-30T08:48:38.000Z</time>
      </trkpt>
      <trkpt lat="45.80599" lon="4.60757">
        <ele>322.33881</ele>
        <time>2023-09-30T08:48:39.000Z</time>
      </trkpt>
      <trkpt lat="45.80596" lon="4.60761">
        <ele>322.41034</ele>
        <time>2023-09-30T08:48:40.000Z</time>
      </trkpt>
      <trkpt lat="45.80592" lon="4.60764">
        <ele>322.65839</ele>
        <time>2023-09-30T08:48:41.000Z</time>
      </trkpt>
      <trkpt lat="45.80589" lon="4.60768">
        <ele>322.94522</ele>
        <time>2023-09-30T08:48:42.000Z</time>
      </trkpt>
      <trkpt lat="45.80586" lon="4.60772">
        <ele>322.78659</ele>
        <time>2023-09-30T08:48:43.000Z</time>
      </trkpt>
      <trkpt lat="45.80582" lon="4.60777">
        <ele>322.55344</ele>
        <time>2023-09-30T08:48:44.000Z</time>
      </trkpt>
      <trkpt lat="45.80579" lon="4.6078">
        <ele>322.64166</ele>
        <time>2023-09-30T08:48:45.000Z</time>
      </trkpt>
      <trkpt lat="45.80576" lon="4.60783">
        <ele>322.63333</ele>
        <time>2023-09-30T08:48:46.000Z</time>
      </trkpt>
      <trkpt lat="45.80572" lon="4.60786">
        <ele>322.69998</ele>
        <time>2023-09-30T08:48:47.000Z</time>
      </trkpt>
      <trkpt lat="45.80569" lon="4.60789">
        <ele>322.48453</ele>
        <time>2023-09-30T08:48:48.000Z</time>
      </trkpt>
      <trkpt lat="45.80564" lon="4.60791">
        <ele>322.2645</ele>
        <time>2023-09-30T08:48:49.000Z</time>
      </trkpt>
      <trkpt lat="45.80561" lon="4.60792">
        <ele>322.05057</ele>
        <time>2023-09-30T08:48:50.000Z</time>
      </trkpt>
      <trkpt lat="45.80556" lon="4.60794">
        <ele>321.65738</ele>
        <time>2023-09-30T08:48:51.000Z</time>
      </trkpt>
      <trkpt lat="45.80553" lon="4.60793">
        <ele>321.18976</ele>
        <time>2023-09-30T08:48:52.000Z</time>
      </trkpt>
      <trkpt lat="45.80549" lon="4.60791">
        <ele>320.65973</ele>
        <time>2023-09-30T08:48:53.000Z</time>
      </trkpt>
      <trkpt lat="45.80545" lon="4.6079">
        <ele>320.57516</ele>
        <time>2023-09-30T08:48:54.000Z</time>
      </trkpt>
      <trkpt lat="45.80541" lon="4.60789">
        <ele>320.48325</ele>
        <time>2023-09-30T08:48:55.000Z</time>
      </trkpt>
      <trkpt lat="45.80538" lon="4.60789">
        <ele>320.41486</ele>
        <time>2023-09-30T08:48:56.000Z</time>
      </trkpt>
      <trkpt lat="45.80534" lon="4.6079">
        <ele>320.38458</ele>
        <time>2023-09-30T08:48:57.000Z</time>
      </trkpt>
      <trkpt lat="45.8053" lon="4.60791">
        <ele>320.32782</ele>
        <time>2023-09-30T08:48:58.000Z</time>
      </trkpt>
      <trkpt lat="45.80527" lon="4.60793">
        <ele>320.40231</ele>
        <time>2023-09-30T08:48:59.000Z</time>
      </trkpt>
      <trkpt lat="45.80524" lon="4.60795">
        <ele>320.43069</ele>
        <time>2023-09-30T08:49:00.000Z</time>
      </trkpt>
      <trkpt lat="45.80521" lon="4.60799">
        <ele>320.35199</ele>
        <time>2023-09-30T08:49:01.000Z</time>
      </trkpt>
      <trkpt lat="45.80517" lon="4.60803">
        <ele>320.13593</ele>
        <time>2023-09-30T08:49:02.000Z</time>
      </trkpt>
      <trkpt lat="45.80514" lon="4.60808">
        <ele>320.57428</ele>
        <time>2023-09-30T08:49:03.000Z</time>
      </trkpt>
      <trkpt lat="45.8051" lon="4.60817">
        <ele>320.97955</ele>
        <time>2023-09-30T08:49:04.000Z</time>
      </trkpt>
      <trkpt lat="45.80506" lon="4.60822">
        <ele>321.65533</ele>
        <time>2023-09-30T08:49:05.000Z</time>
      </trkpt>
      <trkpt lat="45.80505" lon="4.60827">
        <ele>322.38074</ele>
        <time>2023-09-30T08:49:06.000Z</time>
      </trkpt>
      <trkpt lat="45.80503" lon="4.60834">
        <ele>323.04645</ele>
        <time>2023-09-30T08:49:07.000Z</time>
      </trkpt>
      <trkpt lat="45.80499" lon="4.60842">
        <ele>323.43555</ele>
        <time>2023-09-30T08:49:08.000Z</time>
      </trkpt>
      <trkpt lat="45.80497" lon="4.60848">
        <ele>323.93536</ele>
        <time>2023-09-30T08:49:09.000Z</time>
      </trkpt>
      <trkpt lat="45.80496" lon="4.60854">
        <ele>324.43878</ele>
        <time>2023-09-30T08:49:10.000Z</time>
      </trkpt>
      <trkpt lat="45.80494" lon="4.60862">
        <ele>324.95663</ele>
        <time>2023-09-30T08:49:11.000Z</time>
      </trkpt>
      <trkpt lat="45.80493" lon="4.60868">
        <ele>325.46585</ele>
        <time>2023-09-30T08:49:12.000Z</time>
      </trkpt>
      <trkpt lat="45.80493" lon="4.60874">
        <ele>326.04044</ele>
        <time>2023-09-30T08:49:13.000Z</time>
      </trkpt>
      <trkpt lat="45.8049" lon="4.60882">
        <ele>326.56342</ele>
        <time>2023-09-30T08:49:14.000Z</time>
      </trkpt>
      <trkpt lat="45.80488" lon="4.6089">
        <ele>327.13834</ele>
        <time>2023-09-30T08:49:15.000Z</time>
      </trkpt>
      <trkpt lat="45.80487" lon="4.60895">
        <ele>327.70642</ele>
        <time>2023-09-30T08:49:16.000Z</time>
      </trkpt>
      <trkpt lat="45.80485" lon="4.60902">
        <ele>328.43869</ele>
        <time>2023-09-30T08:49:17.000Z</time>
      </trkpt>
      <trkpt lat="45.80483" lon="4.60908">
        <ele>329.2113</ele>
        <time>2023-09-30T08:49:18.000Z</time>
      </trkpt>
      <trkpt lat="45.80481" lon="4.60913">
        <ele>329.38205</ele>
        <time>2023-09-30T08:49:19.000Z</time>
      </trkpt>
      <trkpt lat="45.80479" lon="4.60917">
        <ele>329.72543</ele>
        <time>2023-09-30T08:49:20.000Z</time>
      </trkpt>
      <trkpt lat="45.80476" lon="4.60925">
        <ele>330.00125</ele>
        <time>2023-09-30T08:49:21.000Z</time>
      </trkpt>
      <trkpt lat="45.80472" lon="4.60931">
        <ele>330.29108</ele>
        <time>2023-09-30T08:49:22.000Z</time>
      </trkpt>
      <trkpt lat="45.8047" lon="4.60939">
        <ele>330.08322</ele>
        <time>2023-09-30T08:49:23.000Z</time>
      </trkpt>
      <trkpt lat="45.80467" lon="4.60944">
        <ele>329.9693</ele>
        <time>2023-09-30T08:49:24.000Z</time>
      </trkpt>
      <trkpt lat="45.80465" lon="4.60951">
        <ele>329.60571</ele>
        <time>2023-09-30T08:49:25.000Z</time>
      </trkpt>
      <trkpt lat="45.80463" lon="4.60956">
        <ele>329.17648</ele>
        <time>2023-09-30T08:49:26.000Z</time>
      </trkpt>
      <trkpt lat="45.8046" lon="4.60962">
        <ele>328.6637</ele>
        <time>2023-09-30T08:49:27.000Z</time>
      </trkpt>
      <trkpt lat="45.80458" lon="4.60965">
        <ele>328.6474</ele>
        <time>2023-09-30T08:49:28.000Z</time>
      </trkpt>
      <trkpt lat="45.80456" lon="4.6097">
        <ele>328.48981</ele>
        <time>2023-09-30T08:49:29.000Z</time>
      </trkpt>
      <trkpt lat="45.80452" lon="4.60974">
        <ele>328.29205</ele>
        <time>2023-09-30T08:49:30.000Z</time>
      </trkpt>
      <trkpt lat="45.80448" lon="4.60978">
        <ele>328.14807</ele>
        <time>2023-09-30T08:49:31.000Z</time>
      </trkpt>
      <trkpt lat="45.80445" lon="4.60983">
        <ele>328.01605</ele>
        <time>2023-09-30T08:49:32.000Z</time>
      </trkpt>
      <trkpt lat="45.80442" lon="4.60987">
        <ele>327.91101</ele>
        <time>2023-09-30T08:49:33.000Z</time>
      </trkpt>
      <trkpt lat="45.8044" lon="4.60992">
        <ele>327.80399</ele>
        <time>2023-09-30T08:49:34.000Z</time>
      </trkpt>
      <trkpt lat="45.80438" lon="4.60994">
        <ele>327.6282</ele>
        <time>2023-09-30T08:49:35.000Z</time>
      </trkpt>
      <trkpt lat="45.80434" lon="4.61001">
        <ele>327.37628</ele>
        <time>2023-09-30T08:49:36.000Z</time>
      </trkpt>
      <trkpt lat="45.80431" lon="4.61007">
        <ele>326.90765</ele>
        <time>2023-09-30T08:49:37.000Z</time>
      </trkpt>
      <trkpt lat="45.80428" lon="4.61011">
        <ele>326.60175</ele>
        <time>2023-09-30T08:49:38.000Z</time>
      </trkpt>
      <trkpt lat="45.80425" lon="4.61019">
        <ele>326.83353</ele>
        <time>2023-09-30T08:49:39.000Z</time>
      </trkpt>
      <trkpt lat="45.80422" lon="4.61023">
        <ele>327.05124</ele>
        <time>2023-09-30T08:49:40.000Z</time>
      </trkpt>
      <trkpt lat="45.80417" lon="4.61029">
        <ele>327.27145</ele>
        <time>2023-09-30T08:49:41.000Z</time>
      </trkpt>
      <trkpt lat="45.80411" lon="4.61036">
        <ele>327.49991</ele>
        <time>2023-09-30T08:49:42.000Z</time>
      </trkpt>
      <trkpt lat="45.80406" lon="4.61041">
        <ele>327.80865</ele>
        <time>2023-09-30T08:49:43.000Z</time>
      </trkpt>
      <trkpt lat="45.80401" lon="4.61048">
        <ele>327.74554</ele>
        <time>2023-09-30T08:49:44.000Z</time>
      </trkpt>
      <trkpt lat="45.80397" lon="4.61052">
        <ele>327.71747</ele>
        <time>2023-09-30T08:49:45.000Z</time>
      </trkpt>
      <trkpt lat="45.80392" lon="4.61056">
        <ele>327.72449</ele>
        <time>2023-09-30T08:49:46.000Z</time>
      </trkpt>
      <trkpt lat="45.80386" lon="4.6106">
        <ele>327.71591</ele>
        <time>2023-09-30T08:49:47.000Z</time>
      </trkpt>
      <trkpt lat="45.8038" lon="4.61065">
        <ele>327.71921</ele>
        <time>2023-09-30T08:49:48.000Z</time>
      </trkpt>
      <trkpt lat="45.80375" lon="4.61067">
        <ele>327.76028</ele>
        <time>2023-09-30T08:49:49.000Z</time>
      </trkpt>
      <trkpt lat="45.8037" lon="4.61074">
        <ele>327.80096</ele>
        <time>2023-09-30T08:49:50.000Z</time>
      </trkpt>
      <trkpt lat="45.80365" lon="4.61077">
        <ele>327.90573</ele>
        <time>2023-09-30T08:49:51.000Z</time>
      </trkpt>
      <trkpt lat="45.8036" lon="4.61084">
        <ele>327.94223</ele>
        <time>2023-09-30T08:49:52.000Z</time>
      </trkpt>
      <trkpt lat="45.80355" lon="4.61088">
        <ele>327.78717</ele>
        <time>2023-09-30T08:49:53.000Z</time>
      </trkpt>
      <trkpt lat="45.80352" lon="4.61093">
        <ele>327.65735</ele>
        <time>2023-09-30T08:49:54.000Z</time>
      </trkpt>
      <trkpt lat="45.80347" lon="4.611">
        <ele>327.65057</ele>
        <time>2023-09-30T08:49:55.000Z</time>
      </trkpt>
      <trkpt lat="45.80343" lon="4.61107">
        <ele>327.67889</ele>
        <time>2023-09-30T08:49:56.000Z</time>
      </trkpt>
      <trkpt lat="45.80337" lon="4.61114">
        <ele>327.73773</ele>
        <time>2023-09-30T08:49:57.000Z</time>
      </trkpt>
      <trkpt lat="45.80332" lon="4.61121">
        <ele>327.67267</ele>
        <time>2023-09-30T08:49:58.000Z</time>
      </trkpt>
      <trkpt lat="45.80326" lon="4.61127">
        <ele>327.54221</ele>
        <time>2023-09-30T08:49:59.000Z</time>
      </trkpt>
      <trkpt lat="45.80321" lon="4.61133">
        <ele>327.38104</ele>
        <time>2023-09-30T08:50:00.000Z</time>
      </trkpt>
      <trkpt lat="45.80316" lon="4.61139">
        <ele>326.85687</ele>
        <time>2023-09-30T08:50:01.000Z</time>
      </trkpt>
      <trkpt lat="45.80312" lon="4.61145">
        <ele>326.54663</ele>
        <time>2023-09-30T08:50:02.000Z</time>
      </trkpt>
      <trkpt lat="45.80306" lon="4.6115">
        <ele>326.19623</ele>
        <time>2023-09-30T08:50:03.000Z</time>
      </trkpt>
      <trkpt lat="45.80301" lon="4.61155">
        <ele>326.22162</ele>
        <time>2023-09-30T08:50:04.000Z</time>
      </trkpt>
      <trkpt lat="45.80297" lon="4.61161">
        <ele>326.14667</ele>
        <time>2023-09-30T08:50:05.000Z</time>
      </trkpt>
      <trkpt lat="45.80293" lon="4.61167">
        <ele>326.00665</ele>
        <time>2023-09-30T08:50:06.000Z</time>
      </trkpt>
      <trkpt lat="45.8029" lon="4.61174">
        <ele>325.9184</ele>
        <time>2023-09-30T08:50:07.000Z</time>
      </trkpt>
      <trkpt lat="45.80286" lon="4.61179">
        <ele>325.78815</ele>
        <time>2023-09-30T08:50:08.000Z</time>
      </trkpt>
      <trkpt lat="45.80283" lon="4.61185">
        <ele>325.66562</ele>
        <time>2023-09-30T08:50:09.000Z</time>
      </trkpt>
      <trkpt lat="45.8028" lon="4.61189">
        <ele>325.52716</ele>
        <time>2023-09-30T08:50:10.000Z</time>
      </trkpt>
      <trkpt lat="45.80276" lon="4.61196">
        <ele>325.24371</ele>
        <time>2023-09-30T08:50:11.000Z</time>
      </trkpt>
      <trkpt lat="45.80273" lon="4.61202">
        <ele>325.00195</ele>
        <time>2023-09-30T08:50:12.000Z</time>
      </trkpt>
      <trkpt lat="45.80268" lon="4.61209">
        <ele>325.00806</ele>
        <time>2023-09-30T08:50:13.000Z</time>
      </trkpt>
      <trkpt lat="45.80266" lon="4.61217">
        <ele>325.06281</ele>
        <time>2023-09-30T08:50:14.000Z</time>
      </trkpt>
      <trkpt lat="45.80261" lon="4.61224">
        <ele>324.95978</ele>
        <time>2023-09-30T08:50:15.000Z</time>
      </trkpt>
      <trkpt lat="45.80256" lon="4.61231">
        <ele>324.85907</ele>
        <time>2023-09-30T08:50:16.000Z</time>
      </trkpt>
      <trkpt lat="45.80251" lon="4.61238">
        <ele>323.71628</ele>
        <time>2023-09-30T08:50:17.000Z</time>
      </trkpt>
      <trkpt lat="45.80247" lon="4.61243">
        <ele>322.51752</ele>
        <time>2023-09-30T08:50:18.000Z</time>
      </trkpt>
      <trkpt lat="45.80241" lon="4.61249">
        <ele>321.30301</ele>
        <time>2023-09-30T08:50:19.000Z</time>
      </trkpt>
      <trkpt lat="45.80236" lon="4.61256">
        <ele>319.97824</ele>
        <time>2023-09-30T08:50:20.000Z</time>
      </trkpt>
      <trkpt lat="45.80232" lon="4.61263">
        <ele>318.99182</ele>
        <time>2023-09-30T08:50:21.000Z</time>
      </trkpt>
      <trkpt lat="45.80226" lon="4.61269">
        <ele>317.8562</ele>
        <time>2023-09-30T08:50:22.000Z</time>
      </trkpt>
      <trkpt lat="45.80221" lon="4.61275">
        <ele>316.68906</ele>
        <time>2023-09-30T08:50:23.000Z</time>
      </trkpt>
      <trkpt lat="45.80216" lon="4.6128">
        <ele>315.47736</ele>
        <time>2023-09-30T08:50:24.000Z</time>
      </trkpt>
      <trkpt lat="45.80212" lon="4.61287">
        <ele>314.3179</ele>
        <time>2023-09-30T08:50:25.000Z</time>
      </trkpt>
      <trkpt lat="45.80208" lon="4.61295">
        <ele>313.20197</ele>
        <time>2023-09-30T08:50:26.000Z</time>
      </trkpt>
      <trkpt lat="45.80205" lon="4.61303">
        <ele>312.09058</ele>
        <time>2023-09-30T08:50:27.000Z</time>
      </trkpt>
      <trkpt lat="45.80201" lon="4.61311">
        <ele>311.00903</ele>
        <time>2023-09-30T08:50:28.000Z</time>
      </trkpt>
      <trkpt lat="45.80195" lon="4.6132">
        <ele>309.87802</ele>
        <time>2023-09-30T08:50:29.000Z</time>
      </trkpt>
      <trkpt lat="45.80191" lon="4.61328">
        <ele>308.73755</ele>
        <time>2023-09-30T08:50:30.000Z</time>
      </trkpt>
      <trkpt lat="45.80187" lon="4.61336">
        <ele>307.63483</ele>
        <time>2023-09-30T08:50:31.000Z</time>
      </trkpt>
      <trkpt lat="45.80184" lon="4.61343">
        <ele>306.52997</ele>
        <time>2023-09-30T08:50:32.000Z</time>
      </trkpt>
      <trkpt lat="45.80181" lon="4.61351">
        <ele>305.3107</ele>
        <time>2023-09-30T08:50:33.000Z</time>
      </trkpt>
      <trkpt lat="45.8018" lon="4.61358">
        <ele>304.04388</ele>
        <time>2023-09-30T08:50:34.000Z</time>
      </trkpt>
      <trkpt lat="45.8018" lon="4.61364">
        <ele>302.76804</ele>
        <time>2023-09-30T08:50:35.000Z</time>
      </trkpt>
      <trkpt lat="45.80182" lon="4.61367">
        <ele>301.49377</ele>
        <time>2023-09-30T08:50:36.000Z</time>
      </trkpt>
      <trkpt lat="45.80185" lon="4.61369">
        <ele>301.33478</ele>
        <time>2023-09-30T08:50:37.000Z</time>
      </trkpt>
      <trkpt lat="45.8019" lon="4.6137">
        <ele>301.14789</ele>
        <time>2023-09-30T08:50:38.000Z</time>
      </trkpt>
      <trkpt lat="45.80195" lon="4.6137">
        <ele>300.95364</ele>
        <time>2023-09-30T08:50:39.000Z</time>
      </trkpt>
      <trkpt lat="45.80199" lon="4.61371">
        <ele>300.76154</ele>
        <time>2023-09-30T08:50:40.000Z</time>
      </trkpt>
      <trkpt lat="45.80204" lon="4.61371">
        <ele>300.61218</ele>
        <time>2023-09-30T08:50:41.000Z</time>
      </trkpt>
      <trkpt lat="45.80208" lon="4.61372">
        <ele>300.4588</ele>
        <time>2023-09-30T08:50:42.000Z</time>
      </trkpt>
      <trkpt lat="45.80212" lon="4.61372">
        <ele>300.25064</ele>
        <time>2023-09-30T08:50:43.000Z</time>
      </trkpt>
      <trkpt lat="45.80217" lon="4.6137">
        <ele>300.04236</ele>
        <time>2023-09-30T08:50:44.000Z</time>
      </trkpt>
      <trkpt lat="45.80222" lon="4.61369">
        <ele>299.8703</ele>
        <time>2023-09-30T08:50:45.000Z</time>
      </trkpt>
      <trkpt lat="45.80226" lon="4.61364">
        <ele>299.65002</ele>
        <time>2023-09-30T08:50:46.000Z</time>
      </trkpt>
      <trkpt lat="45.80231" lon="4.6136">
        <ele>299.44122</ele>
        <time>2023-09-30T08:50:47.000Z</time>
      </trkpt>
      <trkpt lat="45.80235" lon="4.61357">
        <ele>299.31195</ele>
        <time>2023-09-30T08:50:48.000Z</time>
      </trkpt>
      <trkpt lat="45.80239" lon="4.61353">
        <ele>299.22327</ele>
        <time>2023-09-30T08:50:49.000Z</time>
      </trkpt>
      <trkpt lat="45.80243" lon="4.61348">
        <ele>299.19699</ele>
        <time>2023-09-30T08:50:50.000Z</time>
      </trkpt>
      <trkpt lat="45.80246" lon="4.61345">
        <ele>299.17474</ele>
        <time>2023-09-30T08:50:51.000Z</time>
      </trkpt>
      <trkpt lat="45.80249" lon="4.61339">
        <ele>299.16714</ele>
        <time>2023-09-30T08:50:52.000Z</time>
      </trkpt>
      <trkpt lat="45.80252" lon="4.61334">
        <ele>299.14203</ele>
        <time>2023-09-30T08:50:53.000Z</time>
      </trkpt>
      <trkpt lat="45.80255" lon="4.61331">
        <ele>299.11554</ele>
        <time>2023-09-30T08:50:54.000Z</time>
      </trkpt>
      <trkpt lat="45.80259" lon="4.61325">
        <ele>299.11478</ele>
        <time>2023-09-30T08:50:55.000Z</time>
      </trkpt>
      <trkpt lat="45.80262" lon="4.6132">
        <ele>299.13361</ele>
        <time>2023-09-30T08:50:56.000Z</time>
      </trkpt>
      <trkpt lat="45.80265" lon="4.61314">
        <ele>299.04709</ele>
        <time>2023-09-30T08:50:57.000Z</time>
      </trkpt>
      <trkpt lat="45.80269" lon="4.61311">
        <ele>298.95886</ele>
        <time>2023-09-30T08:50:58.000Z</time>
      </trkpt>
      <trkpt lat="45.80272" lon="4.61307">
        <ele>298.90778</ele>
        <time>2023-09-30T08:50:59.000Z</time>
      </trkpt>
      <trkpt lat="45.80276" lon="4.61304">
        <ele>298.89365</ele>
        <time>2023-09-30T08:51:00.000Z</time>
      </trkpt>
      <trkpt lat="45.80279" lon="4.613">
        <ele>298.82556</ele>
        <time>2023-09-30T08:51:01.000Z</time>
      </trkpt>
      <trkpt lat="45.80283" lon="4.61299">
        <ele>298.73605</ele>
        <time>2023-09-30T08:51:02.000Z</time>
      </trkpt>
      <trkpt lat="45.80287" lon="4.61298">
        <ele>298.71225</ele>
        <time>2023-09-30T08:51:03.000Z</time>
      </trkpt>
      <trkpt lat="45.80292" lon="4.61295">
        <ele>298.69894</ele>
        <time>2023-09-30T08:51:04.000Z</time>
      </trkpt>
      <trkpt lat="45.80296" lon="4.6129">
        <ele>298.67807</ele>
        <time>2023-09-30T08:51:05.000Z</time>
      </trkpt>
      <trkpt lat="45.80301" lon="4.61286">
        <ele>298.7204</ele>
        <time>2023-09-30T08:51:06.000Z</time>
      </trkpt>
      <trkpt lat="45.80306" lon="4.6128">
        <ele>298.71655</ele>
        <time>2023-09-30T08:51:07.000Z</time>
      </trkpt>
      <trkpt lat="45.8031" lon="4.61274">
        <ele>298.66187</ele>
        <time>2023-09-30T08:51:08.000Z</time>
      </trkpt>
      <trkpt lat="45.80315" lon="4.61268">
        <ele>298.58441</ele>
        <time>2023-09-30T08:51:09.000Z</time>
      </trkpt>
      <trkpt lat="45.8032" lon="4.61262">
        <ele>298.48431</ele>
        <time>2023-09-30T08:51:10.000Z</time>
      </trkpt>
      <trkpt lat="45.80326" lon="4.61255">
        <ele>298.38486</ele>
        <time>2023-09-30T08:51:11.000Z</time>
      </trkpt>
      <trkpt lat="45.80331" lon="4.61249">
        <ele>298.32294</ele>
        <time>2023-09-30T08:51:12.000Z</time>
      </trkpt>
      <trkpt lat="45.80336" lon="4.61243">
        <ele>298.28104</ele>
        <time>2023-09-30T08:51:13.000Z</time>
      </trkpt>
      <trkpt lat="45.80341" lon="4.61236">
        <ele>298.21503</ele>
        <time>2023-09-30T08:51:14.000Z</time>
      </trkpt>
      <trkpt lat="45.80347" lon="4.61229">
        <ele>298.27679</ele>
        <time>2023-09-30T08:51:15.000Z</time>
      </trkpt>
      <trkpt lat="45.80352" lon="4.61222">
        <ele>298.29965</ele>
        <time>2023-09-30T08:51:16.000Z</time>
      </trkpt>
      <trkpt lat="45.80358" lon="4.61215">
        <ele>298.35178</ele>
        <time>2023-09-30T08:51:17.000Z</time>
      </trkpt>
      <trkpt lat="45.80363" lon="4.61209">
        <ele>298.40851</ele>
        <time>2023-09-30T08:51:18.000Z</time>
      </trkpt>
      <trkpt lat="45.80369" lon="4.61202">
        <ele>298.31265</ele>
        <time>2023-09-30T08:51:19.000Z</time>
      </trkpt>
      <trkpt lat="45.80375" lon="4.61194">
        <ele>298.18997</ele>
        <time>2023-09-30T08:51:20.000Z</time>
      </trkpt>
      <trkpt lat="45.80381" lon="4.61189">
        <ele>298.10657</ele>
        <time>2023-09-30T08:51:21.000Z</time>
      </trkpt>
      <trkpt lat="45.80388" lon="4.61183">
        <ele>298.01898</ele>
        <time>2023-09-30T08:51:22.000Z</time>
      </trkpt>
      <trkpt lat="45.80395" lon="4.61177">
        <ele>297.93011</ele>
        <time>2023-09-30T08:51:23.000Z</time>
      </trkpt>
      <trkpt lat="45.80402" lon="4.61172">
        <ele>297.85675</ele>
        <time>2023-09-30T08:51:24.000Z</time>
      </trkpt>
      <trkpt lat="45.80409" lon="4.61167">
        <ele>297.76993</ele>
        <time>2023-09-30T08:51:25.000Z</time>
      </trkpt>
      <trkpt lat="45.80417" lon="4.61163">
        <ele>297.66925</ele>
        <time>2023-09-30T08:51:26.000Z</time>
      </trkpt>
      <trkpt lat="45.80424" lon="4.61158">
        <ele>297.60928</ele>
        <time>2023-09-30T08:51:27.000Z</time>
      </trkpt>
      <trkpt lat="45.80433" lon="4.61156">
        <ele>297.53818</ele>
        <time>2023-09-30T08:51:28.000Z</time>
      </trkpt>
      <trkpt lat="45.80441" lon="4.61153">
        <ele>297.4787</ele>
        <time>2023-09-30T08:51:29.000Z</time>
      </trkpt>
      <trkpt lat="45.8045" lon="4.6115">
        <ele>297.42944</ele>
        <time>2023-09-30T08:51:30.000Z</time>
      </trkpt>
      <trkpt lat="45.80458" lon="4.61146">
        <ele>297.35205</ele>
        <time>2023-09-30T08:51:31.000Z</time>
      </trkpt>
      <trkpt lat="45.80466" lon="4.61144">
        <ele>297.24637</ele>
        <time>2023-09-30T08:51:32.000Z</time>
      </trkpt>
      <trkpt lat="45.80474" lon="4.6114">
        <ele>297.22208</ele>
        <time>2023-09-30T08:51:33.000Z</time>
      </trkpt>
      <trkpt lat="45.80482" lon="4.61135">
        <ele>297.21393</ele>
        <time>2023-09-30T08:51:34.000Z</time>
      </trkpt>
      <trkpt lat="45.80491" lon="4.61132">
        <ele>297.01233</ele>
        <time>2023-09-30T08:51:35.000Z</time>
      </trkpt>
      <trkpt lat="45.805" lon="4.61128">
        <ele>296.8584</ele>
        <time>2023-09-30T08:51:36.000Z</time>
      </trkpt>
      <trkpt lat="45.80507" lon="4.61124">
        <ele>296.75742</ele>
        <time>2023-09-30T08:51:37.000Z</time>
      </trkpt>
      <trkpt lat="45.80516" lon="4.61118">
        <ele>296.44586</ele>
        <time>2023-09-30T08:51:38.000Z</time>
      </trkpt>
      <trkpt lat="45.80522" lon="4.6111">
        <ele>296.30911</ele>
        <time>2023-09-30T08:51:39.000Z</time>
      </trkpt>
      <trkpt lat="45.80528" lon="4.61101">
        <ele>296.14935</ele>
        <time>2023-09-30T08:51:40.000Z</time>
      </trkpt>
      <trkpt lat="45.80533" lon="4.61092">
        <ele>296.15158</ele>
        <time>2023-09-30T08:51:41.000Z</time>
      </trkpt>
      <trkpt lat="45.80537" lon="4.61081">
        <ele>295.78848</ele>
        <time>2023-09-30T08:51:42.000Z</time>
      </trkpt>
      <trkpt lat="45.80542" lon="4.61072">
        <ele>295.41006</ele>
        <time>2023-09-30T08:51:43.000Z</time>
      </trkpt>
      <trkpt lat="45.80547" lon="4.61062">
        <ele>295.00778</ele>
        <time>2023-09-30T08:51:44.000Z</time>
      </trkpt>
      <trkpt lat="45.80553" lon="4.61054">
        <ele>294.72525</ele>
        <time>2023-09-30T08:51:45.000Z</time>
      </trkpt>
      <trkpt lat="45.8056" lon="4.61048">
        <ele>296.12698</ele>
        <time>2023-09-30T08:51:46.000Z</time>
      </trkpt>
      <trkpt lat="45.80567" lon="4.61043">
        <ele>297.51794</ele>
        <time>2023-09-30T08:51:47.000Z</time>
      </trkpt>
      <trkpt lat="45.80573" lon="4.61039">
        <ele>298.99127</ele>
        <time>2023-09-30T08:51:48.000Z</time>
      </trkpt>
      <trkpt lat="45.80578" lon="4.61037">
        <ele>300.47479</ele>
        <time>2023-09-30T08:51:49.000Z</time>
      </trkpt>
      <trkpt lat="45.80583" lon="4.61035">
        <ele>301.92892</ele>
        <time>2023-09-30T08:51:50.000Z</time>
      </trkpt>
      <trkpt lat="45.80587" lon="4.61033">
        <ele>303.41437</ele>
        <time>2023-09-30T08:51:51.000Z</time>
      </trkpt>
      <trkpt lat="45.8059" lon="4.61032">
        <ele>304.88126</ele>
        <time>2023-09-30T08:51:52.000Z</time>
      </trkpt>
      <trkpt lat="45.80594" lon="4.61031">
        <ele>306.24823</ele>
        <time>2023-09-30T08:51:53.000Z</time>
      </trkpt>
      <trkpt lat="45.80597" lon="4.61028">
        <ele>307.61783</ele>
        <time>2023-09-30T08:51:54.000Z</time>
      </trkpt>
      <trkpt lat="45.806" lon="4.61024">
        <ele>309.04712</ele>
        <time>2023-09-30T08:51:55.000Z</time>
      </trkpt>
      <trkpt lat="45.80603" lon="4.61022">
        <ele>310.49442</ele>
        <time>2023-09-30T08:51:56.000Z</time>
      </trkpt>
      <trkpt lat="45.80607" lon="4.61019">
        <ele>312.07779</ele>
        <time>2023-09-30T08:51:57.000Z</time>
      </trkpt>
      <trkpt lat="45.80609" lon="4.61017">
        <ele>314.29022</ele>
        <time>2023-09-30T08:51:58.000Z</time>
      </trkpt>
      <trkpt lat="45.80612" lon="4.61014">
        <ele>316.66638</ele>
        <time>2023-09-30T08:51:59.000Z</time>
      </trkpt>
      <trkpt lat="45.80615" lon="4.61011">
        <ele>319.27127</ele>
        <time>2023-09-30T08:52:00.000Z</time>
      </trkpt>
      <trkpt lat="45.80618" lon="4.61008">
        <ele>321.14828</ele>
        <time>2023-09-30T08:52:01.000Z</time>
      </trkpt>
      <trkpt lat="45.80621" lon="4.61005">
        <ele>323.37634</ele>
        <time>2023-09-30T08:52:02.000Z</time>
      </trkpt>
      <trkpt lat="45.80625" lon="4.61002">
        <ele>325.61792</ele>
        <time>2023-09-30T08:52:03.000Z</time>
      </trkpt>
      <trkpt lat="45.80628" lon="4.61">
        <ele>327.04767</ele>
        <time>2023-09-30T08:52:04.000Z</time>
      </trkpt>
      <trkpt lat="45.8063" lon="4.60997">
        <ele>328.66742</ele>
        <time>2023-09-30T08:52:05.000Z</time>
      </trkpt>
      <trkpt lat="45.80633" lon="4.60995">
        <ele>328.49561</ele>
        <time>2023-09-30T08:52:06.000Z</time>
      </trkpt>
      <trkpt lat="45.80636" lon="4.60992">
        <ele>328.30649</ele>
        <time>2023-09-30T08:52:07.000Z</time>
      </trkpt>
      <trkpt lat="45.80639" lon="4.60989">
        <ele>328.16824</ele>
        <time>2023-09-30T08:52:08.000Z</time>
      </trkpt>
      <trkpt lat="45.80641" lon="4.60986">
        <ele>328.01215</ele>
        <time>2023-09-30T08:52:09.000Z</time>
      </trkpt>
      <trkpt lat="45.80644" lon="4.60984">
        <ele>327.89383</ele>
        <time>2023-09-30T08:52:10.000Z</time>
      </trkpt>
      <trkpt lat="45.80648" lon="4.60981">
        <ele>327.79617</ele>
        <time>2023-09-30T08:52:11.000Z</time>
      </trkpt>
      <trkpt lat="45.80651" lon="4.60979">
        <ele>327.73709</ele>
        <time>2023-09-30T08:52:12.000Z</time>
      </trkpt>
      <trkpt lat="45.80654" lon="4.60977">
        <ele>327.7132</ele>
        <time>2023-09-30T08:52:13.000Z</time>
      </trkpt>
      <trkpt lat="45.80656" lon="4.60975">
        <ele>327.68872</ele>
        <time>2023-09-30T08:52:14.000Z</time>
      </trkpt>
      <trkpt lat="45.80659" lon="4.60973">
        <ele>327.65826</ele>
        <time>2023-09-30T08:52:15.000Z</time>
      </trkpt>
      <trkpt lat="45.80662" lon="4.60971">
        <ele>327.62177</ele>
        <time>2023-09-30T08:52:16.000Z</time>
      </trkpt>
      <trkpt lat="45.80665" lon="4.6097">
        <ele>327.46716</ele>
        <time>2023-09-30T08:52:17.000Z</time>
      </trkpt>
      <trkpt lat="45.80668" lon="4.6097">
        <ele>326.89209</ele>
        <time>2023-09-30T08:52:18.000Z</time>
      </trkpt>
      <trkpt lat="45.80671" lon="4.6097">
        <ele>326.21646</ele>
        <time>2023-09-30T08:52:19.000Z</time>
      </trkpt>
      <trkpt lat="45.80674" lon="4.6097">
        <ele>325.31174</ele>
        <time>2023-09-30T08:52:20.000Z</time>
      </trkpt>
      <trkpt lat="45.80677" lon="4.60972">
        <ele>324.98364</ele>
        <time>2023-09-30T08:52:21.000Z</time>
      </trkpt>
      <trkpt lat="45.80679" lon="4.60976">
        <ele>325.06302</ele>
        <time>2023-09-30T08:52:22.000Z</time>
      </trkpt>
      <trkpt lat="45.80679" lon="4.6098">
        <ele>325.31213</ele>
        <time>2023-09-30T08:52:23.000Z</time>
      </trkpt>
      <trkpt lat="45.80677" lon="4.60984">
        <ele>326.4949</ele>
        <time>2023-09-30T08:52:24.000Z</time>
      </trkpt>
      <trkpt lat="45.80675" lon="4.60986">
        <ele>326.63104</ele>
        <time>2023-09-30T08:52:25.000Z</time>
      </trkpt>
      <trkpt lat="45.80672" lon="4.60988">
        <ele>327.02051</ele>
        <time>2023-09-30T08:52:26.000Z</time>
      </trkpt>
      <trkpt lat="45.8067" lon="4.60991">
        <ele>327.45212</ele>
        <time>2023-09-30T08:52:27.000Z</time>
      </trkpt>
      <trkpt lat="45.80669" lon="4.60995">
        <ele>327.81989</ele>
        <time>2023-09-30T08:52:28.000Z</time>
      </trkpt>
      <trkpt lat="45.80668" lon="4.60999">
        <ele>328.20831</ele>
        <time>2023-09-30T08:52:29.000Z</time>
      </trkpt>
      <trkpt lat="45.8067" lon="4.61002">
        <ele>328.59937</ele>
        <time>2023-09-30T08:52:30.000Z</time>
      </trkpt>
      <trkpt lat="45.80672" lon="4.61006">
        <ele>328.9791</ele>
        <time>2023-09-30T08:52:31.000Z</time>
      </trkpt>
      <trkpt lat="45.80674" lon="4.61008">
        <ele>329.33521</ele>
        <time>2023-09-30T08:52:32.000Z</time>
      </trkpt>
      <trkpt lat="45.80677" lon="4.61011">
        <ele>329.69916</ele>
        <time>2023-09-30T08:52:33.000Z</time>
      </trkpt>
      <trkpt lat="45.80679" lon="4.61014">
        <ele>330.42722</ele>
        <time>2023-09-30T08:52:34.000Z</time>
      </trkpt>
      <trkpt lat="45.80681" lon="4.61017">
        <ele>331.38</ele>
        <time>2023-09-30T08:52:35.000Z</time>
      </trkpt>
      <trkpt lat="45.80683" lon="4.6102">
        <ele>332.3291</ele>
        <time>2023-09-30T08:52:36.000Z</time>
      </trkpt>
      <trkpt lat="45.80684" lon="4.61023">
        <ele>332.52484</ele>
        <time>2023-09-30T08:52:37.000Z</time>
      </trkpt>
      <trkpt lat="45.80684" lon="4.61027">
        <ele>332.86838</ele>
        <time>2023-09-30T08:52:38.000Z</time>
      </trkpt>
      <trkpt lat="45.80683" lon="4.61032">
        <ele>333.13895</ele>
        <time>2023-09-30T08:52:39.000Z</time>
      </trkpt>
      <trkpt lat="45.80681" lon="4.61035">
        <ele>333.4505</ele>
        <time>2023-09-30T08:52:40.000Z</time>
      </trkpt>
      <trkpt lat="45.8068" lon="4.61038">
        <ele>333.74814</ele>
        <time>2023-09-30T08:52:41.000Z</time>
      </trkpt>
      <trkpt lat="45.80678" lon="4.61042">
        <ele>333.67111</ele>
        <time>2023-09-30T08:52:42.000Z</time>
      </trkpt>
      <trkpt lat="45.80677" lon="4.61046">
        <ele>333.43964</ele>
        <time>2023-09-30T08:52:43.000Z</time>
      </trkpt>
      <trkpt lat="45.80675" lon="4.61049">
        <ele>333.12021</ele>
        <time>2023-09-30T08:52:44.000Z</time>
      </trkpt>
      <trkpt lat="45.80674" lon="4.61052">
        <ele>333.54935</ele>
        <time>2023-09-30T08:52:45.000Z</time>
      </trkpt>
      <trkpt lat="45.80672" lon="4.61056">
        <ele>333.86075</ele>
        <time>2023-09-30T08:52:46.000Z</time>
      </trkpt>
      <trkpt lat="45.80671" lon="4.61059">
        <ele>334.15875</ele>
        <time>2023-09-30T08:52:47.000Z</time>
      </trkpt>
      <trkpt lat="45.80669" lon="4.61062">
        <ele>334.44452</ele>
        <time>2023-09-30T08:52:48.000Z</time>
      </trkpt>
      <trkpt lat="45.80669" lon="4.61066">
        <ele>334.74277</ele>
        <time>2023-09-30T08:52:49.000Z</time>
      </trkpt>
      <trkpt lat="45.80668" lon="4.61069">
        <ele>335.34573</ele>
        <time>2023-09-30T08:52:50.000Z</time>
      </trkpt>
      <trkpt lat="45.80668" lon="4.61073">
        <ele>336.18417</ele>
        <time>2023-09-30T08:52:51.000Z</time>
      </trkpt>
      <trkpt lat="45.80669" lon="4.61077">
        <ele>336.34314</ele>
        <time>2023-09-30T08:52:52.000Z</time>
      </trkpt>
      <trkpt lat="45.80669" lon="4.6108">
        <ele>336.67853</ele>
        <time>2023-09-30T08:52:53.000Z</time>
      </trkpt>
      <trkpt lat="45.8067" lon="4.61084">
        <ele>336.62894</ele>
        <time>2023-09-30T08:52:54.000Z</time>
      </trkpt>
      <trkpt lat="45.8067" lon="4.61088">
        <ele>336.32202</ele>
        <time>2023-09-30T08:52:55.000Z</time>
      </trkpt>
      <trkpt lat="45.80671" lon="4.61092">
        <ele>335.96725</ele>
        <time>2023-09-30T08:52:56.000Z</time>
      </trkpt>
      <trkpt lat="45.80671" lon="4.61096">
        <ele>336.32083</ele>
        <time>2023-09-30T08:52:57.000Z</time>
      </trkpt>
      <trkpt lat="45.80671" lon="4.61099">
        <ele>336.53201</ele>
        <time>2023-09-30T08:52:58.000Z</time>
      </trkpt>
      <trkpt lat="45.80671" lon="4.61102">
        <ele>336.7417</ele>
        <time>2023-09-30T08:52:59.000Z</time>
      </trkpt>
      <trkpt lat="45.80671" lon="4.61106">
        <ele>336.92935</ele>
        <time>2023-09-30T08:53:00.000Z</time>
      </trkpt>
      <trkpt lat="45.8067" lon="4.61109">
        <ele>337.10883</ele>
        <time>2023-09-30T08:53:01.000Z</time>
      </trkpt>
      <trkpt lat="45.8067" lon="4.61113">
        <ele>337.33542</ele>
        <time>2023-09-30T08:53:02.000Z</time>
      </trkpt>
      <trkpt lat="45.8067" lon="4.61117">
        <ele>337.56311</ele>
        <time>2023-09-30T08:53:03.000Z</time>
      </trkpt>
      <trkpt lat="45.8067" lon="4.61121">
        <ele>338.11145</ele>
        <time>2023-09-30T08:53:04.000Z</time>
      </trkpt>
      <trkpt lat="45.8067" lon="4.61125">
        <ele>338.81879</ele>
        <time>2023-09-30T08:53:05.000Z</time>
      </trkpt>
      <trkpt lat="45.80669" lon="4.6113">
        <ele>339.60458</ele>
        <time>2023-09-30T08:53:06.000Z</time>
      </trkpt>
      <trkpt lat="45.80668" lon="4.61134">
        <ele>339.77756</ele>
        <time>2023-09-30T08:53:07.000Z</time>
      </trkpt>
      <trkpt lat="45.80667" lon="4.61137">
        <ele>340.02921</ele>
        <time>2023-09-30T08:53:08.000Z</time>
      </trkpt>
      <trkpt lat="45.80666" lon="4.6114">
        <ele>340.25311</ele>
        <time>2023-09-30T08:53:09.000Z</time>
      </trkpt>
      <trkpt lat="45.80664" lon="4.61144">
        <ele>340.22238</ele>
        <time>2023-09-30T08:53:11.000Z</time>
      </trkpt>
      <trkpt lat="45.80662" lon="4.61149">
        <ele>339.96176</ele>
        <time>2023-09-30T08:53:13.000Z</time>
      </trkpt>
      <trkpt lat="45.8066" lon="4.61152">
        <ele>340.37802</ele>
        <time>2023-09-30T08:53:14.000Z</time>
      </trkpt>
      <trkpt lat="45.80659" lon="4.61155">
        <ele>340.6221</ele>
        <time>2023-09-30T08:53:15.000Z</time>
      </trkpt>
      <trkpt lat="45.80658" lon="4.61158">
        <ele>340.8949</ele>
        <time>2023-09-30T08:53:16.000Z</time>
      </trkpt>
      <trkpt lat="45.80657" lon="4.6116">
        <ele>341.18784</ele>
        <time>2023-09-30T08:53:17.000Z</time>
      </trkpt>
      <trkpt lat="45.80655" lon="4.61163">
        <ele>341.77225</ele>
        <time>2023-09-30T08:53:18.000Z</time>
      </trkpt>
      <trkpt lat="45.80654" lon="4.61165">
        <ele>342.55884</ele>
        <time>2023-09-30T08:53:19.000Z</time>
      </trkpt>
      <trkpt lat="45.80652" lon="4.61168">
        <ele>342.82208</ele>
        <time>2023-09-30T08:53:20.000Z</time>
      </trkpt>
      <trkpt lat="45.8065" lon="4.6117">
        <ele>343.17188</ele>
        <time>2023-09-30T08:53:21.000Z</time>
      </trkpt>
      <trkpt lat="45.80649" lon="4.61172">
        <ele>343.56519</ele>
        <time>2023-09-30T08:53:22.000Z</time>
      </trkpt>
      <trkpt lat="45.80647" lon="4.61174">
        <ele>343.9328</ele>
        <time>2023-09-30T08:53:23.000Z</time>
      </trkpt>
      <trkpt lat="45.80645" lon="4.61176">
        <ele>344.24164</ele>
        <time>2023-09-30T08:53:24.000Z</time>
      </trkpt>
      <trkpt lat="45.80643" lon="4.61178">
        <ele>344.52789</ele>
        <time>2023-09-30T08:53:25.000Z</time>
      </trkpt>
      <trkpt lat="45.80641" lon="4.6118">
        <ele>344.49127</ele>
        <time>2023-09-30T08:53:26.000Z</time>
      </trkpt>
      <trkpt lat="45.80639" lon="4.61182">
        <ele>344.31293</ele>
        <time>2023-09-30T08:53:27.000Z</time>
      </trkpt>
      <trkpt lat="45.80637" lon="4.61184">
        <ele>344.04102</ele>
        <time>2023-09-30T08:53:28.000Z</time>
      </trkpt>
      <trkpt lat="45.80635" lon="4.61186">
        <ele>344.37665</ele>
        <time>2023-09-30T08:53:29.000Z</time>
      </trkpt>
      <trkpt lat="45.80633" lon="4.61187">
        <ele>344.85553</ele>
        <time>2023-09-30T08:53:30.000Z</time>
      </trkpt>
      <trkpt lat="45.80631" lon="4.61188">
        <ele>345.46555</ele>
        <time>2023-09-30T08:53:31.000Z</time>
      </trkpt>
      <trkpt lat="45.80629" lon="4.6119">
        <ele>346.08667</ele>
        <time>2023-09-30T08:53:32.000Z</time>
      </trkpt>
      <trkpt lat="45.80627" lon="4.61191">
        <ele>346.14606</ele>
        <time>2023-09-30T08:53:33.000Z</time>
      </trkpt>
      <trkpt lat="45.80626" lon="4.61193">
        <ele>346.31458</ele>
        <time>2023-09-30T08:53:34.000Z</time>
      </trkpt>
      <trkpt lat="45.80624" lon="4.61195">
        <ele>346.43921</ele>
        <time>2023-09-30T08:53:35.000Z</time>
      </trkpt>
      <trkpt lat="45.80623" lon="4.61197">
        <ele>346.54486</ele>
        <time>2023-09-30T08:53:36.000Z</time>
      </trkpt>
      <trkpt lat="45.80621" lon="4.61199">
        <ele>346.70618</ele>
        <time>2023-09-30T08:53:37.000Z</time>
      </trkpt>
      <trkpt lat="45.80619" lon="4.61202">
        <ele>346.58453</ele>
        <time>2023-09-30T08:53:38.000Z</time>
      </trkpt>
      <trkpt lat="45.80616" lon="4.61204">
        <ele>346.2692</ele>
        <time>2023-09-30T08:53:39.000Z</time>
      </trkpt>
      <trkpt lat="45.80614" lon="4.61206">
        <ele>346.82843</ele>
        <time>2023-09-30T08:53:40.000Z</time>
      </trkpt>
      <trkpt lat="45.80612" lon="4.61208">
        <ele>347.29431</ele>
        <time>2023-09-30T08:53:41.000Z</time>
      </trkpt>
      <trkpt lat="45.8061" lon="4.6121">
        <ele>347.73138</ele>
        <time>2023-09-30T08:53:42.000Z</time>
      </trkpt>
      <trkpt lat="45.80608" lon="4.61212">
        <ele>348.19574</ele>
        <time>2023-09-30T08:53:43.000Z</time>
      </trkpt>
      <trkpt lat="45.80606" lon="4.61214">
        <ele>348.75153</ele>
        <time>2023-09-30T08:53:44.000Z</time>
      </trkpt>
      <trkpt lat="45.80604" lon="4.61217">
        <ele>348.74881</ele>
        <time>2023-09-30T08:53:45.000Z</time>
      </trkpt>
      <trkpt lat="45.80602" lon="4.6122">
        <ele>348.86615</ele>
        <time>2023-09-30T08:53:46.000Z</time>
      </trkpt>
      <trkpt lat="45.806" lon="4.61222">
        <ele>348.96252</ele>
        <time>2023-09-30T08:53:47.000Z</time>
      </trkpt>
      <trkpt lat="45.80599" lon="4.61225">
        <ele>349.07306</ele>
        <time>2023-09-30T08:53:48.000Z</time>
      </trkpt>
      <trkpt lat="45.80597" lon="4.61227">
        <ele>349.20111</ele>
        <time>2023-09-30T08:53:49.000Z</time>
      </trkpt>
      <trkpt lat="45.80595" lon="4.61229">
        <ele>349.10416</ele>
        <time>2023-09-30T08:53:50.000Z</time>
      </trkpt>
      <trkpt lat="45.80594" lon="4.61232">
        <ele>349.09842</ele>
        <time>2023-09-30T08:53:51.000Z</time>
      </trkpt>
      <trkpt lat="45.80592" lon="4.61234">
        <ele>349.23639</ele>
        <time>2023-09-30T08:53:52.000Z</time>
      </trkpt>
      <trkpt lat="45.8059" lon="4.61237">
        <ele>349.41251</ele>
        <time>2023-09-30T08:53:53.000Z</time>
      </trkpt>
      <trkpt lat="45.80588" lon="4.61239">
        <ele>349.56207</ele>
        <time>2023-09-30T08:53:54.000Z</time>
      </trkpt>
      <trkpt lat="45.80587" lon="4.61241">
        <ele>349.24832</ele>
        <time>2023-09-30T08:53:55.000Z</time>
      </trkpt>
      <trkpt lat="45.80585" lon="4.61244">
        <ele>348.94223</ele>
        <time>2023-09-30T08:53:56.000Z</time>
      </trkpt>
      <trkpt lat="45.80583" lon="4.61247">
        <ele>349.10004</ele>
        <time>2023-09-30T08:53:57.000Z</time>
      </trkpt>
      <trkpt lat="45.80582" lon="4.61249">
        <ele>349.20572</ele>
        <time>2023-09-30T08:53:58.000Z</time>
      </trkpt>
      <trkpt lat="45.8058" lon="4.61252">
        <ele>349.31039</ele>
        <time>2023-09-30T08:53:59.000Z</time>
      </trkpt>
      <trkpt lat="45.80579" lon="4.61254">
        <ele>349.095</ele>
        <time>2023-09-30T08:54:00.000Z</time>
      </trkpt>
      <trkpt lat="45.80578" lon="4.61256">
        <ele>348.83377</ele>
        <time>2023-09-30T08:54:01.000Z</time>
      </trkpt>
      <trkpt lat="45.80577" lon="4.61258">
        <ele>348.55585</ele>
        <time>2023-09-30T08:54:02.000Z</time>
      </trkpt>
      <trkpt lat="45.80575" lon="4.61261">
        <ele>348.27075</ele>
        <time>2023-09-30T08:54:03.000Z</time>
      </trkpt>
      <trkpt lat="45.80573" lon="4.61263">
        <ele>347.89597</ele>
        <time>2023-09-30T08:54:04.000Z</time>
      </trkpt>
      <trkpt lat="45.80571" lon="4.61266">
        <ele>348.0827</ele>
        <time>2023-09-30T08:54:05.000Z</time>
      </trkpt>
      <trkpt lat="45.80568" lon="4.61269">
        <ele>348.11993</ele>
        <time>2023-09-30T08:54:06.000Z</time>
      </trkpt>
      <trkpt lat="45.80566" lon="4.61271">
        <ele>348.18643</ele>
        <time>2023-09-30T08:54:07.000Z</time>
      </trkpt>
      <trkpt lat="45.80564" lon="4.61274">
        <ele>348.22385</ele>
        <time>2023-09-30T08:54:08.000Z</time>
      </trkpt>
      <trkpt lat="45.80561" lon="4.61276">
        <ele>348.2442</ele>
        <time>2023-09-30T08:54:09.000Z</time>
      </trkpt>
      <trkpt lat="45.80558" lon="4.61279">
        <ele>348.50946</ele>
        <time>2023-09-30T08:54:10.000Z</time>
      </trkpt>
      <trkpt lat="45.80556" lon="4.61281">
        <ele>348.76822</ele>
        <time>2023-09-30T08:54:11.000Z</time>
      </trkpt>
      <trkpt lat="45.80553" lon="4.61284">
        <ele>348.5311</ele>
        <time>2023-09-30T08:54:12.000Z</time>
      </trkpt>
      <trkpt lat="45.80551" lon="4.61285">
        <ele>348.89066</ele>
        <time>2023-09-30T08:54:13.000Z</time>
      </trkpt>
      <trkpt lat="45.80548" lon="4.61287">
        <ele>349.14825</ele>
        <time>2023-09-30T08:54:14.000Z</time>
      </trkpt>
      <trkpt lat="45.80546" lon="4.61289">
        <ele>349.86005</ele>
        <time>2023-09-30T08:54:15.000Z</time>
      </trkpt>
      <trkpt lat="45.80543" lon="4.61292">
        <ele>350.56699</ele>
        <time>2023-09-30T08:54:16.000Z</time>
      </trkpt>
      <trkpt lat="45.8054" lon="4.61294">
        <ele>350.73349</ele>
        <time>2023-09-30T08:54:17.000Z</time>
      </trkpt>
      <trkpt lat="45.80538" lon="4.61296">
        <ele>350.96753</ele>
        <time>2023-09-30T08:54:18.000Z</time>
      </trkpt>
      <trkpt lat="45.80535" lon="4.61299">
        <ele>351.18457</ele>
        <time>2023-09-30T08:54:19.000Z</time>
      </trkpt>
      <trkpt lat="45.80532" lon="4.61301">
        <ele>351.37653</ele>
        <time>2023-09-30T08:54:20.000Z</time>
      </trkpt>
      <trkpt lat="45.80529" lon="4.61304">
        <ele>351.61234</ele>
        <time>2023-09-30T08:54:21.000Z</time>
      </trkpt>
      <trkpt lat="45.80527" lon="4.61306">
        <ele>351.85056</ele>
        <time>2023-09-30T08:54:22.000Z</time>
      </trkpt>
      <trkpt lat="45.80524" lon="4.61308">
        <ele>352.09521</ele>
        <time>2023-09-30T08:54:23.000Z</time>
      </trkpt>
      <trkpt lat="45.80521" lon="4.6131">
        <ele>352.34503</ele>
        <time>2023-09-30T08:54:24.000Z</time>
      </trkpt>
      <trkpt lat="45.80519" lon="4.61313">
        <ele>352.60992</ele>
        <time>2023-09-30T08:54:25.000Z</time>
      </trkpt>
      <trkpt lat="45.80516" lon="4.61316">
        <ele>352.87964</ele>
        <time>2023-09-30T08:54:26.000Z</time>
      </trkpt>
      <trkpt lat="45.80513" lon="4.61319">
        <ele>353.14859</ele>
        <time>2023-09-30T08:54:27.000Z</time>
      </trkpt>
      <trkpt lat="45.80511" lon="4.61321">
        <ele>353.42801</ele>
        <time>2023-09-30T08:54:28.000Z</time>
      </trkpt>
      <trkpt lat="45.80508" lon="4.61324">
        <ele>353.70578</ele>
        <time>2023-09-30T08:54:29.000Z</time>
      </trkpt>
      <trkpt lat="45.80506" lon="4.61326">
        <ele>353.73801</ele>
        <time>2023-09-30T08:54:30.000Z</time>
      </trkpt>
      <trkpt lat="45.80503" lon="4.61329">
        <ele>353.54681</ele>
        <time>2023-09-30T08:54:31.000Z</time>
      </trkpt>
      <trkpt lat="45.80501" lon="4.61332">
        <ele>353.65247</ele>
        <time>2023-09-30T08:54:32.000Z</time>
      </trkpt>
      <trkpt lat="45.80498" lon="4.61335">
        <ele>353.66196</ele>
        <time>2023-09-30T08:54:33.000Z</time>
      </trkpt>
      <trkpt lat="45.80496" lon="4.61338">
        <ele>353.67572</ele>
        <time>2023-09-30T08:54:34.000Z</time>
      </trkpt>
      <trkpt lat="45.80493" lon="4.61341">
        <ele>353.72348</ele>
        <time>2023-09-30T08:54:35.000Z</time>
      </trkpt>
      <trkpt lat="45.80491" lon="4.61344">
        <ele>353.77756</ele>
        <time>2023-09-30T08:54:36.000Z</time>
      </trkpt>
      <trkpt lat="45.80489" lon="4.61347">
        <ele>353.85175</ele>
        <time>2023-09-30T08:54:37.000Z</time>
      </trkpt>
      <trkpt lat="45.80488" lon="4.61351">
        <ele>353.30167</ele>
        <time>2023-09-30T08:54:38.000Z</time>
      </trkpt>
      <trkpt lat="45.80486" lon="4.61355">
        <ele>352.7366</ele>
        <time>2023-09-30T08:54:39.000Z</time>
      </trkpt>
      <trkpt lat="45.80484" lon="4.61358">
        <ele>352.18906</ele>
        <time>2023-09-30T08:54:40.000Z</time>
      </trkpt>
      <trkpt lat="45.80483" lon="4.61363">
        <ele>351.6463</ele>
        <time>2023-09-30T08:54:41.000Z</time>
      </trkpt>
      <trkpt lat="45.80482" lon="4.61367">
        <ele>351.12442</ele>
        <time>2023-09-30T08:54:42.000Z</time>
      </trkpt>
      <trkpt lat="45.80481" lon="4.61371">
        <ele>350.60049</ele>
        <time>2023-09-30T08:54:43.000Z</time>
      </trkpt>
      <trkpt lat="45.80481" lon="4.61374">
        <ele>350.08783</ele>
        <time>2023-09-30T08:54:44.000Z</time>
      </trkpt>
      <trkpt lat="45.8048" lon="4.61378">
        <ele>349.58466</ele>
        <time>2023-09-30T08:54:45.000Z</time>
      </trkpt>
      <trkpt lat="45.8048" lon="4.61381">
        <ele>349.08966</ele>
        <time>2023-09-30T08:54:46.000Z</time>
      </trkpt>
      <trkpt lat="45.8048" lon="4.61384">
        <ele>348.59036</ele>
        <time>2023-09-30T08:54:47.000Z</time>
      </trkpt>
      <trkpt lat="45.80479" lon="4.61388">
        <ele>348.08698</ele>
        <time>2023-09-30T08:54:48.000Z</time>
      </trkpt>
      <trkpt lat="45.80478" lon="4.61392">
        <ele>347.59256</ele>
        <time>2023-09-30T08:54:49.000Z</time>
      </trkpt>
      <trkpt lat="45.80477" lon="4.61395">
        <ele>347.07288</ele>
        <time>2023-09-30T08:54:50.000Z</time>
      </trkpt>
      <trkpt lat="45.80477" lon="4.61398">
        <ele>346.55997</ele>
        <time>2023-09-30T08:54:51.000Z</time>
      </trkpt>
      <trkpt lat="45.80476" lon="4.61402">
        <ele>346.03815</ele>
        <time>2023-09-30T08:54:52.000Z</time>
      </trkpt>
      <trkpt lat="45.80476" lon="4.61406">
        <ele>345.51764</ele>
        <time>2023-09-30T08:54:53.000Z</time>
      </trkpt>
      <trkpt lat="45.80475" lon="4.6141">
        <ele>344.99631</ele>
        <time>2023-09-30T08:54:54.000Z</time>
      </trkpt>
      <trkpt lat="45.80475" lon="4.61414">
        <ele>344.46356</ele>
        <time>2023-09-30T08:54:55.000Z</time>
      </trkpt>
      <trkpt lat="45.80474" lon="4.61419">
        <ele>343.92661</ele>
        <time>2023-09-30T08:54:56.000Z</time>
      </trkpt>
      <trkpt lat="45.80473" lon="4.61425">
        <ele>343.37811</ele>
        <time>2023-09-30T08:54:57.000Z</time>
      </trkpt>
      <trkpt lat="45.80472" lon="4.61429">
        <ele>343.27393</ele>
        <time>2023-09-30T08:54:58.000Z</time>
      </trkpt>
      <trkpt lat="45.80471" lon="4.61434">
        <ele>343.25037</ele>
        <time>2023-09-30T08:54:59.000Z</time>
      </trkpt>
      <trkpt lat="45.8047" lon="4.61439">
        <ele>343.23392</ele>
        <time>2023-09-30T08:55:00.000Z</time>
      </trkpt>
      <trkpt lat="45.80468" lon="4.61444">
        <ele>343.1792</ele>
        <time>2023-09-30T08:55:01.000Z</time>
      </trkpt>
      <trkpt lat="45.80466" lon="4.61448">
        <ele>343.12973</ele>
        <time>2023-09-30T08:55:02.000Z</time>
      </trkpt>
      <trkpt lat="45.80465" lon="4.61453">
        <ele>343.0853</ele>
        <time>2023-09-30T08:55:03.000Z</time>
      </trkpt>
      <trkpt lat="45.80463" lon="4.61457">
        <ele>343.04254</ele>
        <time>2023-09-30T08:55:04.000Z</time>
      </trkpt>
      <trkpt lat="45.80461" lon="4.61461">
        <ele>342.98517</ele>
        <time>2023-09-30T08:55:05.000Z</time>
      </trkpt>
      <trkpt lat="45.80458" lon="4.61465">
        <ele>342.93301</ele>
        <time>2023-09-30T08:55:06.000Z</time>
      </trkpt>
      <trkpt lat="45.80456" lon="4.61469">
        <ele>342.86319</ele>
        <time>2023-09-30T08:55:07.000Z</time>
      </trkpt>
      <trkpt lat="45.80454" lon="4.61473">
        <ele>342.79242</ele>
        <time>2023-09-30T08:55:08.000Z</time>
      </trkpt>
      <trkpt lat="45.80452" lon="4.61477">
        <ele>342.71085</ele>
        <time>2023-09-30T08:55:09.000Z</time>
      </trkpt>
      <trkpt lat="45.8045" lon="4.61481">
        <ele>342.62167</ele>
        <time>2023-09-30T08:55:10.000Z</time>
      </trkpt>
      <trkpt lat="45.80448" lon="4.61485">
        <ele>342.55914</ele>
        <time>2023-09-30T08:55:11.000Z</time>
      </trkpt>
      <trkpt lat="45.80446" lon="4.61489">
        <ele>342.50235</ele>
        <time>2023-09-30T08:55:12.000Z</time>
      </trkpt>
      <trkpt lat="45.80444" lon="4.61493">
        <ele>342.45062</ele>
        <time>2023-09-30T08:55:13.000Z</time>
      </trkpt>
      <trkpt lat="45.80442" lon="4.61497">
        <ele>342.41077</ele>
        <time>2023-09-30T08:55:14.000Z</time>
      </trkpt>
      <trkpt lat="45.8044" lon="4.615">
        <ele>342.36322</ele>
        <time>2023-09-30T08:55:15.000Z</time>
      </trkpt>
      <trkpt lat="45.80438" lon="4.61503">
        <ele>342.33624</ele>
        <time>2023-09-30T08:55:16.000Z</time>
      </trkpt>
      <trkpt lat="45.80436" lon="4.61507">
        <ele>342.3244</ele>
        <time>2023-09-30T08:55:17.000Z</time>
      </trkpt>
      <trkpt lat="45.80435" lon="4.6151">
        <ele>342.49252</ele>
        <time>2023-09-30T08:55:18.000Z</time>
      </trkpt>
      <trkpt lat="45.80433" lon="4.61513">
        <ele>342.56717</ele>
        <time>2023-09-30T08:55:19.000Z</time>
      </trkpt>
      <trkpt lat="45.80431" lon="4.61516">
        <ele>342.7341</ele>
        <time>2023-09-30T08:55:20.000Z</time>
      </trkpt>
      <trkpt lat="45.80429" lon="4.61518">
        <ele>342.94836</ele>
        <time>2023-09-30T08:55:21.000Z</time>
      </trkpt>
      <trkpt lat="45.80427" lon="4.61521">
        <ele>343.16876</ele>
        <time>2023-09-30T08:55:22.000Z</time>
      </trkpt>
      <trkpt lat="45.80425" lon="4.61524">
        <ele>343.4357</ele>
        <time>2023-09-30T08:55:23.000Z</time>
      </trkpt>
      <trkpt lat="45.80424" lon="4.61527">
        <ele>343.51553</ele>
        <time>2023-09-30T08:55:24.000Z</time>
      </trkpt>
      <trkpt lat="45.80422" lon="4.6153">
        <ele>343.63043</ele>
        <time>2023-09-30T08:55:25.000Z</time>
      </trkpt>
      <trkpt lat="45.8042" lon="4.61533">
        <ele>343.72797</ele>
        <time>2023-09-30T08:55:26.000Z</time>
      </trkpt>
      <trkpt lat="45.80419" lon="4.61536">
        <ele>343.84949</ele>
        <time>2023-09-30T08:55:27.000Z</time>
      </trkpt>
      <trkpt lat="45.80417" lon="4.61539">
        <ele>343.979</ele>
        <time>2023-09-30T08:55:28.000Z</time>
      </trkpt>
      <trkpt lat="45.80416" lon="4.61541">
        <ele>344.11362</ele>
        <time>2023-09-30T08:55:29.000Z</time>
      </trkpt>
      <trkpt lat="45.80414" lon="4.61545">
        <ele>344.27179</ele>
        <time>2023-09-30T08:55:30.000Z</time>
      </trkpt>
      <trkpt lat="45.80413" lon="4.61548">
        <ele>344.4173</ele>
        <time>2023-09-30T08:55:31.000Z</time>
      </trkpt>
      <trkpt lat="45.80411" lon="4.61551">
        <ele>344.56619</ele>
        <time>2023-09-30T08:55:32.000Z</time>
      </trkpt>
      <trkpt lat="45.8041" lon="4.61555">
        <ele>344.72455</ele>
        <time>2023-09-30T08:55:33.000Z</time>
      </trkpt>
      <trkpt lat="45.80408" lon="4.61558">
        <ele>344.86462</ele>
        <time>2023-09-30T08:55:34.000Z</time>
      </trkpt>
      <trkpt lat="45.80407" lon="4.61561">
        <ele>345.00461</ele>
        <time>2023-09-30T08:55:35.000Z</time>
      </trkpt>
      <trkpt lat="45.80406" lon="4.61565">
        <ele>345.13715</ele>
        <time>2023-09-30T08:55:36.000Z</time>
      </trkpt>
      <trkpt lat="45.80404" lon="4.61568">
        <ele>345.90448</ele>
        <time>2023-09-30T08:55:37.000Z</time>
      </trkpt>
      <trkpt lat="45.80403" lon="4.61572">
        <ele>346.66144</ele>
        <time>2023-09-30T08:55:38.000Z</time>
      </trkpt>
      <trkpt lat="45.80402" lon="4.61575">
        <ele>347.44562</ele>
        <time>2023-09-30T08:55:39.000Z</time>
      </trkpt>
      <trkpt lat="45.80401" lon="4.61579">
        <ele>348.11453</ele>
        <time>2023-09-30T08:55:40.000Z</time>
      </trkpt>
      <trkpt lat="45.80401" lon="4.61582">
        <ele>348.16656</ele>
        <time>2023-09-30T08:55:41.000Z</time>
      </trkpt>
      <trkpt lat="45.80402" lon="4.61586">
        <ele>348.2312</ele>
        <time>2023-09-30T08:55:42.000Z</time>
      </trkpt>
      <trkpt lat="45.80404" lon="4.61588">
        <ele>348.23553</ele>
        <time>2023-09-30T08:55:43.000Z</time>
      </trkpt>
      <trkpt lat="45.80406" lon="4.61591">
        <ele>348.45526</ele>
        <time>2023-09-30T08:55:44.000Z</time>
      </trkpt>
      <trkpt lat="45.80409" lon="4.61593">
        <ele>348.66318</ele>
        <time>2023-09-30T08:55:45.000Z</time>
      </trkpt>
      <trkpt lat="45.80411" lon="4.61595">
        <ele>348.77722</ele>
        <time>2023-09-30T08:55:46.000Z</time>
      </trkpt>
      <trkpt lat="45.80414" lon="4.61596">
        <ele>348.89325</ele>
        <time>2023-09-30T08:55:47.000Z</time>
      </trkpt>
      <trkpt lat="45.80416" lon="4.61598">
        <ele>349.00867</ele>
        <time>2023-09-30T08:55:48.000Z</time>
      </trkpt>
      <trkpt lat="45.80419" lon="4.616">
        <ele>349.1297</ele>
        <time>2023-09-30T08:55:49.000Z</time>
      </trkpt>
      <trkpt lat="45.80421" lon="4.61601">
        <ele>349.26715</ele>
        <time>2023-09-30T08:55:50.000Z</time>
      </trkpt>
      <trkpt lat="45.80423" lon="4.61603">
        <ele>349.40433</ele>
        <time>2023-09-30T08:55:51.000Z</time>
      </trkpt>
      <trkpt lat="45.80425" lon="4.61606">
        <ele>349.53537</ele>
        <time>2023-09-30T08:55:52.000Z</time>
      </trkpt>
      <trkpt lat="45.80427" lon="4.61607">
        <ele>349.6539</ele>
        <time>2023-09-30T08:55:53.000Z</time>
      </trkpt>
      <trkpt lat="45.80429" lon="4.61609">
        <ele>349.74872</ele>
        <time>2023-09-30T08:55:54.000Z</time>
      </trkpt>
      <trkpt lat="45.80431" lon="4.6161">
        <ele>349.87323</ele>
        <time>2023-09-30T08:55:55.000Z</time>
      </trkpt>
      <trkpt lat="45.80433" lon="4.61612">
        <ele>349.98523</ele>
        <time>2023-09-30T08:55:56.000Z</time>
      </trkpt>
      <trkpt lat="45.80435" lon="4.61613">
        <ele>349.45544</ele>
        <time>2023-09-30T08:55:57.000Z</time>
      </trkpt>
      <trkpt lat="45.80437" lon="4.61614">
        <ele>348.97076</ele>
        <time>2023-09-30T08:55:58.000Z</time>
      </trkpt>
      <trkpt lat="45.80438" lon="4.61616">
        <ele>348.51773</ele>
        <time>2023-09-30T08:55:59.000Z</time>
      </trkpt>
      <trkpt lat="45.8044" lon="4.61617">
        <ele>348.06512</ele>
        <time>2023-09-30T08:56:00.000Z</time>
      </trkpt>
      <trkpt lat="45.80442" lon="4.61619">
        <ele>348.21393</ele>
        <time>2023-09-30T08:56:01.000Z</time>
      </trkpt>
      <trkpt lat="45.80443" lon="4.61621">
        <ele>348.29285</ele>
        <time>2023-09-30T08:56:02.000Z</time>
      </trkpt>
      <trkpt lat="45.80445" lon="4.61623">
        <ele>348.40103</ele>
        <time>2023-09-30T08:56:03.000Z</time>
      </trkpt>
      <trkpt lat="45.80446" lon="4.61625">
        <ele>348.36279</ele>
        <time>2023-09-30T08:56:04.000Z</time>
      </trkpt>
      <trkpt lat="45.80448" lon="4.61627">
        <ele>348.32562</ele>
        <time>2023-09-30T08:56:05.000Z</time>
      </trkpt>
      <trkpt lat="45.8045" lon="4.61628">
        <ele>348.41779</ele>
        <time>2023-09-30T08:56:06.000Z</time>
      </trkpt>
      <trkpt lat="45.80451" lon="4.61631">
        <ele>348.46552</ele>
        <time>2023-09-30T08:56:07.000Z</time>
      </trkpt>
      <trkpt lat="45.80453" lon="4.61633">
        <ele>348.54108</ele>
        <time>2023-09-30T08:56:08.000Z</time>
      </trkpt>
      <trkpt lat="45.80455" lon="4.61636">
        <ele>348.62628</ele>
        <time>2023-09-30T08:56:09.000Z</time>
      </trkpt>
      <trkpt lat="45.80456" lon="4.61639">
        <ele>348.73111</ele>
        <time>2023-09-30T08:56:10.000Z</time>
      </trkpt>
      <trkpt lat="45.80458" lon="4.61642">
        <ele>348.87906</ele>
        <time>2023-09-30T08:56:11.000Z</time>
      </trkpt>
      <trkpt lat="45.80459" lon="4.61645">
        <ele>348.91556</ele>
        <time>2023-09-30T08:56:12.000Z</time>
      </trkpt>
      <trkpt lat="45.8046" lon="4.61649">
        <ele>348.965</ele>
        <time>2023-09-30T08:56:13.000Z</time>
      </trkpt>
      <trkpt lat="45.8046" lon="4.61652">
        <ele>349.05273</ele>
        <time>2023-09-30T08:56:14.000Z</time>
      </trkpt>
      <trkpt lat="45.8046" lon="4.61656">
        <ele>349.09961</ele>
        <time>2023-09-30T08:56:15.000Z</time>
      </trkpt>
      <trkpt lat="45.8046" lon="4.6166">
        <ele>349.21121</ele>
        <time>2023-09-30T08:56:16.000Z</time>
      </trkpt>
      <trkpt lat="45.8046" lon="4.61664">
        <ele>349.35413</ele>
        <time>2023-09-30T08:56:17.000Z</time>
      </trkpt>
      <trkpt lat="45.8046" lon="4.61667">
        <ele>349.45892</ele>
        <time>2023-09-30T08:56:18.000Z</time>
      </trkpt>
      <trkpt lat="45.80461" lon="4.61671">
        <ele>349.43713</ele>
        <time>2023-09-30T08:56:19.000Z</time>
      </trkpt>
      <trkpt lat="45.80461" lon="4.61674">
        <ele>349.44388</ele>
        <time>2023-09-30T08:56:20.000Z</time>
      </trkpt>
      <trkpt lat="45.80461" lon="4.61678">
        <ele>349.46997</ele>
        <time>2023-09-30T08:56:21.000Z</time>
      </trkpt>
      <trkpt lat="45.80461" lon="4.61682">
        <ele>349.52734</ele>
        <time>2023-09-30T08:56:22.000Z</time>
      </trkpt>
      <trkpt lat="45.80461" lon="4.61685">
        <ele>349.57065</ele>
        <time>2023-09-30T08:56:23.000Z</time>
      </trkpt>
      <trkpt lat="45.80462" lon="4.61688">
        <ele>349.71625</ele>
        <time>2023-09-30T08:56:24.000Z</time>
      </trkpt>
      <trkpt lat="45.80464" lon="4.6169">
        <ele>349.81583</ele>
        <time>2023-09-30T08:56:25.000Z</time>
      </trkpt>
      <trkpt lat="45.80465" lon="4.61692">
        <ele>349.89865</ele>
        <time>2023-09-30T08:56:26.000Z</time>
      </trkpt>
      <trkpt lat="45.80467" lon="4.61694">
        <ele>350.02386</ele>
        <time>2023-09-30T08:56:27.000Z</time>
      </trkpt>
      <trkpt lat="45.80469" lon="4.61696">
        <ele>350.1279</ele>
        <time>2023-09-30T08:56:28.000Z</time>
      </trkpt>
      <trkpt lat="45.80472" lon="4.61698">
        <ele>350.23553</ele>
        <time>2023-09-30T08:56:29.000Z</time>
      </trkpt>
      <trkpt lat="45.80474" lon="4.61699">
        <ele>350.31827</ele>
        <time>2023-09-30T08:56:30.000Z</time>
      </trkpt>
      <trkpt lat="45.80477" lon="4.617">
        <ele>350.31207</ele>
        <time>2023-09-30T08:56:31.000Z</time>
      </trkpt>
      <trkpt lat="45.80479" lon="4.61701">
        <ele>350.41974</ele>
        <time>2023-09-30T08:56:32.000Z</time>
      </trkpt>
      <trkpt lat="45.80482" lon="4.61701">
        <ele>350.50845</ele>
        <time>2023-09-30T08:56:33.000Z</time>
      </trkpt>
      <trkpt lat="45.80485" lon="4.61702">
        <ele>350.62527</ele>
        <time>2023-09-30T08:56:34.000Z</time>
      </trkpt>
      <trkpt lat="45.80487" lon="4.61702">
        <ele>350.74722</ele>
        <time>2023-09-30T08:56:35.000Z</time>
      </trkpt>
      <trkpt lat="45.8049" lon="4.61703">
        <ele>350.82205</ele>
        <time>2023-09-30T08:56:36.000Z</time>
      </trkpt>
      <trkpt lat="45.80492" lon="4.61704">
        <ele>350.89862</ele>
        <time>2023-09-30T08:56:37.000Z</time>
      </trkpt>
      <trkpt lat="45.80495" lon="4.61704">
        <ele>350.99112</ele>
        <time>2023-09-30T08:56:38.000Z</time>
      </trkpt>
      <trkpt lat="45.80497" lon="4.61705">
        <ele>351.1059</ele>
        <time>2023-09-30T08:56:39.000Z</time>
      </trkpt>
      <trkpt lat="45.805" lon="4.61706">
        <ele>351.22028</ele>
        <time>2023-09-30T08:56:40.000Z</time>
      </trkpt>
      <trkpt lat="45.80502" lon="4.61707">
        <ele>351.2981</ele>
        <time>2023-09-30T08:56:41.000Z</time>
      </trkpt>
      <trkpt lat="45.80504" lon="4.61709">
        <ele>351.375</ele>
        <time>2023-09-30T08:56:42.000Z</time>
      </trkpt>
      <trkpt lat="45.80506" lon="4.6171">
        <ele>351.4971</ele>
        <time>2023-09-30T08:56:43.000Z</time>
      </trkpt>
      <trkpt lat="45.80509" lon="4.61712">
        <ele>351.68192</ele>
        <time>2023-09-30T08:56:44.000Z</time>
      </trkpt>
      <trkpt lat="45.80511" lon="4.61713">
        <ele>351.89093</ele>
        <time>2023-09-30T08:56:45.000Z</time>
      </trkpt>
      <trkpt lat="45.80514" lon="4.61713">
        <ele>352.03574</ele>
        <time>2023-09-30T08:56:46.000Z</time>
      </trkpt>
      <trkpt lat="45.80517" lon="4.61714">
        <ele>352.15845</ele>
        <time>2023-09-30T08:56:47.000Z</time>
      </trkpt>
      <trkpt lat="45.80519" lon="4.61715">
        <ele>352.26602</ele>
        <time>2023-09-30T08:56:48.000Z</time>
      </trkpt>
      <trkpt lat="45.80522" lon="4.61716">
        <ele>352.379</ele>
        <time>2023-09-30T08:56:49.000Z</time>
      </trkpt>
      <trkpt lat="45.80524" lon="4.61718">
        <ele>352.48297</ele>
        <time>2023-09-30T08:56:50.000Z</time>
      </trkpt>
      <trkpt lat="45.80526" lon="4.6172">
        <ele>352.6221</ele>
        <time>2023-09-30T08:56:51.000Z</time>
      </trkpt>
      <trkpt lat="45.80528" lon="4.61722">
        <ele>352.75958</ele>
        <time>2023-09-30T08:56:52.000Z</time>
      </trkpt>
      <trkpt lat="45.80531" lon="4.61724">
        <ele>352.92218</ele>
        <time>2023-09-30T08:56:53.000Z</time>
      </trkpt>
      <trkpt lat="45.80533" lon="4.61725">
        <ele>353.05264</ele>
        <time>2023-09-30T08:56:54.000Z</time>
      </trkpt>
      <trkpt lat="45.80535" lon="4.61725">
        <ele>353.14917</ele>
        <time>2023-09-30T08:56:55.000Z</time>
      </trkpt>
      <trkpt lat="45.80537" lon="4.61725">
        <ele>353.24466</ele>
        <time>2023-09-30T08:56:56.000Z</time>
      </trkpt>
      <trkpt lat="45.8054" lon="4.61725">
        <ele>353.26044</ele>
        <time>2023-09-30T08:56:57.000Z</time>
      </trkpt>
      <trkpt lat="45.80542" lon="4.61725">
        <ele>353.22028</ele>
        <time>2023-09-30T08:56:58.000Z</time>
      </trkpt>
      <trkpt lat="45.80545" lon="4.61725">
        <ele>353.26505</ele>
        <time>2023-09-30T08:56:59.000Z</time>
      </trkpt>
      <trkpt lat="45.80547" lon="4.61725">
        <ele>353.29941</ele>
        <time>2023-09-30T08:57:00.000Z</time>
      </trkpt>
      <trkpt lat="45.80549" lon="4.61726">
        <ele>353.38055</ele>
        <time>2023-09-30T08:57:01.000Z</time>
      </trkpt>
      <trkpt lat="45.80552" lon="4.61726">
        <ele>353.48035</ele>
        <time>2023-09-30T08:57:02.000Z</time>
      </trkpt>
      <trkpt lat="45.80554" lon="4.61726">
        <ele>353.53696</ele>
        <time>2023-09-30T08:57:03.000Z</time>
      </trkpt>
      <trkpt lat="45.80556" lon="4.61725">
        <ele>353.55515</ele>
        <time>2023-09-30T08:57:04.000Z</time>
      </trkpt>
      <trkpt lat="45.80559" lon="4.61725">
        <ele>353.5766</ele>
        <time>2023-09-30T08:57:05.000Z</time>
      </trkpt>
      <trkpt lat="45.80561" lon="4.61723">
        <ele>353.64908</ele>
        <time>2023-09-30T08:57:06.000Z</time>
      </trkpt>
      <trkpt lat="45.80564" lon="4.61722">
        <ele>353.76077</ele>
        <time>2023-09-30T08:57:07.000Z</time>
      </trkpt>
      <trkpt lat="45.80566" lon="4.61722">
        <ele>353.90585</ele>
        <time>2023-09-30T08:57:08.000Z</time>
      </trkpt>
      <trkpt lat="45.80569" lon="4.61721">
        <ele>354.03134</ele>
        <time>2023-09-30T08:57:09.000Z</time>
      </trkpt>
      <trkpt lat="45.80572" lon="4.6172">
        <ele>354.17465</ele>
        <time>2023-09-30T08:57:10.000Z</time>
      </trkpt>
      <trkpt lat="45.80574" lon="4.6172">
        <ele>354.31961</ele>
        <time>2023-09-30T08:57:11.000Z</time>
      </trkpt>
      <trkpt lat="45.80576" lon="4.6172">
        <ele>354.46448</ele>
        <time>2023-09-30T08:57:12.000Z</time>
      </trkpt>
      <trkpt lat="45.80579" lon="4.61721">
        <ele>354.6127</ele>
        <time>2023-09-30T08:57:13.000Z</time>
      </trkpt>
      <trkpt lat="45.80582" lon="4.6172">
        <ele>354.77264</ele>
        <time>2023-09-30T08:57:14.000Z</time>
      </trkpt>
      <trkpt lat="45.80584" lon="4.6172">
        <ele>354.97858</ele>
        <time>2023-09-30T08:57:15.000Z</time>
      </trkpt>
      <trkpt lat="45.80586" lon="4.6172">
        <ele>355.1701</ele>
        <time>2023-09-30T08:57:16.000Z</time>
      </trkpt>
      <trkpt lat="45.80589" lon="4.61719">
        <ele>355.39435</ele>
        <time>2023-09-30T08:57:17.000Z</time>
      </trkpt>
      <trkpt lat="45.80592" lon="4.61719">
        <ele>355.63013</ele>
        <time>2023-09-30T08:57:18.000Z</time>
      </trkpt>
      <trkpt lat="45.80595" lon="4.61718">
        <ele>355.85492</ele>
        <time>2023-09-30T08:57:19.000Z</time>
      </trkpt>
      <trkpt lat="45.80597" lon="4.61717">
        <ele>356.07294</ele>
        <time>2023-09-30T08:57:20.000Z</time>
      </trkpt>
      <trkpt lat="45.806" lon="4.61716">
        <ele>356.29352</ele>
        <time>2023-09-30T08:57:21.000Z</time>
      </trkpt>
      <trkpt lat="45.80602" lon="4.61714">
        <ele>356.49844</ele>
        <time>2023-09-30T08:57:22.000Z</time>
      </trkpt>
      <trkpt lat="45.80604" lon="4.61713">
        <ele>356.69308</ele>
        <time>2023-09-30T08:57:23.000Z</time>
      </trkpt>
      <trkpt lat="45.80606" lon="4.61711">
        <ele>356.88934</ele>
        <time>2023-09-30T08:57:24.000Z</time>
      </trkpt>
      <trkpt lat="45.80608" lon="4.6171">
        <ele>357.10684</ele>
        <time>2023-09-30T08:57:25.000Z</time>
      </trkpt>
      <trkpt lat="45.80611" lon="4.61709">
        <ele>357.32162</ele>
        <time>2023-09-30T08:57:26.000Z</time>
      </trkpt>
      <trkpt lat="45.80613" lon="4.61708">
        <ele>357.51425</ele>
        <time>2023-09-30T08:57:27.000Z</time>
      </trkpt>
      <trkpt lat="45.80615" lon="4.61707">
        <ele>357.67047</ele>
        <time>2023-09-30T08:57:28.000Z</time>
      </trkpt>
      <trkpt lat="45.80618" lon="4.61705">
        <ele>357.8421</ele>
        <time>2023-09-30T08:57:29.000Z</time>
      </trkpt>
      <trkpt lat="45.8062" lon="4.61704">
        <ele>357.97205</ele>
        <time>2023-09-30T08:57:30.000Z</time>
      </trkpt>
      <trkpt lat="45.80622" lon="4.61702">
        <ele>358.09512</ele>
        <time>2023-09-30T08:57:31.000Z</time>
      </trkpt>
      <trkpt lat="45.80624" lon="4.61701">
        <ele>358.20898</ele>
        <time>2023-09-30T08:57:32.000Z</time>
      </trkpt>
      <trkpt lat="45.80626" lon="4.617">
        <ele>358.28363</ele>
        <time>2023-09-30T08:57:33.000Z</time>
      </trkpt>
      <trkpt lat="45.80628" lon="4.61698">
        <ele>358.41519</ele>
        <time>2023-09-30T08:57:34.000Z</time>
      </trkpt>
      <trkpt lat="45.80631" lon="4.61697">
        <ele>358.56464</ele>
        <time>2023-09-30T08:57:35.000Z</time>
      </trkpt>
      <trkpt lat="45.80633" lon="4.61697">
        <ele>358.70892</ele>
        <time>2023-09-30T08:57:36.000Z</time>
      </trkpt>
      <trkpt lat="45.80635" lon="4.61696">
        <ele>358.82855</ele>
        <time>2023-09-30T08:57:37.000Z</time>
      </trkpt>
      <trkpt lat="45.80637" lon="4.61695">
        <ele>358.98895</ele>
        <time>2023-09-30T08:57:38.000Z</time>
      </trkpt>
      <trkpt lat="45.8064" lon="4.61694">
        <ele>359.20654</ele>
        <time>2023-09-30T08:57:39.000Z</time>
      </trkpt>
      <trkpt lat="45.80642" lon="4.61693">
        <ele>359.40027</ele>
        <time>2023-09-30T08:57:40.000Z</time>
      </trkpt>
      <trkpt lat="45.80644" lon="4.61692">
        <ele>359.56909</ele>
        <time>2023-09-30T08:57:41.000Z</time>
      </trkpt>
      <trkpt lat="45.80647" lon="4.6169">
        <ele>359.75974</ele>
        <time>2023-09-30T08:57:42.000Z</time>
      </trkpt>
      <trkpt lat="45.80649" lon="4.61688">
        <ele>359.95239</ele>
        <time>2023-09-30T08:57:43.000Z</time>
      </trkpt>
      <trkpt lat="45.80652" lon="4.61687">
        <ele>360.15527</ele>
        <time>2023-09-30T08:57:44.000Z</time>
      </trkpt>
      <trkpt lat="45.80654" lon="4.61685">
        <ele>360.28305</ele>
        <time>2023-09-30T08:57:45.000Z</time>
      </trkpt>
      <trkpt lat="45.80657" lon="4.61684">
        <ele>360.39365</ele>
        <time>2023-09-30T08:57:46.000Z</time>
      </trkpt>
      <trkpt lat="45.8066" lon="4.61683">
        <ele>360.50104</ele>
        <time>2023-09-30T08:57:47.000Z</time>
      </trkpt>
      <trkpt lat="45.80662" lon="4.61682">
        <ele>360.67145</ele>
        <time>2023-09-30T08:57:48.000Z</time>
      </trkpt>
      <trkpt lat="45.80665" lon="4.61681">
        <ele>360.82034</ele>
        <time>2023-09-30T08:57:49.000Z</time>
      </trkpt>
      <trkpt lat="45.80667" lon="4.61681">
        <ele>360.98865</ele>
        <time>2023-09-30T08:57:50.000Z</time>
      </trkpt>
      <trkpt lat="45.80669" lon="4.6168">
        <ele>361.12784</ele>
        <time>2023-09-30T08:57:51.000Z</time>
      </trkpt>
      <trkpt lat="45.80672" lon="4.61679">
        <ele>361.27322</ele>
        <time>2023-09-30T08:57:52.000Z</time>
      </trkpt>
      <trkpt lat="45.80675" lon="4.61678">
        <ele>361.42889</ele>
        <time>2023-09-30T08:57:53.000Z</time>
      </trkpt>
      <trkpt lat="45.80678" lon="4.61678">
        <ele>361.52365</ele>
        <time>2023-09-30T08:57:54.000Z</time>
      </trkpt>
      <trkpt lat="45.80681" lon="4.61678">
        <ele>361.59674</ele>
        <time>2023-09-30T08:57:55.000Z</time>
      </trkpt>
      <trkpt lat="45.80685" lon="4.61678">
        <ele>361.68262</ele>
        <time>2023-09-30T08:57:56.000Z</time>
      </trkpt>
      <trkpt lat="45.80688" lon="4.61679">
        <ele>361.80765</ele>
        <time>2023-09-30T08:57:57.000Z</time>
      </trkpt>
      <trkpt lat="45.80692" lon="4.6168">
        <ele>361.9144</ele>
        <time>2023-09-30T08:57:58.000Z</time>
      </trkpt>
      <trkpt lat="45.80695" lon="4.61681">
        <ele>361.94977</ele>
        <time>2023-09-30T08:57:59.000Z</time>
      </trkpt>
      <trkpt lat="45.80699" lon="4.61683">
        <ele>362.01822</ele>
        <time>2023-09-30T08:58:00.000Z</time>
      </trkpt>
      <trkpt lat="45.80702" lon="4.61685">
        <ele>362.07687</ele>
        <time>2023-09-30T08:58:01.000Z</time>
      </trkpt>
      <trkpt lat="45.80706" lon="4.61687">
        <ele>362.10931</ele>
        <time>2023-09-30T08:58:02.000Z</time>
      </trkpt>
      <trkpt lat="45.8071" lon="4.6169">
        <ele>362.09488</ele>
        <time>2023-09-30T08:58:03.000Z</time>
      </trkpt>
      <trkpt lat="45.80713" lon="4.61693">
        <ele>360.78787</ele>
        <time>2023-09-30T08:58:04.000Z</time>
      </trkpt>
      <trkpt lat="45.80716" lon="4.61695">
        <ele>360.04117</ele>
        <time>2023-09-30T08:58:05.000Z</time>
      </trkpt>
      <trkpt lat="45.80719" lon="4.61698">
        <ele>359.29312</ele>
        <time>2023-09-30T08:58:06.000Z</time>
      </trkpt>
      <trkpt lat="45.80722" lon="4.61702">
        <ele>358.52725</ele>
        <time>2023-09-30T08:58:07.000Z</time>
      </trkpt>
      <trkpt lat="45.80726" lon="4.61704">
        <ele>358.98557</ele>
        <time>2023-09-30T08:58:08.000Z</time>
      </trkpt>
      <trkpt lat="45.80731" lon="4.61707">
        <ele>359.4538</ele>
        <time>2023-09-30T08:58:09.000Z</time>
      </trkpt>
      <trkpt lat="45.80734" lon="4.61708">
        <ele>359.8956</ele>
        <time>2023-09-30T08:58:10.000Z</time>
      </trkpt>
      <trkpt lat="45.80739" lon="4.6171">
        <ele>360.39594</ele>
        <time>2023-09-30T08:58:11.000Z</time>
      </trkpt>
      <trkpt lat="45.80743" lon="4.6171">
        <ele>360.87598</ele>
        <time>2023-09-30T08:58:12.000Z</time>
      </trkpt>
      <trkpt lat="45.80748" lon="4.6171">
        <ele>361.37506</ele>
        <time>2023-09-30T08:58:13.000Z</time>
      </trkpt>
      <trkpt lat="45.80753" lon="4.61709">
        <ele>361.87241</ele>
        <time>2023-09-30T08:58:14.000Z</time>
      </trkpt>
      <trkpt lat="45.80758" lon="4.6171">
        <ele>362.37949</ele>
        <time>2023-09-30T08:58:15.000Z</time>
      </trkpt>
      <trkpt lat="45.80763" lon="4.61711">
        <ele>362.98639</ele>
        <time>2023-09-30T08:58:16.000Z</time>
      </trkpt>
      <trkpt lat="45.80768" lon="4.61711">
        <ele>363.59109</ele>
        <time>2023-09-30T08:58:17.000Z</time>
      </trkpt>
      <trkpt lat="45.80772" lon="4.61712">
        <ele>363.53793</ele>
        <time>2023-09-30T08:58:18.000Z</time>
      </trkpt>
      <trkpt lat="45.80778" lon="4.61713">
        <ele>363.57953</ele>
        <time>2023-09-30T08:58:19.000Z</time>
      </trkpt>
      <trkpt lat="45.80782" lon="4.61714">
        <ele>363.58551</ele>
        <time>2023-09-30T08:58:20.000Z</time>
      </trkpt>
      <trkpt lat="45.80786" lon="4.61717">
        <ele>363.60248</ele>
        <time>2023-09-30T08:58:21.000Z</time>
      </trkpt>
      <trkpt lat="45.8079" lon="4.61719">
        <ele>363.61624</ele>
        <time>2023-09-30T08:58:22.000Z</time>
      </trkpt>
      <trkpt lat="45.80793" lon="4.61719">
        <ele>363.65375</ele>
        <time>2023-09-30T08:58:23.000Z</time>
      </trkpt>
      <trkpt lat="45.80798" lon="4.61718">
        <ele>364.86246</ele>
        <time>2023-09-30T08:58:24.000Z</time>
      </trkpt>
      <trkpt lat="45.80803" lon="4.61717">
        <ele>366.23184</ele>
        <time>2023-09-30T08:58:25.000Z</time>
      </trkpt>
      <trkpt lat="45.80808" lon="4.6172">
        <ele>367.67545</ele>
        <time>2023-09-30T08:58:26.000Z</time>
      </trkpt>
      <trkpt lat="45.80813" lon="4.6172">
        <ele>368.37537</ele>
        <time>2023-09-30T08:58:27.000Z</time>
      </trkpt>
      <trkpt lat="45.80818" lon="4.61721">
        <ele>367.83948</ele>
        <time>2023-09-30T08:58:28.000Z</time>
      </trkpt>
      <trkpt lat="45.80822" lon="4.61721">
        <ele>367.29123</ele>
        <time>2023-09-30T08:58:29.000Z</time>
      </trkpt>
      <trkpt lat="45.80827" lon="4.61723">
        <ele>367.22626</ele>
        <time>2023-09-30T08:58:30.000Z</time>
      </trkpt>
      <trkpt lat="45.80832" lon="4.61723">
        <ele>367.15778</ele>
        <time>2023-09-30T08:58:31.000Z</time>
      </trkpt>
      <trkpt lat="45.80837" lon="4.61724">
        <ele>367.11581</ele>
        <time>2023-09-30T08:58:32.000Z</time>
      </trkpt>
      <trkpt lat="45.80841" lon="4.61726">
        <ele>367.0329</ele>
        <time>2023-09-30T08:58:33.000Z</time>
      </trkpt>
      <trkpt lat="45.80846" lon="4.61727">
        <ele>366.95276</ele>
        <time>2023-09-30T08:58:34.000Z</time>
      </trkpt>
      <trkpt lat="45.8085" lon="4.61728">
        <ele>366.86917</ele>
        <time>2023-09-30T08:58:35.000Z</time>
      </trkpt>
      <trkpt lat="45.80855" lon="4.61727">
        <ele>366.20859</ele>
        <time>2023-09-30T08:58:36.000Z</time>
      </trkpt>
      <trkpt lat="45.8086" lon="4.61727">
        <ele>365.54315</ele>
        <time>2023-09-30T08:58:37.000Z</time>
      </trkpt>
      <trkpt lat="45.80865" lon="4.61728">
        <ele>366.01624</ele>
        <time>2023-09-30T08:58:38.000Z</time>
      </trkpt>
      <trkpt lat="45.8087" lon="4.6173">
        <ele>366.52142</ele>
        <time>2023-09-30T08:58:39.000Z</time>
      </trkpt>
      <trkpt lat="45.80874" lon="4.61731">
        <ele>367.06363</ele>
        <time>2023-09-30T08:58:40.000Z</time>
      </trkpt>
      <trkpt lat="45.80878" lon="4.61733">
        <ele>367.60175</ele>
        <time>2023-09-30T08:58:41.000Z</time>
      </trkpt>
      <trkpt lat="45.80881" lon="4.61734">
        <ele>368.15134</ele>
        <time>2023-09-30T08:58:42.000Z</time>
      </trkpt>
      <trkpt lat="45.80886" lon="4.61735">
        <ele>368.68036</ele>
        <time>2023-09-30T08:58:43.000Z</time>
      </trkpt>
      <trkpt lat="45.8089" lon="4.61735">
        <ele>368.60895</ele>
        <time>2023-09-30T08:58:44.000Z</time>
      </trkpt>
      <trkpt lat="45.80894" lon="4.61736">
        <ele>368.5878</ele>
        <time>2023-09-30T08:58:45.000Z</time>
      </trkpt>
      <trkpt lat="45.80899" lon="4.61735">
        <ele>368.16486</ele>
        <time>2023-09-30T08:58:46.000Z</time>
      </trkpt>
      <trkpt lat="45.80905" lon="4.61735">
        <ele>368.53677</ele>
        <time>2023-09-30T08:58:47.000Z</time>
      </trkpt>
      <trkpt lat="45.80911" lon="4.61734">
        <ele>368.84186</ele>
        <time>2023-09-30T08:58:48.000Z</time>
      </trkpt>
      <trkpt lat="45.80917" lon="4.61734">
        <ele>369.14719</ele>
        <time>2023-09-30T08:58:49.000Z</time>
      </trkpt>
      <trkpt lat="45.80923" lon="4.61733">
        <ele>368.99863</ele>
        <time>2023-09-30T08:58:50.000Z</time>
      </trkpt>
      <trkpt lat="45.80929" lon="4.61732">
        <ele>368.81543</ele>
        <time>2023-09-30T08:58:51.000Z</time>
      </trkpt>
      <trkpt lat="45.80937" lon="4.61732">
        <ele>368.60031</ele>
        <time>2023-09-30T08:58:52.000Z</time>
      </trkpt>
      <trkpt lat="45.80944" lon="4.61731">
        <ele>368.37061</ele>
        <time>2023-09-30T08:58:53.000Z</time>
      </trkpt>
      <trkpt lat="45.80952" lon="4.6173">
        <ele>368.112</ele>
        <time>2023-09-30T08:58:54.000Z</time>
      </trkpt>
      <trkpt lat="45.80961" lon="4.61729">
        <ele>367.86398</ele>
        <time>2023-09-30T08:58:55.000Z</time>
      </trkpt>
      <trkpt lat="45.8097" lon="4.61729">
        <ele>368.25836</ele>
        <time>2023-09-30T08:58:56.000Z</time>
      </trkpt>
      <trkpt lat="45.80978" lon="4.61728">
        <ele>368.63287</ele>
        <time>2023-09-30T08:58:57.000Z</time>
      </trkpt>
      <trkpt lat="45.80987" lon="4.61727">
        <ele>368.54031</ele>
        <time>2023-09-30T08:58:58.000Z</time>
      </trkpt>
      <trkpt lat="45.80996" lon="4.61724">
        <ele>367.93329</ele>
        <time>2023-09-30T08:58:59.000Z</time>
      </trkpt>
      <trkpt lat="45.81005" lon="4.6172">
        <ele>367.36566</ele>
        <time>2023-09-30T08:59:00.000Z</time>
      </trkpt>
      <trkpt lat="45.81014" lon="4.61721">
        <ele>366.26962</ele>
        <time>2023-09-30T08:59:01.000Z</time>
      </trkpt>
      <trkpt lat="45.81022" lon="4.61721">
        <ele>365.17523</ele>
        <time>2023-09-30T08:59:02.000Z</time>
      </trkpt>
      <trkpt lat="45.8103" lon="4.61721">
        <ele>364.08844</ele>
        <time>2023-09-30T08:59:03.000Z</time>
      </trkpt>
      <trkpt lat="45.81037" lon="4.61723">
        <ele>363.71655</ele>
        <time>2023-09-30T08:59:04.000Z</time>
      </trkpt>
      <trkpt lat="45.81044" lon="4.61728">
        <ele>362.67194</ele>
        <time>2023-09-30T08:59:05.000Z</time>
      </trkpt>
      <trkpt lat="45.81049" lon="4.61736">
        <ele>361.94159</ele>
        <time>2023-09-30T08:59:06.000Z</time>
      </trkpt>
      <trkpt lat="45.81053" lon="4.61743">
        <ele>361.7085</ele>
        <time>2023-09-30T08:59:07.000Z</time>
      </trkpt>
      <trkpt lat="45.81058" lon="4.61751">
        <ele>361.44861</ele>
        <time>2023-09-30T08:59:08.000Z</time>
      </trkpt>
      <trkpt lat="45.81062" lon="4.61758">
        <ele>361.16193</ele>
        <time>2023-09-30T08:59:09.000Z</time>
      </trkpt>
      <trkpt lat="45.81065" lon="4.61763">
        <ele>360.85327</ele>
        <time>2023-09-30T08:59:10.000Z</time>
      </trkpt>
      <trkpt lat="45.81069" lon="4.61766">
        <ele>360.53714</ele>
        <time>2023-09-30T08:59:11.000Z</time>
      </trkpt>
      <trkpt lat="45.81073" lon="4.61766">
        <ele>360.25894</ele>
        <time>2023-09-30T08:59:12.000Z</time>
      </trkpt>
      <trkpt lat="45.81078" lon="4.61765">
        <ele>360.03998</ele>
        <time>2023-09-30T08:59:13.000Z</time>
      </trkpt>
      <trkpt lat="45.81082" lon="4.61765">
        <ele>359.85086</ele>
        <time>2023-09-30T08:59:14.000Z</time>
      </trkpt>
      <trkpt lat="45.81086" lon="4.61769">
        <ele>359.63922</ele>
        <time>2023-09-30T08:59:15.000Z</time>
      </trkpt>
      <trkpt lat="45.81089" lon="4.6177">
        <ele>359.31079</ele>
        <time>2023-09-30T08:59:16.000Z</time>
      </trkpt>
      <trkpt lat="45.81091" lon="4.61774">
        <ele>358.97748</ele>
        <time>2023-09-30T08:59:17.000Z</time>
      </trkpt>
      <trkpt lat="45.81095" lon="4.61777">
        <ele>358.70016</ele>
        <time>2023-09-30T08:59:18.000Z</time>
      </trkpt>
      <trkpt lat="45.81098" lon="4.6178">
        <ele>358.80231</ele>
        <time>2023-09-30T08:59:19.000Z</time>
      </trkpt>
      <trkpt lat="45.81101" lon="4.61782">
        <ele>358.87616</ele>
        <time>2023-09-30T08:59:20.000Z</time>
      </trkpt>
      <trkpt lat="45.81104" lon="4.61784">
        <ele>359.46628</ele>
        <time>2023-09-30T08:59:21.000Z</time>
      </trkpt>
      <trkpt lat="45.81106" lon="4.61785">
        <ele>360.05585</ele>
        <time>2023-09-30T08:59:22.000Z</time>
      </trkpt>
      <trkpt lat="45.81108" lon="4.61786">
        <ele>360.71478</ele>
        <time>2023-09-30T08:59:23.000Z</time>
      </trkpt>
      <trkpt lat="45.81111" lon="4.61787">
        <ele>361.31647</ele>
        <time>2023-09-30T08:59:24.000Z</time>
      </trkpt>
      <trkpt lat="45.81114" lon="4.61787">
        <ele>361.87143</ele>
        <time>2023-09-30T08:59:25.000Z</time>
      </trkpt>
      <trkpt lat="45.81117" lon="4.61786">
        <ele>361.87305</ele>
        <time>2023-09-30T08:59:26.000Z</time>
      </trkpt>
      <trkpt lat="45.81119" lon="4.61785">
        <ele>361.32214</ele>
        <time>2023-09-30T08:59:27.000Z</time>
      </trkpt>
      <trkpt lat="45.81121" lon="4.61782">
        <ele>360.91864</ele>
        <time>2023-09-30T08:59:30.000Z</time>
      </trkpt>
      <trkpt lat="45.81121" lon="4.61785">
        <ele>360.40869</ele>
        <time>2023-09-30T08:59:34.000Z</time>
      </trkpt>
      <trkpt lat="45.8112" lon="4.61788">
        <ele>359.94492</ele>
        <time>2023-09-30T08:59:37.000Z</time>
      </trkpt>
      <trkpt lat="45.81118" lon="4.6179">
        <ele>359.52988</ele>
        <time>2023-09-30T08:59:39.000Z</time>
      </trkpt>
      <trkpt lat="45.81116" lon="4.6179">
        <ele>360.12988</ele>
        <time>2023-09-30T08:59:41.000Z</time>
      </trkpt>
      <trkpt lat="45.81114" lon="4.6179">
        <ele>360.15411</ele>
        <time>2023-09-30T08:59:44.000Z</time>
      </trkpt>
      <trkpt lat="45.81117" lon="4.61788">
        <ele>360.06885</ele>
        <time>2023-09-30T09:00:02.000Z</time>
      </trkpt>
      <trkpt lat="45.81119" lon="4.61788">
        <ele>359.98895</ele>
        <time>2023-09-30T09:00:03.000Z</time>
      </trkpt>
      <trkpt lat="45.81121" lon="4.61787">
        <ele>359.8483</ele>
        <time>2023-09-30T09:00:04.000Z</time>
      </trkpt>
      <trkpt lat="45.81123" lon="4.61785">
        <ele>359.7298</ele>
        <time>2023-09-30T09:00:05.000Z</time>
      </trkpt>
      <trkpt lat="45.81124" lon="4.61782">
        <ele>359.16376</ele>
        <time>2023-09-30T09:00:06.000Z</time>
      </trkpt>
      <trkpt lat="45.81125" lon="4.6178">
        <ele>358.53375</ele>
        <time>2023-09-30T09:00:07.000Z</time>
      </trkpt>
      <trkpt lat="45.81126" lon="4.61776">
        <ele>357.89185</ele>
        <time>2023-09-30T09:00:08.000Z</time>
      </trkpt>
      <trkpt lat="45.81127" lon="4.61772">
        <ele>357.24573</ele>
        <time>2023-09-30T09:00:09.000Z</time>
      </trkpt>
      <trkpt lat="45.81128" lon="4.61768">
        <ele>356.58371</ele>
        <time>2023-09-30T09:00:10.000Z</time>
      </trkpt>
      <trkpt lat="45.81129" lon="4.61764">
        <ele>355.92575</ele>
        <time>2023-09-30T09:00:11.000Z</time>
      </trkpt>
      <trkpt lat="45.8113" lon="4.6176">
        <ele>355.3504</ele>
        <time>2023-09-30T09:00:12.000Z</time>
      </trkpt>
      <trkpt lat="45.8113" lon="4.61757">
        <ele>354.83929</ele>
        <time>2023-09-30T09:00:13.000Z</time>
      </trkpt>
      <trkpt lat="45.81131" lon="4.61753">
        <ele>354.909</ele>
        <time>2023-09-30T09:00:14.000Z</time>
      </trkpt>
      <trkpt lat="45.81132" lon="4.61749">
        <ele>355.04266</ele>
        <time>2023-09-30T09:00:15.000Z</time>
      </trkpt>
      <trkpt lat="45.81133" lon="4.61745">
        <ele>355.88306</ele>
        <time>2023-09-30T09:00:16.000Z</time>
      </trkpt>
      <trkpt lat="45.81136" lon="4.61743">
        <ele>356.54532</ele>
        <time>2023-09-30T09:00:17.000Z</time>
      </trkpt>
      <trkpt lat="45.81138" lon="4.61741">
        <ele>357.29004</ele>
        <time>2023-09-30T09:00:18.000Z</time>
      </trkpt>
      <trkpt lat="45.81141" lon="4.61739">
        <ele>357.98361</ele>
        <time>2023-09-30T09:00:19.000Z</time>
      </trkpt>
      <trkpt lat="45.81143" lon="4.61738">
        <ele>357.70999</ele>
        <time>2023-09-30T09:00:20.000Z</time>
      </trkpt>
      <trkpt lat="45.81146" lon="4.61737">
        <ele>357.99747</ele>
        <time>2023-09-30T09:00:21.000Z</time>
      </trkpt>
      <trkpt lat="45.81148" lon="4.61736">
        <ele>357.90668</ele>
        <time>2023-09-30T09:00:22.000Z</time>
      </trkpt>
      <trkpt lat="45.81151" lon="4.61735">
        <ele>357.84198</ele>
        <time>2023-09-30T09:00:23.000Z</time>
      </trkpt>
      <trkpt lat="45.81154" lon="4.61733">
        <ele>357.80475</ele>
        <time>2023-09-30T09:00:24.000Z</time>
      </trkpt>
      <trkpt lat="45.81156" lon="4.61732">
        <ele>357.74106</ele>
        <time>2023-09-30T09:00:25.000Z</time>
      </trkpt>
      <trkpt lat="45.81158" lon="4.61731">
        <ele>358.07379</ele>
        <time>2023-09-30T09:00:26.000Z</time>
      </trkpt>
      <trkpt lat="45.81161" lon="4.6173">
        <ele>358.49594</ele>
        <time>2023-09-30T09:00:27.000Z</time>
      </trkpt>
      <trkpt lat="45.81163" lon="4.61729">
        <ele>358.94733</ele>
        <time>2023-09-30T09:00:28.000Z</time>
      </trkpt>
      <trkpt lat="45.81166" lon="4.61728">
        <ele>359.41061</ele>
        <time>2023-09-30T09:00:29.000Z</time>
      </trkpt>
      <trkpt lat="45.81169" lon="4.61728">
        <ele>359.86633</ele>
        <time>2023-09-30T09:00:30.000Z</time>
      </trkpt>
      <trkpt lat="45.81172" lon="4.61727">
        <ele>360.28595</ele>
        <time>2023-09-30T09:00:31.000Z</time>
      </trkpt>
      <trkpt lat="45.81175" lon="4.61726">
        <ele>360.66962</ele>
        <time>2023-09-30T09:00:32.000Z</time>
      </trkpt>
      <trkpt lat="45.81178" lon="4.61725">
        <ele>360.97598</ele>
        <time>2023-09-30T09:00:33.000Z</time>
      </trkpt>
      <trkpt lat="45.81181" lon="4.61724">
        <ele>361.27008</ele>
        <time>2023-09-30T09:00:34.000Z</time>
      </trkpt>
      <trkpt lat="45.81184" lon="4.61723">
        <ele>361.57071</ele>
        <time>2023-09-30T09:00:35.000Z</time>
      </trkpt>
      <trkpt lat="45.81186" lon="4.61721">
        <ele>361.06879</ele>
        <time>2023-09-30T09:00:36.000Z</time>
      </trkpt>
      <trkpt lat="45.81189" lon="4.6172">
        <ele>360.87833</ele>
        <time>2023-09-30T09:00:37.000Z</time>
      </trkpt>
      <trkpt lat="45.81192" lon="4.61719">
        <ele>360.58112</ele>
        <time>2023-09-30T09:00:38.000Z</time>
      </trkpt>
      <trkpt lat="45.81195" lon="4.61718">
        <ele>360.30783</ele>
        <time>2023-09-30T09:00:39.000Z</time>
      </trkpt>
      <trkpt lat="45.81198" lon="4.61717">
        <ele>360.01874</ele>
        <time>2023-09-30T09:00:40.000Z</time>
      </trkpt>
      <trkpt lat="45.81201" lon="4.61716">
        <ele>359.72711</ele>
        <time>2023-09-30T09:00:41.000Z</time>
      </trkpt>
      <trkpt lat="45.81204" lon="4.61715">
        <ele>360.00186</ele>
        <time>2023-09-30T09:00:42.000Z</time>
      </trkpt>
      <trkpt lat="45.81207" lon="4.61714">
        <ele>360.26758</ele>
        <time>2023-09-30T09:00:43.000Z</time>
      </trkpt>
      <trkpt lat="45.81209" lon="4.61712">
        <ele>360.54944</ele>
        <time>2023-09-30T09:00:44.000Z</time>
      </trkpt>
      <trkpt lat="45.81212" lon="4.61711">
        <ele>360.85492</ele>
        <time>2023-09-30T09:00:45.000Z</time>
      </trkpt>
      <trkpt lat="45.81215" lon="4.6171">
        <ele>361.10364</ele>
        <time>2023-09-30T09:00:46.000Z</time>
      </trkpt>
      <trkpt lat="45.81218" lon="4.61708">
        <ele>361.34943</ele>
        <time>2023-09-30T09:00:47.000Z</time>
      </trkpt>
      <trkpt lat="45.81221" lon="4.61707">
        <ele>361.55902</ele>
        <time>2023-09-30T09:00:48.000Z</time>
      </trkpt>
      <trkpt lat="45.81224" lon="4.61706">
        <ele>361.75513</ele>
        <time>2023-09-30T09:00:49.000Z</time>
      </trkpt>
      <trkpt lat="45.81227" lon="4.61705">
        <ele>361.97528</ele>
        <time>2023-09-30T09:00:50.000Z</time>
      </trkpt>
      <trkpt lat="45.8123" lon="4.61704">
        <ele>362.29364</ele>
        <time>2023-09-30T09:00:51.000Z</time>
      </trkpt>
      <trkpt lat="45.81232" lon="4.61703">
        <ele>362.57684</ele>
        <time>2023-09-30T09:00:52.000Z</time>
      </trkpt>
      <trkpt lat="45.81235" lon="4.61702">
        <ele>362.85947</ele>
        <time>2023-09-30T09:00:53.000Z</time>
      </trkpt>
      <trkpt lat="45.81237" lon="4.617">
        <ele>363.16391</ele>
        <time>2023-09-30T09:00:54.000Z</time>
      </trkpt>
      <trkpt lat="45.8124" lon="4.61698">
        <ele>363.43768</ele>
        <time>2023-09-30T09:00:55.000Z</time>
      </trkpt>
      <trkpt lat="45.81243" lon="4.61696">
        <ele>363.69806</ele>
        <time>2023-09-30T09:00:56.000Z</time>
      </trkpt>
      <trkpt lat="45.81245" lon="4.61695">
        <ele>363.93842</ele>
        <time>2023-09-30T09:00:57.000Z</time>
      </trkpt>
      <trkpt lat="45.81248" lon="4.61693">
        <ele>364.20111</ele>
        <time>2023-09-30T09:00:58.000Z</time>
      </trkpt>
      <trkpt lat="45.8125" lon="4.61692">
        <ele>364.49246</ele>
        <time>2023-09-30T09:00:59.000Z</time>
      </trkpt>
      <trkpt lat="45.81253" lon="4.6169">
        <ele>364.73471</ele>
        <time>2023-09-30T09:01:00.000Z</time>
      </trkpt>
      <trkpt lat="45.81255" lon="4.61689">
        <ele>364.97263</ele>
        <time>2023-09-30T09:01:01.000Z</time>
      </trkpt>
      <trkpt lat="45.81257" lon="4.61688">
        <ele>365.11435</ele>
        <time>2023-09-30T09:01:02.000Z</time>
      </trkpt>
      <trkpt lat="45.8126" lon="4.61688">
        <ele>365.27618</ele>
        <time>2023-09-30T09:01:03.000Z</time>
      </trkpt>
      <trkpt lat="45.81262" lon="4.61687">
        <ele>366.01086</ele>
        <time>2023-09-30T09:01:04.000Z</time>
      </trkpt>
      <trkpt lat="45.81264" lon="4.61686">
        <ele>366.44498</ele>
        <time>2023-09-30T09:01:05.000Z</time>
      </trkpt>
      <trkpt lat="45.81265" lon="4.61684">
        <ele>366.92316</ele>
        <time>2023-09-30T09:01:06.000Z</time>
      </trkpt>
      <trkpt lat="45.81267" lon="4.61683">
        <ele>367.40836</ele>
        <time>2023-09-30T09:01:07.000Z</time>
      </trkpt>
      <trkpt lat="45.81269" lon="4.61682">
        <ele>367.86383</ele>
        <time>2023-09-30T09:01:08.000Z</time>
      </trkpt>
      <trkpt lat="45.81272" lon="4.6168">
        <ele>368.27231</ele>
        <time>2023-09-30T09:01:09.000Z</time>
      </trkpt>
      <trkpt lat="45.81275" lon="4.61677">
        <ele>368.69159</ele>
        <time>2023-09-30T09:01:10.000Z</time>
      </trkpt>
      <trkpt lat="45.81278" lon="4.61675">
        <ele>369.06268</ele>
        <time>2023-09-30T09:01:11.000Z</time>
      </trkpt>
      <trkpt lat="45.81281" lon="4.61674">
        <ele>369.46811</ele>
        <time>2023-09-30T09:01:12.000Z</time>
      </trkpt>
      <trkpt lat="45.81285" lon="4.61673">
        <ele>369.4136</ele>
        <time>2023-09-30T09:01:13.000Z</time>
      </trkpt>
      <trkpt lat="45.81289" lon="4.61672">
        <ele>369.47839</ele>
        <time>2023-09-30T09:01:14.000Z</time>
      </trkpt>
      <trkpt lat="45.81293" lon="4.61672">
        <ele>369.48074</ele>
        <time>2023-09-30T09:01:15.000Z</time>
      </trkpt>
      <trkpt lat="45.81297" lon="4.61672">
        <ele>369.47565</ele>
        <time>2023-09-30T09:01:16.000Z</time>
      </trkpt>
      <trkpt lat="45.81301" lon="4.61673">
        <ele>369.49615</ele>
        <time>2023-09-30T09:01:17.000Z</time>
      </trkpt>
      <trkpt lat="45.81305" lon="4.61673">
        <ele>369.47894</ele>
        <time>2023-09-30T09:01:18.000Z</time>
      </trkpt>
      <trkpt lat="45.81309" lon="4.61672">
        <ele>369.43561</ele>
        <time>2023-09-30T09:01:19.000Z</time>
      </trkpt>
      <trkpt lat="45.81314" lon="4.61672">
        <ele>369.40015</ele>
        <time>2023-09-30T09:01:20.000Z</time>
      </trkpt>
      <trkpt lat="45.81319" lon="4.61672">
        <ele>369.65005</ele>
        <time>2023-09-30T09:01:21.000Z</time>
      </trkpt>
      <trkpt lat="45.81323" lon="4.61671">
        <ele>369.89606</ele>
        <time>2023-09-30T09:01:22.000Z</time>
      </trkpt>
      <trkpt lat="45.81329" lon="4.61672">
        <ele>370.09085</ele>
        <time>2023-09-30T09:01:23.000Z</time>
      </trkpt>
      <trkpt lat="45.81334" lon="4.61671">
        <ele>369.67661</ele>
        <time>2023-09-30T09:01:24.000Z</time>
      </trkpt>
      <trkpt lat="45.81339" lon="4.61671">
        <ele>369.62183</ele>
        <time>2023-09-30T09:01:25.000Z</time>
      </trkpt>
      <trkpt lat="45.81344" lon="4.6167">
        <ele>369.52966</ele>
        <time>2023-09-30T09:01:26.000Z</time>
      </trkpt>
      <trkpt lat="45.8135" lon="4.6167">
        <ele>369.42365</ele>
        <time>2023-09-30T09:01:27.000Z</time>
      </trkpt>
      <trkpt lat="45.81355" lon="4.6167">
        <ele>369.35596</ele>
        <time>2023-09-30T09:01:28.000Z</time>
      </trkpt>
      <trkpt lat="45.81361" lon="4.61669">
        <ele>369.22903</ele>
        <time>2023-09-30T09:01:29.000Z</time>
      </trkpt>
      <trkpt lat="45.81366" lon="4.61668">
        <ele>369.08682</ele>
        <time>2023-09-30T09:01:30.000Z</time>
      </trkpt>
      <trkpt lat="45.81372" lon="4.61668">
        <ele>368.86032</ele>
        <time>2023-09-30T09:01:31.000Z</time>
      </trkpt>
      <trkpt lat="45.81378" lon="4.61667">
        <ele>368.58411</ele>
        <time>2023-09-30T09:01:32.000Z</time>
      </trkpt>
      <trkpt lat="45.81385" lon="4.61666">
        <ele>368.73236</ele>
        <time>2023-09-30T09:01:33.000Z</time>
      </trkpt>
      <trkpt lat="45.81392" lon="4.61665">
        <ele>368.76028</ele>
        <time>2023-09-30T09:01:34.000Z</time>
      </trkpt>
      <trkpt lat="45.81398" lon="4.61665">
        <ele>368.78394</ele>
        <time>2023-09-30T09:01:35.000Z</time>
      </trkpt>
      <trkpt lat="45.81406" lon="4.61663">
        <ele>368.82339</ele>
        <time>2023-09-30T09:01:36.000Z</time>
      </trkpt>
      <trkpt lat="45.81412" lon="4.61662">
        <ele>368.85516</ele>
        <time>2023-09-30T09:01:37.000Z</time>
      </trkpt>
      <trkpt lat="45.81418" lon="4.6166">
        <ele>368.89203</ele>
        <time>2023-09-30T09:01:38.000Z</time>
      </trkpt>
      <trkpt lat="45.81425" lon="4.61661">
        <ele>368.88605</ele>
        <time>2023-09-30T09:01:39.000Z</time>
      </trkpt>
      <trkpt lat="45.81429" lon="4.61662">
        <ele>368.86926</ele>
        <time>2023-09-30T09:01:40.000Z</time>
      </trkpt>
      <trkpt lat="45.81433" lon="4.61663">
        <ele>368.56653</ele>
        <time>2023-09-30T09:01:41.000Z</time>
      </trkpt>
      <trkpt lat="45.81437" lon="4.61663">
        <ele>368.24805</ele>
        <time>2023-09-30T09:01:42.000Z</time>
      </trkpt>
      <trkpt lat="45.81441" lon="4.61661">
        <ele>367.91779</ele>
        <time>2023-09-30T09:01:43.000Z</time>
      </trkpt>
      <trkpt lat="45.81446" lon="4.61659">
        <ele>367.55438</ele>
        <time>2023-09-30T09:01:44.000Z</time>
      </trkpt>
      <trkpt lat="45.81448" lon="4.61652">
        <ele>367.12717</ele>
        <time>2023-09-30T09:01:45.000Z</time>
      </trkpt>
      <trkpt lat="45.81452" lon="4.61646">
        <ele>366.72171</ele>
        <time>2023-09-30T09:01:46.000Z</time>
      </trkpt>
      <trkpt lat="45.81456" lon="4.61639">
        <ele>366.32178</ele>
        <time>2023-09-30T09:01:47.000Z</time>
      </trkpt>
      <trkpt lat="45.8146" lon="4.61633">
        <ele>365.8891</ele>
        <time>2023-09-30T09:01:48.000Z</time>
      </trkpt>
      <trkpt lat="45.81464" lon="4.61626">
        <ele>365.54941</ele>
        <time>2023-09-30T09:01:49.000Z</time>
      </trkpt>
      <trkpt lat="45.81468" lon="4.61619">
        <ele>365.20258</ele>
        <time>2023-09-30T09:01:50.000Z</time>
      </trkpt>
      <trkpt lat="45.81472" lon="4.61611">
        <ele>364.86615</ele>
        <time>2023-09-30T09:01:51.000Z</time>
      </trkpt>
      <trkpt lat="45.81476" lon="4.61604">
        <ele>364.64932</ele>
        <time>2023-09-30T09:01:52.000Z</time>
      </trkpt>
      <trkpt lat="45.81481" lon="4.61598">
        <ele>364.46927</ele>
        <time>2023-09-30T09:01:53.000Z</time>
      </trkpt>
      <trkpt lat="45.81485" lon="4.6159">
        <ele>364.31067</ele>
        <time>2023-09-30T09:01:54.000Z</time>
      </trkpt>
      <trkpt lat="45.81488" lon="4.61584">
        <ele>364.1781</ele>
        <time>2023-09-30T09:01:55.000Z</time>
      </trkpt>
      <trkpt lat="45.81491" lon="4.61576">
        <ele>364.07013</ele>
        <time>2023-09-30T09:01:56.000Z</time>
      </trkpt>
      <trkpt lat="45.81494" lon="4.61569">
        <ele>363.66095</ele>
        <time>2023-09-30T09:01:57.000Z</time>
      </trkpt>
      <trkpt lat="45.81498" lon="4.61562">
        <ele>363.23193</ele>
        <time>2023-09-30T09:01:58.000Z</time>
      </trkpt>
      <trkpt lat="45.81503" lon="4.61554">
        <ele>362.78476</ele>
        <time>2023-09-30T09:01:59.000Z</time>
      </trkpt>
      <trkpt lat="45.81506" lon="4.61546">
        <ele>362.2735</ele>
        <time>2023-09-30T09:02:00.000Z</time>
      </trkpt>
      <trkpt lat="45.81511" lon="4.61539">
        <ele>361.71262</ele>
        <time>2023-09-30T09:02:01.000Z</time>
      </trkpt>
      <trkpt lat="45.81515" lon="4.61533">
        <ele>361.16171</ele>
        <time>2023-09-30T09:02:02.000Z</time>
      </trkpt>
      <trkpt lat="45.81518" lon="4.61526">
        <ele>360.58719</ele>
        <time>2023-09-30T09:02:03.000Z</time>
      </trkpt>
      <trkpt lat="45.81522" lon="4.61521">
        <ele>360.01437</ele>
        <time>2023-09-30T09:02:04.000Z</time>
      </trkpt>
      <trkpt lat="45.81527" lon="4.61514">
        <ele>359.42804</ele>
        <time>2023-09-30T09:02:05.000Z</time>
      </trkpt>
      <trkpt lat="45.81534" lon="4.61508">
        <ele>358.79221</ele>
        <time>2023-09-30T09:02:06.000Z</time>
      </trkpt>
      <trkpt lat="45.8154" lon="4.61504">
        <ele>358.14883</ele>
        <time>2023-09-30T09:02:07.000Z</time>
      </trkpt>
      <trkpt lat="45.81547" lon="4.615">
        <ele>357.49805</ele>
        <time>2023-09-30T09:02:08.000Z</time>
      </trkpt>
      <trkpt lat="45.81553" lon="4.61499">
        <ele>356.89859</ele>
        <time>2023-09-30T09:02:09.000Z</time>
      </trkpt>
      <trkpt lat="45.81557" lon="4.61501">
        <ele>356.33301</ele>
        <time>2023-09-30T09:02:10.000Z</time>
      </trkpt>
      <trkpt lat="45.81561" lon="4.61504">
        <ele>355.77386</ele>
        <time>2023-09-30T09:02:11.000Z</time>
      </trkpt>
      <trkpt lat="45.81565" lon="4.61507">
        <ele>355.08844</ele>
        <time>2023-09-30T09:02:12.000Z</time>
      </trkpt>
      <trkpt lat="45.81569" lon="4.6151">
        <ele>354.4411</ele>
        <time>2023-09-30T09:02:13.000Z</time>
      </trkpt>
      <trkpt lat="45.81573" lon="4.61513">
        <ele>353.70428</ele>
        <time>2023-09-30T09:02:14.000Z</time>
      </trkpt>
      <trkpt lat="45.81578" lon="4.61517">
        <ele>353.00015</ele>
        <time>2023-09-30T09:02:15.000Z</time>
      </trkpt>
      <trkpt lat="45.81581" lon="4.6152">
        <ele>352.2233</ele>
        <time>2023-09-30T09:02:16.000Z</time>
      </trkpt>
      <trkpt lat="45.81585" lon="4.61524">
        <ele>351.92816</ele>
        <time>2023-09-30T09:02:17.000Z</time>
      </trkpt>
      <trkpt lat="45.81588" lon="4.61528">
        <ele>351.642</ele>
        <time>2023-09-30T09:02:18.000Z</time>
      </trkpt>
      <trkpt lat="45.81591" lon="4.61532">
        <ele>351.41428</ele>
        <time>2023-09-30T09:02:19.000Z</time>
      </trkpt>
      <trkpt lat="45.81593" lon="4.61535">
        <ele>351.23859</ele>
        <time>2023-09-30T09:02:20.000Z</time>
      </trkpt>
      <trkpt lat="45.81597" lon="4.61537">
        <ele>351.15924</ele>
        <time>2023-09-30T09:02:21.000Z</time>
      </trkpt>
      <trkpt lat="45.81603" lon="4.61537">
        <ele>351.21109</ele>
        <time>2023-09-30T09:02:22.000Z</time>
      </trkpt>
      <trkpt lat="45.81608" lon="4.61535">
        <ele>351.32471</ele>
        <time>2023-09-30T09:02:23.000Z</time>
      </trkpt>
      <trkpt lat="45.81613" lon="4.61532">
        <ele>351.11172</ele>
        <time>2023-09-30T09:02:24.000Z</time>
      </trkpt>
      <trkpt lat="45.81617" lon="4.6153">
        <ele>350.93491</ele>
        <time>2023-09-30T09:02:25.000Z</time>
      </trkpt>
      <trkpt lat="45.81621" lon="4.61529">
        <ele>350.81635</ele>
        <time>2023-09-30T09:02:26.000Z</time>
      </trkpt>
      <trkpt lat="45.81625" lon="4.61527">
        <ele>350.71588</ele>
        <time>2023-09-30T09:02:27.000Z</time>
      </trkpt>
      <trkpt lat="45.81629" lon="4.61525">
        <ele>350.62286</ele>
        <time>2023-09-30T09:02:28.000Z</time>
      </trkpt>
      <trkpt lat="45.81632" lon="4.61522">
        <ele>350.54102</ele>
        <time>2023-09-30T09:02:29.000Z</time>
      </trkpt>
      <trkpt lat="45.81636" lon="4.61519">
        <ele>350.44357</ele>
        <time>2023-09-30T09:02:30.000Z</time>
      </trkpt>
      <trkpt lat="45.81639" lon="4.61515">
        <ele>350.34454</ele>
        <time>2023-09-30T09:02:31.000Z</time>
      </trkpt>
      <trkpt lat="45.81643" lon="4.6151">
        <ele>350.2558</ele>
        <time>2023-09-30T09:02:32.000Z</time>
      </trkpt>
      <trkpt lat="45.81646" lon="4.61504">
        <ele>350.37848</ele>
        <time>2023-09-30T09:02:33.000Z</time>
      </trkpt>
      <trkpt lat="45.8165" lon="4.61499">
        <ele>350.5932</ele>
        <time>2023-09-30T09:02:34.000Z</time>
      </trkpt>
      <trkpt lat="45.81654" lon="4.61494">
        <ele>350.83594</ele>
        <time>2023-09-30T09:02:35.000Z</time>
      </trkpt>
      <trkpt lat="45.81658" lon="4.61487">
        <ele>350.66125</ele>
        <time>2023-09-30T09:02:36.000Z</time>
      </trkpt>
      <trkpt lat="45.81661" lon="4.61481">
        <ele>350.34122</ele>
        <time>2023-09-30T09:02:37.000Z</time>
      </trkpt>
      <trkpt lat="45.81666" lon="4.61475">
        <ele>349.98862</ele>
        <time>2023-09-30T09:02:38.000Z</time>
      </trkpt>
      <trkpt lat="45.81671" lon="4.6147">
        <ele>349.62976</ele>
        <time>2023-09-30T09:02:39.000Z</time>
      </trkpt>
      <trkpt lat="45.81674" lon="4.61465">
        <ele>349.25665</ele>
        <time>2023-09-30T09:02:40.000Z</time>
      </trkpt>
      <trkpt lat="45.81678" lon="4.61459">
        <ele>348.85931</ele>
        <time>2023-09-30T09:02:41.000Z</time>
      </trkpt>
      <trkpt lat="45.81682" lon="4.61454">
        <ele>348.36789</ele>
        <time>2023-09-30T09:02:42.000Z</time>
      </trkpt>
      <trkpt lat="45.81684" lon="4.6145">
        <ele>347.87769</ele>
        <time>2023-09-30T09:02:43.000Z</time>
      </trkpt>
      <trkpt lat="45.81687" lon="4.61446">
        <ele>347.81293</ele>
        <time>2023-09-30T09:02:44.000Z</time>
      </trkpt>
      <trkpt lat="45.8169" lon="4.61441">
        <ele>347.77277</ele>
        <time>2023-09-30T09:02:45.000Z</time>
      </trkpt>
      <trkpt lat="45.81693" lon="4.61438">
        <ele>347.74472</ele>
        <time>2023-09-30T09:02:46.000Z</time>
      </trkpt>
      <trkpt lat="45.81695" lon="4.61435">
        <ele>347.70322</ele>
        <time>2023-09-30T09:02:47.000Z</time>
      </trkpt>
      <trkpt lat="45.81697" lon="4.61432">
        <ele>347.67072</ele>
        <time>2023-09-30T09:02:48.000Z</time>
      </trkpt>
      <trkpt lat="45.817" lon="4.61429">
        <ele>347.58377</ele>
        <time>2023-09-30T09:02:49.000Z</time>
      </trkpt>
      <trkpt lat="45.81702" lon="4.61426">
        <ele>347.48318</ele>
        <time>2023-09-30T09:02:50.000Z</time>
      </trkpt>
      <trkpt lat="45.81703" lon="4.61424">
        <ele>347.40359</ele>
        <time>2023-09-30T09:02:51.000Z</time>
      </trkpt>
      <trkpt lat="45.81705" lon="4.61422">
        <ele>347.31436</ele>
        <time>2023-09-30T09:02:52.000Z</time>
      </trkpt>
      <trkpt lat="45.81706" lon="4.6142">
        <ele>346.99774</ele>
        <time>2023-09-30T09:02:53.000Z</time>
      </trkpt>
      <trkpt lat="45.81708" lon="4.61417">
        <ele>346.64594</ele>
        <time>2023-09-30T09:02:54.000Z</time>
      </trkpt>
      <trkpt lat="45.81709" lon="4.61415">
        <ele>346.25861</ele>
        <time>2023-09-30T09:02:55.000Z</time>
      </trkpt>
      <trkpt lat="45.81711" lon="4.61413">
        <ele>346.34052</ele>
        <time>2023-09-30T09:02:56.000Z</time>
      </trkpt>
      <trkpt lat="45.81712" lon="4.61411">
        <ele>346.41754</ele>
        <time>2023-09-30T09:02:57.000Z</time>
      </trkpt>
      <trkpt lat="45.81715" lon="4.61408">
        <ele>346.51572</ele>
        <time>2023-09-30T09:02:59.000Z</time>
      </trkpt>
      <trkpt lat="45.81716" lon="4.61406">
        <ele>346.62332</ele>
        <time>2023-09-30T09:03:00.000Z</time>
      </trkpt>
      <trkpt lat="45.81717" lon="4.61404">
        <ele>346.76532</ele>
        <time>2023-09-30T09:03:01.000Z</time>
      </trkpt>
      <trkpt lat="45.81719" lon="4.61402">
        <ele>346.87015</ele>
        <time>2023-09-30T09:03:02.000Z</time>
      </trkpt>
      <trkpt lat="45.81721" lon="4.614">
        <ele>346.9743</ele>
        <time>2023-09-30T09:03:03.000Z</time>
      </trkpt>
      <trkpt lat="45.81723" lon="4.61397">
        <ele>347.03458</ele>
        <time>2023-09-30T09:03:04.000Z</time>
      </trkpt>
      <trkpt lat="45.81725" lon="4.61393">
        <ele>347.02277</ele>
        <time>2023-09-30T09:03:05.000Z</time>
      </trkpt>
      <trkpt lat="45.81729" lon="4.6139">
        <ele>346.95035</ele>
        <time>2023-09-30T09:03:06.000Z</time>
      </trkpt>
      <trkpt lat="45.81732" lon="4.61386">
        <ele>346.86005</ele>
        <time>2023-09-30T09:03:07.000Z</time>
      </trkpt>
      <trkpt lat="45.81736" lon="4.61381">
        <ele>346.71426</ele>
        <time>2023-09-30T09:03:08.000Z</time>
      </trkpt>
      <trkpt lat="45.81739" lon="4.61376">
        <ele>346.54279</ele>
        <time>2023-09-30T09:03:09.000Z</time>
      </trkpt>
      <trkpt lat="45.81742" lon="4.6137">
        <ele>346.37958</ele>
        <time>2023-09-30T09:03:10.000Z</time>
      </trkpt>
      <trkpt lat="45.81745" lon="4.61365">
        <ele>346.19672</ele>
        <time>2023-09-30T09:03:11.000Z</time>
      </trkpt>
      <trkpt lat="45.81748" lon="4.6136">
        <ele>345.99112</ele>
        <time>2023-09-30T09:03:12.000Z</time>
      </trkpt>
      <trkpt lat="45.81752" lon="4.61355">
        <ele>345.78268</ele>
        <time>2023-09-30T09:03:13.000Z</time>
      </trkpt>
      <trkpt lat="45.81756" lon="4.6135">
        <ele>345.54971</ele>
        <time>2023-09-30T09:03:14.000Z</time>
      </trkpt>
      <trkpt lat="45.8176" lon="4.61345">
        <ele>345.31622</ele>
        <time>2023-09-30T09:03:15.000Z</time>
      </trkpt>
      <trkpt lat="45.81764" lon="4.61341">
        <ele>345.06253</ele>
        <time>2023-09-30T09:03:16.000Z</time>
      </trkpt>
      <trkpt lat="45.81768" lon="4.61336">
        <ele>345.00726</ele>
        <time>2023-09-30T09:03:17.000Z</time>
      </trkpt>
      <trkpt lat="45.81773" lon="4.61332">
        <ele>345.0513</ele>
        <time>2023-09-30T09:03:18.000Z</time>
      </trkpt>
      <trkpt lat="45.81778" lon="4.61329">
        <ele>345.18149</ele>
        <time>2023-09-30T09:03:19.000Z</time>
      </trkpt>
      <trkpt lat="45.81783" lon="4.61326">
        <ele>345.33585</ele>
        <time>2023-09-30T09:03:20.000Z</time>
      </trkpt>
      <trkpt lat="45.81787" lon="4.61323">
        <ele>344.97192</ele>
        <time>2023-09-30T09:03:21.000Z</time>
      </trkpt>
      <trkpt lat="45.81792" lon="4.61319">
        <ele>344.64432</ele>
        <time>2023-09-30T09:03:22.000Z</time>
      </trkpt>
      <trkpt lat="45.81797" lon="4.61317">
        <ele>344.28156</ele>
        <time>2023-09-30T09:03:23.000Z</time>
      </trkpt>
      <trkpt lat="45.81802" lon="4.61314">
        <ele>343.93784</ele>
        <time>2023-09-30T09:03:24.000Z</time>
      </trkpt>
      <trkpt lat="45.81808" lon="4.61312">
        <ele>343.08322</ele>
        <time>2023-09-30T09:03:25.000Z</time>
      </trkpt>
      <trkpt lat="45.81813" lon="4.61311">
        <ele>342.22736</ele>
        <time>2023-09-30T09:03:26.000Z</time>
      </trkpt>
      <trkpt lat="45.81818" lon="4.61309">
        <ele>341.38995</ele>
        <time>2023-09-30T09:03:27.000Z</time>
      </trkpt>
      <trkpt lat="45.81823" lon="4.61308">
        <ele>340.58453</ele>
        <time>2023-09-30T09:03:28.000Z</time>
      </trkpt>
      <trkpt lat="45.81828" lon="4.61306">
        <ele>339.78046</ele>
        <time>2023-09-30T09:03:29.000Z</time>
      </trkpt>
      <trkpt lat="45.81833" lon="4.61305">
        <ele>338.94223</ele>
        <time>2023-09-30T09:03:30.000Z</time>
      </trkpt>
      <trkpt lat="45.81839" lon="4.61304">
        <ele>338.06458</ele>
        <time>2023-09-30T09:03:31.000Z</time>
      </trkpt>
      <trkpt lat="45.81845" lon="4.61302">
        <ele>337.17242</ele>
        <time>2023-09-30T09:03:32.000Z</time>
      </trkpt>
      <trkpt lat="45.81851" lon="4.613">
        <ele>336.3017</ele>
        <time>2023-09-30T09:03:33.000Z</time>
      </trkpt>
      <trkpt lat="45.81858" lon="4.61299">
        <ele>335.4368</ele>
        <time>2023-09-30T09:03:34.000Z</time>
      </trkpt>
      <trkpt lat="45.81864" lon="4.61298">
        <ele>334.5607</ele>
        <time>2023-09-30T09:03:35.000Z</time>
      </trkpt>
      <trkpt lat="45.81871" lon="4.61297">
        <ele>333.68881</ele>
        <time>2023-09-30T09:03:36.000Z</time>
      </trkpt>
      <trkpt lat="45.81878" lon="4.61297">
        <ele>332.56821</ele>
        <time>2023-09-30T09:03:37.000Z</time>
      </trkpt>
      <trkpt lat="45.81885" lon="4.61297">
        <ele>331.2756</ele>
        <time>2023-09-30T09:03:38.000Z</time>
      </trkpt>
      <trkpt lat="45.81893" lon="4.61295">
        <ele>329.89374</ele>
        <time>2023-09-30T09:03:39.000Z</time>
      </trkpt>
      <trkpt lat="45.819" lon="4.61294">
        <ele>328.45868</ele>
        <time>2023-09-30T09:03:40.000Z</time>
      </trkpt>
      <trkpt lat="45.81909" lon="4.61293">
        <ele>327.513</ele>
        <time>2023-09-30T09:03:41.000Z</time>
      </trkpt>
      <trkpt lat="45.81917" lon="4.61292">
        <ele>326.54083</ele>
        <time>2023-09-30T09:03:42.000Z</time>
      </trkpt>
      <trkpt lat="45.81925" lon="4.61292">
        <ele>325.5141</ele>
        <time>2023-09-30T09:03:43.000Z</time>
      </trkpt>
      <trkpt lat="45.81933" lon="4.61291">
        <ele>324.47763</ele>
        <time>2023-09-30T09:03:44.000Z</time>
      </trkpt>
      <trkpt lat="45.81942" lon="4.61289">
        <ele>323.95416</ele>
        <time>2023-09-30T09:03:45.000Z</time>
      </trkpt>
      <trkpt lat="45.8195" lon="4.61288">
        <ele>323.41983</ele>
        <time>2023-09-30T09:03:46.000Z</time>
      </trkpt>
      <trkpt lat="45.81959" lon="4.61287">
        <ele>322.83417</ele>
        <time>2023-09-30T09:03:47.000Z</time>
      </trkpt>
      <trkpt lat="45.81968" lon="4.61286">
        <ele>322.22455</ele>
        <time>2023-09-30T09:03:48.000Z</time>
      </trkpt>
      <trkpt lat="45.81977" lon="4.61285">
        <ele>321.61334</ele>
        <time>2023-09-30T09:03:49.000Z</time>
      </trkpt>
      <trkpt lat="45.81987" lon="4.61285">
        <ele>321.13016</ele>
        <time>2023-09-30T09:03:50.000Z</time>
      </trkpt>
      <trkpt lat="45.81996" lon="4.61286">
        <ele>320.66766</ele>
        <time>2023-09-30T09:03:51.000Z</time>
      </trkpt>
      <trkpt lat="45.82005" lon="4.61287">
        <ele>320.21994</ele>
        <time>2023-09-30T09:03:52.000Z</time>
      </trkpt>
      <trkpt lat="45.82014" lon="4.61289">
        <ele>319.79587</ele>
        <time>2023-09-30T09:03:53.000Z</time>
      </trkpt>
      <trkpt lat="45.82023" lon="4.6129">
        <ele>319.33936</ele>
        <time>2023-09-30T09:03:54.000Z</time>
      </trkpt>
      <trkpt lat="45.82032" lon="4.61293">
        <ele>318.87518</ele>
        <time>2023-09-30T09:03:55.000Z</time>
      </trkpt>
      <trkpt lat="45.82041" lon="4.61295">
        <ele>318.04105</ele>
        <time>2023-09-30T09:03:56.000Z</time>
      </trkpt>
      <trkpt lat="45.82051" lon="4.61298">
        <ele>317.24408</ele>
        <time>2023-09-30T09:03:57.000Z</time>
      </trkpt>
      <trkpt lat="45.82059" lon="4.61299">
        <ele>316.43848</ele>
        <time>2023-09-30T09:03:58.000Z</time>
      </trkpt>
      <trkpt lat="45.82069" lon="4.61301">
        <ele>315.71063</ele>
        <time>2023-09-30T09:03:59.000Z</time>
      </trkpt>
      <trkpt lat="45.82077" lon="4.61302">
        <ele>314.98175</ele>
        <time>2023-09-30T09:04:00.000Z</time>
      </trkpt>
      <trkpt lat="45.82087" lon="4.61303">
        <ele>314.2951</ele>
        <time>2023-09-30T09:04:01.000Z</time>
      </trkpt>
      <trkpt lat="45.82096" lon="4.61305">
        <ele>313.60651</ele>
        <time>2023-09-30T09:04:02.000Z</time>
      </trkpt>
      <trkpt lat="45.82105" lon="4.61307">
        <ele>312.82065</ele>
        <time>2023-09-30T09:04:03.000Z</time>
      </trkpt>
      <trkpt lat="45.82114" lon="4.61309">
        <ele>312.03391</ele>
        <time>2023-09-30T09:04:04.000Z</time>
      </trkpt>
      <trkpt lat="45.82125" lon="4.6131">
        <ele>311.21805</ele>
        <time>2023-09-30T09:04:05.000Z</time>
      </trkpt>
      <trkpt lat="45.82135" lon="4.61312">
        <ele>310.40973</ele>
        <time>2023-09-30T09:04:06.000Z</time>
      </trkpt>
      <trkpt lat="45.82145" lon="4.61313">
        <ele>309.61356</ele>
        <time>2023-09-30T09:04:07.000Z</time>
      </trkpt>
      <trkpt lat="45.82154" lon="4.61313">
        <ele>308.8309</ele>
        <time>2023-09-30T09:04:08.000Z</time>
      </trkpt>
      <trkpt lat="45.82164" lon="4.61314">
        <ele>308.04987</ele>
        <time>2023-09-30T09:04:09.000Z</time>
      </trkpt>
      <trkpt lat="45.82175" lon="4.61315">
        <ele>307.16544</ele>
        <time>2023-09-30T09:04:10.000Z</time>
      </trkpt>
      <trkpt lat="45.82186" lon="4.61316">
        <ele>306.32645</ele>
        <time>2023-09-30T09:04:11.000Z</time>
      </trkpt>
      <trkpt lat="45.82196" lon="4.61316">
        <ele>305.50262</ele>
        <time>2023-09-30T09:04:12.000Z</time>
      </trkpt>
      <trkpt lat="45.82206" lon="4.61317">
        <ele>304.62314</ele>
        <time>2023-09-30T09:04:13.000Z</time>
      </trkpt>
      <trkpt lat="45.82215" lon="4.61317">
        <ele>303.76651</ele>
        <time>2023-09-30T09:04:14.000Z</time>
      </trkpt>
      <trkpt lat="45.82223" lon="4.61319">
        <ele>302.8999</ele>
        <time>2023-09-30T09:04:15.000Z</time>
      </trkpt>
      <trkpt lat="45.82231" lon="4.6132">
        <ele>302.39081</ele>
        <time>2023-09-30T09:04:16.000Z</time>
      </trkpt>
      <trkpt lat="45.82238" lon="4.61321">
        <ele>301.8364</ele>
        <time>2023-09-30T09:04:17.000Z</time>
      </trkpt>
      <trkpt lat="45.82246" lon="4.61324">
        <ele>301.29044</ele>
        <time>2023-09-30T09:04:18.000Z</time>
      </trkpt>
      <trkpt lat="45.82253" lon="4.61329">
        <ele>300.70041</ele>
        <time>2023-09-30T09:04:19.000Z</time>
      </trkpt>
      <trkpt lat="45.8226" lon="4.61334">
        <ele>300.14386</ele>
        <time>2023-09-30T09:04:20.000Z</time>
      </trkpt>
      <trkpt lat="45.82267" lon="4.61338">
        <ele>299.55328</ele>
        <time>2023-09-30T09:04:21.000Z</time>
      </trkpt>
      <trkpt lat="45.82273" lon="4.61342">
        <ele>298.94812</ele>
        <time>2023-09-30T09:04:22.000Z</time>
      </trkpt>
      <trkpt lat="45.8228" lon="4.61347">
        <ele>298.46442</ele>
        <time>2023-09-30T09:04:23.000Z</time>
      </trkpt>
      <trkpt lat="45.82287" lon="4.61352">
        <ele>297.97089</ele>
        <time>2023-09-30T09:04:24.000Z</time>
      </trkpt>
      <trkpt lat="45.82293" lon="4.61358">
        <ele>297.45132</ele>
        <time>2023-09-30T09:04:25.000Z</time>
      </trkpt>
      <trkpt lat="45.82298" lon="4.61362">
        <ele>296.92987</ele>
        <time>2023-09-30T09:04:26.000Z</time>
      </trkpt>
      <trkpt lat="45.82304" lon="4.61368">
        <ele>296.41348</ele>
        <time>2023-09-30T09:04:27.000Z</time>
      </trkpt>
      <trkpt lat="45.82308" lon="4.61373">
        <ele>295.89987</ele>
        <time>2023-09-30T09:04:28.000Z</time>
      </trkpt>
      <trkpt lat="45.82313" lon="4.61379">
        <ele>295.40717</ele>
        <time>2023-09-30T09:04:29.000Z</time>
      </trkpt>
      <trkpt lat="45.82318" lon="4.61386">
        <ele>294.92218</ele>
        <time>2023-09-30T09:04:30.000Z</time>
      </trkpt>
      <trkpt lat="45.82323" lon="4.61393">
        <ele>294.44699</ele>
        <time>2023-09-30T09:04:31.000Z</time>
      </trkpt>
      <trkpt lat="45.82327" lon="4.614">
        <ele>293.95984</ele>
        <time>2023-09-30T09:04:32.000Z</time>
      </trkpt>
      <trkpt lat="45.82331" lon="4.61407">
        <ele>293.51236</ele>
        <time>2023-09-30T09:04:33.000Z</time>
      </trkpt>
      <trkpt lat="45.82334" lon="4.61414">
        <ele>293.07111</ele>
        <time>2023-09-30T09:04:34.000Z</time>
      </trkpt>
      <trkpt lat="45.82338" lon="4.61421">
        <ele>292.67023</ele>
        <time>2023-09-30T09:04:35.000Z</time>
      </trkpt>
      <trkpt lat="45.82341" lon="4.61429">
        <ele>292.30518</ele>
        <time>2023-09-30T09:04:36.000Z</time>
      </trkpt>
      <trkpt lat="45.82342" lon="4.61436">
        <ele>291.97934</ele>
        <time>2023-09-30T09:04:37.000Z</time>
      </trkpt>
      <trkpt lat="45.82344" lon="4.61442">
        <ele>291.6817</ele>
        <time>2023-09-30T09:04:38.000Z</time>
      </trkpt>
      <trkpt lat="45.82347" lon="4.61449">
        <ele>291.39252</ele>
        <time>2023-09-30T09:04:39.000Z</time>
      </trkpt>
      <trkpt lat="45.82347" lon="4.61455">
        <ele>291.25519</ele>
        <time>2023-09-30T09:04:40.000Z</time>
      </trkpt>
      <trkpt lat="45.82348" lon="4.61462">
        <ele>291.14621</ele>
        <time>2023-09-30T09:04:41.000Z</time>
      </trkpt>
      <trkpt lat="45.82348" lon="4.61467">
        <ele>290.75909</ele>
        <time>2023-09-30T09:04:42.000Z</time>
      </trkpt>
      <trkpt lat="45.82347" lon="4.6147">
        <ele>290.49673</ele>
        <time>2023-09-30T09:04:43.000Z</time>
      </trkpt>
      <trkpt lat="45.82346" lon="4.61473">
        <ele>290.24805</ele>
        <time>2023-09-30T09:04:44.000Z</time>
      </trkpt>
      <trkpt lat="45.82344" lon="4.61476">
        <ele>290.10455</ele>
        <time>2023-09-30T09:04:46.000Z</time>
      </trkpt>
      <trkpt lat="45.82345" lon="4.61479">
        <ele>289.96942</ele>
        <time>2023-09-30T09:05:55.000Z</time>
      </trkpt>
      <trkpt lat="45.82349" lon="4.61477">
        <ele>289.84732</ele>
        <time>2023-09-30T09:05:57.000Z</time>
      </trkpt>
      <trkpt lat="45.8235" lon="4.61475">
        <ele>289.74625</ele>
        <time>2023-09-30T09:05:58.000Z</time>
      </trkpt>
      <trkpt lat="45.82351" lon="4.61472">
        <ele>289.65485</ele>
        <time>2023-09-30T09:05:59.000Z</time>
      </trkpt>
      <trkpt lat="45.82351" lon="4.61468">
        <ele>289.80475</ele>
        <time>2023-09-30T09:06:00.000Z</time>
      </trkpt>
      <trkpt lat="45.82351" lon="4.61465">
        <ele>289.98334</ele>
        <time>2023-09-30T09:06:01.000Z</time>
      </trkpt>
      <trkpt lat="45.82351" lon="4.61461">
        <ele>290.18381</ele>
        <time>2023-09-30T09:06:02.000Z</time>
      </trkpt>
      <trkpt lat="45.8235" lon="4.61458">
        <ele>290.08334</ele>
        <time>2023-09-30T09:06:03.000Z</time>
      </trkpt>
      <trkpt lat="45.82349" lon="4.61455">
        <ele>290.05203</ele>
        <time>2023-09-30T09:06:04.000Z</time>
      </trkpt>
      <trkpt lat="45.82347" lon="4.61453">
        <ele>290.03464</ele>
        <time>2023-09-30T09:06:05.000Z</time>
      </trkpt>
      <trkpt lat="45.82344" lon="4.61452">
        <ele>289.98602</ele>
        <time>2023-09-30T09:06:07.000Z</time>
      </trkpt>
      <trkpt lat="45.82341" lon="4.61453">
        <ele>290.0397</ele>
        <time>2023-09-30T09:06:29.000Z</time>
      </trkpt>
      <trkpt lat="45.82339" lon="4.61454">
        <ele>290.12512</ele>
        <time>2023-09-30T09:06:30.000Z</time>
      </trkpt>
      <trkpt lat="45.82337" lon="4.61454">
        <ele>290.23657</ele>
        <time>2023-09-30T09:06:31.000Z</time>
      </trkpt>
      <trkpt lat="45.82335" lon="4.61455">
        <ele>290.20255</ele>
        <time>2023-09-30T09:06:32.000Z</time>
      </trkpt>
      <trkpt lat="45.82334" lon="4.61458">
        <ele>290.11835</ele>
        <time>2023-09-30T09:06:33.000Z</time>
      </trkpt>
      <trkpt lat="45.82333" lon="4.61462">
        <ele>290.34692</ele>
        <time>2023-09-30T09:06:34.000Z</time>
      </trkpt>
      <trkpt lat="45.82333" lon="4.61466">
        <ele>290.48105</ele>
        <time>2023-09-30T09:06:35.000Z</time>
      </trkpt>
      <trkpt lat="45.82331" lon="4.61469">
        <ele>290.6413</ele>
        <time>2023-09-30T09:06:36.000Z</time>
      </trkpt>
      <trkpt lat="45.82329" lon="4.61471">
        <ele>290.74231</ele>
        <time>2023-09-30T09:06:37.000Z</time>
      </trkpt>
      <trkpt lat="45.82327" lon="4.61472">
        <ele>290.89603</ele>
        <time>2023-09-30T09:06:38.000Z</time>
      </trkpt>
      <trkpt lat="45.82325" lon="4.61472">
        <ele>291.05682</ele>
        <time>2023-09-30T09:06:39.000Z</time>
      </trkpt>
      <trkpt lat="45.82323" lon="4.61473">
        <ele>291.20554</ele>
        <time>2023-09-30T09:06:40.000Z</time>
      </trkpt>
      <trkpt lat="45.82321" lon="4.61473">
        <ele>291.36841</ele>
        <time>2023-09-30T09:06:41.000Z</time>
      </trkpt>
      <trkpt lat="45.82319" lon="4.61474">
        <ele>291.35522</ele>
        <time>2023-09-30T09:06:42.000Z</time>
      </trkpt>
      <trkpt lat="45.82317" lon="4.61475">
        <ele>291.31866</ele>
        <time>2023-09-30T09:06:43.000Z</time>
      </trkpt>
      <trkpt lat="45.82315" lon="4.61477">
        <ele>291.25262</ele>
        <time>2023-09-30T09:06:44.000Z</time>
      </trkpt>
      <trkpt lat="45.82314" lon="4.61481">
        <ele>291.48599</ele>
        <time>2023-09-30T09:06:45.000Z</time>
      </trkpt>
      <trkpt lat="45.82312" lon="4.61484">
        <ele>291.668</ele>
        <time>2023-09-30T09:06:46.000Z</time>
      </trkpt>
      <trkpt lat="45.82309" lon="4.61487">
        <ele>291.85516</ele>
        <time>2023-09-30T09:06:47.000Z</time>
      </trkpt>
      <trkpt lat="45.82306" lon="4.61489">
        <ele>292.22238</ele>
        <time>2023-09-30T09:06:48.000Z</time>
      </trkpt>
      <trkpt lat="45.82304" lon="4.61491">
        <ele>292.4921</ele>
        <time>2023-09-30T09:06:49.000Z</time>
      </trkpt>
      <trkpt lat="45.82301" lon="4.61493">
        <ele>292.79514</ele>
        <time>2023-09-30T09:06:50.000Z</time>
      </trkpt>
      <trkpt lat="45.82299" lon="4.61496">
        <ele>292.82022</ele>
        <time>2023-09-30T09:06:51.000Z</time>
      </trkpt>
      <trkpt lat="45.82297" lon="4.61499">
        <ele>292.85941</ele>
        <time>2023-09-30T09:06:52.000Z</time>
      </trkpt>
      <trkpt lat="45.82294" lon="4.61502">
        <ele>292.93582</ele>
        <time>2023-09-30T09:06:53.000Z</time>
      </trkpt>
      <trkpt lat="45.82292" lon="4.61505">
        <ele>292.99567</ele>
        <time>2023-09-30T09:06:54.000Z</time>
      </trkpt>
      <trkpt lat="45.8229" lon="4.61509">
        <ele>293.09161</ele>
        <time>2023-09-30T09:06:55.000Z</time>
      </trkpt>
      <trkpt lat="45.82288" lon="4.61512">
        <ele>293.21097</ele>
        <time>2023-09-30T09:06:56.000Z</time>
      </trkpt>
      <trkpt lat="45.82287" lon="4.61516">
        <ele>293.32684</ele>
        <time>2023-09-30T09:06:57.000Z</time>
      </trkpt>
      <trkpt lat="45.82286" lon="4.6152">
        <ele>293.41275</ele>
        <time>2023-09-30T09:06:58.000Z</time>
      </trkpt>
      <trkpt lat="45.82285" lon="4.61523">
        <ele>293.51184</ele>
        <time>2023-09-30T09:06:59.000Z</time>
      </trkpt>
      <trkpt lat="45.82285" lon="4.61527">
        <ele>293.63333</ele>
        <time>2023-09-30T09:07:01.000Z</time>
      </trkpt>
      <trkpt lat="45.82285" lon="4.61532">
        <ele>293.75433</ele>
        <time>2023-09-30T09:07:18.000Z</time>
      </trkpt>
      <trkpt lat="45.82286" lon="4.61535">
        <ele>293.84933</ele>
        <time>2023-09-30T09:07:19.000Z</time>
      </trkpt>
      <trkpt lat="45.82286" lon="4.61538">
        <ele>293.92859</ele>
        <time>2023-09-30T09:07:20.000Z</time>
      </trkpt>
      <trkpt lat="45.82285" lon="4.61542">
        <ele>294.09882</ele>
        <time>2023-09-30T09:07:22.000Z</time>
      </trkpt>
      <trkpt lat="45.82283" lon="4.61542">
        <ele>294.25079</ele>
        <time>2023-09-30T09:07:23.000Z</time>
      </trkpt>
      <trkpt lat="45.82282" lon="4.61541">
        <ele>294.41373</ele>
        <time>2023-09-30T09:07:24.000Z</time>
      </trkpt>
      <trkpt lat="45.82281" lon="4.61537">
        <ele>294.51312</ele>
        <time>2023-09-30T09:07:26.000Z</time>
      </trkpt>
      <trkpt lat="45.82283" lon="4.61532">
        <ele>294.46643</ele>
        <time>2023-09-30T09:07:27.000Z</time>
      </trkpt>
      <trkpt lat="45.82285" lon="4.61528">
        <ele>294.44403</ele>
        <time>2023-09-30T09:07:28.000Z</time>
      </trkpt>
      <trkpt lat="45.82286" lon="4.61524">
        <ele>294.40076</ele>
        <time>2023-09-30T09:07:29.000Z</time>
      </trkpt>
      <trkpt lat="45.82287" lon="4.6152">
        <ele>294.54413</ele>
        <time>2023-09-30T09:07:30.000Z</time>
      </trkpt>
      <trkpt lat="45.82288" lon="4.61516">
        <ele>294.78271</ele>
        <time>2023-09-30T09:07:31.000Z</time>
      </trkpt>
      <trkpt lat="45.82289" lon="4.61514">
        <ele>295.02249</ele>
        <time>2023-09-30T09:07:32.000Z</time>
      </trkpt>
      <trkpt lat="45.82291" lon="4.61513">
        <ele>295.0744</ele>
        <time>2023-09-30T09:07:37.000Z</time>
      </trkpt>
      <trkpt lat="45.82292" lon="4.6151">
        <ele>295.11407</ele>
        <time>2023-09-30T09:07:41.000Z</time>
      </trkpt>
      <trkpt lat="45.82293" lon="4.61507">
        <ele>295.12494</ele>
        <time>2023-09-30T09:07:42.000Z</time>
      </trkpt>
      <trkpt lat="45.82295" lon="4.61504">
        <ele>295.17621</ele>
        <time>2023-09-30T09:07:43.000Z</time>
      </trkpt>
      <trkpt lat="45.82297" lon="4.615">
        <ele>295.2244</ele>
        <time>2023-09-30T09:07:44.000Z</time>
      </trkpt>
      <trkpt lat="45.823" lon="4.61497">
        <ele>295.23779</ele>
        <time>2023-09-30T09:07:45.000Z</time>
      </trkpt>
      <trkpt lat="45.82303" lon="4.61493">
        <ele>295.23785</ele>
        <time>2023-09-30T09:07:46.000Z</time>
      </trkpt>
      <trkpt lat="45.82306" lon="4.61489">
        <ele>295.40073</ele>
        <time>2023-09-30T09:07:47.000Z</time>
      </trkpt>
      <trkpt lat="45.82309" lon="4.61486">
        <ele>295.53534</ele>
        <time>2023-09-30T09:07:48.000Z</time>
      </trkpt>
      <trkpt lat="45.82312" lon="4.61482">
        <ele>295.69455</ele>
        <time>2023-09-30T09:07:49.000Z</time>
      </trkpt>
      <trkpt lat="45.82314" lon="4.6148">
        <ele>295.49951</ele>
        <time>2023-09-30T09:07:50.000Z</time>
      </trkpt>
      <trkpt lat="45.82318" lon="4.61477">
        <ele>295.39847</ele>
        <time>2023-09-30T09:07:51.000Z</time>
      </trkpt>
      <trkpt lat="45.82321" lon="4.61475">
        <ele>295.24081</ele>
        <time>2023-09-30T09:07:52.000Z</time>
      </trkpt>
      <trkpt lat="45.82324" lon="4.61473">
        <ele>295.21893</ele>
        <time>2023-09-30T09:07:53.000Z</time>
      </trkpt>
      <trkpt lat="45.82327" lon="4.6147">
        <ele>295.2233</ele>
        <time>2023-09-30T09:07:54.000Z</time>
      </trkpt>
      <trkpt lat="45.82329" lon="4.61468">
        <ele>295.19827</ele>
        <time>2023-09-30T09:07:55.000Z</time>
      </trkpt>
      <trkpt lat="45.82332" lon="4.61465">
        <ele>295.14752</ele>
        <time>2023-09-30T09:07:56.000Z</time>
      </trkpt>
      <trkpt lat="45.82334" lon="4.61462">
        <ele>295.18906</ele>
        <time>2023-09-30T09:07:57.000Z</time>
      </trkpt>
      <trkpt lat="45.82335" lon="4.61459">
        <ele>295.12201</ele>
        <time>2023-09-30T09:07:58.000Z</time>
      </trkpt>
      <trkpt lat="45.82335" lon="4.61456">
        <ele>295.09027</ele>
        <time>2023-09-30T09:07:59.000Z</time>
      </trkpt>
      <trkpt lat="45.82332" lon="4.61454">
        <ele>294.94138</ele>
        <time>2023-09-30T09:08:00.000Z</time>
      </trkpt>
      <trkpt lat="45.82329" lon="4.61454">
        <ele>294.81174</ele>
        <time>2023-09-30T09:08:01.000Z</time>
      </trkpt>
      <trkpt lat="45.82325" lon="4.61456">
        <ele>294.73917</ele>
        <time>2023-09-30T09:08:02.000Z</time>
      </trkpt>
      <trkpt lat="45.82321" lon="4.61459">
        <ele>294.65216</ele>
        <time>2023-09-30T09:08:03.000Z</time>
      </trkpt>
      <trkpt lat="45.82318" lon="4.61462">
        <ele>294.60175</ele>
        <time>2023-09-30T09:08:04.000Z</time>
      </trkpt>
      <trkpt lat="45.82314" lon="4.61464">
        <ele>294.58585</ele>
        <time>2023-09-30T09:08:05.000Z</time>
      </trkpt>
      <trkpt lat="45.82309" lon="4.61466">
        <ele>294.56857</ele>
        <time>2023-09-30T09:08:06.000Z</time>
      </trkpt>
      <trkpt lat="45.82306" lon="4.61468">
        <ele>294.41486</ele>
        <time>2023-09-30T09:08:07.000Z</time>
      </trkpt>
      <trkpt lat="45.82303" lon="4.6147">
        <ele>294.29486</ele>
        <time>2023-09-30T09:08:08.000Z</time>
      </trkpt>
      <trkpt lat="45.823" lon="4.61472">
        <ele>294.12946</ele>
        <time>2023-09-30T09:08:09.000Z</time>
      </trkpt>
      <trkpt lat="45.82296" lon="4.61474">
        <ele>294.27875</ele>
        <time>2023-09-30T09:08:10.000Z</time>
      </trkpt>
      <trkpt lat="45.82293" lon="4.61476">
        <ele>294.38458</ele>
        <time>2023-09-30T09:08:11.000Z</time>
      </trkpt>
      <trkpt lat="45.8229" lon="4.61478">
        <ele>294.53897</ele>
        <time>2023-09-30T09:08:12.000Z</time>
      </trkpt>
      <trkpt lat="45.82287" lon="4.6148">
        <ele>294.6069</ele>
        <time>2023-09-30T09:08:13.000Z</time>
      </trkpt>
      <trkpt lat="45.82284" lon="4.61483">
        <ele>294.76538</ele>
        <time>2023-09-30T09:08:14.000Z</time>
      </trkpt>
      <trkpt lat="45.82282" lon="4.61485">
        <ele>294.99258</ele>
        <time>2023-09-30T09:08:15.000Z</time>
      </trkpt>
      <trkpt lat="45.82279" lon="4.61487">
        <ele>295.2092</ele>
        <time>2023-09-30T09:08:16.000Z</time>
      </trkpt>
      <trkpt lat="45.82277" lon="4.61489">
        <ele>295.43683</ele>
        <time>2023-09-30T09:08:17.000Z</time>
      </trkpt>
      <trkpt lat="45.82275" lon="4.61491">
        <ele>295.67136</ele>
        <time>2023-09-30T09:08:18.000Z</time>
      </trkpt>
      <trkpt lat="45.82273" lon="4.61493">
        <ele>295.63763</ele>
        <time>2023-09-30T09:08:19.000Z</time>
      </trkpt>
      <trkpt lat="45.8227" lon="4.61496">
        <ele>295.94443</ele>
        <time>2023-09-30T09:08:20.000Z</time>
      </trkpt>
      <trkpt lat="45.82268" lon="4.61498">
        <ele>296.25946</ele>
        <time>2023-09-30T09:08:21.000Z</time>
      </trkpt>
      <trkpt lat="45.82266" lon="4.615">
        <ele>296.52286</ele>
        <time>2023-09-30T09:08:22.000Z</time>
      </trkpt>
      <trkpt lat="45.82264" lon="4.61503">
        <ele>296.88992</ele>
        <time>2023-09-30T09:08:23.000Z</time>
      </trkpt>
      <trkpt lat="45.82261" lon="4.61505">
        <ele>297.3064</ele>
        <time>2023-09-30T09:08:24.000Z</time>
      </trkpt>
      <trkpt lat="45.82259" lon="4.61507">
        <ele>297.73203</ele>
        <time>2023-09-30T09:08:25.000Z</time>
      </trkpt>
      <trkpt lat="45.82257" lon="4.6151">
        <ele>298.00726</ele>
        <time>2023-09-30T09:08:26.000Z</time>
      </trkpt>
      <trkpt lat="45.82254" lon="4.61513">
        <ele>298.29779</ele>
        <time>2023-09-30T09:08:27.000Z</time>
      </trkpt>
      <trkpt lat="45.82252" lon="4.61516">
        <ele>298.55252</ele>
        <time>2023-09-30T09:08:28.000Z</time>
      </trkpt>
      <trkpt lat="45.8225" lon="4.61519">
        <ele>298.81171</ele>
        <time>2023-09-30T09:08:29.000Z</time>
      </trkpt>
      <trkpt lat="45.82248" lon="4.61523">
        <ele>298.79337</ele>
        <time>2023-09-30T09:08:30.000Z</time>
      </trkpt>
      <trkpt lat="45.82245" lon="4.61525">
        <ele>298.7933</ele>
        <time>2023-09-30T09:08:31.000Z</time>
      </trkpt>
      <trkpt lat="45.82243" lon="4.61527">
        <ele>299.04187</ele>
        <time>2023-09-30T09:08:32.000Z</time>
      </trkpt>
      <trkpt lat="45.82241" lon="4.6153">
        <ele>299.31769</ele>
        <time>2023-09-30T09:08:33.000Z</time>
      </trkpt>
      <trkpt lat="45.82239" lon="4.61533">
        <ele>299.4437</ele>
        <time>2023-09-30T09:08:34.000Z</time>
      </trkpt>
      <trkpt lat="45.82236" lon="4.61537">
        <ele>299.55148</ele>
        <time>2023-09-30T09:08:35.000Z</time>
      </trkpt>
      <trkpt lat="45.82234" lon="4.6154">
        <ele>299.68896</ele>
        <time>2023-09-30T09:08:36.000Z</time>
      </trkpt>
      <trkpt lat="45.82232" lon="4.61543">
        <ele>299.78937</ele>
        <time>2023-09-30T09:08:37.000Z</time>
      </trkpt>
      <trkpt lat="45.8223" lon="4.61545">
        <ele>299.88095</ele>
        <time>2023-09-30T09:08:38.000Z</time>
      </trkpt>
      <trkpt lat="45.82228" lon="4.61547">
        <ele>300.19226</ele>
        <time>2023-09-30T09:08:39.000Z</time>
      </trkpt>
      <trkpt lat="45.82226" lon="4.6155">
        <ele>300.43402</ele>
        <time>2023-09-30T09:08:40.000Z</time>
      </trkpt>
      <trkpt lat="45.82224" lon="4.61552">
        <ele>300.64496</ele>
        <time>2023-09-30T09:08:41.000Z</time>
      </trkpt>
      <trkpt lat="45.82222" lon="4.61555">
        <ele>300.93073</ele>
        <time>2023-09-30T09:08:42.000Z</time>
      </trkpt>
      <trkpt lat="45.82221" lon="4.61557">
        <ele>301.10947</ele>
        <time>2023-09-30T09:08:43.000Z</time>
      </trkpt>
      <trkpt lat="45.82219" lon="4.6156">
        <ele>301.20944</ele>
        <time>2023-09-30T09:08:44.000Z</time>
      </trkpt>
      <trkpt lat="45.82217" lon="4.61564">
        <ele>301.30988</ele>
        <time>2023-09-30T09:08:45.000Z</time>
      </trkpt>
      <trkpt lat="45.82216" lon="4.61567">
        <ele>301.42444</ele>
        <time>2023-09-30T09:08:46.000Z</time>
      </trkpt>
      <trkpt lat="45.82214" lon="4.6157">
        <ele>301.4863</ele>
        <time>2023-09-30T09:08:47.000Z</time>
      </trkpt>
      <trkpt lat="45.82213" lon="4.61572">
        <ele>302.53708</ele>
        <time>2023-09-30T09:08:48.000Z</time>
      </trkpt>
      <trkpt lat="45.82211" lon="4.61574">
        <ele>303.72119</ele>
        <time>2023-09-30T09:08:49.000Z</time>
      </trkpt>
      <trkpt lat="45.82209" lon="4.61577">
        <ele>305.19943</ele>
        <time>2023-09-30T09:08:50.000Z</time>
      </trkpt>
      <trkpt lat="45.82207" lon="4.61579">
        <ele>305.60687</ele>
        <time>2023-09-30T09:08:51.000Z</time>
      </trkpt>
      <trkpt lat="45.82206" lon="4.61582">
        <ele>305.81451</ele>
        <time>2023-09-30T09:08:52.000Z</time>
      </trkpt>
      <trkpt lat="45.82205" lon="4.61586">
        <ele>306.01215</ele>
        <time>2023-09-30T09:08:53.000Z</time>
      </trkpt>
      <trkpt lat="45.82203" lon="4.6159">
        <ele>306.23077</ele>
        <time>2023-09-30T09:08:54.000Z</time>
      </trkpt>
      <trkpt lat="45.82202" lon="4.61594">
        <ele>306.41171</ele>
        <time>2023-09-30T09:08:55.000Z</time>
      </trkpt>
      <trkpt lat="45.82201" lon="4.61598">
        <ele>306.55267</ele>
        <time>2023-09-30T09:08:56.000Z</time>
      </trkpt>
      <trkpt lat="45.822" lon="4.61601">
        <ele>306.64932</ele>
        <time>2023-09-30T09:08:57.000Z</time>
      </trkpt>
      <trkpt lat="45.82199" lon="4.61604">
        <ele>306.77856</ele>
        <time>2023-09-30T09:08:58.000Z</time>
      </trkpt>
      <trkpt lat="45.82198" lon="4.61607">
        <ele>306.91818</ele>
        <time>2023-09-30T09:08:59.000Z</time>
      </trkpt>
      <trkpt lat="45.82197" lon="4.61611">
        <ele>307.10217</ele>
        <time>2023-09-30T09:09:00.000Z</time>
      </trkpt>
      <trkpt lat="45.82196" lon="4.61615">
        <ele>307.28131</ele>
        <time>2023-09-30T09:09:01.000Z</time>
      </trkpt>
      <trkpt lat="45.82195" lon="4.61619">
        <ele>307.41995</ele>
        <time>2023-09-30T09:09:02.000Z</time>
      </trkpt>
      <trkpt lat="45.82193" lon="4.61622">
        <ele>307.56595</ele>
        <time>2023-09-30T09:09:03.000Z</time>
      </trkpt>
      <trkpt lat="45.82192" lon="4.61626">
        <ele>307.71188</ele>
        <time>2023-09-30T09:09:04.000Z</time>
      </trkpt>
      <trkpt lat="45.82191" lon="4.61629">
        <ele>307.88443</ele>
        <time>2023-09-30T09:09:05.000Z</time>
      </trkpt>
      <trkpt lat="45.82191" lon="4.61633">
        <ele>308.26251</ele>
        <time>2023-09-30T09:09:06.000Z</time>
      </trkpt>
      <trkpt lat="45.82189" lon="4.61637">
        <ele>308.61108</ele>
        <time>2023-09-30T09:09:07.000Z</time>
      </trkpt>
      <trkpt lat="45.82187" lon="4.6164">
        <ele>307.98157</ele>
        <time>2023-09-30T09:09:08.000Z</time>
      </trkpt>
      <trkpt lat="45.82185" lon="4.61643">
        <ele>307.21634</ele>
        <time>2023-09-30T09:09:09.000Z</time>
      </trkpt>
      <trkpt lat="45.82183" lon="4.61647">
        <ele>306.38138</ele>
        <time>2023-09-30T09:09:10.000Z</time>
      </trkpt>
      <trkpt lat="45.82181" lon="4.6165">
        <ele>306.59619</ele>
        <time>2023-09-30T09:09:11.000Z</time>
      </trkpt>
      <trkpt lat="45.8218" lon="4.61654">
        <ele>306.77661</ele>
        <time>2023-09-30T09:09:12.000Z</time>
      </trkpt>
      <trkpt lat="45.82178" lon="4.61658">
        <ele>306.97784</ele>
        <time>2023-09-30T09:09:13.000Z</time>
      </trkpt>
      <trkpt lat="45.82176" lon="4.61661">
        <ele>307.12854</ele>
        <time>2023-09-30T09:09:14.000Z</time>
      </trkpt>
      <trkpt lat="45.82174" lon="4.61665">
        <ele>307.27484</ele>
        <time>2023-09-30T09:09:15.000Z</time>
      </trkpt>
      <trkpt lat="45.82173" lon="4.61669">
        <ele>307.47601</ele>
        <time>2023-09-30T09:09:16.000Z</time>
      </trkpt>
      <trkpt lat="45.82171" lon="4.61672">
        <ele>307.7634</ele>
        <time>2023-09-30T09:09:17.000Z</time>
      </trkpt>
      <trkpt lat="45.82168" lon="4.61676">
        <ele>308.00702</ele>
        <time>2023-09-30T09:09:18.000Z</time>
      </trkpt>
      <trkpt lat="45.82166" lon="4.6168">
        <ele>308.30435</ele>
        <time>2023-09-30T09:09:19.000Z</time>
      </trkpt>
      <trkpt lat="45.82165" lon="4.61683">
        <ele>308.6366</ele>
        <time>2023-09-30T09:09:20.000Z</time>
      </trkpt>
      <trkpt lat="45.82163" lon="4.61688">
        <ele>308.95313</ele>
        <time>2023-09-30T09:09:21.000Z</time>
      </trkpt>
      <trkpt lat="45.82162" lon="4.61692">
        <ele>309.22394</ele>
        <time>2023-09-30T09:09:22.000Z</time>
      </trkpt>
      <trkpt lat="45.8216" lon="4.61697">
        <ele>309.47998</ele>
        <time>2023-09-30T09:09:23.000Z</time>
      </trkpt>
      <trkpt lat="45.82157" lon="4.61701">
        <ele>309.72189</ele>
        <time>2023-09-30T09:09:24.000Z</time>
      </trkpt>
      <trkpt lat="45.82155" lon="4.61706">
        <ele>309.91367</ele>
        <time>2023-09-30T09:09:25.000Z</time>
      </trkpt>
      <trkpt lat="45.82153" lon="4.61711">
        <ele>310.086</ele>
        <time>2023-09-30T09:09:26.000Z</time>
      </trkpt>
      <trkpt lat="45.82151" lon="4.61715">
        <ele>310.24957</ele>
        <time>2023-09-30T09:09:27.000Z</time>
      </trkpt>
      <trkpt lat="45.82149" lon="4.6172">
        <ele>310.43024</ele>
        <time>2023-09-30T09:09:28.000Z</time>
      </trkpt>
      <trkpt lat="45.82147" lon="4.61724">
        <ele>310.65845</ele>
        <time>2023-09-30T09:09:29.000Z</time>
      </trkpt>
      <trkpt lat="45.82145" lon="4.61729">
        <ele>310.92532</ele>
        <time>2023-09-30T09:09:30.000Z</time>
      </trkpt>
      <trkpt lat="45.82143" lon="4.61733">
        <ele>311.22324</ele>
        <time>2023-09-30T09:09:31.000Z</time>
      </trkpt>
      <trkpt lat="45.82141" lon="4.61738">
        <ele>311.50156</ele>
        <time>2023-09-30T09:09:32.000Z</time>
      </trkpt>
      <trkpt lat="45.82139" lon="4.61743">
        <ele>311.75549</ele>
        <time>2023-09-30T09:09:33.000Z</time>
      </trkpt>
      <trkpt lat="45.82137" lon="4.61747">
        <ele>312.0199</ele>
        <time>2023-09-30T09:09:34.000Z</time>
      </trkpt>
      <trkpt lat="45.82134" lon="4.61751">
        <ele>312.29364</ele>
        <time>2023-09-30T09:09:35.000Z</time>
      </trkpt>
      <trkpt lat="45.82132" lon="4.61756">
        <ele>312.52814</ele>
        <time>2023-09-30T09:09:36.000Z</time>
      </trkpt>
      <trkpt lat="45.82129" lon="4.6176">
        <ele>312.72702</ele>
        <time>2023-09-30T09:09:37.000Z</time>
      </trkpt>
      <trkpt lat="45.82127" lon="4.61765">
        <ele>312.90851</ele>
        <time>2023-09-30T09:09:38.000Z</time>
      </trkpt>
      <trkpt lat="45.82124" lon="4.6177">
        <ele>313.02432</ele>
        <time>2023-09-30T09:09:39.000Z</time>
      </trkpt>
      <trkpt lat="45.82121" lon="4.61775">
        <ele>313.13269</ele>
        <time>2023-09-30T09:09:40.000Z</time>
      </trkpt>
      <trkpt lat="45.82118" lon="4.61779">
        <ele>313.30771</ele>
        <time>2023-09-30T09:09:41.000Z</time>
      </trkpt>
      <trkpt lat="45.82116" lon="4.61782">
        <ele>313.49341</ele>
        <time>2023-09-30T09:09:42.000Z</time>
      </trkpt>
      <trkpt lat="45.82114" lon="4.61786">
        <ele>313.71353</ele>
        <time>2023-09-30T09:09:43.000Z</time>
      </trkpt>
      <trkpt lat="45.82112" lon="4.61791">
        <ele>313.96628</ele>
        <time>2023-09-30T09:09:44.000Z</time>
      </trkpt>
      <trkpt lat="45.8211" lon="4.61796">
        <ele>314.19623</ele>
        <time>2023-09-30T09:09:45.000Z</time>
      </trkpt>
      <trkpt lat="45.82109" lon="4.61801">
        <ele>314.37436</ele>
        <time>2023-09-30T09:09:46.000Z</time>
      </trkpt>
      <trkpt lat="45.82107" lon="4.61805">
        <ele>314.59772</ele>
        <time>2023-09-30T09:09:47.000Z</time>
      </trkpt>
      <trkpt lat="45.82106" lon="4.6181">
        <ele>314.78583</ele>
        <time>2023-09-30T09:09:48.000Z</time>
      </trkpt>
      <trkpt lat="45.82104" lon="4.61814">
        <ele>314.95908</ele>
        <time>2023-09-30T09:09:49.000Z</time>
      </trkpt>
      <trkpt lat="45.82102" lon="4.61818">
        <ele>315.11395</ele>
        <time>2023-09-30T09:09:50.000Z</time>
      </trkpt>
      <trkpt lat="45.821" lon="4.61822">
        <ele>315.23965</ele>
        <time>2023-09-30T09:09:51.000Z</time>
      </trkpt>
      <trkpt lat="45.82099" lon="4.61826">
        <ele>315.37906</ele>
        <time>2023-09-30T09:09:52.000Z</time>
      </trkpt>
      <trkpt lat="45.82097" lon="4.6183">
        <ele>315.53217</ele>
        <time>2023-09-30T09:09:53.000Z</time>
      </trkpt>
      <trkpt lat="45.82095" lon="4.61834">
        <ele>315.72113</ele>
        <time>2023-09-30T09:09:54.000Z</time>
      </trkpt>
      <trkpt lat="45.82094" lon="4.61839">
        <ele>315.96478</ele>
        <time>2023-09-30T09:09:55.000Z</time>
      </trkpt>
      <trkpt lat="45.82092" lon="4.61843">
        <ele>316.17758</ele>
        <time>2023-09-30T09:09:56.000Z</time>
      </trkpt>
      <trkpt lat="45.8209" lon="4.61848">
        <ele>316.37241</ele>
        <time>2023-09-30T09:09:57.000Z</time>
      </trkpt>
      <trkpt lat="45.82089" lon="4.61854">
        <ele>316.66034</ele>
        <time>2023-09-30T09:09:58.000Z</time>
      </trkpt>
      <trkpt lat="45.82087" lon="4.61859">
        <ele>316.97272</ele>
        <time>2023-09-30T09:09:59.000Z</time>
      </trkpt>
      <trkpt lat="45.82086" lon="4.61865">
        <ele>317.2818</ele>
        <time>2023-09-30T09:10:00.000Z</time>
      </trkpt>
      <trkpt lat="45.82084" lon="4.6187">
        <ele>317.5506</ele>
        <time>2023-09-30T09:10:01.000Z</time>
      </trkpt>
      <trkpt lat="45.82082" lon="4.61875">
        <ele>317.88669</ele>
        <time>2023-09-30T09:10:02.000Z</time>
      </trkpt>
      <trkpt lat="45.8208" lon="4.61879">
        <ele>318.24225</ele>
        <time>2023-09-30T09:10:03.000Z</time>
      </trkpt>
      <trkpt lat="45.82078" lon="4.61884">
        <ele>318.53827</ele>
        <time>2023-09-30T09:10:04.000Z</time>
      </trkpt>
      <trkpt lat="45.82076" lon="4.61888">
        <ele>318.87839</ele>
        <time>2023-09-30T09:10:05.000Z</time>
      </trkpt>
      <trkpt lat="45.82074" lon="4.61892">
        <ele>319.22873</ele>
        <time>2023-09-30T09:10:06.000Z</time>
      </trkpt>
      <trkpt lat="45.82073" lon="4.61896">
        <ele>319.59485</ele>
        <time>2023-09-30T09:10:07.000Z</time>
      </trkpt>
      <trkpt lat="45.82071" lon="4.619">
        <ele>319.90979</ele>
        <time>2023-09-30T09:10:08.000Z</time>
      </trkpt>
      <trkpt lat="45.82069" lon="4.61904">
        <ele>320.34103</ele>
        <time>2023-09-30T09:10:09.000Z</time>
      </trkpt>
      <trkpt lat="45.82068" lon="4.61908">
        <ele>320.74094</ele>
        <time>2023-09-30T09:10:10.000Z</time>
      </trkpt>
      <trkpt lat="45.82067" lon="4.61912">
        <ele>321.13168</ele>
        <time>2023-09-30T09:10:11.000Z</time>
      </trkpt>
      <trkpt lat="45.82065" lon="4.61916">
        <ele>321.46988</ele>
        <time>2023-09-30T09:10:12.000Z</time>
      </trkpt>
      <trkpt lat="45.82064" lon="4.6192">
        <ele>321.71085</ele>
        <time>2023-09-30T09:10:13.000Z</time>
      </trkpt>
      <trkpt lat="45.82063" lon="4.61924">
        <ele>321.98822</ele>
        <time>2023-09-30T09:10:14.000Z</time>
      </trkpt>
      <trkpt lat="45.82061" lon="4.61928">
        <ele>322.21307</ele>
        <time>2023-09-30T09:10:15.000Z</time>
      </trkpt>
      <trkpt lat="45.82059" lon="4.61932">
        <ele>322.49219</ele>
        <time>2023-09-30T09:10:16.000Z</time>
      </trkpt>
      <trkpt lat="45.82054" lon="4.61941">
        <ele>323.15765</ele>
        <time>2023-09-30T09:10:17.000Z</time>
      </trkpt>
      <trkpt lat="45.82052" lon="4.61946">
        <ele>323.72748</ele>
        <time>2023-09-30T09:10:18.000Z</time>
      </trkpt>
      <trkpt lat="45.8205" lon="4.61949">
        <ele>323.96088</ele>
        <time>2023-09-30T09:10:19.000Z</time>
      </trkpt>
      <trkpt lat="45.8205" lon="4.61954">
        <ele>324.16824</ele>
        <time>2023-09-30T09:10:20.000Z</time>
      </trkpt>
      <trkpt lat="45.82048" lon="4.61957">
        <ele>324.39508</ele>
        <time>2023-09-30T09:10:21.000Z</time>
      </trkpt>
      <trkpt lat="45.82046" lon="4.61961">
        <ele>324.47934</ele>
        <time>2023-09-30T09:10:22.000Z</time>
      </trkpt>
      <trkpt lat="45.82044" lon="4.61965">
        <ele>324.48334</ele>
        <time>2023-09-30T09:10:23.000Z</time>
      </trkpt>
      <trkpt lat="45.82043" lon="4.6197">
        <ele>324.48978</ele>
        <time>2023-09-30T09:10:24.000Z</time>
      </trkpt>
      <trkpt lat="45.82041" lon="4.61974">
        <ele>324.47052</ele>
        <time>2023-09-30T09:10:25.000Z</time>
      </trkpt>
      <trkpt lat="45.82038" lon="4.61978">
        <ele>324.63068</ele>
        <time>2023-09-30T09:10:26.000Z</time>
      </trkpt>
      <trkpt lat="45.82036" lon="4.61982">
        <ele>324.6879</ele>
        <time>2023-09-30T09:10:27.000Z</time>
      </trkpt>
      <trkpt lat="45.82034" lon="4.61986">
        <ele>324.8519</ele>
        <time>2023-09-30T09:10:28.000Z</time>
      </trkpt>
      <trkpt lat="45.82032" lon="4.61991">
        <ele>324.86066</ele>
        <time>2023-09-30T09:10:29.000Z</time>
      </trkpt>
      <trkpt lat="45.8203" lon="4.61994">
        <ele>324.90057</ele>
        <time>2023-09-30T09:10:30.000Z</time>
      </trkpt>
      <trkpt lat="45.82029" lon="4.61997">
        <ele>324.92017</ele>
        <time>2023-09-30T09:10:31.000Z</time>
      </trkpt>
      <trkpt lat="45.82028" lon="4.62">
        <ele>325.02759</ele>
        <time>2023-09-30T09:10:32.000Z</time>
      </trkpt>
      <trkpt lat="45.82027" lon="4.62003">
        <ele>325.17621</ele>
        <time>2023-09-30T09:10:33.000Z</time>
      </trkpt>
      <trkpt lat="45.82026" lon="4.62007">
        <ele>325.30286</ele>
        <time>2023-09-30T09:10:34.000Z</time>
      </trkpt>
      <trkpt lat="45.82024" lon="4.62012">
        <ele>325.47882</ele>
        <time>2023-09-30T09:10:35.000Z</time>
      </trkpt>
      <trkpt lat="45.82022" lon="4.62017">
        <ele>325.69049</ele>
        <time>2023-09-30T09:10:36.000Z</time>
      </trkpt>
      <trkpt lat="45.8202" lon="4.62022">
        <ele>325.58417</ele>
        <time>2023-09-30T09:10:37.000Z</time>
      </trkpt>
      <trkpt lat="45.82018" lon="4.62026">
        <ele>325.48541</ele>
        <time>2023-09-30T09:10:38.000Z</time>
      </trkpt>
      <trkpt lat="45.82016" lon="4.6203">
        <ele>325.69553</ele>
        <time>2023-09-30T09:10:39.000Z</time>
      </trkpt>
      <trkpt lat="45.82013" lon="4.62034">
        <ele>325.8873</ele>
        <time>2023-09-30T09:10:40.000Z</time>
      </trkpt>
      <trkpt lat="45.82011" lon="4.62039">
        <ele>326.07108</ele>
        <time>2023-09-30T09:10:41.000Z</time>
      </trkpt>
      <trkpt lat="45.82009" lon="4.62044">
        <ele>326.36703</ele>
        <time>2023-09-30T09:10:42.000Z</time>
      </trkpt>
      <trkpt lat="45.82006" lon="4.62048">
        <ele>326.7157</ele>
        <time>2023-09-30T09:10:43.000Z</time>
      </trkpt>
      <trkpt lat="45.82003" lon="4.62053">
        <ele>327.15295</ele>
        <time>2023-09-30T09:10:44.000Z</time>
      </trkpt>
      <trkpt lat="45.82" lon="4.62057">
        <ele>327.59674</ele>
        <time>2023-09-30T09:10:45.000Z</time>
      </trkpt>
      <trkpt lat="45.81998" lon="4.62061">
        <ele>327.86496</ele>
        <time>2023-09-30T09:10:46.000Z</time>
      </trkpt>
      <trkpt lat="45.81996" lon="4.62064">
        <ele>328.19418</ele>
        <time>2023-09-30T09:10:47.000Z</time>
      </trkpt>
      <trkpt lat="45.81994" lon="4.62068">
        <ele>328.45718</ele>
        <time>2023-09-30T09:10:48.000Z</time>
      </trkpt>
      <trkpt lat="45.81992" lon="4.62072">
        <ele>328.7117</ele>
        <time>2023-09-30T09:10:49.000Z</time>
      </trkpt>
      <trkpt lat="45.81991" lon="4.62076">
        <ele>328.94656</ele>
        <time>2023-09-30T09:10:50.000Z</time>
      </trkpt>
      <trkpt lat="45.8199" lon="4.62079">
        <ele>329.12567</ele>
        <time>2023-09-30T09:10:51.000Z</time>
      </trkpt>
      <trkpt lat="45.81989" lon="4.62083">
        <ele>329.23129</ele>
        <time>2023-09-30T09:10:52.000Z</time>
      </trkpt>
      <trkpt lat="45.81989" lon="4.62087">
        <ele>329.41989</ele>
        <time>2023-09-30T09:10:53.000Z</time>
      </trkpt>
      <trkpt lat="45.8199" lon="4.6209">
        <ele>329.60806</ele>
        <time>2023-09-30T09:10:54.000Z</time>
      </trkpt>
      <trkpt lat="45.81992" lon="4.62094">
        <ele>329.79144</ele>
        <time>2023-09-30T09:10:55.000Z</time>
      </trkpt>
      <trkpt lat="45.81993" lon="4.62097">
        <ele>329.91812</ele>
        <time>2023-09-30T09:10:56.000Z</time>
      </trkpt>
      <trkpt lat="45.81995" lon="4.621">
        <ele>329.95306</ele>
        <time>2023-09-30T09:10:57.000Z</time>
      </trkpt>
      <trkpt lat="45.81996" lon="4.62102">
        <ele>330.01532</ele>
        <time>2023-09-30T09:10:58.000Z</time>
      </trkpt>
      <trkpt lat="45.81996" lon="4.62099">
        <ele>330.16879</ele>
        <time>2023-09-30T09:11:07.000Z</time>
      </trkpt>
      <trkpt lat="45.81997" lon="4.62096">
        <ele>330.32285</ele>
        <time>2023-09-30T09:11:17.000Z</time>
      </trkpt>
      <trkpt lat="45.81995" lon="4.62096">
        <ele>330.8205</ele>
        <time>2023-09-30T09:11:20.000Z</time>
      </trkpt>
      <trkpt lat="45.81993" lon="4.62097">
        <ele>331.38037</ele>
        <time>2023-09-30T09:11:27.000Z</time>
      </trkpt>
      <trkpt lat="45.81991" lon="4.62098">
        <ele>331.77643</ele>
        <time>2023-09-30T09:11:39.000Z</time>
      </trkpt>
      <trkpt lat="45.81989" lon="4.62099">
        <ele>332.04025</ele>
        <time>2023-09-30T09:11:41.000Z</time>
      </trkpt>
      <trkpt lat="45.81987" lon="4.62099">
        <ele>332.39032</ele>
        <time>2023-09-30T09:11:43.000Z</time>
      </trkpt>
      <trkpt lat="45.81985" lon="4.62099">
        <ele>332.74512</ele>
        <time>2023-09-30T09:11:45.000Z</time>
      </trkpt>
      <trkpt lat="45.81982" lon="4.62099">
        <ele>333.01675</ele>
        <time>2023-09-30T09:11:47.000Z</time>
      </trkpt>
      <trkpt lat="45.8198" lon="4.621">
        <ele>333.25104</ele>
        <time>2023-09-30T09:11:49.000Z</time>
      </trkpt>
      <trkpt lat="45.81979" lon="4.62099">
        <ele>333.53589</ele>
        <time>2023-09-30T09:11:56.000Z</time>
      </trkpt>
      <trkpt lat="45.81981" lon="4.62098">
        <ele>333.80173</ele>
        <time>2023-09-30T09:12:07.000Z</time>
      </trkpt>
      <trkpt lat="45.81983" lon="4.62097">
        <ele>334.18652</ele>
        <time>2023-09-30T09:12:09.000Z</time>
      </trkpt>
      <trkpt lat="45.81985" lon="4.62096">
        <ele>334.573</ele>
        <time>2023-09-30T09:12:12.000Z</time>
      </trkpt>
      <trkpt lat="45.81987" lon="4.62095">
        <ele>334.82352</ele>
        <time>2023-09-30T09:12:15.000Z</time>
      </trkpt>
      <trkpt lat="45.81984" lon="4.62095">
        <ele>335.18384</ele>
        <time>2023-09-30T09:12:22.000Z</time>
      </trkpt>
      <trkpt lat="45.81982" lon="4.62095">
        <ele>335.50861</ele>
        <time>2023-09-30T09:12:24.000Z</time>
      </trkpt>
      <trkpt lat="45.8198" lon="4.62096">
        <ele>335.84589</ele>
        <time>2023-09-30T09:12:29.000Z</time>
      </trkpt>
      <trkpt lat="45.81979" lon="4.62098">
        <ele>336.20755</ele>
        <time>2023-09-30T09:12:32.000Z</time>
      </trkpt>
      <trkpt lat="45.81977" lon="4.62101">
        <ele>336.56741</ele>
        <time>2023-09-30T09:12:34.000Z</time>
      </trkpt>
      <trkpt lat="45.81976" lon="4.62103">
        <ele>336.8829</ele>
        <time>2023-09-30T09:12:36.000Z</time>
      </trkpt>
      <trkpt lat="45.81975" lon="4.62105">
        <ele>337.13687</ele>
        <time>2023-09-30T09:12:43.000Z</time>
      </trkpt>
      <trkpt lat="45.81977" lon="4.62103">
        <ele>336.57404</ele>
        <time>2023-09-30T09:12:57.000Z</time>
      </trkpt>
      <trkpt lat="45.81977" lon="4.62099">
        <ele>335.95013</ele>
        <time>2023-09-30T09:12:59.000Z</time>
      </trkpt>
      <trkpt lat="45.81979" lon="4.62097">
        <ele>335.44781</ele>
        <time>2023-09-30T09:13:01.000Z</time>
      </trkpt>
      <trkpt lat="45.8198" lon="4.62095">
        <ele>334.98331</ele>
        <time>2023-09-30T09:13:03.000Z</time>
      </trkpt>
      <trkpt lat="45.81982" lon="4.62093">
        <ele>334.44635</ele>
        <time>2023-09-30T09:13:05.000Z</time>
      </trkpt>
      <trkpt lat="45.81984" lon="4.62092">
        <ele>333.86649</ele>
        <time>2023-09-30T09:13:07.000Z</time>
      </trkpt>
      <trkpt lat="45.81987" lon="4.62092">
        <ele>333.38962</ele>
        <time>2023-09-30T09:13:09.000Z</time>
      </trkpt>
      <trkpt lat="45.81989" lon="4.62093">
        <ele>332.952</ele>
        <time>2023-09-30T09:13:11.000Z</time>
      </trkpt>
      <trkpt lat="45.81991" lon="4.62095">
        <ele>332.35196</ele>
        <time>2023-09-30T09:13:13.000Z</time>
      </trkpt>
      <trkpt lat="45.81992" lon="4.62098">
        <ele>331.80072</ele>
        <time>2023-09-30T09:13:15.000Z</time>
      </trkpt>
      <trkpt lat="45.81994" lon="4.62099">
        <ele>331.06158</ele>
        <time>2023-09-30T09:13:21.000Z</time>
      </trkpt>
      <trkpt lat="45.81995" lon="4.62102">
        <ele>331.11444</ele>
        <time>2023-09-30T09:13:34.000Z</time>
      </trkpt>
      <trkpt lat="45.81997" lon="4.62104">
        <ele>331.34879</ele>
        <time>2023-09-30T09:13:35.000Z</time>
      </trkpt>
      <trkpt lat="45.81999" lon="4.62105">
        <ele>331.43158</ele>
        <time>2023-09-30T09:13:36.000Z</time>
      </trkpt>
      <trkpt lat="45.82001" lon="4.62107">
        <ele>331.53241</ele>
        <time>2023-09-30T09:13:37.000Z</time>
      </trkpt>
      <trkpt lat="45.82004" lon="4.62109">
        <ele>331.65048</ele>
        <time>2023-09-30T09:13:38.000Z</time>
      </trkpt>
      <trkpt lat="45.82007" lon="4.62111">
        <ele>331.79346</ele>
        <time>2023-09-30T09:13:39.000Z</time>
      </trkpt>
      <trkpt lat="45.8201" lon="4.62112">
        <ele>331.85141</ele>
        <time>2023-09-30T09:13:40.000Z</time>
      </trkpt>
      <trkpt lat="45.82013" lon="4.62114">
        <ele>331.88358</ele>
        <time>2023-09-30T09:13:41.000Z</time>
      </trkpt>
      <trkpt lat="45.82016" lon="4.62114">
        <ele>331.9472</ele>
        <time>2023-09-30T09:13:42.000Z</time>
      </trkpt>
      <trkpt lat="45.82019" lon="4.62115">
        <ele>332.43683</ele>
        <time>2023-09-30T09:13:43.000Z</time>
      </trkpt>
      <trkpt lat="45.82022" lon="4.62115">
        <ele>333.02081</ele>
        <time>2023-09-30T09:13:44.000Z</time>
      </trkpt>
      <trkpt lat="45.82025" lon="4.62115">
        <ele>333.61407</ele>
        <time>2023-09-30T09:13:45.000Z</time>
      </trkpt>
      <trkpt lat="45.82028" lon="4.62116">
        <ele>334.26605</ele>
        <time>2023-09-30T09:13:46.000Z</time>
      </trkpt>
      <trkpt lat="45.82031" lon="4.62116">
        <ele>334.9296</ele>
        <time>2023-09-30T09:13:47.000Z</time>
      </trkpt>
      <trkpt lat="45.82035" lon="4.62116">
        <ele>335.60199</ele>
        <time>2023-09-30T09:13:48.000Z</time>
      </trkpt>
      <trkpt lat="45.82038" lon="4.62115">
        <ele>336.24127</ele>
        <time>2023-09-30T09:13:49.000Z</time>
      </trkpt>
      <trkpt lat="45.82041" lon="4.62114">
        <ele>336.90482</ele>
        <time>2023-09-30T09:13:50.000Z</time>
      </trkpt>
      <trkpt lat="45.82045" lon="4.62114">
        <ele>337.76694</ele>
        <time>2023-09-30T09:13:51.000Z</time>
      </trkpt>
      <trkpt lat="45.82048" lon="4.62113">
        <ele>338.61444</ele>
        <time>2023-09-30T09:13:52.000Z</time>
      </trkpt>
      <trkpt lat="45.82051" lon="4.62113">
        <ele>339.59692</ele>
        <time>2023-09-30T09:13:53.000Z</time>
      </trkpt>
      <trkpt lat="45.82055" lon="4.62112">
        <ele>339.85162</ele>
        <time>2023-09-30T09:13:54.000Z</time>
      </trkpt>
      <trkpt lat="45.8206" lon="4.62112">
        <ele>340.00772</ele>
        <time>2023-09-30T09:13:55.000Z</time>
      </trkpt>
      <trkpt lat="45.82064" lon="4.62111">
        <ele>340.23553</ele>
        <time>2023-09-30T09:13:56.000Z</time>
      </trkpt>
      <trkpt lat="45.82068" lon="4.62111">
        <ele>340.42908</ele>
        <time>2023-09-30T09:13:57.000Z</time>
      </trkpt>
      <trkpt lat="45.82072" lon="4.6211">
        <ele>340.61139</ele>
        <time>2023-09-30T09:13:58.000Z</time>
      </trkpt>
      <trkpt lat="45.82076" lon="4.6211">
        <ele>340.75195</ele>
        <time>2023-09-30T09:13:59.000Z</time>
      </trkpt>
      <trkpt lat="45.8208" lon="4.6211">
        <ele>340.91382</ele>
        <time>2023-09-30T09:14:00.000Z</time>
      </trkpt>
      <trkpt lat="45.82084" lon="4.62109">
        <ele>341.05048</ele>
        <time>2023-09-30T09:14:01.000Z</time>
      </trkpt>
      <trkpt lat="45.82087" lon="4.62109">
        <ele>341.19949</ele>
        <time>2023-09-30T09:14:02.000Z</time>
      </trkpt>
      <trkpt lat="45.8209" lon="4.62108">
        <ele>341.51648</ele>
        <time>2023-09-30T09:14:03.000Z</time>
      </trkpt>
      <trkpt lat="45.82093" lon="4.62108">
        <ele>341.72891</ele>
        <time>2023-09-30T09:14:04.000Z</time>
      </trkpt>
      <trkpt lat="45.82097" lon="4.62107">
        <ele>341.95615</ele>
        <time>2023-09-30T09:14:05.000Z</time>
      </trkpt>
      <trkpt lat="45.82101" lon="4.62106">
        <ele>342.1781</ele>
        <time>2023-09-30T09:14:06.000Z</time>
      </trkpt>
      <trkpt lat="45.82104" lon="4.62106">
        <ele>342.36795</ele>
        <time>2023-09-30T09:14:07.000Z</time>
      </trkpt>
      <trkpt lat="45.82108" lon="4.62106">
        <ele>342.52228</ele>
        <time>2023-09-30T09:14:08.000Z</time>
      </trkpt>
      <trkpt lat="45.82112" lon="4.62106">
        <ele>342.68179</ele>
        <time>2023-09-30T09:14:09.000Z</time>
      </trkpt>
      <trkpt lat="45.82115" lon="4.62106">
        <ele>342.82013</ele>
        <time>2023-09-30T09:14:10.000Z</time>
      </trkpt>
      <trkpt lat="45.82119" lon="4.62107">
        <ele>342.87482</ele>
        <time>2023-09-30T09:14:11.000Z</time>
      </trkpt>
      <trkpt lat="45.82122" lon="4.62109">
        <ele>343.08624</ele>
        <time>2023-09-30T09:14:12.000Z</time>
      </trkpt>
      <trkpt lat="45.82125" lon="4.6211">
        <ele>343.31509</ele>
        <time>2023-09-30T09:14:13.000Z</time>
      </trkpt>
      <trkpt lat="45.82128" lon="4.62112">
        <ele>343.49936</ele>
        <time>2023-09-30T09:14:14.000Z</time>
      </trkpt>
      <trkpt lat="45.82131" lon="4.62114">
        <ele>343.70102</ele>
        <time>2023-09-30T09:14:15.000Z</time>
      </trkpt>
      <trkpt lat="45.82135" lon="4.62116">
        <ele>343.87784</ele>
        <time>2023-09-30T09:14:16.000Z</time>
      </trkpt>
      <trkpt lat="45.8214" lon="4.62119">
        <ele>344.38434</ele>
        <time>2023-09-30T09:14:17.000Z</time>
      </trkpt>
      <trkpt lat="45.82143" lon="4.6212">
        <ele>344.9007</ele>
        <time>2023-09-30T09:14:18.000Z</time>
      </trkpt>
      <trkpt lat="45.82146" lon="4.62123">
        <ele>344.99493</ele>
        <time>2023-09-30T09:14:19.000Z</time>
      </trkpt>
      <trkpt lat="45.82149" lon="4.62125">
        <ele>346.40726</ele>
        <time>2023-09-30T09:14:20.000Z</time>
      </trkpt>
      <trkpt lat="45.82152" lon="4.62126">
        <ele>348.00113</ele>
        <time>2023-09-30T09:14:21.000Z</time>
      </trkpt>
      <trkpt lat="45.82154" lon="4.62128">
        <ele>348.38068</ele>
        <time>2023-09-30T09:14:22.000Z</time>
      </trkpt>
      <trkpt lat="45.82157" lon="4.6213">
        <ele>348.62482</ele>
        <time>2023-09-30T09:14:23.000Z</time>
      </trkpt>
      <trkpt lat="45.82159" lon="4.62133">
        <ele>348.8757</ele>
        <time>2023-09-30T09:14:24.000Z</time>
      </trkpt>
      <trkpt lat="45.82162" lon="4.62135">
        <ele>349.13052</ele>
        <time>2023-09-30T09:14:25.000Z</time>
      </trkpt>
      <trkpt lat="45.82164" lon="4.62137">
        <ele>349.37637</ele>
        <time>2023-09-30T09:14:26.000Z</time>
      </trkpt>
      <trkpt lat="45.82167" lon="4.6214">
        <ele>349.67853</ele>
        <time>2023-09-30T09:14:27.000Z</time>
      </trkpt>
      <trkpt lat="45.8217" lon="4.62142">
        <ele>350.04071</ele>
        <time>2023-09-30T09:14:28.000Z</time>
      </trkpt>
      <trkpt lat="45.82172" lon="4.62145">
        <ele>350.44989</ele>
        <time>2023-09-30T09:14:29.000Z</time>
      </trkpt>
      <trkpt lat="45.82174" lon="4.62148">
        <ele>350.86411</ele>
        <time>2023-09-30T09:14:30.000Z</time>
      </trkpt>
      <trkpt lat="45.82176" lon="4.62151">
        <ele>351.31326</ele>
        <time>2023-09-30T09:14:31.000Z</time>
      </trkpt>
      <trkpt lat="45.82178" lon="4.62154">
        <ele>351.61359</ele>
        <time>2023-09-30T09:14:32.000Z</time>
      </trkpt>
      <trkpt lat="45.8218" lon="4.62158">
        <ele>351.88629</ele>
        <time>2023-09-30T09:14:33.000Z</time>
      </trkpt>
      <trkpt lat="45.82182" lon="4.62162">
        <ele>352.14249</ele>
        <time>2023-09-30T09:14:34.000Z</time>
      </trkpt>
      <trkpt lat="45.82184" lon="4.62166">
        <ele>353.18399</ele>
        <time>2023-09-30T09:14:35.000Z</time>
      </trkpt>
      <trkpt lat="45.82186" lon="4.6217">
        <ele>354.22794</ele>
        <time>2023-09-30T09:14:36.000Z</time>
      </trkpt>
      <trkpt lat="45.82188" lon="4.62174">
        <ele>354.96405</ele>
        <time>2023-09-30T09:14:37.000Z</time>
      </trkpt>
      <trkpt lat="45.82191" lon="4.62178">
        <ele>355.66226</ele>
        <time>2023-09-30T09:14:38.000Z</time>
      </trkpt>
      <trkpt lat="45.82193" lon="4.62182">
        <ele>356.8392</ele>
        <time>2023-09-30T09:14:39.000Z</time>
      </trkpt>
      <trkpt lat="45.82195" lon="4.62186">
        <ele>356.76056</ele>
        <time>2023-09-30T09:14:40.000Z</time>
      </trkpt>
      <trkpt lat="45.82197" lon="4.6219">
        <ele>356.50751</ele>
        <time>2023-09-30T09:14:41.000Z</time>
      </trkpt>
      <trkpt lat="45.82199" lon="4.62195">
        <ele>357.51895</ele>
        <time>2023-09-30T09:14:42.000Z</time>
      </trkpt>
      <trkpt lat="45.82201" lon="4.62199">
        <ele>358.53394</ele>
        <time>2023-09-30T09:14:43.000Z</time>
      </trkpt>
      <trkpt lat="45.82204" lon="4.62203">
        <ele>359.53958</ele>
        <time>2023-09-30T09:14:44.000Z</time>
      </trkpt>
      <trkpt lat="45.82206" lon="4.62207">
        <ele>360.64438</ele>
        <time>2023-09-30T09:14:45.000Z</time>
      </trkpt>
      <trkpt lat="45.82209" lon="4.62211">
        <ele>361.73309</ele>
        <time>2023-09-30T09:14:46.000Z</time>
      </trkpt>
      <trkpt lat="45.82211" lon="4.62216">
        <ele>361.2872</ele>
        <time>2023-09-30T09:14:47.000Z</time>
      </trkpt>
      <trkpt lat="45.82213" lon="4.6222">
        <ele>360.73175</ele>
        <time>2023-09-30T09:14:48.000Z</time>
      </trkpt>
      <trkpt lat="45.82215" lon="4.62225">
        <ele>360.14865</ele>
        <time>2023-09-30T09:14:49.000Z</time>
      </trkpt>
      <trkpt lat="45.82217" lon="4.62229">
        <ele>361.26956</ele>
        <time>2023-09-30T09:14:50.000Z</time>
      </trkpt>
      <trkpt lat="45.82218" lon="4.62233">
        <ele>362.41095</ele>
        <time>2023-09-30T09:14:51.000Z</time>
      </trkpt>
      <trkpt lat="45.8222" lon="4.62238">
        <ele>363.23193</ele>
        <time>2023-09-30T09:14:52.000Z</time>
      </trkpt>
      <trkpt lat="45.82222" lon="4.62242">
        <ele>364.0965</ele>
        <time>2023-09-30T09:14:53.000Z</time>
      </trkpt>
      <trkpt lat="45.82224" lon="4.62246">
        <ele>364.95453</ele>
        <time>2023-09-30T09:14:54.000Z</time>
      </trkpt>
      <trkpt lat="45.82226" lon="4.62251">
        <ele>364.98553</ele>
        <time>2023-09-30T09:14:55.000Z</time>
      </trkpt>
      <trkpt lat="45.82228" lon="4.62255">
        <ele>364.97568</ele>
        <time>2023-09-30T09:14:56.000Z</time>
      </trkpt>
      <trkpt lat="45.8223" lon="4.6226">
        <ele>364.89926</ele>
        <time>2023-09-30T09:14:57.000Z</time>
      </trkpt>
      <trkpt lat="45.82231" lon="4.62265">
        <ele>364.4826</ele>
        <time>2023-09-30T09:14:58.000Z</time>
      </trkpt>
      <trkpt lat="45.82233" lon="4.62268">
        <ele>364.7215</ele>
        <time>2023-09-30T09:14:59.000Z</time>
      </trkpt>
      <trkpt lat="45.82234" lon="4.6227">
        <ele>364.68463</ele>
        <time>2023-09-30T09:15:00.000Z</time>
      </trkpt>
      <trkpt lat="45.82236" lon="4.62272">
        <ele>364.34079</ele>
        <time>2023-09-30T09:15:01.000Z</time>
      </trkpt>
      <trkpt lat="45.82239" lon="4.62272">
        <ele>363.94144</ele>
        <time>2023-09-30T09:15:02.000Z</time>
      </trkpt>
      <trkpt lat="45.82242" lon="4.6227">
        <ele>363.53693</ele>
        <time>2023-09-30T09:15:03.000Z</time>
      </trkpt>
      <trkpt lat="45.82244" lon="4.62267">
        <ele>363.08954</ele>
        <time>2023-09-30T09:15:04.000Z</time>
      </trkpt>
      <trkpt lat="45.82247" lon="4.62264">
        <ele>362.5296</ele>
        <time>2023-09-30T09:15:05.000Z</time>
      </trkpt>
      <trkpt lat="45.8225" lon="4.6226">
        <ele>361.9798</ele>
        <time>2023-09-30T09:15:06.000Z</time>
      </trkpt>
      <trkpt lat="45.82253" lon="4.62255">
        <ele>363.36365</ele>
        <time>2023-09-30T09:15:07.000Z</time>
      </trkpt>
      <trkpt lat="45.82257" lon="4.62249">
        <ele>364.83871</ele>
        <time>2023-09-30T09:15:08.000Z</time>
      </trkpt>
      <trkpt lat="45.82262" lon="4.62246">
        <ele>366.28464</ele>
        <time>2023-09-30T09:15:09.000Z</time>
      </trkpt>
      <trkpt lat="45.82267" lon="4.62242">
        <ele>366.03284</ele>
        <time>2023-09-30T09:15:10.000Z</time>
      </trkpt>
      <trkpt lat="45.82272" lon="4.62239">
        <ele>365.74042</ele>
        <time>2023-09-30T09:15:11.000Z</time>
      </trkpt>
      <trkpt lat="45.82277" lon="4.62238">
        <ele>365.88409</ele>
        <time>2023-09-30T09:15:12.000Z</time>
      </trkpt>
      <trkpt lat="45.82283" lon="4.62237">
        <ele>365.56577</ele>
        <time>2023-09-30T09:15:13.000Z</time>
      </trkpt>
      <trkpt lat="45.82289" lon="4.62238">
        <ele>364.92731</ele>
        <time>2023-09-30T09:15:14.000Z</time>
      </trkpt>
      <trkpt lat="45.82295" lon="4.62242">
        <ele>364.27206</ele>
        <time>2023-09-30T09:15:15.000Z</time>
      </trkpt>
      <trkpt lat="45.82301" lon="4.62247">
        <ele>363.6087</ele>
        <time>2023-09-30T09:15:16.000Z</time>
      </trkpt>
      <trkpt lat="45.82305" lon="4.62256">
        <ele>362.9534</ele>
        <time>2023-09-30T09:15:17.000Z</time>
      </trkpt>
      <trkpt lat="45.82308" lon="4.62265">
        <ele>362.63739</ele>
        <time>2023-09-30T09:15:18.000Z</time>
      </trkpt>
      <trkpt lat="45.82309" lon="4.62276">
        <ele>361.60504</ele>
        <time>2023-09-30T09:15:19.000Z</time>
      </trkpt>
      <trkpt lat="45.8231" lon="4.62288">
        <ele>360.82431</ele>
        <time>2023-09-30T09:15:20.000Z</time>
      </trkpt>
      <trkpt lat="45.8231" lon="4.62299">
        <ele>360.59961</ele>
        <time>2023-09-30T09:15:21.000Z</time>
      </trkpt>
      <trkpt lat="45.82309" lon="4.62311">
        <ele>360.39664</ele>
        <time>2023-09-30T09:15:22.000Z</time>
      </trkpt>
      <trkpt lat="45.82306" lon="4.62322">
        <ele>360.21362</ele>
        <time>2023-09-30T09:15:23.000Z</time>
      </trkpt>
      <trkpt lat="45.82302" lon="4.62333">
        <ele>359.85773</ele>
        <time>2023-09-30T09:15:24.000Z</time>
      </trkpt>
      <trkpt lat="45.82299" lon="4.62344">
        <ele>359.50107</ele>
        <time>2023-09-30T09:15:25.000Z</time>
      </trkpt>
      <trkpt lat="45.82295" lon="4.62353">
        <ele>359.11868</ele>
        <time>2023-09-30T09:15:26.000Z</time>
      </trkpt>
      <trkpt lat="45.82292" lon="4.62364">
        <ele>358.30157</ele>
        <time>2023-09-30T09:15:27.000Z</time>
      </trkpt>
      <trkpt lat="45.82292" lon="4.62376">
        <ele>357.47076</ele>
        <time>2023-09-30T09:15:28.000Z</time>
      </trkpt>
      <trkpt lat="45.82294" lon="4.62387">
        <ele>356.65289</ele>
        <time>2023-09-30T09:15:29.000Z</time>
      </trkpt>
      <trkpt lat="45.82297" lon="4.62398">
        <ele>355.81973</ele>
        <time>2023-09-30T09:15:30.000Z</time>
      </trkpt>
      <trkpt lat="45.82302" lon="4.62406">
        <ele>355.04913</ele>
        <time>2023-09-30T09:15:31.000Z</time>
      </trkpt>
      <trkpt lat="45.8231" lon="4.62411">
        <ele>354.13538</ele>
        <time>2023-09-30T09:15:32.000Z</time>
      </trkpt>
      <trkpt lat="45.82318" lon="4.62416">
        <ele>353.65985</ele>
        <time>2023-09-30T09:15:33.000Z</time>
      </trkpt>
      <trkpt lat="45.82326" lon="4.62419">
        <ele>353.55673</ele>
        <time>2023-09-30T09:15:34.000Z</time>
      </trkpt>
      <trkpt lat="45.82334" lon="4.62421">
        <ele>353.45544</ele>
        <time>2023-09-30T09:15:35.000Z</time>
      </trkpt>
      <trkpt lat="45.82342" lon="4.62423">
        <ele>353.36987</ele>
        <time>2023-09-30T09:15:36.000Z</time>
      </trkpt>
      <trkpt lat="45.82351" lon="4.62426">
        <ele>353.33624</ele>
        <time>2023-09-30T09:15:37.000Z</time>
      </trkpt>
      <trkpt lat="45.8236" lon="4.62429">
        <ele>353.04675</ele>
        <time>2023-09-30T09:15:38.000Z</time>
      </trkpt>
      <trkpt lat="45.82368" lon="4.62433">
        <ele>352.80194</ele>
        <time>2023-09-30T09:15:39.000Z</time>
      </trkpt>
      <trkpt lat="45.82376" lon="4.62436">
        <ele>352.54544</ele>
        <time>2023-09-30T09:15:40.000Z</time>
      </trkpt>
      <trkpt lat="45.82384" lon="4.62441">
        <ele>352.05569</ele>
        <time>2023-09-30T09:15:41.000Z</time>
      </trkpt>
      <trkpt lat="45.82392" lon="4.62446">
        <ele>351.55698</ele>
        <time>2023-09-30T09:15:42.000Z</time>
      </trkpt>
      <trkpt lat="45.82399" lon="4.62451">
        <ele>351.04605</ele>
        <time>2023-09-30T09:15:43.000Z</time>
      </trkpt>
      <trkpt lat="45.82407" lon="4.62457">
        <ele>350.70676</ele>
        <time>2023-09-30T09:15:44.000Z</time>
      </trkpt>
      <trkpt lat="45.82414" lon="4.62463">
        <ele>350.5257</ele>
        <time>2023-09-30T09:15:45.000Z</time>
      </trkpt>
      <trkpt lat="45.82422" lon="4.62469">
        <ele>350.51114</ele>
        <time>2023-09-30T09:15:46.000Z</time>
      </trkpt>
      <trkpt lat="45.8243" lon="4.62473">
        <ele>350.14749</ele>
        <time>2023-09-30T09:15:47.000Z</time>
      </trkpt>
      <trkpt lat="45.82438" lon="4.62477">
        <ele>349.80142</ele>
        <time>2023-09-30T09:15:48.000Z</time>
      </trkpt>
      <trkpt lat="45.82447" lon="4.62481">
        <ele>349.47076</ele>
        <time>2023-09-30T09:15:49.000Z</time>
      </trkpt>
      <trkpt lat="45.82453" lon="4.62484">
        <ele>349.14853</ele>
        <time>2023-09-30T09:15:50.000Z</time>
      </trkpt>
      <trkpt lat="45.82462" lon="4.62489">
        <ele>348.55881</ele>
        <time>2023-09-30T09:15:51.000Z</time>
      </trkpt>
      <trkpt lat="45.8247" lon="4.62493">
        <ele>348.01755</ele>
        <time>2023-09-30T09:15:52.000Z</time>
      </trkpt>
      <trkpt lat="45.82479" lon="4.62497">
        <ele>347.47678</ele>
        <time>2023-09-30T09:15:53.000Z</time>
      </trkpt>
      <trkpt lat="45.82487" lon="4.62501">
        <ele>346.862</ele>
        <time>2023-09-30T09:15:54.000Z</time>
      </trkpt>
      <trkpt lat="45.82496" lon="4.62506">
        <ele>346.28061</ele>
        <time>2023-09-30T09:15:55.000Z</time>
      </trkpt>
      <trkpt lat="45.82505" lon="4.6251">
        <ele>346.01315</ele>
        <time>2023-09-30T09:15:56.000Z</time>
      </trkpt>
      <trkpt lat="45.82514" lon="4.62515">
        <ele>345.50656</ele>
        <time>2023-09-30T09:15:57.000Z</time>
      </trkpt>
      <trkpt lat="45.82524" lon="4.6252">
        <ele>345.37823</ele>
        <time>2023-09-30T09:15:58.000Z</time>
      </trkpt>
      <trkpt lat="45.82533" lon="4.62526">
        <ele>344.95264</ele>
        <time>2023-09-30T09:15:59.000Z</time>
      </trkpt>
      <trkpt lat="45.82543" lon="4.6253">
        <ele>344.61041</ele>
        <time>2023-09-30T09:16:00.000Z</time>
      </trkpt>
      <trkpt lat="45.82552" lon="4.62534">
        <ele>344.13882</ele>
        <time>2023-09-30T09:16:01.000Z</time>
      </trkpt>
      <trkpt lat="45.82562" lon="4.62539">
        <ele>343.64078</ele>
        <time>2023-09-30T09:16:02.000Z</time>
      </trkpt>
      <trkpt lat="45.8257" lon="4.62543">
        <ele>343.09857</ele>
        <time>2023-09-30T09:16:03.000Z</time>
      </trkpt>
      <trkpt lat="45.82577" lon="4.62548">
        <ele>342.54492</ele>
        <time>2023-09-30T09:16:04.000Z</time>
      </trkpt>
      <trkpt lat="45.82583" lon="4.62552">
        <ele>341.80704</ele>
        <time>2023-09-30T09:16:05.000Z</time>
      </trkpt>
      <trkpt lat="45.82588" lon="4.62556">
        <ele>340.9122</ele>
        <time>2023-09-30T09:16:06.000Z</time>
      </trkpt>
      <trkpt lat="45.82592" lon="4.62556">
        <ele>340.32294</ele>
        <time>2023-09-30T09:16:07.000Z</time>
      </trkpt>
      <trkpt lat="45.82595" lon="4.62554">
        <ele>339.76401</ele>
        <time>2023-09-30T09:16:08.000Z</time>
      </trkpt>
      <trkpt lat="45.82597" lon="4.62551">
        <ele>338.46851</ele>
        <time>2023-09-30T09:16:10.000Z</time>
      </trkpt>
      <trkpt lat="45.82598" lon="4.6255">
        <ele>337.17169</ele>
        <time>2023-09-30T09:16:12.000Z</time>
      </trkpt>
      <trkpt lat="45.82601" lon="4.62548">
        <ele>336.07446</ele>
        <time>2023-09-30T09:16:14.000Z</time>
      </trkpt>
      <trkpt lat="45.82603" lon="4.62546">
        <ele>334.92657</ele>
        <time>2023-09-30T09:16:15.000Z</time>
      </trkpt>
      <trkpt lat="45.82605" lon="4.62544">
        <ele>333.75894</ele>
        <time>2023-09-30T09:16:16.000Z</time>
      </trkpt>
      <trkpt lat="45.82608" lon="4.6254">
        <ele>332.61493</ele>
        <time>2023-09-30T09:16:17.000Z</time>
      </trkpt>
      <trkpt lat="45.82611" lon="4.62536">
        <ele>331.4516</ele>
        <time>2023-09-30T09:16:18.000Z</time>
      </trkpt>
      <trkpt lat="45.82613" lon="4.62531">
        <ele>329.97949</ele>
        <time>2023-09-30T09:16:19.000Z</time>
      </trkpt>
      <trkpt lat="45.82616" lon="4.62526">
        <ele>328.61365</ele>
        <time>2023-09-30T09:16:20.000Z</time>
      </trkpt>
      <trkpt lat="45.82619" lon="4.62521">
        <ele>327.2912</ele>
        <time>2023-09-30T09:16:21.000Z</time>
      </trkpt>
      <trkpt lat="45.82622" lon="4.62513">
        <ele>326.21576</ele>
        <time>2023-09-30T09:16:22.000Z</time>
      </trkpt>
      <trkpt lat="45.82626" lon="4.62507">
        <ele>325.08649</ele>
        <time>2023-09-30T09:16:23.000Z</time>
      </trkpt>
      <trkpt lat="45.82629" lon="4.625">
        <ele>324.0784</ele>
        <time>2023-09-30T09:16:24.000Z</time>
      </trkpt>
      <trkpt lat="45.82632" lon="4.62493">
        <ele>323.11182</ele>
        <time>2023-09-30T09:16:25.000Z</time>
      </trkpt>
      <trkpt lat="45.82635" lon="4.62488">
        <ele>322.16647</ele>
        <time>2023-09-30T09:16:26.000Z</time>
      </trkpt>
      <trkpt lat="45.8264" lon="4.62484">
        <ele>321.29437</ele>
        <time>2023-09-30T09:16:27.000Z</time>
      </trkpt>
      <trkpt lat="45.82646" lon="4.62486">
        <ele>320.4339</ele>
        <time>2023-09-30T09:16:28.000Z</time>
      </trkpt>
      <trkpt lat="45.82652" lon="4.62488">
        <ele>319.32864</ele>
        <time>2023-09-30T09:16:29.000Z</time>
      </trkpt>
      <trkpt lat="45.82659" lon="4.62492">
        <ele>318.38666</ele>
        <time>2023-09-30T09:16:30.000Z</time>
      </trkpt>
      <trkpt lat="45.82666" lon="4.62497">
        <ele>318.55417</ele>
        <time>2023-09-30T09:16:31.000Z</time>
      </trkpt>
      <trkpt lat="45.82673" lon="4.62503">
        <ele>319.41998</ele>
        <time>2023-09-30T09:16:32.000Z</time>
      </trkpt>
      <trkpt lat="45.8268" lon="4.62509">
        <ele>320.69968</ele>
        <time>2023-09-30T09:16:33.000Z</time>
      </trkpt>
      <trkpt lat="45.82687" lon="4.62516">
        <ele>320.78076</ele>
        <time>2023-09-30T09:16:34.000Z</time>
      </trkpt>
      <trkpt lat="45.82693" lon="4.62521">
        <ele>320.8941</ele>
        <time>2023-09-30T09:16:35.000Z</time>
      </trkpt>
      <trkpt lat="45.82699" lon="4.62529">
        <ele>321.02664</ele>
        <time>2023-09-30T09:16:36.000Z</time>
      </trkpt>
      <trkpt lat="45.82703" lon="4.62537">
        <ele>321.0213</ele>
        <time>2023-09-30T09:16:37.000Z</time>
      </trkpt>
      <trkpt lat="45.82706" lon="4.62544">
        <ele>322.2916</ele>
        <time>2023-09-30T09:16:38.000Z</time>
      </trkpt>
      <trkpt lat="45.82709" lon="4.6255">
        <ele>323.52426</ele>
        <time>2023-09-30T09:16:39.000Z</time>
      </trkpt>
      <trkpt lat="45.82713" lon="4.62557">
        <ele>324.91681</ele>
        <time>2023-09-30T09:16:40.000Z</time>
      </trkpt>
      <trkpt lat="45.82716" lon="4.62563">
        <ele>324.83374</ele>
        <time>2023-09-30T09:16:41.000Z</time>
      </trkpt>
      <trkpt lat="45.82719" lon="4.6257">
        <ele>324.76917</ele>
        <time>2023-09-30T09:16:42.000Z</time>
      </trkpt>
      <trkpt lat="45.82722" lon="4.62575">
        <ele>324.66687</ele>
        <time>2023-09-30T09:16:43.000Z</time>
      </trkpt>
      <trkpt lat="45.82724" lon="4.6258">
        <ele>324.5744</ele>
        <time>2023-09-30T09:16:44.000Z</time>
      </trkpt>
      <trkpt lat="45.82725" lon="4.62585">
        <ele>324.50098</ele>
        <time>2023-09-30T09:16:45.000Z</time>
      </trkpt>
      <trkpt lat="45.82724" lon="4.62589">
        <ele>324.43561</ele>
        <time>2023-09-30T09:16:47.000Z</time>
      </trkpt>
      <trkpt lat="45.82725" lon="4.62591">
        <ele>324.4649</ele>
        <time>2023-09-30T09:16:53.000Z</time>
      </trkpt>
      <trkpt lat="45.82726" lon="4.62594">
        <ele>325.27414</ele>
        <time>2023-09-30T09:17:00.000Z</time>
      </trkpt>
      <trkpt lat="45.8273" lon="4.62597">
        <ele>326.33209</ele>
        <time>2023-09-30T09:17:02.000Z</time>
      </trkpt>
      <trkpt lat="45.82732" lon="4.626">
        <ele>326.00681</ele>
        <time>2023-09-30T09:17:03.000Z</time>
      </trkpt>
      <trkpt lat="45.82734" lon="4.62603">
        <ele>324.68234</ele>
        <time>2023-09-30T09:17:04.000Z</time>
      </trkpt>
      <trkpt lat="45.82736" lon="4.62607">
        <ele>323.43204</ele>
        <time>2023-09-30T09:17:05.000Z</time>
      </trkpt>
      <trkpt lat="45.82738" lon="4.62611">
        <ele>321.78339</ele>
        <time>2023-09-30T09:17:06.000Z</time>
      </trkpt>
      <trkpt lat="45.82741" lon="4.62616">
        <ele>321.34888</ele>
        <time>2023-09-30T09:17:07.000Z</time>
      </trkpt>
      <trkpt lat="45.82743" lon="4.62621">
        <ele>322.39307</ele>
        <time>2023-09-30T09:17:08.000Z</time>
      </trkpt>
      <trkpt lat="45.82746" lon="4.62627">
        <ele>323.48865</ele>
        <time>2023-09-30T09:17:09.000Z</time>
      </trkpt>
      <trkpt lat="45.82749" lon="4.62632">
        <ele>325.069</ele>
        <time>2023-09-30T09:17:10.000Z</time>
      </trkpt>
      <trkpt lat="45.82752" lon="4.62639">
        <ele>325.26544</ele>
        <time>2023-09-30T09:17:11.000Z</time>
      </trkpt>
      <trkpt lat="45.82755" lon="4.62647">
        <ele>324.63702</ele>
        <time>2023-09-30T09:17:12.000Z</time>
      </trkpt>
      <trkpt lat="45.82757" lon="4.62654">
        <ele>324.07507</ele>
        <time>2023-09-30T09:17:13.000Z</time>
      </trkpt>
      <trkpt lat="45.8276" lon="4.62662">
        <ele>324.8642</ele>
        <time>2023-09-30T09:17:14.000Z</time>
      </trkpt>
      <trkpt lat="45.82762" lon="4.6267">
        <ele>325.65591</ele>
        <time>2023-09-30T09:17:15.000Z</time>
      </trkpt>
      <trkpt lat="45.82763" lon="4.62679">
        <ele>326.42078</ele>
        <time>2023-09-30T09:17:16.000Z</time>
      </trkpt>
      <trkpt lat="45.82764" lon="4.62688">
        <ele>326.21381</ele>
        <time>2023-09-30T09:17:17.000Z</time>
      </trkpt>
      <trkpt lat="45.82765" lon="4.62698">
        <ele>325.92798</ele>
        <time>2023-09-30T09:17:18.000Z</time>
      </trkpt>
      <trkpt lat="45.82765" lon="4.62706">
        <ele>325.61041</ele>
        <time>2023-09-30T09:17:19.000Z</time>
      </trkpt>
      <trkpt lat="45.82766" lon="4.62716">
        <ele>325.14282</ele>
        <time>2023-09-30T09:17:20.000Z</time>
      </trkpt>
      <trkpt lat="45.82768" lon="4.62725">
        <ele>323.9122</ele>
        <time>2023-09-30T09:17:21.000Z</time>
      </trkpt>
      <trkpt lat="45.82769" lon="4.62732">
        <ele>323.90182</ele>
        <time>2023-09-30T09:17:22.000Z</time>
      </trkpt>
      <trkpt lat="45.82771" lon="4.6274">
        <ele>325.01437</ele>
        <time>2023-09-30T09:17:23.000Z</time>
      </trkpt>
      <trkpt lat="45.82773" lon="4.62747">
        <ele>325.99252</ele>
        <time>2023-09-30T09:17:24.000Z</time>
      </trkpt>
      <trkpt lat="45.82775" lon="4.62753">
        <ele>326.94263</ele>
        <time>2023-09-30T09:17:25.000Z</time>
      </trkpt>
      <trkpt lat="45.82777" lon="4.62759">
        <ele>327.90723</ele>
        <time>2023-09-30T09:17:26.000Z</time>
      </trkpt>
      <trkpt lat="45.82779" lon="4.62764">
        <ele>328.90442</ele>
        <time>2023-09-30T09:17:27.000Z</time>
      </trkpt>
      <trkpt lat="45.82782" lon="4.6277">
        <ele>328.45459</ele>
        <time>2023-09-30T09:17:28.000Z</time>
      </trkpt>
      <trkpt lat="45.82785" lon="4.62776">
        <ele>327.95575</ele>
        <time>2023-09-30T09:17:29.000Z</time>
      </trkpt>
      <trkpt lat="45.82788" lon="4.6278">
        <ele>327.1727</ele>
        <time>2023-09-30T09:17:30.000Z</time>
      </trkpt>
      <trkpt lat="45.8279" lon="4.62784">
        <ele>326.58444</ele>
        <time>2023-09-30T09:17:31.000Z</time>
      </trkpt>
      <trkpt lat="45.82793" lon="4.62787">
        <ele>326.84647</ele>
        <time>2023-09-30T09:17:32.000Z</time>
      </trkpt>
      <trkpt lat="45.82797" lon="4.6279">
        <ele>327.00342</ele>
        <time>2023-09-30T09:17:33.000Z</time>
      </trkpt>
      <trkpt lat="45.828" lon="4.62791">
        <ele>327.20724</ele>
        <time>2023-09-30T09:17:34.000Z</time>
      </trkpt>
      <trkpt lat="45.82804" lon="4.62794">
        <ele>327.41443</ele>
        <time>2023-09-30T09:17:35.000Z</time>
      </trkpt>
      <trkpt lat="45.82808" lon="4.62797">
        <ele>327.69589</ele>
        <time>2023-09-30T09:17:36.000Z</time>
      </trkpt>
      <trkpt lat="45.82811" lon="4.628">
        <ele>328.935</ele>
        <time>2023-09-30T09:17:37.000Z</time>
      </trkpt>
      <trkpt lat="45.82815" lon="4.62801">
        <ele>330.25897</ele>
        <time>2023-09-30T09:17:38.000Z</time>
      </trkpt>
      <trkpt lat="45.82818" lon="4.62803">
        <ele>331.62903</ele>
        <time>2023-09-30T09:17:39.000Z</time>
      </trkpt>
      <trkpt lat="45.82821" lon="4.62804">
        <ele>333.07532</ele>
        <time>2023-09-30T09:17:40.000Z</time>
      </trkpt>
      <trkpt lat="45.82824" lon="4.62805">
        <ele>334.73584</ele>
        <time>2023-09-30T09:17:41.000Z</time>
      </trkpt>
      <trkpt lat="45.82827" lon="4.62806">
        <ele>335.18973</ele>
        <time>2023-09-30T09:17:42.000Z</time>
      </trkpt>
      <trkpt lat="45.8283" lon="4.62808">
        <ele>335.77252</ele>
        <time>2023-09-30T09:17:43.000Z</time>
      </trkpt>
      <trkpt lat="45.82834" lon="4.6281">
        <ele>336.25766</ele>
        <time>2023-09-30T09:17:44.000Z</time>
      </trkpt>
      <trkpt lat="45.82837" lon="4.62811">
        <ele>336.84506</ele>
        <time>2023-09-30T09:17:45.000Z</time>
      </trkpt>
      <trkpt lat="45.8284" lon="4.62813">
        <ele>337.2298</ele>
        <time>2023-09-30T09:17:46.000Z</time>
      </trkpt>
      <trkpt lat="45.82843" lon="4.62815">
        <ele>337.46771</ele>
        <time>2023-09-30T09:17:47.000Z</time>
      </trkpt>
      <trkpt lat="45.82846" lon="4.62816">
        <ele>337.64996</ele>
        <time>2023-09-30T09:17:48.000Z</time>
      </trkpt>
      <trkpt lat="45.82849" lon="4.62817">
        <ele>337.85477</ele>
        <time>2023-09-30T09:17:49.000Z</time>
      </trkpt>
      <trkpt lat="45.82852" lon="4.62819">
        <ele>337.97571</ele>
        <time>2023-09-30T09:17:50.000Z</time>
      </trkpt>
      <trkpt lat="45.82855" lon="4.62821">
        <ele>338.03281</ele>
        <time>2023-09-30T09:17:51.000Z</time>
      </trkpt>
      <trkpt lat="45.82858" lon="4.62823">
        <ele>338.18259</ele>
        <time>2023-09-30T09:17:52.000Z</time>
      </trkpt>
      <trkpt lat="45.82861" lon="4.62824">
        <ele>338.32285</ele>
        <time>2023-09-30T09:17:53.000Z</time>
      </trkpt>
      <trkpt lat="45.82864" lon="4.62826">
        <ele>338.40262</ele>
        <time>2023-09-30T09:17:54.000Z</time>
      </trkpt>
      <trkpt lat="45.82867" lon="4.62828">
        <ele>338.51038</ele>
        <time>2023-09-30T09:17:55.000Z</time>
      </trkpt>
      <trkpt lat="45.8287" lon="4.6283">
        <ele>338.55011</ele>
        <time>2023-09-30T09:17:56.000Z</time>
      </trkpt>
      <trkpt lat="45.82874" lon="4.62832">
        <ele>338.55719</ele>
        <time>2023-09-30T09:17:57.000Z</time>
      </trkpt>
      <trkpt lat="45.82877" lon="4.62834">
        <ele>338.61359</ele>
        <time>2023-09-30T09:17:58.000Z</time>
      </trkpt>
      <trkpt lat="45.8288" lon="4.62837">
        <ele>338.68378</ele>
        <time>2023-09-30T09:17:59.000Z</time>
      </trkpt>
      <trkpt lat="45.82883" lon="4.6284">
        <ele>338.79697</ele>
        <time>2023-09-30T09:18:00.000Z</time>
      </trkpt>
      <trkpt lat="45.82885" lon="4.62843">
        <ele>338.638</ele>
        <time>2023-09-30T09:18:01.000Z</time>
      </trkpt>
      <trkpt lat="45.82888" lon="4.62845">
        <ele>338.59995</ele>
        <time>2023-09-30T09:18:02.000Z</time>
      </trkpt>
      <trkpt lat="45.82891" lon="4.62849">
        <ele>338.46164</ele>
        <time>2023-09-30T09:18:03.000Z</time>
      </trkpt>
      <trkpt lat="45.82894" lon="4.62852">
        <ele>338.45407</ele>
        <time>2023-09-30T09:18:04.000Z</time>
      </trkpt>
      <trkpt lat="45.82896" lon="4.62856">
        <ele>338.3309</ele>
        <time>2023-09-30T09:18:05.000Z</time>
      </trkpt>
      <trkpt lat="45.82899" lon="4.62859">
        <ele>338.42755</ele>
        <time>2023-09-30T09:18:06.000Z</time>
      </trkpt>
      <trkpt lat="45.82901" lon="4.62863">
        <ele>338.66275</ele>
        <time>2023-09-30T09:18:07.000Z</time>
      </trkpt>
      <trkpt lat="45.82903" lon="4.62867">
        <ele>338.89093</ele>
        <time>2023-09-30T09:18:08.000Z</time>
      </trkpt>
      <trkpt lat="45.82906" lon="4.62871">
        <ele>339.10114</ele>
        <time>2023-09-30T09:18:09.000Z</time>
      </trkpt>
      <trkpt lat="45.82908" lon="4.62875">
        <ele>339.32941</ele>
        <time>2023-09-30T09:18:10.000Z</time>
      </trkpt>
      <trkpt lat="45.8291" lon="4.62879">
        <ele>339.54651</ele>
        <time>2023-09-30T09:18:11.000Z</time>
      </trkpt>
      <trkpt lat="45.82912" lon="4.62882">
        <ele>339.72211</ele>
        <time>2023-09-30T09:18:12.000Z</time>
      </trkpt>
      <trkpt lat="45.82914" lon="4.62886">
        <ele>339.91779</ele>
        <time>2023-09-30T09:18:13.000Z</time>
      </trkpt>
      <trkpt lat="45.82917" lon="4.62889">
        <ele>340.11661</ele>
        <time>2023-09-30T09:18:14.000Z</time>
      </trkpt>
      <trkpt lat="45.82919" lon="4.62893">
        <ele>340.28906</ele>
        <time>2023-09-30T09:18:15.000Z</time>
      </trkpt>
      <trkpt lat="45.82921" lon="4.62896">
        <ele>340.53571</ele>
        <time>2023-09-30T09:18:16.000Z</time>
      </trkpt>
      <trkpt lat="45.82923" lon="4.629">
        <ele>340.85458</ele>
        <time>2023-09-30T09:18:17.000Z</time>
      </trkpt>
      <trkpt lat="45.82925" lon="4.62904">
        <ele>341.13086</ele>
        <time>2023-09-30T09:18:18.000Z</time>
      </trkpt>
      <trkpt lat="45.82928" lon="4.62908">
        <ele>341.38995</ele>
        <time>2023-09-30T09:18:19.000Z</time>
      </trkpt>
      <trkpt lat="45.8293" lon="4.62912">
        <ele>341.55621</ele>
        <time>2023-09-30T09:18:20.000Z</time>
      </trkpt>
      <trkpt lat="45.82932" lon="4.62916">
        <ele>341.80856</ele>
        <time>2023-09-30T09:18:21.000Z</time>
      </trkpt>
      <trkpt lat="45.82934" lon="4.6292">
        <ele>341.92911</ele>
        <time>2023-09-30T09:18:22.000Z</time>
      </trkpt>
      <trkpt lat="45.82936" lon="4.62924">
        <ele>342.02594</ele>
        <time>2023-09-30T09:18:23.000Z</time>
      </trkpt>
      <trkpt lat="45.82939" lon="4.62928">
        <ele>342.10791</ele>
        <time>2023-09-30T09:18:24.000Z</time>
      </trkpt>
      <trkpt lat="45.82941" lon="4.62931">
        <ele>342.20279</ele>
        <time>2023-09-30T09:18:25.000Z</time>
      </trkpt>
      <trkpt lat="45.82943" lon="4.62934">
        <ele>342.26648</ele>
        <time>2023-09-30T09:18:26.000Z</time>
      </trkpt>
      <trkpt lat="45.82945" lon="4.62938">
        <ele>342.30902</ele>
        <time>2023-09-30T09:18:27.000Z</time>
      </trkpt>
      <trkpt lat="45.82947" lon="4.62942">
        <ele>346.04694</ele>
        <time>2023-09-30T09:18:28.000Z</time>
      </trkpt>
      <trkpt lat="45.82949" lon="4.62945">
        <ele>346.29285</ele>
        <time>2023-09-30T09:18:29.000Z</time>
      </trkpt>
      <trkpt lat="45.82951" lon="4.62949">
        <ele>346.56781</ele>
        <time>2023-09-30T09:18:30.000Z</time>
      </trkpt>
      <trkpt lat="45.82953" lon="4.62952">
        <ele>346.86246</ele>
        <time>2023-09-30T09:18:31.000Z</time>
      </trkpt>
      <trkpt lat="45.82956" lon="4.62956">
        <ele>347.13922</ele>
        <time>2023-09-30T09:18:32.000Z</time>
      </trkpt>
      <trkpt lat="45.82958" lon="4.62959">
        <ele>347.41873</ele>
        <time>2023-09-30T09:18:33.000Z</time>
      </trkpt>
      <trkpt lat="45.8296" lon="4.62961">
        <ele>349.9245</ele>
        <time>2023-09-30T09:18:34.000Z</time>
      </trkpt>
      <trkpt lat="45.82963" lon="4.62964">
        <ele>350.32352</ele>
        <time>2023-09-30T09:18:35.000Z</time>
      </trkpt>
      <trkpt lat="45.82965" lon="4.62967">
        <ele>350.71646</ele>
        <time>2023-09-30T09:18:36.000Z</time>
      </trkpt>
      <trkpt lat="45.82968" lon="4.62969">
        <ele>351.10236</ele>
        <time>2023-09-30T09:18:37.000Z</time>
      </trkpt>
      <trkpt lat="45.82971" lon="4.62972">
        <ele>351.487</ele>
        <time>2023-09-30T09:18:38.000Z</time>
      </trkpt>
      <trkpt lat="45.82974" lon="4.62974">
        <ele>351.88043</ele>
        <time>2023-09-30T09:18:39.000Z</time>
      </trkpt>
      <trkpt lat="45.82976" lon="4.62977">
        <ele>354.50021</ele>
        <time>2023-09-30T09:18:40.000Z</time>
      </trkpt>
      <trkpt lat="45.82979" lon="4.6298">
        <ele>354.99713</ele>
        <time>2023-09-30T09:18:41.000Z</time>
      </trkpt>
      <trkpt lat="45.82982" lon="4.62982">
        <ele>355.40021</ele>
        <time>2023-09-30T09:18:42.000Z</time>
      </trkpt>
      <trkpt lat="45.82985" lon="4.62985">
        <ele>355.97134</ele>
        <time>2023-09-30T09:18:43.000Z</time>
      </trkpt>
      <trkpt lat="45.82988" lon="4.62988">
        <ele>356.52213</ele>
        <time>2023-09-30T09:18:44.000Z</time>
      </trkpt>
      <trkpt lat="45.82991" lon="4.6299">
        <ele>357.09222</ele>
        <time>2023-09-30T09:18:45.000Z</time>
      </trkpt>
      <trkpt lat="45.82994" lon="4.62993">
        <ele>357.65512</ele>
        <time>2023-09-30T09:18:46.000Z</time>
      </trkpt>
      <trkpt lat="45.82997" lon="4.62995">
        <ele>358.23254</ele>
        <time>2023-09-30T09:18:47.000Z</time>
      </trkpt>
      <trkpt lat="45.83" lon="4.62998">
        <ele>355.15942</ele>
        <time>2023-09-30T09:18:48.000Z</time>
      </trkpt>
      <trkpt lat="45.83003" lon="4.63001">
        <ele>355.58521</ele>
        <time>2023-09-30T09:18:49.000Z</time>
      </trkpt>
      <trkpt lat="45.83006" lon="4.63004">
        <ele>355.99765</ele>
        <time>2023-09-30T09:18:50.000Z</time>
      </trkpt>
      <trkpt lat="45.83009" lon="4.63007">
        <ele>356.37399</ele>
        <time>2023-09-30T09:18:51.000Z</time>
      </trkpt>
      <trkpt lat="45.83012" lon="4.63009">
        <ele>356.74985</ele>
        <time>2023-09-30T09:18:52.000Z</time>
      </trkpt>
      <trkpt lat="45.83015" lon="4.63012">
        <ele>357.12711</ele>
        <time>2023-09-30T09:18:53.000Z</time>
      </trkpt>
      <trkpt lat="45.83017" lon="4.63015">
        <ele>355.28705</ele>
        <time>2023-09-30T09:18:54.000Z</time>
      </trkpt>
      <trkpt lat="45.83019" lon="4.63016">
        <ele>355.55673</ele>
        <time>2023-09-30T09:18:55.000Z</time>
      </trkpt>
      <trkpt lat="45.83022" lon="4.63019">
        <ele>355.7428</ele>
        <time>2023-09-30T09:18:56.000Z</time>
      </trkpt>
      <trkpt lat="45.83025" lon="4.63022">
        <ele>355.90549</ele>
        <time>2023-09-30T09:18:57.000Z</time>
      </trkpt>
      <trkpt lat="45.83028" lon="4.63026">
        <ele>356.06116</ele>
        <time>2023-09-30T09:18:58.000Z</time>
      </trkpt>
      <trkpt lat="45.83031" lon="4.63029">
        <ele>356.33273</ele>
        <time>2023-09-30T09:18:59.000Z</time>
      </trkpt>
      <trkpt lat="45.83033" lon="4.63032">
        <ele>354.46027</ele>
        <time>2023-09-30T09:19:00.000Z</time>
      </trkpt>
      <trkpt lat="45.83036" lon="4.63035">
        <ele>354.86884</ele>
        <time>2023-09-30T09:19:01.000Z</time>
      </trkpt>
      <trkpt lat="45.83039" lon="4.63038">
        <ele>355.18817</ele>
        <time>2023-09-30T09:19:02.000Z</time>
      </trkpt>
      <trkpt lat="45.83042" lon="4.63041">
        <ele>355.49509</ele>
        <time>2023-09-30T09:19:03.000Z</time>
      </trkpt>
      <trkpt lat="45.83046" lon="4.63044">
        <ele>356.14194</ele>
        <time>2023-09-30T09:19:04.000Z</time>
      </trkpt>
      <trkpt lat="45.83049" lon="4.63048">
        <ele>356.80313</ele>
        <time>2023-09-30T09:19:05.000Z</time>
      </trkpt>
      <trkpt lat="45.83052" lon="4.63052">
        <ele>356.88922</ele>
        <time>2023-09-30T09:19:06.000Z</time>
      </trkpt>
      <trkpt lat="45.83055" lon="4.63055">
        <ele>357.01254</ele>
        <time>2023-09-30T09:19:07.000Z</time>
      </trkpt>
      <trkpt lat="45.83058" lon="4.63059">
        <ele>357.11856</ele>
        <time>2023-09-30T09:19:08.000Z</time>
      </trkpt>
      <trkpt lat="45.83062" lon="4.63062">
        <ele>357.17999</ele>
        <time>2023-09-30T09:19:09.000Z</time>
      </trkpt>
      <trkpt lat="45.83065" lon="4.63066">
        <ele>357.284</ele>
        <time>2023-09-30T09:19:10.000Z</time>
      </trkpt>
      <trkpt lat="45.83067" lon="4.63069">
        <ele>357.40356</ele>
        <time>2023-09-30T09:19:11.000Z</time>
      </trkpt>
      <trkpt lat="45.8307" lon="4.63073">
        <ele>357.4838</ele>
        <time>2023-09-30T09:19:12.000Z</time>
      </trkpt>
      <trkpt lat="45.83073" lon="4.63076">
        <ele>357.54868</ele>
        <time>2023-09-30T09:19:13.000Z</time>
      </trkpt>
      <trkpt lat="45.83076" lon="4.63079">
        <ele>357.50906</ele>
        <time>2023-09-30T09:19:14.000Z</time>
      </trkpt>
      <trkpt lat="45.83079" lon="4.63082">
        <ele>357.47528</ele>
        <time>2023-09-30T09:19:15.000Z</time>
      </trkpt>
      <trkpt lat="45.83082" lon="4.63085">
        <ele>357.55817</ele>
        <time>2023-09-30T09:19:16.000Z</time>
      </trkpt>
      <trkpt lat="45.83085" lon="4.63087">
        <ele>357.56366</ele>
        <time>2023-09-30T09:19:17.000Z</time>
      </trkpt>
      <trkpt lat="45.83088" lon="4.6309">
        <ele>357.57388</ele>
        <time>2023-09-30T09:19:18.000Z</time>
      </trkpt>
      <trkpt lat="45.8309" lon="4.63092">
        <ele>357.44208</ele>
        <time>2023-09-30T09:19:19.000Z</time>
      </trkpt>
      <trkpt lat="45.83093" lon="4.63094">
        <ele>357.60144</ele>
        <time>2023-09-30T09:19:20.000Z</time>
      </trkpt>
      <trkpt lat="45.83095" lon="4.63098">
        <ele>357.55893</ele>
        <time>2023-09-30T09:19:21.000Z</time>
      </trkpt>
      <trkpt lat="45.83096" lon="4.63102">
        <ele>357.76373</ele>
        <time>2023-09-30T09:19:22.000Z</time>
      </trkpt>
      <trkpt lat="45.83095" lon="4.63106">
        <ele>357.99225</ele>
        <time>2023-09-30T09:19:23.000Z</time>
      </trkpt>
      <trkpt lat="45.83093" lon="4.63109">
        <ele>357.36285</ele>
        <time>2023-09-30T09:19:24.000Z</time>
      </trkpt>
      <trkpt lat="45.8309" lon="4.63113">
        <ele>356.79489</ele>
        <time>2023-09-30T09:19:25.000Z</time>
      </trkpt>
      <trkpt lat="45.83088" lon="4.63116">
        <ele>356.80426</ele>
        <time>2023-09-30T09:19:26.000Z</time>
      </trkpt>
      <trkpt lat="45.83086" lon="4.6312">
        <ele>356.77374</ele>
        <time>2023-09-30T09:19:27.000Z</time>
      </trkpt>
      <trkpt lat="45.83084" lon="4.63124">
        <ele>356.77045</ele>
        <time>2023-09-30T09:19:28.000Z</time>
      </trkpt>
      <trkpt lat="45.83081" lon="4.63128">
        <ele>356.77164</ele>
        <time>2023-09-30T09:19:29.000Z</time>
      </trkpt>
      <trkpt lat="45.83079" lon="4.63132">
        <ele>356.7435</ele>
        <time>2023-09-30T09:19:30.000Z</time>
      </trkpt>
      <trkpt lat="45.83077" lon="4.63135">
        <ele>356.72946</ele>
        <time>2023-09-30T09:19:31.000Z</time>
      </trkpt>
      <trkpt lat="45.83075" lon="4.63139">
        <ele>357.05133</ele>
        <time>2023-09-30T09:19:32.000Z</time>
      </trkpt>
      <trkpt lat="45.83074" lon="4.63143">
        <ele>357.39841</ele>
        <time>2023-09-30T09:19:33.000Z</time>
      </trkpt>
      <trkpt lat="45.83072" lon="4.63147">
        <ele>357.91241</ele>
        <time>2023-09-30T09:19:34.000Z</time>
      </trkpt>
      <trkpt lat="45.8307" lon="4.63151">
        <ele>358.448</ele>
        <time>2023-09-30T09:19:35.000Z</time>
      </trkpt>
      <trkpt lat="45.83068" lon="4.63155">
        <ele>357.52084</ele>
        <time>2023-09-30T09:19:36.000Z</time>
      </trkpt>
      <trkpt lat="45.83067" lon="4.63158">
        <ele>356.77655</ele>
        <time>2023-09-30T09:19:37.000Z</time>
      </trkpt>
      <trkpt lat="45.83065" lon="4.63161">
        <ele>356.02756</ele>
        <time>2023-09-30T09:19:38.000Z</time>
      </trkpt>
      <trkpt lat="45.83063" lon="4.63165">
        <ele>355.28473</ele>
        <time>2023-09-30T09:19:39.000Z</time>
      </trkpt>
      <trkpt lat="45.83061" lon="4.63168">
        <ele>354.16742</ele>
        <time>2023-09-30T09:19:40.000Z</time>
      </trkpt>
      <trkpt lat="45.83059" lon="4.63171">
        <ele>353.0672</ele>
        <time>2023-09-30T09:19:41.000Z</time>
      </trkpt>
      <trkpt lat="45.83057" lon="4.63174">
        <ele>351.90643</ele>
        <time>2023-09-30T09:19:42.000Z</time>
      </trkpt>
      <trkpt lat="45.83055" lon="4.63178">
        <ele>350.69171</ele>
        <time>2023-09-30T09:19:43.000Z</time>
      </trkpt>
      <trkpt lat="45.83053" lon="4.63181">
        <ele>350.03766</ele>
        <time>2023-09-30T09:19:44.000Z</time>
      </trkpt>
      <trkpt lat="45.83051" lon="4.63185">
        <ele>349.27744</ele>
        <time>2023-09-30T09:19:45.000Z</time>
      </trkpt>
      <trkpt lat="45.83049" lon="4.63188">
        <ele>348.51492</ele>
        <time>2023-09-30T09:19:46.000Z</time>
      </trkpt>
      <trkpt lat="45.83047" lon="4.63192">
        <ele>347.73584</ele>
        <time>2023-09-30T09:19:47.000Z</time>
      </trkpt>
      <trkpt lat="45.83045" lon="4.63195">
        <ele>346.94379</ele>
        <time>2023-09-30T09:19:48.000Z</time>
      </trkpt>
      <trkpt lat="45.83042" lon="4.63198">
        <ele>346.18976</ele>
        <time>2023-09-30T09:19:49.000Z</time>
      </trkpt>
      <trkpt lat="45.8304" lon="4.63201">
        <ele>345.35693</ele>
        <time>2023-09-30T09:19:50.000Z</time>
      </trkpt>
      <trkpt lat="45.83038" lon="4.63204">
        <ele>344.53973</ele>
        <time>2023-09-30T09:19:51.000Z</time>
      </trkpt>
      <trkpt lat="45.83036" lon="4.63208">
        <ele>343.38284</ele>
        <time>2023-09-30T09:19:52.000Z</time>
      </trkpt>
      <trkpt lat="45.83033" lon="4.63211">
        <ele>342.36008</ele>
        <time>2023-09-30T09:19:53.000Z</time>
      </trkpt>
      <trkpt lat="45.83031" lon="4.63213">
        <ele>341.24823</ele>
        <time>2023-09-30T09:19:54.000Z</time>
      </trkpt>
      <trkpt lat="45.83029" lon="4.63216">
        <ele>340.11481</ele>
        <time>2023-09-30T09:19:55.000Z</time>
      </trkpt>
      <trkpt lat="45.83027" lon="4.63219">
        <ele>340.38559</ele>
        <time>2023-09-30T09:19:56.000Z</time>
      </trkpt>
      <trkpt lat="45.83025" lon="4.63222">
        <ele>340.54193</ele>
        <time>2023-09-30T09:19:57.000Z</time>
      </trkpt>
      <trkpt lat="45.83023" lon="4.63225">
        <ele>340.66592</ele>
        <time>2023-09-30T09:19:58.000Z</time>
      </trkpt>
      <trkpt lat="45.8302" lon="4.63228">
        <ele>340.80261</ele>
        <time>2023-09-30T09:19:59.000Z</time>
      </trkpt>
      <trkpt lat="45.83018" lon="4.63231">
        <ele>340.93921</ele>
        <time>2023-09-30T09:20:00.000Z</time>
      </trkpt>
      <trkpt lat="45.83017" lon="4.63235">
        <ele>341.07916</ele>
        <time>2023-09-30T09:20:01.000Z</time>
      </trkpt>
      <trkpt lat="45.83015" lon="4.63238">
        <ele>341.22568</ele>
        <time>2023-09-30T09:20:02.000Z</time>
      </trkpt>
      <trkpt lat="45.83013" lon="4.63241">
        <ele>341.34744</ele>
        <time>2023-09-30T09:20:03.000Z</time>
      </trkpt>
      <trkpt lat="45.83011" lon="4.63243">
        <ele>341.35034</ele>
        <time>2023-09-30T09:20:04.000Z</time>
      </trkpt>
      <trkpt lat="45.83009" lon="4.63246">
        <ele>341.3566</ele>
        <time>2023-09-30T09:20:05.000Z</time>
      </trkpt>
      <trkpt lat="45.83007" lon="4.63248">
        <ele>341.52097</ele>
        <time>2023-09-30T09:20:06.000Z</time>
      </trkpt>
      <trkpt lat="45.83005" lon="4.6325">
        <ele>341.6528</ele>
        <time>2023-09-30T09:20:07.000Z</time>
      </trkpt>
      <trkpt lat="45.83002" lon="4.63253">
        <ele>341.82385</ele>
        <time>2023-09-30T09:20:08.000Z</time>
      </trkpt>
      <trkpt lat="45.83" lon="4.63255">
        <ele>341.98779</ele>
        <time>2023-09-30T09:20:09.000Z</time>
      </trkpt>
      <trkpt lat="45.82997" lon="4.63257">
        <ele>342.24652</ele>
        <time>2023-09-30T09:20:10.000Z</time>
      </trkpt>
      <trkpt lat="45.82994" lon="4.63259">
        <ele>342.50339</ele>
        <time>2023-09-30T09:20:11.000Z</time>
      </trkpt>
      <trkpt lat="45.82991" lon="4.6326">
        <ele>342.78772</ele>
        <time>2023-09-30T09:20:12.000Z</time>
      </trkpt>
      <trkpt lat="45.82988" lon="4.63262">
        <ele>342.93817</ele>
        <time>2023-09-30T09:20:13.000Z</time>
      </trkpt>
      <trkpt lat="45.82985" lon="4.63263">
        <ele>343.1091</ele>
        <time>2023-09-30T09:20:14.000Z</time>
      </trkpt>
      <trkpt lat="45.82982" lon="4.63265">
        <ele>343.1239</ele>
        <time>2023-09-30T09:20:15.000Z</time>
      </trkpt>
      <trkpt lat="45.82979" lon="4.63266">
        <ele>343.10794</ele>
        <time>2023-09-30T09:20:16.000Z</time>
      </trkpt>
      <trkpt lat="45.82975" lon="4.63268">
        <ele>343.0983</ele>
        <time>2023-09-30T09:20:17.000Z</time>
      </trkpt>
      <trkpt lat="45.82972" lon="4.63269">
        <ele>343.11264</ele>
        <time>2023-09-30T09:20:18.000Z</time>
      </trkpt>
      <trkpt lat="45.82969" lon="4.63271">
        <ele>344.60553</ele>
        <time>2023-09-30T09:20:19.000Z</time>
      </trkpt>
      <trkpt lat="45.82966" lon="4.63272">
        <ele>345.68805</ele>
        <time>2023-09-30T09:20:20.000Z</time>
      </trkpt>
      <trkpt lat="45.82963" lon="4.63274">
        <ele>345.8515</ele>
        <time>2023-09-30T09:20:21.000Z</time>
      </trkpt>
      <trkpt lat="45.8296" lon="4.63275">
        <ele>346.03806</ele>
        <time>2023-09-30T09:20:22.000Z</time>
      </trkpt>
      <trkpt lat="45.82956" lon="4.63277">
        <ele>346.26663</ele>
        <time>2023-09-30T09:20:23.000Z</time>
      </trkpt>
      <trkpt lat="45.82953" lon="4.63279">
        <ele>346.60526</ele>
        <time>2023-09-30T09:20:24.000Z</time>
      </trkpt>
      <trkpt lat="45.8295" lon="4.6328">
        <ele>346.93799</ele>
        <time>2023-09-30T09:20:25.000Z</time>
      </trkpt>
      <trkpt lat="45.82946" lon="4.63282">
        <ele>347.11609</ele>
        <time>2023-09-30T09:20:26.000Z</time>
      </trkpt>
      <trkpt lat="45.82943" lon="4.63283">
        <ele>347.33148</ele>
        <time>2023-09-30T09:20:27.000Z</time>
      </trkpt>
      <trkpt lat="45.8294" lon="4.63285">
        <ele>347.50043</ele>
        <time>2023-09-30T09:20:28.000Z</time>
      </trkpt>
      <trkpt lat="45.82936" lon="4.63286">
        <ele>347.6702</ele>
        <time>2023-09-30T09:20:29.000Z</time>
      </trkpt>
      <trkpt lat="45.82933" lon="4.63287">
        <ele>347.8139</ele>
        <time>2023-09-30T09:20:30.000Z</time>
      </trkpt>
      <trkpt lat="45.8293" lon="4.63288">
        <ele>347.94855</ele>
        <time>2023-09-30T09:20:31.000Z</time>
      </trkpt>
      <trkpt lat="45.82927" lon="4.63289">
        <ele>348.09573</ele>
        <time>2023-09-30T09:20:32.000Z</time>
      </trkpt>
      <trkpt lat="45.82925" lon="4.6329">
        <ele>348.23328</ele>
        <time>2023-09-30T09:20:33.000Z</time>
      </trkpt>
      <trkpt lat="45.82922" lon="4.63291">
        <ele>348.33734</ele>
        <time>2023-09-30T09:20:34.000Z</time>
      </trkpt>
      <trkpt lat="45.82919" lon="4.63292">
        <ele>348.57007</ele>
        <time>2023-09-30T09:20:35.000Z</time>
      </trkpt>
      <trkpt lat="45.82916" lon="4.63294">
        <ele>348.85446</ele>
        <time>2023-09-30T09:20:36.000Z</time>
      </trkpt>
      <trkpt lat="45.82913" lon="4.63295">
        <ele>349.15924</ele>
        <time>2023-09-30T09:20:37.000Z</time>
      </trkpt>
      <trkpt lat="45.8291" lon="4.63296">
        <ele>349.50128</ele>
        <time>2023-09-30T09:20:38.000Z</time>
      </trkpt>
      <trkpt lat="45.82907" lon="4.63297">
        <ele>348.36884</ele>
        <time>2023-09-30T09:20:39.000Z</time>
      </trkpt>
      <trkpt lat="45.82904" lon="4.63298">
        <ele>347.66522</ele>
        <time>2023-09-30T09:20:40.000Z</time>
      </trkpt>
      <trkpt lat="45.82901" lon="4.63299">
        <ele>347.92178</ele>
        <time>2023-09-30T09:20:41.000Z</time>
      </trkpt>
      <trkpt lat="45.82898" lon="4.633">
        <ele>348.16901</ele>
        <time>2023-09-30T09:20:42.000Z</time>
      </trkpt>
      <trkpt lat="45.82895" lon="4.63301">
        <ele>348.38062</ele>
        <time>2023-09-30T09:20:43.000Z</time>
      </trkpt>
      <trkpt lat="45.82892" lon="4.63302">
        <ele>348.61554</ele>
        <time>2023-09-30T09:20:44.000Z</time>
      </trkpt>
      <trkpt lat="45.82889" lon="4.63303">
        <ele>348.86798</ele>
        <time>2023-09-30T09:20:45.000Z</time>
      </trkpt>
      <trkpt lat="45.82886" lon="4.63304">
        <ele>349.11618</ele>
        <time>2023-09-30T09:20:46.000Z</time>
      </trkpt>
      <trkpt lat="45.82883" lon="4.63305">
        <ele>349.36676</ele>
        <time>2023-09-30T09:20:47.000Z</time>
      </trkpt>
      <trkpt lat="45.8288" lon="4.63305">
        <ele>349.60706</ele>
        <time>2023-09-30T09:20:48.000Z</time>
      </trkpt>
      <trkpt lat="45.82877" lon="4.63306">
        <ele>349.82913</ele>
        <time>2023-09-30T09:20:49.000Z</time>
      </trkpt>
      <trkpt lat="45.82874" lon="4.63307">
        <ele>350.07388</ele>
        <time>2023-09-30T09:20:50.000Z</time>
      </trkpt>
      <trkpt lat="45.82871" lon="4.63308">
        <ele>350.33768</ele>
        <time>2023-09-30T09:20:51.000Z</time>
      </trkpt>
      <trkpt lat="45.82868" lon="4.6331">
        <ele>350.57547</ele>
        <time>2023-09-30T09:20:52.000Z</time>
      </trkpt>
      <trkpt lat="45.82865" lon="4.6331">
        <ele>350.78519</ele>
        <time>2023-09-30T09:20:53.000Z</time>
      </trkpt>
      <trkpt lat="45.82862" lon="4.63311">
        <ele>351.02197</ele>
        <time>2023-09-30T09:20:54.000Z</time>
      </trkpt>
      <trkpt lat="45.82859" lon="4.63312">
        <ele>351.29962</ele>
        <time>2023-09-30T09:20:55.000Z</time>
      </trkpt>
      <trkpt lat="45.82856" lon="4.63313">
        <ele>351.54904</ele>
        <time>2023-09-30T09:20:56.000Z</time>
      </trkpt>
      <trkpt lat="45.82853" lon="4.63313">
        <ele>351.81073</ele>
        <time>2023-09-30T09:20:57.000Z</time>
      </trkpt>
      <trkpt lat="45.8285" lon="4.63313">
        <ele>352.02094</ele>
        <time>2023-09-30T09:20:58.000Z</time>
      </trkpt>
      <trkpt lat="45.82847" lon="4.63314">
        <ele>352.22449</ele>
        <time>2023-09-30T09:20:59.000Z</time>
      </trkpt>
      <trkpt lat="45.82844" lon="4.63314">
        <ele>352.85583</ele>
        <time>2023-09-30T09:21:00.000Z</time>
      </trkpt>
      <trkpt lat="45.82841" lon="4.63315">
        <ele>353.465</ele>
        <time>2023-09-30T09:21:01.000Z</time>
      </trkpt>
      <trkpt lat="45.82837" lon="4.63316">
        <ele>353.68716</ele>
        <time>2023-09-30T09:21:02.000Z</time>
      </trkpt>
      <trkpt lat="45.82834" lon="4.63317">
        <ele>353.87878</ele>
        <time>2023-09-30T09:21:03.000Z</time>
      </trkpt>
      <trkpt lat="45.82831" lon="4.63318">
        <ele>354.20917</ele>
        <time>2023-09-30T09:21:04.000Z</time>
      </trkpt>
      <trkpt lat="45.82828" lon="4.63319">
        <ele>354.50375</ele>
        <time>2023-09-30T09:21:05.000Z</time>
      </trkpt>
      <trkpt lat="45.82825" lon="4.63319">
        <ele>354.81165</ele>
        <time>2023-09-30T09:21:06.000Z</time>
      </trkpt>
      <trkpt lat="45.82822" lon="4.6332">
        <ele>355.09286</ele>
        <time>2023-09-30T09:21:07.000Z</time>
      </trkpt>
      <trkpt lat="45.82819" lon="4.6332">
        <ele>355.37192</ele>
        <time>2023-09-30T09:21:08.000Z</time>
      </trkpt>
      <trkpt lat="45.82815" lon="4.63321">
        <ele>355.68896</ele>
        <time>2023-09-30T09:21:09.000Z</time>
      </trkpt>
      <trkpt lat="45.82813" lon="4.63322">
        <ele>356.00064</ele>
        <time>2023-09-30T09:21:10.000Z</time>
      </trkpt>
      <trkpt lat="45.8281" lon="4.63323">
        <ele>356.18817</ele>
        <time>2023-09-30T09:21:11.000Z</time>
      </trkpt>
      <trkpt lat="45.82806" lon="4.63324">
        <ele>356.11664</ele>
        <time>2023-09-30T09:21:12.000Z</time>
      </trkpt>
      <trkpt lat="45.82803" lon="4.63325">
        <ele>356.07114</ele>
        <time>2023-09-30T09:21:13.000Z</time>
      </trkpt>
      <trkpt lat="45.828" lon="4.63327">
        <ele>356.0004</ele>
        <time>2023-09-30T09:21:14.000Z</time>
      </trkpt>
      <trkpt lat="45.82796" lon="4.63329">
        <ele>355.92639</ele>
        <time>2023-09-30T09:21:15.000Z</time>
      </trkpt>
      <trkpt lat="45.82793" lon="4.63331">
        <ele>355.85236</ele>
        <time>2023-09-30T09:21:16.000Z</time>
      </trkpt>
      <trkpt lat="45.8279" lon="4.63333">
        <ele>356.0918</ele>
        <time>2023-09-30T09:21:17.000Z</time>
      </trkpt>
      <trkpt lat="45.82786" lon="4.63335">
        <ele>356.2984</ele>
        <time>2023-09-30T09:21:18.000Z</time>
      </trkpt>
      <trkpt lat="45.82783" lon="4.63337">
        <ele>356.49289</ele>
        <time>2023-09-30T09:21:19.000Z</time>
      </trkpt>
      <trkpt lat="45.8278" lon="4.63339">
        <ele>356.2612</ele>
        <time>2023-09-30T09:21:20.000Z</time>
      </trkpt>
      <trkpt lat="45.82777" lon="4.63341">
        <ele>356.00128</ele>
        <time>2023-09-30T09:21:21.000Z</time>
      </trkpt>
      <trkpt lat="45.82773" lon="4.63344">
        <ele>356.10803</ele>
        <time>2023-09-30T09:21:22.000Z</time>
      </trkpt>
      <trkpt lat="45.8277" lon="4.63346">
        <ele>356.25342</ele>
        <time>2023-09-30T09:21:23.000Z</time>
      </trkpt>
      <trkpt lat="45.82766" lon="4.63349">
        <ele>356.41647</ele>
        <time>2023-09-30T09:21:24.000Z</time>
      </trkpt>
      <trkpt lat="45.82763" lon="4.63351">
        <ele>356.61737</ele>
        <time>2023-09-30T09:21:25.000Z</time>
      </trkpt>
      <trkpt lat="45.8276" lon="4.63354">
        <ele>356.82254</ele>
        <time>2023-09-30T09:21:26.000Z</time>
      </trkpt>
      <trkpt lat="45.82757" lon="4.63357">
        <ele>357.03958</ele>
        <time>2023-09-30T09:21:27.000Z</time>
      </trkpt>
      <trkpt lat="45.82755" lon="4.6336">
        <ele>357.26468</ele>
        <time>2023-09-30T09:21:28.000Z</time>
      </trkpt>
      <trkpt lat="45.82752" lon="4.63362">
        <ele>357.42963</ele>
        <time>2023-09-30T09:21:29.000Z</time>
      </trkpt>
      <trkpt lat="45.82749" lon="4.63364">
        <ele>357.55219</ele>
        <time>2023-09-30T09:21:30.000Z</time>
      </trkpt>
      <trkpt lat="45.82745" lon="4.63367">
        <ele>357.7757</ele>
        <time>2023-09-30T09:21:31.000Z</time>
      </trkpt>
      <trkpt lat="45.82742" lon="4.63369">
        <ele>358.26007</ele>
        <time>2023-09-30T09:21:32.000Z</time>
      </trkpt>
      <trkpt lat="45.82739" lon="4.63371">
        <ele>358.75214</ele>
        <time>2023-09-30T09:21:33.000Z</time>
      </trkpt>
      <trkpt lat="45.82735" lon="4.63374">
        <ele>359.12167</ele>
        <time>2023-09-30T09:21:34.000Z</time>
      </trkpt>
      <trkpt lat="45.82731" lon="4.63376">
        <ele>359.44525</ele>
        <time>2023-09-30T09:21:35.000Z</time>
      </trkpt>
      <trkpt lat="45.82728" lon="4.63377">
        <ele>359.62323</ele>
        <time>2023-09-30T09:21:36.000Z</time>
      </trkpt>
      <trkpt lat="45.82725" lon="4.63379">
        <ele>359.57397</ele>
        <time>2023-09-30T09:21:37.000Z</time>
      </trkpt>
      <trkpt lat="45.82722" lon="4.63382">
        <ele>359.60413</ele>
        <time>2023-09-30T09:21:38.000Z</time>
      </trkpt>
      <trkpt lat="45.82718" lon="4.63385">
        <ele>359.64871</ele>
        <time>2023-09-30T09:21:39.000Z</time>
      </trkpt>
      <trkpt lat="45.82715" lon="4.63388">
        <ele>359.70908</ele>
        <time>2023-09-30T09:21:40.000Z</time>
      </trkpt>
      <trkpt lat="45.82712" lon="4.63391">
        <ele>359.79788</ele>
        <time>2023-09-30T09:21:41.000Z</time>
      </trkpt>
      <trkpt lat="45.82709" lon="4.63393">
        <ele>360.10477</ele>
        <time>2023-09-30T09:21:42.000Z</time>
      </trkpt>
      <trkpt lat="45.82706" lon="4.63396">
        <ele>360.41513</ele>
        <time>2023-09-30T09:21:43.000Z</time>
      </trkpt>
      <trkpt lat="45.82704" lon="4.63399">
        <ele>360.51862</ele>
        <time>2023-09-30T09:21:44.000Z</time>
      </trkpt>
      <trkpt lat="45.82701" lon="4.634">
        <ele>360.11758</ele>
        <time>2023-09-30T09:21:45.000Z</time>
      </trkpt>
      <trkpt lat="45.82698" lon="4.63402">
        <ele>359.68735</ele>
        <time>2023-09-30T09:21:46.000Z</time>
      </trkpt>
      <trkpt lat="45.82696" lon="4.63405">
        <ele>359.30414</ele>
        <time>2023-09-30T09:21:47.000Z</time>
      </trkpt>
      <trkpt lat="45.82693" lon="4.63408">
        <ele>358.92535</ele>
        <time>2023-09-30T09:21:48.000Z</time>
      </trkpt>
      <trkpt lat="45.82691" lon="4.63411">
        <ele>359.73981</ele>
        <time>2023-09-30T09:21:49.000Z</time>
      </trkpt>
      <trkpt lat="45.82689" lon="4.63415">
        <ele>360.57819</ele>
        <time>2023-09-30T09:21:50.000Z</time>
      </trkpt>
      <trkpt lat="45.82687" lon="4.6342">
        <ele>361.41388</ele>
        <time>2023-09-30T09:21:51.000Z</time>
      </trkpt>
      <trkpt lat="45.82686" lon="4.63425">
        <ele>362.25543</ele>
        <time>2023-09-30T09:21:52.000Z</time>
      </trkpt>
      <trkpt lat="45.82685" lon="4.63429">
        <ele>363.09332</ele>
        <time>2023-09-30T09:21:53.000Z</time>
      </trkpt>
      <trkpt lat="45.82683" lon="4.63433">
        <ele>364.1102</ele>
        <time>2023-09-30T09:21:54.000Z</time>
      </trkpt>
      <trkpt lat="45.82682" lon="4.63437">
        <ele>365.28644</ele>
        <time>2023-09-30T09:21:55.000Z</time>
      </trkpt>
      <trkpt lat="45.8268" lon="4.63441">
        <ele>366.61554</ele>
        <time>2023-09-30T09:21:56.000Z</time>
      </trkpt>
      <trkpt lat="45.82679" lon="4.63445">
        <ele>367.82468</ele>
        <time>2023-09-30T09:21:57.000Z</time>
      </trkpt>
      <trkpt lat="45.82678" lon="4.63449">
        <ele>368.99298</ele>
        <time>2023-09-30T09:21:58.000Z</time>
      </trkpt>
      <trkpt lat="45.82676" lon="4.63453">
        <ele>370.17633</ele>
        <time>2023-09-30T09:21:59.000Z</time>
      </trkpt>
      <trkpt lat="45.82676" lon="4.63458">
        <ele>371.35208</ele>
        <time>2023-09-30T09:22:00.000Z</time>
      </trkpt>
      <trkpt lat="45.82675" lon="4.63462">
        <ele>372.33759</ele>
        <time>2023-09-30T09:22:01.000Z</time>
      </trkpt>
      <trkpt lat="45.82674" lon="4.63466">
        <ele>373.13483</ele>
        <time>2023-09-30T09:22:02.000Z</time>
      </trkpt>
      <trkpt lat="45.82673" lon="4.6347">
        <ele>373.92999</ele>
        <time>2023-09-30T09:22:03.000Z</time>
      </trkpt>
      <trkpt lat="45.82672" lon="4.63474">
        <ele>374.74326</ele>
        <time>2023-09-30T09:22:04.000Z</time>
      </trkpt>
      <trkpt lat="45.82672" lon="4.63479">
        <ele>376.09598</ele>
        <time>2023-09-30T09:22:05.000Z</time>
      </trkpt>
      <trkpt lat="45.82672" lon="4.63483">
        <ele>377.46191</ele>
        <time>2023-09-30T09:22:06.000Z</time>
      </trkpt>
      <trkpt lat="45.82671" lon="4.63486">
        <ele>378.7854</ele>
        <time>2023-09-30T09:22:07.000Z</time>
      </trkpt>
      <trkpt lat="45.8267" lon="4.6349">
        <ele>380.13287</ele>
        <time>2023-09-30T09:22:08.000Z</time>
      </trkpt>
      <trkpt lat="45.8267" lon="4.63494">
        <ele>380.30923</ele>
        <time>2023-09-30T09:22:09.000Z</time>
      </trkpt>
      <trkpt lat="45.8267" lon="4.63497">
        <ele>380.48703</ele>
        <time>2023-09-30T09:22:10.000Z</time>
      </trkpt>
      <trkpt lat="45.82669" lon="4.63501">
        <ele>380.68451</ele>
        <time>2023-09-30T09:22:11.000Z</time>
      </trkpt>
      <trkpt lat="45.82669" lon="4.63505">
        <ele>379.45477</ele>
        <time>2023-09-30T09:22:12.000Z</time>
      </trkpt>
      <trkpt lat="45.82669" lon="4.63509">
        <ele>378.46371</ele>
        <time>2023-09-30T09:22:13.000Z</time>
      </trkpt>
      <trkpt lat="45.82669" lon="4.63513">
        <ele>377.43076</ele>
        <time>2023-09-30T09:22:14.000Z</time>
      </trkpt>
      <trkpt lat="45.82669" lon="4.63517">
        <ele>376.26755</ele>
        <time>2023-09-30T09:22:15.000Z</time>
      </trkpt>
      <trkpt lat="45.82669" lon="4.63521">
        <ele>375.15179</ele>
        <time>2023-09-30T09:22:16.000Z</time>
      </trkpt>
      <trkpt lat="45.82668" lon="4.63525">
        <ele>374.03052</ele>
        <time>2023-09-30T09:22:17.000Z</time>
      </trkpt>
      <trkpt lat="45.82668" lon="4.63528">
        <ele>372.92123</ele>
        <time>2023-09-30T09:22:18.000Z</time>
      </trkpt>
      <trkpt lat="45.82667" lon="4.63532">
        <ele>371.7692</ele>
        <time>2023-09-30T09:22:19.000Z</time>
      </trkpt>
      <trkpt lat="45.82667" lon="4.63537">
        <ele>370.56696</ele>
        <time>2023-09-30T09:22:20.000Z</time>
      </trkpt>
      <trkpt lat="45.82667" lon="4.63541">
        <ele>369.54428</ele>
        <time>2023-09-30T09:22:21.000Z</time>
      </trkpt>
      <trkpt lat="45.82668" lon="4.63545">
        <ele>368.5275</ele>
        <time>2023-09-30T09:22:22.000Z</time>
      </trkpt>
      <trkpt lat="45.82669" lon="4.63549">
        <ele>367.51678</ele>
        <time>2023-09-30T09:22:23.000Z</time>
      </trkpt>
      <trkpt lat="45.8267" lon="4.63552">
        <ele>366.50012</ele>
        <time>2023-09-30T09:22:24.000Z</time>
      </trkpt>
      <trkpt lat="45.82672" lon="4.63556">
        <ele>365.4267</ele>
        <time>2023-09-30T09:22:25.000Z</time>
      </trkpt>
      <trkpt lat="45.82673" lon="4.63559">
        <ele>365.59454</ele>
        <time>2023-09-30T09:22:26.000Z</time>
      </trkpt>
      <trkpt lat="45.82675" lon="4.63562">
        <ele>364.1391</ele>
        <time>2023-09-30T09:22:27.000Z</time>
      </trkpt>
      <trkpt lat="45.82676" lon="4.63567">
        <ele>362.62927</ele>
        <time>2023-09-30T09:22:28.000Z</time>
      </trkpt>
      <trkpt lat="45.82676" lon="4.63571">
        <ele>361.05304</ele>
        <time>2023-09-30T09:22:29.000Z</time>
      </trkpt>
      <trkpt lat="45.82677" lon="4.63576">
        <ele>359.36069</ele>
        <time>2023-09-30T09:22:30.000Z</time>
      </trkpt>
      <trkpt lat="45.82678" lon="4.63581">
        <ele>357.66248</ele>
        <time>2023-09-30T09:22:31.000Z</time>
      </trkpt>
      <trkpt lat="45.82678" lon="4.63585">
        <ele>357.31573</ele>
        <time>2023-09-30T09:22:32.000Z</time>
      </trkpt>
      <trkpt lat="45.82677" lon="4.6359">
        <ele>358.70074</ele>
        <time>2023-09-30T09:22:33.000Z</time>
      </trkpt>
      <trkpt lat="45.82677" lon="4.63595">
        <ele>360.0639</ele>
        <time>2023-09-30T09:22:34.000Z</time>
      </trkpt>
      <trkpt lat="45.82677" lon="4.636">
        <ele>361.45398</ele>
        <time>2023-09-30T09:22:35.000Z</time>
      </trkpt>
      <trkpt lat="45.82676" lon="4.63605">
        <ele>362.60843</ele>
        <time>2023-09-30T09:22:36.000Z</time>
      </trkpt>
      <trkpt lat="45.82676" lon="4.6361">
        <ele>363.83051</ele>
        <time>2023-09-30T09:22:37.000Z</time>
      </trkpt>
      <trkpt lat="45.82675" lon="4.63615">
        <ele>365.06583</ele>
        <time>2023-09-30T09:22:38.000Z</time>
      </trkpt>
      <trkpt lat="45.82675" lon="4.6362">
        <ele>366.31232</ele>
        <time>2023-09-30T09:22:39.000Z</time>
      </trkpt>
      <trkpt lat="45.82675" lon="4.63626">
        <ele>367.56854</ele>
        <time>2023-09-30T09:22:40.000Z</time>
      </trkpt>
      <trkpt lat="45.82675" lon="4.63632">
        <ele>368.80206</ele>
        <time>2023-09-30T09:22:41.000Z</time>
      </trkpt>
      <trkpt lat="45.82674" lon="4.63638">
        <ele>369.99899</ele>
        <time>2023-09-30T09:22:42.000Z</time>
      </trkpt>
      <trkpt lat="45.82673" lon="4.63644">
        <ele>371.164</ele>
        <time>2023-09-30T09:22:43.000Z</time>
      </trkpt>
      <trkpt lat="45.82673" lon="4.63651">
        <ele>372.31113</ele>
        <time>2023-09-30T09:22:44.000Z</time>
      </trkpt>
      <trkpt lat="45.82673" lon="4.63659">
        <ele>373.4425</ele>
        <time>2023-09-30T09:22:45.000Z</time>
      </trkpt>
      <trkpt lat="45.82672" lon="4.63666">
        <ele>373.29736</ele>
        <time>2023-09-30T09:22:46.000Z</time>
      </trkpt>
      <trkpt lat="45.82672" lon="4.63675">
        <ele>374.86627</ele>
        <time>2023-09-30T09:22:47.000Z</time>
      </trkpt>
      <trkpt lat="45.82672" lon="4.63685">
        <ele>376.43262</ele>
        <time>2023-09-30T09:22:48.000Z</time>
      </trkpt>
      <trkpt lat="45.82671" lon="4.63694">
        <ele>378.06778</ele>
        <time>2023-09-30T09:22:49.000Z</time>
      </trkpt>
      <trkpt lat="45.82671" lon="4.63705">
        <ele>379.84854</ele>
        <time>2023-09-30T09:22:50.000Z</time>
      </trkpt>
      <trkpt lat="45.82669" lon="4.63716">
        <ele>381.35147</ele>
        <time>2023-09-30T09:22:51.000Z</time>
      </trkpt>
      <trkpt lat="45.82668" lon="4.63728">
        <ele>382.96823</ele>
        <time>2023-09-30T09:22:52.000Z</time>
      </trkpt>
      <trkpt lat="45.82666" lon="4.63737">
        <ele>382.59369</ele>
        <time>2023-09-30T09:22:53.000Z</time>
      </trkpt>
      <trkpt lat="45.82664" lon="4.63746">
        <ele>382.23505</ele>
        <time>2023-09-30T09:22:54.000Z</time>
      </trkpt>
      <trkpt lat="45.82663" lon="4.63754">
        <ele>381.87054</ele>
        <time>2023-09-30T09:22:55.000Z</time>
      </trkpt>
      <trkpt lat="45.82662" lon="4.63759">
        <ele>381.69025</ele>
        <time>2023-09-30T09:22:56.000Z</time>
      </trkpt>
      <trkpt lat="45.82661" lon="4.63764">
        <ele>381.3999</ele>
        <time>2023-09-30T09:22:57.000Z</time>
      </trkpt>
      <trkpt lat="45.8266" lon="4.63769">
        <ele>381.08307</ele>
        <time>2023-09-30T09:22:58.000Z</time>
      </trkpt>
      <trkpt lat="45.82659" lon="4.63772">
        <ele>380.71036</ele>
        <time>2023-09-30T09:22:59.000Z</time>
      </trkpt>
      <trkpt lat="45.82657" lon="4.63778">
        <ele>380.33633</ele>
        <time>2023-09-30T09:23:00.000Z</time>
      </trkpt>
      <trkpt lat="45.82655" lon="4.63784">
        <ele>379.94339</ele>
        <time>2023-09-30T09:23:01.000Z</time>
      </trkpt>
      <trkpt lat="45.82654" lon="4.6379">
        <ele>379.54767</ele>
        <time>2023-09-30T09:23:02.000Z</time>
      </trkpt>
      <trkpt lat="45.82651" lon="4.63796">
        <ele>379.17163</ele>
        <time>2023-09-30T09:23:03.000Z</time>
      </trkpt>
      <trkpt lat="45.82648" lon="4.63802">
        <ele>378.78961</ele>
        <time>2023-09-30T09:23:04.000Z</time>
      </trkpt>
      <trkpt lat="45.82646" lon="4.63808">
        <ele>378.43024</ele>
        <time>2023-09-30T09:23:05.000Z</time>
      </trkpt>
      <trkpt lat="45.82643" lon="4.63814">
        <ele>378.09677</ele>
        <time>2023-09-30T09:23:06.000Z</time>
      </trkpt>
      <trkpt lat="45.82642" lon="4.63819">
        <ele>377.7876</ele>
        <time>2023-09-30T09:23:07.000Z</time>
      </trkpt>
      <trkpt lat="45.82641" lon="4.63825">
        <ele>377.50934</ele>
        <time>2023-09-30T09:23:08.000Z</time>
      </trkpt>
      <trkpt lat="45.8264" lon="4.63831">
        <ele>377.26062</ele>
        <time>2023-09-30T09:23:09.000Z</time>
      </trkpt>
      <trkpt lat="45.82639" lon="4.63838">
        <ele>376.9675</ele>
        <time>2023-09-30T09:23:10.000Z</time>
      </trkpt>
      <trkpt lat="45.82636" lon="4.63844">
        <ele>376.91858</ele>
        <time>2023-09-30T09:23:11.000Z</time>
      </trkpt>
      <trkpt lat="45.82633" lon="4.63848">
        <ele>376.83627</ele>
        <time>2023-09-30T09:23:12.000Z</time>
      </trkpt>
      <trkpt lat="45.82629" lon="4.63854">
        <ele>376.75311</ele>
        <time>2023-09-30T09:23:13.000Z</time>
      </trkpt>
      <trkpt lat="45.82624" lon="4.63859">
        <ele>375.1153</ele>
        <time>2023-09-30T09:23:14.000Z</time>
      </trkpt>
      <trkpt lat="45.82619" lon="4.63863">
        <ele>373.43484</ele>
        <time>2023-09-30T09:23:15.000Z</time>
      </trkpt>
      <trkpt lat="45.82614" lon="4.63867">
        <ele>373.16852</ele>
        <time>2023-09-30T09:23:16.000Z</time>
      </trkpt>
      <trkpt lat="45.82609" lon="4.6387">
        <ele>374.05563</ele>
        <time>2023-09-30T09:23:17.000Z</time>
      </trkpt>
      <trkpt lat="45.82604" lon="4.63872">
        <ele>375.16302</ele>
        <time>2023-09-30T09:23:18.000Z</time>
      </trkpt>
      <trkpt lat="45.82599" lon="4.63874">
        <ele>376.33807</ele>
        <time>2023-09-30T09:23:19.000Z</time>
      </trkpt>
      <trkpt lat="45.82595" lon="4.63875">
        <ele>377.52753</ele>
        <time>2023-09-30T09:23:20.000Z</time>
      </trkpt>
      <trkpt lat="45.82591" lon="4.63877">
        <ele>378.72583</ele>
        <time>2023-09-30T09:23:21.000Z</time>
      </trkpt>
      <trkpt lat="45.82589" lon="4.63877">
        <ele>378.552</ele>
        <time>2023-09-30T09:23:22.000Z</time>
      </trkpt>
      <trkpt lat="45.82587" lon="4.63879">
        <ele>378.39093</ele>
        <time>2023-09-30T09:23:23.000Z</time>
      </trkpt>
      <trkpt lat="45.82585" lon="4.63882">
        <ele>378.22028</ele>
        <time>2023-09-30T09:23:24.000Z</time>
      </trkpt>
      <trkpt lat="45.82583" lon="4.63885">
        <ele>378.06732</ele>
        <time>2023-09-30T09:23:25.000Z</time>
      </trkpt>
      <trkpt lat="45.82581" lon="4.63887">
        <ele>378.19562</ele>
        <time>2023-09-30T09:23:26.000Z</time>
      </trkpt>
      <trkpt lat="45.82578" lon="4.63889">
        <ele>379.33163</ele>
        <time>2023-09-30T09:23:27.000Z</time>
      </trkpt>
      <trkpt lat="45.82576" lon="4.63893">
        <ele>380.43866</ele>
        <time>2023-09-30T09:23:28.000Z</time>
      </trkpt>
      <trkpt lat="45.82574" lon="4.63896">
        <ele>381.595</ele>
        <time>2023-09-30T09:23:29.000Z</time>
      </trkpt>
      <trkpt lat="45.82571" lon="4.63899">
        <ele>381.81171</ele>
        <time>2023-09-30T09:23:30.000Z</time>
      </trkpt>
      <trkpt lat="45.82569" lon="4.63902">
        <ele>382.05392</ele>
        <time>2023-09-30T09:23:31.000Z</time>
      </trkpt>
      <trkpt lat="45.82567" lon="4.63905">
        <ele>382.3107</ele>
        <time>2023-09-30T09:23:32.000Z</time>
      </trkpt>
      <trkpt lat="45.82564" lon="4.63908">
        <ele>383.18298</ele>
        <time>2023-09-30T09:23:33.000Z</time>
      </trkpt>
      <trkpt lat="45.82562" lon="4.63912">
        <ele>385.89178</ele>
        <time>2023-09-30T09:23:34.000Z</time>
      </trkpt>
      <trkpt lat="45.82559" lon="4.63916">
        <ele>387.91925</ele>
        <time>2023-09-30T09:23:35.000Z</time>
      </trkpt>
      <trkpt lat="45.82556" lon="4.63919">
        <ele>388.64349</ele>
        <time>2023-09-30T09:23:36.000Z</time>
      </trkpt>
      <trkpt lat="45.82552" lon="4.63922">
        <ele>388.30585</ele>
        <time>2023-09-30T09:23:37.000Z</time>
      </trkpt>
      <trkpt lat="45.82549" lon="4.63925">
        <ele>387.73688</ele>
        <time>2023-09-30T09:23:38.000Z</time>
      </trkpt>
      <trkpt lat="45.82545" lon="4.63929">
        <ele>387.1326</ele>
        <time>2023-09-30T09:23:39.000Z</time>
      </trkpt>
      <trkpt lat="45.82542" lon="4.63932">
        <ele>384.35837</ele>
        <time>2023-09-30T09:23:40.000Z</time>
      </trkpt>
      <trkpt lat="45.82539" lon="4.63935">
        <ele>383.58572</ele>
        <time>2023-09-30T09:23:41.000Z</time>
      </trkpt>
      <trkpt lat="45.82536" lon="4.63938">
        <ele>384.15494</ele>
        <time>2023-09-30T09:23:42.000Z</time>
      </trkpt>
      <trkpt lat="45.82533" lon="4.6394">
        <ele>384.75275</ele>
        <time>2023-09-30T09:23:43.000Z</time>
      </trkpt>
      <trkpt lat="45.82531" lon="4.63943">
        <ele>385.41046</ele>
        <time>2023-09-30T09:23:44.000Z</time>
      </trkpt>
      <trkpt lat="45.82529" lon="4.63945">
        <ele>386.08826</ele>
        <time>2023-09-30T09:23:45.000Z</time>
      </trkpt>
      <trkpt lat="45.82527" lon="4.63948">
        <ele>384.44431</ele>
        <time>2023-09-30T09:23:47.000Z</time>
      </trkpt>
      <trkpt lat="45.82525" lon="4.63949">
        <ele>383.68539</ele>
        <time>2023-09-30T09:23:50.000Z</time>
      </trkpt>
      <trkpt lat="45.82524" lon="4.63951">
        <ele>380.8815</ele>
        <time>2023-09-30T09:24:09.000Z</time>
      </trkpt>
      <trkpt lat="45.82523" lon="4.63952">
        <ele>379.89377</ele>
        <time>2023-09-30T09:24:11.000Z</time>
      </trkpt>
      <trkpt lat="45.82522" lon="4.63955">
        <ele>378.01791</ele>
        <time>2023-09-30T09:24:19.000Z</time>
      </trkpt>
      <trkpt lat="45.82521" lon="4.63958">
        <ele>375.73669</ele>
        <time>2023-09-30T09:24:25.000Z</time>
      </trkpt>
      <trkpt lat="45.82519" lon="4.6396">
        <ele>373.60242</ele>
        <time>2023-09-30T09:24:45.000Z</time>
      </trkpt>
      <trkpt lat="45.82518" lon="4.63962">
        <ele>372.56842</ele>
        <time>2023-09-30T09:24:46.000Z</time>
      </trkpt>
      <trkpt lat="45.82515" lon="4.63964">
        <ele>371.20135</ele>
        <time>2023-09-30T09:24:48.000Z</time>
      </trkpt>
      <trkpt lat="45.82513" lon="4.63966">
        <ele>369.00909</ele>
        <time>2023-09-30T09:24:49.000Z</time>
      </trkpt>
      <trkpt lat="45.82511" lon="4.63968">
        <ele>366.70255</ele>
        <time>2023-09-30T09:24:50.000Z</time>
      </trkpt>
      <trkpt lat="45.8251" lon="4.63969">
        <ele>364.34079</ele>
        <time>2023-09-30T09:24:51.000Z</time>
      </trkpt>
      <trkpt lat="45.82508" lon="4.63971">
        <ele>361.97504</ele>
        <time>2023-09-30T09:24:52.000Z</time>
      </trkpt>
      <trkpt lat="45.82507" lon="4.63973">
        <ele>359.64105</ele>
        <time>2023-09-30T09:24:53.000Z</time>
      </trkpt>
      <trkpt lat="45.82504" lon="4.63976">
        <ele>359.4585</ele>
        <time>2023-09-30T09:24:55.000Z</time>
      </trkpt>
      <trkpt lat="45.82501" lon="4.63978">
        <ele>357.00339</ele>
        <time>2023-09-30T09:24:57.000Z</time>
      </trkpt>
      <trkpt lat="45.82499" lon="4.6398">
        <ele>354.58408</ele>
        <time>2023-09-30T09:24:58.000Z</time>
      </trkpt>
      <trkpt lat="45.82498" lon="4.63982">
        <ele>352.04944</ele>
        <time>2023-09-30T09:24:59.000Z</time>
      </trkpt>
      <trkpt lat="45.82495" lon="4.63985">
        <ele>349.78818</ele>
        <time>2023-09-30T09:25:01.000Z</time>
      </trkpt>
      <trkpt lat="45.82493" lon="4.63986">
        <ele>347.43277</ele>
        <time>2023-09-30T09:25:02.000Z</time>
      </trkpt>
      <trkpt lat="45.8249" lon="4.63988">
        <ele>347.11002</ele>
        <time>2023-09-30T09:25:03.000Z</time>
      </trkpt>
      <trkpt lat="45.82488" lon="4.6399">
        <ele>344.81229</ele>
        <time>2023-09-30T09:25:04.000Z</time>
      </trkpt>
      <trkpt lat="45.82486" lon="4.63992">
        <ele>344.55374</ele>
        <time>2023-09-30T09:25:05.000Z</time>
      </trkpt>
      <trkpt lat="45.82484" lon="4.63994">
        <ele>342.35712</ele>
        <time>2023-09-30T09:25:06.000Z</time>
      </trkpt>
      <trkpt lat="45.82482" lon="4.63997">
        <ele>341.99542</ele>
        <time>2023-09-30T09:25:07.000Z</time>
      </trkpt>
      <trkpt lat="45.82479" lon="4.63999">
        <ele>342.00003</ele>
        <time>2023-09-30T09:25:08.000Z</time>
      </trkpt>
      <trkpt lat="45.82477" lon="4.64002">
        <ele>341.8027</ele>
        <time>2023-09-30T09:25:09.000Z</time>
      </trkpt>
      <trkpt lat="45.82474" lon="4.64004">
        <ele>339.89053</ele>
        <time>2023-09-30T09:25:10.000Z</time>
      </trkpt>
      <trkpt lat="45.82472" lon="4.64007">
        <ele>337.9826</ele>
        <time>2023-09-30T09:25:11.000Z</time>
      </trkpt>
      <trkpt lat="45.82467" lon="4.64012">
        <ele>337.56708</ele>
        <time>2023-09-30T09:25:12.000Z</time>
      </trkpt>
      <trkpt lat="45.82463" lon="4.64017">
        <ele>337.35602</ele>
        <time>2023-09-30T09:25:13.000Z</time>
      </trkpt>
      <trkpt lat="45.82458" lon="4.64022">
        <ele>337.15338</ele>
        <time>2023-09-30T09:25:14.000Z</time>
      </trkpt>
      <trkpt lat="45.82453" lon="4.64029">
        <ele>336.96149</ele>
        <time>2023-09-30T09:25:15.000Z</time>
      </trkpt>
      <trkpt lat="45.8245" lon="4.64036">
        <ele>336.75671</ele>
        <time>2023-09-30T09:25:16.000Z</time>
      </trkpt>
      <trkpt lat="45.82448" lon="4.64044">
        <ele>336.54327</ele>
        <time>2023-09-30T09:25:17.000Z</time>
      </trkpt>
      <trkpt lat="45.82446" lon="4.64051">
        <ele>339.0542</ele>
        <time>2023-09-30T09:25:18.000Z</time>
      </trkpt>
      <trkpt lat="45.82444" lon="4.64058">
        <ele>339.24689</ele>
        <time>2023-09-30T09:25:19.000Z</time>
      </trkpt>
      <trkpt lat="45.82442" lon="4.64063">
        <ele>339.53616</ele>
        <time>2023-09-30T09:25:20.000Z</time>
      </trkpt>
      <trkpt lat="45.82441" lon="4.64065">
        <ele>339.53656</ele>
        <time>2023-09-30T09:25:21.000Z</time>
      </trkpt>
      <trkpt lat="45.82441" lon="4.64068">
        <ele>339.5983</ele>
        <time>2023-09-30T09:25:22.000Z</time>
      </trkpt>
      <trkpt lat="45.82439" lon="4.64071">
        <ele>339.68195</ele>
        <time>2023-09-30T09:25:23.000Z</time>
      </trkpt>
      <trkpt lat="45.82438" lon="4.64075">
        <ele>342.90192</ele>
        <time>2023-09-30T09:25:24.000Z</time>
      </trkpt>
      <trkpt lat="45.82437" lon="4.64079">
        <ele>343.15167</ele>
        <time>2023-09-30T09:25:25.000Z</time>
      </trkpt>
      <trkpt lat="45.82438" lon="4.64083">
        <ele>343.46185</ele>
        <time>2023-09-30T09:25:26.000Z</time>
      </trkpt>
      <trkpt lat="45.82437" lon="4.64087">
        <ele>343.79272</ele>
        <time>2023-09-30T09:25:27.000Z</time>
      </trkpt>
      <trkpt lat="45.82436" lon="4.64093">
        <ele>344.1684</ele>
        <time>2023-09-30T09:25:28.000Z</time>
      </trkpt>
      <trkpt lat="45.82435" lon="4.64098">
        <ele>344.60574</ele>
        <time>2023-09-30T09:25:29.000Z</time>
      </trkpt>
      <trkpt lat="45.82434" lon="4.64102">
        <ele>347.93573</ele>
        <time>2023-09-30T09:25:30.000Z</time>
      </trkpt>
      <trkpt lat="45.82433" lon="4.64107">
        <ele>348.612</ele>
        <time>2023-09-30T09:25:31.000Z</time>
      </trkpt>
      <trkpt lat="45.82432" lon="4.64111">
        <ele>349.35577</ele>
        <time>2023-09-30T09:25:32.000Z</time>
      </trkpt>
      <trkpt lat="45.82431" lon="4.64115">
        <ele>349.94525</ele>
        <time>2023-09-30T09:25:33.000Z</time>
      </trkpt>
      <trkpt lat="45.82429" lon="4.64119">
        <ele>350.57471</ele>
        <time>2023-09-30T09:25:34.000Z</time>
      </trkpt>
      <trkpt lat="45.82428" lon="4.64122">
        <ele>351.24579</ele>
        <time>2023-09-30T09:25:35.000Z</time>
      </trkpt>
      <trkpt lat="45.82426" lon="4.64124">
        <ele>353.58875</ele>
        <time>2023-09-30T09:25:36.000Z</time>
      </trkpt>
      <trkpt lat="45.82425" lon="4.64127">
        <ele>354.43036</ele>
        <time>2023-09-30T09:25:38.000Z</time>
      </trkpt>
      <trkpt lat="45.82426" lon="4.6413">
        <ele>352.87811</ele>
        <time>2023-09-30T09:25:39.000Z</time>
      </trkpt>
      <trkpt lat="45.82427" lon="4.64133">
        <ele>353.56927</ele>
        <time>2023-09-30T09:25:41.000Z</time>
      </trkpt>
      <trkpt lat="45.82428" lon="4.64136">
        <ele>357.63623</ele>
        <time>2023-09-30T09:25:49.000Z</time>
      </trkpt>
      <trkpt lat="45.82426" lon="4.64136">
        <ele>360.4866</ele>
        <time>2023-09-30T09:25:59.000Z</time>
      </trkpt>
      <trkpt lat="45.82424" lon="4.64137">
        <ele>362.84488</ele>
        <time>2023-09-30T09:26:06.000Z</time>
      </trkpt>
      <trkpt lat="45.82423" lon="4.6414">
        <ele>365.11179</ele>
        <time>2023-09-30T09:26:18.000Z</time>
      </trkpt>
      <trkpt lat="45.82422" lon="4.64142">
        <ele>364.11737</ele>
        <time>2023-09-30T09:26:19.000Z</time>
      </trkpt>
      <trkpt lat="45.82422" lon="4.64145">
        <ele>366.23557</ele>
        <time>2023-09-30T09:26:20.000Z</time>
      </trkpt>
      <trkpt lat="45.82421" lon="4.64148">
        <ele>368.33301</ele>
        <time>2023-09-30T09:26:21.000Z</time>
      </trkpt>
      <trkpt lat="45.82421" lon="4.64152">
        <ele>370.51993</ele>
        <time>2023-09-30T09:26:22.000Z</time>
      </trkpt>
      <trkpt lat="45.8242" lon="4.64155">
        <ele>372.56195</ele>
        <time>2023-09-30T09:26:23.000Z</time>
      </trkpt>
      <trkpt lat="45.82419" lon="4.64158">
        <ele>374.55786</ele>
        <time>2023-09-30T09:26:24.000Z</time>
      </trkpt>
      <trkpt lat="45.82418" lon="4.64162">
        <ele>373.65741</ele>
        <time>2023-09-30T09:26:25.000Z</time>
      </trkpt>
      <trkpt lat="45.82417" lon="4.64165">
        <ele>375.48471</ele>
        <time>2023-09-30T09:26:26.000Z</time>
      </trkpt>
      <trkpt lat="45.82416" lon="4.64168">
        <ele>377.31494</ele>
        <time>2023-09-30T09:26:27.000Z</time>
      </trkpt>
      <trkpt lat="45.82416" lon="4.64172">
        <ele>379.10699</ele>
        <time>2023-09-30T09:26:28.000Z</time>
      </trkpt>
      <trkpt lat="45.82415" lon="4.64176">
        <ele>380.88123</ele>
        <time>2023-09-30T09:26:29.000Z</time>
      </trkpt>
      <trkpt lat="45.82414" lon="4.64179">
        <ele>382.62079</ele>
        <time>2023-09-30T09:26:30.000Z</time>
      </trkpt>
      <trkpt lat="45.82413" lon="4.64183">
        <ele>382.69797</ele>
        <time>2023-09-30T09:26:31.000Z</time>
      </trkpt>
      <trkpt lat="45.82412" lon="4.64186">
        <ele>384.27747</ele>
        <time>2023-09-30T09:26:32.000Z</time>
      </trkpt>
      <trkpt lat="45.82411" lon="4.64189">
        <ele>385.83337</ele>
        <time>2023-09-30T09:26:33.000Z</time>
      </trkpt>
      <trkpt lat="45.82409" lon="4.64191">
        <ele>387.40869</ele>
        <time>2023-09-30T09:26:34.000Z</time>
      </trkpt>
      <trkpt lat="45.82406" lon="4.64194">
        <ele>385.5795</ele>
        <time>2023-09-30T09:26:35.000Z</time>
      </trkpt>
      <trkpt lat="45.82403" lon="4.64196">
        <ele>385.30902</ele>
        <time>2023-09-30T09:26:36.000Z</time>
      </trkpt>
      <trkpt lat="45.82399" lon="4.64198">
        <ele>385.29224</ele>
        <time>2023-09-30T09:26:37.000Z</time>
      </trkpt>
      <trkpt lat="45.82396" lon="4.64199">
        <ele>385.24561</ele>
        <time>2023-09-30T09:26:38.000Z</time>
      </trkpt>
      <trkpt lat="45.82392" lon="4.64199">
        <ele>385.29163</ele>
        <time>2023-09-30T09:26:39.000Z</time>
      </trkpt>
      <trkpt lat="45.8239" lon="4.642">
        <ele>385.25839</ele>
        <time>2023-09-30T09:26:40.000Z</time>
      </trkpt>
      <trkpt lat="45.82387" lon="4.642">
        <ele>385.20834</ele>
        <time>2023-09-30T09:26:41.000Z</time>
      </trkpt>
      <trkpt lat="45.82383" lon="4.64201">
        <ele>385.70331</ele>
        <time>2023-09-30T09:26:42.000Z</time>
      </trkpt>
      <trkpt lat="45.8238" lon="4.64201">
        <ele>386.32098</ele>
        <time>2023-09-30T09:26:43.000Z</time>
      </trkpt>
      <trkpt lat="45.82377" lon="4.64203">
        <ele>386.94672</ele>
        <time>2023-09-30T09:26:44.000Z</time>
      </trkpt>
      <trkpt lat="45.82374" lon="4.64206">
        <ele>387.55994</ele>
        <time>2023-09-30T09:26:45.000Z</time>
      </trkpt>
      <trkpt lat="45.82372" lon="4.6421">
        <ele>388.13876</ele>
        <time>2023-09-30T09:26:46.000Z</time>
      </trkpt>
      <trkpt lat="45.8237" lon="4.64215">
        <ele>388.69431</ele>
        <time>2023-09-30T09:26:47.000Z</time>
      </trkpt>
      <trkpt lat="45.82368" lon="4.6422">
        <ele>389.50714</ele>
        <time>2023-09-30T09:26:48.000Z</time>
      </trkpt>
      <trkpt lat="45.82367" lon="4.64225">
        <ele>390.21527</ele>
        <time>2023-09-30T09:26:49.000Z</time>
      </trkpt>
      <trkpt lat="45.82365" lon="4.6423">
        <ele>391.09827</ele>
        <time>2023-09-30T09:26:50.000Z</time>
      </trkpt>
      <trkpt lat="45.82364" lon="4.64235">
        <ele>391.87305</ele>
        <time>2023-09-30T09:26:51.000Z</time>
      </trkpt>
      <trkpt lat="45.82363" lon="4.6424">
        <ele>392.69928</ele>
        <time>2023-09-30T09:26:52.000Z</time>
      </trkpt>
      <trkpt lat="45.82362" lon="4.64245">
        <ele>393.37772</ele>
        <time>2023-09-30T09:26:53.000Z</time>
      </trkpt>
      <trkpt lat="45.82362" lon="4.64251">
        <ele>394.16541</ele>
        <time>2023-09-30T09:26:54.000Z</time>
      </trkpt>
      <trkpt lat="45.82362" lon="4.64257">
        <ele>394.78824</ele>
        <time>2023-09-30T09:26:55.000Z</time>
      </trkpt>
      <trkpt lat="45.82363" lon="4.64262">
        <ele>395.21515</ele>
        <time>2023-09-30T09:26:56.000Z</time>
      </trkpt>
      <trkpt lat="45.82364" lon="4.64266">
        <ele>395.73688</ele>
        <time>2023-09-30T09:26:57.000Z</time>
      </trkpt>
      <trkpt lat="45.82365" lon="4.64269">
        <ele>396.49084</ele>
        <time>2023-09-30T09:26:58.000Z</time>
      </trkpt>
      <trkpt lat="45.82367" lon="4.64274">
        <ele>397.492</ele>
        <time>2023-09-30T09:26:59.000Z</time>
      </trkpt>
      <trkpt lat="45.82367" lon="4.64279">
        <ele>398.42825</ele>
        <time>2023-09-30T09:27:00.000Z</time>
      </trkpt>
      <trkpt lat="45.82367" lon="4.64285">
        <ele>399.24966</ele>
        <time>2023-09-30T09:27:01.000Z</time>
      </trkpt>
      <trkpt lat="45.82366" lon="4.6429">
        <ele>399.36713</ele>
        <time>2023-09-30T09:27:02.000Z</time>
      </trkpt>
      <trkpt lat="45.82365" lon="4.64296">
        <ele>399.57993</ele>
        <time>2023-09-30T09:27:03.000Z</time>
      </trkpt>
      <trkpt lat="45.82364" lon="4.64301">
        <ele>400.16479</ele>
        <time>2023-09-30T09:27:04.000Z</time>
      </trkpt>
      <trkpt lat="45.82363" lon="4.64305">
        <ele>400.95975</ele>
        <time>2023-09-30T09:27:05.000Z</time>
      </trkpt>
      <trkpt lat="45.82361" lon="4.64309">
        <ele>400.43234</ele>
        <time>2023-09-30T09:27:06.000Z</time>
      </trkpt>
      <trkpt lat="45.8236" lon="4.64314">
        <ele>400.79507</ele>
        <time>2023-09-30T09:27:07.000Z</time>
      </trkpt>
      <trkpt lat="45.82359" lon="4.64317">
        <ele>401.04956</ele>
        <time>2023-09-30T09:27:08.000Z</time>
      </trkpt>
      <trkpt lat="45.82358" lon="4.64321">
        <ele>401.2023</ele>
        <time>2023-09-30T09:27:10.000Z</time>
      </trkpt>
      <trkpt lat="45.82357" lon="4.64324">
        <ele>400.97348</ele>
        <time>2023-09-30T09:27:11.000Z</time>
      </trkpt>
      <trkpt lat="45.82356" lon="4.64327">
        <ele>400.72318</ele>
        <time>2023-09-30T09:27:12.000Z</time>
      </trkpt>
      <trkpt lat="45.82355" lon="4.6433">
        <ele>400.54196</ele>
        <time>2023-09-30T09:27:13.000Z</time>
      </trkpt>
      <trkpt lat="45.82354" lon="4.64334">
        <ele>400.13913</ele>
        <time>2023-09-30T09:27:14.000Z</time>
      </trkpt>
      <trkpt lat="45.82353" lon="4.64338">
        <ele>399.60052</ele>
        <time>2023-09-30T09:27:15.000Z</time>
      </trkpt>
      <trkpt lat="45.82352" lon="4.64342">
        <ele>399.19135</ele>
        <time>2023-09-30T09:27:16.000Z</time>
      </trkpt>
      <trkpt lat="45.82352" lon="4.64345">
        <ele>398.54535</ele>
        <time>2023-09-30T09:27:17.000Z</time>
      </trkpt>
      <trkpt lat="45.82352" lon="4.64349">
        <ele>398.04013</ele>
        <time>2023-09-30T09:27:18.000Z</time>
      </trkpt>
      <trkpt lat="45.82351" lon="4.64353">
        <ele>397.6889</ele>
        <time>2023-09-30T09:27:19.000Z</time>
      </trkpt>
      <trkpt lat="45.82351" lon="4.64358">
        <ele>397.04572</ele>
        <time>2023-09-30T09:27:20.000Z</time>
      </trkpt>
      <trkpt lat="45.8235" lon="4.64362">
        <ele>396.18686</ele>
        <time>2023-09-30T09:27:21.000Z</time>
      </trkpt>
      <trkpt lat="45.82351" lon="4.64365">
        <ele>395.43671</ele>
        <time>2023-09-30T09:27:22.000Z</time>
      </trkpt>
      <trkpt lat="45.82351" lon="4.64368">
        <ele>394.74036</ele>
        <time>2023-09-30T09:27:23.000Z</time>
      </trkpt>
      <trkpt lat="45.82351" lon="4.64371">
        <ele>394.11826</ele>
        <time>2023-09-30T09:27:24.000Z</time>
      </trkpt>
      <trkpt lat="45.82351" lon="4.64375">
        <ele>392.99298</ele>
        <time>2023-09-30T09:27:25.000Z</time>
      </trkpt>
      <trkpt lat="45.82351" lon="4.64378">
        <ele>391.76904</ele>
        <time>2023-09-30T09:27:26.000Z</time>
      </trkpt>
      <trkpt lat="45.82351" lon="4.64381">
        <ele>391.81537</ele>
        <time>2023-09-30T09:27:27.000Z</time>
      </trkpt>
      <trkpt lat="45.82351" lon="4.64385">
        <ele>391.01553</ele>
        <time>2023-09-30T09:27:29.000Z</time>
      </trkpt>
      <trkpt lat="45.8235" lon="4.64389">
        <ele>390.23917</ele>
        <time>2023-09-30T09:27:31.000Z</time>
      </trkpt>
      <trkpt lat="45.8235" lon="4.64391">
        <ele>389.61874</ele>
        <time>2023-09-30T09:27:32.000Z</time>
      </trkpt>
      <trkpt lat="45.82349" lon="4.64394">
        <ele>389.17719</ele>
        <time>2023-09-30T09:27:33.000Z</time>
      </trkpt>
      <trkpt lat="45.82348" lon="4.64397">
        <ele>388.84335</ele>
        <time>2023-09-30T09:27:34.000Z</time>
      </trkpt>
      <trkpt lat="45.82348" lon="4.644">
        <ele>385.746</ele>
        <time>2023-09-30T09:27:35.000Z</time>
      </trkpt>
      <trkpt lat="45.82348" lon="4.64403">
        <ele>385.48029</ele>
        <time>2023-09-30T09:27:36.000Z</time>
      </trkpt>
      <trkpt lat="45.82348" lon="4.64408">
        <ele>385.28598</ele>
        <time>2023-09-30T09:27:38.000Z</time>
      </trkpt>
      <trkpt lat="45.82349" lon="4.64411">
        <ele>385.13654</ele>
        <time>2023-09-30T09:27:39.000Z</time>
      </trkpt>
      <trkpt lat="45.82349" lon="4.64415">
        <ele>385.05573</ele>
        <time>2023-09-30T09:27:40.000Z</time>
      </trkpt>
      <trkpt lat="45.8235" lon="4.64418">
        <ele>382.72253</ele>
        <time>2023-09-30T09:27:41.000Z</time>
      </trkpt>
      <trkpt lat="45.82351" lon="4.64421">
        <ele>382.25571</ele>
        <time>2023-09-30T09:27:42.000Z</time>
      </trkpt>
      <trkpt lat="45.82351" lon="4.64424">
        <ele>381.81445</ele>
        <time>2023-09-30T09:27:43.000Z</time>
      </trkpt>
      <trkpt lat="45.82351" lon="4.64427">
        <ele>381.59772</ele>
        <time>2023-09-30T09:27:44.000Z</time>
      </trkpt>
      <trkpt lat="45.82352" lon="4.64431">
        <ele>381.40134</ele>
        <time>2023-09-30T09:27:45.000Z</time>
      </trkpt>
      <trkpt lat="45.82352" lon="4.64435">
        <ele>381.71039</ele>
        <time>2023-09-30T09:27:46.000Z</time>
      </trkpt>
      <trkpt lat="45.82353" lon="4.6444">
        <ele>381.84491</ele>
        <time>2023-09-30T09:27:47.000Z</time>
      </trkpt>
      <trkpt lat="45.82354" lon="4.64444">
        <ele>382.19507</ele>
        <time>2023-09-30T09:27:48.000Z</time>
      </trkpt>
      <trkpt lat="45.82354" lon="4.64448">
        <ele>381.9231</ele>
        <time>2023-09-30T09:27:49.000Z</time>
      </trkpt>
      <trkpt lat="45.82355" lon="4.64452">
        <ele>381.69742</ele>
        <time>2023-09-30T09:27:50.000Z</time>
      </trkpt>
      <trkpt lat="45.82355" lon="4.64455">
        <ele>381.40308</ele>
        <time>2023-09-30T09:27:51.000Z</time>
      </trkpt>
      <trkpt lat="45.82356" lon="4.64458">
        <ele>380.92245</ele>
        <time>2023-09-30T09:27:52.000Z</time>
      </trkpt>
      <trkpt lat="45.82356" lon="4.64461">
        <ele>380.4566</ele>
        <time>2023-09-30T09:27:53.000Z</time>
      </trkpt>
      <trkpt lat="45.82357" lon="4.64465">
        <ele>377.95197</ele>
        <time>2023-09-30T09:27:54.000Z</time>
      </trkpt>
      <trkpt lat="45.82357" lon="4.64468">
        <ele>377.39069</ele>
        <time>2023-09-30T09:27:55.000Z</time>
      </trkpt>
      <trkpt lat="45.82358" lon="4.64472">
        <ele>379.45364</ele>
        <time>2023-09-30T09:27:56.000Z</time>
      </trkpt>
      <trkpt lat="45.82359" lon="4.64475">
        <ele>379.13901</ele>
        <time>2023-09-30T09:27:57.000Z</time>
      </trkpt>
      <trkpt lat="45.82359" lon="4.64479">
        <ele>378.82196</ele>
        <time>2023-09-30T09:27:58.000Z</time>
      </trkpt>
      <trkpt lat="45.8236" lon="4.64483">
        <ele>378.49872</ele>
        <time>2023-09-30T09:27:59.000Z</time>
      </trkpt>
      <trkpt lat="45.8236" lon="4.64487">
        <ele>375.74466</ele>
        <time>2023-09-30T09:28:00.000Z</time>
      </trkpt>
      <trkpt lat="45.82361" lon="4.64491">
        <ele>377.53024</ele>
        <time>2023-09-30T09:28:01.000Z</time>
      </trkpt>
      <trkpt lat="45.82361" lon="4.64496">
        <ele>377.27063</ele>
        <time>2023-09-30T09:28:02.000Z</time>
      </trkpt>
      <trkpt lat="45.82361" lon="4.64501">
        <ele>377.02136</ele>
        <time>2023-09-30T09:28:03.000Z</time>
      </trkpt>
      <trkpt lat="45.82362" lon="4.64505">
        <ele>376.78171</ele>
        <time>2023-09-30T09:28:04.000Z</time>
      </trkpt>
      <trkpt lat="45.82362" lon="4.6451">
        <ele>376.54092</ele>
        <time>2023-09-30T09:28:05.000Z</time>
      </trkpt>
      <trkpt lat="45.82363" lon="4.64516">
        <ele>373.961</ele>
        <time>2023-09-30T09:28:06.000Z</time>
      </trkpt>
      <trkpt lat="45.82363" lon="4.64521">
        <ele>373.0845</ele>
        <time>2023-09-30T09:28:07.000Z</time>
      </trkpt>
      <trkpt lat="45.82364" lon="4.64527">
        <ele>372.09891</ele>
        <time>2023-09-30T09:28:08.000Z</time>
      </trkpt>
      <trkpt lat="45.82364" lon="4.64532">
        <ele>371.59412</ele>
        <time>2023-09-30T09:28:09.000Z</time>
      </trkpt>
      <trkpt lat="45.82364" lon="4.64537">
        <ele>369.59006</ele>
        <time>2023-09-30T09:28:10.000Z</time>
      </trkpt>
      <trkpt lat="45.82364" lon="4.64543">
        <ele>367.58896</ele>
        <time>2023-09-30T09:28:11.000Z</time>
      </trkpt>
      <trkpt lat="45.82363" lon="4.64547">
        <ele>365.62796</ele>
        <time>2023-09-30T09:28:12.000Z</time>
      </trkpt>
      <trkpt lat="45.82363" lon="4.64552">
        <ele>363.65427</ele>
        <time>2023-09-30T09:28:13.000Z</time>
      </trkpt>
      <trkpt lat="45.82363" lon="4.64556">
        <ele>363.70578</ele>
        <time>2023-09-30T09:28:14.000Z</time>
      </trkpt>
      <trkpt lat="45.82362" lon="4.6456">
        <ele>361.8515</ele>
        <time>2023-09-30T09:28:15.000Z</time>
      </trkpt>
      <trkpt lat="45.82361" lon="4.64565">
        <ele>360.04279</ele>
        <time>2023-09-30T09:28:16.000Z</time>
      </trkpt>
      <trkpt lat="45.82361" lon="4.64569">
        <ele>357.89764</ele>
        <time>2023-09-30T09:28:17.000Z</time>
      </trkpt>
      <trkpt lat="45.8236" lon="4.64573">
        <ele>355.79126</ele>
        <time>2023-09-30T09:28:18.000Z</time>
      </trkpt>
      <trkpt lat="45.8236" lon="4.64578">
        <ele>353.69525</ele>
        <time>2023-09-30T09:28:19.000Z</time>
      </trkpt>
      <trkpt lat="45.82359" lon="4.64582">
        <ele>353.99908</ele>
        <time>2023-09-30T09:28:20.000Z</time>
      </trkpt>
      <trkpt lat="45.82358" lon="4.64586">
        <ele>351.93195</ele>
        <time>2023-09-30T09:28:21.000Z</time>
      </trkpt>
      <trkpt lat="45.82358" lon="4.64589">
        <ele>350.129</ele>
        <time>2023-09-30T09:28:22.000Z</time>
      </trkpt>
      <trkpt lat="45.82358" lon="4.64593">
        <ele>348.29193</ele>
        <time>2023-09-30T09:28:23.000Z</time>
      </trkpt>
      <trkpt lat="45.82357" lon="4.64597">
        <ele>346.49536</ele>
        <time>2023-09-30T09:28:24.000Z</time>
      </trkpt>
      <trkpt lat="45.82357" lon="4.64601">
        <ele>344.70557</ele>
        <time>2023-09-30T09:28:25.000Z</time>
      </trkpt>
      <trkpt lat="45.82356" lon="4.64605">
        <ele>344.74884</ele>
        <time>2023-09-30T09:28:26.000Z</time>
      </trkpt>
      <trkpt lat="45.82356" lon="4.64609">
        <ele>343.10464</ele>
        <time>2023-09-30T09:28:27.000Z</time>
      </trkpt>
      <trkpt lat="45.82355" lon="4.64613">
        <ele>341.50269</ele>
        <time>2023-09-30T09:28:28.000Z</time>
      </trkpt>
      <trkpt lat="45.82354" lon="4.64617">
        <ele>339.95789</ele>
        <time>2023-09-30T09:28:29.000Z</time>
      </trkpt>
      <trkpt lat="45.82353" lon="4.64621">
        <ele>339.95517</ele>
        <time>2023-09-30T09:28:30.000Z</time>
      </trkpt>
      <trkpt lat="45.82353" lon="4.64625">
        <ele>340.0881</ele>
        <time>2023-09-30T09:28:31.000Z</time>
      </trkpt>
      <trkpt lat="45.82352" lon="4.64629">
        <ele>340.20685</ele>
        <time>2023-09-30T09:28:32.000Z</time>
      </trkpt>
      <trkpt lat="45.82351" lon="4.64633">
        <ele>340.36517</ele>
        <time>2023-09-30T09:28:33.000Z</time>
      </trkpt>
      <trkpt lat="45.8235" lon="4.64638">
        <ele>340.58063</ele>
        <time>2023-09-30T09:28:34.000Z</time>
      </trkpt>
      <trkpt lat="45.8235" lon="4.64642">
        <ele>341.15829</ele>
        <time>2023-09-30T09:28:35.000Z</time>
      </trkpt>
      <trkpt lat="45.82349" lon="4.64646">
        <ele>341.71698</ele>
        <time>2023-09-30T09:28:36.000Z</time>
      </trkpt>
      <trkpt lat="45.82348" lon="4.6465">
        <ele>342.51935</ele>
        <time>2023-09-30T09:28:37.000Z</time>
      </trkpt>
      <trkpt lat="45.82348" lon="4.64652">
        <ele>342.80783</ele>
        <time>2023-09-30T09:28:38.000Z</time>
      </trkpt>
      <trkpt lat="45.8235" lon="4.64653">
        <ele>343.13702</ele>
        <time>2023-09-30T09:28:50.000Z</time>
      </trkpt>
      <trkpt lat="45.82348" lon="4.64654">
        <ele>343.30585</ele>
        <time>2023-09-30T09:29:02.000Z</time>
      </trkpt>
      <trkpt lat="45.82346" lon="4.64656">
        <ele>343.56543</ele>
        <time>2023-09-30T09:29:19.000Z</time>
      </trkpt>
      <trkpt lat="45.82346" lon="4.6466">
        <ele>343.47119</ele>
        <time>2023-09-30T09:29:20.000Z</time>
      </trkpt>
      <trkpt lat="45.82345" lon="4.64663">
        <ele>343.41107</ele>
        <time>2023-09-30T09:29:21.000Z</time>
      </trkpt>
      <trkpt lat="45.82344" lon="4.64668">
        <ele>343.48715</ele>
        <time>2023-09-30T09:29:22.000Z</time>
      </trkpt>
      <trkpt lat="45.82343" lon="4.64672">
        <ele>343.57172</ele>
        <time>2023-09-30T09:29:23.000Z</time>
      </trkpt>
      <trkpt lat="45.82342" lon="4.64677">
        <ele>343.64597</ele>
        <time>2023-09-30T09:29:24.000Z</time>
      </trkpt>
      <trkpt lat="45.82341" lon="4.64682">
        <ele>343.71515</ele>
        <time>2023-09-30T09:29:25.000Z</time>
      </trkpt>
      <trkpt lat="45.82341" lon="4.64687">
        <ele>343.49277</ele>
        <time>2023-09-30T09:29:26.000Z</time>
      </trkpt>
      <trkpt lat="45.8234" lon="4.64693">
        <ele>343.25009</ele>
        <time>2023-09-30T09:29:27.000Z</time>
      </trkpt>
      <trkpt lat="45.8234" lon="4.64698">
        <ele>342.97672</ele>
        <time>2023-09-30T09:29:28.000Z</time>
      </trkpt>
      <trkpt lat="45.82341" lon="4.64705">
        <ele>342.56903</ele>
        <time>2023-09-30T09:29:29.000Z</time>
      </trkpt>
      <trkpt lat="45.82342" lon="4.64711">
        <ele>342.13239</ele>
        <time>2023-09-30T09:29:30.000Z</time>
      </trkpt>
      <trkpt lat="45.82343" lon="4.64719">
        <ele>341.71133</ele>
        <time>2023-09-30T09:29:31.000Z</time>
      </trkpt>
      <trkpt lat="45.82343" lon="4.64726">
        <ele>341.26529</ele>
        <time>2023-09-30T09:29:32.000Z</time>
      </trkpt>
      <trkpt lat="45.82344" lon="4.64733">
        <ele>340.39276</ele>
        <time>2023-09-30T09:29:33.000Z</time>
      </trkpt>
      <trkpt lat="45.82344" lon="4.64739">
        <ele>339.46765</ele>
        <time>2023-09-30T09:29:34.000Z</time>
      </trkpt>
      <trkpt lat="45.82343" lon="4.64746">
        <ele>338.49493</ele>
        <time>2023-09-30T09:29:35.000Z</time>
      </trkpt>
      <trkpt lat="45.82343" lon="4.64754">
        <ele>338.31549</ele>
        <time>2023-09-30T09:29:36.000Z</time>
      </trkpt>
      <trkpt lat="45.82342" lon="4.64761">
        <ele>338.00381</ele>
        <time>2023-09-30T09:29:37.000Z</time>
      </trkpt>
      <trkpt lat="45.82341" lon="4.64767">
        <ele>337.86905</ele>
        <time>2023-09-30T09:29:38.000Z</time>
      </trkpt>
      <trkpt lat="45.8234" lon="4.64773">
        <ele>337.74338</ele>
        <time>2023-09-30T09:29:39.000Z</time>
      </trkpt>
      <trkpt lat="45.82339" lon="4.64779">
        <ele>337.64404</ele>
        <time>2023-09-30T09:29:40.000Z</time>
      </trkpt>
      <trkpt lat="45.82338" lon="4.64786">
        <ele>337.34717</ele>
        <time>2023-09-30T09:29:41.000Z</time>
      </trkpt>
      <trkpt lat="45.82336" lon="4.64792">
        <ele>336.85541</ele>
        <time>2023-09-30T09:29:42.000Z</time>
      </trkpt>
      <trkpt lat="45.82334" lon="4.64799">
        <ele>336.38019</ele>
        <time>2023-09-30T09:29:43.000Z</time>
      </trkpt>
      <trkpt lat="45.82332" lon="4.64806">
        <ele>336.2645</ele>
        <time>2023-09-30T09:29:44.000Z</time>
      </trkpt>
      <trkpt lat="45.82329" lon="4.64813">
        <ele>336.10355</ele>
        <time>2023-09-30T09:29:45.000Z</time>
      </trkpt>
      <trkpt lat="45.82326" lon="4.64819">
        <ele>336.28238</ele>
        <time>2023-09-30T09:29:46.000Z</time>
      </trkpt>
      <trkpt lat="45.82324" lon="4.64826">
        <ele>336.45032</ele>
        <time>2023-09-30T09:29:47.000Z</time>
      </trkpt>
      <trkpt lat="45.82322" lon="4.64834">
        <ele>336.60266</ele>
        <time>2023-09-30T09:29:48.000Z</time>
      </trkpt>
      <trkpt lat="45.82319" lon="4.6484">
        <ele>336.76224</ele>
        <time>2023-09-30T09:29:49.000Z</time>
      </trkpt>
      <trkpt lat="45.82317" lon="4.64849">
        <ele>336.92645</ele>
        <time>2023-09-30T09:29:50.000Z</time>
      </trkpt>
      <trkpt lat="45.82315" lon="4.64857">
        <ele>337.06195</ele>
        <time>2023-09-30T09:29:51.000Z</time>
      </trkpt>
      <trkpt lat="45.82312" lon="4.64865">
        <ele>337.19037</ele>
        <time>2023-09-30T09:29:52.000Z</time>
      </trkpt>
      <trkpt lat="45.8231" lon="4.64872">
        <ele>337.37671</ele>
        <time>2023-09-30T09:29:53.000Z</time>
      </trkpt>
      <trkpt lat="45.82307" lon="4.64879">
        <ele>337.60678</ele>
        <time>2023-09-30T09:29:54.000Z</time>
      </trkpt>
      <trkpt lat="45.82306" lon="4.64884">
        <ele>337.83652</ele>
        <time>2023-09-30T09:29:55.000Z</time>
      </trkpt>
      <trkpt lat="45.82304" lon="4.64888">
        <ele>337.75717</ele>
        <time>2023-09-30T09:29:56.000Z</time>
      </trkpt>
      <trkpt lat="45.82303" lon="4.64892">
        <ele>337.75146</ele>
        <time>2023-09-30T09:29:57.000Z</time>
      </trkpt>
      <trkpt lat="45.82302" lon="4.64894">
        <ele>337.74319</ele>
        <time>2023-09-30T09:29:58.000Z</time>
      </trkpt>
      <trkpt lat="45.82303" lon="4.64892">
        <ele>337.6416</ele>
        <time>2023-09-30T09:30:23.000Z</time>
      </trkpt>
      <trkpt lat="45.82304" lon="4.64893">
        <ele>337.54727</ele>
        <time>2023-09-30T09:30:33.000Z</time>
      </trkpt>
      <trkpt lat="45.82303" lon="4.64895">
        <ele>337.72968</ele>
        <time>2023-09-30T09:31:34.000Z</time>
      </trkpt>
      <trkpt lat="45.82303" lon="4.649">
        <ele>337.80331</ele>
        <time>2023-09-30T09:31:37.000Z</time>
      </trkpt>
      <trkpt lat="45.82305" lon="4.64903">
        <ele>337.77567</ele>
        <time>2023-09-30T09:31:38.000Z</time>
      </trkpt>
      <trkpt lat="45.82307" lon="4.64907">
        <ele>337.37878</ele>
        <time>2023-09-30T09:31:39.000Z</time>
      </trkpt>
      <trkpt lat="45.82313" lon="4.64909">
        <ele>336.95712</ele>
        <time>2023-09-30T09:31:40.000Z</time>
      </trkpt>
      <trkpt lat="45.82317" lon="4.64912">
        <ele>336.76859</ele>
        <time>2023-09-30T09:31:41.000Z</time>
      </trkpt>
      <trkpt lat="45.82323" lon="4.64915">
        <ele>336.51038</ele>
        <time>2023-09-30T09:31:42.000Z</time>
      </trkpt>
      <trkpt lat="45.82329" lon="4.64921">
        <ele>336.2453</ele>
        <time>2023-09-30T09:31:43.000Z</time>
      </trkpt>
      <trkpt lat="45.82336" lon="4.64926">
        <ele>335.9353</ele>
        <time>2023-09-30T09:31:44.000Z</time>
      </trkpt>
      <trkpt lat="45.82345" lon="4.6493">
        <ele>335.58209</ele>
        <time>2023-09-30T09:31:45.000Z</time>
      </trkpt>
      <trkpt lat="45.82353" lon="4.64935">
        <ele>335.19501</ele>
        <time>2023-09-30T09:31:46.000Z</time>
      </trkpt>
      <trkpt lat="45.82363" lon="4.64939">
        <ele>334.79102</ele>
        <time>2023-09-30T09:31:47.000Z</time>
      </trkpt>
      <trkpt lat="45.82372" lon="4.64945">
        <ele>334.35208</ele>
        <time>2023-09-30T09:31:48.000Z</time>
      </trkpt>
      <trkpt lat="45.82382" lon="4.64949">
        <ele>333.86481</ele>
        <time>2023-09-30T09:31:49.000Z</time>
      </trkpt>
      <trkpt lat="45.82391" lon="4.64951">
        <ele>333.38763</ele>
        <time>2023-09-30T09:31:50.000Z</time>
      </trkpt>
      <trkpt lat="45.82399" lon="4.64956">
        <ele>332.84122</ele>
        <time>2023-09-30T09:31:51.000Z</time>
      </trkpt>
      <trkpt lat="45.82405" lon="4.6496">
        <ele>332.23074</ele>
        <time>2023-09-30T09:31:52.000Z</time>
      </trkpt>
      <trkpt lat="45.82409" lon="4.64964">
        <ele>331.57285</ele>
        <time>2023-09-30T09:31:53.000Z</time>
      </trkpt>
      <trkpt lat="45.82412" lon="4.64971">
        <ele>331.13397</ele>
        <time>2023-09-30T09:31:54.000Z</time>
      </trkpt>
      <trkpt lat="45.82413" lon="4.6498">
        <ele>330.6394</ele>
        <time>2023-09-30T09:31:55.000Z</time>
      </trkpt>
      <trkpt lat="45.82412" lon="4.64986">
        <ele>330.06781</ele>
        <time>2023-09-30T09:31:56.000Z</time>
      </trkpt>
      <trkpt lat="45.82412" lon="4.64992">
        <ele>329.61615</ele>
        <time>2023-09-30T09:31:57.000Z</time>
      </trkpt>
      <trkpt lat="45.82411" lon="4.64996">
        <ele>329.18176</ele>
        <time>2023-09-30T09:31:58.000Z</time>
      </trkpt>
      <trkpt lat="45.82411" lon="4.64999">
        <ele>328.76157</ele>
        <time>2023-09-30T09:31:59.000Z</time>
      </trkpt>
      <trkpt lat="45.82413" lon="4.65">
        <ele>328.41043</ele>
        <time>2023-09-30T09:32:00.000Z</time>
      </trkpt>
      <trkpt lat="45.82417" lon="4.64997">
        <ele>327.76761</ele>
        <time>2023-09-30T09:32:02.000Z</time>
      </trkpt>
      <trkpt lat="45.82419" lon="4.64993">
        <ele>327.21445</ele>
        <time>2023-09-30T09:32:03.000Z</time>
      </trkpt>
      <trkpt lat="45.82423" lon="4.6499">
        <ele>326.70581</ele>
        <time>2023-09-30T09:32:04.000Z</time>
      </trkpt>
      <trkpt lat="45.82426" lon="4.64985">
        <ele>326.21698</ele>
        <time>2023-09-30T09:32:05.000Z</time>
      </trkpt>
      <trkpt lat="45.82429" lon="4.6498">
        <ele>325.76062</ele>
        <time>2023-09-30T09:32:06.000Z</time>
      </trkpt>
      <trkpt lat="45.82431" lon="4.64971">
        <ele>325.32095</ele>
        <time>2023-09-30T09:32:07.000Z</time>
      </trkpt>
      <trkpt lat="45.82435" lon="4.64965">
        <ele>324.90701</ele>
        <time>2023-09-30T09:32:08.000Z</time>
      </trkpt>
      <trkpt lat="45.82438" lon="4.6496">
        <ele>324.51764</ele>
        <time>2023-09-30T09:32:09.000Z</time>
      </trkpt>
      <trkpt lat="45.8244" lon="4.64954">
        <ele>324.12939</ele>
        <time>2023-09-30T09:32:10.000Z</time>
      </trkpt>
      <trkpt lat="45.82443" lon="4.64949">
        <ele>323.77444</ele>
        <time>2023-09-30T09:32:11.000Z</time>
      </trkpt>
      <trkpt lat="45.82444" lon="4.64944">
        <ele>323.41571</ele>
        <time>2023-09-30T09:32:12.000Z</time>
      </trkpt>
      <trkpt lat="45.82447" lon="4.64939">
        <ele>323.13568</ele>
        <time>2023-09-30T09:32:13.000Z</time>
      </trkpt>
      <trkpt lat="45.82448" lon="4.64935">
        <ele>323.05249</ele>
        <time>2023-09-30T09:32:14.000Z</time>
      </trkpt>
      <trkpt lat="45.82451" lon="4.64928">
        <ele>322.81049</ele>
        <time>2023-09-30T09:32:15.000Z</time>
      </trkpt>
      <trkpt lat="45.82453" lon="4.64923">
        <ele>322.53668</ele>
        <time>2023-09-30T09:32:16.000Z</time>
      </trkpt>
      <trkpt lat="45.82456" lon="4.64919">
        <ele>322.27859</ele>
        <time>2023-09-30T09:32:17.000Z</time>
      </trkpt>
      <trkpt lat="45.82458" lon="4.64912">
        <ele>321.9415</ele>
        <time>2023-09-30T09:32:18.000Z</time>
      </trkpt>
      <trkpt lat="45.82462" lon="4.64905">
        <ele>321.63501</ele>
        <time>2023-09-30T09:32:19.000Z</time>
      </trkpt>
      <trkpt lat="45.82465" lon="4.64898">
        <ele>321.29266</ele>
        <time>2023-09-30T09:32:20.000Z</time>
      </trkpt>
      <trkpt lat="45.82468" lon="4.64891">
        <ele>320.9649</ele>
        <time>2023-09-30T09:32:21.000Z</time>
      </trkpt>
      <trkpt lat="45.82473" lon="4.64883">
        <ele>320.79712</ele>
        <time>2023-09-30T09:32:22.000Z</time>
      </trkpt>
      <trkpt lat="45.82478" lon="4.64875">
        <ele>320.62177</ele>
        <time>2023-09-30T09:32:23.000Z</time>
      </trkpt>
      <trkpt lat="45.82481" lon="4.64864">
        <ele>320.45026</ele>
        <time>2023-09-30T09:32:24.000Z</time>
      </trkpt>
      <trkpt lat="45.82486" lon="4.64857">
        <ele>320.22977</ele>
        <time>2023-09-30T09:32:25.000Z</time>
      </trkpt>
      <trkpt lat="45.82491" lon="4.64848">
        <ele>320.00885</ele>
        <time>2023-09-30T09:32:26.000Z</time>
      </trkpt>
      <trkpt lat="45.82496" lon="4.64841">
        <ele>319.83118</ele>
        <time>2023-09-30T09:32:27.000Z</time>
      </trkpt>
      <trkpt lat="45.82501" lon="4.64834">
        <ele>319.65247</ele>
        <time>2023-09-30T09:32:28.000Z</time>
      </trkpt>
      <trkpt lat="45.82507" lon="4.64827">
        <ele>319.49872</ele>
        <time>2023-09-30T09:32:29.000Z</time>
      </trkpt>
      <trkpt lat="45.82512" lon="4.6482">
        <ele>319.37079</ele>
        <time>2023-09-30T09:32:30.000Z</time>
      </trkpt>
      <trkpt lat="45.82518" lon="4.64814">
        <ele>319.18854</ele>
        <time>2023-09-30T09:32:31.000Z</time>
      </trkpt>
      <trkpt lat="45.82523" lon="4.64809">
        <ele>319.11188</ele>
        <time>2023-09-30T09:32:32.000Z</time>
      </trkpt>
      <trkpt lat="45.82527" lon="4.64805">
        <ele>319.05603</ele>
        <time>2023-09-30T09:32:33.000Z</time>
      </trkpt>
      <trkpt lat="45.82531" lon="4.64801">
        <ele>318.85336</ele>
        <time>2023-09-30T09:32:34.000Z</time>
      </trkpt>
      <trkpt lat="45.82535" lon="4.64796">
        <ele>318.63208</ele>
        <time>2023-09-30T09:32:35.000Z</time>
      </trkpt>
      <trkpt lat="45.82538" lon="4.64793">
        <ele>318.45593</ele>
        <time>2023-09-30T09:32:36.000Z</time>
      </trkpt>
      <trkpt lat="45.82541" lon="4.64787">
        <ele>318.2529</ele>
        <time>2023-09-30T09:32:37.000Z</time>
      </trkpt>
      <trkpt lat="45.82546" lon="4.64782">
        <ele>318.12134</ele>
        <time>2023-09-30T09:32:39.000Z</time>
      </trkpt>
      <trkpt lat="45.82548" lon="4.64779">
        <ele>318.14536</ele>
        <time>2023-09-30T09:32:40.000Z</time>
      </trkpt>
      <trkpt lat="45.82552" lon="4.64773">
        <ele>318.16684</ele>
        <time>2023-09-30T09:32:41.000Z</time>
      </trkpt>
      <trkpt lat="45.82554" lon="4.64772">
        <ele>318.14722</ele>
        <time>2023-09-30T09:32:42.000Z</time>
      </trkpt>
      <trkpt lat="45.82556" lon="4.6477">
        <ele>317.96616</ele>
        <time>2023-09-30T09:32:43.000Z</time>
      </trkpt>
      <trkpt lat="45.8256" lon="4.64767">
        <ele>317.76117</ele>
        <time>2023-09-30T09:32:44.000Z</time>
      </trkpt>
      <trkpt lat="45.82562" lon="4.64764">
        <ele>317.52267</ele>
        <time>2023-09-30T09:32:45.000Z</time>
      </trkpt>
      <trkpt lat="45.82564" lon="4.6476">
        <ele>317.31894</ele>
        <time>2023-09-30T09:32:46.000Z</time>
      </trkpt>
      <trkpt lat="45.82567" lon="4.64752">
        <ele>317.13422</ele>
        <time>2023-09-30T09:32:47.000Z</time>
      </trkpt>
      <trkpt lat="45.82571" lon="4.64748">
        <ele>316.94189</ele>
        <time>2023-09-30T09:32:48.000Z</time>
      </trkpt>
      <trkpt lat="45.82574" lon="4.64746">
        <ele>316.73502</ele>
        <time>2023-09-30T09:32:49.000Z</time>
      </trkpt>
      <trkpt lat="45.82578" lon="4.64746">
        <ele>316.4606</ele>
        <time>2023-09-30T09:32:50.000Z</time>
      </trkpt>
      <trkpt lat="45.8258" lon="4.64745">
        <ele>316.19696</ele>
        <time>2023-09-30T09:32:51.000Z</time>
      </trkpt>
      <trkpt lat="45.82582" lon="4.64745">
        <ele>315.99152</ele>
        <time>2023-09-30T09:32:52.000Z</time>
      </trkpt>
      <trkpt lat="45.82582" lon="4.6474">
        <ele>315.89264</ele>
        <time>2023-09-30T09:32:54.000Z</time>
      </trkpt>
      <trkpt lat="45.82583" lon="4.64736">
        <ele>315.77676</ele>
        <time>2023-09-30T09:32:55.000Z</time>
      </trkpt>
      <trkpt lat="45.82584" lon="4.64731">
        <ele>315.677</ele>
        <time>2023-09-30T09:32:56.000Z</time>
      </trkpt>
      <trkpt lat="45.82585" lon="4.64726">
        <ele>315.6106</ele>
        <time>2023-09-30T09:32:57.000Z</time>
      </trkpt>
      <trkpt lat="45.82584" lon="4.64721">
        <ele>321.27838</ele>
        <time>2023-09-30T09:32:58.000Z</time>
      </trkpt>
      <trkpt lat="45.82583" lon="4.64715">
        <ele>321.52313</ele>
        <time>2023-09-30T09:32:59.000Z</time>
      </trkpt>
      <trkpt lat="45.82582" lon="4.64712">
        <ele>321.80716</ele>
        <time>2023-09-30T09:33:00.000Z</time>
      </trkpt>
      <trkpt lat="45.82581" lon="4.64708">
        <ele>321.9834</ele>
        <time>2023-09-30T09:33:02.000Z</time>
      </trkpt>
      <trkpt lat="45.82581" lon="4.64704">
        <ele>322.21344</ele>
        <time>2023-09-30T09:33:03.000Z</time>
      </trkpt>
      <trkpt lat="45.82583" lon="4.64698">
        <ele>325.80621</ele>
        <time>2023-09-30T09:33:04.000Z</time>
      </trkpt>
      <trkpt lat="45.82584" lon="4.64693">
        <ele>326.26801</ele>
        <time>2023-09-30T09:33:05.000Z</time>
      </trkpt>
      <trkpt lat="45.82585" lon="4.64689">
        <ele>326.78766</ele>
        <time>2023-09-30T09:33:06.000Z</time>
      </trkpt>
      <trkpt lat="45.82585" lon="4.64684">
        <ele>327.34238</ele>
        <time>2023-09-30T09:33:07.000Z</time>
      </trkpt>
      <trkpt lat="45.82586" lon="4.64678">
        <ele>327.96399</ele>
        <time>2023-09-30T09:33:08.000Z</time>
      </trkpt>
      <trkpt lat="45.82587" lon="4.64674">
        <ele>328.62189</ele>
        <time>2023-09-30T09:33:09.000Z</time>
      </trkpt>
      <trkpt lat="45.82588" lon="4.64669">
        <ele>333.27765</ele>
        <time>2023-09-30T09:33:10.000Z</time>
      </trkpt>
      <trkpt lat="45.8259" lon="4.64664">
        <ele>334.21948</ele>
        <time>2023-09-30T09:33:11.000Z</time>
      </trkpt>
      <trkpt lat="45.82591" lon="4.6466">
        <ele>335.25211</ele>
        <time>2023-09-30T09:33:12.000Z</time>
      </trkpt>
      <trkpt lat="45.82592" lon="4.64656">
        <ele>336.35733</ele>
        <time>2023-09-30T09:33:13.000Z</time>
      </trkpt>
      <trkpt lat="45.82593" lon="4.64651">
        <ele>337.50809</ele>
        <time>2023-09-30T09:33:14.000Z</time>
      </trkpt>
      <trkpt lat="45.82595" lon="4.64646">
        <ele>338.58392</ele>
        <time>2023-09-30T09:33:15.000Z</time>
      </trkpt>
      <trkpt lat="45.82596" lon="4.6464">
        <ele>342.78619</ele>
        <time>2023-09-30T09:33:16.000Z</time>
      </trkpt>
      <trkpt lat="45.82598" lon="4.64636">
        <ele>344.13666</ele>
        <time>2023-09-30T09:33:17.000Z</time>
      </trkpt>
      <trkpt lat="45.826" lon="4.64631">
        <ele>345.55966</ele>
        <time>2023-09-30T09:33:18.000Z</time>
      </trkpt>
      <trkpt lat="45.82601" lon="4.64627">
        <ele>341.3287</ele>
        <time>2023-09-30T09:33:19.000Z</time>
      </trkpt>
      <trkpt lat="45.82604" lon="4.64623">
        <ele>342.33124</ele>
        <time>2023-09-30T09:33:20.000Z</time>
      </trkpt>
      <trkpt lat="45.82606" lon="4.64618">
        <ele>343.37164</ele>
        <time>2023-09-30T09:33:21.000Z</time>
      </trkpt>
      <trkpt lat="45.82608" lon="4.64614">
        <ele>347.4245</ele>
        <time>2023-09-30T09:33:22.000Z</time>
      </trkpt>
      <trkpt lat="45.82611" lon="4.64609">
        <ele>348.69653</ele>
        <time>2023-09-30T09:33:23.000Z</time>
      </trkpt>
      <trkpt lat="45.82613" lon="4.64604">
        <ele>346.69672</ele>
        <time>2023-09-30T09:33:24.000Z</time>
      </trkpt>
      <trkpt lat="45.82615" lon="4.646">
        <ele>347.74127</ele>
        <time>2023-09-30T09:33:25.000Z</time>
      </trkpt>
      <trkpt lat="45.82617" lon="4.64596">
        <ele>348.81491</ele>
        <time>2023-09-30T09:33:26.000Z</time>
      </trkpt>
      <trkpt lat="45.82618" lon="4.64592">
        <ele>349.91629</ele>
        <time>2023-09-30T09:33:27.000Z</time>
      </trkpt>
      <trkpt lat="45.8262" lon="4.64589">
        <ele>353.30624</ele>
        <time>2023-09-30T09:33:28.000Z</time>
      </trkpt>
      <trkpt lat="45.82623" lon="4.64586">
        <ele>354.57336</ele>
        <time>2023-09-30T09:33:29.000Z</time>
      </trkpt>
      <trkpt lat="45.82625" lon="4.64582">
        <ele>351.89786</ele>
        <time>2023-09-30T09:33:30.000Z</time>
      </trkpt>
      <trkpt lat="45.82627" lon="4.64578">
        <ele>352.82886</ele>
        <time>2023-09-30T09:33:31.000Z</time>
      </trkpt>
      <trkpt lat="45.82629" lon="4.64575">
        <ele>353.75934</ele>
        <time>2023-09-30T09:33:32.000Z</time>
      </trkpt>
      <trkpt lat="45.82631" lon="4.64573">
        <ele>354.68469</ele>
        <time>2023-09-30T09:33:33.000Z</time>
      </trkpt>
      <trkpt lat="45.82633" lon="4.6457">
        <ele>357.6022</ele>
        <time>2023-09-30T09:33:34.000Z</time>
      </trkpt>
      <trkpt lat="45.82635" lon="4.64567">
        <ele>358.60687</ele>
        <time>2023-09-30T09:33:35.000Z</time>
      </trkpt>
      <trkpt lat="45.82638" lon="4.64563">
        <ele>356.54031</ele>
        <time>2023-09-30T09:33:36.000Z</time>
      </trkpt>
      <trkpt lat="45.82641" lon="4.64559">
        <ele>357.22803</ele>
        <time>2023-09-30T09:33:37.000Z</time>
      </trkpt>
      <trkpt lat="45.82644" lon="4.64555">
        <ele>357.8826</ele>
        <time>2023-09-30T09:33:38.000Z</time>
      </trkpt>
      <trkpt lat="45.82646" lon="4.6455">
        <ele>358.49875</ele>
        <time>2023-09-30T09:33:39.000Z</time>
      </trkpt>
      <trkpt lat="45.82649" lon="4.64546">
        <ele>361.43112</ele>
        <time>2023-09-30T09:33:40.000Z</time>
      </trkpt>
      <trkpt lat="45.82652" lon="4.64542">
        <ele>362.38614</ele>
        <time>2023-09-30T09:33:41.000Z</time>
      </trkpt>
      <trkpt lat="45.82655" lon="4.64538">
        <ele>360.36224</ele>
        <time>2023-09-30T09:33:42.000Z</time>
      </trkpt>
      <trkpt lat="45.82657" lon="4.64535">
        <ele>361.00912</ele>
        <time>2023-09-30T09:33:43.000Z</time>
      </trkpt>
      <trkpt lat="45.82658" lon="4.64532">
        <ele>361.62479</ele>
        <time>2023-09-30T09:33:44.000Z</time>
      </trkpt>
      <trkpt lat="45.8266" lon="4.64529">
        <ele>362.37119</ele>
        <time>2023-09-30T09:33:45.000Z</time>
      </trkpt>
      <trkpt lat="45.82662" lon="4.64525">
        <ele>365.35995</ele>
        <time>2023-09-30T09:33:46.000Z</time>
      </trkpt>
      <trkpt lat="45.82664" lon="4.64521">
        <ele>366.18719</ele>
        <time>2023-09-30T09:33:47.000Z</time>
      </trkpt>
      <trkpt lat="45.82665" lon="4.64518">
        <ele>364.73947</ele>
        <time>2023-09-30T09:33:48.000Z</time>
      </trkpt>
      <trkpt lat="45.82666" lon="4.64514">
        <ele>365.31113</ele>
        <time>2023-09-30T09:33:49.000Z</time>
      </trkpt>
      <trkpt lat="45.82667" lon="4.6451">
        <ele>365.84802</ele>
        <time>2023-09-30T09:33:50.000Z</time>
      </trkpt>
      <trkpt lat="45.82669" lon="4.64506">
        <ele>366.54553</ele>
        <time>2023-09-30T09:33:51.000Z</time>
      </trkpt>
      <trkpt lat="45.82671" lon="4.64502">
        <ele>367.54166</ele>
        <time>2023-09-30T09:33:52.000Z</time>
      </trkpt>
      <trkpt lat="45.82673" lon="4.64498">
        <ele>368.61649</ele>
        <time>2023-09-30T09:33:53.000Z</time>
      </trkpt>
      <trkpt lat="45.82675" lon="4.64494">
        <ele>367.79474</ele>
        <time>2023-09-30T09:33:54.000Z</time>
      </trkpt>
      <trkpt lat="45.82677" lon="4.64491">
        <ele>368.8277</ele>
        <time>2023-09-30T09:33:55.000Z</time>
      </trkpt>
      <trkpt lat="45.82679" lon="4.64488">
        <ele>369.69382</ele>
        <time>2023-09-30T09:33:56.000Z</time>
      </trkpt>
      <trkpt lat="45.8268" lon="4.64485">
        <ele>370.78986</ele>
        <time>2023-09-30T09:33:57.000Z</time>
      </trkpt>
      <trkpt lat="45.82682" lon="4.64481">
        <ele>371.8486</ele>
        <time>2023-09-30T09:33:58.000Z</time>
      </trkpt>
      <trkpt lat="45.82684" lon="4.64477">
        <ele>372.83975</ele>
        <time>2023-09-30T09:33:59.000Z</time>
      </trkpt>
      <trkpt lat="45.82687" lon="4.64474">
        <ele>371.67963</ele>
        <time>2023-09-30T09:34:00.000Z</time>
      </trkpt>
      <trkpt lat="45.82689" lon="4.64471">
        <ele>373.63544</ele>
        <time>2023-09-30T09:34:01.000Z</time>
      </trkpt>
      <trkpt lat="45.82691" lon="4.64469">
        <ele>374.19788</ele>
        <time>2023-09-30T09:34:02.000Z</time>
      </trkpt>
      <trkpt lat="45.82693" lon="4.64467">
        <ele>376.37396</ele>
        <time>2023-09-30T09:34:03.000Z</time>
      </trkpt>
      <trkpt lat="45.82695" lon="4.64464">
        <ele>376.98492</ele>
        <time>2023-09-30T09:34:04.000Z</time>
      </trkpt>
      <trkpt lat="45.82698" lon="4.64461">
        <ele>377.97351</ele>
        <time>2023-09-30T09:34:05.000Z</time>
      </trkpt>
      <trkpt lat="45.82701" lon="4.64458">
        <ele>376.71454</ele>
        <time>2023-09-30T09:34:06.000Z</time>
      </trkpt>
      <trkpt lat="45.82704" lon="4.64455">
        <ele>377.78775</ele>
        <time>2023-09-30T09:34:07.000Z</time>
      </trkpt>
      <trkpt lat="45.82707" lon="4.64452">
        <ele>378.90466</ele>
        <time>2023-09-30T09:34:08.000Z</time>
      </trkpt>
      <trkpt lat="45.8271" lon="4.6445">
        <ele>380.8811</ele>
        <time>2023-09-30T09:34:09.000Z</time>
      </trkpt>
      <trkpt lat="45.82713" lon="4.64448">
        <ele>382.84729</ele>
        <time>2023-09-30T09:34:10.000Z</time>
      </trkpt>
      <trkpt lat="45.82716" lon="4.64445">
        <ele>384.56223</ele>
        <time>2023-09-30T09:34:11.000Z</time>
      </trkpt>
      <trkpt lat="45.82719" lon="4.64443">
        <ele>385.82294</ele>
        <time>2023-09-30T09:34:12.000Z</time>
      </trkpt>
      <trkpt lat="45.82721" lon="4.6444">
        <ele>387.49869</ele>
        <time>2023-09-30T09:34:13.000Z</time>
      </trkpt>
      <trkpt lat="45.82724" lon="4.64437">
        <ele>389.19403</ele>
        <time>2023-09-30T09:34:14.000Z</time>
      </trkpt>
      <trkpt lat="45.82727" lon="4.64433">
        <ele>390.73206</ele>
        <time>2023-09-30T09:34:15.000Z</time>
      </trkpt>
      <trkpt lat="45.8273" lon="4.6443">
        <ele>392.379</ele>
        <time>2023-09-30T09:34:16.000Z</time>
      </trkpt>
      <trkpt lat="45.82733" lon="4.64426">
        <ele>393.97247</ele>
        <time>2023-09-30T09:34:17.000Z</time>
      </trkpt>
      <trkpt lat="45.82736" lon="4.64422">
        <ele>395.55438</ele>
        <time>2023-09-30T09:34:18.000Z</time>
      </trkpt>
      <trkpt lat="45.8274" lon="4.64419">
        <ele>397.30676</ele>
        <time>2023-09-30T09:34:19.000Z</time>
      </trkpt>
      <trkpt lat="45.82743" lon="4.64416">
        <ele>399.26251</ele>
        <time>2023-09-30T09:34:20.000Z</time>
      </trkpt>
      <trkpt lat="45.82746" lon="4.64411">
        <ele>399.98965</ele>
        <time>2023-09-30T09:34:21.000Z</time>
      </trkpt>
      <trkpt lat="45.82748" lon="4.64407">
        <ele>401.30295</ele>
        <time>2023-09-30T09:34:22.000Z</time>
      </trkpt>
      <trkpt lat="45.82749" lon="4.64403">
        <ele>399.69641</ele>
        <time>2023-09-30T09:34:23.000Z</time>
      </trkpt>
      <trkpt lat="45.82751" lon="4.644">
        <ele>399.96448</ele>
        <time>2023-09-30T09:34:24.000Z</time>
      </trkpt>
      <trkpt lat="45.82754" lon="4.64397">
        <ele>399.40744</ele>
        <time>2023-09-30T09:34:25.000Z</time>
      </trkpt>
      <trkpt lat="45.82758" lon="4.64394">
        <ele>398.84232</ele>
        <time>2023-09-30T09:34:26.000Z</time>
      </trkpt>
      <trkpt lat="45.82762" lon="4.64391">
        <ele>398.05719</ele>
        <time>2023-09-30T09:34:27.000Z</time>
      </trkpt>
      <trkpt lat="45.82765" lon="4.64388">
        <ele>397.20456</ele>
        <time>2023-09-30T09:34:28.000Z</time>
      </trkpt>
      <trkpt lat="45.82768" lon="4.64385">
        <ele>396.0444</ele>
        <time>2023-09-30T09:34:29.000Z</time>
      </trkpt>
      <trkpt lat="45.82771" lon="4.64382">
        <ele>394.85284</ele>
        <time>2023-09-30T09:34:30.000Z</time>
      </trkpt>
      <trkpt lat="45.82774" lon="4.64379">
        <ele>393.8877</ele>
        <time>2023-09-30T09:34:31.000Z</time>
      </trkpt>
      <trkpt lat="45.82777" lon="4.64376">
        <ele>393.06204</ele>
        <time>2023-09-30T09:34:32.000Z</time>
      </trkpt>
      <trkpt lat="45.82781" lon="4.64373">
        <ele>391.6842</ele>
        <time>2023-09-30T09:34:33.000Z</time>
      </trkpt>
      <trkpt lat="45.82784" lon="4.6437">
        <ele>390.85004</ele>
        <time>2023-09-30T09:34:34.000Z</time>
      </trkpt>
      <trkpt lat="45.82787" lon="4.64366">
        <ele>390.17432</ele>
        <time>2023-09-30T09:34:35.000Z</time>
      </trkpt>
      <trkpt lat="45.8279" lon="4.64363">
        <ele>389.51651</ele>
        <time>2023-09-30T09:34:36.000Z</time>
      </trkpt>
      <trkpt lat="45.82793" lon="4.64359">
        <ele>388.78436</ele>
        <time>2023-09-30T09:34:37.000Z</time>
      </trkpt>
      <trkpt lat="45.82795" lon="4.64356">
        <ele>388.39346</ele>
        <time>2023-09-30T09:34:38.000Z</time>
      </trkpt>
      <trkpt lat="45.82798" lon="4.64353">
        <ele>388.09241</ele>
        <time>2023-09-30T09:34:39.000Z</time>
      </trkpt>
      <trkpt lat="45.828" lon="4.64351">
        <ele>387.7774</ele>
        <time>2023-09-30T09:34:40.000Z</time>
      </trkpt>
      <trkpt lat="45.82803" lon="4.64348">
        <ele>385.97052</ele>
        <time>2023-09-30T09:34:41.000Z</time>
      </trkpt>
      <trkpt lat="45.82805" lon="4.64345">
        <ele>385.07855</ele>
        <time>2023-09-30T09:34:42.000Z</time>
      </trkpt>
      <trkpt lat="45.82807" lon="4.64342">
        <ele>385.66675</ele>
        <time>2023-09-30T09:34:43.000Z</time>
      </trkpt>
      <trkpt lat="45.82809" lon="4.64339">
        <ele>385.96854</ele>
        <time>2023-09-30T09:34:44.000Z</time>
      </trkpt>
      <trkpt lat="45.82811" lon="4.64336">
        <ele>386.75653</ele>
        <time>2023-09-30T09:34:45.000Z</time>
      </trkpt>
      <trkpt lat="45.82813" lon="4.64333">
        <ele>387.42719</ele>
        <time>2023-09-30T09:34:46.000Z</time>
      </trkpt>
      <trkpt lat="45.82815" lon="4.64329">
        <ele>388.06836</ele>
        <time>2023-09-30T09:34:47.000Z</time>
      </trkpt>
      <trkpt lat="45.82815" lon="4.64324">
        <ele>388.75345</ele>
        <time>2023-09-30T09:34:48.000Z</time>
      </trkpt>
      <trkpt lat="45.82816" lon="4.64319">
        <ele>388.99142</ele>
        <time>2023-09-30T09:34:49.000Z</time>
      </trkpt>
      <trkpt lat="45.82817" lon="4.64315">
        <ele>389.37003</ele>
        <time>2023-09-30T09:34:50.000Z</time>
      </trkpt>
      <trkpt lat="45.82819" lon="4.64312">
        <ele>388.41248</ele>
        <time>2023-09-30T09:34:51.000Z</time>
      </trkpt>
      <trkpt lat="45.82821" lon="4.64309">
        <ele>387.34344</ele>
        <time>2023-09-30T09:34:52.000Z</time>
      </trkpt>
      <trkpt lat="45.82824" lon="4.64307">
        <ele>387.64993</ele>
        <time>2023-09-30T09:34:53.000Z</time>
      </trkpt>
      <trkpt lat="45.82826" lon="4.64305">
        <ele>387.30408</ele>
        <time>2023-09-30T09:34:54.000Z</time>
      </trkpt>
      <trkpt lat="45.82829" lon="4.64303">
        <ele>386.91373</ele>
        <time>2023-09-30T09:34:55.000Z</time>
      </trkpt>
      <trkpt lat="45.82831" lon="4.64299">
        <ele>386.61667</ele>
        <time>2023-09-30T09:34:56.000Z</time>
      </trkpt>
      <trkpt lat="45.82834" lon="4.64296">
        <ele>386.33572</ele>
        <time>2023-09-30T09:34:57.000Z</time>
      </trkpt>
      <trkpt lat="45.82836" lon="4.64293">
        <ele>385.71759</ele>
        <time>2023-09-30T09:34:58.000Z</time>
      </trkpt>
      <trkpt lat="45.82839" lon="4.6429">
        <ele>384.81891</ele>
        <time>2023-09-30T09:34:59.000Z</time>
      </trkpt>
      <trkpt lat="45.82841" lon="4.64287">
        <ele>383.85278</ele>
        <time>2023-09-30T09:35:00.000Z</time>
      </trkpt>
      <trkpt lat="45.82843" lon="4.64284">
        <ele>384.45087</ele>
        <time>2023-09-30T09:35:01.000Z</time>
      </trkpt>
      <trkpt lat="45.82846" lon="4.6428">
        <ele>385.85156</ele>
        <time>2023-09-30T09:35:02.000Z</time>
      </trkpt>
      <trkpt lat="45.82848" lon="4.64277">
        <ele>385.96832</ele>
        <time>2023-09-30T09:35:03.000Z</time>
      </trkpt>
      <trkpt lat="45.82851" lon="4.64275">
        <ele>386.03543</ele>
        <time>2023-09-30T09:35:04.000Z</time>
      </trkpt>
      <trkpt lat="45.82853" lon="4.64272">
        <ele>386.26559</ele>
        <time>2023-09-30T09:35:05.000Z</time>
      </trkpt>
      <trkpt lat="45.82856" lon="4.64269">
        <ele>386.57513</ele>
        <time>2023-09-30T09:35:06.000Z</time>
      </trkpt>
      <trkpt lat="45.82858" lon="4.64267">
        <ele>386.92603</ele>
        <time>2023-09-30T09:35:07.000Z</time>
      </trkpt>
      <trkpt lat="45.8286" lon="4.64264">
        <ele>387.15387</ele>
        <time>2023-09-30T09:35:08.000Z</time>
      </trkpt>
      <trkpt lat="45.82862" lon="4.64262">
        <ele>387.36557</ele>
        <time>2023-09-30T09:35:09.000Z</time>
      </trkpt>
      <trkpt lat="45.82865" lon="4.64258">
        <ele>387.54782</ele>
        <time>2023-09-30T09:35:10.000Z</time>
      </trkpt>
      <trkpt lat="45.82867" lon="4.64256">
        <ele>389.07831</ele>
        <time>2023-09-30T09:35:11.000Z</time>
      </trkpt>
      <trkpt lat="45.8287" lon="4.64253">
        <ele>390.70898</ele>
        <time>2023-09-30T09:35:12.000Z</time>
      </trkpt>
      <trkpt lat="45.82872" lon="4.64251">
        <ele>390.89935</ele>
        <time>2023-09-30T09:35:13.000Z</time>
      </trkpt>
      <trkpt lat="45.82874" lon="4.64248">
        <ele>391.07993</ele>
        <time>2023-09-30T09:35:14.000Z</time>
      </trkpt>
      <trkpt lat="45.82876" lon="4.64244">
        <ele>391.28674</ele>
        <time>2023-09-30T09:35:15.000Z</time>
      </trkpt>
      <trkpt lat="45.82878" lon="4.64241">
        <ele>391.42551</ele>
        <time>2023-09-30T09:35:16.000Z</time>
      </trkpt>
      <trkpt lat="45.82881" lon="4.64238">
        <ele>392.38873</ele>
        <time>2023-09-30T09:35:17.000Z</time>
      </trkpt>
      <trkpt lat="45.82883" lon="4.64236">
        <ele>393.36066</ele>
        <time>2023-09-30T09:35:18.000Z</time>
      </trkpt>
      <trkpt lat="45.82886" lon="4.64233">
        <ele>394.38437</ele>
        <time>2023-09-30T09:35:19.000Z</time>
      </trkpt>
      <trkpt lat="45.82889" lon="4.64231">
        <ele>395.45737</ele>
        <time>2023-09-30T09:35:20.000Z</time>
      </trkpt>
      <trkpt lat="45.82891" lon="4.64228">
        <ele>396.65579</ele>
        <time>2023-09-30T09:35:21.000Z</time>
      </trkpt>
      <trkpt lat="45.82894" lon="4.64225">
        <ele>397.07086</ele>
        <time>2023-09-30T09:35:22.000Z</time>
      </trkpt>
      <trkpt lat="45.82896" lon="4.64221">
        <ele>397.26337</ele>
        <time>2023-09-30T09:35:23.000Z</time>
      </trkpt>
      <trkpt lat="45.82899" lon="4.64219">
        <ele>397.58926</ele>
        <time>2023-09-30T09:35:24.000Z</time>
      </trkpt>
      <trkpt lat="45.82901" lon="4.64216">
        <ele>397.74734</ele>
        <time>2023-09-30T09:35:25.000Z</time>
      </trkpt>
      <trkpt lat="45.82903" lon="4.64213">
        <ele>397.88312</ele>
        <time>2023-09-30T09:35:26.000Z</time>
      </trkpt>
      <trkpt lat="45.82905" lon="4.6421">
        <ele>398.10294</ele>
        <time>2023-09-30T09:35:27.000Z</time>
      </trkpt>
      <trkpt lat="45.82908" lon="4.64207">
        <ele>398.38181</ele>
        <time>2023-09-30T09:35:28.000Z</time>
      </trkpt>
      <trkpt lat="45.8291" lon="4.64204">
        <ele>398.64398</ele>
        <time>2023-09-30T09:35:29.000Z</time>
      </trkpt>
      <trkpt lat="45.82913" lon="4.64201">
        <ele>398.8298</ele>
        <time>2023-09-30T09:35:30.000Z</time>
      </trkpt>
      <trkpt lat="45.82915" lon="4.64198">
        <ele>399.81525</ele>
        <time>2023-09-30T09:35:31.000Z</time>
      </trkpt>
      <trkpt lat="45.82918" lon="4.64196">
        <ele>400.79092</ele>
        <time>2023-09-30T09:35:32.000Z</time>
      </trkpt>
      <trkpt lat="45.8292" lon="4.64193">
        <ele>401.27295</ele>
        <time>2023-09-30T09:35:33.000Z</time>
      </trkpt>
      <trkpt lat="45.82923" lon="4.6419">
        <ele>401.72702</ele>
        <time>2023-09-30T09:35:34.000Z</time>
      </trkpt>
      <trkpt lat="45.82925" lon="4.64187">
        <ele>402.22159</ele>
        <time>2023-09-30T09:35:35.000Z</time>
      </trkpt>
      <trkpt lat="45.82928" lon="4.64184">
        <ele>402.70532</ele>
        <time>2023-09-30T09:35:36.000Z</time>
      </trkpt>
      <trkpt lat="45.82931" lon="4.64181">
        <ele>402.37396</ele>
        <time>2023-09-30T09:35:37.000Z</time>
      </trkpt>
      <trkpt lat="45.82933" lon="4.64179">
        <ele>398.79059</ele>
        <time>2023-09-30T09:35:38.000Z</time>
      </trkpt>
      <trkpt lat="45.82936" lon="4.64177">
        <ele>398.20697</ele>
        <time>2023-09-30T09:35:39.000Z</time>
      </trkpt>
      <trkpt lat="45.82939" lon="4.64175">
        <ele>397.46918</ele>
        <time>2023-09-30T09:35:40.000Z</time>
      </trkpt>
      <trkpt lat="45.82942" lon="4.64172">
        <ele>396.60004</ele>
        <time>2023-09-30T09:35:41.000Z</time>
      </trkpt>
      <trkpt lat="45.82945" lon="4.6417">
        <ele>395.54071</ele>
        <time>2023-09-30T09:35:42.000Z</time>
      </trkpt>
      <trkpt lat="45.82948" lon="4.64168">
        <ele>396.44647</ele>
        <time>2023-09-30T09:35:43.000Z</time>
      </trkpt>
      <trkpt lat="45.82951" lon="4.64166">
        <ele>396.64447</ele>
        <time>2023-09-30T09:35:44.000Z</time>
      </trkpt>
      <trkpt lat="45.82954" lon="4.64164">
        <ele>396.78766</ele>
        <time>2023-09-30T09:35:45.000Z</time>
      </trkpt>
      <trkpt lat="45.82957" lon="4.64162">
        <ele>396.95938</ele>
        <time>2023-09-30T09:35:46.000Z</time>
      </trkpt>
      <trkpt lat="45.82959" lon="4.64161">
        <ele>397.03937</ele>
        <time>2023-09-30T09:35:47.000Z</time>
      </trkpt>
      <trkpt lat="45.82962" lon="4.64159">
        <ele>397.12592</ele>
        <time>2023-09-30T09:35:48.000Z</time>
      </trkpt>
      <trkpt lat="45.82965" lon="4.64157">
        <ele>394.18597</ele>
        <time>2023-09-30T09:35:49.000Z</time>
      </trkpt>
      <trkpt lat="45.82968" lon="4.64155">
        <ele>394.10843</ele>
        <time>2023-09-30T09:35:50.000Z</time>
      </trkpt>
      <trkpt lat="45.82971" lon="4.64153">
        <ele>393.21329</ele>
        <time>2023-09-30T09:35:51.000Z</time>
      </trkpt>
      <trkpt lat="45.82973" lon="4.64152">
        <ele>392.26401</ele>
        <time>2023-09-30T09:35:52.000Z</time>
      </trkpt>
      <trkpt lat="45.82976" lon="4.6415">
        <ele>392.23758</ele>
        <time>2023-09-30T09:35:53.000Z</time>
      </trkpt>
      <trkpt lat="45.82979" lon="4.64148">
        <ele>392.1767</ele>
        <time>2023-09-30T09:35:54.000Z</time>
      </trkpt>
      <trkpt lat="45.82982" lon="4.64147">
        <ele>392.09488</ele>
        <time>2023-09-30T09:35:55.000Z</time>
      </trkpt>
      <trkpt lat="45.82985" lon="4.64146">
        <ele>391.92804</ele>
        <time>2023-09-30T09:35:56.000Z</time>
      </trkpt>
      <trkpt lat="45.82988" lon="4.64145">
        <ele>392.33795</ele>
        <time>2023-09-30T09:35:57.000Z</time>
      </trkpt>
      <trkpt lat="45.82991" lon="4.64144">
        <ele>396.31192</ele>
        <time>2023-09-30T09:35:58.000Z</time>
      </trkpt>
      <trkpt lat="45.82994" lon="4.64144">
        <ele>397.30182</ele>
        <time>2023-09-30T09:35:59.000Z</time>
      </trkpt>
      <trkpt lat="45.82998" lon="4.64142">
        <ele>398.56354</ele>
        <time>2023-09-30T09:36:00.000Z</time>
      </trkpt>
      <trkpt lat="45.83001" lon="4.64141">
        <ele>398.55118</ele>
        <time>2023-09-30T09:36:01.000Z</time>
      </trkpt>
      <trkpt lat="45.83004" lon="4.6414">
        <ele>398.79898</ele>
        <time>2023-09-30T09:36:02.000Z</time>
      </trkpt>
      <trkpt lat="45.83007" lon="4.64138">
        <ele>398.53491</ele>
        <time>2023-09-30T09:36:03.000Z</time>
      </trkpt>
      <trkpt lat="45.83011" lon="4.64137">
        <ele>398.83282</ele>
        <time>2023-09-30T09:36:04.000Z</time>
      </trkpt>
      <trkpt lat="45.83014" lon="4.64135">
        <ele>399.10394</ele>
        <time>2023-09-30T09:36:05.000Z</time>
      </trkpt>
      <trkpt lat="45.83017" lon="4.64134">
        <ele>397.9848</ele>
        <time>2023-09-30T09:36:06.000Z</time>
      </trkpt>
      <trkpt lat="45.8302" lon="4.64132">
        <ele>396.85855</ele>
        <time>2023-09-30T09:36:07.000Z</time>
      </trkpt>
      <trkpt lat="45.83023" lon="4.64131">
        <ele>395.72812</ele>
        <time>2023-09-30T09:36:08.000Z</time>
      </trkpt>
      <trkpt lat="45.83026" lon="4.64129">
        <ele>397.65359</ele>
        <time>2023-09-30T09:36:09.000Z</time>
      </trkpt>
      <trkpt lat="45.83029" lon="4.64127">
        <ele>396.70883</ele>
        <time>2023-09-30T09:36:10.000Z</time>
      </trkpt>
      <trkpt lat="45.83032" lon="4.64125">
        <ele>395.83588</ele>
        <time>2023-09-30T09:36:11.000Z</time>
      </trkpt>
      <trkpt lat="45.83035" lon="4.64123">
        <ele>394.98978</ele>
        <time>2023-09-30T09:36:12.000Z</time>
      </trkpt>
      <trkpt lat="45.83038" lon="4.64121">
        <ele>393.76746</ele>
        <time>2023-09-30T09:36:13.000Z</time>
      </trkpt>
      <trkpt lat="45.83041" lon="4.64119">
        <ele>392.57382</ele>
        <time>2023-09-30T09:36:14.000Z</time>
      </trkpt>
      <trkpt lat="45.83044" lon="4.64117">
        <ele>391.36755</ele>
        <time>2023-09-30T09:36:15.000Z</time>
      </trkpt>
      <trkpt lat="45.83047" lon="4.64115">
        <ele>390.23834</ele>
        <time>2023-09-30T09:36:16.000Z</time>
      </trkpt>
      <trkpt lat="45.8305" lon="4.64113">
        <ele>388.53305</ele>
        <time>2023-09-30T09:36:17.000Z</time>
      </trkpt>
      <trkpt lat="45.83053" lon="4.6411">
        <ele>386.76996</ele>
        <time>2023-09-30T09:36:18.000Z</time>
      </trkpt>
      <trkpt lat="45.83056" lon="4.64107">
        <ele>384.9903</ele>
        <time>2023-09-30T09:36:19.000Z</time>
      </trkpt>
      <trkpt lat="45.83059" lon="4.64105">
        <ele>383.03036</ele>
        <time>2023-09-30T09:36:20.000Z</time>
      </trkpt>
      <trkpt lat="45.83061" lon="4.64102">
        <ele>381.90613</ele>
        <time>2023-09-30T09:36:21.000Z</time>
      </trkpt>
      <trkpt lat="45.83064" lon="4.64099">
        <ele>380.60846</ele>
        <time>2023-09-30T09:36:22.000Z</time>
      </trkpt>
      <trkpt lat="45.83067" lon="4.64097">
        <ele>379.37738</ele>
        <time>2023-09-30T09:36:23.000Z</time>
      </trkpt>
      <trkpt lat="45.83069" lon="4.64095">
        <ele>378.09961</ele>
        <time>2023-09-30T09:36:24.000Z</time>
      </trkpt>
      <trkpt lat="45.83072" lon="4.64093">
        <ele>376.83572</ele>
        <time>2023-09-30T09:36:25.000Z</time>
      </trkpt>
      <trkpt lat="45.83075" lon="4.64091">
        <ele>376.94415</ele>
        <time>2023-09-30T09:36:26.000Z</time>
      </trkpt>
      <trkpt lat="45.83079" lon="4.64089">
        <ele>377.06842</ele>
        <time>2023-09-30T09:36:27.000Z</time>
      </trkpt>
      <trkpt lat="45.83082" lon="4.64087">
        <ele>377.09268</ele>
        <time>2023-09-30T09:36:28.000Z</time>
      </trkpt>
      <trkpt lat="45.83085" lon="4.64085">
        <ele>377.10651</ele>
        <time>2023-09-30T09:36:29.000Z</time>
      </trkpt>
      <trkpt lat="45.83089" lon="4.64083">
        <ele>377.13153</ele>
        <time>2023-09-30T09:36:30.000Z</time>
      </trkpt>
      <trkpt lat="45.83092" lon="4.64081">
        <ele>375.86609</ele>
        <time>2023-09-30T09:36:31.000Z</time>
      </trkpt>
      <trkpt lat="45.83095" lon="4.64079">
        <ele>374.62546</ele>
        <time>2023-09-30T09:36:32.000Z</time>
      </trkpt>
      <trkpt lat="45.83098" lon="4.64077">
        <ele>373.40866</ele>
        <time>2023-09-30T09:36:33.000Z</time>
      </trkpt>
      <trkpt lat="45.83102" lon="4.64075">
        <ele>372.20218</ele>
        <time>2023-09-30T09:36:34.000Z</time>
      </trkpt>
      <trkpt lat="45.83105" lon="4.64073">
        <ele>371.00635</ele>
        <time>2023-09-30T09:36:35.000Z</time>
      </trkpt>
      <trkpt lat="45.83109" lon="4.6407">
        <ele>370.99774</ele>
        <time>2023-09-30T09:36:36.000Z</time>
      </trkpt>
      <trkpt lat="45.83112" lon="4.64068">
        <ele>370.97662</ele>
        <time>2023-09-30T09:36:37.000Z</time>
      </trkpt>
      <trkpt lat="45.83115" lon="4.64066">
        <ele>370.702</ele>
        <time>2023-09-30T09:36:38.000Z</time>
      </trkpt>
      <trkpt lat="45.83117" lon="4.64063">
        <ele>370.44522</ele>
        <time>2023-09-30T09:36:39.000Z</time>
      </trkpt>
      <trkpt lat="45.83121" lon="4.64061">
        <ele>370.13715</ele>
        <time>2023-09-30T09:36:40.000Z</time>
      </trkpt>
      <trkpt lat="45.83124" lon="4.6406">
        <ele>370.25665</ele>
        <time>2023-09-30T09:36:41.000Z</time>
      </trkpt>
      <trkpt lat="45.83127" lon="4.64058">
        <ele>370.34073</ele>
        <time>2023-09-30T09:36:42.000Z</time>
      </trkpt>
      <trkpt lat="45.8313" lon="4.64056">
        <ele>370.35443</ele>
        <time>2023-09-30T09:36:43.000Z</time>
      </trkpt>
      <trkpt lat="45.83133" lon="4.64054">
        <ele>370.39236</ele>
        <time>2023-09-30T09:36:44.000Z</time>
      </trkpt>
      <trkpt lat="45.83136" lon="4.64051">
        <ele>370.4476</ele>
        <time>2023-09-30T09:36:45.000Z</time>
      </trkpt>
      <trkpt lat="45.83139" lon="4.64049">
        <ele>370.50079</ele>
        <time>2023-09-30T09:36:46.000Z</time>
      </trkpt>
      <trkpt lat="45.83142" lon="4.64047">
        <ele>370.53229</ele>
        <time>2023-09-30T09:36:47.000Z</time>
      </trkpt>
      <trkpt lat="45.83145" lon="4.64044">
        <ele>370.66907</ele>
        <time>2023-09-30T09:36:48.000Z</time>
      </trkpt>
      <trkpt lat="45.83148" lon="4.64042">
        <ele>370.79303</ele>
        <time>2023-09-30T09:36:49.000Z</time>
      </trkpt>
      <trkpt lat="45.83151" lon="4.64039">
        <ele>370.88416</ele>
        <time>2023-09-30T09:36:50.000Z</time>
      </trkpt>
      <trkpt lat="45.83154" lon="4.64037">
        <ele>372.17548</ele>
        <time>2023-09-30T09:36:51.000Z</time>
      </trkpt>
      <trkpt lat="45.83157" lon="4.64035">
        <ele>373.48663</ele>
        <time>2023-09-30T09:36:52.000Z</time>
      </trkpt>
      <trkpt lat="45.83159" lon="4.64033">
        <ele>374.81198</ele>
        <time>2023-09-30T09:36:53.000Z</time>
      </trkpt>
      <trkpt lat="45.83162" lon="4.64031">
        <ele>376.1217</ele>
        <time>2023-09-30T09:36:54.000Z</time>
      </trkpt>
      <trkpt lat="45.83165" lon="4.64029">
        <ele>377.46088</ele>
        <time>2023-09-30T09:36:55.000Z</time>
      </trkpt>
      <trkpt lat="45.83168" lon="4.64027">
        <ele>377.78421</ele>
        <time>2023-09-30T09:36:56.000Z</time>
      </trkpt>
      <trkpt lat="45.83171" lon="4.64025">
        <ele>378.1308</ele>
        <time>2023-09-30T09:36:57.000Z</time>
      </trkpt>
      <trkpt lat="45.83174" lon="4.64023">
        <ele>378.19693</ele>
        <time>2023-09-30T09:36:58.000Z</time>
      </trkpt>
      <trkpt lat="45.83177" lon="4.64021">
        <ele>378.26959</ele>
        <time>2023-09-30T09:36:59.000Z</time>
      </trkpt>
      <trkpt lat="45.8318" lon="4.64018">
        <ele>378.3342</ele>
        <time>2023-09-30T09:37:00.000Z</time>
      </trkpt>
      <trkpt lat="45.83183" lon="4.64017">
        <ele>378.58975</ele>
        <time>2023-09-30T09:37:01.000Z</time>
      </trkpt>
      <trkpt lat="45.83185" lon="4.64016">
        <ele>378.77582</ele>
        <time>2023-09-30T09:37:02.000Z</time>
      </trkpt>
      <trkpt lat="45.83188" lon="4.64019">
        <ele>378.9967</ele>
        <time>2023-09-30T09:37:04.000Z</time>
      </trkpt>
      <trkpt lat="45.83188" lon="4.64023">
        <ele>378.92953</ele>
        <time>2023-09-30T09:37:05.000Z</time>
      </trkpt>
      <trkpt lat="45.83187" lon="4.64027">
        <ele>378.8873</ele>
        <time>2023-09-30T09:37:06.000Z</time>
      </trkpt>
      <trkpt lat="45.83186" lon="4.64032">
        <ele>378.84467</ele>
        <time>2023-09-30T09:37:07.000Z</time>
      </trkpt>
      <trkpt lat="45.83184" lon="4.64036">
        <ele>378.79404</ele>
        <time>2023-09-30T09:37:08.000Z</time>
      </trkpt>
      <trkpt lat="45.83183" lon="4.64041">
        <ele>378.71515</ele>
        <time>2023-09-30T09:37:09.000Z</time>
      </trkpt>
      <trkpt lat="45.83181" lon="4.64046">
        <ele>378.61475</ele>
        <time>2023-09-30T09:37:10.000Z</time>
      </trkpt>
      <trkpt lat="45.83179" lon="4.64051">
        <ele>378.49945</ele>
        <time>2023-09-30T09:37:11.000Z</time>
      </trkpt>
      <trkpt lat="45.83176" lon="4.64058">
        <ele>378.40454</ele>
        <time>2023-09-30T09:37:12.000Z</time>
      </trkpt>
      <trkpt lat="45.83175" lon="4.64064">
        <ele>378.2644</ele>
        <time>2023-09-30T09:37:13.000Z</time>
      </trkpt>
      <trkpt lat="45.83172" lon="4.6407">
        <ele>378.13959</ele>
        <time>2023-09-30T09:37:14.000Z</time>
      </trkpt>
      <trkpt lat="45.8317" lon="4.64077">
        <ele>378.1994</ele>
        <time>2023-09-30T09:37:15.000Z</time>
      </trkpt>
      <trkpt lat="45.83167" lon="4.64083">
        <ele>378.22223</ele>
        <time>2023-09-30T09:37:16.000Z</time>
      </trkpt>
      <trkpt lat="45.83164" lon="4.64091">
        <ele>378.07733</ele>
        <time>2023-09-30T09:37:17.000Z</time>
      </trkpt>
      <trkpt lat="45.83161" lon="4.64099">
        <ele>377.91592</ele>
        <time>2023-09-30T09:37:18.000Z</time>
      </trkpt>
      <trkpt lat="45.83159" lon="4.64107">
        <ele>377.68179</ele>
        <time>2023-09-30T09:37:19.000Z</time>
      </trkpt>
      <trkpt lat="45.83155" lon="4.64114">
        <ele>377.55389</ele>
        <time>2023-09-30T09:37:20.000Z</time>
      </trkpt>
      <trkpt lat="45.83152" lon="4.64122">
        <ele>377.27084</ele>
        <time>2023-09-30T09:37:21.000Z</time>
      </trkpt>
      <trkpt lat="45.83149" lon="4.6413">
        <ele>376.74567</ele>
        <time>2023-09-30T09:37:22.000Z</time>
      </trkpt>
      <trkpt lat="45.83146" lon="4.64139">
        <ele>376.24115</ele>
        <time>2023-09-30T09:37:23.000Z</time>
      </trkpt>
      <trkpt lat="45.83143" lon="4.64148">
        <ele>375.67325</ele>
        <time>2023-09-30T09:37:24.000Z</time>
      </trkpt>
      <trkpt lat="45.83139" lon="4.64157">
        <ele>375.40656</ele>
        <time>2023-09-30T09:37:25.000Z</time>
      </trkpt>
      <trkpt lat="45.83136" lon="4.64167">
        <ele>375.08533</ele>
        <time>2023-09-30T09:37:26.000Z</time>
      </trkpt>
      <trkpt lat="45.83132" lon="4.64177">
        <ele>374.79376</ele>
        <time>2023-09-30T09:37:27.000Z</time>
      </trkpt>
      <trkpt lat="45.83128" lon="4.64186">
        <ele>374.51495</ele>
        <time>2023-09-30T09:37:28.000Z</time>
      </trkpt>
      <trkpt lat="45.83124" lon="4.64195">
        <ele>374.23557</ele>
        <time>2023-09-30T09:37:29.000Z</time>
      </trkpt>
      <trkpt lat="45.8312" lon="4.64206">
        <ele>373.94299</ele>
        <time>2023-09-30T09:37:30.000Z</time>
      </trkpt>
      <trkpt lat="45.83116" lon="4.64217">
        <ele>373.66138</ele>
        <time>2023-09-30T09:37:31.000Z</time>
      </trkpt>
      <trkpt lat="45.83113" lon="4.64228">
        <ele>373.5657</ele>
        <time>2023-09-30T09:37:32.000Z</time>
      </trkpt>
      <trkpt lat="45.83109" lon="4.64239">
        <ele>373.52008</ele>
        <time>2023-09-30T09:37:33.000Z</time>
      </trkpt>
      <trkpt lat="45.83105" lon="4.6425">
        <ele>373.45926</ele>
        <time>2023-09-30T09:37:34.000Z</time>
      </trkpt>
      <trkpt lat="45.83101" lon="4.64262">
        <ele>372.78339</ele>
        <time>2023-09-30T09:37:35.000Z</time>
      </trkpt>
      <trkpt lat="45.83097" lon="4.64273">
        <ele>372.18964</ele>
        <time>2023-09-30T09:37:36.000Z</time>
      </trkpt>
      <trkpt lat="45.83092" lon="4.64284">
        <ele>371.54791</ele>
        <time>2023-09-30T09:37:37.000Z</time>
      </trkpt>
      <trkpt lat="45.83088" lon="4.64294">
        <ele>370.83917</ele>
        <time>2023-09-30T09:37:38.000Z</time>
      </trkpt>
      <trkpt lat="45.83084" lon="4.64305">
        <ele>370.4726</ele>
        <time>2023-09-30T09:37:39.000Z</time>
      </trkpt>
      <trkpt lat="45.83079" lon="4.64316">
        <ele>369.98145</ele>
        <time>2023-09-30T09:37:40.000Z</time>
      </trkpt>
      <trkpt lat="45.83076" lon="4.64327">
        <ele>369.638</ele>
        <time>2023-09-30T09:37:41.000Z</time>
      </trkpt>
      <trkpt lat="45.83073" lon="4.64339">
        <ele>369.30267</ele>
        <time>2023-09-30T09:37:42.000Z</time>
      </trkpt>
      <trkpt lat="45.83068" lon="4.6435">
        <ele>368.93939</ele>
        <time>2023-09-30T09:37:43.000Z</time>
      </trkpt>
      <trkpt lat="45.83064" lon="4.6436">
        <ele>368.58075</ele>
        <time>2023-09-30T09:37:44.000Z</time>
      </trkpt>
      <trkpt lat="45.8306" lon="4.64369">
        <ele>368.23648</ele>
        <time>2023-09-30T09:37:45.000Z</time>
      </trkpt>
      <trkpt lat="45.83056" lon="4.64379">
        <ele>367.91919</ele>
        <time>2023-09-30T09:37:46.000Z</time>
      </trkpt>
      <trkpt lat="45.83052" lon="4.64388">
        <ele>367.55417</ele>
        <time>2023-09-30T09:37:47.000Z</time>
      </trkpt>
      <trkpt lat="45.83048" lon="4.64398">
        <ele>367.18939</ele>
        <time>2023-09-30T09:37:48.000Z</time>
      </trkpt>
      <trkpt lat="45.83044" lon="4.64406">
        <ele>367.02399</ele>
        <time>2023-09-30T09:37:49.000Z</time>
      </trkpt>
      <trkpt lat="45.8304" lon="4.64415">
        <ele>366.98193</ele>
        <time>2023-09-30T09:37:50.000Z</time>
      </trkpt>
      <trkpt lat="45.83037" lon="4.64424">
        <ele>367.03537</ele>
        <time>2023-09-30T09:37:51.000Z</time>
      </trkpt>
      <trkpt lat="45.83034" lon="4.6443">
        <ele>366.43365</ele>
        <time>2023-09-30T09:37:52.000Z</time>
      </trkpt>
      <trkpt lat="45.83032" lon="4.64435">
        <ele>365.86743</ele>
        <time>2023-09-30T09:37:53.000Z</time>
      </trkpt>
      <trkpt lat="45.83031" lon="4.64437">
        <ele>365.32681</ele>
        <time>2023-09-30T09:37:54.000Z</time>
      </trkpt>
      <trkpt lat="45.83029" lon="4.64441">
        <ele>365.20294</ele>
        <time>2023-09-30T09:37:55.000Z</time>
      </trkpt>
      <trkpt lat="45.8303" lon="4.64444">
        <ele>365.00699</ele>
        <time>2023-09-30T09:37:56.000Z</time>
      </trkpt>
      <trkpt lat="45.83032" lon="4.64445">
        <ele>364.82294</ele>
        <time>2023-09-30T09:37:57.000Z</time>
      </trkpt>
      <trkpt lat="45.83034" lon="4.64445">
        <ele>364.61844</ele>
        <time>2023-09-30T09:37:58.000Z</time>
      </trkpt>
      <trkpt lat="45.83037" lon="4.64446">
        <ele>364.43802</ele>
        <time>2023-09-30T09:37:59.000Z</time>
      </trkpt>
      <trkpt lat="45.8304" lon="4.64444">
        <ele>364.2919</ele>
        <time>2023-09-30T09:38:00.000Z</time>
      </trkpt>
      <trkpt lat="45.83044" lon="4.64444">
        <ele>364.18356</ele>
        <time>2023-09-30T09:38:01.000Z</time>
      </trkpt>
      <trkpt lat="45.83046" lon="4.64443">
        <ele>364.09937</ele>
        <time>2023-09-30T09:38:02.000Z</time>
      </trkpt>
      <trkpt lat="45.83049" lon="4.64443">
        <ele>364.02435</ele>
        <time>2023-09-30T09:38:03.000Z</time>
      </trkpt>
      <trkpt lat="45.83052" lon="4.64443">
        <ele>363.99161</ele>
        <time>2023-09-30T09:38:04.000Z</time>
      </trkpt>
      <trkpt lat="45.83055" lon="4.64444">
        <ele>363.89499</ele>
        <time>2023-09-30T09:38:05.000Z</time>
      </trkpt>
      <trkpt lat="45.83057" lon="4.64444">
        <ele>362.61685</ele>
        <time>2023-09-30T09:38:06.000Z</time>
      </trkpt>
      <trkpt lat="45.8306" lon="4.64445">
        <ele>361.41843</ele>
        <time>2023-09-30T09:38:07.000Z</time>
      </trkpt>
      <trkpt lat="45.83063" lon="4.64445">
        <ele>360.20917</ele>
        <time>2023-09-30T09:38:08.000Z</time>
      </trkpt>
      <trkpt lat="45.83066" lon="4.64445">
        <ele>358.87485</ele>
        <time>2023-09-30T09:38:09.000Z</time>
      </trkpt>
      <trkpt lat="45.83069" lon="4.64445">
        <ele>357.45551</ele>
        <time>2023-09-30T09:38:10.000Z</time>
      </trkpt>
      <trkpt lat="45.83072" lon="4.64445">
        <ele>355.95871</ele>
        <time>2023-09-30T09:38:11.000Z</time>
      </trkpt>
      <trkpt lat="45.83074" lon="4.64444">
        <ele>354.93668</ele>
        <time>2023-09-30T09:38:12.000Z</time>
      </trkpt>
      <trkpt lat="45.83078" lon="4.64444">
        <ele>353.62057</ele>
        <time>2023-09-30T09:38:14.000Z</time>
      </trkpt>
      <trkpt lat="45.83082" lon="4.64444">
        <ele>352.28638</ele>
        <time>2023-09-30T09:38:15.000Z</time>
      </trkpt>
      <trkpt lat="45.83085" lon="4.64443">
        <ele>350.9227</ele>
        <time>2023-09-30T09:38:16.000Z</time>
      </trkpt>
      <trkpt lat="45.83088" lon="4.64442">
        <ele>349.95514</ele>
        <time>2023-09-30T09:38:17.000Z</time>
      </trkpt>
      <trkpt lat="45.83091" lon="4.64442">
        <ele>348.59128</ele>
        <time>2023-09-30T09:38:18.000Z</time>
      </trkpt>
      <trkpt lat="45.83095" lon="4.64441">
        <ele>348.8284</ele>
        <time>2023-09-30T09:38:19.000Z</time>
      </trkpt>
      <trkpt lat="45.83098" lon="4.64441">
        <ele>349.04443</ele>
        <time>2023-09-30T09:38:20.000Z</time>
      </trkpt>
      <trkpt lat="45.83101" lon="4.6444">
        <ele>349.28772</ele>
        <time>2023-09-30T09:38:21.000Z</time>
      </trkpt>
      <trkpt lat="45.83104" lon="4.6444">
        <ele>349.5025</ele>
        <time>2023-09-30T09:38:22.000Z</time>
      </trkpt>
      <trkpt lat="45.83108" lon="4.6444">
        <ele>349.73236</ele>
        <time>2023-09-30T09:38:23.000Z</time>
      </trkpt>
      <trkpt lat="45.83111" lon="4.64439">
        <ele>350.00186</ele>
        <time>2023-09-30T09:38:24.000Z</time>
      </trkpt>
      <trkpt lat="45.83114" lon="4.64439">
        <ele>350.24329</ele>
        <time>2023-09-30T09:38:25.000Z</time>
      </trkpt>
      <trkpt lat="45.83118" lon="4.64439">
        <ele>350.82855</ele>
        <time>2023-09-30T09:38:26.000Z</time>
      </trkpt>
      <trkpt lat="45.83121" lon="4.64439">
        <ele>352.62762</ele>
        <time>2023-09-30T09:38:27.000Z</time>
      </trkpt>
      <trkpt lat="45.83125" lon="4.64438">
        <ele>354.48346</ele>
        <time>2023-09-30T09:38:28.000Z</time>
      </trkpt>
      <trkpt lat="45.83128" lon="4.64438">
        <ele>356.01593</ele>
        <time>2023-09-30T09:38:29.000Z</time>
      </trkpt>
      <trkpt lat="45.83131" lon="4.64438">
        <ele>357.57236</ele>
        <time>2023-09-30T09:38:30.000Z</time>
      </trkpt>
      <trkpt lat="45.83135" lon="4.64438">
        <ele>359.09589</ele>
        <time>2023-09-30T09:38:31.000Z</time>
      </trkpt>
      <trkpt lat="45.83138" lon="4.64437">
        <ele>360.24075</ele>
        <time>2023-09-30T09:38:32.000Z</time>
      </trkpt>
      <trkpt lat="45.83141" lon="4.64437">
        <ele>361.41086</ele>
        <time>2023-09-30T09:38:33.000Z</time>
      </trkpt>
      <trkpt lat="45.83145" lon="4.64437">
        <ele>362.8457</ele>
        <time>2023-09-30T09:38:34.000Z</time>
      </trkpt>
      <trkpt lat="45.83148" lon="4.64437">
        <ele>364.26462</ele>
        <time>2023-09-30T09:38:35.000Z</time>
      </trkpt>
      <trkpt lat="45.83151" lon="4.64437">
        <ele>365.71677</ele>
        <time>2023-09-30T09:38:36.000Z</time>
      </trkpt>
      <trkpt lat="45.83154" lon="4.64437">
        <ele>366.78006</ele>
        <time>2023-09-30T09:38:37.000Z</time>
      </trkpt>
      <trkpt lat="45.83158" lon="4.64437">
        <ele>368.26489</ele>
        <time>2023-09-30T09:38:38.000Z</time>
      </trkpt>
      <trkpt lat="45.83162" lon="4.64437">
        <ele>368.23291</ele>
        <time>2023-09-30T09:38:39.000Z</time>
      </trkpt>
      <trkpt lat="45.83165" lon="4.64437">
        <ele>368.22025</ele>
        <time>2023-09-30T09:38:40.000Z</time>
      </trkpt>
      <trkpt lat="45.83168" lon="4.64437">
        <ele>368.20209</ele>
        <time>2023-09-30T09:38:41.000Z</time>
      </trkpt>
      <trkpt lat="45.83172" lon="4.64437">
        <ele>368.22708</ele>
        <time>2023-09-30T09:38:42.000Z</time>
      </trkpt>
      <trkpt lat="45.83175" lon="4.64437">
        <ele>368.26001</ele>
        <time>2023-09-30T09:38:43.000Z</time>
      </trkpt>
      <trkpt lat="45.83179" lon="4.64437">
        <ele>368.30133</ele>
        <time>2023-09-30T09:38:44.000Z</time>
      </trkpt>
      <trkpt lat="45.83183" lon="4.64437">
        <ele>368.33563</ele>
        <time>2023-09-30T09:38:45.000Z</time>
      </trkpt>
      <trkpt lat="45.83186" lon="4.64436">
        <ele>368.11316</ele>
        <time>2023-09-30T09:38:46.000Z</time>
      </trkpt>
      <trkpt lat="45.8319" lon="4.64436">
        <ele>367.86261</ele>
        <time>2023-09-30T09:38:47.000Z</time>
      </trkpt>
      <trkpt lat="45.83193" lon="4.64436">
        <ele>367.52689</ele>
        <time>2023-09-30T09:38:48.000Z</time>
      </trkpt>
      <trkpt lat="45.83197" lon="4.64436">
        <ele>367.53912</ele>
        <time>2023-09-30T09:38:49.000Z</time>
      </trkpt>
      <trkpt lat="45.832" lon="4.64436">
        <ele>367.86725</ele>
        <time>2023-09-30T09:38:50.000Z</time>
      </trkpt>
      <trkpt lat="45.83203" lon="4.64436">
        <ele>368.22891</ele>
        <time>2023-09-30T09:38:51.000Z</time>
      </trkpt>
      <trkpt lat="45.83206" lon="4.64436">
        <ele>368.95963</ele>
        <time>2023-09-30T09:38:52.000Z</time>
      </trkpt>
      <trkpt lat="45.83209" lon="4.64435">
        <ele>369.66119</ele>
        <time>2023-09-30T09:38:53.000Z</time>
      </trkpt>
      <trkpt lat="45.83212" lon="4.64435">
        <ele>370.32114</ele>
        <time>2023-09-30T09:38:54.000Z</time>
      </trkpt>
      <trkpt lat="45.83215" lon="4.64435">
        <ele>370.96686</ele>
        <time>2023-09-30T09:38:55.000Z</time>
      </trkpt>
      <trkpt lat="45.83218" lon="4.64435">
        <ele>371.62494</ele>
        <time>2023-09-30T09:38:56.000Z</time>
      </trkpt>
      <trkpt lat="45.8322" lon="4.64435">
        <ele>372.46661</ele>
        <time>2023-09-30T09:38:57.000Z</time>
      </trkpt>
      <trkpt lat="45.83224" lon="4.64435">
        <ele>373.25507</ele>
        <time>2023-09-30T09:38:58.000Z</time>
      </trkpt>
      <trkpt lat="45.83227" lon="4.64434">
        <ele>374.02768</ele>
        <time>2023-09-30T09:38:59.000Z</time>
      </trkpt>
      <trkpt lat="45.8323" lon="4.64434">
        <ele>374.81281</ele>
        <time>2023-09-30T09:39:00.000Z</time>
      </trkpt>
      <trkpt lat="45.83233" lon="4.64434">
        <ele>375.34537</ele>
        <time>2023-09-30T09:39:01.000Z</time>
      </trkpt>
      <trkpt lat="45.83236" lon="4.64434">
        <ele>375.87918</ele>
        <time>2023-09-30T09:39:02.000Z</time>
      </trkpt>
      <trkpt lat="45.83239" lon="4.64433">
        <ele>376.40927</ele>
        <time>2023-09-30T09:39:03.000Z</time>
      </trkpt>
      <trkpt lat="45.83241" lon="4.64433">
        <ele>376.93057</ele>
        <time>2023-09-30T09:39:04.000Z</time>
      </trkpt>
      <trkpt lat="45.83244" lon="4.64433">
        <ele>377.43726</ele>
        <time>2023-09-30T09:39:05.000Z</time>
      </trkpt>
      <trkpt lat="45.83247" lon="4.64433">
        <ele>377.9411</ele>
        <time>2023-09-30T09:39:06.000Z</time>
      </trkpt>
      <trkpt lat="45.8325" lon="4.64433">
        <ele>378.4357</ele>
        <time>2023-09-30T09:39:07.000Z</time>
      </trkpt>
      <trkpt lat="45.83253" lon="4.64433">
        <ele>379.03156</ele>
        <time>2023-09-30T09:39:08.000Z</time>
      </trkpt>
      <trkpt lat="45.83256" lon="4.64433">
        <ele>379.68182</ele>
        <time>2023-09-30T09:39:09.000Z</time>
      </trkpt>
      <trkpt lat="45.83259" lon="4.64432">
        <ele>379.78546</ele>
        <time>2023-09-30T09:39:10.000Z</time>
      </trkpt>
      <trkpt lat="45.83261" lon="4.64431">
        <ele>379.90198</ele>
        <time>2023-09-30T09:39:11.000Z</time>
      </trkpt>
      <trkpt lat="45.83264" lon="4.64431">
        <ele>380.03152</ele>
        <time>2023-09-30T09:39:12.000Z</time>
      </trkpt>
      <trkpt lat="45.83266" lon="4.6443">
        <ele>380.16119</ele>
        <time>2023-09-30T09:39:13.000Z</time>
      </trkpt>
      <trkpt lat="45.83269" lon="4.6443">
        <ele>380.29495</ele>
        <time>2023-09-30T09:39:14.000Z</time>
      </trkpt>
      <trkpt lat="45.83272" lon="4.64429">
        <ele>380.44638</ele>
        <time>2023-09-30T09:39:15.000Z</time>
      </trkpt>
      <trkpt lat="45.83275" lon="4.64429">
        <ele>380.58716</ele>
        <time>2023-09-30T09:39:16.000Z</time>
      </trkpt>
      <trkpt lat="45.83278" lon="4.64428">
        <ele>380.56802</ele>
        <time>2023-09-30T09:39:17.000Z</time>
      </trkpt>
      <trkpt lat="45.83281" lon="4.64428">
        <ele>380.59726</ele>
        <time>2023-09-30T09:39:18.000Z</time>
      </trkpt>
      <trkpt lat="45.83283" lon="4.64428">
        <ele>380.63165</ele>
        <time>2023-09-30T09:39:19.000Z</time>
      </trkpt>
      <trkpt lat="45.83286" lon="4.64428">
        <ele>380.67389</ele>
        <time>2023-09-30T09:39:20.000Z</time>
      </trkpt>
      <trkpt lat="45.83288" lon="4.64428">
        <ele>381.03189</ele>
        <time>2023-09-30T09:39:21.000Z</time>
      </trkpt>
      <trkpt lat="45.83291" lon="4.64428">
        <ele>381.37643</ele>
        <time>2023-09-30T09:39:22.000Z</time>
      </trkpt>
      <trkpt lat="45.83293" lon="4.64428">
        <ele>381.70938</ele>
        <time>2023-09-30T09:39:23.000Z</time>
      </trkpt>
      <trkpt lat="45.83296" lon="4.64428">
        <ele>382.0563</ele>
        <time>2023-09-30T09:39:24.000Z</time>
      </trkpt>
      <trkpt lat="45.83299" lon="4.64428">
        <ele>382.42468</ele>
        <time>2023-09-30T09:39:25.000Z</time>
      </trkpt>
      <trkpt lat="45.83301" lon="4.64428">
        <ele>382.858</ele>
        <time>2023-09-30T09:39:26.000Z</time>
      </trkpt>
      <trkpt lat="45.83304" lon="4.64428">
        <ele>383.33856</ele>
        <time>2023-09-30T09:39:27.000Z</time>
      </trkpt>
      <trkpt lat="45.83307" lon="4.64427">
        <ele>383.71088</ele>
        <time>2023-09-30T09:39:28.000Z</time>
      </trkpt>
      <trkpt lat="45.83309" lon="4.64427">
        <ele>383.82071</ele>
        <time>2023-09-30T09:39:29.000Z</time>
      </trkpt>
      <trkpt lat="45.83311" lon="4.64427">
        <ele>384.13046</ele>
        <time>2023-09-30T09:39:30.000Z</time>
      </trkpt>
      <trkpt lat="45.83314" lon="4.64426">
        <ele>384.41119</ele>
        <time>2023-09-30T09:39:31.000Z</time>
      </trkpt>
      <trkpt lat="45.83317" lon="4.64426">
        <ele>384.69672</ele>
        <time>2023-09-30T09:39:32.000Z</time>
      </trkpt>
      <trkpt lat="45.83319" lon="4.64427">
        <ele>385.00293</ele>
        <time>2023-09-30T09:39:33.000Z</time>
      </trkpt>
      <trkpt lat="45.83322" lon="4.64427">
        <ele>385.31039</ele>
        <time>2023-09-30T09:39:34.000Z</time>
      </trkpt>
      <trkpt lat="45.83324" lon="4.64426">
        <ele>385.59818</ele>
        <time>2023-09-30T09:39:35.000Z</time>
      </trkpt>
      <trkpt lat="45.83326" lon="4.64425">
        <ele>385.93866</ele>
        <time>2023-09-30T09:39:36.000Z</time>
      </trkpt>
      <trkpt lat="45.83329" lon="4.64424">
        <ele>386.24884</ele>
        <time>2023-09-30T09:39:37.000Z</time>
      </trkpt>
      <trkpt lat="45.83331" lon="4.64423">
        <ele>386.57825</ele>
        <time>2023-09-30T09:39:38.000Z</time>
      </trkpt>
      <trkpt lat="45.83334" lon="4.64423">
        <ele>386.80435</ele>
        <time>2023-09-30T09:39:39.000Z</time>
      </trkpt>
      <trkpt lat="45.83337" lon="4.64423">
        <ele>385.70331</ele>
        <time>2023-09-30T09:39:40.000Z</time>
      </trkpt>
      <trkpt lat="45.83339" lon="4.64422">
        <ele>384.48407</ele>
        <time>2023-09-30T09:39:41.000Z</time>
      </trkpt>
      <trkpt lat="45.83342" lon="4.64423">
        <ele>383.20801</ele>
        <time>2023-09-30T09:39:42.000Z</time>
      </trkpt>
      <trkpt lat="45.83345" lon="4.64423">
        <ele>383.07391</ele>
        <time>2023-09-30T09:39:43.000Z</time>
      </trkpt>
      <trkpt lat="45.83348" lon="4.64423">
        <ele>383.06406</ele>
        <time>2023-09-30T09:39:44.000Z</time>
      </trkpt>
      <trkpt lat="45.83351" lon="4.64423">
        <ele>383.2818</ele>
        <time>2023-09-30T09:39:45.000Z</time>
      </trkpt>
      <trkpt lat="45.83353" lon="4.64423">
        <ele>383.27365</ele>
        <time>2023-09-30T09:39:46.000Z</time>
      </trkpt>
      <trkpt lat="45.83357" lon="4.64423">
        <ele>383.17886</ele>
        <time>2023-09-30T09:39:47.000Z</time>
      </trkpt>
      <trkpt lat="45.8336" lon="4.64422">
        <ele>383.1008</ele>
        <time>2023-09-30T09:39:48.000Z</time>
      </trkpt>
      <trkpt lat="45.83363" lon="4.64422">
        <ele>383.23651</ele>
        <time>2023-09-30T09:39:49.000Z</time>
      </trkpt>
      <trkpt lat="45.83366" lon="4.64421">
        <ele>383.22342</ele>
        <time>2023-09-30T09:39:50.000Z</time>
      </trkpt>
      <trkpt lat="45.8337" lon="4.64422">
        <ele>383.21915</ele>
        <time>2023-09-30T09:39:51.000Z</time>
      </trkpt>
      <trkpt lat="45.83374" lon="4.64423">
        <ele>383.16638</ele>
        <time>2023-09-30T09:39:52.000Z</time>
      </trkpt>
      <trkpt lat="45.83378" lon="4.64424">
        <ele>383.10587</ele>
        <time>2023-09-30T09:39:53.000Z</time>
      </trkpt>
      <trkpt lat="45.83382" lon="4.64426">
        <ele>382.99594</ele>
        <time>2023-09-30T09:39:54.000Z</time>
      </trkpt>
      <trkpt lat="45.83385" lon="4.64428">
        <ele>382.9361</ele>
        <time>2023-09-30T09:39:55.000Z</time>
      </trkpt>
      <trkpt lat="45.83388" lon="4.6443">
        <ele>382.82562</ele>
        <time>2023-09-30T09:39:56.000Z</time>
      </trkpt>
      <trkpt lat="45.83392" lon="4.64433">
        <ele>382.71948</ele>
        <time>2023-09-30T09:39:57.000Z</time>
      </trkpt>
      <trkpt lat="45.83396" lon="4.64435">
        <ele>382.60986</ele>
        <time>2023-09-30T09:39:58.000Z</time>
      </trkpt>
      <trkpt lat="45.83399" lon="4.64436">
        <ele>382.58636</ele>
        <time>2023-09-30T09:39:59.000Z</time>
      </trkpt>
      <trkpt lat="45.83403" lon="4.64438">
        <ele>383.86066</ele>
        <time>2023-09-30T09:40:00.000Z</time>
      </trkpt>
      <trkpt lat="45.83407" lon="4.6444">
        <ele>385.21881</ele>
        <time>2023-09-30T09:40:01.000Z</time>
      </trkpt>
      <trkpt lat="45.8341" lon="4.64441">
        <ele>386.60706</ele>
        <time>2023-09-30T09:40:02.000Z</time>
      </trkpt>
      <trkpt lat="45.83413" lon="4.64443">
        <ele>386.88495</ele>
        <time>2023-09-30T09:40:03.000Z</time>
      </trkpt>
      <trkpt lat="45.83416" lon="4.64445">
        <ele>387.02875</ele>
        <time>2023-09-30T09:40:04.000Z</time>
      </trkpt>
      <trkpt lat="45.83419" lon="4.64447">
        <ele>386.82574</ele>
        <time>2023-09-30T09:40:05.000Z</time>
      </trkpt>
      <trkpt lat="45.83422" lon="4.64449">
        <ele>386.7746</ele>
        <time>2023-09-30T09:40:06.000Z</time>
      </trkpt>
      <trkpt lat="45.83425" lon="4.6445">
        <ele>386.75964</ele>
        <time>2023-09-30T09:40:07.000Z</time>
      </trkpt>
      <trkpt lat="45.83427" lon="4.6445">
        <ele>386.81537</ele>
        <time>2023-09-30T09:40:08.000Z</time>
      </trkpt>
      <trkpt lat="45.8343" lon="4.64449">
        <ele>386.64813</ele>
        <time>2023-09-30T09:40:09.000Z</time>
      </trkpt>
      <trkpt lat="45.83432" lon="4.64447">
        <ele>386.58694</ele>
        <time>2023-09-30T09:40:10.000Z</time>
      </trkpt>
      <trkpt lat="45.83433" lon="4.64443">
        <ele>386.55038</ele>
        <time>2023-09-30T09:40:11.000Z</time>
      </trkpt>
      <trkpt lat="45.83434" lon="4.64438">
        <ele>386.55511</ele>
        <time>2023-09-30T09:40:12.000Z</time>
      </trkpt>
      <trkpt lat="45.83434" lon="4.64433">
        <ele>386.56516</ele>
        <time>2023-09-30T09:40:13.000Z</time>
      </trkpt>
      <trkpt lat="45.83434" lon="4.64429">
        <ele>386.63235</ele>
        <time>2023-09-30T09:40:14.000Z</time>
      </trkpt>
      <trkpt lat="45.83434" lon="4.64424">
        <ele>386.66483</ele>
        <time>2023-09-30T09:40:15.000Z</time>
      </trkpt>
      <trkpt lat="45.83435" lon="4.64419">
        <ele>386.68991</ele>
        <time>2023-09-30T09:40:16.000Z</time>
      </trkpt>
      <trkpt lat="45.83435" lon="4.64415">
        <ele>386.69952</ele>
        <time>2023-09-30T09:40:17.000Z</time>
      </trkpt>
      <trkpt lat="45.83435" lon="4.64409">
        <ele>386.70233</ele>
        <time>2023-09-30T09:40:18.000Z</time>
      </trkpt>
      <trkpt lat="45.83435" lon="4.64404">
        <ele>386.71515</ele>
        <time>2023-09-30T09:40:19.000Z</time>
      </trkpt>
      <trkpt lat="45.83435" lon="4.64399">
        <ele>386.716</ele>
        <time>2023-09-30T09:40:20.000Z</time>
      </trkpt>
      <trkpt lat="45.83436" lon="4.64394">
        <ele>386.62067</ele>
        <time>2023-09-30T09:40:21.000Z</time>
      </trkpt>
      <trkpt lat="45.83436" lon="4.64388">
        <ele>386.52167</ele>
        <time>2023-09-30T09:40:22.000Z</time>
      </trkpt>
      <trkpt lat="45.83436" lon="4.64383">
        <ele>386.3468</ele>
        <time>2023-09-30T09:40:23.000Z</time>
      </trkpt>
      <trkpt lat="45.83437" lon="4.64378">
        <ele>386.15466</ele>
        <time>2023-09-30T09:40:24.000Z</time>
      </trkpt>
      <trkpt lat="45.83437" lon="4.64373">
        <ele>386.09351</ele>
        <time>2023-09-30T09:40:25.000Z</time>
      </trkpt>
      <trkpt lat="45.83438" lon="4.64368">
        <ele>386.0191</ele>
        <time>2023-09-30T09:40:26.000Z</time>
      </trkpt>
      <trkpt lat="45.83438" lon="4.64363">
        <ele>385.9343</ele>
        <time>2023-09-30T09:40:27.000Z</time>
      </trkpt>
      <trkpt lat="45.83439" lon="4.64358">
        <ele>385.78995</ele>
        <time>2023-09-30T09:40:28.000Z</time>
      </trkpt>
      <trkpt lat="45.83439" lon="4.64353">
        <ele>385.86819</ele>
        <time>2023-09-30T09:40:29.000Z</time>
      </trkpt>
      <trkpt lat="45.83439" lon="4.64347">
        <ele>385.97272</ele>
        <time>2023-09-30T09:40:30.000Z</time>
      </trkpt>
      <trkpt lat="45.8344" lon="4.64341">
        <ele>386.05646</ele>
        <time>2023-09-30T09:40:31.000Z</time>
      </trkpt>
      <trkpt lat="45.8344" lon="4.64335">
        <ele>386.02493</ele>
        <time>2023-09-30T09:40:32.000Z</time>
      </trkpt>
      <trkpt lat="45.8344" lon="4.64329">
        <ele>385.98697</ele>
        <time>2023-09-30T09:40:33.000Z</time>
      </trkpt>
      <trkpt lat="45.8344" lon="4.64323">
        <ele>385.87869</ele>
        <time>2023-09-30T09:40:34.000Z</time>
      </trkpt>
      <trkpt lat="45.8344" lon="4.64316">
        <ele>385.91632</ele>
        <time>2023-09-30T09:40:35.000Z</time>
      </trkpt>
      <trkpt lat="45.8344" lon="4.64308">
        <ele>385.94165</ele>
        <time>2023-09-30T09:40:36.000Z</time>
      </trkpt>
      <trkpt lat="45.83439" lon="4.643">
        <ele>385.86969</ele>
        <time>2023-09-30T09:40:37.000Z</time>
      </trkpt>
      <trkpt lat="45.83439" lon="4.64292">
        <ele>385.76715</ele>
        <time>2023-09-30T09:40:38.000Z</time>
      </trkpt>
      <trkpt lat="45.83438" lon="4.64284">
        <ele>385.6572</ele>
        <time>2023-09-30T09:40:39.000Z</time>
      </trkpt>
      <trkpt lat="45.83437" lon="4.64275">
        <ele>385.55234</ele>
        <time>2023-09-30T09:40:40.000Z</time>
      </trkpt>
      <trkpt lat="45.83437" lon="4.64266">
        <ele>385.43268</ele>
        <time>2023-09-30T09:40:41.000Z</time>
      </trkpt>
      <trkpt lat="45.83436" lon="4.64257">
        <ele>385.28146</ele>
        <time>2023-09-30T09:40:42.000Z</time>
      </trkpt>
      <trkpt lat="45.83436" lon="4.64248">
        <ele>385.09409</ele>
        <time>2023-09-30T09:40:43.000Z</time>
      </trkpt>
      <trkpt lat="45.83435" lon="4.64238">
        <ele>384.92871</ele>
        <time>2023-09-30T09:40:44.000Z</time>
      </trkpt>
      <trkpt lat="45.83435" lon="4.64228">
        <ele>384.73285</ele>
        <time>2023-09-30T09:40:45.000Z</time>
      </trkpt>
      <trkpt lat="45.83435" lon="4.64219">
        <ele>384.48087</ele>
        <time>2023-09-30T09:40:46.000Z</time>
      </trkpt>
      <trkpt lat="45.83434" lon="4.64211">
        <ele>384.36554</ele>
        <time>2023-09-30T09:40:47.000Z</time>
      </trkpt>
      <trkpt lat="45.83433" lon="4.64203">
        <ele>384.18903</ele>
        <time>2023-09-30T09:40:48.000Z</time>
      </trkpt>
      <trkpt lat="45.83434" lon="4.64197">
        <ele>383.95148</ele>
        <time>2023-09-30T09:40:49.000Z</time>
      </trkpt>
      <trkpt lat="45.83437" lon="4.64191">
        <ele>383.57635</ele>
        <time>2023-09-30T09:40:50.000Z</time>
      </trkpt>
      <trkpt lat="45.83441" lon="4.64189">
        <ele>383.36041</ele>
        <time>2023-09-30T09:40:51.000Z</time>
      </trkpt>
      <trkpt lat="45.83445" lon="4.64189">
        <ele>383.25037</ele>
        <time>2023-09-30T09:40:52.000Z</time>
      </trkpt>
      <trkpt lat="45.8345" lon="4.64191">
        <ele>383.11829</ele>
        <time>2023-09-30T09:40:53.000Z</time>
      </trkpt>
      <trkpt lat="45.83454" lon="4.64192">
        <ele>383.06683</ele>
        <time>2023-09-30T09:40:54.000Z</time>
      </trkpt>
      <trkpt lat="45.83459" lon="4.64194">
        <ele>382.8588</ele>
        <time>2023-09-30T09:40:55.000Z</time>
      </trkpt>
      <trkpt lat="45.83463" lon="4.64196">
        <ele>382.6882</ele>
        <time>2023-09-30T09:40:56.000Z</time>
      </trkpt>
      <trkpt lat="45.83467" lon="4.64199">
        <ele>382.63483</ele>
        <time>2023-09-30T09:40:57.000Z</time>
      </trkpt>
      <trkpt lat="45.83472" lon="4.64201">
        <ele>381.51804</ele>
        <time>2023-09-30T09:40:58.000Z</time>
      </trkpt>
      <trkpt lat="45.83477" lon="4.64202">
        <ele>380.76648</ele>
        <time>2023-09-30T09:40:59.000Z</time>
      </trkpt>
      <trkpt lat="45.83482" lon="4.64205">
        <ele>379.87506</ele>
        <time>2023-09-30T09:41:00.000Z</time>
      </trkpt>
      <trkpt lat="45.83486" lon="4.64207">
        <ele>379.12338</ele>
        <time>2023-09-30T09:41:01.000Z</time>
      </trkpt>
      <trkpt lat="45.83491" lon="4.6421">
        <ele>378.4223</ele>
        <time>2023-09-30T09:41:02.000Z</time>
      </trkpt>
      <trkpt lat="45.83496" lon="4.64213">
        <ele>377.80634</ele>
        <time>2023-09-30T09:41:03.000Z</time>
      </trkpt>
      <trkpt lat="45.835" lon="4.64216">
        <ele>377.17786</ele>
        <time>2023-09-30T09:41:04.000Z</time>
      </trkpt>
      <trkpt lat="45.83505" lon="4.64219">
        <ele>376.56573</ele>
        <time>2023-09-30T09:41:05.000Z</time>
      </trkpt>
      <trkpt lat="45.83509" lon="4.64222">
        <ele>376.02634</ele>
        <time>2023-09-30T09:41:06.000Z</time>
      </trkpt>
      <trkpt lat="45.83514" lon="4.64225">
        <ele>375.37137</ele>
        <time>2023-09-30T09:41:07.000Z</time>
      </trkpt>
      <trkpt lat="45.83519" lon="4.64228">
        <ele>374.74054</ele>
        <time>2023-09-30T09:41:08.000Z</time>
      </trkpt>
      <trkpt lat="45.83523" lon="4.64232">
        <ele>374.15268</ele>
        <time>2023-09-30T09:41:09.000Z</time>
      </trkpt>
      <trkpt lat="45.83527" lon="4.64235">
        <ele>373.68921</ele>
        <time>2023-09-30T09:41:10.000Z</time>
      </trkpt>
      <trkpt lat="45.83532" lon="4.64238">
        <ele>373.07346</ele>
        <time>2023-09-30T09:41:11.000Z</time>
      </trkpt>
      <trkpt lat="45.83536" lon="4.64242">
        <ele>372.46167</ele>
        <time>2023-09-30T09:41:12.000Z</time>
      </trkpt>
      <trkpt lat="45.8354" lon="4.64245">
        <ele>371.87274</ele>
        <time>2023-09-30T09:41:13.000Z</time>
      </trkpt>
      <trkpt lat="45.83545" lon="4.64248">
        <ele>371.27631</ele>
        <time>2023-09-30T09:41:14.000Z</time>
      </trkpt>
      <trkpt lat="45.83549" lon="4.64251">
        <ele>370.68182</ele>
        <time>2023-09-30T09:41:15.000Z</time>
      </trkpt>
      <trkpt lat="45.83553" lon="4.64254">
        <ele>370.05975</ele>
        <time>2023-09-30T09:41:16.000Z</time>
      </trkpt>
      <trkpt lat="45.83558" lon="4.64257">
        <ele>369.42648</ele>
        <time>2023-09-30T09:41:17.000Z</time>
      </trkpt>
      <trkpt lat="45.83562" lon="4.6426">
        <ele>369.88086</ele>
        <time>2023-09-30T09:41:18.000Z</time>
      </trkpt>
      <trkpt lat="45.83566" lon="4.64263">
        <ele>369.99542</ele>
        <time>2023-09-30T09:41:19.000Z</time>
      </trkpt>
      <trkpt lat="45.83571" lon="4.64267">
        <ele>370.25906</ele>
        <time>2023-09-30T09:41:20.000Z</time>
      </trkpt>
      <trkpt lat="45.83574" lon="4.64271">
        <ele>370.28116</ele>
        <time>2023-09-30T09:41:21.000Z</time>
      </trkpt>
      <trkpt lat="45.83578" lon="4.64274">
        <ele>370.29108</ele>
        <time>2023-09-30T09:41:22.000Z</time>
      </trkpt>
      <trkpt lat="45.83582" lon="4.64277">
        <ele>370.28763</ele>
        <time>2023-09-30T09:41:23.000Z</time>
      </trkpt>
      <trkpt lat="45.83586" lon="4.64279">
        <ele>370.33795</ele>
        <time>2023-09-30T09:41:24.000Z</time>
      </trkpt>
      <trkpt lat="45.83591" lon="4.64281">
        <ele>370.38745</ele>
        <time>2023-09-30T09:41:25.000Z</time>
      </trkpt>
      <trkpt lat="45.83595" lon="4.64281">
        <ele>370.34335</ele>
        <time>2023-09-30T09:41:26.000Z</time>
      </trkpt>
      <trkpt lat="45.83599" lon="4.6428">
        <ele>370.32037</ele>
        <time>2023-09-30T09:41:27.000Z</time>
      </trkpt>
      <trkpt lat="45.83603" lon="4.6428">
        <ele>370.25674</ele>
        <time>2023-09-30T09:41:28.000Z</time>
      </trkpt>
      <trkpt lat="45.83607" lon="4.64278">
        <ele>370.19</ele>
        <time>2023-09-30T09:41:29.000Z</time>
      </trkpt>
      <trkpt lat="45.83611" lon="4.64275">
        <ele>369.80643</ele>
        <time>2023-09-30T09:41:30.000Z</time>
      </trkpt>
      <trkpt lat="45.83615" lon="4.64272">
        <ele>369.34155</ele>
        <time>2023-09-30T09:41:31.000Z</time>
      </trkpt>
      <trkpt lat="45.83619" lon="4.64269">
        <ele>369.27896</ele>
        <time>2023-09-30T09:41:32.000Z</time>
      </trkpt>
      <trkpt lat="45.83623" lon="4.64265">
        <ele>369.20081</ele>
        <time>2023-09-30T09:41:33.000Z</time>
      </trkpt>
      <trkpt lat="45.83627" lon="4.6426">
        <ele>368.69025</ele>
        <time>2023-09-30T09:41:34.000Z</time>
      </trkpt>
      <trkpt lat="45.83631" lon="4.64253">
        <ele>368.02521</ele>
        <time>2023-09-30T09:41:35.000Z</time>
      </trkpt>
      <trkpt lat="45.83634" lon="4.64245">
        <ele>367.8316</ele>
        <time>2023-09-30T09:41:36.000Z</time>
      </trkpt>
      <trkpt lat="45.83636" lon="4.64237">
        <ele>367.6312</ele>
        <time>2023-09-30T09:41:37.000Z</time>
      </trkpt>
      <trkpt lat="45.83637" lon="4.64228">
        <ele>367.37344</ele>
        <time>2023-09-30T09:41:38.000Z</time>
      </trkpt>
      <trkpt lat="45.83636" lon="4.64219">
        <ele>367.11273</ele>
        <time>2023-09-30T09:41:39.000Z</time>
      </trkpt>
      <trkpt lat="45.83636" lon="4.64211">
        <ele>366.82431</ele>
        <time>2023-09-30T09:41:40.000Z</time>
      </trkpt>
      <trkpt lat="45.83634" lon="4.64202">
        <ele>367.54654</ele>
        <time>2023-09-30T09:41:41.000Z</time>
      </trkpt>
      <trkpt lat="45.83631" lon="4.64193">
        <ele>368.22736</ele>
        <time>2023-09-30T09:41:42.000Z</time>
      </trkpt>
      <trkpt lat="45.83629" lon="4.64183">
        <ele>368.67816</ele>
        <time>2023-09-30T09:41:43.000Z</time>
      </trkpt>
      <trkpt lat="45.83627" lon="4.64175">
        <ele>368.9747</ele>
        <time>2023-09-30T09:41:44.000Z</time>
      </trkpt>
      <trkpt lat="45.83625" lon="4.64167">
        <ele>369.18756</ele>
        <time>2023-09-30T09:41:45.000Z</time>
      </trkpt>
      <trkpt lat="45.83623" lon="4.6416">
        <ele>369.4505</ele>
        <time>2023-09-30T09:41:46.000Z</time>
      </trkpt>
      <trkpt lat="45.83621" lon="4.64153">
        <ele>369.04358</ele>
        <time>2023-09-30T09:41:47.000Z</time>
      </trkpt>
      <trkpt lat="45.83619" lon="4.64147">
        <ele>368.65143</ele>
        <time>2023-09-30T09:41:48.000Z</time>
      </trkpt>
      <trkpt lat="45.83616" lon="4.64141">
        <ele>368.24078</ele>
        <time>2023-09-30T09:41:49.000Z</time>
      </trkpt>
      <trkpt lat="45.83615" lon="4.64136">
        <ele>368.13937</ele>
        <time>2023-09-30T09:41:50.000Z</time>
      </trkpt>
      <trkpt lat="45.83615" lon="4.6413">
        <ele>368.0899</ele>
        <time>2023-09-30T09:41:51.000Z</time>
      </trkpt>
      <trkpt lat="45.83617" lon="4.64126">
        <ele>367.35223</ele>
        <time>2023-09-30T09:41:52.000Z</time>
      </trkpt>
      <trkpt lat="45.8362" lon="4.64125">
        <ele>367.76373</ele>
        <time>2023-09-30T09:41:53.000Z</time>
      </trkpt>
      <trkpt lat="45.83623" lon="4.64128">
        <ele>368.58215</ele>
        <time>2023-09-30T09:41:54.000Z</time>
      </trkpt>
      <trkpt lat="45.83626" lon="4.6413">
        <ele>369.55707</ele>
        <time>2023-09-30T09:41:55.000Z</time>
      </trkpt>
      <trkpt lat="45.8363" lon="4.64134">
        <ele>370.05426</ele>
        <time>2023-09-30T09:41:56.000Z</time>
      </trkpt>
      <trkpt lat="45.83632" lon="4.64138">
        <ele>370.56171</ele>
        <time>2023-09-30T09:41:57.000Z</time>
      </trkpt>
      <trkpt lat="45.83634" lon="4.64141">
        <ele>371.10876</ele>
        <time>2023-09-30T09:41:58.000Z</time>
      </trkpt>
      <trkpt lat="45.83637" lon="4.64145">
        <ele>371.65076</ele>
        <time>2023-09-30T09:41:59.000Z</time>
      </trkpt>
      <trkpt lat="45.8364" lon="4.64149">
        <ele>372.20294</ele>
        <time>2023-09-30T09:42:00.000Z</time>
      </trkpt>
      <trkpt lat="45.83643" lon="4.64153">
        <ele>371.87271</ele>
        <time>2023-09-30T09:42:01.000Z</time>
      </trkpt>
      <trkpt lat="45.83647" lon="4.64157">
        <ele>371.60739</ele>
        <time>2023-09-30T09:42:02.000Z</time>
      </trkpt>
      <trkpt lat="45.8365" lon="4.64161">
        <ele>370.61285</ele>
        <time>2023-09-30T09:42:03.000Z</time>
      </trkpt>
      <trkpt lat="45.83653" lon="4.64165">
        <ele>369.51385</ele>
        <time>2023-09-30T09:42:04.000Z</time>
      </trkpt>
      <trkpt lat="45.83656" lon="4.64169">
        <ele>369.63757</ele>
        <time>2023-09-30T09:42:05.000Z</time>
      </trkpt>
      <trkpt lat="45.83658" lon="4.64174">
        <ele>369.81442</ele>
        <time>2023-09-30T09:42:06.000Z</time>
      </trkpt>
      <trkpt lat="45.83661" lon="4.64179">
        <ele>369.75995</ele>
        <time>2023-09-30T09:42:07.000Z</time>
      </trkpt>
      <trkpt lat="45.83664" lon="4.64186">
        <ele>369.70419</ele>
        <time>2023-09-30T09:42:08.000Z</time>
      </trkpt>
      <trkpt lat="45.83667" lon="4.6419">
        <ele>369.44531</ele>
        <time>2023-09-30T09:42:09.000Z</time>
      </trkpt>
      <trkpt lat="45.8367" lon="4.64195">
        <ele>369.13858</ele>
        <time>2023-09-30T09:42:10.000Z</time>
      </trkpt>
      <trkpt lat="45.83673" lon="4.64199">
        <ele>369.19812</ele>
        <time>2023-09-30T09:42:11.000Z</time>
      </trkpt>
      <trkpt lat="45.83676" lon="4.64203">
        <ele>369.51138</ele>
        <time>2023-09-30T09:42:12.000Z</time>
      </trkpt>
      <trkpt lat="45.83679" lon="4.64208">
        <ele>368.69769</ele>
        <time>2023-09-30T09:42:13.000Z</time>
      </trkpt>
      <trkpt lat="45.83682" lon="4.64212">
        <ele>367.91507</ele>
        <time>2023-09-30T09:42:14.000Z</time>
      </trkpt>
      <trkpt lat="45.83685" lon="4.64217">
        <ele>367.15155</ele>
        <time>2023-09-30T09:42:15.000Z</time>
      </trkpt>
      <trkpt lat="45.83688" lon="4.64221">
        <ele>366.40359</ele>
        <time>2023-09-30T09:42:16.000Z</time>
      </trkpt>
      <trkpt lat="45.83691" lon="4.64226">
        <ele>365.3385</ele>
        <time>2023-09-30T09:42:17.000Z</time>
      </trkpt>
      <trkpt lat="45.83695" lon="4.64231">
        <ele>365.4953</ele>
        <time>2023-09-30T09:42:18.000Z</time>
      </trkpt>
      <trkpt lat="45.83697" lon="4.64236">
        <ele>365.59747</ele>
        <time>2023-09-30T09:42:19.000Z</time>
      </trkpt>
      <trkpt lat="45.83701" lon="4.64241">
        <ele>365.73093</ele>
        <time>2023-09-30T09:42:20.000Z</time>
      </trkpt>
      <trkpt lat="45.83704" lon="4.64246">
        <ele>365.86819</ele>
        <time>2023-09-30T09:42:21.000Z</time>
      </trkpt>
      <trkpt lat="45.83707" lon="4.6425">
        <ele>365.96405</ele>
        <time>2023-09-30T09:42:22.000Z</time>
      </trkpt>
      <trkpt lat="45.8371" lon="4.64256">
        <ele>367.08493</ele>
        <time>2023-09-30T09:42:23.000Z</time>
      </trkpt>
      <trkpt lat="45.83713" lon="4.6426">
        <ele>368.40887</ele>
        <time>2023-09-30T09:42:24.000Z</time>
      </trkpt>
      <trkpt lat="45.83717" lon="4.64265">
        <ele>368.57959</ele>
        <time>2023-09-30T09:42:25.000Z</time>
      </trkpt>
      <trkpt lat="45.83721" lon="4.64269">
        <ele>368.74615</ele>
        <time>2023-09-30T09:42:26.000Z</time>
      </trkpt>
      <trkpt lat="45.83724" lon="4.64274">
        <ele>369.78387</ele>
        <time>2023-09-30T09:42:27.000Z</time>
      </trkpt>
      <trkpt lat="45.83728" lon="4.64279">
        <ele>370.86801</ele>
        <time>2023-09-30T09:42:28.000Z</time>
      </trkpt>
      <trkpt lat="45.83731" lon="4.64283">
        <ele>372.25934</ele>
        <time>2023-09-30T09:42:29.000Z</time>
      </trkpt>
      <trkpt lat="45.83734" lon="4.64288">
        <ele>373.76511</ele>
        <time>2023-09-30T09:42:30.000Z</time>
      </trkpt>
      <trkpt lat="45.83738" lon="4.64292">
        <ele>374.74469</ele>
        <time>2023-09-30T09:42:31.000Z</time>
      </trkpt>
      <trkpt lat="45.83742" lon="4.64297">
        <ele>375.78021</ele>
        <time>2023-09-30T09:42:32.000Z</time>
      </trkpt>
      <trkpt lat="45.83746" lon="4.64301">
        <ele>376.80029</ele>
        <time>2023-09-30T09:42:33.000Z</time>
      </trkpt>
      <trkpt lat="45.83749" lon="4.64305">
        <ele>377.78436</ele>
        <time>2023-09-30T09:42:34.000Z</time>
      </trkpt>
      <trkpt lat="45.83753" lon="4.6431">
        <ele>378.76324</ele>
        <time>2023-09-30T09:42:35.000Z</time>
      </trkpt>
      <trkpt lat="45.83756" lon="4.64315">
        <ele>379.74658</ele>
        <time>2023-09-30T09:42:36.000Z</time>
      </trkpt>
      <trkpt lat="45.83759" lon="4.64321">
        <ele>381.0574</ele>
        <time>2023-09-30T09:42:37.000Z</time>
      </trkpt>
      <trkpt lat="45.83762" lon="4.64326">
        <ele>381.16345</ele>
        <time>2023-09-30T09:42:38.000Z</time>
      </trkpt>
      <trkpt lat="45.83766" lon="4.64331">
        <ele>381.32391</ele>
        <time>2023-09-30T09:42:39.000Z</time>
      </trkpt>
      <trkpt lat="45.83769" lon="4.64335">
        <ele>381.5654</ele>
        <time>2023-09-30T09:42:40.000Z</time>
      </trkpt>
      <trkpt lat="45.83773" lon="4.64341">
        <ele>381.84357</ele>
        <time>2023-09-30T09:42:41.000Z</time>
      </trkpt>
      <trkpt lat="45.83776" lon="4.64346">
        <ele>382.15363</ele>
        <time>2023-09-30T09:42:42.000Z</time>
      </trkpt>
      <trkpt lat="45.83779" lon="4.64351">
        <ele>382.23727</ele>
        <time>2023-09-30T09:42:43.000Z</time>
      </trkpt>
      <trkpt lat="45.83781" lon="4.64355">
        <ele>382.34949</ele>
        <time>2023-09-30T09:42:44.000Z</time>
      </trkpt>
      <trkpt lat="45.83785" lon="4.64361">
        <ele>382.48224</ele>
        <time>2023-09-30T09:42:45.000Z</time>
      </trkpt>
      <trkpt lat="45.83788" lon="4.64366">
        <ele>382.60892</ele>
        <time>2023-09-30T09:42:46.000Z</time>
      </trkpt>
      <trkpt lat="45.8379" lon="4.64371">
        <ele>382.69058</ele>
        <time>2023-09-30T09:42:47.000Z</time>
      </trkpt>
      <trkpt lat="45.83793" lon="4.64377">
        <ele>382.87494</ele>
        <time>2023-09-30T09:42:48.000Z</time>
      </trkpt>
      <trkpt lat="45.83796" lon="4.64382">
        <ele>383.00235</ele>
        <time>2023-09-30T09:42:49.000Z</time>
      </trkpt>
      <trkpt lat="45.83798" lon="4.64388">
        <ele>382.90875</ele>
        <time>2023-09-30T09:42:50.000Z</time>
      </trkpt>
      <trkpt lat="45.838" lon="4.64393">
        <ele>383.04446</ele>
        <time>2023-09-30T09:42:51.000Z</time>
      </trkpt>
      <trkpt lat="45.83802" lon="4.64399">
        <ele>383.19342</ele>
        <time>2023-09-30T09:42:52.000Z</time>
      </trkpt>
      <trkpt lat="45.83805" lon="4.64405">
        <ele>383.34695</ele>
        <time>2023-09-30T09:42:53.000Z</time>
      </trkpt>
      <trkpt lat="45.83806" lon="4.64411">
        <ele>383.53223</ele>
        <time>2023-09-30T09:42:54.000Z</time>
      </trkpt>
      <trkpt lat="45.83808" lon="4.64418">
        <ele>383.74216</ele>
        <time>2023-09-30T09:42:55.000Z</time>
      </trkpt>
      <trkpt lat="45.8381" lon="4.64424">
        <ele>383.95401</ele>
        <time>2023-09-30T09:42:56.000Z</time>
      </trkpt>
      <trkpt lat="45.83813" lon="4.6443">
        <ele>384.14847</ele>
        <time>2023-09-30T09:42:57.000Z</time>
      </trkpt>
      <trkpt lat="45.83815" lon="4.64436">
        <ele>384.32745</ele>
        <time>2023-09-30T09:42:58.000Z</time>
      </trkpt>
      <trkpt lat="45.83817" lon="4.64442">
        <ele>384.49771</ele>
        <time>2023-09-30T09:42:59.000Z</time>
      </trkpt>
      <trkpt lat="45.8382" lon="4.64448">
        <ele>384.57138</ele>
        <time>2023-09-30T09:43:00.000Z</time>
      </trkpt>
      <trkpt lat="45.83822" lon="4.64454">
        <ele>384.60657</ele>
        <time>2023-09-30T09:43:01.000Z</time>
      </trkpt>
      <trkpt lat="45.83823" lon="4.64461">
        <ele>384.6145</ele>
        <time>2023-09-30T09:43:02.000Z</time>
      </trkpt>
      <trkpt lat="45.83825" lon="4.64467">
        <ele>384.77203</ele>
        <time>2023-09-30T09:43:03.000Z</time>
      </trkpt>
      <trkpt lat="45.83827" lon="4.64472">
        <ele>384.85641</ele>
        <time>2023-09-30T09:43:04.000Z</time>
      </trkpt>
      <trkpt lat="45.8383" lon="4.64478">
        <ele>384.92862</ele>
        <time>2023-09-30T09:43:05.000Z</time>
      </trkpt>
      <trkpt lat="45.83833" lon="4.64484">
        <ele>384.99539</ele>
        <time>2023-09-30T09:43:06.000Z</time>
      </trkpt>
      <trkpt lat="45.83835" lon="4.6449">
        <ele>385.21283</ele>
        <time>2023-09-30T09:43:07.000Z</time>
      </trkpt>
      <trkpt lat="45.83837" lon="4.64496">
        <ele>385.30737</ele>
        <time>2023-09-30T09:43:08.000Z</time>
      </trkpt>
      <trkpt lat="45.8384" lon="4.64503">
        <ele>385.25043</ele>
        <time>2023-09-30T09:43:09.000Z</time>
      </trkpt>
      <trkpt lat="45.83843" lon="4.64509">
        <ele>385.36914</ele>
        <time>2023-09-30T09:43:10.000Z</time>
      </trkpt>
      <trkpt lat="45.83845" lon="4.64515">
        <ele>385.45984</ele>
        <time>2023-09-30T09:43:11.000Z</time>
      </trkpt>
      <trkpt lat="45.83847" lon="4.64521">
        <ele>385.53287</ele>
        <time>2023-09-30T09:43:12.000Z</time>
      </trkpt>
      <trkpt lat="45.83849" lon="4.64526">
        <ele>385.58072</ele>
        <time>2023-09-30T09:43:13.000Z</time>
      </trkpt>
      <trkpt lat="45.83851" lon="4.64534">
        <ele>385.70044</ele>
        <time>2023-09-30T09:43:14.000Z</time>
      </trkpt>
      <trkpt lat="45.83854" lon="4.64541">
        <ele>385.77875</ele>
        <time>2023-09-30T09:43:15.000Z</time>
      </trkpt>
      <trkpt lat="45.83856" lon="4.64549">
        <ele>385.72061</ele>
        <time>2023-09-30T09:43:16.000Z</time>
      </trkpt>
      <trkpt lat="45.83857" lon="4.64556">
        <ele>385.75241</ele>
        <time>2023-09-30T09:43:17.000Z</time>
      </trkpt>
      <trkpt lat="45.83859" lon="4.64563">
        <ele>385.78458</ele>
        <time>2023-09-30T09:43:18.000Z</time>
      </trkpt>
      <trkpt lat="45.83861" lon="4.64571">
        <ele>385.79755</ele>
        <time>2023-09-30T09:43:19.000Z</time>
      </trkpt>
      <trkpt lat="45.83863" lon="4.64578">
        <ele>385.81863</ele>
        <time>2023-09-30T09:43:20.000Z</time>
      </trkpt>
      <trkpt lat="45.83866" lon="4.64584">
        <ele>385.83771</ele>
        <time>2023-09-30T09:43:21.000Z</time>
      </trkpt>
      <trkpt lat="45.83867" lon="4.6459">
        <ele>385.89362</ele>
        <time>2023-09-30T09:43:22.000Z</time>
      </trkpt>
      <trkpt lat="45.83869" lon="4.64595">
        <ele>385.96722</ele>
        <time>2023-09-30T09:43:23.000Z</time>
      </trkpt>
      <trkpt lat="45.83873" lon="4.646">
        <ele>386.0899</ele>
        <time>2023-09-30T09:43:24.000Z</time>
      </trkpt>
      <trkpt lat="45.83875" lon="4.64604">
        <ele>386.17218</ele>
        <time>2023-09-30T09:43:25.000Z</time>
      </trkpt>
      <trkpt lat="45.83878" lon="4.64609">
        <ele>386.26398</ele>
        <time>2023-09-30T09:43:26.000Z</time>
      </trkpt>
      <trkpt lat="45.83881" lon="4.64615">
        <ele>386.24564</ele>
        <time>2023-09-30T09:43:27.000Z</time>
      </trkpt>
      <trkpt lat="45.83883" lon="4.64621">
        <ele>386.06525</ele>
        <time>2023-09-30T09:43:28.000Z</time>
      </trkpt>
      <trkpt lat="45.83886" lon="4.64628">
        <ele>385.96802</ele>
        <time>2023-09-30T09:43:29.000Z</time>
      </trkpt>
      <trkpt lat="45.8389" lon="4.64635">
        <ele>385.81894</ele>
        <time>2023-09-30T09:43:30.000Z</time>
      </trkpt>
      <trkpt lat="45.83893" lon="4.64641">
        <ele>385.62805</ele>
        <time>2023-09-30T09:43:31.000Z</time>
      </trkpt>
      <trkpt lat="45.83897" lon="4.64646">
        <ele>385.42618</ele>
        <time>2023-09-30T09:43:32.000Z</time>
      </trkpt>
      <trkpt lat="45.839" lon="4.64651">
        <ele>385.20309</ele>
        <time>2023-09-30T09:43:33.000Z</time>
      </trkpt>
      <trkpt lat="45.83904" lon="4.64657">
        <ele>384.88519</ele>
        <time>2023-09-30T09:43:34.000Z</time>
      </trkpt>
      <trkpt lat="45.83908" lon="4.64661">
        <ele>384.58936</ele>
        <time>2023-09-30T09:43:35.000Z</time>
      </trkpt>
      <trkpt lat="45.83912" lon="4.64666">
        <ele>384.40308</ele>
        <time>2023-09-30T09:43:36.000Z</time>
      </trkpt>
      <trkpt lat="45.83916" lon="4.6467">
        <ele>384.12836</ele>
        <time>2023-09-30T09:43:37.000Z</time>
      </trkpt>
      <trkpt lat="45.83919" lon="4.64675">
        <ele>383.95737</ele>
        <time>2023-09-30T09:43:38.000Z</time>
      </trkpt>
      <trkpt lat="45.83922" lon="4.6468">
        <ele>383.83813</ele>
        <time>2023-09-30T09:43:39.000Z</time>
      </trkpt>
      <trkpt lat="45.83926" lon="4.64683">
        <ele>383.12531</ele>
        <time>2023-09-30T09:43:40.000Z</time>
      </trkpt>
      <trkpt lat="45.8393" lon="4.64687">
        <ele>382.42096</ele>
        <time>2023-09-30T09:43:41.000Z</time>
      </trkpt>
      <trkpt lat="45.83934" lon="4.64691">
        <ele>381.67352</ele>
        <time>2023-09-30T09:43:42.000Z</time>
      </trkpt>
      <trkpt lat="45.83938" lon="4.64695">
        <ele>380.90808</ele>
        <time>2023-09-30T09:43:43.000Z</time>
      </trkpt>
      <trkpt lat="45.83941" lon="4.64697">
        <ele>380.22647</ele>
        <time>2023-09-30T09:43:44.000Z</time>
      </trkpt>
      <trkpt lat="45.83946" lon="4.64699">
        <ele>379.58731</ele>
        <time>2023-09-30T09:43:45.000Z</time>
      </trkpt>
      <trkpt lat="45.83949" lon="4.64702">
        <ele>378.88937</ele>
        <time>2023-09-30T09:43:46.000Z</time>
      </trkpt>
      <trkpt lat="45.83953" lon="4.64704">
        <ele>378.19009</ele>
        <time>2023-09-30T09:43:47.000Z</time>
      </trkpt>
      <trkpt lat="45.83957" lon="4.64707">
        <ele>377.59384</ele>
        <time>2023-09-30T09:43:48.000Z</time>
      </trkpt>
      <trkpt lat="45.83962" lon="4.6471">
        <ele>377.0199</ele>
        <time>2023-09-30T09:43:49.000Z</time>
      </trkpt>
      <trkpt lat="45.83966" lon="4.64714">
        <ele>376.7666</ele>
        <time>2023-09-30T09:43:50.000Z</time>
      </trkpt>
      <trkpt lat="45.83971" lon="4.64718">
        <ele>376.51691</ele>
        <time>2023-09-30T09:43:51.000Z</time>
      </trkpt>
      <trkpt lat="45.83976" lon="4.64722">
        <ele>376.24445</ele>
        <time>2023-09-30T09:43:52.000Z</time>
      </trkpt>
      <trkpt lat="45.8398" lon="4.64725">
        <ele>375.2865</ele>
        <time>2023-09-30T09:43:53.000Z</time>
      </trkpt>
      <trkpt lat="45.83984" lon="4.64729">
        <ele>374.3479</ele>
        <time>2023-09-30T09:43:54.000Z</time>
      </trkpt>
      <trkpt lat="45.83989" lon="4.64734">
        <ele>373.38541</ele>
        <time>2023-09-30T09:43:55.000Z</time>
      </trkpt>
      <trkpt lat="45.83994" lon="4.64739">
        <ele>372.45032</ele>
        <time>2023-09-30T09:43:56.000Z</time>
      </trkpt>
      <trkpt lat="45.83998" lon="4.64743">
        <ele>371.51154</ele>
        <time>2023-09-30T09:43:57.000Z</time>
      </trkpt>
      <trkpt lat="45.84003" lon="4.64749">
        <ele>369.74023</ele>
        <time>2023-09-30T09:43:58.000Z</time>
      </trkpt>
      <trkpt lat="45.84008" lon="4.64754">
        <ele>367.9317</ele>
        <time>2023-09-30T09:43:59.000Z</time>
      </trkpt>
      <trkpt lat="45.84014" lon="4.64761">
        <ele>366.68964</ele>
        <time>2023-09-30T09:44:00.000Z</time>
      </trkpt>
      <trkpt lat="45.84019" lon="4.64766">
        <ele>365.41013</ele>
        <time>2023-09-30T09:44:01.000Z</time>
      </trkpt>
      <trkpt lat="45.84026" lon="4.64773">
        <ele>364.81894</ele>
        <time>2023-09-30T09:44:02.000Z</time>
      </trkpt>
      <trkpt lat="45.84034" lon="4.64781">
        <ele>364.20776</ele>
        <time>2023-09-30T09:44:03.000Z</time>
      </trkpt>
      <trkpt lat="45.84041" lon="4.64789">
        <ele>363.47165</ele>
        <time>2023-09-30T09:44:04.000Z</time>
      </trkpt>
      <trkpt lat="45.8405" lon="4.64797">
        <ele>362.97305</ele>
        <time>2023-09-30T09:44:05.000Z</time>
      </trkpt>
      <trkpt lat="45.84059" lon="4.64805">
        <ele>361.42514</ele>
        <time>2023-09-30T09:44:06.000Z</time>
      </trkpt>
      <trkpt lat="45.84066" lon="4.64812">
        <ele>359.83414</ele>
        <time>2023-09-30T09:44:07.000Z</time>
      </trkpt>
      <trkpt lat="45.84074" lon="4.64818">
        <ele>359.25241</ele>
        <time>2023-09-30T09:44:08.000Z</time>
      </trkpt>
      <trkpt lat="45.84081" lon="4.64823">
        <ele>358.29538</ele>
        <time>2023-09-30T09:44:09.000Z</time>
      </trkpt>
      <trkpt lat="45.84087" lon="4.6483">
        <ele>357.00085</ele>
        <time>2023-09-30T09:44:10.000Z</time>
      </trkpt>
      <trkpt lat="45.84095" lon="4.64835">
        <ele>356.00528</ele>
        <time>2023-09-30T09:44:11.000Z</time>
      </trkpt>
      <trkpt lat="45.84102" lon="4.64841">
        <ele>354.97894</ele>
        <time>2023-09-30T09:44:12.000Z</time>
      </trkpt>
      <trkpt lat="45.84108" lon="4.64846">
        <ele>354.67508</ele>
        <time>2023-09-30T09:44:13.000Z</time>
      </trkpt>
      <trkpt lat="45.84114" lon="4.64852">
        <ele>354.39993</ele>
        <time>2023-09-30T09:44:14.000Z</time>
      </trkpt>
      <trkpt lat="45.84119" lon="4.64856">
        <ele>354.13251</ele>
        <time>2023-09-30T09:44:15.000Z</time>
      </trkpt>
      <trkpt lat="45.84124" lon="4.64859">
        <ele>353.85901</ele>
        <time>2023-09-30T09:44:16.000Z</time>
      </trkpt>
      <trkpt lat="45.84128" lon="4.64862">
        <ele>353.58856</ele>
        <time>2023-09-30T09:44:17.000Z</time>
      </trkpt>
      <trkpt lat="45.84132" lon="4.64866">
        <ele>354.03897</ele>
        <time>2023-09-30T09:44:18.000Z</time>
      </trkpt>
      <trkpt lat="45.84136" lon="4.64871">
        <ele>354.48874</ele>
        <time>2023-09-30T09:44:19.000Z</time>
      </trkpt>
      <trkpt lat="45.84141" lon="4.64876">
        <ele>354.95016</ele>
        <time>2023-09-30T09:44:20.000Z</time>
      </trkpt>
      <trkpt lat="45.84146" lon="4.6488">
        <ele>355.41855</ele>
        <time>2023-09-30T09:44:21.000Z</time>
      </trkpt>
      <trkpt lat="45.84151" lon="4.64885">
        <ele>355.19223</ele>
        <time>2023-09-30T09:44:22.000Z</time>
      </trkpt>
      <trkpt lat="45.84155" lon="4.64889">
        <ele>354.99051</ele>
        <time>2023-09-30T09:44:23.000Z</time>
      </trkpt>
      <trkpt lat="45.84159" lon="4.64893">
        <ele>354.81378</ele>
        <time>2023-09-30T09:44:24.000Z</time>
      </trkpt>
      <trkpt lat="45.84163" lon="4.64896">
        <ele>354.34503</ele>
        <time>2023-09-30T09:44:25.000Z</time>
      </trkpt>
      <trkpt lat="45.84167" lon="4.64899">
        <ele>354.96143</ele>
        <time>2023-09-30T09:44:26.000Z</time>
      </trkpt>
      <trkpt lat="45.84171" lon="4.64903">
        <ele>355.61475</ele>
        <time>2023-09-30T09:44:27.000Z</time>
      </trkpt>
      <trkpt lat="45.84175" lon="4.64908">
        <ele>355.30203</ele>
        <time>2023-09-30T09:44:28.000Z</time>
      </trkpt>
      <trkpt lat="45.8418" lon="4.64913">
        <ele>355.38351</ele>
        <time>2023-09-30T09:44:29.000Z</time>
      </trkpt>
      <trkpt lat="45.84184" lon="4.64918">
        <ele>355.51093</ele>
        <time>2023-09-30T09:44:30.000Z</time>
      </trkpt>
      <trkpt lat="45.84188" lon="4.64924">
        <ele>355.35428</ele>
        <time>2023-09-30T09:44:31.000Z</time>
      </trkpt>
      <trkpt lat="45.84193" lon="4.64929">
        <ele>355.237</ele>
        <time>2023-09-30T09:44:32.000Z</time>
      </trkpt>
      <trkpt lat="45.84197" lon="4.64934">
        <ele>355.11371</ele>
        <time>2023-09-30T09:44:33.000Z</time>
      </trkpt>
      <trkpt lat="45.84202" lon="4.64939">
        <ele>354.96136</ele>
        <time>2023-09-30T09:44:34.000Z</time>
      </trkpt>
      <trkpt lat="45.84206" lon="4.64945">
        <ele>354.79333</ele>
        <time>2023-09-30T09:44:35.000Z</time>
      </trkpt>
      <trkpt lat="45.8421" lon="4.6495">
        <ele>354.62436</ele>
        <time>2023-09-30T09:44:36.000Z</time>
      </trkpt>
      <trkpt lat="45.84215" lon="4.64956">
        <ele>354.44278</ele>
        <time>2023-09-30T09:44:37.000Z</time>
      </trkpt>
      <trkpt lat="45.84219" lon="4.64961">
        <ele>354.25946</ele>
        <time>2023-09-30T09:44:38.000Z</time>
      </trkpt>
      <trkpt lat="45.84224" lon="4.64966">
        <ele>354.0679</ele>
        <time>2023-09-30T09:44:39.000Z</time>
      </trkpt>
      <trkpt lat="45.84228" lon="4.64973">
        <ele>353.86905</ele>
        <time>2023-09-30T09:44:40.000Z</time>
      </trkpt>
      <trkpt lat="45.84233" lon="4.64979">
        <ele>353.68588</ele>
        <time>2023-09-30T09:44:41.000Z</time>
      </trkpt>
      <trkpt lat="45.84237" lon="4.64985">
        <ele>354.0434</ele>
        <time>2023-09-30T09:44:42.000Z</time>
      </trkpt>
      <trkpt lat="45.84243" lon="4.64991">
        <ele>354.40128</ele>
        <time>2023-09-30T09:44:43.000Z</time>
      </trkpt>
      <trkpt lat="45.84247" lon="4.64998">
        <ele>354.75934</ele>
        <time>2023-09-30T09:44:44.000Z</time>
      </trkpt>
      <trkpt lat="45.84251" lon="4.65006">
        <ele>355.16055</ele>
        <time>2023-09-30T09:44:45.000Z</time>
      </trkpt>
      <trkpt lat="45.84256" lon="4.65013">
        <ele>355.55286</ele>
        <time>2023-09-30T09:44:46.000Z</time>
      </trkpt>
      <trkpt lat="45.8426" lon="4.6502">
        <ele>355.94897</ele>
        <time>2023-09-30T09:44:47.000Z</time>
      </trkpt>
      <trkpt lat="45.84265" lon="4.65027">
        <ele>356.34732</ele>
        <time>2023-09-30T09:44:48.000Z</time>
      </trkpt>
      <trkpt lat="45.84269" lon="4.65035">
        <ele>356.73206</ele>
        <time>2023-09-30T09:44:49.000Z</time>
      </trkpt>
      <trkpt lat="45.84273" lon="4.65043">
        <ele>357.11224</ele>
        <time>2023-09-30T09:44:50.000Z</time>
      </trkpt>
      <trkpt lat="45.84277" lon="4.6505">
        <ele>357.49115</ele>
        <time>2023-09-30T09:44:51.000Z</time>
      </trkpt>
      <trkpt lat="45.84281" lon="4.65057">
        <ele>357.8721</ele>
        <time>2023-09-30T09:44:52.000Z</time>
      </trkpt>
      <trkpt lat="45.84284" lon="4.65064">
        <ele>358.25101</ele>
        <time>2023-09-30T09:44:53.000Z</time>
      </trkpt>
      <trkpt lat="45.84287" lon="4.65071">
        <ele>358.62817</ele>
        <time>2023-09-30T09:44:54.000Z</time>
      </trkpt>
      <trkpt lat="45.84291" lon="4.65079">
        <ele>359.01556</ele>
        <time>2023-09-30T09:44:55.000Z</time>
      </trkpt>
      <trkpt lat="45.84293" lon="4.65086">
        <ele>359.38702</ele>
        <time>2023-09-30T09:44:56.000Z</time>
      </trkpt>
      <trkpt lat="45.84296" lon="4.65094">
        <ele>359.7547</ele>
        <time>2023-09-30T09:44:57.000Z</time>
      </trkpt>
      <trkpt lat="45.84298" lon="4.65101">
        <ele>360.28204</ele>
        <time>2023-09-30T09:44:58.000Z</time>
      </trkpt>
      <trkpt lat="45.84301" lon="4.65108">
        <ele>361.14102</ele>
        <time>2023-09-30T09:44:59.000Z</time>
      </trkpt>
      <trkpt lat="45.84303" lon="4.65116">
        <ele>362.12891</ele>
        <time>2023-09-30T09:45:00.000Z</time>
      </trkpt>
      <trkpt lat="45.84305" lon="4.65125">
        <ele>362.65131</ele>
        <time>2023-09-30T09:45:01.000Z</time>
      </trkpt>
      <trkpt lat="45.84306" lon="4.65134">
        <ele>362.67273</ele>
        <time>2023-09-30T09:45:02.000Z</time>
      </trkpt>
      <trkpt lat="45.84308" lon="4.65142">
        <ele>362.71567</ele>
        <time>2023-09-30T09:45:03.000Z</time>
      </trkpt>
      <trkpt lat="45.84309" lon="4.65151">
        <ele>362.77051</ele>
        <time>2023-09-30T09:45:04.000Z</time>
      </trkpt>
      <trkpt lat="45.8431" lon="4.65158">
        <ele>362.85501</ele>
        <time>2023-09-30T09:45:05.000Z</time>
      </trkpt>
      <trkpt lat="45.84311" lon="4.65166">
        <ele>362.97177</ele>
        <time>2023-09-30T09:45:06.000Z</time>
      </trkpt>
      <trkpt lat="45.84312" lon="4.65173">
        <ele>363.08408</ele>
        <time>2023-09-30T09:45:07.000Z</time>
      </trkpt>
      <trkpt lat="45.84312" lon="4.65179">
        <ele>363.15451</ele>
        <time>2023-09-30T09:45:08.000Z</time>
      </trkpt>
      <trkpt lat="45.84313" lon="4.65184">
        <ele>363.2998</ele>
        <time>2023-09-30T09:45:09.000Z</time>
      </trkpt>
      <trkpt lat="45.84314" lon="4.65186">
        <ele>363.46606</ele>
        <time>2023-09-30T09:45:10.000Z</time>
      </trkpt>
      <trkpt lat="45.84314" lon="4.65189">
        <ele>363.6427</ele>
        <time>2023-09-30T09:45:11.000Z</time>
      </trkpt>
      <trkpt lat="45.84314" lon="4.65192">
        <ele>364.14258</ele>
        <time>2023-09-30T09:45:12.000Z</time>
      </trkpt>
      <trkpt lat="45.84315" lon="4.65196">
        <ele>364.21121</ele>
        <time>2023-09-30T09:45:14.000Z</time>
      </trkpt>
      <trkpt lat="45.84316" lon="4.652">
        <ele>364.38492</ele>
        <time>2023-09-30T09:45:15.000Z</time>
      </trkpt>
      <trkpt lat="45.84317" lon="4.65203">
        <ele>364.52557</ele>
        <time>2023-09-30T09:45:16.000Z</time>
      </trkpt>
      <trkpt lat="45.84318" lon="4.65207">
        <ele>364.6915</ele>
        <time>2023-09-30T09:45:17.000Z</time>
      </trkpt>
      <trkpt lat="45.84318" lon="4.65212">
        <ele>364.87051</ele>
        <time>2023-09-30T09:45:18.000Z</time>
      </trkpt>
      <trkpt lat="45.84319" lon="4.65217">
        <ele>364.85834</ele>
        <time>2023-09-30T09:45:19.000Z</time>
      </trkpt>
      <trkpt lat="45.8432" lon="4.65223">
        <ele>364.52814</ele>
        <time>2023-09-30T09:45:20.000Z</time>
      </trkpt>
      <trkpt lat="45.84321" lon="4.65229">
        <ele>364.05951</ele>
        <time>2023-09-30T09:45:21.000Z</time>
      </trkpt>
      <trkpt lat="45.84323" lon="4.65235">
        <ele>364.04477</ele>
        <time>2023-09-30T09:45:22.000Z</time>
      </trkpt>
      <trkpt lat="45.84324" lon="4.65242">
        <ele>364.28485</ele>
        <time>2023-09-30T09:45:23.000Z</time>
      </trkpt>
      <trkpt lat="45.84325" lon="4.65248">
        <ele>364.52869</ele>
        <time>2023-09-30T09:45:24.000Z</time>
      </trkpt>
      <trkpt lat="45.84326" lon="4.65255">
        <ele>364.79416</ele>
        <time>2023-09-30T09:45:25.000Z</time>
      </trkpt>
      <trkpt lat="45.84327" lon="4.65263">
        <ele>365.03033</ele>
        <time>2023-09-30T09:45:26.000Z</time>
      </trkpt>
      <trkpt lat="45.84328" lon="4.65271">
        <ele>365.25607</ele>
        <time>2023-09-30T09:45:27.000Z</time>
      </trkpt>
      <trkpt lat="45.84329" lon="4.65282">
        <ele>365.48337</ele>
        <time>2023-09-30T09:45:28.000Z</time>
      </trkpt>
      <trkpt lat="45.8433" lon="4.65293">
        <ele>365.73227</ele>
        <time>2023-09-30T09:45:29.000Z</time>
      </trkpt>
      <trkpt lat="45.84332" lon="4.65304">
        <ele>365.92059</ele>
        <time>2023-09-30T09:45:30.000Z</time>
      </trkpt>
      <trkpt lat="45.84333" lon="4.65315">
        <ele>366.0983</ele>
        <time>2023-09-30T09:45:31.000Z</time>
      </trkpt>
      <trkpt lat="45.84333" lon="4.65328">
        <ele>365.62656</ele>
        <time>2023-09-30T09:45:32.000Z</time>
      </trkpt>
      <trkpt lat="45.8433" lon="4.6534">
        <ele>364.86774</ele>
        <time>2023-09-30T09:45:33.000Z</time>
      </trkpt>
      <trkpt lat="45.84325" lon="4.6535">
        <ele>364.51288</ele>
        <time>2023-09-30T09:45:34.000Z</time>
      </trkpt>
      <trkpt lat="45.84317" lon="4.65354">
        <ele>364.02362</ele>
        <time>2023-09-30T09:45:35.000Z</time>
      </trkpt>
      <trkpt lat="45.8431" lon="4.65354">
        <ele>363.53717</ele>
        <time>2023-09-30T09:45:36.000Z</time>
      </trkpt>
      <trkpt lat="45.84301" lon="4.65351">
        <ele>363.05182</ele>
        <time>2023-09-30T09:45:37.000Z</time>
      </trkpt>
      <trkpt lat="45.84293" lon="4.6535">
        <ele>362.55377</ele>
        <time>2023-09-30T09:45:38.000Z</time>
      </trkpt>
      <trkpt lat="45.84286" lon="4.65348">
        <ele>362.12787</ele>
        <time>2023-09-30T09:45:39.000Z</time>
      </trkpt>
      <trkpt lat="45.84279" lon="4.65346">
        <ele>361.71112</ele>
        <time>2023-09-30T09:45:40.000Z</time>
      </trkpt>
      <trkpt lat="45.84271" lon="4.65345">
        <ele>361.36255</ele>
        <time>2023-09-30T09:45:41.000Z</time>
      </trkpt>
      <trkpt lat="45.84264" lon="4.65344">
        <ele>361.10126</ele>
        <time>2023-09-30T09:45:42.000Z</time>
      </trkpt>
      <trkpt lat="45.84256" lon="4.65343">
        <ele>360.46509</ele>
        <time>2023-09-30T09:45:43.000Z</time>
      </trkpt>
      <trkpt lat="45.84249" lon="4.65342">
        <ele>359.72635</ele>
        <time>2023-09-30T09:45:44.000Z</time>
      </trkpt>
      <trkpt lat="45.84242" lon="4.65341">
        <ele>358.92963</ele>
        <time>2023-09-30T09:45:45.000Z</time>
      </trkpt>
      <trkpt lat="45.84234" lon="4.6534">
        <ele>358.14038</ele>
        <time>2023-09-30T09:45:46.000Z</time>
      </trkpt>
      <trkpt lat="45.84226" lon="4.65339">
        <ele>357.31952</ele>
        <time>2023-09-30T09:45:47.000Z</time>
      </trkpt>
      <trkpt lat="45.84217" lon="4.65338">
        <ele>356.51239</ele>
        <time>2023-09-30T09:45:48.000Z</time>
      </trkpt>
      <trkpt lat="45.84208" lon="4.65337">
        <ele>355.71811</ele>
        <time>2023-09-30T09:45:49.000Z</time>
      </trkpt>
      <trkpt lat="45.84199" lon="4.65336">
        <ele>354.90152</ele>
        <time>2023-09-30T09:45:50.000Z</time>
      </trkpt>
      <trkpt lat="45.8419" lon="4.65335">
        <ele>354.46094</ele>
        <time>2023-09-30T09:45:51.000Z</time>
      </trkpt>
      <trkpt lat="45.84181" lon="4.65333">
        <ele>354.66843</ele>
        <time>2023-09-30T09:45:52.000Z</time>
      </trkpt>
      <trkpt lat="45.84173" lon="4.65328">
        <ele>354.87561</ele>
        <time>2023-09-30T09:45:53.000Z</time>
      </trkpt>
      <trkpt lat="45.84165" lon="4.65324">
        <ele>355.20331</ele>
        <time>2023-09-30T09:45:54.000Z</time>
      </trkpt>
      <trkpt lat="45.84159" lon="4.6532">
        <ele>355.53387</ele>
        <time>2023-09-30T09:45:55.000Z</time>
      </trkpt>
      <trkpt lat="45.84154" lon="4.6532">
        <ele>355.88101</ele>
        <time>2023-09-30T09:45:56.000Z</time>
      </trkpt>
      <trkpt lat="45.8415" lon="4.6532">
        <ele>356.2442</ele>
        <time>2023-09-30T09:45:57.000Z</time>
      </trkpt>
      <trkpt lat="45.84147" lon="4.6532">
        <ele>355.93332</ele>
        <time>2023-09-30T09:45:58.000Z</time>
      </trkpt>
      <trkpt lat="45.84144" lon="4.65322">
        <ele>355.69565</ele>
        <time>2023-09-30T09:45:59.000Z</time>
      </trkpt>
      <trkpt lat="45.84142" lon="4.65324">
        <ele>355.46521</ele>
        <time>2023-09-30T09:46:00.000Z</time>
      </trkpt>
      <trkpt lat="45.8414" lon="4.65327">
        <ele>355.18878</ele>
        <time>2023-09-30T09:46:02.000Z</time>
      </trkpt>
      <trkpt lat="45.84142" lon="4.65331">
        <ele>354.81174</ele>
        <time>2023-09-30T09:46:04.000Z</time>
      </trkpt>
      <trkpt lat="45.84145" lon="4.65333">
        <ele>354.55597</ele>
        <time>2023-09-30T09:46:05.000Z</time>
      </trkpt>
      <trkpt lat="45.84148" lon="4.65335">
        <ele>354.42624</ele>
        <time>2023-09-30T09:46:06.000Z</time>
      </trkpt>
      <trkpt lat="45.8415" lon="4.65337">
        <ele>354.31845</ele>
        <time>2023-09-30T09:46:07.000Z</time>
      </trkpt>
      <trkpt lat="45.84151" lon="4.6534">
        <ele>354.20261</ele>
        <time>2023-09-30T09:46:08.000Z</time>
      </trkpt>
      <trkpt lat="45.84151" lon="4.65344">
        <ele>354.09235</ele>
        <time>2023-09-30T09:46:09.000Z</time>
      </trkpt>
      <trkpt lat="45.8415" lon="4.65347">
        <ele>354.1767</ele>
        <time>2023-09-30T09:46:10.000Z</time>
      </trkpt>
      <trkpt lat="45.84149" lon="4.6535">
        <ele>354.28314</ele>
        <time>2023-09-30T09:46:11.000Z</time>
      </trkpt>
      <trkpt lat="45.84148" lon="4.65352">
        <ele>354.41666</ele>
        <time>2023-09-30T09:46:12.000Z</time>
      </trkpt>
      <trkpt lat="45.84147" lon="4.65357">
        <ele>354.16998</ele>
        <time>2023-09-30T09:46:14.000Z</time>
      </trkpt>
      <trkpt lat="45.84147" lon="4.65361">
        <ele>353.72354</ele>
        <time>2023-09-30T09:46:16.000Z</time>
      </trkpt>
      <trkpt lat="45.84147" lon="4.65364">
        <ele>353.22397</ele>
        <time>2023-09-30T09:46:17.000Z</time>
      </trkpt>
      <trkpt lat="45.84146" lon="4.65367">
        <ele>352.66074</ele>
        <time>2023-09-30T09:46:18.000Z</time>
      </trkpt>
      <trkpt lat="45.84146" lon="4.65371">
        <ele>352.09256</ele>
        <time>2023-09-30T09:46:19.000Z</time>
      </trkpt>
      <trkpt lat="45.84147" lon="4.65376">
        <ele>351.55591</ele>
        <time>2023-09-30T09:46:20.000Z</time>
      </trkpt>
      <trkpt lat="45.84147" lon="4.6538">
        <ele>351.42175</ele>
        <time>2023-09-30T09:46:21.000Z</time>
      </trkpt>
      <trkpt lat="45.84148" lon="4.65383">
        <ele>351.33286</ele>
        <time>2023-09-30T09:46:22.000Z</time>
      </trkpt>
      <trkpt lat="45.84151" lon="4.65386">
        <ele>350.52838</ele>
        <time>2023-09-30T09:46:23.000Z</time>
      </trkpt>
      <trkpt lat="45.84154" lon="4.65388">
        <ele>349.715</ele>
        <time>2023-09-30T09:46:24.000Z</time>
      </trkpt>
      <trkpt lat="45.84159" lon="4.65388">
        <ele>348.95471</ele>
        <time>2023-09-30T09:46:25.000Z</time>
      </trkpt>
      <trkpt lat="45.84163" lon="4.65386">
        <ele>349.00122</ele>
        <time>2023-09-30T09:46:26.000Z</time>
      </trkpt>
      <trkpt lat="45.84167" lon="4.65384">
        <ele>349.01065</ele>
        <time>2023-09-30T09:46:27.000Z</time>
      </trkpt>
      <trkpt lat="45.84171" lon="4.65382">
        <ele>348.97556</ele>
        <time>2023-09-30T09:46:28.000Z</time>
      </trkpt>
      <trkpt lat="45.84176" lon="4.65381">
        <ele>348.97345</ele>
        <time>2023-09-30T09:46:29.000Z</time>
      </trkpt>
      <trkpt lat="45.8418" lon="4.6538">
        <ele>348.98383</ele>
        <time>2023-09-30T09:46:30.000Z</time>
      </trkpt>
      <trkpt lat="45.84184" lon="4.6538">
        <ele>349.2811</ele>
        <time>2023-09-30T09:46:31.000Z</time>
      </trkpt>
      <trkpt lat="45.84188" lon="4.65379">
        <ele>349.50787</ele>
        <time>2023-09-30T09:46:32.000Z</time>
      </trkpt>
      <trkpt lat="45.84193" lon="4.65379">
        <ele>349.74612</ele>
        <time>2023-09-30T09:46:33.000Z</time>
      </trkpt>
      <trkpt lat="45.84197" lon="4.65378">
        <ele>350.10196</ele>
        <time>2023-09-30T09:46:34.000Z</time>
      </trkpt>
      <trkpt lat="45.84202" lon="4.65378">
        <ele>350.5163</ele>
        <time>2023-09-30T09:46:35.000Z</time>
      </trkpt>
      <trkpt lat="45.84206" lon="4.65377">
        <ele>350.45673</ele>
        <time>2023-09-30T09:46:36.000Z</time>
      </trkpt>
      <trkpt lat="45.8421" lon="4.65377">
        <ele>350.50717</ele>
        <time>2023-09-30T09:46:37.000Z</time>
      </trkpt>
      <trkpt lat="45.84214" lon="4.65377">
        <ele>350.52167</ele>
        <time>2023-09-30T09:46:38.000Z</time>
      </trkpt>
      <trkpt lat="45.84218" lon="4.65378">
        <ele>350.53278</ele>
        <time>2023-09-30T09:46:39.000Z</time>
      </trkpt>
      <trkpt lat="45.84222" lon="4.65379">
        <ele>350.55133</ele>
        <time>2023-09-30T09:46:40.000Z</time>
      </trkpt>
      <trkpt lat="45.84227" lon="4.65379">
        <ele>350.09137</ele>
        <time>2023-09-30T09:46:41.000Z</time>
      </trkpt>
      <trkpt lat="45.84231" lon="4.65379">
        <ele>350.28009</ele>
        <time>2023-09-30T09:46:42.000Z</time>
      </trkpt>
      <trkpt lat="45.84236" lon="4.65379">
        <ele>351.11353</ele>
        <time>2023-09-30T09:46:43.000Z</time>
      </trkpt>
      <trkpt lat="45.84241" lon="4.65379">
        <ele>352.32465</ele>
        <time>2023-09-30T09:46:44.000Z</time>
      </trkpt>
      <trkpt lat="45.84246" lon="4.6538">
        <ele>353.58423</ele>
        <time>2023-09-30T09:46:45.000Z</time>
      </trkpt>
      <trkpt lat="45.8425" lon="4.6538">
        <ele>353.45929</ele>
        <time>2023-09-30T09:46:46.000Z</time>
      </trkpt>
      <trkpt lat="45.84255" lon="4.65382">
        <ele>353.47668</ele>
        <time>2023-09-30T09:46:47.000Z</time>
      </trkpt>
      <trkpt lat="45.84259" lon="4.65383">
        <ele>353.54047</ele>
        <time>2023-09-30T09:46:48.000Z</time>
      </trkpt>
      <trkpt lat="45.84263" lon="4.65383">
        <ele>353.53143</ele>
        <time>2023-09-30T09:46:49.000Z</time>
      </trkpt>
      <trkpt lat="45.84267" lon="4.65385">
        <ele>353.57175</ele>
        <time>2023-09-30T09:46:50.000Z</time>
      </trkpt>
      <trkpt lat="45.84271" lon="4.65387">
        <ele>353.32697</ele>
        <time>2023-09-30T09:46:51.000Z</time>
      </trkpt>
      <trkpt lat="45.84276" lon="4.65388">
        <ele>352.91022</ele>
        <time>2023-09-30T09:46:52.000Z</time>
      </trkpt>
      <trkpt lat="45.8428" lon="4.65388">
        <ele>352.49512</ele>
        <time>2023-09-30T09:46:53.000Z</time>
      </trkpt>
      <trkpt lat="45.84284" lon="4.65388">
        <ele>352.28116</ele>
        <time>2023-09-30T09:46:54.000Z</time>
      </trkpt>
      <trkpt lat="45.84288" lon="4.65389">
        <ele>352.16876</ele>
        <time>2023-09-30T09:46:55.000Z</time>
      </trkpt>
      <trkpt lat="45.84293" lon="4.65389">
        <ele>352.81549</ele>
        <time>2023-09-30T09:46:56.000Z</time>
      </trkpt>
      <trkpt lat="45.84297" lon="4.6539">
        <ele>353.38318</ele>
        <time>2023-09-30T09:46:57.000Z</time>
      </trkpt>
      <trkpt lat="45.84301" lon="4.65392">
        <ele>353.974</ele>
        <time>2023-09-30T09:46:58.000Z</time>
      </trkpt>
      <trkpt lat="45.84306" lon="4.65393">
        <ele>354.58505</ele>
        <time>2023-09-30T09:46:59.000Z</time>
      </trkpt>
      <trkpt lat="45.8431" lon="4.65393">
        <ele>355.17987</ele>
        <time>2023-09-30T09:47:00.000Z</time>
      </trkpt>
      <trkpt lat="45.84315" lon="4.65394">
        <ele>355.81784</ele>
        <time>2023-09-30T09:47:01.000Z</time>
      </trkpt>
      <trkpt lat="45.8432" lon="4.65395">
        <ele>355.91919</ele>
        <time>2023-09-30T09:47:02.000Z</time>
      </trkpt>
      <trkpt lat="45.84325" lon="4.65395">
        <ele>356.18307</ele>
        <time>2023-09-30T09:47:03.000Z</time>
      </trkpt>
      <trkpt lat="45.84329" lon="4.65396">
        <ele>356.02286</ele>
        <time>2023-09-30T09:47:04.000Z</time>
      </trkpt>
      <trkpt lat="45.84334" lon="4.65395">
        <ele>355.82996</ele>
        <time>2023-09-30T09:47:05.000Z</time>
      </trkpt>
      <trkpt lat="45.84339" lon="4.65395">
        <ele>356.37003</ele>
        <time>2023-09-30T09:47:06.000Z</time>
      </trkpt>
      <trkpt lat="45.84343" lon="4.65396">
        <ele>356.86591</ele>
        <time>2023-09-30T09:47:07.000Z</time>
      </trkpt>
      <trkpt lat="45.84347" lon="4.65396">
        <ele>357.25845</ele>
        <time>2023-09-30T09:47:08.000Z</time>
      </trkpt>
      <trkpt lat="45.84351" lon="4.65397">
        <ele>357.64209</ele>
        <time>2023-09-30T09:47:09.000Z</time>
      </trkpt>
      <trkpt lat="45.84354" lon="4.65398">
        <ele>357.86133</ele>
        <time>2023-09-30T09:47:10.000Z</time>
      </trkpt>
      <trkpt lat="45.84358" lon="4.65399">
        <ele>358.45139</ele>
        <time>2023-09-30T09:47:12.000Z</time>
      </trkpt>
      <trkpt lat="45.84359" lon="4.654">
        <ele>359.09393</ele>
        <time>2023-09-30T09:47:13.000Z</time>
      </trkpt>
      <trkpt lat="45.84362" lon="4.654">
        <ele>359.85379</ele>
        <time>2023-09-30T09:47:14.000Z</time>
      </trkpt>
      <trkpt lat="45.84364" lon="4.65401">
        <ele>359.69513</ele>
        <time>2023-09-30T09:47:15.000Z</time>
      </trkpt>
      <trkpt lat="45.84367" lon="4.65402">
        <ele>359.42889</ele>
        <time>2023-09-30T09:47:16.000Z</time>
      </trkpt>
      <trkpt lat="45.84371" lon="4.65403">
        <ele>359.06866</ele>
        <time>2023-09-30T09:47:17.000Z</time>
      </trkpt>
      <trkpt lat="45.84374" lon="4.65403">
        <ele>358.66684</ele>
        <time>2023-09-30T09:47:18.000Z</time>
      </trkpt>
      <trkpt lat="45.84377" lon="4.65403">
        <ele>358.2099</ele>
        <time>2023-09-30T09:47:19.000Z</time>
      </trkpt>
      <trkpt lat="45.8438" lon="4.65403">
        <ele>357.75125</ele>
        <time>2023-09-30T09:47:20.000Z</time>
      </trkpt>
      <trkpt lat="45.84383" lon="4.65404">
        <ele>357.27148</ele>
        <time>2023-09-30T09:47:21.000Z</time>
      </trkpt>
      <trkpt lat="45.84386" lon="4.65405">
        <ele>356.79221</ele>
        <time>2023-09-30T09:47:22.000Z</time>
      </trkpt>
      <trkpt lat="45.8439" lon="4.65407">
        <ele>356.819</ele>
        <time>2023-09-30T09:47:23.000Z</time>
      </trkpt>
      <trkpt lat="45.84393" lon="4.65409">
        <ele>357.05746</ele>
        <time>2023-09-30T09:47:24.000Z</time>
      </trkpt>
      <trkpt lat="45.84396" lon="4.6541">
        <ele>357.32928</ele>
        <time>2023-09-30T09:47:25.000Z</time>
      </trkpt>
      <trkpt lat="45.844" lon="4.65411">
        <ele>357.61429</ele>
        <time>2023-09-30T09:47:26.000Z</time>
      </trkpt>
      <trkpt lat="45.84403" lon="4.65412">
        <ele>357.14655</ele>
        <time>2023-09-30T09:47:27.000Z</time>
      </trkpt>
      <trkpt lat="45.84407" lon="4.65413">
        <ele>356.72592</ele>
        <time>2023-09-30T09:47:28.000Z</time>
      </trkpt>
      <trkpt lat="45.84412" lon="4.65416">
        <ele>356.28455</ele>
        <time>2023-09-30T09:47:29.000Z</time>
      </trkpt>
      <trkpt lat="45.84417" lon="4.65418">
        <ele>355.89661</ele>
        <time>2023-09-30T09:47:30.000Z</time>
      </trkpt>
      <trkpt lat="45.84423" lon="4.6542">
        <ele>355.60349</ele>
        <time>2023-09-30T09:47:31.000Z</time>
      </trkpt>
      <trkpt lat="45.8443" lon="4.65421">
        <ele>354.9248</ele>
        <time>2023-09-30T09:47:32.000Z</time>
      </trkpt>
      <trkpt lat="45.84436" lon="4.65423">
        <ele>354.20721</ele>
        <time>2023-09-30T09:47:33.000Z</time>
      </trkpt>
      <trkpt lat="45.84443" lon="4.65425">
        <ele>352.62894</ele>
        <time>2023-09-30T09:47:34.000Z</time>
      </trkpt>
      <trkpt lat="45.8445" lon="4.65427">
        <ele>351.69958</ele>
        <time>2023-09-30T09:47:35.000Z</time>
      </trkpt>
      <trkpt lat="45.84455" lon="4.65428">
        <ele>350.69754</ele>
        <time>2023-09-30T09:47:36.000Z</time>
      </trkpt>
      <trkpt lat="45.84461" lon="4.65429">
        <ele>349.29681</ele>
        <time>2023-09-30T09:47:37.000Z</time>
      </trkpt>
      <trkpt lat="45.84466" lon="4.65431">
        <ele>347.91827</ele>
        <time>2023-09-30T09:47:38.000Z</time>
      </trkpt>
      <trkpt lat="45.84472" lon="4.65431">
        <ele>347.63367</ele>
        <time>2023-09-30T09:47:39.000Z</time>
      </trkpt>
      <trkpt lat="45.84476" lon="4.65432">
        <ele>347.34341</ele>
        <time>2023-09-30T09:47:40.000Z</time>
      </trkpt>
      <trkpt lat="45.84481" lon="4.65429">
        <ele>347.05463</ele>
        <time>2023-09-30T09:47:41.000Z</time>
      </trkpt>
      <trkpt lat="45.84486" lon="4.65427">
        <ele>346.75116</ele>
        <time>2023-09-30T09:47:42.000Z</time>
      </trkpt>
      <trkpt lat="45.84491" lon="4.65423">
        <ele>346.46149</ele>
        <time>2023-09-30T09:47:43.000Z</time>
      </trkpt>
      <trkpt lat="45.84496" lon="4.65419">
        <ele>343.66229</ele>
        <time>2023-09-30T09:47:44.000Z</time>
      </trkpt>
      <trkpt lat="45.84502" lon="4.65415">
        <ele>341.41635</ele>
        <time>2023-09-30T09:47:45.000Z</time>
      </trkpt>
      <trkpt lat="45.84508" lon="4.65411">
        <ele>339.41742</ele>
        <time>2023-09-30T09:47:46.000Z</time>
      </trkpt>
      <trkpt lat="45.84514" lon="4.65405">
        <ele>337.99109</ele>
        <time>2023-09-30T09:47:47.000Z</time>
      </trkpt>
      <trkpt lat="45.84519" lon="4.65398">
        <ele>336.38416</ele>
        <time>2023-09-30T09:47:48.000Z</time>
      </trkpt>
      <trkpt lat="45.84525" lon="4.65391">
        <ele>335.67715</ele>
        <time>2023-09-30T09:47:49.000Z</time>
      </trkpt>
      <trkpt lat="45.8453" lon="4.65383">
        <ele>334.9418</ele>
        <time>2023-09-30T09:47:50.000Z</time>
      </trkpt>
      <trkpt lat="45.84535" lon="4.65377">
        <ele>334.19049</ele>
        <time>2023-09-30T09:47:51.000Z</time>
      </trkpt>
      <trkpt lat="45.84541" lon="4.6537">
        <ele>333.4339</ele>
        <time>2023-09-30T09:47:52.000Z</time>
      </trkpt>
      <trkpt lat="45.84547" lon="4.65363">
        <ele>332.66602</ele>
        <time>2023-09-30T09:47:53.000Z</time>
      </trkpt>
      <trkpt lat="45.84553" lon="4.65354">
        <ele>330.71341</ele>
        <time>2023-09-30T09:47:54.000Z</time>
      </trkpt>
      <trkpt lat="45.84559" lon="4.65345">
        <ele>330.48102</ele>
        <time>2023-09-30T09:47:55.000Z</time>
      </trkpt>
      <trkpt lat="45.84565" lon="4.65336">
        <ele>330.25058</ele>
        <time>2023-09-30T09:47:56.000Z</time>
      </trkpt>
      <trkpt lat="45.84571" lon="4.65325">
        <ele>330.40601</ele>
        <time>2023-09-30T09:47:57.000Z</time>
      </trkpt>
      <trkpt lat="45.84577" lon="4.65315">
        <ele>330.5766</ele>
        <time>2023-09-30T09:47:58.000Z</time>
      </trkpt>
      <trkpt lat="45.84584" lon="4.65306">
        <ele>329.70953</ele>
        <time>2023-09-30T09:47:59.000Z</time>
      </trkpt>
      <trkpt lat="45.8459" lon="4.65297">
        <ele>328.65601</ele>
        <time>2023-09-30T09:48:00.000Z</time>
      </trkpt>
      <trkpt lat="45.84595" lon="4.65287">
        <ele>327.62286</ele>
        <time>2023-09-30T09:48:01.000Z</time>
      </trkpt>
      <trkpt lat="45.84601" lon="4.65277">
        <ele>326.57562</ele>
        <time>2023-09-30T09:48:02.000Z</time>
      </trkpt>
      <trkpt lat="45.84607" lon="4.65267">
        <ele>325.56683</ele>
        <time>2023-09-30T09:48:03.000Z</time>
      </trkpt>
      <trkpt lat="45.84612" lon="4.65258">
        <ele>326.61792</ele>
        <time>2023-09-30T09:48:04.000Z</time>
      </trkpt>
      <trkpt lat="45.84617" lon="4.65249">
        <ele>327.10406</ele>
        <time>2023-09-30T09:48:05.000Z</time>
      </trkpt>
      <trkpt lat="45.84623" lon="4.65238">
        <ele>327.23663</ele>
        <time>2023-09-30T09:48:06.000Z</time>
      </trkpt>
      <trkpt lat="45.84628" lon="4.65229">
        <ele>327.47583</ele>
        <time>2023-09-30T09:48:07.000Z</time>
      </trkpt>
      <trkpt lat="45.84633" lon="4.6522">
        <ele>327.71149</ele>
        <time>2023-09-30T09:48:08.000Z</time>
      </trkpt>
      <trkpt lat="45.84638" lon="4.6521">
        <ele>327.09518</ele>
        <time>2023-09-30T09:48:09.000Z</time>
      </trkpt>
      <trkpt lat="45.84642" lon="4.65201">
        <ele>326.71902</ele>
        <time>2023-09-30T09:48:10.000Z</time>
      </trkpt>
      <trkpt lat="45.84646" lon="4.65191">
        <ele>325.16904</ele>
        <time>2023-09-30T09:48:11.000Z</time>
      </trkpt>
      <trkpt lat="45.8465" lon="4.6518">
        <ele>323.62198</ele>
        <time>2023-09-30T09:48:12.000Z</time>
      </trkpt>
      <trkpt lat="45.84653" lon="4.65169">
        <ele>322.16388</ele>
        <time>2023-09-30T09:48:13.000Z</time>
      </trkpt>
      <trkpt lat="45.84656" lon="4.65158">
        <ele>322.5849</ele>
        <time>2023-09-30T09:48:14.000Z</time>
      </trkpt>
      <trkpt lat="45.84658" lon="4.65147">
        <ele>321.23431</ele>
        <time>2023-09-30T09:48:15.000Z</time>
      </trkpt>
      <trkpt lat="45.8466" lon="4.65135">
        <ele>319.89297</ele>
        <time>2023-09-30T09:48:16.000Z</time>
      </trkpt>
      <trkpt lat="45.84661" lon="4.65124">
        <ele>318.56219</ele>
        <time>2023-09-30T09:48:17.000Z</time>
      </trkpt>
      <trkpt lat="45.84662" lon="4.65115">
        <ele>317.18805</ele>
        <time>2023-09-30T09:48:18.000Z</time>
      </trkpt>
      <trkpt lat="45.84663" lon="4.65107">
        <ele>317.06406</ele>
        <time>2023-09-30T09:48:19.000Z</time>
      </trkpt>
      <trkpt lat="45.84664" lon="4.65098">
        <ele>316.66931</ele>
        <time>2023-09-30T09:48:20.000Z</time>
      </trkpt>
      <trkpt lat="45.84664" lon="4.6509">
        <ele>316.24643</ele>
        <time>2023-09-30T09:48:21.000Z</time>
      </trkpt>
      <trkpt lat="45.84663" lon="4.65081">
        <ele>315.84857</ele>
        <time>2023-09-30T09:48:22.000Z</time>
      </trkpt>
      <trkpt lat="45.84663" lon="4.65074">
        <ele>315.49103</ele>
        <time>2023-09-30T09:48:23.000Z</time>
      </trkpt>
      <trkpt lat="45.84664" lon="4.65069">
        <ele>315.14224</ele>
        <time>2023-09-30T09:48:24.000Z</time>
      </trkpt>
      <trkpt lat="45.84667" lon="4.65064">
        <ele>314.742</ele>
        <time>2023-09-30T09:48:25.000Z</time>
      </trkpt>
      <trkpt lat="45.84672" lon="4.65059">
        <ele>314.36859</ele>
        <time>2023-09-30T09:48:26.000Z</time>
      </trkpt>
      <trkpt lat="45.84679" lon="4.65056">
        <ele>313.89682</ele>
        <time>2023-09-30T09:48:27.000Z</time>
      </trkpt>
      <trkpt lat="45.84686" lon="4.65055">
        <ele>313.41696</ele>
        <time>2023-09-30T09:48:28.000Z</time>
      </trkpt>
      <trkpt lat="45.84695" lon="4.65051">
        <ele>312.91324</ele>
        <time>2023-09-30T09:48:29.000Z</time>
      </trkpt>
      <trkpt lat="45.84705" lon="4.65047">
        <ele>312.1546</ele>
        <time>2023-09-30T09:48:30.000Z</time>
      </trkpt>
      <trkpt lat="45.84715" lon="4.65043">
        <ele>312.54288</ele>
        <time>2023-09-30T09:48:31.000Z</time>
      </trkpt>
      <trkpt lat="45.84725" lon="4.6504">
        <ele>312.93564</ele>
        <time>2023-09-30T09:48:32.000Z</time>
      </trkpt>
      <trkpt lat="45.84735" lon="4.65037">
        <ele>313.2486</ele>
        <time>2023-09-30T09:48:33.000Z</time>
      </trkpt>
      <trkpt lat="45.84746" lon="4.65032">
        <ele>313.57379</ele>
        <time>2023-09-30T09:48:34.000Z</time>
      </trkpt>
      <trkpt lat="45.84754" lon="4.65029">
        <ele>313.92529</ele>
        <time>2023-09-30T09:48:35.000Z</time>
      </trkpt>
      <trkpt lat="45.84762" lon="4.65025">
        <ele>314.26184</ele>
        <time>2023-09-30T09:48:36.000Z</time>
      </trkpt>
      <trkpt lat="45.84769" lon="4.65024">
        <ele>314.53928</ele>
        <time>2023-09-30T09:48:37.000Z</time>
      </trkpt>
      <trkpt lat="45.84776" lon="4.65026">
        <ele>314.8522</ele>
        <time>2023-09-30T09:48:38.000Z</time>
      </trkpt>
      <trkpt lat="45.84782" lon="4.65032">
        <ele>313.79364</ele>
        <time>2023-09-30T09:48:39.000Z</time>
      </trkpt>
      <trkpt lat="45.84785" lon="4.65041">
        <ele>313.2049</ele>
        <time>2023-09-30T09:48:40.000Z</time>
      </trkpt>
      <trkpt lat="45.8479" lon="4.65052">
        <ele>312.59222</ele>
        <time>2023-09-30T09:48:41.000Z</time>
      </trkpt>
      <trkpt lat="45.84794" lon="4.65064">
        <ele>311.9317</ele>
        <time>2023-09-30T09:48:42.000Z</time>
      </trkpt>
      <trkpt lat="45.84799" lon="4.65076">
        <ele>311.48865</ele>
        <time>2023-09-30T09:48:43.000Z</time>
      </trkpt>
      <trkpt lat="45.84803" lon="4.65087">
        <ele>311.07431</ele>
        <time>2023-09-30T09:48:44.000Z</time>
      </trkpt>
      <trkpt lat="45.84807" lon="4.65099">
        <ele>310.85431</ele>
        <time>2023-09-30T09:48:45.000Z</time>
      </trkpt>
      <trkpt lat="45.84812" lon="4.6511">
        <ele>310.77863</ele>
        <time>2023-09-30T09:48:46.000Z</time>
      </trkpt>
      <trkpt lat="45.84816" lon="4.65122">
        <ele>310.76907</ele>
        <time>2023-09-30T09:48:47.000Z</time>
      </trkpt>
      <trkpt lat="45.84821" lon="4.65134">
        <ele>309.96552</ele>
        <time>2023-09-30T09:48:48.000Z</time>
      </trkpt>
      <trkpt lat="45.84825" lon="4.65147">
        <ele>309.31601</ele>
        <time>2023-09-30T09:48:49.000Z</time>
      </trkpt>
      <trkpt lat="45.8483" lon="4.65159">
        <ele>308.65659</ele>
        <time>2023-09-30T09:48:50.000Z</time>
      </trkpt>
      <trkpt lat="45.84834" lon="4.65172">
        <ele>308.05795</ele>
        <time>2023-09-30T09:48:51.000Z</time>
      </trkpt>
      <trkpt lat="45.84837" lon="4.65184">
        <ele>307.51297</ele>
        <time>2023-09-30T09:48:52.000Z</time>
      </trkpt>
      <trkpt lat="45.84841" lon="4.65196">
        <ele>307.0303</ele>
        <time>2023-09-30T09:48:53.000Z</time>
      </trkpt>
      <trkpt lat="45.84844" lon="4.65208">
        <ele>306.57709</ele>
        <time>2023-09-30T09:48:54.000Z</time>
      </trkpt>
      <trkpt lat="45.84846" lon="4.65219">
        <ele>306.04785</ele>
        <time>2023-09-30T09:48:55.000Z</time>
      </trkpt>
      <trkpt lat="45.8485" lon="4.65231">
        <ele>306.09875</ele>
        <time>2023-09-30T09:48:56.000Z</time>
      </trkpt>
      <trkpt lat="45.84853" lon="4.65243">
        <ele>306.27679</ele>
        <time>2023-09-30T09:48:57.000Z</time>
      </trkpt>
      <trkpt lat="45.84856" lon="4.65253">
        <ele>306.4248</ele>
        <time>2023-09-30T09:48:58.000Z</time>
      </trkpt>
      <trkpt lat="45.8486" lon="4.65262">
        <ele>306.70877</ele>
        <time>2023-09-30T09:48:59.000Z</time>
      </trkpt>
      <trkpt lat="45.84865" lon="4.6527">
        <ele>306.98135</ele>
        <time>2023-09-30T09:49:00.000Z</time>
      </trkpt>
      <trkpt lat="45.8487" lon="4.65278">
        <ele>306.42487</ele>
        <time>2023-09-30T09:49:01.000Z</time>
      </trkpt>
      <trkpt lat="45.84874" lon="4.65286">
        <ele>306.06155</ele>
        <time>2023-09-30T09:49:02.000Z</time>
      </trkpt>
      <trkpt lat="45.84876" lon="4.65295">
        <ele>305.366</ele>
        <time>2023-09-30T09:49:03.000Z</time>
      </trkpt>
      <trkpt lat="45.84878" lon="4.65304">
        <ele>304.69427</ele>
        <time>2023-09-30T09:49:04.000Z</time>
      </trkpt>
      <trkpt lat="45.84878" lon="4.65313">
        <ele>304.50458</ele>
        <time>2023-09-30T09:49:05.000Z</time>
      </trkpt>
      <trkpt lat="45.84877" lon="4.65322">
        <ele>303.94333</ele>
        <time>2023-09-30T09:49:06.000Z</time>
      </trkpt>
      <trkpt lat="45.84875" lon="4.65331">
        <ele>303.33368</ele>
        <time>2023-09-30T09:49:07.000Z</time>
      </trkpt>
      <trkpt lat="45.84874" lon="4.65339">
        <ele>303.54468</ele>
        <time>2023-09-30T09:49:08.000Z</time>
      </trkpt>
      <trkpt lat="45.84874" lon="4.65345">
        <ele>303.67221</ele>
        <time>2023-09-30T09:49:09.000Z</time>
      </trkpt>
      <trkpt lat="45.84873" lon="4.65352">
        <ele>303.86621</ele>
        <time>2023-09-30T09:49:10.000Z</time>
      </trkpt>
      <trkpt lat="45.84871" lon="4.65358">
        <ele>301.88071</ele>
        <time>2023-09-30T09:49:11.000Z</time>
      </trkpt>
      <trkpt lat="45.84869" lon="4.65364">
        <ele>301.96454</ele>
        <time>2023-09-30T09:49:12.000Z</time>
      </trkpt>
      <trkpt lat="45.84866" lon="4.65368">
        <ele>302.01886</ele>
        <time>2023-09-30T09:49:13.000Z</time>
      </trkpt>
      <trkpt lat="45.84862" lon="4.6537">
        <ele>302.06586</ele>
        <time>2023-09-30T09:49:14.000Z</time>
      </trkpt>
      <trkpt lat="45.84858" lon="4.65371">
        <ele>302.1618</ele>
        <time>2023-09-30T09:49:15.000Z</time>
      </trkpt>
      <trkpt lat="45.84853" lon="4.65372">
        <ele>301.69971</ele>
        <time>2023-09-30T09:49:16.000Z</time>
      </trkpt>
      <trkpt lat="45.84847" lon="4.65373">
        <ele>299.1535</ele>
        <time>2023-09-30T09:49:17.000Z</time>
      </trkpt>
      <trkpt lat="45.84842" lon="4.65374">
        <ele>298.50409</ele>
        <time>2023-09-30T09:49:18.000Z</time>
      </trkpt>
      <trkpt lat="45.84837" lon="4.65375">
        <ele>297.79907</ele>
        <time>2023-09-30T09:49:19.000Z</time>
      </trkpt>
      <trkpt lat="45.84832" lon="4.65376">
        <ele>297.07178</ele>
        <time>2023-09-30T09:49:20.000Z</time>
      </trkpt>
      <trkpt lat="45.84827" lon="4.65376">
        <ele>297.18338</ele>
        <time>2023-09-30T09:49:21.000Z</time>
      </trkpt>
      <trkpt lat="45.84821" lon="4.65376">
        <ele>297.15875</ele>
        <time>2023-09-30T09:49:22.000Z</time>
      </trkpt>
      <trkpt lat="45.84816" lon="4.65379">
        <ele>295.25473</ele>
        <time>2023-09-30T09:49:23.000Z</time>
      </trkpt>
      <trkpt lat="45.84811" lon="4.6538">
        <ele>295.17395</ele>
        <time>2023-09-30T09:49:24.000Z</time>
      </trkpt>
      <trkpt lat="45.84806" lon="4.65383">
        <ele>294.48257</ele>
        <time>2023-09-30T09:49:25.000Z</time>
      </trkpt>
      <trkpt lat="45.84802" lon="4.65388">
        <ele>292.52835</ele>
        <time>2023-09-30T09:49:26.000Z</time>
      </trkpt>
      <trkpt lat="45.84798" lon="4.65391">
        <ele>290.65741</ele>
        <time>2023-09-30T09:49:27.000Z</time>
      </trkpt>
      <trkpt lat="45.84794" lon="4.65396">
        <ele>290.62009</ele>
        <time>2023-09-30T09:49:28.000Z</time>
      </trkpt>
      <trkpt lat="45.8479" lon="4.65402">
        <ele>290.55991</ele>
        <time>2023-09-30T09:49:29.000Z</time>
      </trkpt>
      <trkpt lat="45.84786" lon="4.65408">
        <ele>289.96686</ele>
        <time>2023-09-30T09:49:30.000Z</time>
      </trkpt>
      <trkpt lat="45.84782" lon="4.65414">
        <ele>290.29816</ele>
        <time>2023-09-30T09:49:31.000Z</time>
      </trkpt>
      <trkpt lat="45.84779" lon="4.6542">
        <ele>288.55045</ele>
        <time>2023-09-30T09:49:32.000Z</time>
      </trkpt>
      <trkpt lat="45.84776" lon="4.65425">
        <ele>286.81473</ele>
        <time>2023-09-30T09:49:33.000Z</time>
      </trkpt>
      <trkpt lat="45.84773" lon="4.65431">
        <ele>285.09711</ele>
        <time>2023-09-30T09:49:34.000Z</time>
      </trkpt>
      <trkpt lat="45.8477" lon="4.65438">
        <ele>283.37527</ele>
        <time>2023-09-30T09:49:35.000Z</time>
      </trkpt>
      <trkpt lat="45.84767" lon="4.65445">
        <ele>281.63013</ele>
        <time>2023-09-30T09:49:36.000Z</time>
      </trkpt>
      <trkpt lat="45.84766" lon="4.65453">
        <ele>281.93884</ele>
        <time>2023-09-30T09:49:37.000Z</time>
      </trkpt>
      <trkpt lat="45.84764" lon="4.65462">
        <ele>281.07813</ele>
        <time>2023-09-30T09:49:38.000Z</time>
      </trkpt>
      <trkpt lat="45.84762" lon="4.65469">
        <ele>281.22763</ele>
        <time>2023-09-30T09:49:39.000Z</time>
      </trkpt>
      <trkpt lat="45.84759" lon="4.65477">
        <ele>281.45142</ele>
        <time>2023-09-30T09:49:40.000Z</time>
      </trkpt>
      <trkpt lat="45.84758" lon="4.65485">
        <ele>281.7016</ele>
        <time>2023-09-30T09:49:41.000Z</time>
      </trkpt>
      <trkpt lat="45.84756" lon="4.65493">
        <ele>282.32834</ele>
        <time>2023-09-30T09:49:42.000Z</time>
      </trkpt>
      <trkpt lat="45.84755" lon="4.655">
        <ele>284.90845</ele>
        <time>2023-09-30T09:49:43.000Z</time>
      </trkpt>
      <trkpt lat="45.84753" lon="4.65507">
        <ele>285.6731</ele>
        <time>2023-09-30T09:49:44.000Z</time>
      </trkpt>
      <trkpt lat="45.84751" lon="4.65513">
        <ele>285.19806</ele>
        <time>2023-09-30T09:49:45.000Z</time>
      </trkpt>
      <trkpt lat="45.84749" lon="4.6552">
        <ele>286.98016</ele>
        <time>2023-09-30T09:49:46.000Z</time>
      </trkpt>
      <trkpt lat="45.84747" lon="4.65526">
        <ele>288.82925</ele>
        <time>2023-09-30T09:49:47.000Z</time>
      </trkpt>
      <trkpt lat="45.84746" lon="4.65531">
        <ele>288.89474</ele>
        <time>2023-09-30T09:49:48.000Z</time>
      </trkpt>
      <trkpt lat="45.84746" lon="4.65537">
        <ele>288.43024</ele>
        <time>2023-09-30T09:49:49.000Z</time>
      </trkpt>
      <trkpt lat="45.84744" lon="4.65544">
        <ele>288.49603</ele>
        <time>2023-09-30T09:49:50.000Z</time>
      </trkpt>
      <trkpt lat="45.84743" lon="4.65551">
        <ele>289.81784</ele>
        <time>2023-09-30T09:49:51.000Z</time>
      </trkpt>
      <trkpt lat="45.84743" lon="4.65558">
        <ele>291.14078</ele>
        <time>2023-09-30T09:49:52.000Z</time>
      </trkpt>
      <trkpt lat="45.84742" lon="4.65564">
        <ele>292.46478</ele>
        <time>2023-09-30T09:49:53.000Z</time>
      </trkpt>
      <trkpt lat="45.8474" lon="4.65571">
        <ele>292.51495</ele>
        <time>2023-09-30T09:49:54.000Z</time>
      </trkpt>
      <trkpt lat="45.84739" lon="4.65577">
        <ele>292.59955</ele>
        <time>2023-09-30T09:49:55.000Z</time>
      </trkpt>
      <trkpt lat="45.84737" lon="4.65585">
        <ele>292.68893</ele>
        <time>2023-09-30T09:49:56.000Z</time>
      </trkpt>
      <trkpt lat="45.84736" lon="4.65592">
        <ele>292.78604</ele>
        <time>2023-09-30T09:49:57.000Z</time>
      </trkpt>
      <trkpt lat="45.84735" lon="4.65598">
        <ele>292.16245</ele>
        <time>2023-09-30T09:49:58.000Z</time>
      </trkpt>
      <trkpt lat="45.84734" lon="4.65604">
        <ele>291.81277</ele>
        <time>2023-09-30T09:49:59.000Z</time>
      </trkpt>
      <trkpt lat="45.84732" lon="4.65609">
        <ele>291.37628</ele>
        <time>2023-09-30T09:50:00.000Z</time>
      </trkpt>
      <trkpt lat="45.84732" lon="4.65616">
        <ele>290.92215</ele>
        <time>2023-09-30T09:50:01.000Z</time>
      </trkpt>
      <trkpt lat="45.84731" lon="4.65624">
        <ele>290.09317</ele>
        <time>2023-09-30T09:50:02.000Z</time>
      </trkpt>
      <trkpt lat="45.84729" lon="4.65631">
        <ele>289.25497</ele>
        <time>2023-09-30T09:50:03.000Z</time>
      </trkpt>
      <trkpt lat="45.84729" lon="4.65637">
        <ele>288.61047</ele>
        <time>2023-09-30T09:50:04.000Z</time>
      </trkpt>
      <trkpt lat="45.84728" lon="4.65643">
        <ele>289.90094</ele>
        <time>2023-09-30T09:50:05.000Z</time>
      </trkpt>
      <trkpt lat="45.84727" lon="4.65647">
        <ele>290.44418</ele>
        <time>2023-09-30T09:50:06.000Z</time>
      </trkpt>
      <trkpt lat="45.84728" lon="4.65654">
        <ele>290.88123</ele>
        <time>2023-09-30T09:50:07.000Z</time>
      </trkpt>
      <trkpt lat="45.84727" lon="4.65659">
        <ele>290.21155</ele>
        <time>2023-09-30T09:50:08.000Z</time>
      </trkpt>
      <trkpt lat="45.84728" lon="4.65663">
        <ele>290.14929</ele>
        <time>2023-09-30T09:50:09.000Z</time>
      </trkpt>
      <trkpt lat="45.84726" lon="4.65671">
        <ele>288.86932</ele>
        <time>2023-09-30T09:50:10.000Z</time>
      </trkpt>
      <trkpt lat="45.84725" lon="4.65676">
        <ele>289.25262</ele>
        <time>2023-09-30T09:50:11.000Z</time>
      </trkpt>
      <trkpt lat="45.84724" lon="4.65682">
        <ele>289.68097</ele>
        <time>2023-09-30T09:50:12.000Z</time>
      </trkpt>
      <trkpt lat="45.8472" lon="4.65686">
        <ele>290.10516</ele>
        <time>2023-09-30T09:50:13.000Z</time>
      </trkpt>
      <trkpt lat="45.84717" lon="4.65689">
        <ele>291.42245</ele>
        <time>2023-09-30T09:50:14.000Z</time>
      </trkpt>
      <trkpt lat="45.84714" lon="4.65692">
        <ele>292.79572</ele>
        <time>2023-09-30T09:50:15.000Z</time>
      </trkpt>
      <trkpt lat="45.84711" lon="4.65696">
        <ele>294.17569</ele>
        <time>2023-09-30T09:50:16.000Z</time>
      </trkpt>
      <trkpt lat="45.84709" lon="4.657">
        <ele>295.55618</ele>
        <time>2023-09-30T09:50:17.000Z</time>
      </trkpt>
      <trkpt lat="45.84706" lon="4.65705">
        <ele>296.98334</ele>
        <time>2023-09-30T09:50:18.000Z</time>
      </trkpt>
      <trkpt lat="45.84704" lon="4.6571">
        <ele>297.27689</ele>
        <time>2023-09-30T09:50:19.000Z</time>
      </trkpt>
      <trkpt lat="45.84702" lon="4.65715">
        <ele>297.19092</ele>
        <time>2023-09-30T09:50:20.000Z</time>
      </trkpt>
      <trkpt lat="45.84699" lon="4.6572">
        <ele>297.11542</ele>
        <time>2023-09-30T09:50:21.000Z</time>
      </trkpt>
      <trkpt lat="45.84697" lon="4.65725">
        <ele>296.14105</ele>
        <time>2023-09-30T09:50:22.000Z</time>
      </trkpt>
      <trkpt lat="45.84695" lon="4.65729">
        <ele>294.96555</ele>
        <time>2023-09-30T09:50:23.000Z</time>
      </trkpt>
      <trkpt lat="45.84692" lon="4.65734">
        <ele>293.36996</ele>
        <time>2023-09-30T09:50:24.000Z</time>
      </trkpt>
      <trkpt lat="45.84691" lon="4.65739">
        <ele>292.59042</ele>
        <time>2023-09-30T09:50:25.000Z</time>
      </trkpt>
      <trkpt lat="45.84689" lon="4.65744">
        <ele>291.60114</ele>
        <time>2023-09-30T09:50:26.000Z</time>
      </trkpt>
      <trkpt lat="45.84687" lon="4.6575">
        <ele>291.4147</ele>
        <time>2023-09-30T09:50:27.000Z</time>
      </trkpt>
      <trkpt lat="45.84685" lon="4.65755">
        <ele>292.36194</ele>
        <time>2023-09-30T09:50:28.000Z</time>
      </trkpt>
      <trkpt lat="45.84683" lon="4.6576">
        <ele>293.2117</ele>
        <time>2023-09-30T09:50:29.000Z</time>
      </trkpt>
      <trkpt lat="45.84681" lon="4.65765">
        <ele>294.37177</ele>
        <time>2023-09-30T09:50:30.000Z</time>
      </trkpt>
      <trkpt lat="45.84678" lon="4.6577">
        <ele>294.27869</ele>
        <time>2023-09-30T09:50:31.000Z</time>
      </trkpt>
      <trkpt lat="45.84676" lon="4.65776">
        <ele>293.74872</ele>
        <time>2023-09-30T09:50:32.000Z</time>
      </trkpt>
      <trkpt lat="45.84673" lon="4.65782">
        <ele>293.18182</ele>
        <time>2023-09-30T09:50:33.000Z</time>
      </trkpt>
      <trkpt lat="45.84671" lon="4.65788">
        <ele>292.96283</ele>
        <time>2023-09-30T09:50:34.000Z</time>
      </trkpt>
      <trkpt lat="45.84669" lon="4.65793">
        <ele>292.63757</ele>
        <time>2023-09-30T09:50:35.000Z</time>
      </trkpt>
      <trkpt lat="45.84667" lon="4.65798">
        <ele>292.30078</ele>
        <time>2023-09-30T09:50:36.000Z</time>
      </trkpt>
      <trkpt lat="45.84665" lon="4.65804">
        <ele>291.91113</ele>
        <time>2023-09-30T09:50:37.000Z</time>
      </trkpt>
      <trkpt lat="45.84662" lon="4.65811">
        <ele>290.65878</ele>
        <time>2023-09-30T09:50:38.000Z</time>
      </trkpt>
      <trkpt lat="45.8466" lon="4.65817">
        <ele>289.28799</ele>
        <time>2023-09-30T09:50:39.000Z</time>
      </trkpt>
      <trkpt lat="45.84658" lon="4.65824">
        <ele>288.32501</ele>
        <time>2023-09-30T09:50:40.000Z</time>
      </trkpt>
      <trkpt lat="45.84654" lon="4.6583">
        <ele>287.35187</ele>
        <time>2023-09-30T09:50:41.000Z</time>
      </trkpt>
      <trkpt lat="45.84651" lon="4.65837">
        <ele>287.29391</ele>
        <time>2023-09-30T09:50:42.000Z</time>
      </trkpt>
      <trkpt lat="45.84647" lon="4.65843">
        <ele>287.45905</ele>
        <time>2023-09-30T09:50:43.000Z</time>
      </trkpt>
      <trkpt lat="45.84644" lon="4.65849">
        <ele>287.80951</ele>
        <time>2023-09-30T09:50:44.000Z</time>
      </trkpt>
      <trkpt lat="45.84641" lon="4.65855">
        <ele>286.66208</ele>
        <time>2023-09-30T09:50:45.000Z</time>
      </trkpt>
      <trkpt lat="45.84638" lon="4.65861">
        <ele>285.70871</ele>
        <time>2023-09-30T09:50:46.000Z</time>
      </trkpt>
      <trkpt lat="45.84635" lon="4.65868">
        <ele>283.60861</ele>
        <time>2023-09-30T09:50:47.000Z</time>
      </trkpt>
      <trkpt lat="45.84632" lon="4.65875">
        <ele>282.97253</ele>
        <time>2023-09-30T09:50:48.000Z</time>
      </trkpt>
      <trkpt lat="45.84628" lon="4.65882">
        <ele>282.54999</ele>
        <time>2023-09-30T09:50:49.000Z</time>
      </trkpt>
      <trkpt lat="45.84625" lon="4.65889">
        <ele>283.13348</ele>
        <time>2023-09-30T09:50:50.000Z</time>
      </trkpt>
      <trkpt lat="45.84622" lon="4.65895">
        <ele>283.40509</ele>
        <time>2023-09-30T09:50:51.000Z</time>
      </trkpt>
      <trkpt lat="45.84619" lon="4.65902">
        <ele>283.65131</ele>
        <time>2023-09-30T09:50:52.000Z</time>
      </trkpt>
      <trkpt lat="45.84616" lon="4.65908">
        <ele>283.93872</ele>
        <time>2023-09-30T09:50:53.000Z</time>
      </trkpt>
      <trkpt lat="45.84613" lon="4.65915">
        <ele>284.78156</ele>
        <time>2023-09-30T09:50:54.000Z</time>
      </trkpt>
      <trkpt lat="45.84609" lon="4.65922">
        <ele>285.60709</ele>
        <time>2023-09-30T09:50:55.000Z</time>
      </trkpt>
      <trkpt lat="45.84605" lon="4.65929">
        <ele>286.45758</ele>
        <time>2023-09-30T09:50:56.000Z</time>
      </trkpt>
      <trkpt lat="45.84602" lon="4.65935">
        <ele>287.32382</ele>
        <time>2023-09-30T09:50:57.000Z</time>
      </trkpt>
      <trkpt lat="45.84598" lon="4.65941">
        <ele>287.3038</ele>
        <time>2023-09-30T09:50:58.000Z</time>
      </trkpt>
      <trkpt lat="45.84595" lon="4.65947">
        <ele>287.28662</ele>
        <time>2023-09-30T09:50:59.000Z</time>
      </trkpt>
      <trkpt lat="45.84592" lon="4.65954">
        <ele>287.29999</ele>
        <time>2023-09-30T09:51:00.000Z</time>
      </trkpt>
      <trkpt lat="45.84588" lon="4.65959">
        <ele>287.34619</ele>
        <time>2023-09-30T09:51:01.000Z</time>
      </trkpt>
      <trkpt lat="45.84584" lon="4.65965">
        <ele>287.36041</ele>
        <time>2023-09-30T09:51:02.000Z</time>
      </trkpt>
      <trkpt lat="45.84581" lon="4.6597">
        <ele>287.37186</ele>
        <time>2023-09-30T09:51:03.000Z</time>
      </trkpt>
      <trkpt lat="45.84578" lon="4.65976">
        <ele>287.41406</ele>
        <time>2023-09-30T09:51:04.000Z</time>
      </trkpt>
      <trkpt lat="45.84575" lon="4.65981">
        <ele>287.44806</ele>
        <time>2023-09-30T09:51:05.000Z</time>
      </trkpt>
      <trkpt lat="45.84572" lon="4.65987">
        <ele>287.48544</ele>
        <time>2023-09-30T09:51:06.000Z</time>
      </trkpt>
      <trkpt lat="45.84569" lon="4.65993">
        <ele>287.87561</ele>
        <time>2023-09-30T09:51:07.000Z</time>
      </trkpt>
      <trkpt lat="45.84567" lon="4.65999">
        <ele>286.76144</ele>
        <time>2023-09-30T09:51:08.000Z</time>
      </trkpt>
      <trkpt lat="45.84563" lon="4.66003">
        <ele>285.46051</ele>
        <time>2023-09-30T09:51:09.000Z</time>
      </trkpt>
      <trkpt lat="45.8456" lon="4.66009">
        <ele>284.05865</ele>
        <time>2023-09-30T09:51:10.000Z</time>
      </trkpt>
      <trkpt lat="45.84555" lon="4.66014">
        <ele>282.58554</ele>
        <time>2023-09-30T09:51:11.000Z</time>
      </trkpt>
      <trkpt lat="45.84551" lon="4.66019">
        <ele>281.51773</ele>
        <time>2023-09-30T09:51:12.000Z</time>
      </trkpt>
      <trkpt lat="45.84547" lon="4.66023">
        <ele>280.40021</ele>
        <time>2023-09-30T09:51:13.000Z</time>
      </trkpt>
      <trkpt lat="45.84543" lon="4.66028">
        <ele>278.76337</ele>
        <time>2023-09-30T09:51:14.000Z</time>
      </trkpt>
      <trkpt lat="45.8454" lon="4.66033">
        <ele>277.16458</ele>
        <time>2023-09-30T09:51:15.000Z</time>
      </trkpt>
      <trkpt lat="45.84537" lon="4.66038">
        <ele>275.31674</ele>
        <time>2023-09-30T09:51:16.000Z</time>
      </trkpt>
      <trkpt lat="45.84533" lon="4.66042">
        <ele>273.42526</ele>
        <time>2023-09-30T09:51:17.000Z</time>
      </trkpt>
      <trkpt lat="45.8453" lon="4.66046">
        <ele>273.68353</ele>
        <time>2023-09-30T09:51:18.000Z</time>
      </trkpt>
      <trkpt lat="45.84526" lon="4.66051">
        <ele>273.73712</ele>
        <time>2023-09-30T09:51:19.000Z</time>
      </trkpt>
      <trkpt lat="45.84522" lon="4.66055">
        <ele>273.78235</ele>
        <time>2023-09-30T09:51:20.000Z</time>
      </trkpt>
      <trkpt lat="45.84519" lon="4.66059">
        <ele>273.82425</ele>
        <time>2023-09-30T09:51:21.000Z</time>
      </trkpt>
      <trkpt lat="45.84515" lon="4.66062">
        <ele>273.87662</ele>
        <time>2023-09-30T09:51:22.000Z</time>
      </trkpt>
      <trkpt lat="45.84511" lon="4.66066">
        <ele>273.96918</ele>
        <time>2023-09-30T09:51:23.000Z</time>
      </trkpt>
      <trkpt lat="45.84508" lon="4.66068">
        <ele>274.06772</ele>
        <time>2023-09-30T09:51:24.000Z</time>
      </trkpt>
      <trkpt lat="45.84504" lon="4.66071">
        <ele>274.17374</ele>
        <time>2023-09-30T09:51:25.000Z</time>
      </trkpt>
      <trkpt lat="45.84502" lon="4.66073">
        <ele>274.28766</ele>
        <time>2023-09-30T09:51:26.000Z</time>
      </trkpt>
      <trkpt lat="45.845" lon="4.66078">
        <ele>274.37201</ele>
        <time>2023-09-30T09:51:27.000Z</time>
      </trkpt>
      <trkpt lat="45.845" lon="4.66084">
        <ele>274.43793</ele>
        <time>2023-09-30T09:51:28.000Z</time>
      </trkpt>
      <trkpt lat="45.84503" lon="4.66088">
        <ele>274.3067</ele>
        <time>2023-09-30T09:51:29.000Z</time>
      </trkpt>
      <trkpt lat="45.84506" lon="4.66093">
        <ele>274.06992</ele>
        <time>2023-09-30T09:51:30.000Z</time>
      </trkpt>
      <trkpt lat="45.84509" lon="4.66098">
        <ele>273.69254</ele>
        <time>2023-09-30T09:51:31.000Z</time>
      </trkpt>
      <trkpt lat="45.84513" lon="4.66103">
        <ele>273.72531</ele>
        <time>2023-09-30T09:51:32.000Z</time>
      </trkpt>
      <trkpt lat="45.84517" lon="4.66108">
        <ele>273.72467</ele>
        <time>2023-09-30T09:51:33.000Z</time>
      </trkpt>
      <trkpt lat="45.84521" lon="4.66115">
        <ele>273.68536</ele>
        <time>2023-09-30T09:51:34.000Z</time>
      </trkpt>
      <trkpt lat="45.84525" lon="4.66121">
        <ele>273.62497</ele>
        <time>2023-09-30T09:51:35.000Z</time>
      </trkpt>
      <trkpt lat="45.84529" lon="4.66127">
        <ele>273.80566</ele>
        <time>2023-09-30T09:51:36.000Z</time>
      </trkpt>
      <trkpt lat="45.84533" lon="4.66132">
        <ele>274.02191</ele>
        <time>2023-09-30T09:51:37.000Z</time>
      </trkpt>
      <trkpt lat="45.84537" lon="4.66136">
        <ele>273.80612</ele>
        <time>2023-09-30T09:51:38.000Z</time>
      </trkpt>
      <trkpt lat="45.84541" lon="4.66142">
        <ele>273.76691</ele>
        <time>2023-09-30T09:51:39.000Z</time>
      </trkpt>
      <trkpt lat="45.84546" lon="4.66148">
        <ele>273.7009</ele>
        <time>2023-09-30T09:51:40.000Z</time>
      </trkpt>
      <trkpt lat="45.8455" lon="4.66152">
        <ele>273.60977</ele>
        <time>2023-09-30T09:51:41.000Z</time>
      </trkpt>
      <trkpt lat="45.84555" lon="4.66155">
        <ele>273.54694</ele>
        <time>2023-09-30T09:51:42.000Z</time>
      </trkpt>
      <trkpt lat="45.84559" lon="4.66159">
        <ele>273.35196</ele>
        <time>2023-09-30T09:51:43.000Z</time>
      </trkpt>
      <trkpt lat="45.84563" lon="4.66162">
        <ele>273.09262</ele>
        <time>2023-09-30T09:51:44.000Z</time>
      </trkpt>
      <trkpt lat="45.84567" lon="4.66165">
        <ele>272.83539</ele>
        <time>2023-09-30T09:51:45.000Z</time>
      </trkpt>
      <trkpt lat="45.84573" lon="4.66168">
        <ele>272.56055</ele>
        <time>2023-09-30T09:51:46.000Z</time>
      </trkpt>
      <trkpt lat="45.84578" lon="4.6617">
        <ele>272.31653</ele>
        <time>2023-09-30T09:51:47.000Z</time>
      </trkpt>
      <trkpt lat="45.84582" lon="4.66172">
        <ele>272.08185</ele>
        <time>2023-09-30T09:51:48.000Z</time>
      </trkpt>
      <trkpt lat="45.84586" lon="4.66173">
        <ele>272.09421</ele>
        <time>2023-09-30T09:51:49.000Z</time>
      </trkpt>
      <trkpt lat="45.84591" lon="4.66171">
        <ele>272.23444</ele>
        <time>2023-09-30T09:51:50.000Z</time>
      </trkpt>
      <trkpt lat="45.84595" lon="4.66168">
        <ele>272.48642</ele>
        <time>2023-09-30T09:51:51.000Z</time>
      </trkpt>
      <trkpt lat="45.84599" lon="4.66163">
        <ele>272.30548</ele>
        <time>2023-09-30T09:51:52.000Z</time>
      </trkpt>
      <trkpt lat="45.84603" lon="4.66158">
        <ele>272.19653</ele>
        <time>2023-09-30T09:51:53.000Z</time>
      </trkpt>
      <trkpt lat="45.84607" lon="4.66155">
        <ele>272.06165</ele>
        <time>2023-09-30T09:51:54.000Z</time>
      </trkpt>
      <trkpt lat="45.84611" lon="4.66151">
        <ele>271.96698</ele>
        <time>2023-09-30T09:51:55.000Z</time>
      </trkpt>
      <trkpt lat="45.84615" lon="4.66146">
        <ele>271.86603</ele>
        <time>2023-09-30T09:51:56.000Z</time>
      </trkpt>
      <trkpt lat="45.84618" lon="4.66143">
        <ele>271.77521</ele>
        <time>2023-09-30T09:51:57.000Z</time>
      </trkpt>
      <trkpt lat="45.84622" lon="4.6614">
        <ele>271.48846</ele>
        <time>2023-09-30T09:51:58.000Z</time>
      </trkpt>
      <trkpt lat="45.84624" lon="4.66135">
        <ele>271.24554</ele>
        <time>2023-09-30T09:51:59.000Z</time>
      </trkpt>
      <trkpt lat="45.84628" lon="4.6613">
        <ele>271.01642</ele>
        <time>2023-09-30T09:52:00.000Z</time>
      </trkpt>
      <trkpt lat="45.84633" lon="4.66125">
        <ele>270.85715</ele>
        <time>2023-09-30T09:52:01.000Z</time>
      </trkpt>
      <trkpt lat="45.84637" lon="4.66121">
        <ele>270.66788</ele>
        <time>2023-09-30T09:52:02.000Z</time>
      </trkpt>
      <trkpt lat="45.84642" lon="4.66118">
        <ele>270.63208</ele>
        <time>2023-09-30T09:52:03.000Z</time>
      </trkpt>
      <trkpt lat="45.84648" lon="4.66117">
        <ele>272.13107</ele>
        <time>2023-09-30T09:52:04.000Z</time>
      </trkpt>
      <trkpt lat="45.84653" lon="4.66114">
        <ele>273.6236</ele>
        <time>2023-09-30T09:52:05.000Z</time>
      </trkpt>
      <trkpt lat="45.84659" lon="4.66112">
        <ele>275.1853</ele>
        <time>2023-09-30T09:52:06.000Z</time>
      </trkpt>
      <trkpt lat="45.84664" lon="4.6611">
        <ele>276.75049</ele>
        <time>2023-09-30T09:52:07.000Z</time>
      </trkpt>
      <trkpt lat="45.84669" lon="4.66108">
        <ele>277.89127</ele>
        <time>2023-09-30T09:52:08.000Z</time>
      </trkpt>
      <trkpt lat="45.84675" lon="4.66106">
        <ele>279.01819</ele>
        <time>2023-09-30T09:52:09.000Z</time>
      </trkpt>
      <trkpt lat="45.84681" lon="4.66103">
        <ele>280.11035</ele>
        <time>2023-09-30T09:52:10.000Z</time>
      </trkpt>
      <trkpt lat="45.84686" lon="4.66102">
        <ele>281.15799</ele>
        <time>2023-09-30T09:52:11.000Z</time>
      </trkpt>
      <trkpt lat="45.84692" lon="4.66099">
        <ele>282.26236</ele>
        <time>2023-09-30T09:52:12.000Z</time>
      </trkpt>
      <trkpt lat="45.84698" lon="4.66098">
        <ele>283.35846</ele>
        <time>2023-09-30T09:52:13.000Z</time>
      </trkpt>
      <trkpt lat="45.84704" lon="4.66097">
        <ele>284.47256</ele>
        <time>2023-09-30T09:52:14.000Z</time>
      </trkpt>
      <trkpt lat="45.84709" lon="4.66095">
        <ele>285.55521</ele>
        <time>2023-09-30T09:52:15.000Z</time>
      </trkpt>
      <trkpt lat="45.84716" lon="4.66094">
        <ele>286.64063</ele>
        <time>2023-09-30T09:52:16.000Z</time>
      </trkpt>
      <trkpt lat="45.84721" lon="4.66092">
        <ele>287.69745</ele>
        <time>2023-09-30T09:52:17.000Z</time>
      </trkpt>
      <trkpt lat="45.84727" lon="4.66089">
        <ele>288.93478</ele>
        <time>2023-09-30T09:52:18.000Z</time>
      </trkpt>
      <trkpt lat="45.84732" lon="4.66087">
        <ele>290.35599</ele>
        <time>2023-09-30T09:52:19.000Z</time>
      </trkpt>
      <trkpt lat="45.84738" lon="4.66084">
        <ele>290.13123</ele>
        <time>2023-09-30T09:52:20.000Z</time>
      </trkpt>
      <trkpt lat="45.84744" lon="4.6608">
        <ele>289.81577</ele>
        <time>2023-09-30T09:52:21.000Z</time>
      </trkpt>
      <trkpt lat="45.84749" lon="4.66078">
        <ele>289.83282</ele>
        <time>2023-09-30T09:52:22.000Z</time>
      </trkpt>
      <trkpt lat="45.84755" lon="4.66075">
        <ele>289.68829</ele>
        <time>2023-09-30T09:52:23.000Z</time>
      </trkpt>
      <trkpt lat="45.84761" lon="4.66074">
        <ele>288.0849</ele>
        <time>2023-09-30T09:52:24.000Z</time>
      </trkpt>
      <trkpt lat="45.84767" lon="4.66071">
        <ele>287.70288</ele>
        <time>2023-09-30T09:52:25.000Z</time>
      </trkpt>
      <trkpt lat="45.84772" lon="4.66067">
        <ele>287.26804</ele>
        <time>2023-09-30T09:52:26.000Z</time>
      </trkpt>
      <trkpt lat="45.84778" lon="4.66064">
        <ele>286.80087</ele>
        <time>2023-09-30T09:52:27.000Z</time>
      </trkpt>
      <trkpt lat="45.84783" lon="4.66061">
        <ele>286.785</ele>
        <time>2023-09-30T09:52:28.000Z</time>
      </trkpt>
      <trkpt lat="45.84788" lon="4.66058">
        <ele>286.73489</ele>
        <time>2023-09-30T09:52:29.000Z</time>
      </trkpt>
      <trkpt lat="45.84794" lon="4.66054">
        <ele>286.6861</ele>
        <time>2023-09-30T09:52:30.000Z</time>
      </trkpt>
      <trkpt lat="45.84799" lon="4.66053">
        <ele>286.66058</ele>
        <time>2023-09-30T09:52:31.000Z</time>
      </trkpt>
      <trkpt lat="45.84805" lon="4.6605">
        <ele>286.63385</ele>
        <time>2023-09-30T09:52:32.000Z</time>
      </trkpt>
      <trkpt lat="45.84811" lon="4.66047">
        <ele>286.63568</ele>
        <time>2023-09-30T09:52:33.000Z</time>
      </trkpt>
      <trkpt lat="45.84816" lon="4.66044">
        <ele>286.66956</ele>
        <time>2023-09-30T09:52:34.000Z</time>
      </trkpt>
      <trkpt lat="45.84821" lon="4.66041">
        <ele>285.48242</ele>
        <time>2023-09-30T09:52:35.000Z</time>
      </trkpt>
      <trkpt lat="45.84826" lon="4.66039">
        <ele>284.25818</ele>
        <time>2023-09-30T09:52:36.000Z</time>
      </trkpt>
      <trkpt lat="45.84832" lon="4.66036">
        <ele>283.03293</ele>
        <time>2023-09-30T09:52:37.000Z</time>
      </trkpt>
      <trkpt lat="45.84837" lon="4.66033">
        <ele>281.82562</ele>
        <time>2023-09-30T09:52:38.000Z</time>
      </trkpt>
      <trkpt lat="45.84843" lon="4.66031">
        <ele>280.42899</ele>
        <time>2023-09-30T09:52:39.000Z</time>
      </trkpt>
      <trkpt lat="45.84848" lon="4.66029">
        <ele>280.71762</ele>
        <time>2023-09-30T09:52:40.000Z</time>
      </trkpt>
      <trkpt lat="45.84854" lon="4.66026">
        <ele>281.03922</ele>
        <time>2023-09-30T09:52:41.000Z</time>
      </trkpt>
      <trkpt lat="45.84859" lon="4.66024">
        <ele>281.02963</ele>
        <time>2023-09-30T09:52:42.000Z</time>
      </trkpt>
      <trkpt lat="45.84866" lon="4.66021">
        <ele>281.08502</ele>
        <time>2023-09-30T09:52:43.000Z</time>
      </trkpt>
      <trkpt lat="45.84871" lon="4.66019">
        <ele>281.11777</ele>
        <time>2023-09-30T09:52:44.000Z</time>
      </trkpt>
      <trkpt lat="45.84878" lon="4.66018">
        <ele>279.89236</ele>
        <time>2023-09-30T09:52:45.000Z</time>
      </trkpt>
      <trkpt lat="45.84884" lon="4.66017">
        <ele>278.66458</ele>
        <time>2023-09-30T09:52:46.000Z</time>
      </trkpt>
      <trkpt lat="45.84889" lon="4.66016">
        <ele>277.44571</ele>
        <time>2023-09-30T09:52:47.000Z</time>
      </trkpt>
      <trkpt lat="45.84896" lon="4.66017">
        <ele>275.96017</ele>
        <time>2023-09-30T09:52:48.000Z</time>
      </trkpt>
      <trkpt lat="45.84901" lon="4.66018">
        <ele>274.46555</ele>
        <time>2023-09-30T09:52:49.000Z</time>
      </trkpt>
      <trkpt lat="45.84908" lon="4.6602">
        <ele>273.33261</ele>
        <time>2023-09-30T09:52:50.000Z</time>
      </trkpt>
      <trkpt lat="45.84914" lon="4.66021">
        <ele>272.0878</ele>
        <time>2023-09-30T09:52:51.000Z</time>
      </trkpt>
      <trkpt lat="45.84919" lon="4.66023">
        <ele>270.80859</ele>
        <time>2023-09-30T09:52:52.000Z</time>
      </trkpt>
      <trkpt lat="45.84925" lon="4.66024">
        <ele>269.48557</ele>
        <time>2023-09-30T09:52:53.000Z</time>
      </trkpt>
      <trkpt lat="45.8493" lon="4.66025">
        <ele>268.10968</ele>
        <time>2023-09-30T09:52:54.000Z</time>
      </trkpt>
      <trkpt lat="45.84936" lon="4.66025">
        <ele>267.93768</ele>
        <time>2023-09-30T09:52:55.000Z</time>
      </trkpt>
      <trkpt lat="45.84941" lon="4.66025">
        <ele>267.77814</ele>
        <time>2023-09-30T09:52:56.000Z</time>
      </trkpt>
      <trkpt lat="45.84947" lon="4.66026">
        <ele>267.62296</ele>
        <time>2023-09-30T09:52:57.000Z</time>
      </trkpt>
      <trkpt lat="45.84952" lon="4.66026">
        <ele>267.46927</ele>
        <time>2023-09-30T09:52:58.000Z</time>
      </trkpt>
      <trkpt lat="45.84957" lon="4.66026">
        <ele>267.28491</ele>
        <time>2023-09-30T09:52:59.000Z</time>
      </trkpt>
      <trkpt lat="45.84962" lon="4.66026">
        <ele>267.03668</ele>
        <time>2023-09-30T09:53:00.000Z</time>
      </trkpt>
      <trkpt lat="45.84967" lon="4.66027">
        <ele>266.79919</ele>
        <time>2023-09-30T09:53:01.000Z</time>
      </trkpt>
      <trkpt lat="45.84972" lon="4.66028">
        <ele>266.52509</ele>
        <time>2023-09-30T09:53:02.000Z</time>
      </trkpt>
      <trkpt lat="45.84976" lon="4.66031">
        <ele>266.24225</ele>
        <time>2023-09-30T09:53:03.000Z</time>
      </trkpt>
      <trkpt lat="45.84981" lon="4.66032">
        <ele>265.95416</ele>
        <time>2023-09-30T09:53:04.000Z</time>
      </trkpt>
      <trkpt lat="45.84984" lon="4.66032">
        <ele>265.67545</ele>
        <time>2023-09-30T09:53:05.000Z</time>
      </trkpt>
      <trkpt lat="45.84987" lon="4.66032">
        <ele>265.40057</ele>
        <time>2023-09-30T09:53:06.000Z</time>
      </trkpt>
      <trkpt lat="45.84992" lon="4.66031">
        <ele>265.12357</ele>
        <time>2023-09-30T09:53:07.000Z</time>
      </trkpt>
      <trkpt lat="45.84997" lon="4.6603">
        <ele>265.08118</ele>
        <time>2023-09-30T09:53:08.000Z</time>
      </trkpt>
      <trkpt lat="45.85002" lon="4.6603">
        <ele>265.04611</ele>
        <time>2023-09-30T09:53:09.000Z</time>
      </trkpt>
      <trkpt lat="45.85007" lon="4.6603">
        <ele>264.6413</ele>
        <time>2023-09-30T09:53:10.000Z</time>
      </trkpt>
      <trkpt lat="45.85013" lon="4.6603">
        <ele>264.38821</ele>
        <time>2023-09-30T09:53:11.000Z</time>
      </trkpt>
      <trkpt lat="45.85018" lon="4.6603">
        <ele>264.13336</ele>
        <time>2023-09-30T09:53:12.000Z</time>
      </trkpt>
      <trkpt lat="45.85024" lon="4.66031">
        <ele>263.88519</ele>
        <time>2023-09-30T09:53:13.000Z</time>
      </trkpt>
      <trkpt lat="45.85031" lon="4.66032">
        <ele>263.63947</ele>
        <time>2023-09-30T09:53:14.000Z</time>
      </trkpt>
      <trkpt lat="45.85037" lon="4.66032">
        <ele>263.40265</ele>
        <time>2023-09-30T09:53:15.000Z</time>
      </trkpt>
      <trkpt lat="45.85043" lon="4.66031">
        <ele>263.18365</ele>
        <time>2023-09-30T09:53:16.000Z</time>
      </trkpt>
      <trkpt lat="45.85049" lon="4.6603">
        <ele>262.96124</ele>
        <time>2023-09-30T09:53:17.000Z</time>
      </trkpt>
      <trkpt lat="45.85056" lon="4.6603">
        <ele>262.7178</ele>
        <time>2023-09-30T09:53:18.000Z</time>
      </trkpt>
      <trkpt lat="45.85063" lon="4.66031">
        <ele>262.50128</ele>
        <time>2023-09-30T09:53:19.000Z</time>
      </trkpt>
      <trkpt lat="45.8507" lon="4.66031">
        <ele>262.3222</ele>
        <time>2023-09-30T09:53:20.000Z</time>
      </trkpt>
      <trkpt lat="45.85077" lon="4.6603">
        <ele>262.10706</ele>
        <time>2023-09-30T09:53:21.000Z</time>
      </trkpt>
      <trkpt lat="45.85084" lon="4.66027">
        <ele>261.9328</ele>
        <time>2023-09-30T09:53:22.000Z</time>
      </trkpt>
      <trkpt lat="45.8509" lon="4.66026">
        <ele>261.7359</ele>
        <time>2023-09-30T09:53:23.000Z</time>
      </trkpt>
      <trkpt lat="45.85097" lon="4.66023">
        <ele>261.51901</ele>
        <time>2023-09-30T09:53:24.000Z</time>
      </trkpt>
      <trkpt lat="45.85105" lon="4.66021">
        <ele>261.30881</ele>
        <time>2023-09-30T09:53:25.000Z</time>
      </trkpt>
      <trkpt lat="45.85112" lon="4.66019">
        <ele>261.04199</ele>
        <time>2023-09-30T09:53:26.000Z</time>
      </trkpt>
      <trkpt lat="45.8512" lon="4.66016">
        <ele>260.5679</ele>
        <time>2023-09-30T09:53:27.000Z</time>
      </trkpt>
      <trkpt lat="45.85128" lon="4.66014">
        <ele>260.08212</ele>
        <time>2023-09-30T09:53:28.000Z</time>
      </trkpt>
      <trkpt lat="45.85136" lon="4.66012">
        <ele>259.82614</ele>
        <time>2023-09-30T09:53:29.000Z</time>
      </trkpt>
      <trkpt lat="45.85143" lon="4.66011">
        <ele>259.48105</ele>
        <time>2023-09-30T09:53:30.000Z</time>
      </trkpt>
      <trkpt lat="45.85152" lon="4.66009">
        <ele>259.16727</ele>
        <time>2023-09-30T09:53:31.000Z</time>
      </trkpt>
      <trkpt lat="45.8516" lon="4.66007">
        <ele>258.83667</ele>
        <time>2023-09-30T09:53:32.000Z</time>
      </trkpt>
      <trkpt lat="45.85168" lon="4.66006">
        <ele>258.48566</ele>
        <time>2023-09-30T09:53:33.000Z</time>
      </trkpt>
      <trkpt lat="45.85176" lon="4.66003">
        <ele>258.13263</ele>
        <time>2023-09-30T09:53:34.000Z</time>
      </trkpt>
      <trkpt lat="45.85185" lon="4.66">
        <ele>257.76425</ele>
        <time>2023-09-30T09:53:35.000Z</time>
      </trkpt>
      <trkpt lat="45.85193" lon="4.65996">
        <ele>257.36026</ele>
        <time>2023-09-30T09:53:36.000Z</time>
      </trkpt>
      <trkpt lat="45.85202" lon="4.65993">
        <ele>257.97186</ele>
        <time>2023-09-30T09:53:37.000Z</time>
      </trkpt>
      <trkpt lat="45.85211" lon="4.6599">
        <ele>258.55661</ele>
        <time>2023-09-30T09:53:38.000Z</time>
      </trkpt>
      <trkpt lat="45.8522" lon="4.65986">
        <ele>259.09058</ele>
        <time>2023-09-30T09:53:39.000Z</time>
      </trkpt>
      <trkpt lat="45.8523" lon="4.65982">
        <ele>259.59061</ele>
        <time>2023-09-30T09:53:40.000Z</time>
      </trkpt>
      <trkpt lat="45.85239" lon="4.65978">
        <ele>260.08264</ele>
        <time>2023-09-30T09:53:41.000Z</time>
      </trkpt>
      <trkpt lat="45.85247" lon="4.65973">
        <ele>260.56253</ele>
        <time>2023-09-30T09:53:42.000Z</time>
      </trkpt>
      <trkpt lat="45.85255" lon="4.65965">
        <ele>261.0553</ele>
        <time>2023-09-30T09:53:43.000Z</time>
      </trkpt>
      <trkpt lat="45.85262" lon="4.65958">
        <ele>260.35098</ele>
        <time>2023-09-30T09:53:44.000Z</time>
      </trkpt>
      <trkpt lat="45.8527" lon="4.65952">
        <ele>259.74677</ele>
        <time>2023-09-30T09:53:45.000Z</time>
      </trkpt>
      <trkpt lat="45.85278" lon="4.65947">
        <ele>259.14706</ele>
        <time>2023-09-30T09:53:46.000Z</time>
      </trkpt>
      <trkpt lat="45.85286" lon="4.65944">
        <ele>258.71356</ele>
        <time>2023-09-30T09:53:47.000Z</time>
      </trkpt>
      <trkpt lat="45.85293" lon="4.65942">
        <ele>258.27692</ele>
        <time>2023-09-30T09:53:48.000Z</time>
      </trkpt>
      <trkpt lat="45.853" lon="4.6594">
        <ele>257.58963</ele>
        <time>2023-09-30T09:53:49.000Z</time>
      </trkpt>
      <trkpt lat="45.85304" lon="4.65938">
        <ele>256.93723</ele>
        <time>2023-09-30T09:53:50.000Z</time>
      </trkpt>
      <trkpt lat="45.85307" lon="4.65937">
        <ele>256.2067</ele>
        <time>2023-09-30T09:53:51.000Z</time>
      </trkpt>
      <trkpt lat="45.85309" lon="4.65934">
        <ele>255.47629</ele>
        <time>2023-09-30T09:53:52.000Z</time>
      </trkpt>
      <trkpt lat="45.85311" lon="4.65931">
        <ele>254.78186</ele>
        <time>2023-09-30T09:53:53.000Z</time>
      </trkpt>
      <trkpt lat="45.85311" lon="4.65927">
        <ele>254.15726</ele>
        <time>2023-09-30T09:53:54.000Z</time>
      </trkpt>
      <trkpt lat="45.8531" lon="4.65922">
        <ele>253.53462</ele>
        <time>2023-09-30T09:53:55.000Z</time>
      </trkpt>
      <trkpt lat="45.8531" lon="4.65918">
        <ele>252.91187</ele>
        <time>2023-09-30T09:53:56.000Z</time>
      </trkpt>
      <trkpt lat="45.85309" lon="4.65914">
        <ele>251.27786</ele>
        <time>2023-09-30T09:53:57.000Z</time>
      </trkpt>
      <trkpt lat="45.85308" lon="4.65909">
        <ele>249.57651</ele>
        <time>2023-09-30T09:53:58.000Z</time>
      </trkpt>
      <trkpt lat="45.85308" lon="4.65904">
        <ele>247.8842</ele>
        <time>2023-09-30T09:53:59.000Z</time>
      </trkpt>
      <trkpt lat="45.85307" lon="4.65899">
        <ele>246.32016</ele>
        <time>2023-09-30T09:54:00.000Z</time>
      </trkpt>
      <trkpt lat="45.85307" lon="4.65893">
        <ele>244.76541</ele>
        <time>2023-09-30T09:54:01.000Z</time>
      </trkpt>
      <trkpt lat="45.85306" lon="4.65886">
        <ele>243.22879</ele>
        <time>2023-09-30T09:54:02.000Z</time>
      </trkpt>
      <trkpt lat="45.85306" lon="4.65879">
        <ele>241.70891</ele>
        <time>2023-09-30T09:54:03.000Z</time>
      </trkpt>
      <trkpt lat="45.85307" lon="4.65872">
        <ele>241.40628</ele>
        <time>2023-09-30T09:54:04.000Z</time>
      </trkpt>
      <trkpt lat="45.85308" lon="4.65865">
        <ele>240.97253</ele>
        <time>2023-09-30T09:54:05.000Z</time>
      </trkpt>
      <trkpt lat="45.85308" lon="4.65859">
        <ele>240.54514</ele>
        <time>2023-09-30T09:54:06.000Z</time>
      </trkpt>
      <trkpt lat="45.85309" lon="4.65852">
        <ele>240.0822</ele>
        <time>2023-09-30T09:54:07.000Z</time>
      </trkpt>
      <trkpt lat="45.8531" lon="4.65848">
        <ele>239.64771</ele>
        <time>2023-09-30T09:54:08.000Z</time>
      </trkpt>
      <trkpt lat="45.85311" lon="4.65843">
        <ele>239.20093</ele>
        <time>2023-09-30T09:54:09.000Z</time>
      </trkpt>
      <trkpt lat="45.85313" lon="4.6584">
        <ele>238.94727</ele>
        <time>2023-09-30T09:54:10.000Z</time>
      </trkpt>
      <trkpt lat="45.85315" lon="4.65837">
        <ele>238.71721</ele>
        <time>2023-09-30T09:54:11.000Z</time>
      </trkpt>
      <trkpt lat="45.85317" lon="4.65837">
        <ele>238.4679</ele>
        <time>2023-09-30T09:54:12.000Z</time>
      </trkpt>
      <trkpt lat="45.85319" lon="4.65836">
        <ele>238.18787</ele>
        <time>2023-09-30T09:54:13.000Z</time>
      </trkpt>
      <trkpt lat="45.85321" lon="4.65837">
        <ele>237.90573</ele>
        <time>2023-09-30T09:54:14.000Z</time>
      </trkpt>
      <trkpt lat="45.85324" lon="4.65838">
        <ele>237.6243</ele>
        <time>2023-09-30T09:54:16.000Z</time>
      </trkpt>
      <trkpt lat="45.85326" lon="4.65838">
        <ele>237.36504</ele>
        <time>2023-09-30T09:54:17.000Z</time>
      </trkpt>
      <trkpt lat="45.8533" lon="4.6584">
        <ele>237.09448</ele>
        <time>2023-09-30T09:54:19.000Z</time>
      </trkpt>
      <trkpt lat="45.85333" lon="4.65841">
        <ele>236.91447</ele>
        <time>2023-09-30T09:54:21.000Z</time>
      </trkpt>
      <trkpt lat="45.85335" lon="4.65842">
        <ele>236.78259</ele>
        <time>2023-09-30T09:54:22.000Z</time>
      </trkpt>
      <trkpt lat="45.85336" lon="4.65843">
        <ele>236.55118</ele>
        <time>2023-09-30T09:54:23.000Z</time>
      </trkpt>
      <trkpt lat="45.85339" lon="4.65843">
        <ele>236.35437</ele>
        <time>2023-09-30T09:54:25.000Z</time>
      </trkpt>
      <trkpt lat="45.85341" lon="4.65843">
        <ele>236.13611</ele>
        <time>2023-09-30T09:54:26.000Z</time>
      </trkpt>
      <trkpt lat="45.85344" lon="4.65843">
        <ele>235.88383</ele>
        <time>2023-09-30T09:54:27.000Z</time>
      </trkpt>
      <trkpt lat="45.85347" lon="4.65843">
        <ele>235.56157</ele>
        <time>2023-09-30T09:54:28.000Z</time>
      </trkpt>
      <trkpt lat="45.85351" lon="4.65845">
        <ele>235.2706</ele>
        <time>2023-09-30T09:54:29.000Z</time>
      </trkpt>
      <trkpt lat="45.85355" lon="4.65847">
        <ele>234.98911</ele>
        <time>2023-09-30T09:54:30.000Z</time>
      </trkpt>
      <trkpt lat="45.85358" lon="4.65848">
        <ele>234.74496</ele>
        <time>2023-09-30T09:54:31.000Z</time>
      </trkpt>
      <trkpt lat="45.85362" lon="4.65849">
        <ele>234.47566</ele>
        <time>2023-09-30T09:54:32.000Z</time>
      </trkpt>
      <trkpt lat="45.85366" lon="4.6585">
        <ele>234.22298</ele>
        <time>2023-09-30T09:54:33.000Z</time>
      </trkpt>
      <trkpt lat="45.85372" lon="4.65855">
        <ele>233.84929</ele>
        <time>2023-09-30T09:54:34.000Z</time>
      </trkpt>
      <trkpt lat="45.85376" lon="4.65857">
        <ele>233.47835</ele>
        <time>2023-09-30T09:54:35.000Z</time>
      </trkpt>
      <trkpt lat="45.8538" lon="4.65856">
        <ele>233.12309</ele>
        <time>2023-09-30T09:54:36.000Z</time>
      </trkpt>
      <trkpt lat="45.85383" lon="4.65859">
        <ele>232.78638</ele>
        <time>2023-09-30T09:54:37.000Z</time>
      </trkpt>
      <trkpt lat="45.85388" lon="4.65861">
        <ele>232.44461</ele>
        <time>2023-09-30T09:54:38.000Z</time>
      </trkpt>
      <trkpt lat="45.85392" lon="4.65861">
        <ele>232.11157</ele>
        <time>2023-09-30T09:54:39.000Z</time>
      </trkpt>
      <trkpt lat="45.85395" lon="4.65861">
        <ele>231.81161</ele>
        <time>2023-09-30T09:54:40.000Z</time>
      </trkpt>
      <trkpt lat="45.85398" lon="4.65862">
        <ele>231.52022</ele>
        <time>2023-09-30T09:54:41.000Z</time>
      </trkpt>
      <trkpt lat="45.85402" lon="4.65864">
        <ele>231.30624</ele>
        <time>2023-09-30T09:54:42.000Z</time>
      </trkpt>
      <trkpt lat="45.85405" lon="4.65869">
        <ele>231.0531</ele>
        <time>2023-09-30T09:54:43.000Z</time>
      </trkpt>
      <trkpt lat="45.85409" lon="4.65874">
        <ele>230.82561</ele>
        <time>2023-09-30T09:54:44.000Z</time>
      </trkpt>
      <trkpt lat="45.85413" lon="4.65879">
        <ele>230.57039</ele>
        <time>2023-09-30T09:54:45.000Z</time>
      </trkpt>
      <trkpt lat="45.85417" lon="4.65884">
        <ele>230.31668</ele>
        <time>2023-09-30T09:54:46.000Z</time>
      </trkpt>
      <trkpt lat="45.85422" lon="4.65889">
        <ele>230.08308</ele>
        <time>2023-09-30T09:54:47.000Z</time>
      </trkpt>
      <trkpt lat="45.85426" lon="4.65894">
        <ele>229.91385</ele>
        <time>2023-09-30T09:54:48.000Z</time>
      </trkpt>
      <trkpt lat="45.85431" lon="4.65898">
        <ele>229.76501</ele>
        <time>2023-09-30T09:54:49.000Z</time>
      </trkpt>
      <trkpt lat="45.85436" lon="4.65901">
        <ele>229.64053</ele>
        <time>2023-09-30T09:54:50.000Z</time>
      </trkpt>
      <trkpt lat="45.8544" lon="4.65904">
        <ele>229.56071</ele>
        <time>2023-09-30T09:54:51.000Z</time>
      </trkpt>
      <trkpt lat="45.85445" lon="4.65907">
        <ele>229.51138</ele>
        <time>2023-09-30T09:54:52.000Z</time>
      </trkpt>
      <trkpt lat="45.85449" lon="4.65909">
        <ele>229.48079</ele>
        <time>2023-09-30T09:54:53.000Z</time>
      </trkpt>
      <trkpt lat="45.85452" lon="4.65911">
        <ele>229.4509</ele>
        <time>2023-09-30T09:54:54.000Z</time>
      </trkpt>
      <trkpt lat="45.85453" lon="4.65913">
        <ele>229.41289</ele>
        <time>2023-09-30T09:54:55.000Z</time>
      </trkpt>
      <trkpt lat="45.85451" lon="4.65914">
        <ele>229.30965</ele>
        <time>2023-09-30T09:54:58.000Z</time>
      </trkpt>
      <trkpt lat="45.85449" lon="4.65914">
        <ele>229.21313</ele>
        <time>2023-09-30T09:55:00.000Z</time>
      </trkpt>
      <trkpt lat="45.85452" lon="4.65914">
        <ele>229.04594</ele>
        <time>2023-09-30T09:56:37.000Z</time>
      </trkpt>
      <trkpt lat="45.85455" lon="4.65915">
        <ele>228.82364</ele>
        <time>2023-09-30T09:56:39.000Z</time>
      </trkpt>
      <trkpt lat="45.85457" lon="4.65914">
        <ele>228.62576</ele>
        <time>2023-09-30T09:56:40.000Z</time>
      </trkpt>
      <trkpt lat="45.85461" lon="4.65914">
        <ele>228.44006</ele>
        <time>2023-09-30T09:56:41.000Z</time>
      </trkpt>
      <trkpt lat="45.85465" lon="4.65914">
        <ele>228.19551</ele>
        <time>2023-09-30T09:56:42.000Z</time>
      </trkpt>
      <trkpt lat="45.85469" lon="4.65916">
        <ele>227.95854</ele>
        <time>2023-09-30T09:56:43.000Z</time>
      </trkpt>
      <trkpt lat="45.85473" lon="4.65916">
        <ele>227.70439</ele>
        <time>2023-09-30T09:56:44.000Z</time>
      </trkpt>
      <trkpt lat="45.85475" lon="4.65916">
        <ele>227.47807</ele>
        <time>2023-09-30T09:56:45.000Z</time>
      </trkpt>
      <trkpt lat="45.85477" lon="4.65916">
        <ele>227.26717</ele>
        <time>2023-09-30T09:56:46.000Z</time>
      </trkpt>
      <trkpt lat="45.85479" lon="4.65916">
        <ele>227.07072</ele>
        <time>2023-09-30T09:56:47.000Z</time>
      </trkpt>
      <trkpt lat="45.85482" lon="4.65917">
        <ele>226.87524</ele>
        <time>2023-09-30T09:56:48.000Z</time>
      </trkpt>
      <trkpt lat="45.85486" lon="4.65918">
        <ele>226.61563</ele>
        <time>2023-09-30T09:56:49.000Z</time>
      </trkpt>
      <trkpt lat="45.8549" lon="4.6592">
        <ele>226.21631</ele>
        <time>2023-09-30T09:56:50.000Z</time>
      </trkpt>
      <trkpt lat="45.85498" lon="4.65922">
        <ele>225.85172</ele>
        <time>2023-09-30T09:56:51.000Z</time>
      </trkpt>
      <trkpt lat="45.85505" lon="4.65925">
        <ele>225.48502</ele>
        <time>2023-09-30T09:56:52.000Z</time>
      </trkpt>
      <trkpt lat="45.85511" lon="4.65929">
        <ele>225.11263</ele>
        <time>2023-09-30T09:56:53.000Z</time>
      </trkpt>
      <trkpt lat="45.85514" lon="4.65932">
        <ele>224.78064</ele>
        <time>2023-09-30T09:56:54.000Z</time>
      </trkpt>
      <trkpt lat="45.85516" lon="4.65936">
        <ele>224.48221</ele>
        <time>2023-09-30T09:56:55.000Z</time>
      </trkpt>
      <trkpt lat="45.85516" lon="4.65939">
        <ele>224.28645</ele>
        <time>2023-09-30T09:56:56.000Z</time>
      </trkpt>
      <trkpt lat="45.85516" lon="4.65943">
        <ele>224.09737</ele>
        <time>2023-09-30T09:56:57.000Z</time>
      </trkpt>
      <trkpt lat="45.85516" lon="4.65946">
        <ele>223.96265</ele>
        <time>2023-09-30T09:56:58.000Z</time>
      </trkpt>
      <trkpt lat="45.85516" lon="4.65951">
        <ele>223.91983</ele>
        <time>2023-09-30T09:56:59.000Z</time>
      </trkpt>
      <trkpt lat="45.85516" lon="4.65955">
        <ele>223.89189</ele>
        <time>2023-09-30T09:57:00.000Z</time>
      </trkpt>
      <trkpt lat="45.85516" lon="4.65959">
        <ele>223.89351</ele>
        <time>2023-09-30T09:57:01.000Z</time>
      </trkpt>
      <trkpt lat="45.85516" lon="4.65963">
        <ele>223.92241</ele>
        <time>2023-09-30T09:57:02.000Z</time>
      </trkpt>
      <trkpt lat="45.85516" lon="4.65968">
        <ele>224.00166</ele>
        <time>2023-09-30T09:57:03.000Z</time>
      </trkpt>
      <trkpt lat="45.85517" lon="4.65972">
        <ele>224.09554</ele>
        <time>2023-09-30T09:57:04.000Z</time>
      </trkpt>
      <trkpt lat="45.85517" lon="4.65977">
        <ele>224.19809</ele>
        <time>2023-09-30T09:57:05.000Z</time>
      </trkpt>
      <trkpt lat="45.85518" lon="4.65982">
        <ele>224.30942</ele>
        <time>2023-09-30T09:57:06.000Z</time>
      </trkpt>
      <trkpt lat="45.85519" lon="4.65987">
        <ele>224.40869</ele>
        <time>2023-09-30T09:57:07.000Z</time>
      </trkpt>
      <trkpt lat="45.85519" lon="4.65993">
        <ele>224.51282</ele>
        <time>2023-09-30T09:57:08.000Z</time>
      </trkpt>
      <trkpt lat="45.85518" lon="4.65999">
        <ele>224.68082</ele>
        <time>2023-09-30T09:57:09.000Z</time>
      </trkpt>
      <trkpt lat="45.85518" lon="4.66005">
        <ele>224.9631</ele>
        <time>2023-09-30T09:57:10.000Z</time>
      </trkpt>
      <trkpt lat="45.85517" lon="4.66012">
        <ele>225.23618</ele>
        <time>2023-09-30T09:57:11.000Z</time>
      </trkpt>
      <trkpt lat="45.85518" lon="4.66019">
        <ele>225.52095</ele>
        <time>2023-09-30T09:57:12.000Z</time>
      </trkpt>
      <trkpt lat="45.85519" lon="4.66027">
        <ele>225.84624</ele>
        <time>2023-09-30T09:57:13.000Z</time>
      </trkpt>
      <trkpt lat="45.8552" lon="4.66034">
        <ele>226.14352</ele>
        <time>2023-09-30T09:57:14.000Z</time>
      </trkpt>
      <trkpt lat="45.85521" lon="4.6604">
        <ele>226.4252</ele>
        <time>2023-09-30T09:57:15.000Z</time>
      </trkpt>
      <trkpt lat="45.85521" lon="4.66047">
        <ele>226.69392</ele>
        <time>2023-09-30T09:57:16.000Z</time>
      </trkpt>
      <trkpt lat="45.85522" lon="4.66053">
        <ele>226.96286</ele>
        <time>2023-09-30T09:57:17.000Z</time>
      </trkpt>
      <trkpt lat="45.85523" lon="4.6606">
        <ele>227.22702</ele>
        <time>2023-09-30T09:57:18.000Z</time>
      </trkpt>
      <trkpt lat="45.85524" lon="4.66068">
        <ele>227.46021</ele>
        <time>2023-09-30T09:57:19.000Z</time>
      </trkpt>
      <trkpt lat="45.85525" lon="4.66075">
        <ele>227.6434</ele>
        <time>2023-09-30T09:57:20.000Z</time>
      </trkpt>
      <trkpt lat="45.85525" lon="4.66082">
        <ele>227.80869</ele>
        <time>2023-09-30T09:57:21.000Z</time>
      </trkpt>
      <trkpt lat="45.85525" lon="4.6609">
        <ele>227.94865</ele>
        <time>2023-09-30T09:57:22.000Z</time>
      </trkpt>
      <trkpt lat="45.85526" lon="4.66097">
        <ele>228.04207</ele>
        <time>2023-09-30T09:57:23.000Z</time>
      </trkpt>
      <trkpt lat="45.85526" lon="4.66104">
        <ele>228.13338</ele>
        <time>2023-09-30T09:57:24.000Z</time>
      </trkpt>
      <trkpt lat="45.85526" lon="4.66112">
        <ele>228.20822</ele>
        <time>2023-09-30T09:57:25.000Z</time>
      </trkpt>
      <trkpt lat="45.85527" lon="4.6612">
        <ele>228.27292</ele>
        <time>2023-09-30T09:57:26.000Z</time>
      </trkpt>
      <trkpt lat="45.85527" lon="4.66129">
        <ele>228.41911</ele>
        <time>2023-09-30T09:57:27.000Z</time>
      </trkpt>
      <trkpt lat="45.85528" lon="4.66136">
        <ele>228.59402</ele>
        <time>2023-09-30T09:57:28.000Z</time>
      </trkpt>
      <trkpt lat="45.85527" lon="4.66144">
        <ele>228.65996</ele>
        <time>2023-09-30T09:57:29.000Z</time>
      </trkpt>
      <trkpt lat="45.85527" lon="4.66152">
        <ele>228.79211</ele>
        <time>2023-09-30T09:57:30.000Z</time>
      </trkpt>
      <trkpt lat="45.85526" lon="4.66159">
        <ele>228.86765</ele>
        <time>2023-09-30T09:57:31.000Z</time>
      </trkpt>
      <trkpt lat="45.85526" lon="4.66166">
        <ele>228.92136</ele>
        <time>2023-09-30T09:57:32.000Z</time>
      </trkpt>
      <trkpt lat="45.85525" lon="4.66173">
        <ele>228.95496</ele>
        <time>2023-09-30T09:57:33.000Z</time>
      </trkpt>
      <trkpt lat="45.85525" lon="4.6618">
        <ele>229.0199</ele>
        <time>2023-09-30T09:57:34.000Z</time>
      </trkpt>
      <trkpt lat="45.85524" lon="4.66187">
        <ele>229.08188</ele>
        <time>2023-09-30T09:57:35.000Z</time>
      </trkpt>
      <trkpt lat="45.85523" lon="4.66195">
        <ele>229.16658</ele>
        <time>2023-09-30T09:57:36.000Z</time>
      </trkpt>
      <trkpt lat="45.85523" lon="4.66201">
        <ele>229.25952</ele>
        <time>2023-09-30T09:57:37.000Z</time>
      </trkpt>
      <trkpt lat="45.85522" lon="4.66207">
        <ele>229.34402</ele>
        <time>2023-09-30T09:57:38.000Z</time>
      </trkpt>
      <trkpt lat="45.85521" lon="4.66215">
        <ele>229.46579</ele>
        <time>2023-09-30T09:57:39.000Z</time>
      </trkpt>
      <trkpt lat="45.8552" lon="4.66223">
        <ele>229.59404</ele>
        <time>2023-09-30T09:57:40.000Z</time>
      </trkpt>
      <trkpt lat="45.85518" lon="4.6623">
        <ele>229.759</ele>
        <time>2023-09-30T09:57:41.000Z</time>
      </trkpt>
      <trkpt lat="45.85516" lon="4.66237">
        <ele>229.92923</ele>
        <time>2023-09-30T09:57:42.000Z</time>
      </trkpt>
      <trkpt lat="45.85515" lon="4.66245">
        <ele>230.12041</ele>
        <time>2023-09-30T09:57:43.000Z</time>
      </trkpt>
      <trkpt lat="45.85514" lon="4.66254">
        <ele>230.28488</ele>
        <time>2023-09-30T09:57:44.000Z</time>
      </trkpt>
      <trkpt lat="45.85512" lon="4.66261">
        <ele>230.44653</ele>
        <time>2023-09-30T09:57:45.000Z</time>
      </trkpt>
      <trkpt lat="45.8551" lon="4.66268">
        <ele>230.66501</ele>
        <time>2023-09-30T09:57:46.000Z</time>
      </trkpt>
      <trkpt lat="45.85508" lon="4.66275">
        <ele>230.78418</ele>
        <time>2023-09-30T09:57:47.000Z</time>
      </trkpt>
      <trkpt lat="45.85506" lon="4.66282">
        <ele>230.8779</ele>
        <time>2023-09-30T09:57:48.000Z</time>
      </trkpt>
      <trkpt lat="45.85505" lon="4.6629">
        <ele>231.03091</ele>
        <time>2023-09-30T09:57:49.000Z</time>
      </trkpt>
      <trkpt lat="45.85504" lon="4.66297">
        <ele>231.15091</ele>
        <time>2023-09-30T09:57:50.000Z</time>
      </trkpt>
      <trkpt lat="45.85502" lon="4.66305">
        <ele>231.25826</ele>
        <time>2023-09-30T09:57:51.000Z</time>
      </trkpt>
      <trkpt lat="45.85501" lon="4.66311">
        <ele>231.32515</ele>
        <time>2023-09-30T09:57:52.000Z</time>
      </trkpt>
      <trkpt lat="45.855" lon="4.66317">
        <ele>231.37619</ele>
        <time>2023-09-30T09:57:53.000Z</time>
      </trkpt>
      <trkpt lat="45.85497" lon="4.66323">
        <ele>231.37436</ele>
        <time>2023-09-30T09:57:54.000Z</time>
      </trkpt>
      <trkpt lat="45.85496" lon="4.6633">
        <ele>231.4653</ele>
        <time>2023-09-30T09:57:55.000Z</time>
      </trkpt>
      <trkpt lat="45.85494" lon="4.66336">
        <ele>231.52762</ele>
        <time>2023-09-30T09:57:56.000Z</time>
      </trkpt>
      <trkpt lat="45.85494" lon="4.66342">
        <ele>231.57108</ele>
        <time>2023-09-30T09:57:57.000Z</time>
      </trkpt>
      <trkpt lat="45.85494" lon="4.6635">
        <ele>231.62436</ele>
        <time>2023-09-30T09:57:58.000Z</time>
      </trkpt>
      <trkpt lat="45.85494" lon="4.66355">
        <ele>231.63998</ele>
        <time>2023-09-30T09:57:59.000Z</time>
      </trkpt>
      <trkpt lat="45.85494" lon="4.66367">
        <ele>231.62444</ele>
        <time>2023-09-30T09:58:00.000Z</time>
      </trkpt>
      <trkpt lat="45.85493" lon="4.66379">
        <ele>231.55276</ele>
        <time>2023-09-30T09:58:01.000Z</time>
      </trkpt>
      <trkpt lat="45.85491" lon="4.66391">
        <ele>231.45747</ele>
        <time>2023-09-30T09:58:02.000Z</time>
      </trkpt>
      <trkpt lat="45.8549" lon="4.664">
        <ele>231.34566</ele>
        <time>2023-09-30T09:58:03.000Z</time>
      </trkpt>
      <trkpt lat="45.85489" lon="4.66411">
        <ele>231.23404</ele>
        <time>2023-09-30T09:58:04.000Z</time>
      </trkpt>
      <trkpt lat="45.85486" lon="4.66424">
        <ele>231.06673</ele>
        <time>2023-09-30T09:58:05.000Z</time>
      </trkpt>
      <trkpt lat="45.85482" lon="4.66436">
        <ele>230.79138</ele>
        <time>2023-09-30T09:58:06.000Z</time>
      </trkpt>
      <trkpt lat="45.85479" lon="4.66447">
        <ele>230.49344</ele>
        <time>2023-09-30T09:58:07.000Z</time>
      </trkpt>
      <trkpt lat="45.85476" lon="4.66457">
        <ele>230.16028</ele>
        <time>2023-09-30T09:58:08.000Z</time>
      </trkpt>
      <trkpt lat="45.85473" lon="4.66467">
        <ele>229.86507</ele>
        <time>2023-09-30T09:58:09.000Z</time>
      </trkpt>
      <trkpt lat="45.85472" lon="4.66475">
        <ele>229.57767</ele>
        <time>2023-09-30T09:58:10.000Z</time>
      </trkpt>
      <trkpt lat="45.85469" lon="4.66485">
        <ele>229.2988</ele>
        <time>2023-09-30T09:58:11.000Z</time>
      </trkpt>
      <trkpt lat="45.85468" lon="4.66493">
        <ele>229.00655</ele>
        <time>2023-09-30T09:58:12.000Z</time>
      </trkpt>
      <trkpt lat="45.85468" lon="4.66501">
        <ele>228.68526</ele>
        <time>2023-09-30T09:58:13.000Z</time>
      </trkpt>
      <trkpt lat="45.85469" lon="4.66511">
        <ele>228.34433</ele>
        <time>2023-09-30T09:58:14.000Z</time>
      </trkpt>
      <trkpt lat="45.85471" lon="4.66521">
        <ele>227.8615</ele>
        <time>2023-09-30T09:58:15.000Z</time>
      </trkpt>
      <trkpt lat="45.85472" lon="4.66532">
        <ele>227.36385</ele>
        <time>2023-09-30T09:58:16.000Z</time>
      </trkpt>
      <trkpt lat="45.85474" lon="4.66542">
        <ele>226.87715</ele>
        <time>2023-09-30T09:58:17.000Z</time>
      </trkpt>
      <trkpt lat="45.85475" lon="4.66551">
        <ele>226.37114</ele>
        <time>2023-09-30T09:58:18.000Z</time>
      </trkpt>
      <trkpt lat="45.85477" lon="4.66558">
        <ele>225.84871</ele>
        <time>2023-09-30T09:58:19.000Z</time>
      </trkpt>
      <trkpt lat="45.85481" lon="4.66564">
        <ele>225.34641</ele>
        <time>2023-09-30T09:58:20.000Z</time>
      </trkpt>
      <trkpt lat="45.85487" lon="4.66566">
        <ele>224.84244</ele>
        <time>2023-09-30T09:58:21.000Z</time>
      </trkpt>
      <trkpt lat="45.85492" lon="4.66566">
        <ele>224.358</ele>
        <time>2023-09-30T09:58:22.000Z</time>
      </trkpt>
      <trkpt lat="45.85498" lon="4.66567">
        <ele>223.89053</ele>
        <time>2023-09-30T09:58:23.000Z</time>
      </trkpt>
      <trkpt lat="45.85501" lon="4.66569">
        <ele>223.2653</ele>
        <time>2023-09-30T09:58:24.000Z</time>
      </trkpt>
      <trkpt lat="45.85505" lon="4.66572">
        <ele>222.69308</ele>
        <time>2023-09-30T09:58:25.000Z</time>
      </trkpt>
      <trkpt lat="45.85506" lon="4.66578">
        <ele>222.168</ele>
        <time>2023-09-30T09:58:26.000Z</time>
      </trkpt>
      <trkpt lat="45.85505" lon="4.66587">
        <ele>221.69128</ele>
        <time>2023-09-30T09:58:27.000Z</time>
      </trkpt>
      <trkpt lat="45.85504" lon="4.66593">
        <ele>221.26144</ele>
        <time>2023-09-30T09:58:28.000Z</time>
      </trkpt>
      <trkpt lat="45.85503" lon="4.66601">
        <ele>220.84334</ele>
        <time>2023-09-30T09:58:29.000Z</time>
      </trkpt>
      <trkpt lat="45.85503" lon="4.66607">
        <ele>220.44296</ele>
        <time>2023-09-30T09:58:30.000Z</time>
      </trkpt>
      <trkpt lat="45.85502" lon="4.66615">
        <ele>220.08005</ele>
        <time>2023-09-30T09:58:31.000Z</time>
      </trkpt>
      <trkpt lat="45.85502" lon="4.66623">
        <ele>219.6499</ele>
        <time>2023-09-30T09:58:32.000Z</time>
      </trkpt>
      <trkpt lat="45.85502" lon="4.6663">
        <ele>219.26555</ele>
        <time>2023-09-30T09:58:33.000Z</time>
      </trkpt>
      <trkpt lat="45.85502" lon="4.66639">
        <ele>218.92038</ele>
        <time>2023-09-30T09:58:34.000Z</time>
      </trkpt>
      <trkpt lat="45.85503" lon="4.66646">
        <ele>218.59885</ele>
        <time>2023-09-30T09:58:35.000Z</time>
      </trkpt>
      <trkpt lat="45.85503" lon="4.66656">
        <ele>218.27939</ele>
        <time>2023-09-30T09:58:36.000Z</time>
      </trkpt>
      <trkpt lat="45.85503" lon="4.66664">
        <ele>217.94373</ele>
        <time>2023-09-30T09:58:37.000Z</time>
      </trkpt>
      <trkpt lat="45.85503" lon="4.66673">
        <ele>217.61404</ele>
        <time>2023-09-30T09:58:38.000Z</time>
      </trkpt>
      <trkpt lat="45.85502" lon="4.66682">
        <ele>217.30396</ele>
        <time>2023-09-30T09:58:39.000Z</time>
      </trkpt>
      <trkpt lat="45.85503" lon="4.6669">
        <ele>216.92818</ele>
        <time>2023-09-30T09:58:40.000Z</time>
      </trkpt>
      <trkpt lat="45.85503" lon="4.66699">
        <ele>216.58916</ele>
        <time>2023-09-30T09:58:41.000Z</time>
      </trkpt>
      <trkpt lat="45.85504" lon="4.66707">
        <ele>216.24048</ele>
        <time>2023-09-30T09:58:42.000Z</time>
      </trkpt>
      <trkpt lat="45.85504" lon="4.66716">
        <ele>215.87411</ele>
        <time>2023-09-30T09:58:43.000Z</time>
      </trkpt>
      <trkpt lat="45.85505" lon="4.66725">
        <ele>215.66833</ele>
        <time>2023-09-30T09:58:44.000Z</time>
      </trkpt>
      <trkpt lat="45.85506" lon="4.66733">
        <ele>215.48071</ele>
        <time>2023-09-30T09:58:45.000Z</time>
      </trkpt>
      <trkpt lat="45.85508" lon="4.66741">
        <ele>215.33646</ele>
        <time>2023-09-30T09:58:46.000Z</time>
      </trkpt>
      <trkpt lat="45.85509" lon="4.66748">
        <ele>215.19255</ele>
        <time>2023-09-30T09:58:47.000Z</time>
      </trkpt>
      <trkpt lat="45.85511" lon="4.66757">
        <ele>215.05887</ele>
        <time>2023-09-30T09:58:48.000Z</time>
      </trkpt>
      <trkpt lat="45.85514" lon="4.66765">
        <ele>214.91878</ele>
        <time>2023-09-30T09:58:49.000Z</time>
      </trkpt>
      <trkpt lat="45.85516" lon="4.66773">
        <ele>214.63293</ele>
        <time>2023-09-30T09:58:50.000Z</time>
      </trkpt>
      <trkpt lat="45.85518" lon="4.66782">
        <ele>214.32632</ele>
        <time>2023-09-30T09:58:51.000Z</time>
      </trkpt>
      <trkpt lat="45.8552" lon="4.66791">
        <ele>214.15384</ele>
        <time>2023-09-30T09:58:52.000Z</time>
      </trkpt>
      <trkpt lat="45.85522" lon="4.66801">
        <ele>214.00981</ele>
        <time>2023-09-30T09:58:53.000Z</time>
      </trkpt>
      <trkpt lat="45.85522" lon="4.66809">
        <ele>213.83789</ele>
        <time>2023-09-30T09:58:54.000Z</time>
      </trkpt>
      <trkpt lat="45.85523" lon="4.66818">
        <ele>213.69589</ele>
        <time>2023-09-30T09:58:55.000Z</time>
      </trkpt>
      <trkpt lat="45.85524" lon="4.66826">
        <ele>213.59798</ele>
        <time>2023-09-30T09:58:56.000Z</time>
      </trkpt>
      <trkpt lat="45.85525" lon="4.66834">
        <ele>213.50168</ele>
        <time>2023-09-30T09:58:57.000Z</time>
      </trkpt>
      <trkpt lat="45.85525" lon="4.66842">
        <ele>213.42056</ele>
        <time>2023-09-30T09:58:58.000Z</time>
      </trkpt>
      <trkpt lat="45.85527" lon="4.6685">
        <ele>213.3571</ele>
        <time>2023-09-30T09:58:59.000Z</time>
      </trkpt>
      <trkpt lat="45.85526" lon="4.66858">
        <ele>213.32243</ele>
        <time>2023-09-30T09:59:00.000Z</time>
      </trkpt>
      <trkpt lat="45.85526" lon="4.66867">
        <ele>213.28523</ele>
        <time>2023-09-30T09:59:01.000Z</time>
      </trkpt>
      <trkpt lat="45.85526" lon="4.66875">
        <ele>213.2718</ele>
        <time>2023-09-30T09:59:02.000Z</time>
      </trkpt>
      <trkpt lat="45.85526" lon="4.66884">
        <ele>213.3011</ele>
        <time>2023-09-30T09:59:03.000Z</time>
      </trkpt>
      <trkpt lat="45.85527" lon="4.66892">
        <ele>213.35782</ele>
        <time>2023-09-30T09:59:04.000Z</time>
      </trkpt>
      <trkpt lat="45.85528" lon="4.66899">
        <ele>213.4449</ele>
        <time>2023-09-30T09:59:05.000Z</time>
      </trkpt>
      <trkpt lat="45.85529" lon="4.66906">
        <ele>213.52676</ele>
        <time>2023-09-30T09:59:06.000Z</time>
      </trkpt>
      <trkpt lat="45.85529" lon="4.66912">
        <ele>213.61868</ele>
        <time>2023-09-30T09:59:07.000Z</time>
      </trkpt>
      <trkpt lat="45.8553" lon="4.66919">
        <ele>213.73672</ele>
        <time>2023-09-30T09:59:08.000Z</time>
      </trkpt>
      <trkpt lat="45.85531" lon="4.66925">
        <ele>213.73975</ele>
        <time>2023-09-30T09:59:09.000Z</time>
      </trkpt>
      <trkpt lat="45.85532" lon="4.66931">
        <ele>213.83121</ele>
        <time>2023-09-30T09:59:10.000Z</time>
      </trkpt>
      <trkpt lat="45.85532" lon="4.66937">
        <ele>213.95573</ele>
        <time>2023-09-30T09:59:11.000Z</time>
      </trkpt>
      <trkpt lat="45.85534" lon="4.66943">
        <ele>214.12161</ele>
        <time>2023-09-30T09:59:12.000Z</time>
      </trkpt>
      <trkpt lat="45.85535" lon="4.6695">
        <ele>214.25204</ele>
        <time>2023-09-30T09:59:13.000Z</time>
      </trkpt>
      <trkpt lat="45.85537" lon="4.66955">
        <ele>214.36858</ele>
        <time>2023-09-30T09:59:14.000Z</time>
      </trkpt>
      <trkpt lat="45.85538" lon="4.66961">
        <ele>214.45</ele>
        <time>2023-09-30T09:59:15.000Z</time>
      </trkpt>
      <trkpt lat="45.85539" lon="4.66965">
        <ele>214.52287</ele>
        <time>2023-09-30T09:59:16.000Z</time>
      </trkpt>
      <trkpt lat="45.85541" lon="4.66971">
        <ele>214.57089</ele>
        <time>2023-09-30T09:59:17.000Z</time>
      </trkpt>
      <trkpt lat="45.85543" lon="4.66976">
        <ele>214.61653</ele>
        <time>2023-09-30T09:59:18.000Z</time>
      </trkpt>
      <trkpt lat="45.85546" lon="4.66984">
        <ele>214.68156</ele>
        <time>2023-09-30T09:59:19.000Z</time>
      </trkpt>
      <trkpt lat="45.85548" lon="4.66991">
        <ele>214.76514</ele>
        <time>2023-09-30T09:59:20.000Z</time>
      </trkpt>
      <trkpt lat="45.8555" lon="4.67">
        <ele>214.86235</ele>
        <time>2023-09-30T09:59:21.000Z</time>
      </trkpt>
      <trkpt lat="45.85552" lon="4.67008">
        <ele>214.97466</ele>
        <time>2023-09-30T09:59:22.000Z</time>
      </trkpt>
      <trkpt lat="45.85554" lon="4.67016">
        <ele>215.06339</ele>
        <time>2023-09-30T09:59:23.000Z</time>
      </trkpt>
      <trkpt lat="45.85556" lon="4.67024">
        <ele>215.02563</ele>
        <time>2023-09-30T09:59:24.000Z</time>
      </trkpt>
      <trkpt lat="45.85559" lon="4.67032">
        <ele>214.96182</ele>
        <time>2023-09-30T09:59:25.000Z</time>
      </trkpt>
      <trkpt lat="45.85562" lon="4.67041">
        <ele>214.89377</ele>
        <time>2023-09-30T09:59:26.000Z</time>
      </trkpt>
      <trkpt lat="45.85564" lon="4.67049">
        <ele>214.83157</ele>
        <time>2023-09-30T09:59:27.000Z</time>
      </trkpt>
      <trkpt lat="45.85567" lon="4.67056">
        <ele>214.7209</ele>
        <time>2023-09-30T09:59:28.000Z</time>
      </trkpt>
      <trkpt lat="45.85569" lon="4.67063">
        <ele>214.73935</ele>
        <time>2023-09-30T09:59:29.000Z</time>
      </trkpt>
      <trkpt lat="45.85571" lon="4.67072">
        <ele>214.7448</ele>
        <time>2023-09-30T09:59:30.000Z</time>
      </trkpt>
      <trkpt lat="45.85575" lon="4.67081">
        <ele>214.73495</ele>
        <time>2023-09-30T09:59:31.000Z</time>
      </trkpt>
      <trkpt lat="45.85578" lon="4.67089">
        <ele>214.64885</ele>
        <time>2023-09-30T09:59:32.000Z</time>
      </trkpt>
      <trkpt lat="45.85581" lon="4.67098">
        <ele>214.52055</ele>
        <time>2023-09-30T09:59:33.000Z</time>
      </trkpt>
      <trkpt lat="45.85583" lon="4.67106">
        <ele>214.37247</ele>
        <time>2023-09-30T09:59:34.000Z</time>
      </trkpt>
      <trkpt lat="45.85586" lon="4.67114">
        <ele>214.23779</ele>
        <time>2023-09-30T09:59:35.000Z</time>
      </trkpt>
      <trkpt lat="45.85589" lon="4.67122">
        <ele>214.07608</ele>
        <time>2023-09-30T09:59:36.000Z</time>
      </trkpt>
      <trkpt lat="45.85592" lon="4.67129">
        <ele>213.95261</ele>
        <time>2023-09-30T09:59:37.000Z</time>
      </trkpt>
      <trkpt lat="45.85595" lon="4.67135">
        <ele>213.89351</ele>
        <time>2023-09-30T09:59:38.000Z</time>
      </trkpt>
      <trkpt lat="45.85598" lon="4.67141">
        <ele>213.79068</ele>
        <time>2023-09-30T09:59:39.000Z</time>
      </trkpt>
      <trkpt lat="45.85601" lon="4.67147">
        <ele>213.7209</ele>
        <time>2023-09-30T09:59:40.000Z</time>
      </trkpt>
      <trkpt lat="45.85604" lon="4.67153">
        <ele>213.62173</ele>
        <time>2023-09-30T09:59:41.000Z</time>
      </trkpt>
      <trkpt lat="45.85607" lon="4.67159">
        <ele>213.51175</ele>
        <time>2023-09-30T09:59:42.000Z</time>
      </trkpt>
      <trkpt lat="45.8561" lon="4.67166">
        <ele>213.40569</ele>
        <time>2023-09-30T09:59:43.000Z</time>
      </trkpt>
      <trkpt lat="45.85612" lon="4.67173">
        <ele>213.4187</ele>
        <time>2023-09-30T09:59:44.000Z</time>
      </trkpt>
      <trkpt lat="45.85616" lon="4.67179">
        <ele>213.46529</ele>
        <time>2023-09-30T09:59:45.000Z</time>
      </trkpt>
      <trkpt lat="45.85619" lon="4.67186">
        <ele>213.54558</ele>
        <time>2023-09-30T09:59:46.000Z</time>
      </trkpt>
      <trkpt lat="45.85623" lon="4.67193">
        <ele>213.6436</ele>
        <time>2023-09-30T09:59:47.000Z</time>
      </trkpt>
      <trkpt lat="45.85627" lon="4.67199">
        <ele>213.76828</ele>
        <time>2023-09-30T09:59:48.000Z</time>
      </trkpt>
      <trkpt lat="45.85631" lon="4.67205">
        <ele>213.87363</ele>
        <time>2023-09-30T09:59:49.000Z</time>
      </trkpt>
      <trkpt lat="45.85636" lon="4.6721">
        <ele>214.02945</ele>
        <time>2023-09-30T09:59:50.000Z</time>
      </trkpt>
      <trkpt lat="45.8564" lon="4.67214">
        <ele>214.07222</ele>
        <time>2023-09-30T09:59:51.000Z</time>
      </trkpt>
      <trkpt lat="45.85644" lon="4.67217">
        <ele>214.19519</ele>
        <time>2023-09-30T09:59:52.000Z</time>
      </trkpt>
      <trkpt lat="45.85649" lon="4.67223">
        <ele>214.33701</ele>
        <time>2023-09-30T09:59:53.000Z</time>
      </trkpt>
      <trkpt lat="45.85654" lon="4.67228">
        <ele>214.49561</ele>
        <time>2023-09-30T09:59:54.000Z</time>
      </trkpt>
      <trkpt lat="45.85659" lon="4.67233">
        <ele>214.68169</ele>
        <time>2023-09-30T09:59:55.000Z</time>
      </trkpt>
      <trkpt lat="45.85665" lon="4.67237">
        <ele>214.87924</ele>
        <time>2023-09-30T09:59:56.000Z</time>
      </trkpt>
      <trkpt lat="45.8567" lon="4.6724">
        <ele>215.12534</ele>
        <time>2023-09-30T09:59:57.000Z</time>
      </trkpt>
      <trkpt lat="45.85676" lon="4.67246">
        <ele>215.26053</ele>
        <time>2023-09-30T09:59:58.000Z</time>
      </trkpt>
      <trkpt lat="45.85682" lon="4.6725">
        <ele>215.36011</ele>
        <time>2023-09-30T09:59:59.000Z</time>
      </trkpt>
      <trkpt lat="45.85689" lon="4.67253">
        <ele>215.41252</ele>
        <time>2023-09-30T10:00:00.000Z</time>
      </trkpt>
      <trkpt lat="45.85695" lon="4.67257">
        <ele>215.46936</ele>
        <time>2023-09-30T10:00:01.000Z</time>
      </trkpt>
      <trkpt lat="45.85701" lon="4.67262">
        <ele>215.43887</ele>
        <time>2023-09-30T10:00:02.000Z</time>
      </trkpt>
      <trkpt lat="45.85708" lon="4.67266">
        <ele>215.39665</ele>
        <time>2023-09-30T10:00:03.000Z</time>
      </trkpt>
      <trkpt lat="45.85714" lon="4.67269">
        <ele>215.3497</ele>
        <time>2023-09-30T10:00:04.000Z</time>
      </trkpt>
      <trkpt lat="45.85719" lon="4.67273">
        <ele>215.27551</ele>
        <time>2023-09-30T10:00:05.000Z</time>
      </trkpt>
      <trkpt lat="45.85726" lon="4.67277">
        <ele>215.17224</ele>
        <time>2023-09-30T10:00:06.000Z</time>
      </trkpt>
      <trkpt lat="45.85731" lon="4.67282">
        <ele>215.08765</ele>
        <time>2023-09-30T10:00:07.000Z</time>
      </trkpt>
      <trkpt lat="45.85737" lon="4.67288">
        <ele>214.94321</ele>
        <time>2023-09-30T10:00:08.000Z</time>
      </trkpt>
      <trkpt lat="45.85742" lon="4.67294">
        <ele>214.78207</ele>
        <time>2023-09-30T10:00:09.000Z</time>
      </trkpt>
      <trkpt lat="45.85748" lon="4.673">
        <ele>214.60213</ele>
        <time>2023-09-30T10:00:10.000Z</time>
      </trkpt>
      <trkpt lat="45.85753" lon="4.67306">
        <ele>214.55489</ele>
        <time>2023-09-30T10:00:11.000Z</time>
      </trkpt>
      <trkpt lat="45.85758" lon="4.6731">
        <ele>214.44792</ele>
        <time>2023-09-30T10:00:12.000Z</time>
      </trkpt>
      <trkpt lat="45.85764" lon="4.67317">
        <ele>214.39119</ele>
        <time>2023-09-30T10:00:13.000Z</time>
      </trkpt>
      <trkpt lat="45.85768" lon="4.67321">
        <ele>214.38184</ele>
        <time>2023-09-30T10:00:14.000Z</time>
      </trkpt>
      <trkpt lat="45.85773" lon="4.67325">
        <ele>214.35205</ele>
        <time>2023-09-30T10:00:15.000Z</time>
      </trkpt>
      <trkpt lat="45.85775" lon="4.67328">
        <ele>214.26604</ele>
        <time>2023-09-30T10:00:16.000Z</time>
      </trkpt>
      <trkpt lat="45.85776" lon="4.67332">
        <ele>214.14209</ele>
        <time>2023-09-30T10:00:17.000Z</time>
      </trkpt>
      <trkpt lat="45.85776" lon="4.67336">
        <ele>213.99344</ele>
        <time>2023-09-30T10:00:18.000Z</time>
      </trkpt>
      <trkpt lat="45.85774" lon="4.6734">
        <ele>213.88554</ele>
        <time>2023-09-30T10:00:19.000Z</time>
      </trkpt>
      <trkpt lat="45.85775" lon="4.67346">
        <ele>213.78423</ele>
        <time>2023-09-30T10:00:21.000Z</time>
      </trkpt>
      <trkpt lat="45.85776" lon="4.6735">
        <ele>213.66866</ele>
        <time>2023-09-30T10:00:22.000Z</time>
      </trkpt>
      <trkpt lat="45.85776" lon="4.67354">
        <ele>213.64885</ele>
        <time>2023-09-30T10:00:23.000Z</time>
      </trkpt>
      <trkpt lat="45.85775" lon="4.67358">
        <ele>213.62875</ele>
        <time>2023-09-30T10:00:24.000Z</time>
      </trkpt>
      <trkpt lat="45.85773" lon="4.67364">
        <ele>213.5853</ele>
        <time>2023-09-30T10:00:25.000Z</time>
      </trkpt>
      <trkpt lat="45.8577" lon="4.67368">
        <ele>213.55161</ele>
        <time>2023-09-30T10:00:26.000Z</time>
      </trkpt>
      <trkpt lat="45.85768" lon="4.67372">
        <ele>213.48398</ele>
        <time>2023-09-30T10:00:27.000Z</time>
      </trkpt>
      <trkpt lat="45.85765" lon="4.67377">
        <ele>213.46468</ele>
        <time>2023-09-30T10:00:28.000Z</time>
      </trkpt>
      <trkpt lat="45.85763" lon="4.67382">
        <ele>213.53426</ele>
        <time>2023-09-30T10:00:29.000Z</time>
      </trkpt>
      <trkpt lat="45.85761" lon="4.67388">
        <ele>213.63289</ele>
        <time>2023-09-30T10:00:30.000Z</time>
      </trkpt>
      <trkpt lat="45.85758" lon="4.67392">
        <ele>213.62781</ele>
        <time>2023-09-30T10:00:31.000Z</time>
      </trkpt>
      <trkpt lat="45.85755" lon="4.67398">
        <ele>213.59656</ele>
        <time>2023-09-30T10:00:32.000Z</time>
      </trkpt>
      <trkpt lat="45.85753" lon="4.67404">
        <ele>213.58647</ele>
        <time>2023-09-30T10:00:33.000Z</time>
      </trkpt>
      <trkpt lat="45.8575" lon="4.67409">
        <ele>213.52336</ele>
        <time>2023-09-30T10:00:34.000Z</time>
      </trkpt>
      <trkpt lat="45.85748" lon="4.67415">
        <ele>213.43526</ele>
        <time>2023-09-30T10:00:35.000Z</time>
      </trkpt>
      <trkpt lat="45.85745" lon="4.67419">
        <ele>213.36697</ele>
        <time>2023-09-30T10:00:36.000Z</time>
      </trkpt>
      <trkpt lat="45.85743" lon="4.67424">
        <ele>213.36807</ele>
        <time>2023-09-30T10:00:37.000Z</time>
      </trkpt>
      <trkpt lat="45.85741" lon="4.67429">
        <ele>213.36948</ele>
        <time>2023-09-30T10:00:38.000Z</time>
      </trkpt>
      <trkpt lat="45.85738" lon="4.67434">
        <ele>213.43452</ele>
        <time>2023-09-30T10:00:39.000Z</time>
      </trkpt>
      <trkpt lat="45.85736" lon="4.67439">
        <ele>213.55301</ele>
        <time>2023-09-30T10:00:40.000Z</time>
      </trkpt>
      <trkpt lat="45.85733" lon="4.67444">
        <ele>213.69304</ele>
        <time>2023-09-30T10:00:41.000Z</time>
      </trkpt>
      <trkpt lat="45.8573" lon="4.67448">
        <ele>213.85066</ele>
        <time>2023-09-30T10:00:42.000Z</time>
      </trkpt>
      <trkpt lat="45.85727" lon="4.67455">
        <ele>213.99504</ele>
        <time>2023-09-30T10:00:43.000Z</time>
      </trkpt>
      <trkpt lat="45.85724" lon="4.6746">
        <ele>214.13028</ele>
        <time>2023-09-30T10:00:44.000Z</time>
      </trkpt>
      <trkpt lat="45.8572" lon="4.67466">
        <ele>214.25803</ele>
        <time>2023-09-30T10:00:45.000Z</time>
      </trkpt>
      <trkpt lat="45.85716" lon="4.67471">
        <ele>214.34158</ele>
        <time>2023-09-30T10:00:46.000Z</time>
      </trkpt>
      <trkpt lat="45.85713" lon="4.67477">
        <ele>214.42941</ele>
        <time>2023-09-30T10:00:47.000Z</time>
      </trkpt>
      <trkpt lat="45.85709" lon="4.67483">
        <ele>214.41536</ele>
        <time>2023-09-30T10:00:48.000Z</time>
      </trkpt>
      <trkpt lat="45.85705" lon="4.67489">
        <ele>214.34209</ele>
        <time>2023-09-30T10:00:49.000Z</time>
      </trkpt>
      <trkpt lat="45.85701" lon="4.67494">
        <ele>214.27596</ele>
        <time>2023-09-30T10:00:50.000Z</time>
      </trkpt>
      <trkpt lat="45.85697" lon="4.675">
        <ele>214.30527</ele>
        <time>2023-09-30T10:00:51.000Z</time>
      </trkpt>
      <trkpt lat="45.85694" lon="4.67506">
        <ele>214.33102</ele>
        <time>2023-09-30T10:00:52.000Z</time>
      </trkpt>
      <trkpt lat="45.8569" lon="4.67511">
        <ele>214.33939</ele>
        <time>2023-09-30T10:00:53.000Z</time>
      </trkpt>
      <trkpt lat="45.85686" lon="4.67516">
        <ele>214.37561</ele>
        <time>2023-09-30T10:00:54.000Z</time>
      </trkpt>
      <trkpt lat="45.85683" lon="4.6752">
        <ele>214.49088</ele>
        <time>2023-09-30T10:00:55.000Z</time>
      </trkpt>
      <trkpt lat="45.8568" lon="4.67524">
        <ele>214.6084</ele>
        <time>2023-09-30T10:00:56.000Z</time>
      </trkpt>
      <trkpt lat="45.85676" lon="4.67528">
        <ele>214.69922</ele>
        <time>2023-09-30T10:00:57.000Z</time>
      </trkpt>
      <trkpt lat="45.85671" lon="4.67533">
        <ele>214.73442</ele>
        <time>2023-09-30T10:00:58.000Z</time>
      </trkpt>
      <trkpt lat="45.85667" lon="4.67536">
        <ele>214.80069</ele>
        <time>2023-09-30T10:00:59.000Z</time>
      </trkpt>
      <trkpt lat="45.85664" lon="4.6754">
        <ele>214.84489</ele>
        <time>2023-09-30T10:01:00.000Z</time>
      </trkpt>
      <trkpt lat="45.8566" lon="4.67544">
        <ele>214.7908</ele>
        <time>2023-09-30T10:01:01.000Z</time>
      </trkpt>
      <trkpt lat="45.85657" lon="4.67548">
        <ele>214.76697</ele>
        <time>2023-09-30T10:01:02.000Z</time>
      </trkpt>
      <trkpt lat="45.85653" lon="4.67551">
        <ele>214.74866</ele>
        <time>2023-09-30T10:01:03.000Z</time>
      </trkpt>
      <trkpt lat="45.85649" lon="4.67554">
        <ele>214.71414</ele>
        <time>2023-09-30T10:01:04.000Z</time>
      </trkpt>
      <trkpt lat="45.85645" lon="4.67557">
        <ele>214.69492</ele>
        <time>2023-09-30T10:01:05.000Z</time>
      </trkpt>
      <trkpt lat="45.85641" lon="4.67559">
        <ele>214.69304</ele>
        <time>2023-09-30T10:01:06.000Z</time>
      </trkpt>
      <trkpt lat="45.85638" lon="4.67563">
        <ele>214.68657</ele>
        <time>2023-09-30T10:01:07.000Z</time>
      </trkpt>
      <trkpt lat="45.85634" lon="4.67567">
        <ele>214.68832</ele>
        <time>2023-09-30T10:01:08.000Z</time>
      </trkpt>
      <trkpt lat="45.85631" lon="4.67571">
        <ele>214.69768</ele>
        <time>2023-09-30T10:01:09.000Z</time>
      </trkpt>
      <trkpt lat="45.85628" lon="4.67575">
        <ele>214.68112</ele>
        <time>2023-09-30T10:01:10.000Z</time>
      </trkpt>
      <trkpt lat="45.85624" lon="4.6758">
        <ele>214.6584</ele>
        <time>2023-09-30T10:01:11.000Z</time>
      </trkpt>
      <trkpt lat="45.8562" lon="4.67583">
        <ele>214.62029</ele>
        <time>2023-09-30T10:01:12.000Z</time>
      </trkpt>
      <trkpt lat="45.85616" lon="4.67586">
        <ele>214.57388</ele>
        <time>2023-09-30T10:01:13.000Z</time>
      </trkpt>
      <trkpt lat="45.85612" lon="4.67589">
        <ele>214.51762</ele>
        <time>2023-09-30T10:01:14.000Z</time>
      </trkpt>
      <trkpt lat="45.85608" lon="4.67592">
        <ele>214.40491</ele>
        <time>2023-09-30T10:01:15.000Z</time>
      </trkpt>
      <trkpt lat="45.85604" lon="4.67596">
        <ele>214.27896</ele>
        <time>2023-09-30T10:01:16.000Z</time>
      </trkpt>
      <trkpt lat="45.856" lon="4.676">
        <ele>214.1656</ele>
        <time>2023-09-30T10:01:17.000Z</time>
      </trkpt>
      <trkpt lat="45.85597" lon="4.67604">
        <ele>214.09537</ele>
        <time>2023-09-30T10:01:18.000Z</time>
      </trkpt>
      <trkpt lat="45.85594" lon="4.67609">
        <ele>213.97452</ele>
        <time>2023-09-30T10:01:19.000Z</time>
      </trkpt>
      <trkpt lat="45.8559" lon="4.67613">
        <ele>213.85281</ele>
        <time>2023-09-30T10:01:20.000Z</time>
      </trkpt>
      <trkpt lat="45.85587" lon="4.67617">
        <ele>213.82803</ele>
        <time>2023-09-30T10:01:21.000Z</time>
      </trkpt>
      <trkpt lat="45.85584" lon="4.67621">
        <ele>213.75345</ele>
        <time>2023-09-30T10:01:22.000Z</time>
      </trkpt>
      <trkpt lat="45.85582" lon="4.67625">
        <ele>213.68977</ele>
        <time>2023-09-30T10:01:23.000Z</time>
      </trkpt>
      <trkpt lat="45.85579" lon="4.67629">
        <ele>213.6489</ele>
        <time>2023-09-30T10:01:24.000Z</time>
      </trkpt>
      <trkpt lat="45.85576" lon="4.67632">
        <ele>213.6167</ele>
        <time>2023-09-30T10:01:25.000Z</time>
      </trkpt>
      <trkpt lat="45.85573" lon="4.67636">
        <ele>213.58846</ele>
        <time>2023-09-30T10:01:26.000Z</time>
      </trkpt>
      <trkpt lat="45.85571" lon="4.67639">
        <ele>213.55493</ele>
        <time>2023-09-30T10:01:27.000Z</time>
      </trkpt>
      <trkpt lat="45.85568" lon="4.67643">
        <ele>213.504</ele>
        <time>2023-09-30T10:01:28.000Z</time>
      </trkpt>
      <trkpt lat="45.85565" lon="4.67646">
        <ele>213.43591</ele>
        <time>2023-09-30T10:01:29.000Z</time>
      </trkpt>
      <trkpt lat="45.85563" lon="4.67646">
        <ele>213.4241</ele>
        <time>2023-09-30T10:01:30.000Z</time>
      </trkpt>
      <trkpt lat="45.8556" lon="4.67645">
        <ele>213.42459</ele>
        <time>2023-09-30T10:01:31.000Z</time>
      </trkpt>
      <trkpt lat="45.85558" lon="4.67644">
        <ele>213.4465</ele>
        <time>2023-09-30T10:01:32.000Z</time>
      </trkpt>
      <trkpt lat="45.85558" lon="4.67642">
        <ele>213.52902</ele>
        <time>2023-09-30T10:01:42.000Z</time>
      </trkpt>
      <trkpt lat="45.85557" lon="4.67639">
        <ele>213.65425</ele>
        <time>2023-09-30T10:01:45.000Z</time>
      </trkpt>
      <trkpt lat="45.85554" lon="4.67635">
        <ele>213.88037</ele>
        <time>2023-09-30T10:01:47.000Z</time>
      </trkpt>
      <trkpt lat="45.85552" lon="4.67633">
        <ele>214.13657</ele>
        <time>2023-09-30T10:01:49.000Z</time>
      </trkpt>
      <trkpt lat="45.8555" lon="4.67631">
        <ele>214.32549</ele>
        <time>2023-09-30T10:01:51.000Z</time>
      </trkpt>
      <trkpt lat="45.85551" lon="4.67628">
        <ele>214.58565</ele>
        <time>2023-09-30T10:01:54.000Z</time>
      </trkpt>
      <trkpt lat="45.85552" lon="4.67627">
        <ele>214.78165</ele>
        <time>2023-09-30T10:02:03.000Z</time>
      </trkpt>
      <trkpt lat="45.85553" lon="4.67623">
        <ele>215.00916</ele>
        <time>2023-09-30T10:02:05.000Z</time>
      </trkpt>
      <trkpt lat="45.85554" lon="4.67619">
        <ele>215.17216</ele>
        <time>2023-09-30T10:02:07.000Z</time>
      </trkpt>
      <trkpt lat="45.85556" lon="4.67616">
        <ele>215.37231</ele>
        <time>2023-09-30T10:02:08.000Z</time>
      </trkpt>
      <trkpt lat="45.85558" lon="4.67613">
        <ele>215.57332</ele>
        <time>2023-09-30T10:02:09.000Z</time>
      </trkpt>
      <trkpt lat="45.85559" lon="4.6761">
        <ele>215.78128</ele>
        <time>2023-09-30T10:02:10.000Z</time>
      </trkpt>
      <trkpt lat="45.8556" lon="4.67608">
        <ele>215.99435</ele>
        <time>2023-09-30T10:02:11.000Z</time>
      </trkpt>
      <trkpt lat="45.85562" lon="4.67606">
        <ele>216.27255</ele>
        <time>2023-09-30T10:02:12.000Z</time>
      </trkpt>
      <trkpt lat="45.85565" lon="4.67603">
        <ele>216.57285</ele>
        <time>2023-09-30T10:02:13.000Z</time>
      </trkpt>
      <trkpt lat="45.85567" lon="4.676">
        <ele>216.92358</ele>
        <time>2023-09-30T10:02:14.000Z</time>
      </trkpt>
      <trkpt lat="45.85569" lon="4.67597">
        <ele>217.3083</ele>
        <time>2023-09-30T10:02:15.000Z</time>
      </trkpt>
      <trkpt lat="45.85571" lon="4.67594">
        <ele>217.58476</ele>
        <time>2023-09-30T10:02:16.000Z</time>
      </trkpt>
      <trkpt lat="45.85573" lon="4.67591">
        <ele>217.89983</ele>
        <time>2023-09-30T10:02:17.000Z</time>
      </trkpt>
      <trkpt lat="45.85576" lon="4.67587">
        <ele>218.23856</ele>
        <time>2023-09-30T10:02:18.000Z</time>
      </trkpt>
      <trkpt lat="45.85578" lon="4.67584">
        <ele>218.5743</ele>
        <time>2023-09-30T10:02:19.000Z</time>
      </trkpt>
      <trkpt lat="45.8558" lon="4.67582">
        <ele>218.91187</ele>
        <time>2023-09-30T10:02:20.000Z</time>
      </trkpt>
      <trkpt lat="45.85582" lon="4.67579">
        <ele>219.1615</ele>
        <time>2023-09-30T10:02:21.000Z</time>
      </trkpt>
      <trkpt lat="45.85584" lon="4.67576">
        <ele>219.36899</ele>
        <time>2023-09-30T10:02:22.000Z</time>
      </trkpt>
      <trkpt lat="45.85587" lon="4.67573">
        <ele>219.63335</ele>
        <time>2023-09-30T10:02:23.000Z</time>
      </trkpt>
      <trkpt lat="45.85588" lon="4.67571">
        <ele>219.79976</ele>
        <time>2023-09-30T10:02:24.000Z</time>
      </trkpt>
      <trkpt lat="45.8559" lon="4.67569">
        <ele>220.05998</ele>
        <time>2023-09-30T10:02:25.000Z</time>
      </trkpt>
      <trkpt lat="45.85593" lon="4.67565">
        <ele>220.29211</ele>
        <time>2023-09-30T10:02:26.000Z</time>
      </trkpt>
      <trkpt lat="45.85596" lon="4.67562">
        <ele>220.57195</ele>
        <time>2023-09-30T10:02:27.000Z</time>
      </trkpt>
      <trkpt lat="45.85599" lon="4.67559">
        <ele>220.86142</ele>
        <time>2023-09-30T10:02:28.000Z</time>
      </trkpt>
      <trkpt lat="45.85601" lon="4.67556">
        <ele>221.12088</ele>
        <time>2023-09-30T10:02:29.000Z</time>
      </trkpt>
      <trkpt lat="45.85603" lon="4.67552">
        <ele>221.3717</ele>
        <time>2023-09-30T10:02:30.000Z</time>
      </trkpt>
      <trkpt lat="45.85605" lon="4.67549">
        <ele>221.64522</ele>
        <time>2023-09-30T10:02:31.000Z</time>
      </trkpt>
      <trkpt lat="45.85606" lon="4.67546">
        <ele>221.87724</ele>
        <time>2023-09-30T10:02:32.000Z</time>
      </trkpt>
      <trkpt lat="45.85605" lon="4.67543">
        <ele>222.11765</ele>
        <time>2023-09-30T10:02:33.000Z</time>
      </trkpt>
      <trkpt lat="45.85602" lon="4.6754">
        <ele>222.37627</ele>
        <time>2023-09-30T10:02:34.000Z</time>
      </trkpt>
      <trkpt lat="45.85599" lon="4.67541">
        <ele>222.65157</ele>
        <time>2023-09-30T10:02:35.000Z</time>
      </trkpt>
      <trkpt lat="45.85596" lon="4.67544">
        <ele>222.96985</ele>
        <time>2023-09-30T10:02:36.000Z</time>
      </trkpt>
      <trkpt lat="45.85593" lon="4.67547">
        <ele>223.28081</ele>
        <time>2023-09-30T10:02:37.000Z</time>
      </trkpt>
      <trkpt lat="45.8559" lon="4.67551">
        <ele>223.55547</ele>
        <time>2023-09-30T10:02:38.000Z</time>
      </trkpt>
      <trkpt lat="45.85587" lon="4.67554">
        <ele>223.79948</ele>
        <time>2023-09-30T10:02:39.000Z</time>
      </trkpt>
      <trkpt lat="45.85585" lon="4.67556">
        <ele>224.05928</ele>
        <time>2023-09-30T10:02:40.000Z</time>
      </trkpt>
      <trkpt lat="45.85582" lon="4.67558">
        <ele>224.31909</ele>
        <time>2023-09-30T10:02:41.000Z</time>
      </trkpt>
      <trkpt lat="45.8558" lon="4.67559">
        <ele>224.58066</ele>
        <time>2023-09-30T10:02:42.000Z</time>
      </trkpt>
      <trkpt lat="45.85577" lon="4.67561">
        <ele>224.8334</ele>
        <time>2023-09-30T10:02:43.000Z</time>
      </trkpt>
      <trkpt lat="45.85574" lon="4.67564">
        <ele>225.11496</ele>
        <time>2023-09-30T10:02:44.000Z</time>
      </trkpt>
      <trkpt lat="45.85571" lon="4.67566">
        <ele>225.39644</ele>
        <time>2023-09-30T10:02:45.000Z</time>
      </trkpt>
      <trkpt lat="45.85568" lon="4.67569">
        <ele>225.65222</ele>
        <time>2023-09-30T10:02:46.000Z</time>
      </trkpt>
      <trkpt lat="45.85564" lon="4.67572">
        <ele>225.93542</ele>
        <time>2023-09-30T10:02:47.000Z</time>
      </trkpt>
      <trkpt lat="45.8556" lon="4.67575">
        <ele>226.17529</ele>
        <time>2023-09-30T10:02:48.000Z</time>
      </trkpt>
      <trkpt lat="45.85556" lon="4.67577">
        <ele>226.41446</ele>
        <time>2023-09-30T10:02:49.000Z</time>
      </trkpt>
      <trkpt lat="45.85553" lon="4.67579">
        <ele>226.66605</ele>
        <time>2023-09-30T10:02:50.000Z</time>
      </trkpt>
      <trkpt lat="45.85549" lon="4.67581">
        <ele>226.88663</ele>
        <time>2023-09-30T10:02:51.000Z</time>
      </trkpt>
      <trkpt lat="45.85545" lon="4.67583">
        <ele>227.06387</ele>
        <time>2023-09-30T10:02:52.000Z</time>
      </trkpt>
      <trkpt lat="45.85541" lon="4.67585">
        <ele>227.2117</ele>
        <time>2023-09-30T10:02:53.000Z</time>
      </trkpt>
      <trkpt lat="45.85538" lon="4.67588">
        <ele>227.29785</ele>
        <time>2023-09-30T10:02:54.000Z</time>
      </trkpt>
      <trkpt lat="45.85534" lon="4.6759">
        <ele>227.26465</ele>
        <time>2023-09-30T10:02:55.000Z</time>
      </trkpt>
      <trkpt lat="45.8553" lon="4.67593">
        <ele>227.25578</ele>
        <time>2023-09-30T10:02:56.000Z</time>
      </trkpt>
      <trkpt lat="45.85526" lon="4.67595">
        <ele>227.13057</ele>
        <time>2023-09-30T10:02:57.000Z</time>
      </trkpt>
      <trkpt lat="45.85522" lon="4.67599">
        <ele>227.02505</ele>
        <time>2023-09-30T10:02:58.000Z</time>
      </trkpt>
      <trkpt lat="45.85519" lon="4.67604">
        <ele>226.87625</ele>
        <time>2023-09-30T10:02:59.000Z</time>
      </trkpt>
      <trkpt lat="45.85515" lon="4.67608">
        <ele>226.66858</ele>
        <time>2023-09-30T10:03:00.000Z</time>
      </trkpt>
      <trkpt lat="45.85511" lon="4.67612">
        <ele>226.44939</ele>
        <time>2023-09-30T10:03:01.000Z</time>
      </trkpt>
      <trkpt lat="45.85507" lon="4.67616">
        <ele>226.252</ele>
        <time>2023-09-30T10:03:02.000Z</time>
      </trkpt>
      <trkpt lat="45.85503" lon="4.6762">
        <ele>226.06393</ele>
        <time>2023-09-30T10:03:03.000Z</time>
      </trkpt>
      <trkpt lat="45.85498" lon="4.67624">
        <ele>225.86667</ele>
        <time>2023-09-30T10:03:04.000Z</time>
      </trkpt>
      <trkpt lat="45.85494" lon="4.67628">
        <ele>225.68445</ele>
        <time>2023-09-30T10:03:05.000Z</time>
      </trkpt>
      <trkpt lat="45.85489" lon="4.67631">
        <ele>225.49734</ele>
        <time>2023-09-30T10:03:06.000Z</time>
      </trkpt>
      <trkpt lat="45.85484" lon="4.67634">
        <ele>225.32332</ele>
        <time>2023-09-30T10:03:07.000Z</time>
      </trkpt>
      <trkpt lat="45.8548" lon="4.67638">
        <ele>225.14261</ele>
        <time>2023-09-30T10:03:08.000Z</time>
      </trkpt>
      <trkpt lat="45.85476" lon="4.67639">
        <ele>224.96707</ele>
        <time>2023-09-30T10:03:09.000Z</time>
      </trkpt>
      <trkpt lat="45.85472" lon="4.67642">
        <ele>224.77341</ele>
        <time>2023-09-30T10:03:10.000Z</time>
      </trkpt>
      <trkpt lat="45.85467" lon="4.67643">
        <ele>224.57349</ele>
        <time>2023-09-30T10:03:11.000Z</time>
      </trkpt>
      <trkpt lat="45.85463" lon="4.67644">
        <ele>224.37845</ele>
        <time>2023-09-30T10:03:12.000Z</time>
      </trkpt>
      <trkpt lat="45.85459" lon="4.67642">
        <ele>224.18997</ele>
        <time>2023-09-30T10:03:13.000Z</time>
      </trkpt>
      <trkpt lat="45.85455" lon="4.6764">
        <ele>223.9852</ele>
        <time>2023-09-30T10:03:14.000Z</time>
      </trkpt>
      <trkpt lat="45.85451" lon="4.67638">
        <ele>223.86108</ele>
        <time>2023-09-30T10:03:15.000Z</time>
      </trkpt>
      <trkpt lat="45.85447" lon="4.67637">
        <ele>223.71623</ele>
        <time>2023-09-30T10:03:16.000Z</time>
      </trkpt>
      <trkpt lat="45.85444" lon="4.67634">
        <ele>223.68015</ele>
        <time>2023-09-30T10:03:17.000Z</time>
      </trkpt>
      <trkpt lat="45.8544" lon="4.67632">
        <ele>223.64108</ele>
        <time>2023-09-30T10:03:18.000Z</time>
      </trkpt>
      <trkpt lat="45.85436" lon="4.67633">
        <ele>223.64827</ele>
        <time>2023-09-30T10:03:19.000Z</time>
      </trkpt>
      <trkpt lat="45.8543" lon="4.67633">
        <ele>223.63895</ele>
        <time>2023-09-30T10:03:20.000Z</time>
      </trkpt>
      <trkpt lat="45.85426" lon="4.67635">
        <ele>223.59929</ele>
        <time>2023-09-30T10:03:21.000Z</time>
      </trkpt>
      <trkpt lat="45.85422" lon="4.67636">
        <ele>223.51746</ele>
        <time>2023-09-30T10:03:22.000Z</time>
      </trkpt>
      <trkpt lat="45.85417" lon="4.67637">
        <ele>223.4478</ele>
        <time>2023-09-30T10:03:23.000Z</time>
      </trkpt>
      <trkpt lat="45.85413" lon="4.67637">
        <ele>223.37512</ele>
        <time>2023-09-30T10:03:24.000Z</time>
      </trkpt>
      <trkpt lat="45.85409" lon="4.67634">
        <ele>223.29285</ele>
        <time>2023-09-30T10:03:25.000Z</time>
      </trkpt>
      <trkpt lat="45.85406" lon="4.67631">
        <ele>223.255</ele>
        <time>2023-09-30T10:03:26.000Z</time>
      </trkpt>
      <trkpt lat="45.85403" lon="4.67629">
        <ele>223.23816</ele>
        <time>2023-09-30T10:03:27.000Z</time>
      </trkpt>
      <trkpt lat="45.854" lon="4.67627">
        <ele>223.21048</ele>
        <time>2023-09-30T10:03:28.000Z</time>
      </trkpt>
      <trkpt lat="45.85397" lon="4.67625">
        <ele>223.19548</ele>
        <time>2023-09-30T10:03:29.000Z</time>
      </trkpt>
      <trkpt lat="45.85396" lon="4.67623">
        <ele>223.22112</ele>
        <time>2023-09-30T10:03:30.000Z</time>
      </trkpt>
      <trkpt lat="45.85393" lon="4.67621">
        <ele>223.24561</ele>
        <time>2023-09-30T10:03:31.000Z</time>
      </trkpt>
      <trkpt lat="45.85391" lon="4.67618">
        <ele>223.28804</ele>
        <time>2023-09-30T10:03:32.000Z</time>
      </trkpt>
      <trkpt lat="45.85388" lon="4.67617">
        <ele>223.38516</ele>
        <time>2023-09-30T10:03:33.000Z</time>
      </trkpt>
      <trkpt lat="45.85386" lon="4.67615">
        <ele>223.4675</ele>
        <time>2023-09-30T10:03:34.000Z</time>
      </trkpt>
      <trkpt lat="45.85383" lon="4.67614">
        <ele>223.57454</ele>
        <time>2023-09-30T10:03:35.000Z</time>
      </trkpt>
      <trkpt lat="45.85381" lon="4.67613">
        <ele>223.69963</ele>
        <time>2023-09-30T10:03:36.000Z</time>
      </trkpt>
      <trkpt lat="45.85378" lon="4.67611">
        <ele>223.82153</ele>
        <time>2023-09-30T10:03:37.000Z</time>
      </trkpt>
      <trkpt lat="45.85375" lon="4.6761">
        <ele>223.96582</ele>
        <time>2023-09-30T10:03:38.000Z</time>
      </trkpt>
      <trkpt lat="45.85372" lon="4.67609">
        <ele>224.12479</ele>
        <time>2023-09-30T10:03:39.000Z</time>
      </trkpt>
      <trkpt lat="45.85369" lon="4.67607">
        <ele>224.27222</ele>
        <time>2023-09-30T10:03:40.000Z</time>
      </trkpt>
      <trkpt lat="45.85366" lon="4.67606">
        <ele>224.44873</ele>
        <time>2023-09-30T10:03:41.000Z</time>
      </trkpt>
      <trkpt lat="45.85362" lon="4.67605">
        <ele>224.65244</ele>
        <time>2023-09-30T10:03:42.000Z</time>
      </trkpt>
      <trkpt lat="45.85359" lon="4.67605">
        <ele>224.828</ele>
        <time>2023-09-30T10:03:43.000Z</time>
      </trkpt>
      <trkpt lat="45.85355" lon="4.67604">
        <ele>225.02921</ele>
        <time>2023-09-30T10:03:44.000Z</time>
      </trkpt>
      <trkpt lat="45.85352" lon="4.67604">
        <ele>225.20735</ele>
        <time>2023-09-30T10:03:45.000Z</time>
      </trkpt>
      <trkpt lat="45.85348" lon="4.67603">
        <ele>225.33711</ele>
        <time>2023-09-30T10:03:46.000Z</time>
      </trkpt>
      <trkpt lat="45.85345" lon="4.67601">
        <ele>225.43839</ele>
        <time>2023-09-30T10:03:47.000Z</time>
      </trkpt>
      <trkpt lat="45.85343" lon="4.67599">
        <ele>225.65694</ele>
        <time>2023-09-30T10:03:48.000Z</time>
      </trkpt>
      <trkpt lat="45.8534" lon="4.67597">
        <ele>225.88174</ele>
        <time>2023-09-30T10:03:49.000Z</time>
      </trkpt>
      <trkpt lat="45.85336" lon="4.67595">
        <ele>226.07187</ele>
        <time>2023-09-30T10:03:50.000Z</time>
      </trkpt>
      <trkpt lat="45.85333" lon="4.67594">
        <ele>226.28523</ele>
        <time>2023-09-30T10:03:51.000Z</time>
      </trkpt>
      <trkpt lat="45.85329" lon="4.67592">
        <ele>226.4781</ele>
        <time>2023-09-30T10:03:52.000Z</time>
      </trkpt>
      <trkpt lat="45.85327" lon="4.6759">
        <ele>226.67061</ele>
        <time>2023-09-30T10:03:53.000Z</time>
      </trkpt>
      <trkpt lat="45.85324" lon="4.67589">
        <ele>226.91898</ele>
        <time>2023-09-30T10:03:54.000Z</time>
      </trkpt>
      <trkpt lat="45.85322" lon="4.67587">
        <ele>227.09016</ele>
        <time>2023-09-30T10:03:55.000Z</time>
      </trkpt>
      <trkpt lat="45.85319" lon="4.67585">
        <ele>227.29619</ele>
        <time>2023-09-30T10:03:56.000Z</time>
      </trkpt>
      <trkpt lat="45.85316" lon="4.67583">
        <ele>227.48111</ele>
        <time>2023-09-30T10:03:57.000Z</time>
      </trkpt>
      <trkpt lat="45.85312" lon="4.67581">
        <ele>227.56348</ele>
        <time>2023-09-30T10:03:58.000Z</time>
      </trkpt>
      <trkpt lat="45.85309" lon="4.6758">
        <ele>227.72488</ele>
        <time>2023-09-30T10:03:59.000Z</time>
      </trkpt>
      <trkpt lat="45.85306" lon="4.67579">
        <ele>227.83643</ele>
        <time>2023-09-30T10:04:00.000Z</time>
      </trkpt>
      <trkpt lat="45.85303" lon="4.67577">
        <ele>227.99748</ele>
        <time>2023-09-30T10:04:01.000Z</time>
      </trkpt>
      <trkpt lat="45.853" lon="4.67575">
        <ele>228.20554</ele>
        <time>2023-09-30T10:04:02.000Z</time>
      </trkpt>
      <trkpt lat="45.85297" lon="4.67574">
        <ele>228.44101</ele>
        <time>2023-09-30T10:04:03.000Z</time>
      </trkpt>
      <trkpt lat="45.85294" lon="4.67573">
        <ele>228.56473</ele>
        <time>2023-09-30T10:04:04.000Z</time>
      </trkpt>
      <trkpt lat="45.8529" lon="4.67572">
        <ele>228.68648</ele>
        <time>2023-09-30T10:04:05.000Z</time>
      </trkpt>
      <trkpt lat="45.85286" lon="4.67571">
        <ele>228.8293</ele>
        <time>2023-09-30T10:04:06.000Z</time>
      </trkpt>
      <trkpt lat="45.85284" lon="4.6757">
        <ele>228.97635</ele>
        <time>2023-09-30T10:04:07.000Z</time>
      </trkpt>
      <trkpt lat="45.85281" lon="4.6757">
        <ele>229.03525</ele>
        <time>2023-09-30T10:04:08.000Z</time>
      </trkpt>
      <trkpt lat="45.85277" lon="4.67569">
        <ele>229.07974</ele>
        <time>2023-09-30T10:04:09.000Z</time>
      </trkpt>
      <trkpt lat="45.85274" lon="4.67568">
        <ele>231.10168</ele>
        <time>2023-09-30T10:04:10.000Z</time>
      </trkpt>
      <trkpt lat="45.85271" lon="4.67568">
        <ele>231.23547</ele>
        <time>2023-09-30T10:04:11.000Z</time>
      </trkpt>
      <trkpt lat="45.85267" lon="4.67568">
        <ele>231.39111</ele>
        <time>2023-09-30T10:04:12.000Z</time>
      </trkpt>
      <trkpt lat="45.85264" lon="4.67568">
        <ele>231.49149</ele>
        <time>2023-09-30T10:04:13.000Z</time>
      </trkpt>
      <trkpt lat="45.85261" lon="4.67568">
        <ele>231.58281</ele>
        <time>2023-09-30T10:04:14.000Z</time>
      </trkpt>
      <trkpt lat="45.85257" lon="4.67568">
        <ele>231.7312</ele>
        <time>2023-09-30T10:04:15.000Z</time>
      </trkpt>
      <trkpt lat="45.85254" lon="4.67567">
        <ele>233.75784</ele>
        <time>2023-09-30T10:04:16.000Z</time>
      </trkpt>
      <trkpt lat="45.85252" lon="4.67566">
        <ele>233.98344</ele>
        <time>2023-09-30T10:04:17.000Z</time>
      </trkpt>
      <trkpt lat="45.85249" lon="4.67563">
        <ele>234.29178</ele>
        <time>2023-09-30T10:04:18.000Z</time>
      </trkpt>
      <trkpt lat="45.85248" lon="4.67562">
        <ele>234.4991</ele>
        <time>2023-09-30T10:04:19.000Z</time>
      </trkpt>
      <trkpt lat="45.85246" lon="4.67561">
        <ele>234.79593</ele>
        <time>2023-09-30T10:04:20.000Z</time>
      </trkpt>
      <trkpt lat="45.85243" lon="4.6756">
        <ele>235.04639</ele>
        <time>2023-09-30T10:04:21.000Z</time>
      </trkpt>
      <trkpt lat="45.8524" lon="4.67559">
        <ele>237.41196</ele>
        <time>2023-09-30T10:04:22.000Z</time>
      </trkpt>
      <trkpt lat="45.85237" lon="4.67559">
        <ele>237.74446</ele>
        <time>2023-09-30T10:04:23.000Z</time>
      </trkpt>
      <trkpt lat="45.85234" lon="4.6756">
        <ele>238.1857</ele>
        <time>2023-09-30T10:04:24.000Z</time>
      </trkpt>
      <trkpt lat="45.85232" lon="4.67562">
        <ele>238.66672</ele>
        <time>2023-09-30T10:04:25.000Z</time>
      </trkpt>
      <trkpt lat="45.85229" lon="4.67563">
        <ele>239.16573</ele>
        <time>2023-09-30T10:04:26.000Z</time>
      </trkpt>
      <trkpt lat="45.85227" lon="4.67565">
        <ele>239.68254</ele>
        <time>2023-09-30T10:04:27.000Z</time>
      </trkpt>
      <trkpt lat="45.85224" lon="4.67565">
        <ele>242.40666</ele>
        <time>2023-09-30T10:04:28.000Z</time>
      </trkpt>
      <trkpt lat="45.85222" lon="4.67565">
        <ele>243.07524</ele>
        <time>2023-09-30T10:04:29.000Z</time>
      </trkpt>
      <trkpt lat="45.85218" lon="4.67566">
        <ele>241.80142</ele>
        <time>2023-09-30T10:04:30.000Z</time>
      </trkpt>
      <trkpt lat="45.85215" lon="4.67567">
        <ele>242.3364</ele>
        <time>2023-09-30T10:04:31.000Z</time>
      </trkpt>
      <trkpt lat="45.85211" lon="4.67568">
        <ele>242.89145</ele>
        <time>2023-09-30T10:04:32.000Z</time>
      </trkpt>
      <trkpt lat="45.85209" lon="4.67569">
        <ele>243.46648</ele>
        <time>2023-09-30T10:04:33.000Z</time>
      </trkpt>
      <trkpt lat="45.85206" lon="4.6757">
        <ele>245.80554</ele>
        <time>2023-09-30T10:04:34.000Z</time>
      </trkpt>
      <trkpt lat="45.85202" lon="4.6757">
        <ele>246.51668</ele>
        <time>2023-09-30T10:04:35.000Z</time>
      </trkpt>
      <trkpt lat="45.85199" lon="4.67571">
        <ele>245.35156</ele>
        <time>2023-09-30T10:04:36.000Z</time>
      </trkpt>
      <trkpt lat="45.85196" lon="4.67572">
        <ele>245.93124</ele>
        <time>2023-09-30T10:04:37.000Z</time>
      </trkpt>
      <trkpt lat="45.85193" lon="4.67573">
        <ele>246.52864</ele>
        <time>2023-09-30T10:04:38.000Z</time>
      </trkpt>
      <trkpt lat="45.8519" lon="4.67574">
        <ele>247.14047</ele>
        <time>2023-09-30T10:04:39.000Z</time>
      </trkpt>
      <trkpt lat="45.85187" lon="4.67577">
        <ele>249.58044</ele>
        <time>2023-09-30T10:04:40.000Z</time>
      </trkpt>
      <trkpt lat="45.85183" lon="4.6758">
        <ele>250.31967</ele>
        <time>2023-09-30T10:04:41.000Z</time>
      </trkpt>
      <trkpt lat="45.8518" lon="4.67582">
        <ele>248.93758</ele>
        <time>2023-09-30T10:04:42.000Z</time>
      </trkpt>
      <trkpt lat="45.85175" lon="4.67585">
        <ele>249.51384</ele>
        <time>2023-09-30T10:04:43.000Z</time>
      </trkpt>
      <trkpt lat="45.85171" lon="4.67587">
        <ele>250.10229</ele>
        <time>2023-09-30T10:04:44.000Z</time>
      </trkpt>
      <trkpt lat="45.85168" lon="4.67589">
        <ele>252.19003</ele>
        <time>2023-09-30T10:04:45.000Z</time>
      </trkpt>
      <trkpt lat="45.85164" lon="4.6759">
        <ele>254.22847</ele>
        <time>2023-09-30T10:04:46.000Z</time>
      </trkpt>
      <trkpt lat="45.85161" lon="4.67591">
        <ele>256.26611</ele>
        <time>2023-09-30T10:04:47.000Z</time>
      </trkpt>
      <trkpt lat="45.85158" lon="4.67593">
        <ele>255.98335</ele>
        <time>2023-09-30T10:04:48.000Z</time>
      </trkpt>
      <trkpt lat="45.85156" lon="4.67594">
        <ele>257.67847</ele>
        <time>2023-09-30T10:04:49.000Z</time>
      </trkpt>
      <trkpt lat="45.85153" lon="4.67597">
        <ele>259.32056</ele>
        <time>2023-09-30T10:04:50.000Z</time>
      </trkpt>
      <trkpt lat="45.8515" lon="4.676">
        <ele>261.03055</ele>
        <time>2023-09-30T10:04:51.000Z</time>
      </trkpt>
      <trkpt lat="45.85147" lon="4.67603">
        <ele>262.75134</ele>
        <time>2023-09-30T10:04:52.000Z</time>
      </trkpt>
      <trkpt lat="45.85144" lon="4.67605">
        <ele>264.50504</ele>
        <time>2023-09-30T10:04:53.000Z</time>
      </trkpt>
      <trkpt lat="45.85142" lon="4.67607">
        <ele>264.47189</ele>
        <time>2023-09-30T10:04:54.000Z</time>
      </trkpt>
      <trkpt lat="45.8514" lon="4.67609">
        <ele>266.13593</ele>
        <time>2023-09-30T10:04:55.000Z</time>
      </trkpt>
      <trkpt lat="45.85138" lon="4.67613">
        <ele>267.83405</ele>
        <time>2023-09-30T10:04:56.000Z</time>
      </trkpt>
      <trkpt lat="45.85137" lon="4.67616">
        <ele>269.54886</ele>
        <time>2023-09-30T10:04:57.000Z</time>
      </trkpt>
      <trkpt lat="45.85136" lon="4.6762">
        <ele>271.32761</ele>
        <time>2023-09-30T10:04:58.000Z</time>
      </trkpt>
      <trkpt lat="45.85136" lon="4.67624">
        <ele>273.01654</ele>
        <time>2023-09-30T10:04:59.000Z</time>
      </trkpt>
      <trkpt lat="45.85137" lon="4.67628">
        <ele>272.83502</ele>
        <time>2023-09-30T10:05:00.000Z</time>
      </trkpt>
      <trkpt lat="45.85137" lon="4.67632">
        <ele>274.39008</ele>
        <time>2023-09-30T10:05:01.000Z</time>
      </trkpt>
      <trkpt lat="45.85139" lon="4.67636">
        <ele>275.98654</ele>
        <time>2023-09-30T10:05:02.000Z</time>
      </trkpt>
      <trkpt lat="45.8514" lon="4.6764">
        <ele>277.64359</ele>
        <time>2023-09-30T10:05:03.000Z</time>
      </trkpt>
      <trkpt lat="45.85142" lon="4.67644">
        <ele>279.29572</ele>
        <time>2023-09-30T10:05:04.000Z</time>
      </trkpt>
      <trkpt lat="45.85143" lon="4.67647">
        <ele>279.48093</ele>
        <time>2023-09-30T10:05:05.000Z</time>
      </trkpt>
      <trkpt lat="45.85144" lon="4.6765">
        <ele>279.67615</ele>
        <time>2023-09-30T10:05:06.000Z</time>
      </trkpt>
      <trkpt lat="45.85145" lon="4.67653">
        <ele>280.04922</ele>
        <time>2023-09-30T10:05:07.000Z</time>
      </trkpt>
      <trkpt lat="45.85148" lon="4.67656">
        <ele>280.56586</ele>
        <time>2023-09-30T10:05:08.000Z</time>
      </trkpt>
      <trkpt lat="45.8515" lon="4.6766">
        <ele>280.61441</ele>
        <time>2023-09-30T10:05:09.000Z</time>
      </trkpt>
      <trkpt lat="45.85153" lon="4.67663">
        <ele>280.63785</ele>
        <time>2023-09-30T10:05:10.000Z</time>
      </trkpt>
      <trkpt lat="45.85154" lon="4.67668">
        <ele>280.69083</ele>
        <time>2023-09-30T10:05:11.000Z</time>
      </trkpt>
      <trkpt lat="45.85156" lon="4.67672">
        <ele>280.62253</ele>
        <time>2023-09-30T10:05:12.000Z</time>
      </trkpt>
      <trkpt lat="45.85157" lon="4.67676">
        <ele>280.38916</ele>
        <time>2023-09-30T10:05:13.000Z</time>
      </trkpt>
      <trkpt lat="45.85158" lon="4.67681">
        <ele>280.18829</ele>
        <time>2023-09-30T10:05:14.000Z</time>
      </trkpt>
      <trkpt lat="45.85159" lon="4.67685">
        <ele>280.07452</ele>
        <time>2023-09-30T10:05:15.000Z</time>
      </trkpt>
      <trkpt lat="45.8516" lon="4.6769">
        <ele>279.8049</ele>
        <time>2023-09-30T10:05:16.000Z</time>
      </trkpt>
      <trkpt lat="45.85162" lon="4.67695">
        <ele>279.57047</ele>
        <time>2023-09-30T10:05:17.000Z</time>
      </trkpt>
      <trkpt lat="45.85163" lon="4.677">
        <ele>279.24277</ele>
        <time>2023-09-30T10:05:18.000Z</time>
      </trkpt>
      <trkpt lat="45.85164" lon="4.67706">
        <ele>279.11469</ele>
        <time>2023-09-30T10:05:19.000Z</time>
      </trkpt>
      <trkpt lat="45.85165" lon="4.67711">
        <ele>278.61279</ele>
        <time>2023-09-30T10:05:20.000Z</time>
      </trkpt>
      <trkpt lat="45.85166" lon="4.67716">
        <ele>278.14542</ele>
        <time>2023-09-30T10:05:21.000Z</time>
      </trkpt>
      <trkpt lat="45.85167" lon="4.67723">
        <ele>277.56451</ele>
        <time>2023-09-30T10:05:22.000Z</time>
      </trkpt>
      <trkpt lat="45.85168" lon="4.67729">
        <ele>276.99841</ele>
        <time>2023-09-30T10:05:23.000Z</time>
      </trkpt>
      <trkpt lat="45.85168" lon="4.67737">
        <ele>276.42352</ele>
        <time>2023-09-30T10:05:24.000Z</time>
      </trkpt>
      <trkpt lat="45.85169" lon="4.67743">
        <ele>275.74548</ele>
        <time>2023-09-30T10:05:25.000Z</time>
      </trkpt>
      <trkpt lat="45.85171" lon="4.67751">
        <ele>275.06564</ele>
        <time>2023-09-30T10:05:26.000Z</time>
      </trkpt>
      <trkpt lat="45.85172" lon="4.67758">
        <ele>274.15033</ele>
        <time>2023-09-30T10:05:27.000Z</time>
      </trkpt>
      <trkpt lat="45.85173" lon="4.67767">
        <ele>273.2121</ele>
        <time>2023-09-30T10:05:28.000Z</time>
      </trkpt>
      <trkpt lat="45.85172" lon="4.67776">
        <ele>272.75787</ele>
        <time>2023-09-30T10:05:29.000Z</time>
      </trkpt>
      <trkpt lat="45.8517" lon="4.67784">
        <ele>272.34967</ele>
        <time>2023-09-30T10:05:30.000Z</time>
      </trkpt>
      <trkpt lat="45.85168" lon="4.67792">
        <ele>272.27289</ele>
        <time>2023-09-30T10:05:31.000Z</time>
      </trkpt>
      <trkpt lat="45.8517" lon="4.678">
        <ele>270.77197</ele>
        <time>2023-09-30T10:05:32.000Z</time>
      </trkpt>
      <trkpt lat="45.85172" lon="4.67807">
        <ele>269.35431</ele>
        <time>2023-09-30T10:05:33.000Z</time>
      </trkpt>
      <trkpt lat="45.85173" lon="4.67816">
        <ele>267.87665</ele>
        <time>2023-09-30T10:05:34.000Z</time>
      </trkpt>
      <trkpt lat="45.85172" lon="4.67824">
        <ele>266.23734</ele>
        <time>2023-09-30T10:05:35.000Z</time>
      </trkpt>
      <trkpt lat="45.85168" lon="4.67832">
        <ele>264.61356</ele>
        <time>2023-09-30T10:05:36.000Z</time>
      </trkpt>
      <trkpt lat="45.85164" lon="4.6784">
        <ele>262.98102</ele>
        <time>2023-09-30T10:05:37.000Z</time>
      </trkpt>
      <trkpt lat="45.85161" lon="4.67849">
        <ele>261.37524</ele>
        <time>2023-09-30T10:05:38.000Z</time>
      </trkpt>
      <trkpt lat="45.85157" lon="4.67857">
        <ele>259.60333</ele>
        <time>2023-09-30T10:05:39.000Z</time>
      </trkpt>
      <trkpt lat="45.85153" lon="4.67865">
        <ele>258.23605</ele>
        <time>2023-09-30T10:05:40.000Z</time>
      </trkpt>
      <trkpt lat="45.85148" lon="4.67872">
        <ele>256.78427</ele>
        <time>2023-09-30T10:05:41.000Z</time>
      </trkpt>
      <trkpt lat="45.85144" lon="4.6788">
        <ele>255.36313</ele>
        <time>2023-09-30T10:05:42.000Z</time>
      </trkpt>
      <trkpt lat="45.8514" lon="4.67888">
        <ele>253.90837</ele>
        <time>2023-09-30T10:05:43.000Z</time>
      </trkpt>
      <trkpt lat="45.85136" lon="4.67896">
        <ele>252.41943</ele>
        <time>2023-09-30T10:05:44.000Z</time>
      </trkpt>
      <trkpt lat="45.85132" lon="4.67906">
        <ele>250.94878</ele>
        <time>2023-09-30T10:05:45.000Z</time>
      </trkpt>
      <trkpt lat="45.85128" lon="4.67915">
        <ele>249.48425</ele>
        <time>2023-09-30T10:05:46.000Z</time>
      </trkpt>
      <trkpt lat="45.85123" lon="4.67925">
        <ele>248.02292</ele>
        <time>2023-09-30T10:05:47.000Z</time>
      </trkpt>
      <trkpt lat="45.85118" lon="4.67935">
        <ele>246.53023</ele>
        <time>2023-09-30T10:05:48.000Z</time>
      </trkpt>
      <trkpt lat="45.85113" lon="4.67947">
        <ele>245.06027</ele>
        <time>2023-09-30T10:05:49.000Z</time>
      </trkpt>
      <trkpt lat="45.85109" lon="4.67959">
        <ele>243.57381</ele>
        <time>2023-09-30T10:05:50.000Z</time>
      </trkpt>
      <trkpt lat="45.85105" lon="4.67971">
        <ele>241.70476</ele>
        <time>2023-09-30T10:05:51.000Z</time>
      </trkpt>
      <trkpt lat="45.851" lon="4.67982">
        <ele>241.3541</ele>
        <time>2023-09-30T10:05:52.000Z</time>
      </trkpt>
      <trkpt lat="45.85096" lon="4.67993">
        <ele>240.98471</ele>
        <time>2023-09-30T10:05:53.000Z</time>
      </trkpt>
      <trkpt lat="45.85092" lon="4.68">
        <ele>240.64975</ele>
        <time>2023-09-30T10:05:54.000Z</time>
      </trkpt>
      <trkpt lat="45.85089" lon="4.68008">
        <ele>240.31705</ele>
        <time>2023-09-30T10:05:55.000Z</time>
      </trkpt>
      <trkpt lat="45.85086" lon="4.68014">
        <ele>240.02078</ele>
        <time>2023-09-30T10:05:56.000Z</time>
      </trkpt>
      <trkpt lat="45.85082" lon="4.68021">
        <ele>239.69458</ele>
        <time>2023-09-30T10:05:57.000Z</time>
      </trkpt>
      <trkpt lat="45.8508" lon="4.68026">
        <ele>239.33752</ele>
        <time>2023-09-30T10:05:58.000Z</time>
      </trkpt>
      <trkpt lat="45.85077" lon="4.68031">
        <ele>239.00723</ele>
        <time>2023-09-30T10:05:59.000Z</time>
      </trkpt>
      <trkpt lat="45.85077" lon="4.68035">
        <ele>238.66377</ele>
        <time>2023-09-30T10:06:00.000Z</time>
      </trkpt>
      <trkpt lat="45.85079" lon="4.68039">
        <ele>239.24458</ele>
        <time>2023-09-30T10:06:01.000Z</time>
      </trkpt>
      <trkpt lat="45.85081" lon="4.68043">
        <ele>240.28323</ele>
        <time>2023-09-30T10:06:02.000Z</time>
      </trkpt>
      <trkpt lat="45.85083" lon="4.68048">
        <ele>241.34167</ele>
        <time>2023-09-30T10:06:03.000Z</time>
      </trkpt>
      <trkpt lat="45.85089" lon="4.68051">
        <ele>242.39677</ele>
        <time>2023-09-30T10:06:04.000Z</time>
      </trkpt>
      <trkpt lat="45.85093" lon="4.68055">
        <ele>243.46309</ele>
        <time>2023-09-30T10:06:05.000Z</time>
      </trkpt>
      <trkpt lat="45.85097" lon="4.6806">
        <ele>244.51958</ele>
        <time>2023-09-30T10:06:06.000Z</time>
      </trkpt>
      <trkpt lat="45.85097" lon="4.68067">
        <ele>245.58438</ele>
        <time>2023-09-30T10:06:07.000Z</time>
      </trkpt>
      <trkpt lat="45.85094" lon="4.68071">
        <ele>245.19344</ele>
        <time>2023-09-30T10:06:08.000Z</time>
      </trkpt>
      <trkpt lat="45.85091" lon="4.68072">
        <ele>244.8521</ele>
        <time>2023-09-30T10:06:09.000Z</time>
      </trkpt>
      <trkpt lat="45.85087" lon="4.68072">
        <ele>244.52005</ele>
        <time>2023-09-30T10:06:10.000Z</time>
      </trkpt>
      <trkpt lat="45.85083" lon="4.68071">
        <ele>244.22446</ele>
        <time>2023-09-30T10:06:11.000Z</time>
      </trkpt>
      <trkpt lat="45.8508" lon="4.6807">
        <ele>243.91379</ele>
        <time>2023-09-30T10:06:12.000Z</time>
      </trkpt>
      <trkpt lat="45.85076" lon="4.6807">
        <ele>243.6683</ele>
        <time>2023-09-30T10:06:13.000Z</time>
      </trkpt>
      <trkpt lat="45.85072" lon="4.68071">
        <ele>243.45529</ele>
        <time>2023-09-30T10:06:14.000Z</time>
      </trkpt>
      <trkpt lat="45.85068" lon="4.68071">
        <ele>243.25528</ele>
        <time>2023-09-30T10:06:15.000Z</time>
      </trkpt>
      <trkpt lat="45.85064" lon="4.68071">
        <ele>243.10776</ele>
        <time>2023-09-30T10:06:16.000Z</time>
      </trkpt>
      <trkpt lat="45.8506" lon="4.68071">
        <ele>243.01884</ele>
        <time>2023-09-30T10:06:17.000Z</time>
      </trkpt>
      <trkpt lat="45.85056" lon="4.68071">
        <ele>242.94186</ele>
        <time>2023-09-30T10:06:18.000Z</time>
      </trkpt>
      <trkpt lat="45.85051" lon="4.68071">
        <ele>242.8671</ele>
        <time>2023-09-30T10:06:19.000Z</time>
      </trkpt>
      <trkpt lat="45.85047" lon="4.6807">
        <ele>242.95869</ele>
        <time>2023-09-30T10:06:20.000Z</time>
      </trkpt>
      <trkpt lat="45.85042" lon="4.6807">
        <ele>242.08073</ele>
        <time>2023-09-30T10:06:21.000Z</time>
      </trkpt>
      <trkpt lat="45.85038" lon="4.6807">
        <ele>240.77849</ele>
        <time>2023-09-30T10:06:22.000Z</time>
      </trkpt>
      <trkpt lat="45.85033" lon="4.6807">
        <ele>239.51804</ele>
        <time>2023-09-30T10:06:23.000Z</time>
      </trkpt>
      <trkpt lat="45.85028" lon="4.6807">
        <ele>238.27554</ele>
        <time>2023-09-30T10:06:24.000Z</time>
      </trkpt>
      <trkpt lat="45.85023" lon="4.6807">
        <ele>237.0538</ele>
        <time>2023-09-30T10:06:25.000Z</time>
      </trkpt>
      <trkpt lat="45.85018" lon="4.6807">
        <ele>235.89282</ele>
        <time>2023-09-30T10:06:26.000Z</time>
      </trkpt>
      <trkpt lat="45.85013" lon="4.6807">
        <ele>234.77657</ele>
        <time>2023-09-30T10:06:27.000Z</time>
      </trkpt>
      <trkpt lat="45.85008" lon="4.68071">
        <ele>235.1259</ele>
        <time>2023-09-30T10:06:28.000Z</time>
      </trkpt>
      <trkpt lat="45.85003" lon="4.68071">
        <ele>235.46994</ele>
        <time>2023-09-30T10:06:29.000Z</time>
      </trkpt>
      <trkpt lat="45.84998" lon="4.68072">
        <ele>235.86084</ele>
        <time>2023-09-30T10:06:30.000Z</time>
      </trkpt>
      <trkpt lat="45.84993" lon="4.68073">
        <ele>236.23869</ele>
        <time>2023-09-30T10:06:31.000Z</time>
      </trkpt>
      <trkpt lat="45.84987" lon="4.68073">
        <ele>236.59602</ele>
        <time>2023-09-30T10:06:32.000Z</time>
      </trkpt>
      <trkpt lat="45.84981" lon="4.68074">
        <ele>236.92378</ele>
        <time>2023-09-30T10:06:33.000Z</time>
      </trkpt>
      <trkpt lat="45.84976" lon="4.68074">
        <ele>237.25809</ele>
        <time>2023-09-30T10:06:34.000Z</time>
      </trkpt>
      <trkpt lat="45.84971" lon="4.68076">
        <ele>237.57304</ele>
        <time>2023-09-30T10:06:35.000Z</time>
      </trkpt>
      <trkpt lat="45.84965" lon="4.68078">
        <ele>237.86934</ele>
        <time>2023-09-30T10:06:36.000Z</time>
      </trkpt>
      <trkpt lat="45.8496" lon="4.68079">
        <ele>238.17229</ele>
        <time>2023-09-30T10:06:37.000Z</time>
      </trkpt>
      <trkpt lat="45.84954" lon="4.6808">
        <ele>238.46672</ele>
        <time>2023-09-30T10:06:38.000Z</time>
      </trkpt>
      <trkpt lat="45.84949" lon="4.68081">
        <ele>238.76343</ele>
        <time>2023-09-30T10:06:39.000Z</time>
      </trkpt>
      <trkpt lat="45.84943" lon="4.68083">
        <ele>238.88144</ele>
        <time>2023-09-30T10:06:40.000Z</time>
      </trkpt>
      <trkpt lat="45.84938" lon="4.68084">
        <ele>239.05222</ele>
        <time>2023-09-30T10:06:41.000Z</time>
      </trkpt>
      <trkpt lat="45.84932" lon="4.68085">
        <ele>240.35953</ele>
        <time>2023-09-30T10:06:42.000Z</time>
      </trkpt>
      <trkpt lat="45.84927" lon="4.68087">
        <ele>241.62674</ele>
        <time>2023-09-30T10:06:43.000Z</time>
      </trkpt>
      <trkpt lat="45.84922" lon="4.68089">
        <ele>242.87704</ele>
        <time>2023-09-30T10:06:44.000Z</time>
      </trkpt>
      <trkpt lat="45.84916" lon="4.6809">
        <ele>244.15164</ele>
        <time>2023-09-30T10:06:45.000Z</time>
      </trkpt>
      <trkpt lat="45.84912" lon="4.68093">
        <ele>245.3782</ele>
        <time>2023-09-30T10:06:46.000Z</time>
      </trkpt>
      <trkpt lat="45.84906" lon="4.68097">
        <ele>246.59038</ele>
        <time>2023-09-30T10:06:47.000Z</time>
      </trkpt>
      <trkpt lat="45.84901" lon="4.681">
        <ele>247.86638</ele>
        <time>2023-09-30T10:06:48.000Z</time>
      </trkpt>
      <trkpt lat="45.84896" lon="4.68104">
        <ele>249.2197</ele>
        <time>2023-09-30T10:06:49.000Z</time>
      </trkpt>
      <trkpt lat="45.84892" lon="4.68108">
        <ele>250.49539</ele>
        <time>2023-09-30T10:06:50.000Z</time>
      </trkpt>
      <trkpt lat="45.84887" lon="4.68112">
        <ele>251.74272</ele>
        <time>2023-09-30T10:06:51.000Z</time>
      </trkpt>
      <trkpt lat="45.84882" lon="4.68116">
        <ele>253.03531</ele>
        <time>2023-09-30T10:06:52.000Z</time>
      </trkpt>
      <trkpt lat="45.84877" lon="4.68121">
        <ele>254.32556</ele>
        <time>2023-09-30T10:06:53.000Z</time>
      </trkpt>
      <trkpt lat="45.84872" lon="4.68126">
        <ele>255.60446</ele>
        <time>2023-09-30T10:06:54.000Z</time>
      </trkpt>
      <trkpt lat="45.84869" lon="4.68131">
        <ele>255.53922</ele>
        <time>2023-09-30T10:06:55.000Z</time>
      </trkpt>
      <trkpt lat="45.84864" lon="4.68135">
        <ele>255.72481</ele>
        <time>2023-09-30T10:06:56.000Z</time>
      </trkpt>
      <trkpt lat="45.84861" lon="4.6814">
        <ele>255.90559</ele>
        <time>2023-09-30T10:06:57.000Z</time>
      </trkpt>
      <trkpt lat="45.84857" lon="4.68144">
        <ele>256.12979</ele>
        <time>2023-09-30T10:06:58.000Z</time>
      </trkpt>
      <trkpt lat="45.84853" lon="4.68147">
        <ele>256.38733</ele>
        <time>2023-09-30T10:06:59.000Z</time>
      </trkpt>
      <trkpt lat="45.84848" lon="4.6815">
        <ele>257.84601</ele>
        <time>2023-09-30T10:07:00.000Z</time>
      </trkpt>
      <trkpt lat="45.84844" lon="4.68152">
        <ele>259.30109</ele>
        <time>2023-09-30T10:07:01.000Z</time>
      </trkpt>
      <trkpt lat="45.84839" lon="4.68153">
        <ele>259.57288</ele>
        <time>2023-09-30T10:07:02.000Z</time>
      </trkpt>
      <trkpt lat="45.84834" lon="4.68154">
        <ele>259.85779</ele>
        <time>2023-09-30T10:07:03.000Z</time>
      </trkpt>
      <trkpt lat="45.8483" lon="4.68154">
        <ele>260.14362</ele>
        <time>2023-09-30T10:07:04.000Z</time>
      </trkpt>
      <trkpt lat="45.84825" lon="4.68152">
        <ele>260.44894</ele>
        <time>2023-09-30T10:07:05.000Z</time>
      </trkpt>
      <trkpt lat="45.84822" lon="4.6815">
        <ele>260.78314</ele>
        <time>2023-09-30T10:07:06.000Z</time>
      </trkpt>
      <trkpt lat="45.84817" lon="4.68148">
        <ele>261.1402</ele>
        <time>2023-09-30T10:07:07.000Z</time>
      </trkpt>
      <trkpt lat="45.84813" lon="4.68147">
        <ele>261.44843</ele>
        <time>2023-09-30T10:07:08.000Z</time>
      </trkpt>
      <trkpt lat="45.84809" lon="4.68144">
        <ele>261.68088</ele>
        <time>2023-09-30T10:07:09.000Z</time>
      </trkpt>
      <trkpt lat="45.84805" lon="4.68142">
        <ele>261.96851</ele>
        <time>2023-09-30T10:07:10.000Z</time>
      </trkpt>
      <trkpt lat="45.84801" lon="4.68139">
        <ele>262.5722</ele>
        <time>2023-09-30T10:07:11.000Z</time>
      </trkpt>
      <trkpt lat="45.84797" lon="4.68136">
        <ele>263.17474</ele>
        <time>2023-09-30T10:07:12.000Z</time>
      </trkpt>
      <trkpt lat="45.84793" lon="4.68132">
        <ele>263.89871</ele>
        <time>2023-09-30T10:07:13.000Z</time>
      </trkpt>
      <trkpt lat="45.84789" lon="4.68129">
        <ele>264.16483</ele>
        <time>2023-09-30T10:07:14.000Z</time>
      </trkpt>
      <trkpt lat="45.84786" lon="4.68126">
        <ele>265.81647</ele>
        <time>2023-09-30T10:07:15.000Z</time>
      </trkpt>
      <trkpt lat="45.84782" lon="4.68123">
        <ele>267.24829</ele>
        <time>2023-09-30T10:07:16.000Z</time>
      </trkpt>
      <trkpt lat="45.84779" lon="4.68122">
        <ele>268.6329</ele>
        <time>2023-09-30T10:07:17.000Z</time>
      </trkpt>
      <trkpt lat="45.84776" lon="4.68121">
        <ele>269.98026</ele>
        <time>2023-09-30T10:07:18.000Z</time>
      </trkpt>
      <trkpt lat="45.84773" lon="4.68126">
        <ele>271.31653</ele>
        <time>2023-09-30T10:07:19.000Z</time>
      </trkpt>
      <trkpt lat="45.84771" lon="4.6813">
        <ele>271.48651</ele>
        <time>2023-09-30T10:07:20.000Z</time>
      </trkpt>
      <trkpt lat="45.84768" lon="4.68134">
        <ele>271.6333</ele>
        <time>2023-09-30T10:07:21.000Z</time>
      </trkpt>
      <trkpt lat="45.84766" lon="4.68138">
        <ele>271.75894</ele>
        <time>2023-09-30T10:07:22.000Z</time>
      </trkpt>
      <trkpt lat="45.84763" lon="4.68143">
        <ele>271.8793</ele>
        <time>2023-09-30T10:07:23.000Z</time>
      </trkpt>
      <trkpt lat="45.84761" lon="4.68148">
        <ele>272.04095</ele>
        <time>2023-09-30T10:07:24.000Z</time>
      </trkpt>
      <trkpt lat="45.84758" lon="4.68152">
        <ele>272.19049</ele>
        <time>2023-09-30T10:07:25.000Z</time>
      </trkpt>
      <trkpt lat="45.84756" lon="4.68156">
        <ele>272.32867</ele>
        <time>2023-09-30T10:07:26.000Z</time>
      </trkpt>
      <trkpt lat="45.84753" lon="4.68161">
        <ele>272.40875</ele>
        <time>2023-09-30T10:07:27.000Z</time>
      </trkpt>
      <trkpt lat="45.84751" lon="4.68164">
        <ele>272.49695</ele>
        <time>2023-09-30T10:07:28.000Z</time>
      </trkpt>
      <trkpt lat="45.84747" lon="4.6817">
        <ele>272.56589</ele>
        <time>2023-09-30T10:07:29.000Z</time>
      </trkpt>
      <trkpt lat="45.84745" lon="4.68175">
        <ele>272.58234</ele>
        <time>2023-09-30T10:07:30.000Z</time>
      </trkpt>
      <trkpt lat="45.84742" lon="4.68181">
        <ele>272.31863</ele>
        <time>2023-09-30T10:07:31.000Z</time>
      </trkpt>
      <trkpt lat="45.84739" lon="4.68187">
        <ele>272.00662</ele>
        <time>2023-09-30T10:07:32.000Z</time>
      </trkpt>
      <trkpt lat="45.84735" lon="4.68192">
        <ele>271.56592</ele>
        <time>2023-09-30T10:07:33.000Z</time>
      </trkpt>
      <trkpt lat="45.84732" lon="4.68199">
        <ele>271.55768</ele>
        <time>2023-09-30T10:07:34.000Z</time>
      </trkpt>
      <trkpt lat="45.8473" lon="4.68206">
        <ele>271.50641</ele>
        <time>2023-09-30T10:07:35.000Z</time>
      </trkpt>
      <trkpt lat="45.84728" lon="4.68214">
        <ele>271.43646</ele>
        <time>2023-09-30T10:07:36.000Z</time>
      </trkpt>
      <trkpt lat="45.84727" lon="4.68221">
        <ele>271.3891</ele>
        <time>2023-09-30T10:07:37.000Z</time>
      </trkpt>
      <trkpt lat="45.84729" lon="4.6823">
        <ele>271.39648</ele>
        <time>2023-09-30T10:07:38.000Z</time>
      </trkpt>
      <trkpt lat="45.8473" lon="4.68239">
        <ele>269.97418</ele>
        <time>2023-09-30T10:07:39.000Z</time>
      </trkpt>
      <trkpt lat="45.84733" lon="4.68247">
        <ele>268.44818</ele>
        <time>2023-09-30T10:07:40.000Z</time>
      </trkpt>
      <trkpt lat="45.84736" lon="4.68256">
        <ele>266.9238</ele>
        <time>2023-09-30T10:07:41.000Z</time>
      </trkpt>
      <trkpt lat="45.84739" lon="4.68264">
        <ele>265.69052</ele>
        <time>2023-09-30T10:07:42.000Z</time>
      </trkpt>
      <trkpt lat="45.84742" lon="4.68273">
        <ele>264.3989</ele>
        <time>2023-09-30T10:07:43.000Z</time>
      </trkpt>
      <trkpt lat="45.84745" lon="4.68281">
        <ele>263.07324</ele>
        <time>2023-09-30T10:07:44.000Z</time>
      </trkpt>
      <trkpt lat="45.84748" lon="4.68287">
        <ele>261.69806</ele>
        <time>2023-09-30T10:07:45.000Z</time>
      </trkpt>
      <trkpt lat="45.84752" lon="4.68295">
        <ele>261.4747</ele>
        <time>2023-09-30T10:07:46.000Z</time>
      </trkpt>
      <trkpt lat="45.84754" lon="4.68303">
        <ele>261.2688</ele>
        <time>2023-09-30T10:07:47.000Z</time>
      </trkpt>
      <trkpt lat="45.84757" lon="4.68311">
        <ele>261.04678</ele>
        <time>2023-09-30T10:07:48.000Z</time>
      </trkpt>
      <trkpt lat="45.84761" lon="4.68318">
        <ele>260.82098</ele>
        <time>2023-09-30T10:07:49.000Z</time>
      </trkpt>
      <trkpt lat="45.84765" lon="4.68325">
        <ele>260.61066</ele>
        <time>2023-09-30T10:07:50.000Z</time>
      </trkpt>
      <trkpt lat="45.8477" lon="4.68332">
        <ele>260.36072</ele>
        <time>2023-09-30T10:07:51.000Z</time>
      </trkpt>
      <trkpt lat="45.84774" lon="4.68339">
        <ele>260.13086</ele>
        <time>2023-09-30T10:07:52.000Z</time>
      </trkpt>
      <trkpt lat="45.8478" lon="4.68346">
        <ele>259.85443</ele>
        <time>2023-09-30T10:07:53.000Z</time>
      </trkpt>
      <trkpt lat="45.84786" lon="4.68354">
        <ele>259.56235</ele>
        <time>2023-09-30T10:07:54.000Z</time>
      </trkpt>
      <trkpt lat="45.84792" lon="4.68361">
        <ele>259.21231</ele>
        <time>2023-09-30T10:07:55.000Z</time>
      </trkpt>
      <trkpt lat="45.84798" lon="4.6837">
        <ele>257.64453</ele>
        <time>2023-09-30T10:07:56.000Z</time>
      </trkpt>
      <trkpt lat="45.84803" lon="4.68381">
        <ele>256.05844</ele>
        <time>2023-09-30T10:07:57.000Z</time>
      </trkpt>
      <trkpt lat="45.84808" lon="4.68391">
        <ele>254.37512</ele>
        <time>2023-09-30T10:07:58.000Z</time>
      </trkpt>
      <trkpt lat="45.84814" lon="4.68401">
        <ele>254.05025</ele>
        <time>2023-09-30T10:07:59.000Z</time>
      </trkpt>
      <trkpt lat="45.84818" lon="4.68412">
        <ele>253.77043</ele>
        <time>2023-09-30T10:08:00.000Z</time>
      </trkpt>
      <trkpt lat="45.84822" lon="4.68425">
        <ele>253.46269</ele>
        <time>2023-09-30T10:08:01.000Z</time>
      </trkpt>
      <trkpt lat="45.84827" lon="4.68438">
        <ele>252.86511</ele>
        <time>2023-09-30T10:08:02.000Z</time>
      </trkpt>
      <trkpt lat="45.84833" lon="4.68451">
        <ele>252.31052</ele>
        <time>2023-09-30T10:08:03.000Z</time>
      </trkpt>
      <trkpt lat="45.84839" lon="4.68464">
        <ele>251.70667</ele>
        <time>2023-09-30T10:08:04.000Z</time>
      </trkpt>
      <trkpt lat="45.84847" lon="4.68477">
        <ele>251.09592</ele>
        <time>2023-09-30T10:08:05.000Z</time>
      </trkpt>
      <trkpt lat="45.84854" lon="4.68489">
        <ele>249.25745</ele>
        <time>2023-09-30T10:08:06.000Z</time>
      </trkpt>
      <trkpt lat="45.84862" lon="4.68501">
        <ele>247.37045</ele>
        <time>2023-09-30T10:08:07.000Z</time>
      </trkpt>
      <trkpt lat="45.84871" lon="4.68513">
        <ele>245.47244</ele>
        <time>2023-09-30T10:08:08.000Z</time>
      </trkpt>
      <trkpt lat="45.84879" lon="4.68525">
        <ele>243.47969</ele>
        <time>2023-09-30T10:08:09.000Z</time>
      </trkpt>
      <trkpt lat="45.84888" lon="4.68537">
        <ele>242.71326</ele>
        <time>2023-09-30T10:08:10.000Z</time>
      </trkpt>
      <trkpt lat="45.84897" lon="4.68548">
        <ele>241.9653</ele>
        <time>2023-09-30T10:08:11.000Z</time>
      </trkpt>
      <trkpt lat="45.84905" lon="4.68559">
        <ele>241.19548</ele>
        <time>2023-09-30T10:08:12.000Z</time>
      </trkpt>
      <trkpt lat="45.84913" lon="4.6857">
        <ele>240.48174</ele>
        <time>2023-09-30T10:08:13.000Z</time>
      </trkpt>
      <trkpt lat="45.84921" lon="4.6858">
        <ele>239.78763</ele>
        <time>2023-09-30T10:08:14.000Z</time>
      </trkpt>
      <trkpt lat="45.84929" lon="4.68589">
        <ele>239.11032</ele>
        <time>2023-09-30T10:08:15.000Z</time>
      </trkpt>
      <trkpt lat="45.84936" lon="4.68598">
        <ele>239.65747</ele>
        <time>2023-09-30T10:08:16.000Z</time>
      </trkpt>
      <trkpt lat="45.84943" lon="4.68608">
        <ele>240.18835</ele>
        <time>2023-09-30T10:08:17.000Z</time>
      </trkpt>
      <trkpt lat="45.8495" lon="4.68617">
        <ele>241.20792</ele>
        <time>2023-09-30T10:08:18.000Z</time>
      </trkpt>
      <trkpt lat="45.84956" lon="4.68626">
        <ele>242.40311</ele>
        <time>2023-09-30T10:08:19.000Z</time>
      </trkpt>
      <trkpt lat="45.84962" lon="4.68633">
        <ele>243.69852</ele>
        <time>2023-09-30T10:08:20.000Z</time>
      </trkpt>
      <trkpt lat="45.84967" lon="4.6864">
        <ele>244.29086</ele>
        <time>2023-09-30T10:08:21.000Z</time>
      </trkpt>
      <trkpt lat="45.84971" lon="4.68647">
        <ele>244.95938</ele>
        <time>2023-09-30T10:08:22.000Z</time>
      </trkpt>
      <trkpt lat="45.84974" lon="4.68651">
        <ele>245.63028</ele>
        <time>2023-09-30T10:08:23.000Z</time>
      </trkpt>
      <trkpt lat="45.84978" lon="4.68656">
        <ele>246.38016</ele>
        <time>2023-09-30T10:08:24.000Z</time>
      </trkpt>
      <trkpt lat="45.84981" lon="4.68659">
        <ele>247.13809</ele>
        <time>2023-09-30T10:08:25.000Z</time>
      </trkpt>
      <trkpt lat="45.84986" lon="4.68662">
        <ele>247.94479</ele>
        <time>2023-09-30T10:08:26.000Z</time>
      </trkpt>
      <trkpt lat="45.8499" lon="4.68663">
        <ele>248.74203</ele>
        <time>2023-09-30T10:08:27.000Z</time>
      </trkpt>
      <trkpt lat="45.84995" lon="4.68665">
        <ele>249.56516</ele>
        <time>2023-09-30T10:08:28.000Z</time>
      </trkpt>
      <trkpt lat="45.84999" lon="4.68666">
        <ele>250.49292</ele>
        <time>2023-09-30T10:08:29.000Z</time>
      </trkpt>
      <trkpt lat="45.85004" lon="4.68667">
        <ele>250.20773</ele>
        <time>2023-09-30T10:08:30.000Z</time>
      </trkpt>
      <trkpt lat="45.85009" lon="4.68667">
        <ele>250.26743</ele>
        <time>2023-09-30T10:08:31.000Z</time>
      </trkpt>
      <trkpt lat="45.85014" lon="4.68668">
        <ele>250.36116</ele>
        <time>2023-09-30T10:08:32.000Z</time>
      </trkpt>
      <trkpt lat="45.85018" lon="4.68668">
        <ele>250.68179</ele>
        <time>2023-09-30T10:08:33.000Z</time>
      </trkpt>
      <trkpt lat="45.85023" lon="4.68668">
        <ele>251.02486</ele>
        <time>2023-09-30T10:08:34.000Z</time>
      </trkpt>
      <trkpt lat="45.85026" lon="4.6867">
        <ele>250.66879</ele>
        <time>2023-09-30T10:08:35.000Z</time>
      </trkpt>
      <trkpt lat="45.8503" lon="4.68671">
        <ele>250.42351</ele>
        <time>2023-09-30T10:08:36.000Z</time>
      </trkpt>
      <trkpt lat="45.85034" lon="4.68672">
        <ele>250.22534</ele>
        <time>2023-09-30T10:08:37.000Z</time>
      </trkpt>
      <trkpt lat="45.85038" lon="4.68671">
        <ele>249.5751</ele>
        <time>2023-09-30T10:08:38.000Z</time>
      </trkpt>
      <trkpt lat="45.85041" lon="4.6867">
        <ele>248.80083</ele>
        <time>2023-09-30T10:08:39.000Z</time>
      </trkpt>
      <trkpt lat="45.85044" lon="4.68668">
        <ele>248.00247</ele>
        <time>2023-09-30T10:08:40.000Z</time>
      </trkpt>
      <trkpt lat="45.85046" lon="4.68667">
        <ele>247.92209</ele>
        <time>2023-09-30T10:08:41.000Z</time>
      </trkpt>
      <trkpt lat="45.8505" lon="4.68668">
        <ele>247.84077</ele>
        <time>2023-09-30T10:08:42.000Z</time>
      </trkpt>
      <trkpt lat="45.85053" lon="4.68669">
        <ele>247.76929</ele>
        <time>2023-09-30T10:08:43.000Z</time>
      </trkpt>
      <trkpt lat="45.85056" lon="4.6867">
        <ele>247.70337</ele>
        <time>2023-09-30T10:08:44.000Z</time>
      </trkpt>
      <trkpt lat="45.8506" lon="4.6867">
        <ele>247.65495</ele>
        <time>2023-09-30T10:08:45.000Z</time>
      </trkpt>
      <trkpt lat="45.85063" lon="4.6867">
        <ele>247.56253</ele>
        <time>2023-09-30T10:08:46.000Z</time>
      </trkpt>
      <trkpt lat="45.85066" lon="4.6867">
        <ele>247.87395</ele>
        <time>2023-09-30T10:08:47.000Z</time>
      </trkpt>
      <trkpt lat="45.8507" lon="4.6867">
        <ele>248.16171</ele>
        <time>2023-09-30T10:08:48.000Z</time>
      </trkpt>
      <trkpt lat="45.85073" lon="4.6867">
        <ele>248.68262</ele>
        <time>2023-09-30T10:08:49.000Z</time>
      </trkpt>
      <trkpt lat="45.85077" lon="4.68671">
        <ele>248.44852</ele>
        <time>2023-09-30T10:08:50.000Z</time>
      </trkpt>
      <trkpt lat="45.85081" lon="4.68671">
        <ele>247.99797</ele>
        <time>2023-09-30T10:08:51.000Z</time>
      </trkpt>
      <trkpt lat="45.85085" lon="4.68671">
        <ele>247.53682</ele>
        <time>2023-09-30T10:08:52.000Z</time>
      </trkpt>
      <trkpt lat="45.8509" lon="4.6867">
        <ele>246.87859</ele>
        <time>2023-09-30T10:08:53.000Z</time>
      </trkpt>
      <trkpt lat="45.85094" lon="4.68671">
        <ele>246.19925</ele>
        <time>2023-09-30T10:08:54.000Z</time>
      </trkpt>
      <trkpt lat="45.85099" lon="4.68671">
        <ele>246.22954</ele>
        <time>2023-09-30T10:08:55.000Z</time>
      </trkpt>
      <trkpt lat="45.85104" lon="4.68671">
        <ele>246.63896</ele>
        <time>2023-09-30T10:08:56.000Z</time>
      </trkpt>
      <trkpt lat="45.85108" lon="4.68671">
        <ele>247.02446</ele>
        <time>2023-09-30T10:08:57.000Z</time>
      </trkpt>
      <trkpt lat="45.85113" lon="4.68672">
        <ele>247.40495</ele>
        <time>2023-09-30T10:08:58.000Z</time>
      </trkpt>
      <trkpt lat="45.85118" lon="4.68672">
        <ele>247.76047</ele>
        <time>2023-09-30T10:08:59.000Z</time>
      </trkpt>
      <trkpt lat="45.85123" lon="4.68673">
        <ele>248.08044</ele>
        <time>2023-09-30T10:09:00.000Z</time>
      </trkpt>
      <trkpt lat="45.85128" lon="4.68673">
        <ele>248.63272</ele>
        <time>2023-09-30T10:09:01.000Z</time>
      </trkpt>
      <trkpt lat="45.85132" lon="4.68674">
        <ele>248.31949</ele>
        <time>2023-09-30T10:09:02.000Z</time>
      </trkpt>
      <trkpt lat="45.85137" lon="4.68674">
        <ele>248.05774</ele>
        <time>2023-09-30T10:09:03.000Z</time>
      </trkpt>
      <trkpt lat="45.85141" lon="4.68674">
        <ele>247.7981</ele>
        <time>2023-09-30T10:09:04.000Z</time>
      </trkpt>
      <trkpt lat="45.85146" lon="4.68674">
        <ele>247.52267</ele>
        <time>2023-09-30T10:09:05.000Z</time>
      </trkpt>
      <trkpt lat="45.85149" lon="4.68677">
        <ele>247.32498</ele>
        <time>2023-09-30T10:09:06.000Z</time>
      </trkpt>
      <trkpt lat="45.85151" lon="4.68681">
        <ele>246.80026</ele>
        <time>2023-09-30T10:09:07.000Z</time>
      </trkpt>
      <trkpt lat="45.85152" lon="4.68687">
        <ele>246.28581</ele>
        <time>2023-09-30T10:09:08.000Z</time>
      </trkpt>
      <trkpt lat="45.85151" lon="4.68693">
        <ele>245.5551</ele>
        <time>2023-09-30T10:09:09.000Z</time>
      </trkpt>
      <trkpt lat="45.8515" lon="4.68698">
        <ele>245.59702</ele>
        <time>2023-09-30T10:09:10.000Z</time>
      </trkpt>
      <trkpt lat="45.85149" lon="4.68704">
        <ele>245.48611</ele>
        <time>2023-09-30T10:09:11.000Z</time>
      </trkpt>
      <trkpt lat="45.85148" lon="4.6871">
        <ele>245.38196</ele>
        <time>2023-09-30T10:09:12.000Z</time>
      </trkpt>
      <trkpt lat="45.85147" lon="4.68715">
        <ele>245.2679</ele>
        <time>2023-09-30T10:09:13.000Z</time>
      </trkpt>
      <trkpt lat="45.85146" lon="4.6872">
        <ele>245.20586</ele>
        <time>2023-09-30T10:09:14.000Z</time>
      </trkpt>
      <trkpt lat="45.85146" lon="4.68725">
        <ele>245.17928</ele>
        <time>2023-09-30T10:09:15.000Z</time>
      </trkpt>
      <trkpt lat="45.85145" lon="4.6873">
        <ele>244.97249</ele>
        <time>2023-09-30T10:09:16.000Z</time>
      </trkpt>
      <trkpt lat="45.85142" lon="4.68734">
        <ele>245.05496</ele>
        <time>2023-09-30T10:09:17.000Z</time>
      </trkpt>
      <trkpt lat="45.8514" lon="4.68737">
        <ele>244.37076</ele>
        <time>2023-09-30T10:09:18.000Z</time>
      </trkpt>
      <trkpt lat="45.85138" lon="4.68741">
        <ele>243.84341</ele>
        <time>2023-09-30T10:09:19.000Z</time>
      </trkpt>
      <trkpt lat="45.85138" lon="4.68745">
        <ele>243.32088</ele>
        <time>2023-09-30T10:09:20.000Z</time>
      </trkpt>
      <trkpt lat="45.85141" lon="4.68747">
        <ele>242.60941</ele>
        <time>2023-09-30T10:09:21.000Z</time>
      </trkpt>
      <trkpt lat="45.85145" lon="4.68746">
        <ele>242.71152</ele>
        <time>2023-09-30T10:09:22.000Z</time>
      </trkpt>
      <trkpt lat="45.85147" lon="4.68743">
        <ele>242.77454</ele>
        <time>2023-09-30T10:09:23.000Z</time>
      </trkpt>
      <trkpt lat="45.85148" lon="4.68737">
        <ele>242.83562</ele>
        <time>2023-09-30T10:09:24.000Z</time>
      </trkpt>
      <trkpt lat="45.85148" lon="4.68731">
        <ele>243.4314</ele>
        <time>2023-09-30T10:09:25.000Z</time>
      </trkpt>
      <trkpt lat="45.85148" lon="4.68725">
        <ele>244.16605</ele>
        <time>2023-09-30T10:09:26.000Z</time>
      </trkpt>
      <trkpt lat="45.85148" lon="4.6872">
        <ele>244.85678</ele>
        <time>2023-09-30T10:09:27.000Z</time>
      </trkpt>
      <trkpt lat="45.8515" lon="4.68715">
        <ele>244.77454</ele>
        <time>2023-09-30T10:09:28.000Z</time>
      </trkpt>
      <trkpt lat="45.85152" lon="4.68711">
        <ele>244.80408</ele>
        <time>2023-09-30T10:09:29.000Z</time>
      </trkpt>
      <trkpt lat="45.85153" lon="4.68707">
        <ele>244.80313</ele>
        <time>2023-09-30T10:09:30.000Z</time>
      </trkpt>
      <trkpt lat="45.85153" lon="4.68702">
        <ele>244.84818</ele>
        <time>2023-09-30T10:09:31.000Z</time>
      </trkpt>
      <trkpt lat="45.85153" lon="4.68698">
        <ele>244.8833</ele>
        <time>2023-09-30T10:09:32.000Z</time>
      </trkpt>
      <trkpt lat="45.85153" lon="4.68693">
        <ele>244.91467</ele>
        <time>2023-09-30T10:09:33.000Z</time>
      </trkpt>
      <trkpt lat="45.85153" lon="4.68689">
        <ele>244.91653</ele>
        <time>2023-09-30T10:09:34.000Z</time>
      </trkpt>
      <trkpt lat="45.85153" lon="4.68685">
        <ele>244.89615</ele>
        <time>2023-09-30T10:09:35.000Z</time>
      </trkpt>
      <trkpt lat="45.85154" lon="4.68681">
        <ele>244.58061</ele>
        <time>2023-09-30T10:09:36.000Z</time>
      </trkpt>
      <trkpt lat="45.85155" lon="4.68676">
        <ele>243.99182</ele>
        <time>2023-09-30T10:09:37.000Z</time>
      </trkpt>
      <trkpt lat="45.85158" lon="4.68671">
        <ele>244.16243</ele>
        <time>2023-09-30T10:09:38.000Z</time>
      </trkpt>
      <trkpt lat="45.85161" lon="4.68668">
        <ele>244.18665</ele>
        <time>2023-09-30T10:09:39.000Z</time>
      </trkpt>
      <trkpt lat="45.85168" lon="4.68667">
        <ele>244.17708</ele>
        <time>2023-09-30T10:09:40.000Z</time>
      </trkpt>
      <trkpt lat="45.85172" lon="4.68665">
        <ele>244.16568</ele>
        <time>2023-09-30T10:09:41.000Z</time>
      </trkpt>
      <trkpt lat="45.85176" lon="4.68663">
        <ele>244.12332</ele>
        <time>2023-09-30T10:09:42.000Z</time>
      </trkpt>
      <trkpt lat="45.85181" lon="4.68662">
        <ele>244.07292</ele>
        <time>2023-09-30T10:09:43.000Z</time>
      </trkpt>
      <trkpt lat="45.85186" lon="4.68664">
        <ele>243.99203</ele>
        <time>2023-09-30T10:09:44.000Z</time>
      </trkpt>
      <trkpt lat="45.85189" lon="4.68667">
        <ele>243.39722</ele>
        <time>2023-09-30T10:09:45.000Z</time>
      </trkpt>
      <trkpt lat="45.85192" lon="4.68672">
        <ele>242.6667</ele>
        <time>2023-09-30T10:09:46.000Z</time>
      </trkpt>
      <trkpt lat="45.85193" lon="4.68678">
        <ele>241.96919</ele>
        <time>2023-09-30T10:09:47.000Z</time>
      </trkpt>
      <trkpt lat="45.85194" lon="4.68682">
        <ele>242.02664</ele>
        <time>2023-09-30T10:09:48.000Z</time>
      </trkpt>
      <trkpt lat="45.85195" lon="4.68687">
        <ele>242.02658</ele>
        <time>2023-09-30T10:09:49.000Z</time>
      </trkpt>
      <trkpt lat="45.85197" lon="4.68692">
        <ele>242.05029</ele>
        <time>2023-09-30T10:09:50.000Z</time>
      </trkpt>
      <trkpt lat="45.852" lon="4.68697">
        <ele>242.56296</ele>
        <time>2023-09-30T10:09:51.000Z</time>
      </trkpt>
      <trkpt lat="45.85203" lon="4.687">
        <ele>243.30258</ele>
        <time>2023-09-30T10:09:52.000Z</time>
      </trkpt>
      <trkpt lat="45.85207" lon="4.68702">
        <ele>243.20952</ele>
        <time>2023-09-30T10:09:53.000Z</time>
      </trkpt>
      <trkpt lat="45.85211" lon="4.68705">
        <ele>243.17685</ele>
        <time>2023-09-30T10:09:54.000Z</time>
      </trkpt>
      <trkpt lat="45.85216" lon="4.68706">
        <ele>243.12094</ele>
        <time>2023-09-30T10:09:55.000Z</time>
      </trkpt>
      <trkpt lat="45.85221" lon="4.68707">
        <ele>243.07622</ele>
        <time>2023-09-30T10:09:56.000Z</time>
      </trkpt>
      <trkpt lat="45.85226" lon="4.68705">
        <ele>243.04094</ele>
        <time>2023-09-30T10:09:57.000Z</time>
      </trkpt>
      <trkpt lat="45.85231" lon="4.68704">
        <ele>243.02779</ele>
        <time>2023-09-30T10:09:58.000Z</time>
      </trkpt>
      <trkpt lat="45.85237" lon="4.68703">
        <ele>242.94754</ele>
        <time>2023-09-30T10:09:59.000Z</time>
      </trkpt>
      <trkpt lat="45.85243" lon="4.68701">
        <ele>241.79419</ele>
        <time>2023-09-30T10:10:00.000Z</time>
      </trkpt>
      <trkpt lat="45.85249" lon="4.68698">
        <ele>240.58647</ele>
        <time>2023-09-30T10:10:01.000Z</time>
      </trkpt>
      <trkpt lat="45.85256" lon="4.68697">
        <ele>239.39616</ele>
        <time>2023-09-30T10:10:02.000Z</time>
      </trkpt>
      <trkpt lat="45.85262" lon="4.68694">
        <ele>238.20215</ele>
        <time>2023-09-30T10:10:03.000Z</time>
      </trkpt>
      <trkpt lat="45.85267" lon="4.68693">
        <ele>237.02397</ele>
        <time>2023-09-30T10:10:04.000Z</time>
      </trkpt>
      <trkpt lat="45.8527" lon="4.68692">
        <ele>235.84241</ele>
        <time>2023-09-30T10:10:05.000Z</time>
      </trkpt>
      <trkpt lat="45.85272" lon="4.68691">
        <ele>234.65547</ele>
        <time>2023-09-30T10:10:06.000Z</time>
      </trkpt>
      <trkpt lat="45.85274" lon="4.68692">
        <ele>233.45691</ele>
        <time>2023-09-30T10:10:07.000Z</time>
      </trkpt>
      <trkpt lat="45.85276" lon="4.68696">
        <ele>232.26535</ele>
        <time>2023-09-30T10:10:08.000Z</time>
      </trkpt>
      <trkpt lat="45.85277" lon="4.687">
        <ele>230.99272</ele>
        <time>2023-09-30T10:10:09.000Z</time>
      </trkpt>
      <trkpt lat="45.85279" lon="4.68706">
        <ele>229.71326</ele>
        <time>2023-09-30T10:10:10.000Z</time>
      </trkpt>
      <trkpt lat="45.8528" lon="4.68713">
        <ele>227.96082</ele>
        <time>2023-09-30T10:10:11.000Z</time>
      </trkpt>
      <trkpt lat="45.85281" lon="4.68719">
        <ele>225.89246</ele>
        <time>2023-09-30T10:10:12.000Z</time>
      </trkpt>
      <trkpt lat="45.85282" lon="4.68726">
        <ele>224.65767</ele>
        <time>2023-09-30T10:10:13.000Z</time>
      </trkpt>
      <trkpt lat="45.85281" lon="4.68733">
        <ele>223.34204</ele>
        <time>2023-09-30T10:10:14.000Z</time>
      </trkpt>
      <trkpt lat="45.85283" lon="4.6874">
        <ele>222.08415</ele>
        <time>2023-09-30T10:10:15.000Z</time>
      </trkpt>
      <trkpt lat="45.85286" lon="4.68747">
        <ele>220.77205</ele>
        <time>2023-09-30T10:10:16.000Z</time>
      </trkpt>
      <trkpt lat="45.85291" lon="4.68751">
        <ele>219.41672</ele>
        <time>2023-09-30T10:10:17.000Z</time>
      </trkpt>
      <trkpt lat="45.85297" lon="4.68754">
        <ele>218.02774</ele>
        <time>2023-09-30T10:10:18.000Z</time>
      </trkpt>
      <trkpt lat="45.85304" lon="4.68757">
        <ele>216.67693</ele>
        <time>2023-09-30T10:10:19.000Z</time>
      </trkpt>
      <trkpt lat="45.85311" lon="4.6876">
        <ele>216.41927</ele>
        <time>2023-09-30T10:10:20.000Z</time>
      </trkpt>
      <trkpt lat="45.8532" lon="4.68762">
        <ele>216.17618</ele>
        <time>2023-09-30T10:10:21.000Z</time>
      </trkpt>
      <trkpt lat="45.85327" lon="4.68763">
        <ele>215.94043</ele>
        <time>2023-09-30T10:10:22.000Z</time>
      </trkpt>
      <trkpt lat="45.85335" lon="4.68765">
        <ele>215.66817</ele>
        <time>2023-09-30T10:10:23.000Z</time>
      </trkpt>
      <trkpt lat="45.85343" lon="4.68766">
        <ele>215.42856</ele>
        <time>2023-09-30T10:10:24.000Z</time>
      </trkpt>
      <trkpt lat="45.85351" lon="4.68766">
        <ele>215.17143</ele>
        <time>2023-09-30T10:10:25.000Z</time>
      </trkpt>
      <trkpt lat="45.85359" lon="4.68767">
        <ele>214.90915</ele>
        <time>2023-09-30T10:10:26.000Z</time>
      </trkpt>
      <trkpt lat="45.85367" lon="4.68768">
        <ele>214.66782</ele>
        <time>2023-09-30T10:10:27.000Z</time>
      </trkpt>
      <trkpt lat="45.85376" lon="4.68768">
        <ele>214.42842</ele>
        <time>2023-09-30T10:10:28.000Z</time>
      </trkpt>
      <trkpt lat="45.85383" lon="4.68769">
        <ele>214.27718</ele>
        <time>2023-09-30T10:10:29.000Z</time>
      </trkpt>
      <trkpt lat="45.8539" lon="4.6877">
        <ele>213.9545</ele>
        <time>2023-09-30T10:10:30.000Z</time>
      </trkpt>
      <trkpt lat="45.85396" lon="4.6877">
        <ele>213.61333</ele>
        <time>2023-09-30T10:10:31.000Z</time>
      </trkpt>
      <trkpt lat="45.85402" lon="4.68772">
        <ele>213.38367</ele>
        <time>2023-09-30T10:10:32.000Z</time>
      </trkpt>
      <trkpt lat="45.85408" lon="4.68772">
        <ele>213.12729</ele>
        <time>2023-09-30T10:10:33.000Z</time>
      </trkpt>
      <trkpt lat="45.85412" lon="4.68775">
        <ele>212.85336</ele>
        <time>2023-09-30T10:10:34.000Z</time>
      </trkpt>
      <trkpt lat="45.85415" lon="4.68778">
        <ele>212.57088</ele>
        <time>2023-09-30T10:10:35.000Z</time>
      </trkpt>
      <trkpt lat="45.85414" lon="4.68784">
        <ele>212.35373</ele>
        <time>2023-09-30T10:10:36.000Z</time>
      </trkpt>
      <trkpt lat="45.85412" lon="4.68789">
        <ele>212.14717</ele>
        <time>2023-09-30T10:10:37.000Z</time>
      </trkpt>
      <trkpt lat="45.85411" lon="4.68794">
        <ele>211.96664</ele>
        <time>2023-09-30T10:10:38.000Z</time>
      </trkpt>
      <trkpt lat="45.8541" lon="4.688">
        <ele>211.80315</ele>
        <time>2023-09-30T10:10:39.000Z</time>
      </trkpt>
      <trkpt lat="45.85408" lon="4.68804">
        <ele>211.66809</ele>
        <time>2023-09-30T10:10:40.000Z</time>
      </trkpt>
      <trkpt lat="45.85407" lon="4.68809">
        <ele>211.53516</ele>
        <time>2023-09-30T10:10:41.000Z</time>
      </trkpt>
      <trkpt lat="45.85406" lon="4.68814">
        <ele>211.41968</ele>
        <time>2023-09-30T10:10:42.000Z</time>
      </trkpt>
      <trkpt lat="45.85404" lon="4.6882">
        <ele>211.4357</ele>
        <time>2023-09-30T10:10:43.000Z</time>
      </trkpt>
      <trkpt lat="45.85403" lon="4.68827">
        <ele>211.47343</ele>
        <time>2023-09-30T10:10:44.000Z</time>
      </trkpt>
      <trkpt lat="45.85402" lon="4.68832">
        <ele>211.35652</ele>
        <time>2023-09-30T10:10:45.000Z</time>
      </trkpt>
      <trkpt lat="45.85401" lon="4.68839">
        <ele>211.23853</ele>
        <time>2023-09-30T10:10:46.000Z</time>
      </trkpt>
      <trkpt lat="45.854" lon="4.68845">
        <ele>211.10757</ele>
        <time>2023-09-30T10:10:47.000Z</time>
      </trkpt>
      <trkpt lat="45.85399" lon="4.68851">
        <ele>210.9908</ele>
        <time>2023-09-30T10:10:48.000Z</time>
      </trkpt>
      <trkpt lat="45.85397" lon="4.68858">
        <ele>210.78256</ele>
        <time>2023-09-30T10:10:49.000Z</time>
      </trkpt>
      <trkpt lat="45.85396" lon="4.68864">
        <ele>210.75339</ele>
        <time>2023-09-30T10:10:50.000Z</time>
      </trkpt>
      <trkpt lat="45.85395" lon="4.6887">
        <ele>210.70007</ele>
        <time>2023-09-30T10:10:51.000Z</time>
      </trkpt>
      <trkpt lat="45.85393" lon="4.68876">
        <ele>210.65315</ele>
        <time>2023-09-30T10:10:52.000Z</time>
      </trkpt>
      <trkpt lat="45.85391" lon="4.68882">
        <ele>210.61841</ele>
        <time>2023-09-30T10:10:53.000Z</time>
      </trkpt>
      <trkpt lat="45.85389" lon="4.68887">
        <ele>210.6086</ele>
        <time>2023-09-30T10:10:54.000Z</time>
      </trkpt>
      <trkpt lat="45.85388" lon="4.68894">
        <ele>210.61015</ele>
        <time>2023-09-30T10:10:55.000Z</time>
      </trkpt>
      <trkpt lat="45.85387" lon="4.68899">
        <ele>210.56982</ele>
        <time>2023-09-30T10:10:56.000Z</time>
      </trkpt>
      <trkpt lat="45.85385" lon="4.68905">
        <ele>210.55692</ele>
        <time>2023-09-30T10:10:57.000Z</time>
      </trkpt>
      <trkpt lat="45.85383" lon="4.68911">
        <ele>210.54318</ele>
        <time>2023-09-30T10:10:58.000Z</time>
      </trkpt>
      <trkpt lat="45.85381" lon="4.68917">
        <ele>210.55173</ele>
        <time>2023-09-30T10:10:59.000Z</time>
      </trkpt>
      <trkpt lat="45.85379" lon="4.68923">
        <ele>210.54575</ele>
        <time>2023-09-30T10:11:00.000Z</time>
      </trkpt>
      <trkpt lat="45.85377" lon="4.68928">
        <ele>210.56271</ele>
        <time>2023-09-30T10:11:01.000Z</time>
      </trkpt>
      <trkpt lat="45.85374" lon="4.68934">
        <ele>210.58237</ele>
        <time>2023-09-30T10:11:02.000Z</time>
      </trkpt>
      <trkpt lat="45.85372" lon="4.6894">
        <ele>210.5126</ele>
        <time>2023-09-30T10:11:03.000Z</time>
      </trkpt>
      <trkpt lat="45.85369" lon="4.68946">
        <ele>210.36092</ele>
        <time>2023-09-30T10:11:04.000Z</time>
      </trkpt>
      <trkpt lat="45.85366" lon="4.68953">
        <ele>210.38374</ele>
        <time>2023-09-30T10:11:05.000Z</time>
      </trkpt>
      <trkpt lat="45.85365" lon="4.68958">
        <ele>210.38785</ele>
        <time>2023-09-30T10:11:06.000Z</time>
      </trkpt>
      <trkpt lat="45.85362" lon="4.68965">
        <ele>210.39204</ele>
        <time>2023-09-30T10:11:07.000Z</time>
      </trkpt>
      <trkpt lat="45.8536" lon="4.68971">
        <ele>210.37737</ele>
        <time>2023-09-30T10:11:08.000Z</time>
      </trkpt>
      <trkpt lat="45.85357" lon="4.68976">
        <ele>210.37532</ele>
        <time>2023-09-30T10:11:09.000Z</time>
      </trkpt>
      <trkpt lat="45.85355" lon="4.68981">
        <ele>210.37773</ele>
        <time>2023-09-30T10:11:10.000Z</time>
      </trkpt>
      <trkpt lat="45.85352" lon="4.68986">
        <ele>210.40015</ele>
        <time>2023-09-30T10:11:11.000Z</time>
      </trkpt>
      <trkpt lat="45.85349" lon="4.68992">
        <ele>210.41435</ele>
        <time>2023-09-30T10:11:12.000Z</time>
      </trkpt>
      <trkpt lat="45.85346" lon="4.68998">
        <ele>210.41048</ele>
        <time>2023-09-30T10:11:13.000Z</time>
      </trkpt>
      <trkpt lat="45.85344" lon="4.69004">
        <ele>210.46439</ele>
        <time>2023-09-30T10:11:14.000Z</time>
      </trkpt>
      <trkpt lat="45.85341" lon="4.69011">
        <ele>210.50253</ele>
        <time>2023-09-30T10:11:15.000Z</time>
      </trkpt>
      <trkpt lat="45.85338" lon="4.69016">
        <ele>210.55008</ele>
        <time>2023-09-30T10:11:16.000Z</time>
      </trkpt>
      <trkpt lat="45.85334" lon="4.69022">
        <ele>210.63174</ele>
        <time>2023-09-30T10:11:17.000Z</time>
      </trkpt>
      <trkpt lat="45.85332" lon="4.69028">
        <ele>210.70181</ele>
        <time>2023-09-30T10:11:18.000Z</time>
      </trkpt>
      <trkpt lat="45.85329" lon="4.69035">
        <ele>210.8206</ele>
        <time>2023-09-30T10:11:19.000Z</time>
      </trkpt>
      <trkpt lat="45.85325" lon="4.69041">
        <ele>210.92978</ele>
        <time>2023-09-30T10:11:20.000Z</time>
      </trkpt>
      <trkpt lat="45.85322" lon="4.69047">
        <ele>210.85027</ele>
        <time>2023-09-30T10:11:21.000Z</time>
      </trkpt>
      <trkpt lat="45.85319" lon="4.69053">
        <ele>210.7946</ele>
        <time>2023-09-30T10:11:22.000Z</time>
      </trkpt>
      <trkpt lat="45.85315" lon="4.69058">
        <ele>210.7177</ele>
        <time>2023-09-30T10:11:23.000Z</time>
      </trkpt>
      <trkpt lat="45.85312" lon="4.69064">
        <ele>210.68344</ele>
        <time>2023-09-30T10:11:24.000Z</time>
      </trkpt>
      <trkpt lat="45.85309" lon="4.6907">
        <ele>210.66724</ele>
        <time>2023-09-30T10:11:25.000Z</time>
      </trkpt>
      <trkpt lat="45.85306" lon="4.69075">
        <ele>210.6669</ele>
        <time>2023-09-30T10:11:26.000Z</time>
      </trkpt>
      <trkpt lat="45.85303" lon="4.69081">
        <ele>210.68173</ele>
        <time>2023-09-30T10:11:27.000Z</time>
      </trkpt>
      <trkpt lat="45.85299" lon="4.69086">
        <ele>210.72591</ele>
        <time>2023-09-30T10:11:28.000Z</time>
      </trkpt>
      <trkpt lat="45.85296" lon="4.69092">
        <ele>210.79097</ele>
        <time>2023-09-30T10:11:29.000Z</time>
      </trkpt>
      <trkpt lat="45.85293" lon="4.69097">
        <ele>210.85519</ele>
        <time>2023-09-30T10:11:30.000Z</time>
      </trkpt>
      <trkpt lat="45.8529" lon="4.69103">
        <ele>210.90913</ele>
        <time>2023-09-30T10:11:31.000Z</time>
      </trkpt>
      <trkpt lat="45.85286" lon="4.69108">
        <ele>210.94308</ele>
        <time>2023-09-30T10:11:32.000Z</time>
      </trkpt>
      <trkpt lat="45.85283" lon="4.69114">
        <ele>210.98604</ele>
        <time>2023-09-30T10:11:33.000Z</time>
      </trkpt>
      <trkpt lat="45.8528" lon="4.69119">
        <ele>210.95451</ele>
        <time>2023-09-30T10:11:34.000Z</time>
      </trkpt>
      <trkpt lat="45.85276" lon="4.69124">
        <ele>210.91753</ele>
        <time>2023-09-30T10:11:35.000Z</time>
      </trkpt>
      <trkpt lat="45.85272" lon="4.6913">
        <ele>210.84521</ele>
        <time>2023-09-30T10:11:36.000Z</time>
      </trkpt>
      <trkpt lat="45.85269" lon="4.69136">
        <ele>210.73825</ele>
        <time>2023-09-30T10:11:37.000Z</time>
      </trkpt>
      <trkpt lat="45.85266" lon="4.69142">
        <ele>210.64905</ele>
        <time>2023-09-30T10:11:38.000Z</time>
      </trkpt>
      <trkpt lat="45.85262" lon="4.69147">
        <ele>210.51404</ele>
        <time>2023-09-30T10:11:39.000Z</time>
      </trkpt>
      <trkpt lat="45.85258" lon="4.69153">
        <ele>210.3909</ele>
        <time>2023-09-30T10:11:40.000Z</time>
      </trkpt>
      <trkpt lat="45.85255" lon="4.69158">
        <ele>210.47488</ele>
        <time>2023-09-30T10:11:41.000Z</time>
      </trkpt>
      <trkpt lat="45.85251" lon="4.69162">
        <ele>210.53577</ele>
        <time>2023-09-30T10:11:42.000Z</time>
      </trkpt>
      <trkpt lat="45.85247" lon="4.69165">
        <ele>210.63277</ele>
        <time>2023-09-30T10:11:43.000Z</time>
      </trkpt>
      <trkpt lat="45.85243" lon="4.69169">
        <ele>210.69815</ele>
        <time>2023-09-30T10:11:44.000Z</time>
      </trkpt>
      <trkpt lat="45.85238" lon="4.69172">
        <ele>210.71976</ele>
        <time>2023-09-30T10:11:45.000Z</time>
      </trkpt>
      <trkpt lat="45.85233" lon="4.69175">
        <ele>210.71677</ele>
        <time>2023-09-30T10:11:46.000Z</time>
      </trkpt>
      <trkpt lat="45.85228" lon="4.69177">
        <ele>210.67941</ele>
        <time>2023-09-30T10:11:47.000Z</time>
      </trkpt>
      <trkpt lat="45.85223" lon="4.69178">
        <ele>210.6301</ele>
        <time>2023-09-30T10:11:48.000Z</time>
      </trkpt>
      <trkpt lat="45.85219" lon="4.6918">
        <ele>210.59477</ele>
        <time>2023-09-30T10:11:49.000Z</time>
      </trkpt>
      <trkpt lat="45.85214" lon="4.69181">
        <ele>210.56006</ele>
        <time>2023-09-30T10:11:50.000Z</time>
      </trkpt>
      <trkpt lat="45.85209" lon="4.69182">
        <ele>210.54301</ele>
        <time>2023-09-30T10:11:51.000Z</time>
      </trkpt>
      <trkpt lat="45.85204" lon="4.69184">
        <ele>210.55997</ele>
        <time>2023-09-30T10:11:52.000Z</time>
      </trkpt>
      <trkpt lat="45.85199" lon="4.69185">
        <ele>210.68323</ele>
        <time>2023-09-30T10:11:53.000Z</time>
      </trkpt>
      <trkpt lat="45.85194" lon="4.69188">
        <ele>210.88016</ele>
        <time>2023-09-30T10:11:54.000Z</time>
      </trkpt>
      <trkpt lat="45.85189" lon="4.6919">
        <ele>210.95792</ele>
        <time>2023-09-30T10:11:55.000Z</time>
      </trkpt>
      <trkpt lat="45.85184" lon="4.69191">
        <ele>211.08549</ele>
        <time>2023-09-30T10:11:56.000Z</time>
      </trkpt>
      <trkpt lat="45.8518" lon="4.69192">
        <ele>211.2269</ele>
        <time>2023-09-30T10:11:57.000Z</time>
      </trkpt>
      <trkpt lat="45.85177" lon="4.69193">
        <ele>211.38196</ele>
        <time>2023-09-30T10:11:58.000Z</time>
      </trkpt>
      <trkpt lat="45.85173" lon="4.69195">
        <ele>211.54553</ele>
        <time>2023-09-30T10:11:59.000Z</time>
      </trkpt>
      <trkpt lat="45.8517" lon="4.69197">
        <ele>211.70418</ele>
        <time>2023-09-30T10:12:00.000Z</time>
      </trkpt>
      <trkpt lat="45.85168" lon="4.69199">
        <ele>211.85941</ele>
        <time>2023-09-30T10:12:01.000Z</time>
      </trkpt>
      <trkpt lat="45.85165" lon="4.69202">
        <ele>212.01189</ele>
        <time>2023-09-30T10:12:02.000Z</time>
      </trkpt>
      <trkpt lat="45.85161" lon="4.69204">
        <ele>212.1445</ele>
        <time>2023-09-30T10:12:03.000Z</time>
      </trkpt>
      <trkpt lat="45.85158" lon="4.69206">
        <ele>212.32425</ele>
        <time>2023-09-30T10:12:04.000Z</time>
      </trkpt>
      <trkpt lat="45.85155" lon="4.69209">
        <ele>212.52963</ele>
        <time>2023-09-30T10:12:05.000Z</time>
      </trkpt>
      <trkpt lat="45.85152" lon="4.69213">
        <ele>212.76343</ele>
        <time>2023-09-30T10:12:06.000Z</time>
      </trkpt>
      <trkpt lat="45.85149" lon="4.69218">
        <ele>213.03586</ele>
        <time>2023-09-30T10:12:07.000Z</time>
      </trkpt>
      <trkpt lat="45.85147" lon="4.69222">
        <ele>213.31082</ele>
        <time>2023-09-30T10:12:08.000Z</time>
      </trkpt>
      <trkpt lat="45.85144" lon="4.69225">
        <ele>213.56241</ele>
        <time>2023-09-30T10:12:09.000Z</time>
      </trkpt>
      <trkpt lat="45.85141" lon="4.69229">
        <ele>213.84476</ele>
        <time>2023-09-30T10:12:10.000Z</time>
      </trkpt>
      <trkpt lat="45.85138" lon="4.69233">
        <ele>214.11674</ele>
        <time>2023-09-30T10:12:11.000Z</time>
      </trkpt>
      <trkpt lat="45.85136" lon="4.69237">
        <ele>214.3876</ele>
        <time>2023-09-30T10:12:12.000Z</time>
      </trkpt>
      <trkpt lat="45.85133" lon="4.69241">
        <ele>215.69905</ele>
        <time>2023-09-30T10:12:13.000Z</time>
      </trkpt>
      <trkpt lat="45.85131" lon="4.69246">
        <ele>216.9733</ele>
        <time>2023-09-30T10:12:14.000Z</time>
      </trkpt>
      <trkpt lat="45.85129" lon="4.69251">
        <ele>218.39864</ele>
        <time>2023-09-30T10:12:15.000Z</time>
      </trkpt>
      <trkpt lat="45.85127" lon="4.69256">
        <ele>219.80698</ele>
        <time>2023-09-30T10:12:16.000Z</time>
      </trkpt>
      <trkpt lat="45.85126" lon="4.69261">
        <ele>221.25163</ele>
        <time>2023-09-30T10:12:17.000Z</time>
      </trkpt>
      <trkpt lat="45.85124" lon="4.69265">
        <ele>222.65523</ele>
        <time>2023-09-30T10:12:18.000Z</time>
      </trkpt>
      <trkpt lat="45.85123" lon="4.6927">
        <ele>224.05608</ele>
        <time>2023-09-30T10:12:19.000Z</time>
      </trkpt>
      <trkpt lat="45.85121" lon="4.69275">
        <ele>225.4985</ele>
        <time>2023-09-30T10:12:20.000Z</time>
      </trkpt>
      <trkpt lat="45.85119" lon="4.6928">
        <ele>226.93246</ele>
        <time>2023-09-30T10:12:21.000Z</time>
      </trkpt>
      <trkpt lat="45.85117" lon="4.69285">
        <ele>228.38033</ele>
        <time>2023-09-30T10:12:22.000Z</time>
      </trkpt>
      <trkpt lat="45.85114" lon="4.6929">
        <ele>229.83272</ele>
        <time>2023-09-30T10:12:23.000Z</time>
      </trkpt>
      <trkpt lat="45.85111" lon="4.69295">
        <ele>231.24255</ele>
        <time>2023-09-30T10:12:24.000Z</time>
      </trkpt>
      <trkpt lat="45.85108" lon="4.69299">
        <ele>232.71091</ele>
        <time>2023-09-30T10:12:25.000Z</time>
      </trkpt>
      <trkpt lat="45.85105" lon="4.69302">
        <ele>234.15604</ele>
        <time>2023-09-30T10:12:26.000Z</time>
      </trkpt>
      <trkpt lat="45.85101" lon="4.69306">
        <ele>234.49399</ele>
        <time>2023-09-30T10:12:27.000Z</time>
      </trkpt>
      <trkpt lat="45.85097" lon="4.69309">
        <ele>234.80356</ele>
        <time>2023-09-30T10:12:28.000Z</time>
      </trkpt>
      <trkpt lat="45.85094" lon="4.69312">
        <ele>235.12312</ele>
        <time>2023-09-30T10:12:29.000Z</time>
      </trkpt>
      <trkpt lat="45.8509" lon="4.69315">
        <ele>235.42606</ele>
        <time>2023-09-30T10:12:30.000Z</time>
      </trkpt>
      <trkpt lat="45.85087" lon="4.69318">
        <ele>235.74731</ele>
        <time>2023-09-30T10:12:31.000Z</time>
      </trkpt>
      <trkpt lat="45.85083" lon="4.69322">
        <ele>236.05782</ele>
        <time>2023-09-30T10:12:32.000Z</time>
      </trkpt>
      <trkpt lat="45.8508" lon="4.69326">
        <ele>235.24924</ele>
        <time>2023-09-30T10:12:33.000Z</time>
      </trkpt>
      <trkpt lat="45.85076" lon="4.69329">
        <ele>234.4064</ele>
        <time>2023-09-30T10:12:34.000Z</time>
      </trkpt>
      <trkpt lat="45.85073" lon="4.69334">
        <ele>233.54741</ele>
        <time>2023-09-30T10:12:35.000Z</time>
      </trkpt>
      <trkpt lat="45.85069" lon="4.69337">
        <ele>232.68611</ele>
        <time>2023-09-30T10:12:36.000Z</time>
      </trkpt>
      <trkpt lat="45.85066" lon="4.69339">
        <ele>231.79878</ele>
        <time>2023-09-30T10:12:37.000Z</time>
      </trkpt>
      <trkpt lat="45.85062" lon="4.69342">
        <ele>230.95761</ele>
        <time>2023-09-30T10:12:38.000Z</time>
      </trkpt>
      <trkpt lat="45.85058" lon="4.69343">
        <ele>230.12305</ele>
        <time>2023-09-30T10:12:39.000Z</time>
      </trkpt>
      <trkpt lat="45.85053" lon="4.69346">
        <ele>229.25024</ele>
        <time>2023-09-30T10:12:40.000Z</time>
      </trkpt>
      <trkpt lat="45.85049" lon="4.69348">
        <ele>228.3848</ele>
        <time>2023-09-30T10:12:41.000Z</time>
      </trkpt>
      <trkpt lat="45.85045" lon="4.6935">
        <ele>227.5386</ele>
        <time>2023-09-30T10:12:42.000Z</time>
      </trkpt>
      <trkpt lat="45.85041" lon="4.69352">
        <ele>226.70784</ele>
        <time>2023-09-30T10:12:43.000Z</time>
      </trkpt>
      <trkpt lat="45.85037" lon="4.69352">
        <ele>225.89693</ele>
        <time>2023-09-30T10:12:44.000Z</time>
      </trkpt>
      <trkpt lat="45.85032" lon="4.69352">
        <ele>225.02286</ele>
        <time>2023-09-30T10:12:45.000Z</time>
      </trkpt>
      <trkpt lat="45.85028" lon="4.69354">
        <ele>224.15376</ele>
        <time>2023-09-30T10:12:46.000Z</time>
      </trkpt>
      <trkpt lat="45.85023" lon="4.69356">
        <ele>224.38835</ele>
        <time>2023-09-30T10:12:47.000Z</time>
      </trkpt>
      <trkpt lat="45.85019" lon="4.69357">
        <ele>224.6488</ele>
        <time>2023-09-30T10:12:48.000Z</time>
      </trkpt>
      <trkpt lat="45.85015" lon="4.69358">
        <ele>224.90671</ele>
        <time>2023-09-30T10:12:49.000Z</time>
      </trkpt>
      <trkpt lat="45.85011" lon="4.69359">
        <ele>225.14148</ele>
        <time>2023-09-30T10:12:50.000Z</time>
      </trkpt>
      <trkpt lat="45.85007" lon="4.69357">
        <ele>225.37053</ele>
        <time>2023-09-30T10:12:51.000Z</time>
      </trkpt>
      <trkpt lat="45.85002" lon="4.69357">
        <ele>225.56023</ele>
        <time>2023-09-30T10:12:52.000Z</time>
      </trkpt>
      <trkpt lat="45.84998" lon="4.6936">
        <ele>225.7251</ele>
        <time>2023-09-30T10:12:53.000Z</time>
      </trkpt>
      <trkpt lat="45.84996" lon="4.69364">
        <ele>225.8912</ele>
        <time>2023-09-30T10:12:54.000Z</time>
      </trkpt>
      <trkpt lat="45.84995" lon="4.6937">
        <ele>226.01672</ele>
        <time>2023-09-30T10:12:55.000Z</time>
      </trkpt>
      <trkpt lat="45.84993" lon="4.69376">
        <ele>226.13033</ele>
        <time>2023-09-30T10:12:56.000Z</time>
      </trkpt>
      <trkpt lat="45.84991" lon="4.69382">
        <ele>227.25504</ele>
        <time>2023-09-30T10:12:57.000Z</time>
      </trkpt>
      <trkpt lat="45.84989" lon="4.69387">
        <ele>228.51172</ele>
        <time>2023-09-30T10:12:58.000Z</time>
      </trkpt>
      <trkpt lat="45.84987" lon="4.69393">
        <ele>229.72359</ele>
        <time>2023-09-30T10:12:59.000Z</time>
      </trkpt>
      <trkpt lat="45.84985" lon="4.69399">
        <ele>230.93694</ele>
        <time>2023-09-30T10:13:00.000Z</time>
      </trkpt>
      <trkpt lat="45.84982" lon="4.69405">
        <ele>232.13895</ele>
        <time>2023-09-30T10:13:01.000Z</time>
      </trkpt>
      <trkpt lat="45.8498" lon="4.69411">
        <ele>233.32846</ele>
        <time>2023-09-30T10:13:02.000Z</time>
      </trkpt>
      <trkpt lat="45.84978" lon="4.69417">
        <ele>234.53401</ele>
        <time>2023-09-30T10:13:03.000Z</time>
      </trkpt>
      <trkpt lat="45.84974" lon="4.69423">
        <ele>235.74138</ele>
        <time>2023-09-30T10:13:04.000Z</time>
      </trkpt>
      <trkpt lat="45.84971" lon="4.69428">
        <ele>236.92978</ele>
        <time>2023-09-30T10:13:05.000Z</time>
      </trkpt>
      <trkpt lat="45.84968" lon="4.69434">
        <ele>238.40694</ele>
        <time>2023-09-30T10:13:06.000Z</time>
      </trkpt>
      <trkpt lat="45.84966" lon="4.6944">
        <ele>240.10901</ele>
        <time>2023-09-30T10:13:07.000Z</time>
      </trkpt>
      <trkpt lat="45.84964" lon="4.69447">
        <ele>241.15617</ele>
        <time>2023-09-30T10:13:08.000Z</time>
      </trkpt>
      <trkpt lat="45.84961" lon="4.69453">
        <ele>242.34549</ele>
        <time>2023-09-30T10:13:09.000Z</time>
      </trkpt>
      <trkpt lat="45.84958" lon="4.69459">
        <ele>243.52498</ele>
        <time>2023-09-30T10:13:10.000Z</time>
      </trkpt>
      <trkpt lat="45.84956" lon="4.69465">
        <ele>244.69043</ele>
        <time>2023-09-30T10:13:11.000Z</time>
      </trkpt>
      <trkpt lat="45.84953" lon="4.6947">
        <ele>245.90681</ele>
        <time>2023-09-30T10:13:12.000Z</time>
      </trkpt>
      <trkpt lat="45.8495" lon="4.69476">
        <ele>247.14812</ele>
        <time>2023-09-30T10:13:13.000Z</time>
      </trkpt>
      <trkpt lat="45.84948" lon="4.69482">
        <ele>248.41531</ele>
        <time>2023-09-30T10:13:14.000Z</time>
      </trkpt>
      <trkpt lat="45.84945" lon="4.69487">
        <ele>249.7684</ele>
        <time>2023-09-30T10:13:15.000Z</time>
      </trkpt>
      <trkpt lat="45.84942" lon="4.69493">
        <ele>251.07683</ele>
        <time>2023-09-30T10:13:16.000Z</time>
      </trkpt>
      <trkpt lat="45.8494" lon="4.695">
        <ele>251.37617</ele>
        <time>2023-09-30T10:13:17.000Z</time>
      </trkpt>
      <trkpt lat="45.84937" lon="4.69505">
        <ele>251.495</ele>
        <time>2023-09-30T10:13:18.000Z</time>
      </trkpt>
      <trkpt lat="45.84934" lon="4.69511">
        <ele>251.6748</ele>
        <time>2023-09-30T10:13:19.000Z</time>
      </trkpt>
      <trkpt lat="45.8493" lon="4.69518">
        <ele>251.81819</ele>
        <time>2023-09-30T10:13:20.000Z</time>
      </trkpt>
      <trkpt lat="45.84927" lon="4.69524">
        <ele>251.97717</ele>
        <time>2023-09-30T10:13:21.000Z</time>
      </trkpt>
      <trkpt lat="45.84923" lon="4.6953">
        <ele>252.10623</ele>
        <time>2023-09-30T10:13:22.000Z</time>
      </trkpt>
      <trkpt lat="45.8492" lon="4.69536">
        <ele>252.23282</ele>
        <time>2023-09-30T10:13:23.000Z</time>
      </trkpt>
      <trkpt lat="45.84917" lon="4.69541">
        <ele>252.31955</ele>
        <time>2023-09-30T10:13:24.000Z</time>
      </trkpt>
      <trkpt lat="45.84913" lon="4.69546">
        <ele>252.46085</ele>
        <time>2023-09-30T10:13:25.000Z</time>
      </trkpt>
      <trkpt lat="45.84909" lon="4.69552">
        <ele>252.36247</ele>
        <time>2023-09-30T10:13:26.000Z</time>
      </trkpt>
      <trkpt lat="45.84904" lon="4.69557">
        <ele>251.99959</ele>
        <time>2023-09-30T10:13:27.000Z</time>
      </trkpt>
      <trkpt lat="45.84901" lon="4.69562">
        <ele>252.30347</ele>
        <time>2023-09-30T10:13:28.000Z</time>
      </trkpt>
      <trkpt lat="45.84896" lon="4.69566">
        <ele>252.42204</ele>
        <time>2023-09-30T10:13:29.000Z</time>
      </trkpt>
      <trkpt lat="45.84892" lon="4.69571">
        <ele>252.58159</ele>
        <time>2023-09-30T10:13:30.000Z</time>
      </trkpt>
      <trkpt lat="45.84888" lon="4.69575">
        <ele>252.76407</ele>
        <time>2023-09-30T10:13:31.000Z</time>
      </trkpt>
      <trkpt lat="45.84884" lon="4.69579">
        <ele>252.93047</ele>
        <time>2023-09-30T10:13:32.000Z</time>
      </trkpt>
      <trkpt lat="45.8488" lon="4.69583">
        <ele>253.10002</ele>
        <time>2023-09-30T10:13:33.000Z</time>
      </trkpt>
      <trkpt lat="45.84875" lon="4.69586">
        <ele>253.21053</ele>
        <time>2023-09-30T10:13:34.000Z</time>
      </trkpt>
      <trkpt lat="45.8487" lon="4.69587">
        <ele>253.27701</ele>
        <time>2023-09-30T10:13:35.000Z</time>
      </trkpt>
      <trkpt lat="45.84865" lon="4.69588">
        <ele>253.39963</ele>
        <time>2023-09-30T10:13:36.000Z</time>
      </trkpt>
      <trkpt lat="45.84861" lon="4.69585">
        <ele>252.43181</ele>
        <time>2023-09-30T10:13:37.000Z</time>
      </trkpt>
      <trkpt lat="45.84857" lon="4.69582">
        <ele>251.48775</ele>
        <time>2023-09-30T10:13:38.000Z</time>
      </trkpt>
      <trkpt lat="45.84853" lon="4.69581">
        <ele>250.52437</ele>
        <time>2023-09-30T10:13:39.000Z</time>
      </trkpt>
      <trkpt lat="45.8485" lon="4.69579">
        <ele>249.60526</ele>
        <time>2023-09-30T10:13:40.000Z</time>
      </trkpt>
      <trkpt lat="45.84846" lon="4.69579">
        <ele>248.68405</ele>
        <time>2023-09-30T10:13:41.000Z</time>
      </trkpt>
      <trkpt lat="45.84843" lon="4.69576">
        <ele>247.77617</ele>
        <time>2023-09-30T10:13:42.000Z</time>
      </trkpt>
      <trkpt lat="45.8484" lon="4.69574">
        <ele>246.76828</ele>
        <time>2023-09-30T10:13:43.000Z</time>
      </trkpt>
      <trkpt lat="45.84835" lon="4.69572">
        <ele>245.77129</ele>
        <time>2023-09-30T10:13:44.000Z</time>
      </trkpt>
      <trkpt lat="45.84832" lon="4.69568">
        <ele>244.78809</ele>
        <time>2023-09-30T10:13:45.000Z</time>
      </trkpt>
      <trkpt lat="45.84828" lon="4.69565">
        <ele>243.79996</ele>
        <time>2023-09-30T10:13:46.000Z</time>
      </trkpt>
      <trkpt lat="45.84825" lon="4.69561">
        <ele>242.85979</ele>
        <time>2023-09-30T10:13:47.000Z</time>
      </trkpt>
      <trkpt lat="45.84821" lon="4.69558">
        <ele>241.89066</ele>
        <time>2023-09-30T10:13:48.000Z</time>
      </trkpt>
      <trkpt lat="45.84818" lon="4.69555">
        <ele>240.97928</ele>
        <time>2023-09-30T10:13:49.000Z</time>
      </trkpt>
      <trkpt lat="45.84815" lon="4.69551">
        <ele>240.0463</ele>
        <time>2023-09-30T10:13:50.000Z</time>
      </trkpt>
      <trkpt lat="45.84811" lon="4.69548">
        <ele>239.08823</ele>
        <time>2023-09-30T10:13:51.000Z</time>
      </trkpt>
      <trkpt lat="45.84808" lon="4.69544">
        <ele>238.13033</ele>
        <time>2023-09-30T10:13:52.000Z</time>
      </trkpt>
      <trkpt lat="45.84806" lon="4.69541">
        <ele>237.175</ele>
        <time>2023-09-30T10:13:53.000Z</time>
      </trkpt>
      <trkpt lat="45.84803" lon="4.69537">
        <ele>236.23703</ele>
        <time>2023-09-30T10:13:54.000Z</time>
      </trkpt>
      <trkpt lat="45.848" lon="4.69533">
        <ele>235.28069</ele>
        <time>2023-09-30T10:13:55.000Z</time>
      </trkpt>
      <trkpt lat="45.84797" lon="4.69529">
        <ele>234.35022</ele>
        <time>2023-09-30T10:13:56.000Z</time>
      </trkpt>
      <trkpt lat="45.84794" lon="4.69525">
        <ele>234.51204</ele>
        <time>2023-09-30T10:13:57.000Z</time>
      </trkpt>
      <trkpt lat="45.84791" lon="4.6952">
        <ele>234.61548</ele>
        <time>2023-09-30T10:13:58.000Z</time>
      </trkpt>
      <trkpt lat="45.84788" lon="4.69516">
        <ele>234.6929</ele>
        <time>2023-09-30T10:13:59.000Z</time>
      </trkpt>
      <trkpt lat="45.84784" lon="4.69512">
        <ele>234.9738</ele>
        <time>2023-09-30T10:14:00.000Z</time>
      </trkpt>
      <trkpt lat="45.84781" lon="4.69507">
        <ele>235.25061</ele>
        <time>2023-09-30T10:14:01.000Z</time>
      </trkpt>
      <trkpt lat="45.84778" lon="4.69503">
        <ele>235.55147</ele>
        <time>2023-09-30T10:14:02.000Z</time>
      </trkpt>
      <trkpt lat="45.84775" lon="4.69499">
        <ele>235.90396</ele>
        <time>2023-09-30T10:14:03.000Z</time>
      </trkpt>
      <trkpt lat="45.84773" lon="4.69496">
        <ele>236.28345</ele>
        <time>2023-09-30T10:14:04.000Z</time>
      </trkpt>
      <trkpt lat="45.84771" lon="4.69493">
        <ele>236.65251</ele>
        <time>2023-09-30T10:14:05.000Z</time>
      </trkpt>
      <trkpt lat="45.84769" lon="4.6949">
        <ele>237.01591</ele>
        <time>2023-09-30T10:14:06.000Z</time>
      </trkpt>
      <trkpt lat="45.84766" lon="4.69486">
        <ele>237.37979</ele>
        <time>2023-09-30T10:14:07.000Z</time>
      </trkpt>
      <trkpt lat="45.84763" lon="4.69483">
        <ele>237.77116</ele>
        <time>2023-09-30T10:14:08.000Z</time>
      </trkpt>
      <trkpt lat="45.8476" lon="4.69479">
        <ele>238.11153</ele>
        <time>2023-09-30T10:14:09.000Z</time>
      </trkpt>
      <trkpt lat="45.84757" lon="4.69476">
        <ele>238.37529</ele>
        <time>2023-09-30T10:14:10.000Z</time>
      </trkpt>
      <trkpt lat="45.84754" lon="4.69473">
        <ele>238.64212</ele>
        <time>2023-09-30T10:14:11.000Z</time>
      </trkpt>
      <trkpt lat="45.84751" lon="4.69469">
        <ele>238.90543</ele>
        <time>2023-09-30T10:14:12.000Z</time>
      </trkpt>
      <trkpt lat="45.84748" lon="4.69466">
        <ele>239.17007</ele>
        <time>2023-09-30T10:14:13.000Z</time>
      </trkpt>
      <trkpt lat="45.84745" lon="4.69462">
        <ele>239.39702</ele>
        <time>2023-09-30T10:14:14.000Z</time>
      </trkpt>
      <trkpt lat="45.84743" lon="4.69458">
        <ele>239.87849</ele>
        <time>2023-09-30T10:14:15.000Z</time>
      </trkpt>
      <trkpt lat="45.8474" lon="4.69454">
        <ele>240.27995</ele>
        <time>2023-09-30T10:14:16.000Z</time>
      </trkpt>
      <trkpt lat="45.84737" lon="4.6945">
        <ele>240.66037</ele>
        <time>2023-09-30T10:14:17.000Z</time>
      </trkpt>
      <trkpt lat="45.84735" lon="4.69446">
        <ele>241.13766</ele>
        <time>2023-09-30T10:14:18.000Z</time>
      </trkpt>
      <trkpt lat="45.84732" lon="4.69442">
        <ele>241.64243</ele>
        <time>2023-09-30T10:14:19.000Z</time>
      </trkpt>
      <trkpt lat="45.8473" lon="4.69438">
        <ele>241.95695</ele>
        <time>2023-09-30T10:14:20.000Z</time>
      </trkpt>
      <trkpt lat="45.84727" lon="4.69435">
        <ele>242.27554</ele>
        <time>2023-09-30T10:14:21.000Z</time>
      </trkpt>
      <trkpt lat="45.84724" lon="4.69431">
        <ele>242.54903</ele>
        <time>2023-09-30T10:14:22.000Z</time>
      </trkpt>
      <trkpt lat="45.84721" lon="4.69427">
        <ele>242.84148</ele>
        <time>2023-09-30T10:14:23.000Z</time>
      </trkpt>
      <trkpt lat="45.84719" lon="4.69423">
        <ele>243.13071</ele>
        <time>2023-09-30T10:14:24.000Z</time>
      </trkpt>
      <trkpt lat="45.84716" lon="4.6942">
        <ele>243.39426</ele>
        <time>2023-09-30T10:14:25.000Z</time>
      </trkpt>
      <trkpt lat="45.84713" lon="4.69416">
        <ele>243.65437</ele>
        <time>2023-09-30T10:14:26.000Z</time>
      </trkpt>
      <trkpt lat="45.8471" lon="4.69413">
        <ele>243.9053</ele>
        <time>2023-09-30T10:14:27.000Z</time>
      </trkpt>
      <trkpt lat="45.84707" lon="4.69411">
        <ele>244.15341</ele>
        <time>2023-09-30T10:14:28.000Z</time>
      </trkpt>
      <trkpt lat="45.84704" lon="4.69408">
        <ele>244.39014</ele>
        <time>2023-09-30T10:14:29.000Z</time>
      </trkpt>
      <trkpt lat="45.847" lon="4.69405">
        <ele>246.02324</ele>
        <time>2023-09-30T10:14:30.000Z</time>
      </trkpt>
      <trkpt lat="45.84697" lon="4.69402">
        <ele>247.63083</ele>
        <time>2023-09-30T10:14:31.000Z</time>
      </trkpt>
      <trkpt lat="45.84694" lon="4.69399">
        <ele>249.26196</ele>
        <time>2023-09-30T10:14:32.000Z</time>
      </trkpt>
      <trkpt lat="45.8469" lon="4.69395">
        <ele>250.91635</ele>
        <time>2023-09-30T10:14:33.000Z</time>
      </trkpt>
      <trkpt lat="45.84687" lon="4.69392">
        <ele>252.66216</ele>
        <time>2023-09-30T10:14:34.000Z</time>
      </trkpt>
      <trkpt lat="45.84683" lon="4.69389">
        <ele>254.16031</ele>
        <time>2023-09-30T10:14:35.000Z</time>
      </trkpt>
      <trkpt lat="45.84679" lon="4.69387">
        <ele>255.67725</ele>
        <time>2023-09-30T10:14:36.000Z</time>
      </trkpt>
      <trkpt lat="45.84675" lon="4.69385">
        <ele>257.1918</ele>
        <time>2023-09-30T10:14:37.000Z</time>
      </trkpt>
      <trkpt lat="45.84671" lon="4.69382">
        <ele>258.64136</ele>
        <time>2023-09-30T10:14:38.000Z</time>
      </trkpt>
      <trkpt lat="45.84667" lon="4.6938">
        <ele>260.24942</ele>
        <time>2023-09-30T10:14:39.000Z</time>
      </trkpt>
      <trkpt lat="45.84664" lon="4.69378">
        <ele>261.43567</ele>
        <time>2023-09-30T10:14:40.000Z</time>
      </trkpt>
      <trkpt lat="45.84661" lon="4.69376">
        <ele>262.66968</ele>
        <time>2023-09-30T10:14:41.000Z</time>
      </trkpt>
      <trkpt lat="45.84657" lon="4.69374">
        <ele>263.94098</ele>
        <time>2023-09-30T10:14:42.000Z</time>
      </trkpt>
      <trkpt lat="45.84654" lon="4.69372">
        <ele>265.21759</ele>
        <time>2023-09-30T10:14:43.000Z</time>
      </trkpt>
      <trkpt lat="45.84652" lon="4.6937">
        <ele>266.54745</ele>
        <time>2023-09-30T10:14:44.000Z</time>
      </trkpt>
      <trkpt lat="45.84649" lon="4.69368">
        <ele>267.86472</ele>
        <time>2023-09-30T10:14:45.000Z</time>
      </trkpt>
      <trkpt lat="45.84648" lon="4.69367">
        <ele>269.16718</ele>
        <time>2023-09-30T10:14:46.000Z</time>
      </trkpt>
      <trkpt lat="45.84645" lon="4.69365">
        <ele>270.50259</ele>
        <time>2023-09-30T10:14:47.000Z</time>
      </trkpt>
      <trkpt lat="45.84643" lon="4.69364">
        <ele>271.78238</ele>
        <time>2023-09-30T10:14:48.000Z</time>
      </trkpt>
      <trkpt lat="45.8464" lon="4.69363">
        <ele>273.08105</ele>
        <time>2023-09-30T10:14:49.000Z</time>
      </trkpt>
      <trkpt lat="45.84638" lon="4.69362">
        <ele>273.1037</ele>
        <time>2023-09-30T10:14:50.000Z</time>
      </trkpt>
      <trkpt lat="45.84634" lon="4.69362">
        <ele>273.09384</ele>
        <time>2023-09-30T10:14:51.000Z</time>
      </trkpt>
      <trkpt lat="45.8463" lon="4.69363">
        <ele>273.05045</ele>
        <time>2023-09-30T10:14:52.000Z</time>
      </trkpt>
      <trkpt lat="45.84626" lon="4.69365">
        <ele>272.98456</ele>
        <time>2023-09-30T10:14:53.000Z</time>
      </trkpt>
      <trkpt lat="45.84622" lon="4.69368">
        <ele>272.89508</ele>
        <time>2023-09-30T10:14:54.000Z</time>
      </trkpt>
      <trkpt lat="45.8462" lon="4.69371">
        <ele>272.78732</ele>
        <time>2023-09-30T10:14:55.000Z</time>
      </trkpt>
      <trkpt lat="45.84617" lon="4.69375">
        <ele>272.69366</ele>
        <time>2023-09-30T10:14:56.000Z</time>
      </trkpt>
      <trkpt lat="45.84615" lon="4.69378">
        <ele>272.81503</ele>
        <time>2023-09-30T10:14:57.000Z</time>
      </trkpt>
      <trkpt lat="45.84612" lon="4.69381">
        <ele>273.12625</ele>
        <time>2023-09-30T10:14:58.000Z</time>
      </trkpt>
      <trkpt lat="45.84608" lon="4.69385">
        <ele>273.35062</ele>
        <time>2023-09-30T10:14:59.000Z</time>
      </trkpt>
      <trkpt lat="45.84605" lon="4.69387">
        <ele>273.53323</ele>
        <time>2023-09-30T10:15:00.000Z</time>
      </trkpt>
      <trkpt lat="45.84602" lon="4.6939">
        <ele>273.75067</ele>
        <time>2023-09-30T10:15:01.000Z</time>
      </trkpt>
      <trkpt lat="45.84599" lon="4.69394">
        <ele>273.94223</ele>
        <time>2023-09-30T10:15:02.000Z</time>
      </trkpt>
      <trkpt lat="45.84596" lon="4.69398">
        <ele>274.15527</ele>
        <time>2023-09-30T10:15:03.000Z</time>
      </trkpt>
      <trkpt lat="45.84593" lon="4.69402">
        <ele>274.32132</ele>
        <time>2023-09-30T10:15:04.000Z</time>
      </trkpt>
      <trkpt lat="45.84589" lon="4.69405">
        <ele>274.56317</ele>
        <time>2023-09-30T10:15:05.000Z</time>
      </trkpt>
      <trkpt lat="45.84585" lon="4.69408">
        <ele>274.94684</ele>
        <time>2023-09-30T10:15:06.000Z</time>
      </trkpt>
      <trkpt lat="45.84581" lon="4.69412">
        <ele>275.31158</ele>
        <time>2023-09-30T10:15:07.000Z</time>
      </trkpt>
      <trkpt lat="45.84578" lon="4.69415">
        <ele>275.73801</ele>
        <time>2023-09-30T10:15:08.000Z</time>
      </trkpt>
      <trkpt lat="45.84573" lon="4.69422">
        <ele>276.21429</ele>
        <time>2023-09-30T10:15:09.000Z</time>
      </trkpt>
      <trkpt lat="45.8457" lon="4.69425">
        <ele>276.67014</ele>
        <time>2023-09-30T10:15:10.000Z</time>
      </trkpt>
      <trkpt lat="45.84567" lon="4.69428">
        <ele>277.19449</ele>
        <time>2023-09-30T10:15:11.000Z</time>
      </trkpt>
      <trkpt lat="45.84562" lon="4.69432">
        <ele>277.79706</ele>
        <time>2023-09-30T10:15:12.000Z</time>
      </trkpt>
      <trkpt lat="45.8456" lon="4.69435">
        <ele>277.94806</ele>
        <time>2023-09-30T10:15:13.000Z</time>
      </trkpt>
      <trkpt lat="45.84557" lon="4.69438">
        <ele>278.17523</ele>
        <time>2023-09-30T10:15:14.000Z</time>
      </trkpt>
      <trkpt lat="45.84554" lon="4.69442">
        <ele>278.42068</ele>
        <time>2023-09-30T10:15:15.000Z</time>
      </trkpt>
      <trkpt lat="45.8455" lon="4.69445">
        <ele>278.67963</ele>
        <time>2023-09-30T10:15:16.000Z</time>
      </trkpt>
      <trkpt lat="45.84545" lon="4.69448">
        <ele>278.69659</ele>
        <time>2023-09-30T10:15:17.000Z</time>
      </trkpt>
      <trkpt lat="45.84542" lon="4.69451">
        <ele>278.54868</ele>
        <time>2023-09-30T10:15:18.000Z</time>
      </trkpt>
      <trkpt lat="45.84539" lon="4.69454">
        <ele>278.2706</ele>
        <time>2023-09-30T10:15:19.000Z</time>
      </trkpt>
      <trkpt lat="45.84536" lon="4.69457">
        <ele>278.47601</ele>
        <time>2023-09-30T10:15:20.000Z</time>
      </trkpt>
      <trkpt lat="45.84532" lon="4.6946">
        <ele>278.59326</ele>
        <time>2023-09-30T10:15:21.000Z</time>
      </trkpt>
      <trkpt lat="45.84529" lon="4.69462">
        <ele>278.70605</ele>
        <time>2023-09-30T10:15:22.000Z</time>
      </trkpt>
      <trkpt lat="45.84526" lon="4.69465">
        <ele>278.81445</ele>
        <time>2023-09-30T10:15:23.000Z</time>
      </trkpt>
      <trkpt lat="45.84523" lon="4.69468">
        <ele>279.08188</ele>
        <time>2023-09-30T10:15:24.000Z</time>
      </trkpt>
      <trkpt lat="45.8452" lon="4.69471">
        <ele>279.36002</ele>
        <time>2023-09-30T10:15:25.000Z</time>
      </trkpt>
      <trkpt lat="45.84517" lon="4.69473">
        <ele>279.43784</ele>
        <time>2023-09-30T10:15:26.000Z</time>
      </trkpt>
      <trkpt lat="45.84513" lon="4.69475">
        <ele>279.10205</ele>
        <time>2023-09-30T10:15:27.000Z</time>
      </trkpt>
      <trkpt lat="45.8451" lon="4.69477">
        <ele>278.83911</ele>
        <time>2023-09-30T10:15:28.000Z</time>
      </trkpt>
      <trkpt lat="45.84506" lon="4.69478">
        <ele>278.53738</ele>
        <time>2023-09-30T10:15:29.000Z</time>
      </trkpt>
      <trkpt lat="45.84502" lon="4.6948">
        <ele>278.22528</ele>
        <time>2023-09-30T10:15:30.000Z</time>
      </trkpt>
      <trkpt lat="45.84499" lon="4.69482">
        <ele>277.9292</ele>
        <time>2023-09-30T10:15:31.000Z</time>
      </trkpt>
      <trkpt lat="45.84496" lon="4.69484">
        <ele>277.56012</ele>
        <time>2023-09-30T10:15:32.000Z</time>
      </trkpt>
      <trkpt lat="45.8449" lon="4.6949">
        <ele>277.69305</ele>
        <time>2023-09-30T10:15:33.000Z</time>
      </trkpt>
      <trkpt lat="45.84487" lon="4.69494">
        <ele>277.75668</ele>
        <time>2023-09-30T10:15:34.000Z</time>
      </trkpt>
      <trkpt lat="45.84483" lon="4.69498">
        <ele>277.87607</ele>
        <time>2023-09-30T10:15:35.000Z</time>
      </trkpt>
      <trkpt lat="45.84478" lon="4.69501">
        <ele>277.95276</ele>
        <time>2023-09-30T10:15:36.000Z</time>
      </trkpt>
      <trkpt lat="45.84474" lon="4.69503">
        <ele>278.15359</ele>
        <time>2023-09-30T10:15:37.000Z</time>
      </trkpt>
      <trkpt lat="45.84471" lon="4.69505">
        <ele>278.33575</ele>
        <time>2023-09-30T10:15:38.000Z</time>
      </trkpt>
      <trkpt lat="45.84466" lon="4.69506">
        <ele>278.48553</ele>
        <time>2023-09-30T10:15:39.000Z</time>
      </trkpt>
      <trkpt lat="45.84462" lon="4.69507">
        <ele>278.54657</ele>
        <time>2023-09-30T10:15:40.000Z</time>
      </trkpt>
      <trkpt lat="45.84458" lon="4.69508">
        <ele>278.60443</ele>
        <time>2023-09-30T10:15:41.000Z</time>
      </trkpt>
      <trkpt lat="45.84454" lon="4.69509">
        <ele>278.6908</ele>
        <time>2023-09-30T10:15:42.000Z</time>
      </trkpt>
      <trkpt lat="45.84449" lon="4.6951">
        <ele>278.71686</ele>
        <time>2023-09-30T10:15:43.000Z</time>
      </trkpt>
      <trkpt lat="45.84445" lon="4.69511">
        <ele>278.59076</ele>
        <time>2023-09-30T10:15:44.000Z</time>
      </trkpt>
      <trkpt lat="45.84441" lon="4.69513">
        <ele>278.38947</ele>
        <time>2023-09-30T10:15:45.000Z</time>
      </trkpt>
      <trkpt lat="45.84437" lon="4.69514">
        <ele>278.25116</ele>
        <time>2023-09-30T10:15:46.000Z</time>
      </trkpt>
      <trkpt lat="45.84433" lon="4.69516">
        <ele>278.49622</ele>
        <time>2023-09-30T10:15:47.000Z</time>
      </trkpt>
      <trkpt lat="45.84429" lon="4.69518">
        <ele>278.63873</ele>
        <time>2023-09-30T10:15:48.000Z</time>
      </trkpt>
      <trkpt lat="45.84424" lon="4.69519">
        <ele>278.83069</ele>
        <time>2023-09-30T10:15:49.000Z</time>
      </trkpt>
      <trkpt lat="45.8442" lon="4.6952">
        <ele>278.97647</ele>
        <time>2023-09-30T10:15:50.000Z</time>
      </trkpt>
      <trkpt lat="45.84416" lon="4.69522">
        <ele>279.09116</ele>
        <time>2023-09-30T10:15:51.000Z</time>
      </trkpt>
      <trkpt lat="45.84413" lon="4.69523">
        <ele>279.20551</ele>
        <time>2023-09-30T10:15:52.000Z</time>
      </trkpt>
      <trkpt lat="45.84407" lon="4.69525">
        <ele>279.26166</ele>
        <time>2023-09-30T10:15:53.000Z</time>
      </trkpt>
      <trkpt lat="45.84403" lon="4.69525">
        <ele>279.29181</ele>
        <time>2023-09-30T10:15:54.000Z</time>
      </trkpt>
      <trkpt lat="45.84398" lon="4.69526">
        <ele>279.27985</ele>
        <time>2023-09-30T10:15:55.000Z</time>
      </trkpt>
      <trkpt lat="45.84395" lon="4.69527">
        <ele>279.30078</ele>
        <time>2023-09-30T10:15:56.000Z</time>
      </trkpt>
      <trkpt lat="45.84391" lon="4.69527">
        <ele>279.25525</ele>
        <time>2023-09-30T10:15:57.000Z</time>
      </trkpt>
      <trkpt lat="45.84387" lon="4.69527">
        <ele>279.23907</ele>
        <time>2023-09-30T10:15:58.000Z</time>
      </trkpt>
      <trkpt lat="45.84384" lon="4.69528">
        <ele>279.29724</ele>
        <time>2023-09-30T10:15:59.000Z</time>
      </trkpt>
      <trkpt lat="45.84382" lon="4.69532">
        <ele>279.44354</ele>
        <time>2023-09-30T10:16:00.000Z</time>
      </trkpt>
      <trkpt lat="45.84379" lon="4.69536">
        <ele>279.61716</ele>
        <time>2023-09-30T10:16:01.000Z</time>
      </trkpt>
      <trkpt lat="45.84379" lon="4.69541">
        <ele>279.79117</ele>
        <time>2023-09-30T10:16:02.000Z</time>
      </trkpt>
      <trkpt lat="45.84381" lon="4.69546">
        <ele>280.00351</ele>
        <time>2023-09-30T10:16:03.000Z</time>
      </trkpt>
      <trkpt lat="45.84381" lon="4.69553">
        <ele>280.2114</ele>
        <time>2023-09-30T10:16:04.000Z</time>
      </trkpt>
      <trkpt lat="45.84381" lon="4.6956">
        <ele>280.42682</ele>
        <time>2023-09-30T10:16:05.000Z</time>
      </trkpt>
      <trkpt lat="45.84382" lon="4.69567">
        <ele>280.63162</ele>
        <time>2023-09-30T10:16:06.000Z</time>
      </trkpt>
      <trkpt lat="45.84383" lon="4.69574">
        <ele>280.86407</ele>
        <time>2023-09-30T10:16:07.000Z</time>
      </trkpt>
      <trkpt lat="45.84384" lon="4.69581">
        <ele>281.09537</ele>
        <time>2023-09-30T10:16:08.000Z</time>
      </trkpt>
      <trkpt lat="45.84387" lon="4.69588">
        <ele>281.31421</ele>
        <time>2023-09-30T10:16:09.000Z</time>
      </trkpt>
      <trkpt lat="45.84387" lon="4.69594">
        <ele>281.55621</ele>
        <time>2023-09-30T10:16:10.000Z</time>
      </trkpt>
      <trkpt lat="45.84388" lon="4.69602">
        <ele>281.80963</ele>
        <time>2023-09-30T10:16:11.000Z</time>
      </trkpt>
      <trkpt lat="45.8439" lon="4.69607">
        <ele>282.10052</ele>
        <time>2023-09-30T10:16:12.000Z</time>
      </trkpt>
      <trkpt lat="45.8439" lon="4.69612">
        <ele>282.37674</ele>
        <time>2023-09-30T10:16:13.000Z</time>
      </trkpt>
      <trkpt lat="45.84391" lon="4.69617">
        <ele>282.63416</ele>
        <time>2023-09-30T10:16:14.000Z</time>
      </trkpt>
      <trkpt lat="45.8439" lon="4.69622">
        <ele>282.89175</ele>
        <time>2023-09-30T10:16:15.000Z</time>
      </trkpt>
      <trkpt lat="45.84383" lon="4.69627">
        <ele>283.17975</ele>
        <time>2023-09-30T10:16:16.000Z</time>
      </trkpt>
      <trkpt lat="45.84379" lon="4.6963">
        <ele>283.4248</ele>
        <time>2023-09-30T10:16:17.000Z</time>
      </trkpt>
      <trkpt lat="45.84374" lon="4.69634">
        <ele>283.716</ele>
        <time>2023-09-30T10:16:18.000Z</time>
      </trkpt>
      <trkpt lat="45.84369" lon="4.69637">
        <ele>283.96417</ele>
        <time>2023-09-30T10:16:19.000Z</time>
      </trkpt>
      <trkpt lat="45.84365" lon="4.69639">
        <ele>284.22733</ele>
        <time>2023-09-30T10:16:20.000Z</time>
      </trkpt>
      <trkpt lat="45.84361" lon="4.69642">
        <ele>284.43417</ele>
        <time>2023-09-30T10:16:21.000Z</time>
      </trkpt>
      <trkpt lat="45.84354" lon="4.69643">
        <ele>284.52216</ele>
        <time>2023-09-30T10:16:22.000Z</time>
      </trkpt>
      <trkpt lat="45.8435" lon="4.69647">
        <ele>284.56235</ele>
        <time>2023-09-30T10:16:23.000Z</time>
      </trkpt>
      <trkpt lat="45.84346" lon="4.6965">
        <ele>284.61368</ele>
        <time>2023-09-30T10:16:24.000Z</time>
      </trkpt>
      <trkpt lat="45.84342" lon="4.69652">
        <ele>284.68549</ele>
        <time>2023-09-30T10:16:25.000Z</time>
      </trkpt>
      <trkpt lat="45.84337" lon="4.69654">
        <ele>284.71918</ele>
        <time>2023-09-30T10:16:26.000Z</time>
      </trkpt>
      <trkpt lat="45.84332" lon="4.69656">
        <ele>284.84186</ele>
        <time>2023-09-30T10:16:27.000Z</time>
      </trkpt>
      <trkpt lat="45.84329" lon="4.69659">
        <ele>285.33087</ele>
        <time>2023-09-30T10:16:28.000Z</time>
      </trkpt>
      <trkpt lat="45.84323" lon="4.69661">
        <ele>285.75226</ele>
        <time>2023-09-30T10:16:29.000Z</time>
      </trkpt>
      <trkpt lat="45.84317" lon="4.69663">
        <ele>286.17984</ele>
        <time>2023-09-30T10:16:30.000Z</time>
      </trkpt>
      <trkpt lat="45.84312" lon="4.69666">
        <ele>286.59161</ele>
        <time>2023-09-30T10:16:31.000Z</time>
      </trkpt>
      <trkpt lat="45.84307" lon="4.69668">
        <ele>286.61938</ele>
        <time>2023-09-30T10:16:32.000Z</time>
      </trkpt>
      <trkpt lat="45.84301" lon="4.6967">
        <ele>286.6897</ele>
        <time>2023-09-30T10:16:33.000Z</time>
      </trkpt>
      <trkpt lat="45.84296" lon="4.69672">
        <ele>286.82404</ele>
        <time>2023-09-30T10:16:34.000Z</time>
      </trkpt>
      <trkpt lat="45.84292" lon="4.69674">
        <ele>286.97342</ele>
        <time>2023-09-30T10:16:35.000Z</time>
      </trkpt>
      <trkpt lat="45.84287" lon="4.69676">
        <ele>287.11017</ele>
        <time>2023-09-30T10:16:36.000Z</time>
      </trkpt>
      <trkpt lat="45.84283" lon="4.69678">
        <ele>287.39194</ele>
        <time>2023-09-30T10:16:37.000Z</time>
      </trkpt>
      <trkpt lat="45.84279" lon="4.69681">
        <ele>287.62601</ele>
        <time>2023-09-30T10:16:38.000Z</time>
      </trkpt>
      <trkpt lat="45.84273" lon="4.69682">
        <ele>287.86243</ele>
        <time>2023-09-30T10:16:39.000Z</time>
      </trkpt>
      <trkpt lat="45.84267" lon="4.69686">
        <ele>288.06778</ele>
        <time>2023-09-30T10:16:40.000Z</time>
      </trkpt>
      <trkpt lat="45.84261" lon="4.69686">
        <ele>288.32468</ele>
        <time>2023-09-30T10:16:41.000Z</time>
      </trkpt>
      <trkpt lat="45.84256" lon="4.69687">
        <ele>288.78577</ele>
        <time>2023-09-30T10:16:42.000Z</time>
      </trkpt>
      <trkpt lat="45.8425" lon="4.69688">
        <ele>288.94843</ele>
        <time>2023-09-30T10:16:43.000Z</time>
      </trkpt>
      <trkpt lat="45.84243" lon="4.69689">
        <ele>289.04871</ele>
        <time>2023-09-30T10:16:44.000Z</time>
      </trkpt>
      <trkpt lat="45.84235" lon="4.69688">
        <ele>289.00726</ele>
        <time>2023-09-30T10:16:45.000Z</time>
      </trkpt>
      <trkpt lat="45.84229" lon="4.69689">
        <ele>289.00494</ele>
        <time>2023-09-30T10:16:46.000Z</time>
      </trkpt>
      <trkpt lat="45.84223" lon="4.69689">
        <ele>289.23004</ele>
        <time>2023-09-30T10:16:47.000Z</time>
      </trkpt>
      <trkpt lat="45.84217" lon="4.69688">
        <ele>289.32184</ele>
        <time>2023-09-30T10:16:48.000Z</time>
      </trkpt>
      <trkpt lat="45.84212" lon="4.69686">
        <ele>289.3988</ele>
        <time>2023-09-30T10:16:49.000Z</time>
      </trkpt>
      <trkpt lat="45.84206" lon="4.69686">
        <ele>288.94403</ele>
        <time>2023-09-30T10:16:50.000Z</time>
      </trkpt>
      <trkpt lat="45.84201" lon="4.69686">
        <ele>288.54962</ele>
        <time>2023-09-30T10:16:51.000Z</time>
      </trkpt>
      <trkpt lat="45.84194" lon="4.69687">
        <ele>288.37531</ele>
        <time>2023-09-30T10:16:52.000Z</time>
      </trkpt>
      <trkpt lat="45.84187" lon="4.69687">
        <ele>288.1413</ele>
        <time>2023-09-30T10:16:53.000Z</time>
      </trkpt>
      <trkpt lat="45.84181" lon="4.69686">
        <ele>287.87906</ele>
        <time>2023-09-30T10:16:54.000Z</time>
      </trkpt>
      <trkpt lat="45.84175" lon="4.69685">
        <ele>287.5954</ele>
        <time>2023-09-30T10:16:55.000Z</time>
      </trkpt>
      <trkpt lat="45.84169" lon="4.69685">
        <ele>287.15237</ele>
        <time>2023-09-30T10:16:56.000Z</time>
      </trkpt>
      <trkpt lat="45.84164" lon="4.69684">
        <ele>286.58725</ele>
        <time>2023-09-30T10:16:57.000Z</time>
      </trkpt>
      <trkpt lat="45.84157" lon="4.69685">
        <ele>286.00183</ele>
        <time>2023-09-30T10:16:58.000Z</time>
      </trkpt>
      <trkpt lat="45.84152" lon="4.69684">
        <ele>285.5722</ele>
        <time>2023-09-30T10:16:59.000Z</time>
      </trkpt>
      <trkpt lat="45.84147" lon="4.69683">
        <ele>285.23944</ele>
        <time>2023-09-30T10:17:00.000Z</time>
      </trkpt>
      <trkpt lat="45.84142" lon="4.69684">
        <ele>284.88214</ele>
        <time>2023-09-30T10:17:01.000Z</time>
      </trkpt>
      <trkpt lat="45.84137" lon="4.69682">
        <ele>284.13553</ele>
        <time>2023-09-30T10:17:02.000Z</time>
      </trkpt>
      <trkpt lat="45.84133" lon="4.69683">
        <ele>283.69159</ele>
        <time>2023-09-30T10:17:03.000Z</time>
      </trkpt>
      <trkpt lat="45.84129" lon="4.69682">
        <ele>283.27322</ele>
        <time>2023-09-30T10:17:04.000Z</time>
      </trkpt>
      <trkpt lat="45.84124" lon="4.69681">
        <ele>282.96857</ele>
        <time>2023-09-30T10:17:05.000Z</time>
      </trkpt>
      <trkpt lat="45.8412" lon="4.69679">
        <ele>282.69696</ele>
        <time>2023-09-30T10:17:06.000Z</time>
      </trkpt>
      <trkpt lat="45.84115" lon="4.69677">
        <ele>282.13104</ele>
        <time>2023-09-30T10:17:07.000Z</time>
      </trkpt>
      <trkpt lat="45.8411" lon="4.69677">
        <ele>281.35431</ele>
        <time>2023-09-30T10:17:08.000Z</time>
      </trkpt>
      <trkpt lat="45.84106" lon="4.69675">
        <ele>280.65781</ele>
        <time>2023-09-30T10:17:09.000Z</time>
      </trkpt>
      <trkpt lat="45.84102" lon="4.69674">
        <ele>280.54449</ele>
        <time>2023-09-30T10:17:10.000Z</time>
      </trkpt>
      <trkpt lat="45.84098" lon="4.69676">
        <ele>280.4772</ele>
        <time>2023-09-30T10:17:11.000Z</time>
      </trkpt>
      <trkpt lat="45.84093" lon="4.69676">
        <ele>280.66156</ele>
        <time>2023-09-30T10:17:12.000Z</time>
      </trkpt>
      <trkpt lat="45.8409" lon="4.69679">
        <ele>280.60043</ele>
        <time>2023-09-30T10:17:13.000Z</time>
      </trkpt>
      <trkpt lat="45.84085" lon="4.6968">
        <ele>280.56561</ele>
        <time>2023-09-30T10:17:14.000Z</time>
      </trkpt>
      <trkpt lat="45.84082" lon="4.69682">
        <ele>280.53653</ele>
        <time>2023-09-30T10:17:15.000Z</time>
      </trkpt>
      <trkpt lat="45.84078" lon="4.69683">
        <ele>280.65381</ele>
        <time>2023-09-30T10:17:16.000Z</time>
      </trkpt>
      <trkpt lat="45.84075" lon="4.69687">
        <ele>280.72958</ele>
        <time>2023-09-30T10:17:17.000Z</time>
      </trkpt>
      <trkpt lat="45.84072" lon="4.69691">
        <ele>280.80963</ele>
        <time>2023-09-30T10:17:18.000Z</time>
      </trkpt>
      <trkpt lat="45.84068" lon="4.69697">
        <ele>280.77728</ele>
        <time>2023-09-30T10:17:19.000Z</time>
      </trkpt>
      <trkpt lat="45.84064" lon="4.69701">
        <ele>280.61203</ele>
        <time>2023-09-30T10:17:20.000Z</time>
      </trkpt>
      <trkpt lat="45.8406" lon="4.69705">
        <ele>280.4191</ele>
        <time>2023-09-30T10:17:21.000Z</time>
      </trkpt>
      <trkpt lat="45.84056" lon="4.69709">
        <ele>280.54199</ele>
        <time>2023-09-30T10:17:22.000Z</time>
      </trkpt>
      <trkpt lat="45.84052" lon="4.69712">
        <ele>280.69244</ele>
        <time>2023-09-30T10:17:23.000Z</time>
      </trkpt>
      <trkpt lat="45.8405" lon="4.69719">
        <ele>280.77051</ele>
        <time>2023-09-30T10:17:25.000Z</time>
      </trkpt>
      <trkpt lat="45.84048" lon="4.69721">
        <ele>280.82486</ele>
        <time>2023-09-30T10:17:26.000Z</time>
      </trkpt>
      <trkpt lat="45.84045" lon="4.69725">
        <ele>280.83807</ele>
        <time>2023-09-30T10:17:27.000Z</time>
      </trkpt>
      <trkpt lat="45.84042" lon="4.69728">
        <ele>280.84445</ele>
        <time>2023-09-30T10:17:28.000Z</time>
      </trkpt>
      <trkpt lat="45.8404" lon="4.69733">
        <ele>280.83646</ele>
        <time>2023-09-30T10:17:29.000Z</time>
      </trkpt>
      <trkpt lat="45.84037" lon="4.69737">
        <ele>280.80945</ele>
        <time>2023-09-30T10:17:30.000Z</time>
      </trkpt>
      <trkpt lat="45.84035" lon="4.6974">
        <ele>280.7338</ele>
        <time>2023-09-30T10:17:31.000Z</time>
      </trkpt>
      <trkpt lat="45.84033" lon="4.69744">
        <ele>280.58038</ele>
        <time>2023-09-30T10:17:32.000Z</time>
      </trkpt>
      <trkpt lat="45.84031" lon="4.69748">
        <ele>280.29248</ele>
        <time>2023-09-30T10:17:33.000Z</time>
      </trkpt>
      <trkpt lat="45.84028" lon="4.69752">
        <ele>280.28961</ele>
        <time>2023-09-30T10:17:34.000Z</time>
      </trkpt>
      <trkpt lat="45.84026" lon="4.69756">
        <ele>280.25937</ele>
        <time>2023-09-30T10:17:35.000Z</time>
      </trkpt>
      <trkpt lat="45.84024" lon="4.6976">
        <ele>280.20511</ele>
        <time>2023-09-30T10:17:36.000Z</time>
      </trkpt>
      <trkpt lat="45.84021" lon="4.69765">
        <ele>280.16504</ele>
        <time>2023-09-30T10:17:37.000Z</time>
      </trkpt>
      <trkpt lat="45.84019" lon="4.69769">
        <ele>280.16873</ele>
        <time>2023-09-30T10:17:38.000Z</time>
      </trkpt>
      <trkpt lat="45.84016" lon="4.69773">
        <ele>280.19623</ele>
        <time>2023-09-30T10:17:39.000Z</time>
      </trkpt>
      <trkpt lat="45.84014" lon="4.69777">
        <ele>280.23486</ele>
        <time>2023-09-30T10:17:40.000Z</time>
      </trkpt>
      <trkpt lat="45.84011" lon="4.69781">
        <ele>280.31232</ele>
        <time>2023-09-30T10:17:41.000Z</time>
      </trkpt>
      <trkpt lat="45.84009" lon="4.69786">
        <ele>280.4418</ele>
        <time>2023-09-30T10:17:42.000Z</time>
      </trkpt>
      <trkpt lat="45.84007" lon="4.6979">
        <ele>280.51376</ele>
        <time>2023-09-30T10:17:43.000Z</time>
      </trkpt>
      <trkpt lat="45.84005" lon="4.69794">
        <ele>280.58481</ele>
        <time>2023-09-30T10:17:44.000Z</time>
      </trkpt>
      <trkpt lat="45.84002" lon="4.69798">
        <ele>280.73138</ele>
        <time>2023-09-30T10:17:45.000Z</time>
      </trkpt>
      <trkpt lat="45.84" lon="4.69803">
        <ele>280.91983</ele>
        <time>2023-09-30T10:17:46.000Z</time>
      </trkpt>
      <trkpt lat="45.83997" lon="4.69808">
        <ele>281.11639</ele>
        <time>2023-09-30T10:17:47.000Z</time>
      </trkpt>
      <trkpt lat="45.83995" lon="4.69812">
        <ele>281.23837</ele>
        <time>2023-09-30T10:17:48.000Z</time>
      </trkpt>
      <trkpt lat="45.83992" lon="4.69817">
        <ele>281.36768</ele>
        <time>2023-09-30T10:17:49.000Z</time>
      </trkpt>
      <trkpt lat="45.83989" lon="4.69822">
        <ele>281.50565</ele>
        <time>2023-09-30T10:17:50.000Z</time>
      </trkpt>
      <trkpt lat="45.83986" lon="4.69828">
        <ele>281.61877</ele>
        <time>2023-09-30T10:17:51.000Z</time>
      </trkpt>
      <trkpt lat="45.83983" lon="4.69834">
        <ele>281.72321</ele>
        <time>2023-09-30T10:17:52.000Z</time>
      </trkpt>
      <trkpt lat="45.8398" lon="4.69838">
        <ele>281.84323</ele>
        <time>2023-09-30T10:17:53.000Z</time>
      </trkpt>
      <trkpt lat="45.83978" lon="4.69845">
        <ele>282.05463</ele>
        <time>2023-09-30T10:17:54.000Z</time>
      </trkpt>
      <trkpt lat="45.83975" lon="4.69848">
        <ele>282.3158</ele>
        <time>2023-09-30T10:17:55.000Z</time>
      </trkpt>
      <trkpt lat="45.83972" lon="4.69854">
        <ele>282.65469</ele>
        <time>2023-09-30T10:17:56.000Z</time>
      </trkpt>
      <trkpt lat="45.8397" lon="4.69859">
        <ele>282.7735</ele>
        <time>2023-09-30T10:17:57.000Z</time>
      </trkpt>
      <trkpt lat="45.83967" lon="4.69863">
        <ele>282.90671</ele>
        <time>2023-09-30T10:17:58.000Z</time>
      </trkpt>
      <trkpt lat="45.83965" lon="4.69868">
        <ele>283.00983</ele>
        <time>2023-09-30T10:17:59.000Z</time>
      </trkpt>
      <trkpt lat="45.83962" lon="4.69871">
        <ele>283.06104</ele>
        <time>2023-09-30T10:18:00.000Z</time>
      </trkpt>
      <trkpt lat="45.8396" lon="4.69876">
        <ele>282.8587</ele>
        <time>2023-09-30T10:18:01.000Z</time>
      </trkpt>
      <trkpt lat="45.83958" lon="4.6988">
        <ele>282.63376</ele>
        <time>2023-09-30T10:18:02.000Z</time>
      </trkpt>
      <trkpt lat="45.83955" lon="4.69883">
        <ele>282.40414</ele>
        <time>2023-09-30T10:18:03.000Z</time>
      </trkpt>
      <trkpt lat="45.83952" lon="4.69888">
        <ele>282.12128</ele>
        <time>2023-09-30T10:18:04.000Z</time>
      </trkpt>
      <trkpt lat="45.83949" lon="4.69893">
        <ele>281.85318</ele>
        <time>2023-09-30T10:18:05.000Z</time>
      </trkpt>
      <trkpt lat="45.83946" lon="4.69899">
        <ele>281.54376</ele>
        <time>2023-09-30T10:18:06.000Z</time>
      </trkpt>
      <trkpt lat="45.83943" lon="4.69905">
        <ele>281.22031</ele>
        <time>2023-09-30T10:18:07.000Z</time>
      </trkpt>
      <trkpt lat="45.8394" lon="4.6991">
        <ele>280.95547</ele>
        <time>2023-09-30T10:18:08.000Z</time>
      </trkpt>
      <trkpt lat="45.83936" lon="4.69915">
        <ele>280.68549</ele>
        <time>2023-09-30T10:18:09.000Z</time>
      </trkpt>
      <trkpt lat="45.83934" lon="4.69921">
        <ele>280.40207</ele>
        <time>2023-09-30T10:18:10.000Z</time>
      </trkpt>
      <trkpt lat="45.83932" lon="4.69927">
        <ele>280.14392</ele>
        <time>2023-09-30T10:18:11.000Z</time>
      </trkpt>
      <trkpt lat="45.83928" lon="4.69931">
        <ele>279.90796</ele>
        <time>2023-09-30T10:18:12.000Z</time>
      </trkpt>
      <trkpt lat="45.83925" lon="4.69936">
        <ele>279.68314</ele>
        <time>2023-09-30T10:18:13.000Z</time>
      </trkpt>
      <trkpt lat="45.83921" lon="4.6994">
        <ele>279.35114</ele>
        <time>2023-09-30T10:18:14.000Z</time>
      </trkpt>
      <trkpt lat="45.83917" lon="4.69946">
        <ele>278.96576</ele>
        <time>2023-09-30T10:18:15.000Z</time>
      </trkpt>
      <trkpt lat="45.83914" lon="4.69951">
        <ele>278.54663</ele>
        <time>2023-09-30T10:18:16.000Z</time>
      </trkpt>
      <trkpt lat="45.83911" lon="4.69956">
        <ele>278.35483</ele>
        <time>2023-09-30T10:18:17.000Z</time>
      </trkpt>
      <trkpt lat="45.83908" lon="4.69961">
        <ele>278.12753</ele>
        <time>2023-09-30T10:18:18.000Z</time>
      </trkpt>
      <trkpt lat="45.83904" lon="4.69967">
        <ele>278.77176</ele>
        <time>2023-09-30T10:18:19.000Z</time>
      </trkpt>
      <trkpt lat="45.83901" lon="4.69972">
        <ele>279.47165</ele>
        <time>2023-09-30T10:18:20.000Z</time>
      </trkpt>
      <trkpt lat="45.83897" lon="4.69978">
        <ele>280.37906</ele>
        <time>2023-09-30T10:18:21.000Z</time>
      </trkpt>
      <trkpt lat="45.83893" lon="4.69983">
        <ele>281.37411</ele>
        <time>2023-09-30T10:18:22.000Z</time>
      </trkpt>
      <trkpt lat="45.8389" lon="4.69988">
        <ele>282.39471</ele>
        <time>2023-09-30T10:18:23.000Z</time>
      </trkpt>
      <trkpt lat="45.83885" lon="4.69994">
        <ele>283.47885</ele>
        <time>2023-09-30T10:18:24.000Z</time>
      </trkpt>
      <trkpt lat="45.83883" lon="4.69999">
        <ele>284.63229</ele>
        <time>2023-09-30T10:18:25.000Z</time>
      </trkpt>
      <trkpt lat="45.83879" lon="4.70005">
        <ele>285.78085</ele>
        <time>2023-09-30T10:18:26.000Z</time>
      </trkpt>
      <trkpt lat="45.83876" lon="4.7001">
        <ele>286.94321</ele>
        <time>2023-09-30T10:18:27.000Z</time>
      </trkpt>
      <trkpt lat="45.83873" lon="4.70016">
        <ele>287.55991</ele>
        <time>2023-09-30T10:18:28.000Z</time>
      </trkpt>
      <trkpt lat="45.8387" lon="4.70022">
        <ele>288.23492</ele>
        <time>2023-09-30T10:18:29.000Z</time>
      </trkpt>
      <trkpt lat="45.83868" lon="4.70027">
        <ele>288.92734</ele>
        <time>2023-09-30T10:18:30.000Z</time>
      </trkpt>
      <trkpt lat="45.83866" lon="4.70033">
        <ele>289.3204</ele>
        <time>2023-09-30T10:18:31.000Z</time>
      </trkpt>
      <trkpt lat="45.83864" lon="4.70039">
        <ele>289.48932</ele>
        <time>2023-09-30T10:18:32.000Z</time>
      </trkpt>
      <trkpt lat="45.83863" lon="4.70046">
        <ele>289.65579</ele>
        <time>2023-09-30T10:18:33.000Z</time>
      </trkpt>
      <trkpt lat="45.83862" lon="4.70053">
        <ele>289.83051</ele>
        <time>2023-09-30T10:18:34.000Z</time>
      </trkpt>
      <trkpt lat="45.8386" lon="4.70058">
        <ele>290.04355</ele>
        <time>2023-09-30T10:18:35.000Z</time>
      </trkpt>
      <trkpt lat="45.83859" lon="4.70064">
        <ele>290.24341</ele>
        <time>2023-09-30T10:18:36.000Z</time>
      </trkpt>
      <trkpt lat="45.83858" lon="4.70069">
        <ele>290.42618</ele>
        <time>2023-09-30T10:18:37.000Z</time>
      </trkpt>
      <trkpt lat="45.83857" lon="4.70074">
        <ele>290.63055</ele>
        <time>2023-09-30T10:18:38.000Z</time>
      </trkpt>
      <trkpt lat="45.83855" lon="4.7008">
        <ele>289.97769</ele>
        <time>2023-09-30T10:18:39.000Z</time>
      </trkpt>
      <trkpt lat="45.83854" lon="4.70086">
        <ele>289.3006</ele>
        <time>2023-09-30T10:18:40.000Z</time>
      </trkpt>
      <trkpt lat="45.83853" lon="4.70092">
        <ele>288.64288</ele>
        <time>2023-09-30T10:18:41.000Z</time>
      </trkpt>
      <trkpt lat="45.83852" lon="4.70098">
        <ele>287.88303</ele>
        <time>2023-09-30T10:18:42.000Z</time>
      </trkpt>
      <trkpt lat="45.83851" lon="4.70104">
        <ele>287.12234</ele>
        <time>2023-09-30T10:18:43.000Z</time>
      </trkpt>
      <trkpt lat="45.83849" lon="4.70111">
        <ele>286.3396</ele>
        <time>2023-09-30T10:18:44.000Z</time>
      </trkpt>
      <trkpt lat="45.83847" lon="4.70118">
        <ele>285.47141</ele>
        <time>2023-09-30T10:18:45.000Z</time>
      </trkpt>
      <trkpt lat="45.83846" lon="4.70127">
        <ele>284.60712</ele>
        <time>2023-09-30T10:18:46.000Z</time>
      </trkpt>
      <trkpt lat="45.83843" lon="4.70134">
        <ele>283.7149</ele>
        <time>2023-09-30T10:18:47.000Z</time>
      </trkpt>
      <trkpt lat="45.8384" lon="4.70141">
        <ele>283.32126</ele>
        <time>2023-09-30T10:18:48.000Z</time>
      </trkpt>
      <trkpt lat="45.83837" lon="4.70149">
        <ele>282.86945</ele>
        <time>2023-09-30T10:18:49.000Z</time>
      </trkpt>
      <trkpt lat="45.83834" lon="4.70156">
        <ele>282.43979</ele>
        <time>2023-09-30T10:18:50.000Z</time>
      </trkpt>
      <trkpt lat="45.8383" lon="4.70162">
        <ele>282.26312</ele>
        <time>2023-09-30T10:18:51.000Z</time>
      </trkpt>
      <trkpt lat="45.83827" lon="4.7017">
        <ele>282.23868</ele>
        <time>2023-09-30T10:18:52.000Z</time>
      </trkpt>
      <trkpt lat="45.83822" lon="4.70173">
        <ele>282.21994</ele>
        <time>2023-09-30T10:18:53.000Z</time>
      </trkpt>
      <trkpt lat="45.83818" lon="4.70179">
        <ele>282.19131</ele>
        <time>2023-09-30T10:18:54.000Z</time>
      </trkpt>
      <trkpt lat="45.83814" lon="4.70183">
        <ele>282.10318</ele>
        <time>2023-09-30T10:18:55.000Z</time>
      </trkpt>
      <trkpt lat="45.83809" lon="4.70186">
        <ele>282.02036</ele>
        <time>2023-09-30T10:18:56.000Z</time>
      </trkpt>
      <trkpt lat="45.83806" lon="4.7019">
        <ele>281.94928</ele>
        <time>2023-09-30T10:18:57.000Z</time>
      </trkpt>
      <trkpt lat="45.83803" lon="4.70191">
        <ele>281.87997</ele>
        <time>2023-09-30T10:18:58.000Z</time>
      </trkpt>
      <trkpt lat="45.83802" lon="4.70194">
        <ele>281.80765</ele>
        <time>2023-09-30T10:18:59.000Z</time>
      </trkpt>
      <trkpt lat="45.838" lon="4.70199">
        <ele>281.75317</ele>
        <time>2023-09-30T10:19:00.000Z</time>
      </trkpt>
      <trkpt lat="45.83799" lon="4.70203">
        <ele>281.70746</ele>
        <time>2023-09-30T10:19:01.000Z</time>
      </trkpt>
      <trkpt lat="45.83801" lon="4.70208">
        <ele>281.72675</ele>
        <time>2023-09-30T10:19:02.000Z</time>
      </trkpt>
      <trkpt lat="45.83801" lon="4.70214">
        <ele>281.82205</ele>
        <time>2023-09-30T10:19:03.000Z</time>
      </trkpt>
      <trkpt lat="45.83801" lon="4.70221">
        <ele>281.95184</ele>
        <time>2023-09-30T10:19:04.000Z</time>
      </trkpt>
      <trkpt lat="45.83801" lon="4.70226">
        <ele>281.9234</ele>
        <time>2023-09-30T10:19:05.000Z</time>
      </trkpt>
      <trkpt lat="45.83801" lon="4.70229">
        <ele>281.9213</ele>
        <time>2023-09-30T10:19:06.000Z</time>
      </trkpt>
      <trkpt lat="45.83804" lon="4.70234">
        <ele>282.05292</ele>
        <time>2023-09-30T10:19:08.000Z</time>
      </trkpt>
      <trkpt lat="45.83805" lon="4.70237">
        <ele>282.26102</ele>
        <time>2023-09-30T10:19:09.000Z</time>
      </trkpt>
      <trkpt lat="45.83805" lon="4.70241">
        <ele>282.48322</ele>
        <time>2023-09-30T10:19:10.000Z</time>
      </trkpt>
      <trkpt lat="45.83806" lon="4.70245">
        <ele>282.78796</ele>
        <time>2023-09-30T10:19:11.000Z</time>
      </trkpt>
      <trkpt lat="45.83807" lon="4.70249">
        <ele>283.08624</ele>
        <time>2023-09-30T10:19:12.000Z</time>
      </trkpt>
      <trkpt lat="45.83807" lon="4.70255">
        <ele>283.2323</ele>
        <time>2023-09-30T10:19:13.000Z</time>
      </trkpt>
      <trkpt lat="45.83808" lon="4.7026">
        <ele>283.42267</ele>
        <time>2023-09-30T10:19:14.000Z</time>
      </trkpt>
      <trkpt lat="45.83809" lon="4.70265">
        <ele>283.59128</ele>
        <time>2023-09-30T10:19:15.000Z</time>
      </trkpt>
      <trkpt lat="45.8381" lon="4.70271">
        <ele>283.81647</ele>
        <time>2023-09-30T10:19:16.000Z</time>
      </trkpt>
      <trkpt lat="45.83811" lon="4.70275">
        <ele>284.02109</ele>
        <time>2023-09-30T10:19:17.000Z</time>
      </trkpt>
      <trkpt lat="45.83812" lon="4.70279">
        <ele>284.20981</ele>
        <time>2023-09-30T10:19:18.000Z</time>
      </trkpt>
      <trkpt lat="45.83812" lon="4.70282">
        <ele>284.4075</ele>
        <time>2023-09-30T10:19:19.000Z</time>
      </trkpt>
      <trkpt lat="45.83813" lon="4.70286">
        <ele>284.62064</ele>
        <time>2023-09-30T10:19:20.000Z</time>
      </trkpt>
      <trkpt lat="45.83814" lon="4.70289">
        <ele>284.81656</ele>
        <time>2023-09-30T10:19:21.000Z</time>
      </trkpt>
      <trkpt lat="45.83815" lon="4.70291">
        <ele>284.95938</ele>
        <time>2023-09-30T10:19:22.000Z</time>
      </trkpt>
      <trkpt lat="45.83817" lon="4.70295">
        <ele>285.05286</ele>
        <time>2023-09-30T10:19:23.000Z</time>
      </trkpt>
      <trkpt lat="45.83818" lon="4.70299">
        <ele>285.12567</ele>
        <time>2023-09-30T10:19:24.000Z</time>
      </trkpt>
      <trkpt lat="45.83818" lon="4.70302">
        <ele>285.20306</ele>
        <time>2023-09-30T10:19:25.000Z</time>
      </trkpt>
      <trkpt lat="45.83819" lon="4.70306">
        <ele>285.48599</ele>
        <time>2023-09-30T10:19:26.000Z</time>
      </trkpt>
      <trkpt lat="45.8382" lon="4.70309">
        <ele>285.79913</ele>
        <time>2023-09-30T10:19:27.000Z</time>
      </trkpt>
      <trkpt lat="45.83821" lon="4.70313">
        <ele>285.98865</ele>
        <time>2023-09-30T10:19:28.000Z</time>
      </trkpt>
      <trkpt lat="45.83822" lon="4.70317">
        <ele>286.15253</ele>
        <time>2023-09-30T10:19:29.000Z</time>
      </trkpt>
      <trkpt lat="45.83823" lon="4.7032">
        <ele>286.34894</ele>
        <time>2023-09-30T10:19:30.000Z</time>
      </trkpt>
      <trkpt lat="45.83824" lon="4.70325">
        <ele>286.45032</ele>
        <time>2023-09-30T10:19:31.000Z</time>
      </trkpt>
      <trkpt lat="45.83825" lon="4.70328">
        <ele>286.6087</ele>
        <time>2023-09-30T10:19:32.000Z</time>
      </trkpt>
      <trkpt lat="45.83826" lon="4.70332">
        <ele>286.98248</ele>
        <time>2023-09-30T10:19:33.000Z</time>
      </trkpt>
      <trkpt lat="45.83827" lon="4.70335">
        <ele>287.32928</ele>
        <time>2023-09-30T10:19:34.000Z</time>
      </trkpt>
      <trkpt lat="45.83827" lon="4.70338">
        <ele>287.53351</ele>
        <time>2023-09-30T10:19:35.000Z</time>
      </trkpt>
      <trkpt lat="45.83828" lon="4.70344">
        <ele>287.76303</ele>
        <time>2023-09-30T10:19:37.000Z</time>
      </trkpt>
      <trkpt lat="45.83829" lon="4.70347">
        <ele>288.07083</ele>
        <time>2023-09-30T10:19:38.000Z</time>
      </trkpt>
      <trkpt lat="45.8383" lon="4.70352">
        <ele>288.41156</ele>
        <time>2023-09-30T10:19:39.000Z</time>
      </trkpt>
      <trkpt lat="45.83831" lon="4.70356">
        <ele>288.76678</ele>
        <time>2023-09-30T10:19:40.000Z</time>
      </trkpt>
      <trkpt lat="45.83833" lon="4.70361">
        <ele>288.99719</ele>
        <time>2023-09-30T10:19:41.000Z</time>
      </trkpt>
      <trkpt lat="45.83834" lon="4.70365">
        <ele>289.26593</ele>
        <time>2023-09-30T10:19:42.000Z</time>
      </trkpt>
      <trkpt lat="45.83835" lon="4.7037">
        <ele>289.60526</ele>
        <time>2023-09-30T10:19:43.000Z</time>
      </trkpt>
      <trkpt lat="45.83836" lon="4.70375">
        <ele>289.92236</ele>
        <time>2023-09-30T10:19:44.000Z</time>
      </trkpt>
      <trkpt lat="45.83837" lon="4.7038">
        <ele>290.19781</ele>
        <time>2023-09-30T10:19:45.000Z</time>
      </trkpt>
      <trkpt lat="45.83839" lon="4.70385">
        <ele>290.49493</ele>
        <time>2023-09-30T10:19:46.000Z</time>
      </trkpt>
      <trkpt lat="45.8384" lon="4.7039">
        <ele>290.72272</ele>
        <time>2023-09-30T10:19:47.000Z</time>
      </trkpt>
      <trkpt lat="45.83841" lon="4.70395">
        <ele>290.91833</ele>
        <time>2023-09-30T10:19:48.000Z</time>
      </trkpt>
      <trkpt lat="45.83842" lon="4.704">
        <ele>291.11884</ele>
        <time>2023-09-30T10:19:49.000Z</time>
      </trkpt>
      <trkpt lat="45.83843" lon="4.70405">
        <ele>291.32004</ele>
        <time>2023-09-30T10:19:50.000Z</time>
      </trkpt>
      <trkpt lat="45.83844" lon="4.70411">
        <ele>291.47504</ele>
        <time>2023-09-30T10:19:51.000Z</time>
      </trkpt>
      <trkpt lat="45.83845" lon="4.70417">
        <ele>291.58365</ele>
        <time>2023-09-30T10:19:52.000Z</time>
      </trkpt>
      <trkpt lat="45.83847" lon="4.70422">
        <ele>291.74405</ele>
        <time>2023-09-30T10:19:53.000Z</time>
      </trkpt>
      <trkpt lat="45.83848" lon="4.70428">
        <ele>291.87949</ele>
        <time>2023-09-30T10:19:54.000Z</time>
      </trkpt>
      <trkpt lat="45.83849" lon="4.70433">
        <ele>291.97992</ele>
        <time>2023-09-30T10:19:55.000Z</time>
      </trkpt>
      <trkpt lat="45.8385" lon="4.70439">
        <ele>292.22952</ele>
        <time>2023-09-30T10:19:56.000Z</time>
      </trkpt>
      <trkpt lat="45.83851" lon="4.70444">
        <ele>292.45822</ele>
        <time>2023-09-30T10:19:57.000Z</time>
      </trkpt>
      <trkpt lat="45.83852" lon="4.7045">
        <ele>292.60135</ele>
        <time>2023-09-30T10:19:58.000Z</time>
      </trkpt>
      <trkpt lat="45.83853" lon="4.70455">
        <ele>292.72314</ele>
        <time>2023-09-30T10:19:59.000Z</time>
      </trkpt>
      <trkpt lat="45.83854" lon="4.70461">
        <ele>292.81525</ele>
        <time>2023-09-30T10:20:00.000Z</time>
      </trkpt>
      <trkpt lat="45.83855" lon="4.70466">
        <ele>292.914</ele>
        <time>2023-09-30T10:20:01.000Z</time>
      </trkpt>
      <trkpt lat="45.83857" lon="4.70471">
        <ele>292.99408</ele>
        <time>2023-09-30T10:20:02.000Z</time>
      </trkpt>
      <trkpt lat="45.83858" lon="4.70476">
        <ele>293.40359</ele>
        <time>2023-09-30T10:20:03.000Z</time>
      </trkpt>
      <trkpt lat="45.83859" lon="4.70481">
        <ele>293.84952</ele>
        <time>2023-09-30T10:20:04.000Z</time>
      </trkpt>
      <trkpt lat="45.8386" lon="4.70486">
        <ele>294.28989</ele>
        <time>2023-09-30T10:20:05.000Z</time>
      </trkpt>
      <trkpt lat="45.83861" lon="4.70491">
        <ele>294.86053</ele>
        <time>2023-09-30T10:20:06.000Z</time>
      </trkpt>
      <trkpt lat="45.83862" lon="4.70494">
        <ele>295.44611</ele>
        <time>2023-09-30T10:20:07.000Z</time>
      </trkpt>
      <trkpt lat="45.83863" lon="4.70498">
        <ele>296.12338</ele>
        <time>2023-09-30T10:20:08.000Z</time>
      </trkpt>
      <trkpt lat="45.83863" lon="4.70503">
        <ele>296.48459</ele>
        <time>2023-09-30T10:20:09.000Z</time>
      </trkpt>
      <trkpt lat="45.83861" lon="4.70508">
        <ele>296.90259</ele>
        <time>2023-09-30T10:20:10.000Z</time>
      </trkpt>
      <trkpt lat="45.83857" lon="4.70511">
        <ele>297.32419</ele>
        <time>2023-09-30T10:20:11.000Z</time>
      </trkpt>
      <trkpt lat="45.83851" lon="4.70513">
        <ele>297.40738</ele>
        <time>2023-09-30T10:20:12.000Z</time>
      </trkpt>
      <trkpt lat="45.83847" lon="4.70515">
        <ele>297.40942</ele>
        <time>2023-09-30T10:20:13.000Z</time>
      </trkpt>
      <trkpt lat="45.83842" lon="4.70518">
        <ele>297.42877</ele>
        <time>2023-09-30T10:20:14.000Z</time>
      </trkpt>
      <trkpt lat="45.83838" lon="4.70522">
        <ele>297.4632</ele>
        <time>2023-09-30T10:20:15.000Z</time>
      </trkpt>
      <trkpt lat="45.83833" lon="4.70526">
        <ele>297.49652</ele>
        <time>2023-09-30T10:20:16.000Z</time>
      </trkpt>
      <trkpt lat="45.83829" lon="4.7053">
        <ele>297.49994</ele>
        <time>2023-09-30T10:20:17.000Z</time>
      </trkpt>
      <trkpt lat="45.83824" lon="4.70533">
        <ele>297.50351</ele>
        <time>2023-09-30T10:20:18.000Z</time>
      </trkpt>
      <trkpt lat="45.83819" lon="4.70535">
        <ele>297.46588</ele>
        <time>2023-09-30T10:20:19.000Z</time>
      </trkpt>
      <trkpt lat="45.83813" lon="4.70538">
        <ele>297.42465</ele>
        <time>2023-09-30T10:20:20.000Z</time>
      </trkpt>
      <trkpt lat="45.83808" lon="4.70542">
        <ele>297.48788</ele>
        <time>2023-09-30T10:20:21.000Z</time>
      </trkpt>
      <trkpt lat="45.83803" lon="4.70547">
        <ele>297.52826</ele>
        <time>2023-09-30T10:20:22.000Z</time>
      </trkpt>
      <trkpt lat="45.83798" lon="4.70551">
        <ele>297.23734</ele>
        <time>2023-09-30T10:20:23.000Z</time>
      </trkpt>
      <trkpt lat="45.83792" lon="4.70553">
        <ele>296.93845</ele>
        <time>2023-09-30T10:20:24.000Z</time>
      </trkpt>
      <trkpt lat="45.83787" lon="4.70556">
        <ele>296.67514</ele>
        <time>2023-09-30T10:20:25.000Z</time>
      </trkpt>
      <trkpt lat="45.83781" lon="4.7056">
        <ele>296.30176</ele>
        <time>2023-09-30T10:20:26.000Z</time>
      </trkpt>
      <trkpt lat="45.83776" lon="4.70564">
        <ele>295.95959</ele>
        <time>2023-09-30T10:20:27.000Z</time>
      </trkpt>
      <trkpt lat="45.8377" lon="4.70567">
        <ele>295.42218</ele>
        <time>2023-09-30T10:20:28.000Z</time>
      </trkpt>
      <trkpt lat="45.83765" lon="4.7057">
        <ele>295.22989</ele>
        <time>2023-09-30T10:20:29.000Z</time>
      </trkpt>
      <trkpt lat="45.83759" lon="4.70572">
        <ele>294.93915</ele>
        <time>2023-09-30T10:20:30.000Z</time>
      </trkpt>
      <trkpt lat="45.83753" lon="4.70576">
        <ele>294.68298</ele>
        <time>2023-09-30T10:20:31.000Z</time>
      </trkpt>
      <trkpt lat="45.83747" lon="4.70579">
        <ele>294.78384</ele>
        <time>2023-09-30T10:20:32.000Z</time>
      </trkpt>
      <trkpt lat="45.83741" lon="4.70582">
        <ele>294.89407</ele>
        <time>2023-09-30T10:20:33.000Z</time>
      </trkpt>
      <trkpt lat="45.83735" lon="4.70584">
        <ele>294.99182</ele>
        <time>2023-09-30T10:20:34.000Z</time>
      </trkpt>
      <trkpt lat="45.83728" lon="4.70585">
        <ele>295.0842</ele>
        <time>2023-09-30T10:20:35.000Z</time>
      </trkpt>
      <trkpt lat="45.83722" lon="4.70585">
        <ele>295.19415</ele>
        <time>2023-09-30T10:20:36.000Z</time>
      </trkpt>
      <trkpt lat="45.83716" lon="4.70587">
        <ele>295.30756</ele>
        <time>2023-09-30T10:20:37.000Z</time>
      </trkpt>
      <trkpt lat="45.8371" lon="4.70587">
        <ele>295.4371</ele>
        <time>2023-09-30T10:20:38.000Z</time>
      </trkpt>
      <trkpt lat="45.83704" lon="4.70589">
        <ele>295.59418</ele>
        <time>2023-09-30T10:20:39.000Z</time>
      </trkpt>
      <trkpt lat="45.83698" lon="4.70591">
        <ele>295.73843</ele>
        <time>2023-09-30T10:20:40.000Z</time>
      </trkpt>
      <trkpt lat="45.83692" lon="4.70593">
        <ele>295.90851</ele>
        <time>2023-09-30T10:20:41.000Z</time>
      </trkpt>
      <trkpt lat="45.83686" lon="4.70595">
        <ele>296.10233</ele>
        <time>2023-09-30T10:20:42.000Z</time>
      </trkpt>
      <trkpt lat="45.8368" lon="4.70596">
        <ele>296.26761</ele>
        <time>2023-09-30T10:20:43.000Z</time>
      </trkpt>
      <trkpt lat="45.83673" lon="4.70597">
        <ele>296.42328</ele>
        <time>2023-09-30T10:20:44.000Z</time>
      </trkpt>
      <trkpt lat="45.83667" lon="4.706">
        <ele>296.5705</ele>
        <time>2023-09-30T10:20:45.000Z</time>
      </trkpt>
      <trkpt lat="45.83662" lon="4.70604">
        <ele>296.66611</ele>
        <time>2023-09-30T10:20:46.000Z</time>
      </trkpt>
      <trkpt lat="45.83656" lon="4.70607">
        <ele>296.76544</ele>
        <time>2023-09-30T10:20:47.000Z</time>
      </trkpt>
      <trkpt lat="45.83651" lon="4.7061">
        <ele>296.94263</ele>
        <time>2023-09-30T10:20:48.000Z</time>
      </trkpt>
      <trkpt lat="45.83645" lon="4.70612">
        <ele>297.07639</ele>
        <time>2023-09-30T10:20:49.000Z</time>
      </trkpt>
      <trkpt lat="45.83639" lon="4.70614">
        <ele>297.24371</ele>
        <time>2023-09-30T10:20:50.000Z</time>
      </trkpt>
      <trkpt lat="45.83634" lon="4.70618">
        <ele>297.3999</ele>
        <time>2023-09-30T10:20:51.000Z</time>
      </trkpt>
      <trkpt lat="45.83628" lon="4.7062">
        <ele>297.54681</ele>
        <time>2023-09-30T10:20:52.000Z</time>
      </trkpt>
      <trkpt lat="45.83622" lon="4.70621">
        <ele>297.69781</ele>
        <time>2023-09-30T10:20:53.000Z</time>
      </trkpt>
      <trkpt lat="45.83615" lon="4.70622">
        <ele>297.84567</ele>
        <time>2023-09-30T10:20:54.000Z</time>
      </trkpt>
      <trkpt lat="45.83609" lon="4.70621">
        <ele>297.98425</ele>
        <time>2023-09-30T10:20:55.000Z</time>
      </trkpt>
      <trkpt lat="45.83603" lon="4.70618">
        <ele>298.11655</ele>
        <time>2023-09-30T10:20:56.000Z</time>
      </trkpt>
      <trkpt lat="45.83598" lon="4.70615">
        <ele>298.26184</ele>
        <time>2023-09-30T10:20:57.000Z</time>
      </trkpt>
      <trkpt lat="45.83592" lon="4.70613">
        <ele>298.40594</ele>
        <time>2023-09-30T10:20:58.000Z</time>
      </trkpt>
      <trkpt lat="45.83586" lon="4.70612">
        <ele>298.55432</ele>
        <time>2023-09-30T10:20:59.000Z</time>
      </trkpt>
      <trkpt lat="45.8358" lon="4.70611">
        <ele>298.70663</ele>
        <time>2023-09-30T10:21:00.000Z</time>
      </trkpt>
      <trkpt lat="45.83574" lon="4.7061">
        <ele>298.82309</ele>
        <time>2023-09-30T10:21:01.000Z</time>
      </trkpt>
      <trkpt lat="45.83567" lon="4.7061">
        <ele>298.92429</ele>
        <time>2023-09-30T10:21:02.000Z</time>
      </trkpt>
      <trkpt lat="45.83561" lon="4.7061">
        <ele>299.03818</ele>
        <time>2023-09-30T10:21:03.000Z</time>
      </trkpt>
      <trkpt lat="45.83555" lon="4.7061">
        <ele>299.15591</ele>
        <time>2023-09-30T10:21:04.000Z</time>
      </trkpt>
      <trkpt lat="45.83549" lon="4.7061">
        <ele>299.26434</ele>
        <time>2023-09-30T10:21:05.000Z</time>
      </trkpt>
      <trkpt lat="45.83542" lon="4.70611">
        <ele>299.39343</ele>
        <time>2023-09-30T10:21:06.000Z</time>
      </trkpt>
      <trkpt lat="45.83536" lon="4.70611">
        <ele>299.50378</ele>
        <time>2023-09-30T10:21:07.000Z</time>
      </trkpt>
      <trkpt lat="45.83529" lon="4.70611">
        <ele>299.6362</ele>
        <time>2023-09-30T10:21:08.000Z</time>
      </trkpt>
      <trkpt lat="45.83523" lon="4.70612">
        <ele>299.8056</ele>
        <time>2023-09-30T10:21:09.000Z</time>
      </trkpt>
      <trkpt lat="45.83517" lon="4.70613">
        <ele>299.95477</ele>
        <time>2023-09-30T10:21:10.000Z</time>
      </trkpt>
      <trkpt lat="45.83511" lon="4.70613">
        <ele>300.09674</ele>
        <time>2023-09-30T10:21:11.000Z</time>
      </trkpt>
      <trkpt lat="45.83505" lon="4.70613">
        <ele>300.24661</ele>
        <time>2023-09-30T10:21:12.000Z</time>
      </trkpt>
      <trkpt lat="45.83499" lon="4.70613">
        <ele>300.39746</ele>
        <time>2023-09-30T10:21:13.000Z</time>
      </trkpt>
      <trkpt lat="45.83493" lon="4.70614">
        <ele>300.5589</ele>
        <time>2023-09-30T10:21:14.000Z</time>
      </trkpt>
      <trkpt lat="45.83487" lon="4.70614">
        <ele>300.73828</ele>
        <time>2023-09-30T10:21:15.000Z</time>
      </trkpt>
      <trkpt lat="45.83481" lon="4.70615">
        <ele>300.94434</ele>
        <time>2023-09-30T10:21:16.000Z</time>
      </trkpt>
      <trkpt lat="45.83475" lon="4.70615">
        <ele>301.13287</ele>
        <time>2023-09-30T10:21:17.000Z</time>
      </trkpt>
      <trkpt lat="45.83469" lon="4.70616">
        <ele>301.32019</ele>
        <time>2023-09-30T10:21:18.000Z</time>
      </trkpt>
      <trkpt lat="45.83463" lon="4.70616">
        <ele>301.51727</ele>
        <time>2023-09-30T10:21:19.000Z</time>
      </trkpt>
      <trkpt lat="45.83456" lon="4.70616">
        <ele>301.73648</ele>
        <time>2023-09-30T10:21:20.000Z</time>
      </trkpt>
      <trkpt lat="45.83451" lon="4.70615">
        <ele>301.97214</ele>
        <time>2023-09-30T10:21:21.000Z</time>
      </trkpt>
      <trkpt lat="45.83444" lon="4.70614">
        <ele>302.21408</ele>
        <time>2023-09-30T10:21:22.000Z</time>
      </trkpt>
      <trkpt lat="45.83438" lon="4.70613">
        <ele>302.45612</ele>
        <time>2023-09-30T10:21:23.000Z</time>
      </trkpt>
      <trkpt lat="45.83432" lon="4.70612">
        <ele>302.71423</ele>
        <time>2023-09-30T10:21:24.000Z</time>
      </trkpt>
      <trkpt lat="45.83426" lon="4.70611">
        <ele>302.95428</ele>
        <time>2023-09-30T10:21:25.000Z</time>
      </trkpt>
      <trkpt lat="45.8342" lon="4.7061">
        <ele>303.18512</ele>
        <time>2023-09-30T10:21:26.000Z</time>
      </trkpt>
      <trkpt lat="45.83414" lon="4.70609">
        <ele>303.41113</ele>
        <time>2023-09-30T10:21:27.000Z</time>
      </trkpt>
      <trkpt lat="45.83406" lon="4.70608">
        <ele>303.61127</ele>
        <time>2023-09-30T10:21:28.000Z</time>
      </trkpt>
      <trkpt lat="45.834" lon="4.70607">
        <ele>303.79901</ele>
        <time>2023-09-30T10:21:29.000Z</time>
      </trkpt>
      <trkpt lat="45.83394" lon="4.70607">
        <ele>303.98248</ele>
        <time>2023-09-30T10:21:30.000Z</time>
      </trkpt>
      <trkpt lat="45.83388" lon="4.70606">
        <ele>304.13339</ele>
        <time>2023-09-30T10:21:31.000Z</time>
      </trkpt>
      <trkpt lat="45.83382" lon="4.70605">
        <ele>304.29333</ele>
        <time>2023-09-30T10:21:32.000Z</time>
      </trkpt>
      <trkpt lat="45.83377" lon="4.70604">
        <ele>304.45615</ele>
        <time>2023-09-30T10:21:33.000Z</time>
      </trkpt>
      <trkpt lat="45.83371" lon="4.70604">
        <ele>304.62714</ele>
        <time>2023-09-30T10:21:34.000Z</time>
      </trkpt>
      <trkpt lat="45.83367" lon="4.70603">
        <ele>304.7912</ele>
        <time>2023-09-30T10:21:35.000Z</time>
      </trkpt>
      <trkpt lat="45.83363" lon="4.70602">
        <ele>304.93195</ele>
        <time>2023-09-30T10:21:36.000Z</time>
      </trkpt>
      <trkpt lat="45.83359" lon="4.70602">
        <ele>305.07196</ele>
        <time>2023-09-30T10:21:37.000Z</time>
      </trkpt>
      <trkpt lat="45.83357" lon="4.70601">
        <ele>305.20795</ele>
        <time>2023-09-30T10:21:38.000Z</time>
      </trkpt>
      <trkpt lat="45.83354" lon="4.70602">
        <ele>305.35358</ele>
        <time>2023-09-30T10:21:39.000Z</time>
      </trkpt>
      <trkpt lat="45.83352" lon="4.70602">
        <ele>305.47647</ele>
        <time>2023-09-30T10:21:40.000Z</time>
      </trkpt>
      <trkpt lat="45.83349" lon="4.70604">
        <ele>305.69904</ele>
        <time>2023-09-30T10:21:41.000Z</time>
      </trkpt>
      <trkpt lat="45.83347" lon="4.70608">
        <ele>305.92148</ele>
        <time>2023-09-30T10:21:42.000Z</time>
      </trkpt>
      <trkpt lat="45.83347" lon="4.70612">
        <ele>306.20697</ele>
        <time>2023-09-30T10:21:43.000Z</time>
      </trkpt>
      <trkpt lat="45.83348" lon="4.70618">
        <ele>306.72064</ele>
        <time>2023-09-30T10:21:44.000Z</time>
      </trkpt>
      <trkpt lat="45.83348" lon="4.70625">
        <ele>307.23264</ele>
        <time>2023-09-30T10:21:45.000Z</time>
      </trkpt>
      <trkpt lat="45.83348" lon="4.70633">
        <ele>307.7348</ele>
        <time>2023-09-30T10:21:46.000Z</time>
      </trkpt>
      <trkpt lat="45.83347" lon="4.70641">
        <ele>308.37128</ele>
        <time>2023-09-30T10:21:47.000Z</time>
      </trkpt>
      <trkpt lat="45.83347" lon="4.70648">
        <ele>309.01709</ele>
        <time>2023-09-30T10:21:48.000Z</time>
      </trkpt>
      <trkpt lat="45.83346" lon="4.70656">
        <ele>309.63168</ele>
        <time>2023-09-30T10:21:49.000Z</time>
      </trkpt>
      <trkpt lat="45.83346" lon="4.70663">
        <ele>310.25229</ele>
        <time>2023-09-30T10:21:50.000Z</time>
      </trkpt>
      <trkpt lat="45.83346" lon="4.7067">
        <ele>310.9136</ele>
        <time>2023-09-30T10:21:51.000Z</time>
      </trkpt>
      <trkpt lat="45.83345" lon="4.70677">
        <ele>311.54706</ele>
        <time>2023-09-30T10:21:52.000Z</time>
      </trkpt>
      <trkpt lat="45.83345" lon="4.70685">
        <ele>312.19562</ele>
        <time>2023-09-30T10:21:53.000Z</time>
      </trkpt>
      <trkpt lat="45.83344" lon="4.70692">
        <ele>312.82385</ele>
        <time>2023-09-30T10:21:54.000Z</time>
      </trkpt>
      <trkpt lat="45.83344" lon="4.707">
        <ele>313.52814</ele>
        <time>2023-09-30T10:21:55.000Z</time>
      </trkpt>
      <trkpt lat="45.83343" lon="4.70707">
        <ele>314.25659</ele>
        <time>2023-09-30T10:21:56.000Z</time>
      </trkpt>
      <trkpt lat="45.83343" lon="4.70714">
        <ele>315.04025</ele>
        <time>2023-09-30T10:21:57.000Z</time>
      </trkpt>
      <trkpt lat="45.83342" lon="4.70721">
        <ele>315.57397</ele>
        <time>2023-09-30T10:21:58.000Z</time>
      </trkpt>
      <trkpt lat="45.83342" lon="4.70727">
        <ele>316.12799</ele>
        <time>2023-09-30T10:21:59.000Z</time>
      </trkpt>
      <trkpt lat="45.8334" lon="4.70733">
        <ele>316.56964</ele>
        <time>2023-09-30T10:22:00.000Z</time>
      </trkpt>
      <trkpt lat="45.83341" lon="4.7074">
        <ele>316.89764</ele>
        <time>2023-09-30T10:22:01.000Z</time>
      </trkpt>
      <trkpt lat="45.8334" lon="4.70748">
        <ele>317.22751</ele>
        <time>2023-09-30T10:22:02.000Z</time>
      </trkpt>
      <trkpt lat="45.83339" lon="4.70756">
        <ele>317.47931</ele>
        <time>2023-09-30T10:22:03.000Z</time>
      </trkpt>
      <trkpt lat="45.83339" lon="4.70763">
        <ele>317.50201</ele>
        <time>2023-09-30T10:22:04.000Z</time>
      </trkpt>
      <trkpt lat="45.83338" lon="4.7077">
        <ele>317.53217</ele>
        <time>2023-09-30T10:22:05.000Z</time>
      </trkpt>
      <trkpt lat="45.83338" lon="4.70776">
        <ele>317.58807</ele>
        <time>2023-09-30T10:22:06.000Z</time>
      </trkpt>
      <trkpt lat="45.83337" lon="4.70783">
        <ele>317.49692</ele>
        <time>2023-09-30T10:22:07.000Z</time>
      </trkpt>
      <trkpt lat="45.83337" lon="4.70791">
        <ele>317.38977</ele>
        <time>2023-09-30T10:22:08.000Z</time>
      </trkpt>
      <trkpt lat="45.83336" lon="4.70798">
        <ele>317.28543</ele>
        <time>2023-09-30T10:22:09.000Z</time>
      </trkpt>
      <trkpt lat="45.83336" lon="4.70804">
        <ele>317.30356</ele>
        <time>2023-09-30T10:22:10.000Z</time>
      </trkpt>
      <trkpt lat="45.83335" lon="4.70811">
        <ele>317.27902</ele>
        <time>2023-09-30T10:22:11.000Z</time>
      </trkpt>
      <trkpt lat="45.83335" lon="4.70819">
        <ele>317.26184</ele>
        <time>2023-09-30T10:22:12.000Z</time>
      </trkpt>
      <trkpt lat="45.83335" lon="4.70825">
        <ele>317.22495</ele>
        <time>2023-09-30T10:22:13.000Z</time>
      </trkpt>
      <trkpt lat="45.83335" lon="4.70831">
        <ele>317.25885</ele>
        <time>2023-09-30T10:22:14.000Z</time>
      </trkpt>
      <trkpt lat="45.83335" lon="4.70837">
        <ele>317.24625</ele>
        <time>2023-09-30T10:22:15.000Z</time>
      </trkpt>
      <trkpt lat="45.83334" lon="4.70843">
        <ele>316.93314</ele>
        <time>2023-09-30T10:22:16.000Z</time>
      </trkpt>
      <trkpt lat="45.83334" lon="4.70848">
        <ele>316.57336</ele>
        <time>2023-09-30T10:22:17.000Z</time>
      </trkpt>
      <trkpt lat="45.83333" lon="4.70854">
        <ele>316.48489</ele>
        <time>2023-09-30T10:22:18.000Z</time>
      </trkpt>
    </trkseg>
  </trk>
</gpx>